<?xml version="1.0" encoding="UTF-8" standalone="no" ?>
<gpx xmlns="http://www.topografix.com/GPX/1/1" xmlns:xsi="http://www.w3.org/2001/XMLSchema-instance" xsi:schemaLocation="http://www.topografix.com/GPX/1/1 http://www.topografix.com/GPX/1/1/gpx.xsd" version="1.1" creator="VisuGPX - https://www.visugpx.com">
  <metadata>
    <name>Bâle-St Nazaire Etape 5</name>
    <desc><![CDATA[Bâle-St Nazaire Etape 5 - 14.07.2015

St-Jean de Losne - Chagny

Hôtel de la Poste
http://www.hoteldelaposte-chagny.com/]]></desc>
  </metadata>
  <trk>
    <name><![CDATA[JUIL-14-15 17:08:33]]></name>
    <trkseg>
      <trkpt lat="47.10308" lon="5.2629">
        <ele>187.59</ele>
        <time>2015-07-14T06:13:14.000Z</time>
      </trkpt>
      <trkpt lat="47.10329" lon="5.26274">
        <ele>250.56</ele>
        <time>2015-07-14T06:13:19.000Z</time>
      </trkpt>
      <trkpt lat="47.10351" lon="5.26237">
        <ele>249.6</ele>
        <time>2015-07-14T06:13:38.000Z</time>
      </trkpt>
      <trkpt lat="47.10355" lon="5.26251">
        <ele>249.12</ele>
        <time>2015-07-14T06:13:42.000Z</time>
      </trkpt>
      <trkpt lat="47.10361" lon="5.26265">
        <ele>250.08</ele>
        <time>2015-07-14T06:13:46.000Z</time>
      </trkpt>
      <trkpt lat="47.10358" lon="5.26279">
        <ele>250.56</ele>
        <time>2015-07-14T06:13:50.000Z</time>
      </trkpt>
      <trkpt lat="47.10344" lon="5.26287">
        <ele>250.08</ele>
        <time>2015-07-14T06:13:55.000Z</time>
      </trkpt>
      <trkpt lat="47.10333" lon="5.26287">
        <ele>250.08</ele>
        <time>2015-07-14T06:13:59.000Z</time>
      </trkpt>
      <trkpt lat="47.10323" lon="5.26291">
        <ele>250.56</ele>
        <time>2015-07-14T06:14:03.000Z</time>
      </trkpt>
      <trkpt lat="47.10313" lon="5.26294">
        <ele>251.04</ele>
        <time>2015-07-14T06:14:07.000Z</time>
      </trkpt>
      <trkpt lat="47.10303" lon="5.26296">
        <ele>251.04</ele>
        <time>2015-07-14T06:14:10.000Z</time>
      </trkpt>
      <trkpt lat="47.10291" lon="5.26298">
        <ele>250.56</ele>
        <time>2015-07-14T06:14:14.000Z</time>
      </trkpt>
      <trkpt lat="47.10281" lon="5.263">
        <ele>251.04</ele>
        <time>2015-07-14T06:14:18.000Z</time>
      </trkpt>
      <trkpt lat="47.1027" lon="5.263">
        <ele>250.56</ele>
        <time>2015-07-14T06:14:21.000Z</time>
      </trkpt>
      <trkpt lat="47.10257" lon="5.26304">
        <ele>251.04</ele>
        <time>2015-07-14T06:14:25.000Z</time>
      </trkpt>
      <trkpt lat="47.10246" lon="5.26305">
        <ele>250.56</ele>
        <time>2015-07-14T06:14:28.000Z</time>
      </trkpt>
      <trkpt lat="47.10233" lon="5.26305">
        <ele>250.56</ele>
        <time>2015-07-14T06:14:32.000Z</time>
      </trkpt>
      <trkpt lat="47.10221" lon="5.26306">
        <ele>251.04</ele>
        <time>2015-07-14T06:14:36.000Z</time>
      </trkpt>
      <trkpt lat="47.1021" lon="5.26307">
        <ele>251.04</ele>
        <time>2015-07-14T06:14:40.000Z</time>
      </trkpt>
      <trkpt lat="47.10198" lon="5.26309">
        <ele>251.04</ele>
        <time>2015-07-14T06:14:44.000Z</time>
      </trkpt>
      <trkpt lat="47.10188" lon="5.2631">
        <ele>251.52</ele>
        <time>2015-07-14T06:14:48.000Z</time>
      </trkpt>
      <trkpt lat="47.10177" lon="5.26315">
        <ele>252</ele>
        <time>2015-07-14T06:14:52.000Z</time>
      </trkpt>
      <trkpt lat="47.10168" lon="5.26319">
        <ele>251.52</ele>
        <time>2015-07-14T06:14:57.000Z</time>
      </trkpt>
      <trkpt lat="47.10174" lon="5.26314">
        <ele>251.52</ele>
        <time>2015-07-14T06:15:26.000Z</time>
      </trkpt>
      <trkpt lat="47.10183" lon="5.26305">
        <ele>251.52</ele>
        <time>2015-07-14T06:15:33.000Z</time>
      </trkpt>
      <trkpt lat="47.10178" lon="5.26311">
        <ele>251.52</ele>
        <time>2015-07-14T06:20:05.000Z</time>
      </trkpt>
      <trkpt lat="47.10169" lon="5.26319">
        <ele>251.52</ele>
        <time>2015-07-14T06:20:11.000Z</time>
      </trkpt>
      <trkpt lat="47.10159" lon="5.26319">
        <ele>252</ele>
        <time>2015-07-14T06:20:16.000Z</time>
      </trkpt>
      <trkpt lat="47.1015" lon="5.26324">
        <ele>252.48</ele>
        <time>2015-07-14T06:20:22.000Z</time>
      </trkpt>
      <trkpt lat="47.10146" lon="5.26334">
        <ele>252.96</ele>
        <time>2015-07-14T06:20:29.000Z</time>
      </trkpt>
      <trkpt lat="47.10139" lon="5.26341">
        <ele>252.96</ele>
        <time>2015-07-14T06:21:09.000Z</time>
      </trkpt>
      <trkpt lat="47.10138" lon="5.26329">
        <ele>252.96</ele>
        <time>2015-07-14T06:25:54.000Z</time>
      </trkpt>
      <trkpt lat="47.10128" lon="5.26318">
        <ele>253.44</ele>
        <time>2015-07-14T06:25:59.000Z</time>
      </trkpt>
      <trkpt lat="47.10117" lon="5.26313">
        <ele>253.44</ele>
        <time>2015-07-14T06:26:03.000Z</time>
      </trkpt>
      <trkpt lat="47.10106" lon="5.2631">
        <ele>253.93</ele>
        <time>2015-07-14T06:26:07.000Z</time>
      </trkpt>
      <trkpt lat="47.10093" lon="5.2631">
        <ele>254.89</ele>
        <time>2015-07-14T06:26:11.000Z</time>
      </trkpt>
      <trkpt lat="47.10081" lon="5.26308">
        <ele>254.89</ele>
        <time>2015-07-14T06:26:15.000Z</time>
      </trkpt>
      <trkpt lat="47.1007" lon="5.26307">
        <ele>254.89</ele>
        <time>2015-07-14T06:26:19.000Z</time>
      </trkpt>
      <trkpt lat="47.1006" lon="5.26305">
        <ele>255.37</ele>
        <time>2015-07-14T06:26:22.000Z</time>
      </trkpt>
      <trkpt lat="47.10049" lon="5.26304">
        <ele>255.85</ele>
        <time>2015-07-14T06:26:25.000Z</time>
      </trkpt>
      <trkpt lat="47.10038" lon="5.26303">
        <ele>255.37</ele>
        <time>2015-07-14T06:26:28.000Z</time>
      </trkpt>
      <trkpt lat="47.10027" lon="5.26302">
        <ele>255.37</ele>
        <time>2015-07-14T06:26:31.000Z</time>
      </trkpt>
      <trkpt lat="47.10013" lon="5.26301">
        <ele>254.89</ele>
        <time>2015-07-14T06:26:34.000Z</time>
      </trkpt>
      <trkpt lat="47.10003" lon="5.263">
        <ele>254.41</ele>
        <time>2015-07-14T06:26:36.000Z</time>
      </trkpt>
      <trkpt lat="47.09993" lon="5.26299">
        <ele>253.93</ele>
        <time>2015-07-14T06:26:38.000Z</time>
      </trkpt>
      <trkpt lat="47.09983" lon="5.26298">
        <ele>253.44</ele>
        <time>2015-07-14T06:26:40.000Z</time>
      </trkpt>
      <trkpt lat="47.09974" lon="5.26297">
        <ele>252.96</ele>
        <time>2015-07-14T06:26:43.000Z</time>
      </trkpt>
      <trkpt lat="47.09968" lon="5.26287">
        <ele>252.48</ele>
        <time>2015-07-14T06:26:47.000Z</time>
      </trkpt>
      <trkpt lat="47.09971" lon="5.26272">
        <ele>251.52</ele>
        <time>2015-07-14T06:26:51.000Z</time>
      </trkpt>
      <trkpt lat="47.09973" lon="5.26257">
        <ele>251.04</ele>
        <time>2015-07-14T06:26:54.000Z</time>
      </trkpt>
      <trkpt lat="47.09975" lon="5.2624">
        <ele>250.56</ele>
        <time>2015-07-14T06:26:57.000Z</time>
      </trkpt>
      <trkpt lat="47.09977" lon="5.26221">
        <ele>251.04</ele>
        <time>2015-07-14T06:27:00.000Z</time>
      </trkpt>
      <trkpt lat="47.09978" lon="5.26206">
        <ele>249.6</ele>
        <time>2015-07-14T06:27:02.000Z</time>
      </trkpt>
      <trkpt lat="47.09979" lon="5.26191">
        <ele>249.6</ele>
        <time>2015-07-14T06:27:04.000Z</time>
      </trkpt>
      <trkpt lat="47.0998" lon="5.26177">
        <ele>250.08</ele>
        <time>2015-07-14T06:27:06.000Z</time>
      </trkpt>
      <trkpt lat="47.09982" lon="5.26157">
        <ele>250.08</ele>
        <time>2015-07-14T06:27:09.000Z</time>
      </trkpt>
      <trkpt lat="47.09983" lon="5.26139">
        <ele>250.56</ele>
        <time>2015-07-14T06:27:12.000Z</time>
      </trkpt>
      <trkpt lat="47.09984" lon="5.26122">
        <ele>250.56</ele>
        <time>2015-07-14T06:27:15.000Z</time>
      </trkpt>
      <trkpt lat="47.09985" lon="5.26104">
        <ele>250.08</ele>
        <time>2015-07-14T06:27:18.000Z</time>
      </trkpt>
      <trkpt lat="47.09986" lon="5.26085">
        <ele>250.56</ele>
        <time>2015-07-14T06:27:21.000Z</time>
      </trkpt>
      <trkpt lat="47.09985" lon="5.26066">
        <ele>250.08</ele>
        <time>2015-07-14T06:27:24.000Z</time>
      </trkpt>
      <trkpt lat="47.09985" lon="5.26049">
        <ele>249.6</ele>
        <time>2015-07-14T06:27:27.000Z</time>
      </trkpt>
      <trkpt lat="47.09985" lon="5.26032">
        <ele>250.08</ele>
        <time>2015-07-14T06:27:30.000Z</time>
      </trkpt>
      <trkpt lat="47.09984" lon="5.26013">
        <ele>250.08</ele>
        <time>2015-07-14T06:27:33.000Z</time>
      </trkpt>
      <trkpt lat="47.09985" lon="5.25999">
        <ele>250.08</ele>
        <time>2015-07-14T06:27:35.000Z</time>
      </trkpt>
      <trkpt lat="47.09983" lon="5.25985">
        <ele>249.6</ele>
        <time>2015-07-14T06:27:37.000Z</time>
      </trkpt>
      <trkpt lat="47.09982" lon="5.2597">
        <ele>249.6</ele>
        <time>2015-07-14T06:27:39.000Z</time>
      </trkpt>
      <trkpt lat="47.0998" lon="5.25957">
        <ele>249.12</ele>
        <time>2015-07-14T06:27:41.000Z</time>
      </trkpt>
      <trkpt lat="47.09978" lon="5.25943">
        <ele>249.12</ele>
        <time>2015-07-14T06:27:43.000Z</time>
      </trkpt>
      <trkpt lat="47.09977" lon="5.25928">
        <ele>249.12</ele>
        <time>2015-07-14T06:27:45.000Z</time>
      </trkpt>
      <trkpt lat="47.09976" lon="5.25913">
        <ele>249.12</ele>
        <time>2015-07-14T06:27:47.000Z</time>
      </trkpt>
      <trkpt lat="47.09975" lon="5.25898">
        <ele>249.12</ele>
        <time>2015-07-14T06:27:49.000Z</time>
      </trkpt>
      <trkpt lat="47.09974" lon="5.25883">
        <ele>249.12</ele>
        <time>2015-07-14T06:27:51.000Z</time>
      </trkpt>
      <trkpt lat="47.09972" lon="5.25869">
        <ele>248.64</ele>
        <time>2015-07-14T06:27:53.000Z</time>
      </trkpt>
      <trkpt lat="47.09971" lon="5.25854">
        <ele>249.12</ele>
        <time>2015-07-14T06:27:55.000Z</time>
      </trkpt>
      <trkpt lat="47.09969" lon="5.2584">
        <ele>249.12</ele>
        <time>2015-07-14T06:27:57.000Z</time>
      </trkpt>
      <trkpt lat="47.09967" lon="5.25826">
        <ele>249.12</ele>
        <time>2015-07-14T06:27:59.000Z</time>
      </trkpt>
      <trkpt lat="47.09966" lon="5.25813">
        <ele>249.12</ele>
        <time>2015-07-14T06:28:01.000Z</time>
      </trkpt>
      <trkpt lat="47.09964" lon="5.25799">
        <ele>249.12</ele>
        <time>2015-07-14T06:28:03.000Z</time>
      </trkpt>
      <trkpt lat="47.09963" lon="5.25786">
        <ele>249.12</ele>
        <time>2015-07-14T06:28:05.000Z</time>
      </trkpt>
      <trkpt lat="47.09961" lon="5.25772">
        <ele>248.64</ele>
        <time>2015-07-14T06:28:07.000Z</time>
      </trkpt>
      <trkpt lat="47.09959" lon="5.25759">
        <ele>249.12</ele>
        <time>2015-07-14T06:28:09.000Z</time>
      </trkpt>
      <trkpt lat="47.09957" lon="5.25745">
        <ele>249.12</ele>
        <time>2015-07-14T06:28:11.000Z</time>
      </trkpt>
      <trkpt lat="47.09955" lon="5.25731">
        <ele>249.12</ele>
        <time>2015-07-14T06:28:13.000Z</time>
      </trkpt>
      <trkpt lat="47.09953" lon="5.25718">
        <ele>249.12</ele>
        <time>2015-07-14T06:28:15.000Z</time>
      </trkpt>
      <trkpt lat="47.09951" lon="5.25705">
        <ele>249.12</ele>
        <time>2015-07-14T06:28:17.000Z</time>
      </trkpt>
      <trkpt lat="47.09949" lon="5.25691">
        <ele>249.12</ele>
        <time>2015-07-14T06:28:19.000Z</time>
      </trkpt>
      <trkpt lat="47.09946" lon="5.25678">
        <ele>249.12</ele>
        <time>2015-07-14T06:28:21.000Z</time>
      </trkpt>
      <trkpt lat="47.09943" lon="5.25665">
        <ele>248.64</ele>
        <time>2015-07-14T06:28:23.000Z</time>
      </trkpt>
      <trkpt lat="47.0994" lon="5.25652">
        <ele>249.6</ele>
        <time>2015-07-14T06:28:25.000Z</time>
      </trkpt>
      <trkpt lat="47.09938" lon="5.25639">
        <ele>249.12</ele>
        <time>2015-07-14T06:28:27.000Z</time>
      </trkpt>
      <trkpt lat="47.09935" lon="5.25627">
        <ele>249.12</ele>
        <time>2015-07-14T06:28:29.000Z</time>
      </trkpt>
      <trkpt lat="47.09932" lon="5.25614">
        <ele>248.64</ele>
        <time>2015-07-14T06:28:31.000Z</time>
      </trkpt>
      <trkpt lat="47.09928" lon="5.25601">
        <ele>248.64</ele>
        <time>2015-07-14T06:28:33.000Z</time>
      </trkpt>
      <trkpt lat="47.09924" lon="5.25589">
        <ele>249.12</ele>
        <time>2015-07-14T06:28:35.000Z</time>
      </trkpt>
      <trkpt lat="47.09919" lon="5.25572">
        <ele>248.64</ele>
        <time>2015-07-14T06:28:38.000Z</time>
      </trkpt>
      <trkpt lat="47.09914" lon="5.25556">
        <ele>248.64</ele>
        <time>2015-07-14T06:28:41.000Z</time>
      </trkpt>
      <trkpt lat="47.09909" lon="5.25539">
        <ele>248.64</ele>
        <time>2015-07-14T06:28:44.000Z</time>
      </trkpt>
      <trkpt lat="47.09904" lon="5.25522">
        <ele>248.64</ele>
        <time>2015-07-14T06:28:47.000Z</time>
      </trkpt>
      <trkpt lat="47.099" lon="5.2551">
        <ele>248.64</ele>
        <time>2015-07-14T06:28:49.000Z</time>
      </trkpt>
      <trkpt lat="47.09895" lon="5.25492">
        <ele>248.64</ele>
        <time>2015-07-14T06:28:52.000Z</time>
      </trkpt>
      <trkpt lat="47.09891" lon="5.25479">
        <ele>248.64</ele>
        <time>2015-07-14T06:28:54.000Z</time>
      </trkpt>
      <trkpt lat="47.09886" lon="5.25467">
        <ele>247.68</ele>
        <time>2015-07-14T06:28:56.000Z</time>
      </trkpt>
      <trkpt lat="47.09882" lon="5.25455">
        <ele>247.68</ele>
        <time>2015-07-14T06:28:58.000Z</time>
      </trkpt>
      <trkpt lat="47.09878" lon="5.25443">
        <ele>247.68</ele>
        <time>2015-07-14T06:29:00.000Z</time>
      </trkpt>
      <trkpt lat="47.09874" lon="5.25431">
        <ele>248.16</ele>
        <time>2015-07-14T06:29:02.000Z</time>
      </trkpt>
      <trkpt lat="47.09869" lon="5.25419">
        <ele>247.68</ele>
        <time>2015-07-14T06:29:04.000Z</time>
      </trkpt>
      <trkpt lat="47.09865" lon="5.25407">
        <ele>248.16</ele>
        <time>2015-07-14T06:29:06.000Z</time>
      </trkpt>
      <trkpt lat="47.0986" lon="5.25395">
        <ele>247.68</ele>
        <time>2015-07-14T06:29:08.000Z</time>
      </trkpt>
      <trkpt lat="47.09855" lon="5.25384">
        <ele>247.68</ele>
        <time>2015-07-14T06:29:10.000Z</time>
      </trkpt>
      <trkpt lat="47.09851" lon="5.25371">
        <ele>248.64</ele>
        <time>2015-07-14T06:29:12.000Z</time>
      </trkpt>
      <trkpt lat="47.09843" lon="5.25355">
        <ele>248.64</ele>
        <time>2015-07-14T06:29:15.000Z</time>
      </trkpt>
      <trkpt lat="47.09835" lon="5.25338">
        <ele>248.64</ele>
        <time>2015-07-14T06:29:18.000Z</time>
      </trkpt>
      <trkpt lat="47.09827" lon="5.25322">
        <ele>248.64</ele>
        <time>2015-07-14T06:29:21.000Z</time>
      </trkpt>
      <trkpt lat="47.09819" lon="5.25306">
        <ele>248.64</ele>
        <time>2015-07-14T06:29:24.000Z</time>
      </trkpt>
      <trkpt lat="47.09814" lon="5.25295">
        <ele>248.64</ele>
        <time>2015-07-14T06:29:26.000Z</time>
      </trkpt>
      <trkpt lat="47.09808" lon="5.25284">
        <ele>248.64</ele>
        <time>2015-07-14T06:29:28.000Z</time>
      </trkpt>
      <trkpt lat="47.09802" lon="5.25274">
        <ele>248.64</ele>
        <time>2015-07-14T06:29:30.000Z</time>
      </trkpt>
      <trkpt lat="47.09797" lon="5.25263">
        <ele>248.64</ele>
        <time>2015-07-14T06:29:32.000Z</time>
      </trkpt>
      <trkpt lat="47.09791" lon="5.25252">
        <ele>248.64</ele>
        <time>2015-07-14T06:29:34.000Z</time>
      </trkpt>
      <trkpt lat="47.09785" lon="5.25241">
        <ele>248.64</ele>
        <time>2015-07-14T06:29:36.000Z</time>
      </trkpt>
      <trkpt lat="47.0978" lon="5.2523">
        <ele>248.64</ele>
        <time>2015-07-14T06:29:38.000Z</time>
      </trkpt>
      <trkpt lat="47.09773" lon="5.2522">
        <ele>248.64</ele>
        <time>2015-07-14T06:29:40.000Z</time>
      </trkpt>
      <trkpt lat="47.09767" lon="5.25211">
        <ele>248.16</ele>
        <time>2015-07-14T06:29:42.000Z</time>
      </trkpt>
      <trkpt lat="47.0976" lon="5.25201">
        <ele>248.64</ele>
        <time>2015-07-14T06:29:44.000Z</time>
      </trkpt>
      <trkpt lat="47.09754" lon="5.25192">
        <ele>247.2</ele>
        <time>2015-07-14T06:29:46.000Z</time>
      </trkpt>
      <trkpt lat="47.09748" lon="5.25182">
        <ele>247.68</ele>
        <time>2015-07-14T06:29:48.000Z</time>
      </trkpt>
      <trkpt lat="47.0974" lon="5.25168">
        <ele>247.68</ele>
        <time>2015-07-14T06:29:51.000Z</time>
      </trkpt>
      <trkpt lat="47.09731" lon="5.25156">
        <ele>247.68</ele>
        <time>2015-07-14T06:29:54.000Z</time>
      </trkpt>
      <trkpt lat="47.09723" lon="5.25143">
        <ele>247.68</ele>
        <time>2015-07-14T06:29:57.000Z</time>
      </trkpt>
      <trkpt lat="47.09713" lon="5.2513">
        <ele>248.16</ele>
        <time>2015-07-14T06:30:00.000Z</time>
      </trkpt>
      <trkpt lat="47.09705" lon="5.25119">
        <ele>248.16</ele>
        <time>2015-07-14T06:30:03.000Z</time>
      </trkpt>
      <trkpt lat="47.09696" lon="5.2511">
        <ele>248.16</ele>
        <time>2015-07-14T06:30:06.000Z</time>
      </trkpt>
      <trkpt lat="47.09688" lon="5.25099">
        <ele>248.16</ele>
        <time>2015-07-14T06:30:09.000Z</time>
      </trkpt>
      <trkpt lat="47.09681" lon="5.25089">
        <ele>248.16</ele>
        <time>2015-07-14T06:30:12.000Z</time>
      </trkpt>
      <trkpt lat="47.09671" lon="5.2508">
        <ele>248.16</ele>
        <time>2015-07-14T06:30:32.000Z</time>
      </trkpt>
      <trkpt lat="47.09663" lon="5.2507">
        <ele>248.16</ele>
        <time>2015-07-14T06:30:36.000Z</time>
      </trkpt>
      <trkpt lat="47.09654" lon="5.25061">
        <ele>248.64</ele>
        <time>2015-07-14T06:30:40.000Z</time>
      </trkpt>
      <trkpt lat="47.09647" lon="5.25053">
        <ele>248.16</ele>
        <time>2015-07-14T06:30:43.000Z</time>
      </trkpt>
      <trkpt lat="47.09639" lon="5.25045">
        <ele>248.16</ele>
        <time>2015-07-14T06:30:46.000Z</time>
      </trkpt>
      <trkpt lat="47.09631" lon="5.25034">
        <ele>248.16</ele>
        <time>2015-07-14T06:30:49.000Z</time>
      </trkpt>
      <trkpt lat="47.09623" lon="5.25024">
        <ele>248.16</ele>
        <time>2015-07-14T06:30:52.000Z</time>
      </trkpt>
      <trkpt lat="47.09615" lon="5.25014">
        <ele>248.16</ele>
        <time>2015-07-14T06:30:55.000Z</time>
      </trkpt>
      <trkpt lat="47.09607" lon="5.25003">
        <ele>248.16</ele>
        <time>2015-07-14T06:30:58.000Z</time>
      </trkpt>
      <trkpt lat="47.096" lon="5.24992">
        <ele>248.16</ele>
        <time>2015-07-14T06:31:01.000Z</time>
      </trkpt>
      <trkpt lat="47.09592" lon="5.24981">
        <ele>248.16</ele>
        <time>2015-07-14T06:31:04.000Z</time>
      </trkpt>
      <trkpt lat="47.09584" lon="5.24971">
        <ele>248.16</ele>
        <time>2015-07-14T06:31:07.000Z</time>
      </trkpt>
      <trkpt lat="47.09577" lon="5.24958">
        <ele>248.64</ele>
        <time>2015-07-14T06:31:10.000Z</time>
      </trkpt>
      <trkpt lat="47.0957" lon="5.24946">
        <ele>248.16</ele>
        <time>2015-07-14T06:31:13.000Z</time>
      </trkpt>
      <trkpt lat="47.09564" lon="5.24933">
        <ele>248.16</ele>
        <time>2015-07-14T06:31:16.000Z</time>
      </trkpt>
      <trkpt lat="47.09557" lon="5.2492">
        <ele>248.16</ele>
        <time>2015-07-14T06:31:19.000Z</time>
      </trkpt>
      <trkpt lat="47.0955" lon="5.24908">
        <ele>248.16</ele>
        <time>2015-07-14T06:31:22.000Z</time>
      </trkpt>
      <trkpt lat="47.09545" lon="5.24894">
        <ele>248.64</ele>
        <time>2015-07-14T06:31:25.000Z</time>
      </trkpt>
      <trkpt lat="47.0954" lon="5.24882">
        <ele>248.16</ele>
        <time>2015-07-14T06:31:28.000Z</time>
      </trkpt>
      <trkpt lat="47.09534" lon="5.24869">
        <ele>248.16</ele>
        <time>2015-07-14T06:31:31.000Z</time>
      </trkpt>
      <trkpt lat="47.09529" lon="5.24857">
        <ele>248.16</ele>
        <time>2015-07-14T06:31:34.000Z</time>
      </trkpt>
      <trkpt lat="47.09523" lon="5.24846">
        <ele>247.2</ele>
        <time>2015-07-14T06:31:37.000Z</time>
      </trkpt>
      <trkpt lat="47.09515" lon="5.24836">
        <ele>247.2</ele>
        <time>2015-07-14T06:31:40.000Z</time>
      </trkpt>
      <trkpt lat="47.09509" lon="5.24826">
        <ele>247.68</ele>
        <time>2015-07-14T06:31:43.000Z</time>
      </trkpt>
      <trkpt lat="47.09502" lon="5.24814">
        <ele>248.16</ele>
        <time>2015-07-14T06:31:46.000Z</time>
      </trkpt>
      <trkpt lat="47.09497" lon="5.24802">
        <ele>248.64</ele>
        <time>2015-07-14T06:31:49.000Z</time>
      </trkpt>
      <trkpt lat="47.09491" lon="5.2479">
        <ele>248.16</ele>
        <time>2015-07-14T06:31:52.000Z</time>
      </trkpt>
      <trkpt lat="47.09485" lon="5.24778">
        <ele>248.16</ele>
        <time>2015-07-14T06:31:55.000Z</time>
      </trkpt>
      <trkpt lat="47.0948" lon="5.24765">
        <ele>248.64</ele>
        <time>2015-07-14T06:31:58.000Z</time>
      </trkpt>
      <trkpt lat="47.09475" lon="5.24753">
        <ele>248.64</ele>
        <time>2015-07-14T06:32:01.000Z</time>
      </trkpt>
      <trkpt lat="47.09469" lon="5.24741">
        <ele>248.16</ele>
        <time>2015-07-14T06:32:04.000Z</time>
      </trkpt>
      <trkpt lat="47.09463" lon="5.24731">
        <ele>248.16</ele>
        <time>2015-07-14T06:32:07.000Z</time>
      </trkpt>
      <trkpt lat="47.09457" lon="5.24719">
        <ele>248.16</ele>
        <time>2015-07-14T06:32:10.000Z</time>
      </trkpt>
      <trkpt lat="47.09452" lon="5.24704">
        <ele>248.16</ele>
        <time>2015-07-14T06:32:14.000Z</time>
      </trkpt>
      <trkpt lat="47.09447" lon="5.24692">
        <ele>248.16</ele>
        <time>2015-07-14T06:32:17.000Z</time>
      </trkpt>
      <trkpt lat="47.09442" lon="5.2468">
        <ele>248.16</ele>
        <time>2015-07-14T06:32:20.000Z</time>
      </trkpt>
      <trkpt lat="47.09435" lon="5.24669">
        <ele>248.16</ele>
        <time>2015-07-14T06:32:23.000Z</time>
      </trkpt>
      <trkpt lat="47.0943" lon="5.24657">
        <ele>248.64</ele>
        <time>2015-07-14T06:32:26.000Z</time>
      </trkpt>
      <trkpt lat="47.09424" lon="5.24644">
        <ele>248.16</ele>
        <time>2015-07-14T06:32:29.000Z</time>
      </trkpt>
      <trkpt lat="47.09418" lon="5.24632">
        <ele>248.16</ele>
        <time>2015-07-14T06:32:32.000Z</time>
      </trkpt>
      <trkpt lat="47.09413" lon="5.2462">
        <ele>248.16</ele>
        <time>2015-07-14T06:32:35.000Z</time>
      </trkpt>
      <trkpt lat="47.09407" lon="5.24606">
        <ele>248.64</ele>
        <time>2015-07-14T06:32:38.000Z</time>
      </trkpt>
      <trkpt lat="47.09402" lon="5.24595">
        <ele>248.16</ele>
        <time>2015-07-14T06:32:41.000Z</time>
      </trkpt>
      <trkpt lat="47.09398" lon="5.24582">
        <ele>247.68</ele>
        <time>2015-07-14T06:32:44.000Z</time>
      </trkpt>
      <trkpt lat="47.09392" lon="5.2457">
        <ele>248.16</ele>
        <time>2015-07-14T06:32:47.000Z</time>
      </trkpt>
      <trkpt lat="47.09385" lon="5.24556">
        <ele>247.68</ele>
        <time>2015-07-14T06:32:51.000Z</time>
      </trkpt>
      <trkpt lat="47.09378" lon="5.24545">
        <ele>247.68</ele>
        <time>2015-07-14T06:32:54.000Z</time>
      </trkpt>
      <trkpt lat="47.09371" lon="5.24535">
        <ele>247.68</ele>
        <time>2015-07-14T06:32:57.000Z</time>
      </trkpt>
      <trkpt lat="47.09364" lon="5.24525">
        <ele>248.16</ele>
        <time>2015-07-14T06:33:00.000Z</time>
      </trkpt>
      <trkpt lat="47.09356" lon="5.24512">
        <ele>248.16</ele>
        <time>2015-07-14T06:33:04.000Z</time>
      </trkpt>
      <trkpt lat="47.09349" lon="5.24501">
        <ele>247.68</ele>
        <time>2015-07-14T06:33:07.000Z</time>
      </trkpt>
      <trkpt lat="47.09343" lon="5.24491">
        <ele>248.16</ele>
        <time>2015-07-14T06:33:10.000Z</time>
      </trkpt>
      <trkpt lat="47.09335" lon="5.24482">
        <ele>248.16</ele>
        <time>2015-07-14T06:33:13.000Z</time>
      </trkpt>
      <trkpt lat="47.09327" lon="5.24474">
        <ele>248.16</ele>
        <time>2015-07-14T06:33:16.000Z</time>
      </trkpt>
      <trkpt lat="47.09319" lon="5.24465">
        <ele>248.16</ele>
        <time>2015-07-14T06:33:19.000Z</time>
      </trkpt>
      <trkpt lat="47.0931" lon="5.24458">
        <ele>248.16</ele>
        <time>2015-07-14T06:33:22.000Z</time>
      </trkpt>
      <trkpt lat="47.09302" lon="5.24451">
        <ele>248.16</ele>
        <time>2015-07-14T06:33:25.000Z</time>
      </trkpt>
      <trkpt lat="47.09293" lon="5.24444">
        <ele>248.16</ele>
        <time>2015-07-14T06:33:28.000Z</time>
      </trkpt>
      <trkpt lat="47.09285" lon="5.24437">
        <ele>248.16</ele>
        <time>2015-07-14T06:33:31.000Z</time>
      </trkpt>
      <trkpt lat="47.09276" lon="5.2443">
        <ele>248.16</ele>
        <time>2015-07-14T06:33:34.000Z</time>
      </trkpt>
      <trkpt lat="47.09267" lon="5.24424">
        <ele>248.64</ele>
        <time>2015-07-14T06:33:37.000Z</time>
      </trkpt>
      <trkpt lat="47.09258" lon="5.24418">
        <ele>248.64</ele>
        <time>2015-07-14T06:33:40.000Z</time>
      </trkpt>
      <trkpt lat="47.09249" lon="5.24411">
        <ele>248.64</ele>
        <time>2015-07-14T06:33:43.000Z</time>
      </trkpt>
      <trkpt lat="47.0924" lon="5.24406">
        <ele>248.16</ele>
        <time>2015-07-14T06:33:46.000Z</time>
      </trkpt>
      <trkpt lat="47.09229" lon="5.244">
        <ele>248.64</ele>
        <time>2015-07-14T06:33:49.000Z</time>
      </trkpt>
      <trkpt lat="47.09219" lon="5.24393">
        <ele>248.16</ele>
        <time>2015-07-14T06:33:52.000Z</time>
      </trkpt>
      <trkpt lat="47.09209" lon="5.24388">
        <ele>248.64</ele>
        <time>2015-07-14T06:33:55.000Z</time>
      </trkpt>
      <trkpt lat="47.09199" lon="5.24382">
        <ele>248.64</ele>
        <time>2015-07-14T06:33:58.000Z</time>
      </trkpt>
      <trkpt lat="47.09188" lon="5.24376">
        <ele>248.64</ele>
        <time>2015-07-14T06:34:01.000Z</time>
      </trkpt>
      <trkpt lat="47.09178" lon="5.2437">
        <ele>248.64</ele>
        <time>2015-07-14T06:34:04.000Z</time>
      </trkpt>
      <trkpt lat="47.09168" lon="5.24364">
        <ele>248.64</ele>
        <time>2015-07-14T06:34:07.000Z</time>
      </trkpt>
      <trkpt lat="47.09158" lon="5.24358">
        <ele>248.16</ele>
        <time>2015-07-14T06:34:10.000Z</time>
      </trkpt>
      <trkpt lat="47.09148" lon="5.24353">
        <ele>248.64</ele>
        <time>2015-07-14T06:34:13.000Z</time>
      </trkpt>
      <trkpt lat="47.0914" lon="5.24347">
        <ele>248.64</ele>
        <time>2015-07-14T06:34:16.000Z</time>
      </trkpt>
      <trkpt lat="47.09129" lon="5.2434">
        <ele>248.64</ele>
        <time>2015-07-14T06:34:20.000Z</time>
      </trkpt>
      <trkpt lat="47.0912" lon="5.24335">
        <ele>248.16</ele>
        <time>2015-07-14T06:34:23.000Z</time>
      </trkpt>
      <trkpt lat="47.0911" lon="5.24329">
        <ele>248.64</ele>
        <time>2015-07-14T06:34:26.000Z</time>
      </trkpt>
      <trkpt lat="47.091" lon="5.24323">
        <ele>248.64</ele>
        <time>2015-07-14T06:34:29.000Z</time>
      </trkpt>
      <trkpt lat="47.0909" lon="5.24318">
        <ele>248.16</ele>
        <time>2015-07-14T06:34:32.000Z</time>
      </trkpt>
      <trkpt lat="47.0908" lon="5.24313">
        <ele>248.16</ele>
        <time>2015-07-14T06:34:35.000Z</time>
      </trkpt>
      <trkpt lat="47.0907" lon="5.24308">
        <ele>248.64</ele>
        <time>2015-07-14T06:34:38.000Z</time>
      </trkpt>
      <trkpt lat="47.0906" lon="5.24303">
        <ele>248.16</ele>
        <time>2015-07-14T06:34:41.000Z</time>
      </trkpt>
      <trkpt lat="47.09051" lon="5.24299">
        <ele>248.64</ele>
        <time>2015-07-14T06:34:44.000Z</time>
      </trkpt>
      <trkpt lat="47.09041" lon="5.24295">
        <ele>248.16</ele>
        <time>2015-07-14T06:34:47.000Z</time>
      </trkpt>
      <trkpt lat="47.0903" lon="5.2429">
        <ele>248.16</ele>
        <time>2015-07-14T06:34:50.000Z</time>
      </trkpt>
      <trkpt lat="47.0902" lon="5.24286">
        <ele>248.64</ele>
        <time>2015-07-14T06:34:53.000Z</time>
      </trkpt>
      <trkpt lat="47.0901" lon="5.24283">
        <ele>248.64</ele>
        <time>2015-07-14T06:34:56.000Z</time>
      </trkpt>
      <trkpt lat="47.09001" lon="5.24278">
        <ele>248.16</ele>
        <time>2015-07-14T06:34:59.000Z</time>
      </trkpt>
      <trkpt lat="47.08992" lon="5.24273">
        <ele>248.16</ele>
        <time>2015-07-14T06:35:02.000Z</time>
      </trkpt>
      <trkpt lat="47.08983" lon="5.24269">
        <ele>248.64</ele>
        <time>2015-07-14T06:35:05.000Z</time>
      </trkpt>
      <trkpt lat="47.08973" lon="5.2426">
        <ele>248.64</ele>
        <time>2015-07-14T06:35:09.000Z</time>
      </trkpt>
      <trkpt lat="47.08966" lon="5.24252">
        <ele>249.12</ele>
        <time>2015-07-14T06:35:12.000Z</time>
      </trkpt>
      <trkpt lat="47.0896" lon="5.24242">
        <ele>249.12</ele>
        <time>2015-07-14T06:35:15.000Z</time>
      </trkpt>
      <trkpt lat="47.08952" lon="5.24232">
        <ele>248.64</ele>
        <time>2015-07-14T06:35:19.000Z</time>
      </trkpt>
      <trkpt lat="47.08945" lon="5.24222">
        <ele>248.16</ele>
        <time>2015-07-14T06:35:46.000Z</time>
      </trkpt>
      <trkpt lat="47.08939" lon="5.2421">
        <ele>248.16</ele>
        <time>2015-07-14T06:35:50.000Z</time>
      </trkpt>
      <trkpt lat="47.08932" lon="5.242">
        <ele>249.12</ele>
        <time>2015-07-14T06:35:53.000Z</time>
      </trkpt>
      <trkpt lat="47.08923" lon="5.2419">
        <ele>249.12</ele>
        <time>2015-07-14T06:35:56.000Z</time>
      </trkpt>
      <trkpt lat="47.08915" lon="5.24179">
        <ele>249.12</ele>
        <time>2015-07-14T06:35:59.000Z</time>
      </trkpt>
      <trkpt lat="47.08907" lon="5.24167">
        <ele>249.12</ele>
        <time>2015-07-14T06:36:02.000Z</time>
      </trkpt>
      <trkpt lat="47.08899" lon="5.24155">
        <ele>249.12</ele>
        <time>2015-07-14T06:36:05.000Z</time>
      </trkpt>
      <trkpt lat="47.0889" lon="5.24143">
        <ele>249.12</ele>
        <time>2015-07-14T06:36:08.000Z</time>
      </trkpt>
      <trkpt lat="47.0888" lon="5.24131">
        <ele>249.12</ele>
        <time>2015-07-14T06:36:11.000Z</time>
      </trkpt>
      <trkpt lat="47.08871" lon="5.24118">
        <ele>249.12</ele>
        <time>2015-07-14T06:36:14.000Z</time>
      </trkpt>
      <trkpt lat="47.08862" lon="5.24106">
        <ele>249.12</ele>
        <time>2015-07-14T06:36:17.000Z</time>
      </trkpt>
      <trkpt lat="47.08853" lon="5.24093">
        <ele>248.64</ele>
        <time>2015-07-14T06:36:20.000Z</time>
      </trkpt>
      <trkpt lat="47.08845" lon="5.2408">
        <ele>249.6</ele>
        <time>2015-07-14T06:36:23.000Z</time>
      </trkpt>
      <trkpt lat="47.08835" lon="5.24067">
        <ele>249.12</ele>
        <time>2015-07-14T06:36:26.000Z</time>
      </trkpt>
      <trkpt lat="47.08826" lon="5.24054">
        <ele>248.64</ele>
        <time>2015-07-14T06:36:29.000Z</time>
      </trkpt>
      <trkpt lat="47.08817" lon="5.24041">
        <ele>248.64</ele>
        <time>2015-07-14T06:36:32.000Z</time>
      </trkpt>
      <trkpt lat="47.0881" lon="5.24031">
        <ele>248.64</ele>
        <time>2015-07-14T06:36:34.000Z</time>
      </trkpt>
      <trkpt lat="47.08802" lon="5.24017">
        <ele>248.64</ele>
        <time>2015-07-14T06:36:37.000Z</time>
      </trkpt>
      <trkpt lat="47.08793" lon="5.24003">
        <ele>248.64</ele>
        <time>2015-07-14T06:36:40.000Z</time>
      </trkpt>
      <trkpt lat="47.08786" lon="5.23989">
        <ele>248.64</ele>
        <time>2015-07-14T06:36:43.000Z</time>
      </trkpt>
      <trkpt lat="47.08778" lon="5.23975">
        <ele>248.64</ele>
        <time>2015-07-14T06:36:46.000Z</time>
      </trkpt>
      <trkpt lat="47.0877" lon="5.23959">
        <ele>248.64</ele>
        <time>2015-07-14T06:36:49.000Z</time>
      </trkpt>
      <trkpt lat="47.08762" lon="5.23944">
        <ele>248.64</ele>
        <time>2015-07-14T06:36:52.000Z</time>
      </trkpt>
      <trkpt lat="47.08754" lon="5.23929">
        <ele>248.64</ele>
        <time>2015-07-14T06:36:55.000Z</time>
      </trkpt>
      <trkpt lat="47.08746" lon="5.23914">
        <ele>249.12</ele>
        <time>2015-07-14T06:36:58.000Z</time>
      </trkpt>
      <trkpt lat="47.08738" lon="5.23899">
        <ele>249.12</ele>
        <time>2015-07-14T06:37:01.000Z</time>
      </trkpt>
      <trkpt lat="47.0873" lon="5.23883">
        <ele>249.12</ele>
        <time>2015-07-14T06:37:04.000Z</time>
      </trkpt>
      <trkpt lat="47.08722" lon="5.23867">
        <ele>249.12</ele>
        <time>2015-07-14T06:37:07.000Z</time>
      </trkpt>
      <trkpt lat="47.08715" lon="5.2385">
        <ele>249.12</ele>
        <time>2015-07-14T06:37:10.000Z</time>
      </trkpt>
      <trkpt lat="47.0871" lon="5.23839">
        <ele>249.12</ele>
        <time>2015-07-14T06:37:12.000Z</time>
      </trkpt>
      <trkpt lat="47.08706" lon="5.23827">
        <ele>248.64</ele>
        <time>2015-07-14T06:37:14.000Z</time>
      </trkpt>
      <trkpt lat="47.08699" lon="5.23811">
        <ele>248.64</ele>
        <time>2015-07-14T06:37:17.000Z</time>
      </trkpt>
      <trkpt lat="47.08694" lon="5.23799">
        <ele>249.12</ele>
        <time>2015-07-14T06:37:19.000Z</time>
      </trkpt>
      <trkpt lat="47.08688" lon="5.23783">
        <ele>248.64</ele>
        <time>2015-07-14T06:37:22.000Z</time>
      </trkpt>
      <trkpt lat="47.0868" lon="5.23765">
        <ele>249.12</ele>
        <time>2015-07-14T06:37:25.000Z</time>
      </trkpt>
      <trkpt lat="47.08673" lon="5.23748">
        <ele>248.64</ele>
        <time>2015-07-14T06:37:28.000Z</time>
      </trkpt>
      <trkpt lat="47.08669" lon="5.23737">
        <ele>249.12</ele>
        <time>2015-07-14T06:37:30.000Z</time>
      </trkpt>
      <trkpt lat="47.08662" lon="5.23719">
        <ele>249.12</ele>
        <time>2015-07-14T06:37:33.000Z</time>
      </trkpt>
      <trkpt lat="47.08658" lon="5.23706">
        <ele>249.12</ele>
        <time>2015-07-14T06:37:35.000Z</time>
      </trkpt>
      <trkpt lat="47.08654" lon="5.23694">
        <ele>249.12</ele>
        <time>2015-07-14T06:37:37.000Z</time>
      </trkpt>
      <trkpt lat="47.08648" lon="5.23676">
        <ele>248.64</ele>
        <time>2015-07-14T06:37:40.000Z</time>
      </trkpt>
      <trkpt lat="47.08644" lon="5.23664">
        <ele>248.64</ele>
        <time>2015-07-14T06:37:42.000Z</time>
      </trkpt>
      <trkpt lat="47.0864" lon="5.23651">
        <ele>248.64</ele>
        <time>2015-07-14T06:37:44.000Z</time>
      </trkpt>
      <trkpt lat="47.08637" lon="5.23637">
        <ele>248.64</ele>
        <time>2015-07-14T06:37:46.000Z</time>
      </trkpt>
      <trkpt lat="47.08633" lon="5.23624">
        <ele>248.64</ele>
        <time>2015-07-14T06:37:48.000Z</time>
      </trkpt>
      <trkpt lat="47.0863" lon="5.2361">
        <ele>248.64</ele>
        <time>2015-07-14T06:37:50.000Z</time>
      </trkpt>
      <trkpt lat="47.08626" lon="5.23596">
        <ele>248.16</ele>
        <time>2015-07-14T06:37:52.000Z</time>
      </trkpt>
      <trkpt lat="47.08623" lon="5.23583">
        <ele>248.16</ele>
        <time>2015-07-14T06:37:54.000Z</time>
      </trkpt>
      <trkpt lat="47.08619" lon="5.2357">
        <ele>248.16</ele>
        <time>2015-07-14T06:37:56.000Z</time>
      </trkpt>
      <trkpt lat="47.08615" lon="5.23558">
        <ele>248.16</ele>
        <time>2015-07-14T06:37:58.000Z</time>
      </trkpt>
      <trkpt lat="47.0861" lon="5.23545">
        <ele>248.16</ele>
        <time>2015-07-14T06:38:00.000Z</time>
      </trkpt>
      <trkpt lat="47.08604" lon="5.23533">
        <ele>247.2</ele>
        <time>2015-07-14T06:38:02.000Z</time>
      </trkpt>
      <trkpt lat="47.08598" lon="5.2352">
        <ele>246.72</ele>
        <time>2015-07-14T06:38:04.000Z</time>
      </trkpt>
      <trkpt lat="47.08593" lon="5.23506">
        <ele>247.2</ele>
        <time>2015-07-14T06:38:06.000Z</time>
      </trkpt>
      <trkpt lat="47.0859" lon="5.23492">
        <ele>247.2</ele>
        <time>2015-07-14T06:38:08.000Z</time>
      </trkpt>
      <trkpt lat="47.08587" lon="5.23479">
        <ele>246.23</ele>
        <time>2015-07-14T06:38:10.000Z</time>
      </trkpt>
      <trkpt lat="47.08583" lon="5.23465">
        <ele>247.2</ele>
        <time>2015-07-14T06:38:12.000Z</time>
      </trkpt>
      <trkpt lat="47.08579" lon="5.23452">
        <ele>246.72</ele>
        <time>2015-07-14T06:38:14.000Z</time>
      </trkpt>
      <trkpt lat="47.08575" lon="5.23439">
        <ele>247.68</ele>
        <time>2015-07-14T06:38:16.000Z</time>
      </trkpt>
      <trkpt lat="47.08571" lon="5.23425">
        <ele>247.68</ele>
        <time>2015-07-14T06:38:18.000Z</time>
      </trkpt>
      <trkpt lat="47.08568" lon="5.23412">
        <ele>247.68</ele>
        <time>2015-07-14T06:38:20.000Z</time>
      </trkpt>
      <trkpt lat="47.08564" lon="5.23399">
        <ele>247.68</ele>
        <time>2015-07-14T06:38:22.000Z</time>
      </trkpt>
      <trkpt lat="47.08562" lon="5.23385">
        <ele>247.68</ele>
        <time>2015-07-14T06:38:24.000Z</time>
      </trkpt>
      <trkpt lat="47.08559" lon="5.23372">
        <ele>247.68</ele>
        <time>2015-07-14T06:38:26.000Z</time>
      </trkpt>
      <trkpt lat="47.08558" lon="5.23357">
        <ele>247.68</ele>
        <time>2015-07-14T06:38:28.000Z</time>
      </trkpt>
      <trkpt lat="47.08559" lon="5.23343">
        <ele>247.68</ele>
        <time>2015-07-14T06:38:30.000Z</time>
      </trkpt>
      <trkpt lat="47.0856" lon="5.23323">
        <ele>247.2</ele>
        <time>2015-07-14T06:38:33.000Z</time>
      </trkpt>
      <trkpt lat="47.08555" lon="5.23306">
        <ele>247.2</ele>
        <time>2015-07-14T06:38:36.000Z</time>
      </trkpt>
      <trkpt lat="47.08553" lon="5.23291">
        <ele>247.68</ele>
        <time>2015-07-14T06:38:39.000Z</time>
      </trkpt>
      <trkpt lat="47.08555" lon="5.23275">
        <ele>247.68</ele>
        <time>2015-07-14T06:38:42.000Z</time>
      </trkpt>
      <trkpt lat="47.08558" lon="5.23257">
        <ele>247.68</ele>
        <time>2015-07-14T06:38:45.000Z</time>
      </trkpt>
      <trkpt lat="47.08561" lon="5.23238">
        <ele>247.68</ele>
        <time>2015-07-14T06:38:48.000Z</time>
      </trkpt>
      <trkpt lat="47.0856" lon="5.23219">
        <ele>247.68</ele>
        <time>2015-07-14T06:38:51.000Z</time>
      </trkpt>
      <trkpt lat="47.08558" lon="5.23201">
        <ele>247.68</ele>
        <time>2015-07-14T06:38:54.000Z</time>
      </trkpt>
      <trkpt lat="47.08556" lon="5.23181">
        <ele>247.68</ele>
        <time>2015-07-14T06:38:57.000Z</time>
      </trkpt>
      <trkpt lat="47.08556" lon="5.23168">
        <ele>247.68</ele>
        <time>2015-07-14T06:38:59.000Z</time>
      </trkpt>
      <trkpt lat="47.08556" lon="5.23154">
        <ele>247.68</ele>
        <time>2015-07-14T06:39:01.000Z</time>
      </trkpt>
      <trkpt lat="47.08555" lon="5.23135">
        <ele>247.68</ele>
        <time>2015-07-14T06:39:04.000Z</time>
      </trkpt>
      <trkpt lat="47.08552" lon="5.23116">
        <ele>247.68</ele>
        <time>2015-07-14T06:39:07.000Z</time>
      </trkpt>
      <trkpt lat="47.0855" lon="5.23103">
        <ele>247.68</ele>
        <time>2015-07-14T06:39:09.000Z</time>
      </trkpt>
      <trkpt lat="47.08547" lon="5.23091">
        <ele>247.2</ele>
        <time>2015-07-14T06:39:11.000Z</time>
      </trkpt>
      <trkpt lat="47.08543" lon="5.23079">
        <ele>247.68</ele>
        <time>2015-07-14T06:39:13.000Z</time>
      </trkpt>
      <trkpt lat="47.08538" lon="5.23068">
        <ele>247.68</ele>
        <time>2015-07-14T06:39:15.000Z</time>
      </trkpt>
      <trkpt lat="47.08533" lon="5.23056">
        <ele>247.68</ele>
        <time>2015-07-14T06:39:17.000Z</time>
      </trkpt>
      <trkpt lat="47.08525" lon="5.2304">
        <ele>247.68</ele>
        <time>2015-07-14T06:39:20.000Z</time>
      </trkpt>
      <trkpt lat="47.0852" lon="5.2303">
        <ele>247.2</ele>
        <time>2015-07-14T06:39:22.000Z</time>
      </trkpt>
      <trkpt lat="47.08511" lon="5.23016">
        <ele>246.72</ele>
        <time>2015-07-14T06:39:25.000Z</time>
      </trkpt>
      <trkpt lat="47.08504" lon="5.23008">
        <ele>246.72</ele>
        <time>2015-07-14T06:39:27.000Z</time>
      </trkpt>
      <trkpt lat="47.08493" lon="5.22995">
        <ele>246.23</ele>
        <time>2015-07-14T06:39:30.000Z</time>
      </trkpt>
      <trkpt lat="47.08486" lon="5.22987">
        <ele>246.23</ele>
        <time>2015-07-14T06:39:32.000Z</time>
      </trkpt>
      <trkpt lat="47.08479" lon="5.22979">
        <ele>246.72</ele>
        <time>2015-07-14T06:39:34.000Z</time>
      </trkpt>
      <trkpt lat="47.08471" lon="5.2297">
        <ele>246.72</ele>
        <time>2015-07-14T06:39:36.000Z</time>
      </trkpt>
      <trkpt lat="47.08463" lon="5.22963">
        <ele>246.72</ele>
        <time>2015-07-14T06:39:38.000Z</time>
      </trkpt>
      <trkpt lat="47.08455" lon="5.22955">
        <ele>247.2</ele>
        <time>2015-07-14T06:39:40.000Z</time>
      </trkpt>
      <trkpt lat="47.08444" lon="5.22944">
        <ele>247.2</ele>
        <time>2015-07-14T06:39:43.000Z</time>
      </trkpt>
      <trkpt lat="47.08433" lon="5.22932">
        <ele>247.2</ele>
        <time>2015-07-14T06:39:46.000Z</time>
      </trkpt>
      <trkpt lat="47.08421" lon="5.22921">
        <ele>247.2</ele>
        <time>2015-07-14T06:39:49.000Z</time>
      </trkpt>
      <trkpt lat="47.0841" lon="5.2291">
        <ele>247.68</ele>
        <time>2015-07-14T06:39:52.000Z</time>
      </trkpt>
      <trkpt lat="47.08401" lon="5.22902">
        <ele>247.68</ele>
        <time>2015-07-14T06:39:54.000Z</time>
      </trkpt>
      <trkpt lat="47.08393" lon="5.22893">
        <ele>247.68</ele>
        <time>2015-07-14T06:39:56.000Z</time>
      </trkpt>
      <trkpt lat="47.08385" lon="5.22885">
        <ele>247.68</ele>
        <time>2015-07-14T06:39:58.000Z</time>
      </trkpt>
      <trkpt lat="47.08376" lon="5.22877">
        <ele>247.68</ele>
        <time>2015-07-14T06:40:00.000Z</time>
      </trkpt>
      <trkpt lat="47.08369" lon="5.22869">
        <ele>247.2</ele>
        <time>2015-07-14T06:40:02.000Z</time>
      </trkpt>
      <trkpt lat="47.08361" lon="5.22861">
        <ele>247.2</ele>
        <time>2015-07-14T06:40:04.000Z</time>
      </trkpt>
      <trkpt lat="47.08353" lon="5.22853">
        <ele>247.2</ele>
        <time>2015-07-14T06:40:06.000Z</time>
      </trkpt>
      <trkpt lat="47.08345" lon="5.22845">
        <ele>247.2</ele>
        <time>2015-07-14T06:40:08.000Z</time>
      </trkpt>
      <trkpt lat="47.08337" lon="5.22837">
        <ele>247.2</ele>
        <time>2015-07-14T06:40:10.000Z</time>
      </trkpt>
      <trkpt lat="47.08329" lon="5.22829">
        <ele>247.2</ele>
        <time>2015-07-14T06:40:12.000Z</time>
      </trkpt>
      <trkpt lat="47.08322" lon="5.22822">
        <ele>247.2</ele>
        <time>2015-07-14T06:40:14.000Z</time>
      </trkpt>
      <trkpt lat="47.08315" lon="5.22814">
        <ele>247.2</ele>
        <time>2015-07-14T06:40:16.000Z</time>
      </trkpt>
      <trkpt lat="47.08307" lon="5.22806">
        <ele>247.2</ele>
        <time>2015-07-14T06:40:18.000Z</time>
      </trkpt>
      <trkpt lat="47.08299" lon="5.22798">
        <ele>247.2</ele>
        <time>2015-07-14T06:40:20.000Z</time>
      </trkpt>
      <trkpt lat="47.08291" lon="5.2279">
        <ele>247.2</ele>
        <time>2015-07-14T06:40:22.000Z</time>
      </trkpt>
      <trkpt lat="47.08284" lon="5.22783">
        <ele>247.2</ele>
        <time>2015-07-14T06:40:24.000Z</time>
      </trkpt>
      <trkpt lat="47.08276" lon="5.22775">
        <ele>247.2</ele>
        <time>2015-07-14T06:40:26.000Z</time>
      </trkpt>
      <trkpt lat="47.08269" lon="5.22767">
        <ele>247.2</ele>
        <time>2015-07-14T06:40:28.000Z</time>
      </trkpt>
      <trkpt lat="47.08261" lon="5.22759">
        <ele>247.2</ele>
        <time>2015-07-14T06:40:30.000Z</time>
      </trkpt>
      <trkpt lat="47.08254" lon="5.22751">
        <ele>247.2</ele>
        <time>2015-07-14T06:40:32.000Z</time>
      </trkpt>
      <trkpt lat="47.08247" lon="5.22743">
        <ele>247.2</ele>
        <time>2015-07-14T06:40:34.000Z</time>
      </trkpt>
      <trkpt lat="47.0824" lon="5.22734">
        <ele>247.2</ele>
        <time>2015-07-14T06:40:36.000Z</time>
      </trkpt>
      <trkpt lat="47.08233" lon="5.22726">
        <ele>247.68</ele>
        <time>2015-07-14T06:40:38.000Z</time>
      </trkpt>
      <trkpt lat="47.08223" lon="5.22712">
        <ele>247.2</ele>
        <time>2015-07-14T06:40:41.000Z</time>
      </trkpt>
      <trkpt lat="47.08215" lon="5.22699">
        <ele>247.68</ele>
        <time>2015-07-14T06:40:44.000Z</time>
      </trkpt>
      <trkpt lat="47.08208" lon="5.22686">
        <ele>247.2</ele>
        <time>2015-07-14T06:40:47.000Z</time>
      </trkpt>
      <trkpt lat="47.082" lon="5.22672">
        <ele>247.2</ele>
        <time>2015-07-14T06:40:50.000Z</time>
      </trkpt>
      <trkpt lat="47.08192" lon="5.22658">
        <ele>247.2</ele>
        <time>2015-07-14T06:40:53.000Z</time>
      </trkpt>
      <trkpt lat="47.08184" lon="5.22644">
        <ele>247.68</ele>
        <time>2015-07-14T06:40:56.000Z</time>
      </trkpt>
      <trkpt lat="47.08178" lon="5.22634">
        <ele>247.68</ele>
        <time>2015-07-14T06:40:58.000Z</time>
      </trkpt>
      <trkpt lat="47.08172" lon="5.22623">
        <ele>247.68</ele>
        <time>2015-07-14T06:41:00.000Z</time>
      </trkpt>
      <trkpt lat="47.08164" lon="5.22608">
        <ele>247.68</ele>
        <time>2015-07-14T06:41:03.000Z</time>
      </trkpt>
      <trkpt lat="47.08158" lon="5.22597">
        <ele>247.68</ele>
        <time>2015-07-14T06:41:05.000Z</time>
      </trkpt>
      <trkpt lat="47.0815" lon="5.22582">
        <ele>247.2</ele>
        <time>2015-07-14T06:41:08.000Z</time>
      </trkpt>
      <trkpt lat="47.08142" lon="5.22567">
        <ele>247.2</ele>
        <time>2015-07-14T06:41:11.000Z</time>
      </trkpt>
      <trkpt lat="47.08133" lon="5.22552">
        <ele>247.2</ele>
        <time>2015-07-14T06:41:14.000Z</time>
      </trkpt>
      <trkpt lat="47.08127" lon="5.22542">
        <ele>247.68</ele>
        <time>2015-07-14T06:41:16.000Z</time>
      </trkpt>
      <trkpt lat="47.08121" lon="5.22531">
        <ele>247.68</ele>
        <time>2015-07-14T06:41:18.000Z</time>
      </trkpt>
      <trkpt lat="47.08115" lon="5.22521">
        <ele>247.68</ele>
        <time>2015-07-14T06:41:20.000Z</time>
      </trkpt>
      <trkpt lat="47.08109" lon="5.22511">
        <ele>247.68</ele>
        <time>2015-07-14T06:41:22.000Z</time>
      </trkpt>
      <trkpt lat="47.08103" lon="5.22501">
        <ele>247.2</ele>
        <time>2015-07-14T06:41:24.000Z</time>
      </trkpt>
      <trkpt lat="47.08097" lon="5.22491">
        <ele>247.2</ele>
        <time>2015-07-14T06:41:26.000Z</time>
      </trkpt>
      <trkpt lat="47.08091" lon="5.2248">
        <ele>247.68</ele>
        <time>2015-07-14T06:41:28.000Z</time>
      </trkpt>
      <trkpt lat="47.08086" lon="5.22469">
        <ele>247.2</ele>
        <time>2015-07-14T06:41:30.000Z</time>
      </trkpt>
      <trkpt lat="47.0808" lon="5.22459">
        <ele>247.68</ele>
        <time>2015-07-14T06:41:32.000Z</time>
      </trkpt>
      <trkpt lat="47.08073" lon="5.22449">
        <ele>247.68</ele>
        <time>2015-07-14T06:41:34.000Z</time>
      </trkpt>
      <trkpt lat="47.08068" lon="5.22438">
        <ele>247.2</ele>
        <time>2015-07-14T06:41:36.000Z</time>
      </trkpt>
      <trkpt lat="47.08062" lon="5.22428">
        <ele>247.68</ele>
        <time>2015-07-14T06:41:38.000Z</time>
      </trkpt>
      <trkpt lat="47.08057" lon="5.22417">
        <ele>247.68</ele>
        <time>2015-07-14T06:41:40.000Z</time>
      </trkpt>
      <trkpt lat="47.08051" lon="5.22406">
        <ele>247.68</ele>
        <time>2015-07-14T06:41:42.000Z</time>
      </trkpt>
      <trkpt lat="47.08046" lon="5.22395">
        <ele>247.68</ele>
        <time>2015-07-14T06:41:44.000Z</time>
      </trkpt>
      <trkpt lat="47.08041" lon="5.22384">
        <ele>247.68</ele>
        <time>2015-07-14T06:41:46.000Z</time>
      </trkpt>
      <trkpt lat="47.08036" lon="5.22372">
        <ele>247.68</ele>
        <time>2015-07-14T06:41:48.000Z</time>
      </trkpt>
      <trkpt lat="47.08031" lon="5.2236">
        <ele>247.68</ele>
        <time>2015-07-14T06:41:50.000Z</time>
      </trkpt>
      <trkpt lat="47.08026" lon="5.22348">
        <ele>247.68</ele>
        <time>2015-07-14T06:41:52.000Z</time>
      </trkpt>
      <trkpt lat="47.08022" lon="5.22335">
        <ele>247.68</ele>
        <time>2015-07-14T06:41:54.000Z</time>
      </trkpt>
      <trkpt lat="47.08017" lon="5.22323">
        <ele>247.68</ele>
        <time>2015-07-14T06:41:56.000Z</time>
      </trkpt>
      <trkpt lat="47.08012" lon="5.22311">
        <ele>247.68</ele>
        <time>2015-07-14T06:41:58.000Z</time>
      </trkpt>
      <trkpt lat="47.08008" lon="5.22299">
        <ele>247.68</ele>
        <time>2015-07-14T06:42:00.000Z</time>
      </trkpt>
      <trkpt lat="47.08004" lon="5.22287">
        <ele>247.68</ele>
        <time>2015-07-14T06:42:02.000Z</time>
      </trkpt>
      <trkpt lat="47.07999" lon="5.22275">
        <ele>247.68</ele>
        <time>2015-07-14T06:42:04.000Z</time>
      </trkpt>
      <trkpt lat="47.07996" lon="5.22263">
        <ele>247.68</ele>
        <time>2015-07-14T06:42:06.000Z</time>
      </trkpt>
      <trkpt lat="47.07992" lon="5.22251">
        <ele>247.68</ele>
        <time>2015-07-14T06:42:08.000Z</time>
      </trkpt>
      <trkpt lat="47.07986" lon="5.22233">
        <ele>247.68</ele>
        <time>2015-07-14T06:42:11.000Z</time>
      </trkpt>
      <trkpt lat="47.07982" lon="5.22221">
        <ele>248.16</ele>
        <time>2015-07-14T06:42:13.000Z</time>
      </trkpt>
      <trkpt lat="47.07979" lon="5.22208">
        <ele>247.68</ele>
        <time>2015-07-14T06:42:15.000Z</time>
      </trkpt>
      <trkpt lat="47.07975" lon="5.22196">
        <ele>247.68</ele>
        <time>2015-07-14T06:42:17.000Z</time>
      </trkpt>
      <trkpt lat="47.07971" lon="5.22183">
        <ele>247.68</ele>
        <time>2015-07-14T06:42:19.000Z</time>
      </trkpt>
      <trkpt lat="47.07967" lon="5.22171">
        <ele>247.68</ele>
        <time>2015-07-14T06:42:21.000Z</time>
      </trkpt>
      <trkpt lat="47.07963" lon="5.22158">
        <ele>247.68</ele>
        <time>2015-07-14T06:42:23.000Z</time>
      </trkpt>
      <trkpt lat="47.0796" lon="5.22145">
        <ele>247.68</ele>
        <time>2015-07-14T06:42:25.000Z</time>
      </trkpt>
      <trkpt lat="47.07957" lon="5.22132">
        <ele>247.68</ele>
        <time>2015-07-14T06:42:27.000Z</time>
      </trkpt>
      <trkpt lat="47.07954" lon="5.22118">
        <ele>247.2</ele>
        <time>2015-07-14T06:42:29.000Z</time>
      </trkpt>
      <trkpt lat="47.07952" lon="5.22105">
        <ele>247.68</ele>
        <time>2015-07-14T06:42:31.000Z</time>
      </trkpt>
      <trkpt lat="47.07949" lon="5.22092">
        <ele>248.16</ele>
        <time>2015-07-14T06:42:33.000Z</time>
      </trkpt>
      <trkpt lat="47.07946" lon="5.22078">
        <ele>247.68</ele>
        <time>2015-07-14T06:42:35.000Z</time>
      </trkpt>
      <trkpt lat="47.07943" lon="5.22065">
        <ele>247.68</ele>
        <time>2015-07-14T06:42:37.000Z</time>
      </trkpt>
      <trkpt lat="47.07941" lon="5.22051">
        <ele>248.16</ele>
        <time>2015-07-14T06:42:39.000Z</time>
      </trkpt>
      <trkpt lat="47.07938" lon="5.22038">
        <ele>247.68</ele>
        <time>2015-07-14T06:42:41.000Z</time>
      </trkpt>
      <trkpt lat="47.07936" lon="5.22025">
        <ele>247.68</ele>
        <time>2015-07-14T06:42:43.000Z</time>
      </trkpt>
      <trkpt lat="47.07933" lon="5.22012">
        <ele>247.68</ele>
        <time>2015-07-14T06:42:45.000Z</time>
      </trkpt>
      <trkpt lat="47.07931" lon="5.21999">
        <ele>247.68</ele>
        <time>2015-07-14T06:42:47.000Z</time>
      </trkpt>
      <trkpt lat="47.07928" lon="5.2198">
        <ele>247.68</ele>
        <time>2015-07-14T06:42:50.000Z</time>
      </trkpt>
      <trkpt lat="47.07926" lon="5.21967">
        <ele>247.68</ele>
        <time>2015-07-14T06:42:52.000Z</time>
      </trkpt>
      <trkpt lat="47.07924" lon="5.21954">
        <ele>247.68</ele>
        <time>2015-07-14T06:42:54.000Z</time>
      </trkpt>
      <trkpt lat="47.07922" lon="5.2194">
        <ele>247.68</ele>
        <time>2015-07-14T06:42:56.000Z</time>
      </trkpt>
      <trkpt lat="47.0792" lon="5.21927">
        <ele>247.68</ele>
        <time>2015-07-14T06:42:58.000Z</time>
      </trkpt>
      <trkpt lat="47.07919" lon="5.21914">
        <ele>247.68</ele>
        <time>2015-07-14T06:43:00.000Z</time>
      </trkpt>
      <trkpt lat="47.07917" lon="5.21901">
        <ele>248.16</ele>
        <time>2015-07-14T06:43:02.000Z</time>
      </trkpt>
      <trkpt lat="47.07915" lon="5.21881">
        <ele>247.68</ele>
        <time>2015-07-14T06:43:05.000Z</time>
      </trkpt>
      <trkpt lat="47.07914" lon="5.21868">
        <ele>247.68</ele>
        <time>2015-07-14T06:43:07.000Z</time>
      </trkpt>
      <trkpt lat="47.07913" lon="5.21854">
        <ele>247.68</ele>
        <time>2015-07-14T06:43:09.000Z</time>
      </trkpt>
      <trkpt lat="47.07912" lon="5.21841">
        <ele>247.68</ele>
        <time>2015-07-14T06:43:11.000Z</time>
      </trkpt>
      <trkpt lat="47.07912" lon="5.21828">
        <ele>247.68</ele>
        <time>2015-07-14T06:43:13.000Z</time>
      </trkpt>
      <trkpt lat="47.07912" lon="5.21814">
        <ele>247.68</ele>
        <time>2015-07-14T06:43:15.000Z</time>
      </trkpt>
      <trkpt lat="47.07911" lon="5.218">
        <ele>247.68</ele>
        <time>2015-07-14T06:43:17.000Z</time>
      </trkpt>
      <trkpt lat="47.07911" lon="5.2178">
        <ele>247.68</ele>
        <time>2015-07-14T06:43:20.000Z</time>
      </trkpt>
      <trkpt lat="47.07911" lon="5.21767">
        <ele>247.68</ele>
        <time>2015-07-14T06:43:22.000Z</time>
      </trkpt>
      <trkpt lat="47.07911" lon="5.21753">
        <ele>247.68</ele>
        <time>2015-07-14T06:43:24.000Z</time>
      </trkpt>
      <trkpt lat="47.07911" lon="5.21739">
        <ele>247.68</ele>
        <time>2015-07-14T06:43:26.000Z</time>
      </trkpt>
      <trkpt lat="47.07911" lon="5.21725">
        <ele>247.68</ele>
        <time>2015-07-14T06:43:28.000Z</time>
      </trkpt>
      <trkpt lat="47.0791" lon="5.21711">
        <ele>248.16</ele>
        <time>2015-07-14T06:43:30.000Z</time>
      </trkpt>
      <trkpt lat="47.0791" lon="5.21697">
        <ele>247.68</ele>
        <time>2015-07-14T06:43:32.000Z</time>
      </trkpt>
      <trkpt lat="47.07909" lon="5.21684">
        <ele>247.68</ele>
        <time>2015-07-14T06:43:34.000Z</time>
      </trkpt>
      <trkpt lat="47.07909" lon="5.2167">
        <ele>247.68</ele>
        <time>2015-07-14T06:43:36.000Z</time>
      </trkpt>
      <trkpt lat="47.07909" lon="5.21656">
        <ele>247.68</ele>
        <time>2015-07-14T06:43:38.000Z</time>
      </trkpt>
      <trkpt lat="47.07908" lon="5.21642">
        <ele>248.16</ele>
        <time>2015-07-14T06:43:40.000Z</time>
      </trkpt>
      <trkpt lat="47.07907" lon="5.21628">
        <ele>246.72</ele>
        <time>2015-07-14T06:43:42.000Z</time>
      </trkpt>
      <trkpt lat="47.07907" lon="5.21615">
        <ele>247.2</ele>
        <time>2015-07-14T06:43:44.000Z</time>
      </trkpt>
      <trkpt lat="47.07906" lon="5.21601">
        <ele>247.2</ele>
        <time>2015-07-14T06:43:46.000Z</time>
      </trkpt>
      <trkpt lat="47.07906" lon="5.21588">
        <ele>247.2</ele>
        <time>2015-07-14T06:43:48.000Z</time>
      </trkpt>
      <trkpt lat="47.07904" lon="5.21574">
        <ele>247.2</ele>
        <time>2015-07-14T06:43:50.000Z</time>
      </trkpt>
      <trkpt lat="47.07904" lon="5.21561">
        <ele>247.2</ele>
        <time>2015-07-14T06:43:52.000Z</time>
      </trkpt>
      <trkpt lat="47.07903" lon="5.21547">
        <ele>247.2</ele>
        <time>2015-07-14T06:43:54.000Z</time>
      </trkpt>
      <trkpt lat="47.07903" lon="5.21533">
        <ele>247.2</ele>
        <time>2015-07-14T06:43:56.000Z</time>
      </trkpt>
      <trkpt lat="47.07901" lon="5.2152">
        <ele>247.68</ele>
        <time>2015-07-14T06:43:58.000Z</time>
      </trkpt>
      <trkpt lat="47.07899" lon="5.21501">
        <ele>247.68</ele>
        <time>2015-07-14T06:44:01.000Z</time>
      </trkpt>
      <trkpt lat="47.07896" lon="5.21488">
        <ele>248.16</ele>
        <time>2015-07-14T06:44:03.000Z</time>
      </trkpt>
      <trkpt lat="47.07892" lon="5.21475">
        <ele>247.68</ele>
        <time>2015-07-14T06:44:05.000Z</time>
      </trkpt>
      <trkpt lat="47.07889" lon="5.21463">
        <ele>247.68</ele>
        <time>2015-07-14T06:44:07.000Z</time>
      </trkpt>
      <trkpt lat="47.07886" lon="5.2145">
        <ele>247.68</ele>
        <time>2015-07-14T06:44:09.000Z</time>
      </trkpt>
      <trkpt lat="47.07883" lon="5.21438">
        <ele>247.68</ele>
        <time>2015-07-14T06:44:11.000Z</time>
      </trkpt>
      <trkpt lat="47.07878" lon="5.21419">
        <ele>247.68</ele>
        <time>2015-07-14T06:44:14.000Z</time>
      </trkpt>
      <trkpt lat="47.07872" lon="5.21402">
        <ele>247.2</ele>
        <time>2015-07-14T06:44:17.000Z</time>
      </trkpt>
      <trkpt lat="47.07866" lon="5.21385">
        <ele>247.68</ele>
        <time>2015-07-14T06:44:20.000Z</time>
      </trkpt>
      <trkpt lat="47.0786" lon="5.21369">
        <ele>247.2</ele>
        <time>2015-07-14T06:44:23.000Z</time>
      </trkpt>
      <trkpt lat="47.07853" lon="5.21351">
        <ele>247.68</ele>
        <time>2015-07-14T06:44:26.000Z</time>
      </trkpt>
      <trkpt lat="47.07847" lon="5.21341">
        <ele>247.2</ele>
        <time>2015-07-14T06:44:28.000Z</time>
      </trkpt>
      <trkpt lat="47.07841" lon="5.2133">
        <ele>247.68</ele>
        <time>2015-07-14T06:44:30.000Z</time>
      </trkpt>
      <trkpt lat="47.07835" lon="5.2132">
        <ele>247.2</ele>
        <time>2015-07-14T06:44:32.000Z</time>
      </trkpt>
      <trkpt lat="47.07829" lon="5.21311">
        <ele>247.2</ele>
        <time>2015-07-14T06:44:34.000Z</time>
      </trkpt>
      <trkpt lat="47.07823" lon="5.21301">
        <ele>247.2</ele>
        <time>2015-07-14T06:44:36.000Z</time>
      </trkpt>
      <trkpt lat="47.07814" lon="5.21286">
        <ele>247.2</ele>
        <time>2015-07-14T06:44:39.000Z</time>
      </trkpt>
      <trkpt lat="47.07808" lon="5.21276">
        <ele>247.2</ele>
        <time>2015-07-14T06:44:41.000Z</time>
      </trkpt>
      <trkpt lat="47.07798" lon="5.21262">
        <ele>247.2</ele>
        <time>2015-07-14T06:44:44.000Z</time>
      </trkpt>
      <trkpt lat="47.07792" lon="5.21252">
        <ele>247.68</ele>
        <time>2015-07-14T06:44:46.000Z</time>
      </trkpt>
      <trkpt lat="47.07786" lon="5.21242">
        <ele>247.68</ele>
        <time>2015-07-14T06:44:48.000Z</time>
      </trkpt>
      <trkpt lat="47.07779" lon="5.21233">
        <ele>246.72</ele>
        <time>2015-07-14T06:44:50.000Z</time>
      </trkpt>
      <trkpt lat="47.07773" lon="5.21223">
        <ele>246.72</ele>
        <time>2015-07-14T06:44:52.000Z</time>
      </trkpt>
      <trkpt lat="47.07766" lon="5.21213">
        <ele>247.2</ele>
        <time>2015-07-14T06:44:54.000Z</time>
      </trkpt>
      <trkpt lat="47.0776" lon="5.21204">
        <ele>246.72</ele>
        <time>2015-07-14T06:44:56.000Z</time>
      </trkpt>
      <trkpt lat="47.07753" lon="5.21194">
        <ele>246.72</ele>
        <time>2015-07-14T06:44:58.000Z</time>
      </trkpt>
      <trkpt lat="47.07747" lon="5.21185">
        <ele>246.23</ele>
        <time>2015-07-14T06:45:00.000Z</time>
      </trkpt>
      <trkpt lat="47.0774" lon="5.21176">
        <ele>246.23</ele>
        <time>2015-07-14T06:45:02.000Z</time>
      </trkpt>
      <trkpt lat="47.07734" lon="5.21166">
        <ele>246.72</ele>
        <time>2015-07-14T06:45:04.000Z</time>
      </trkpt>
      <trkpt lat="47.07727" lon="5.21157">
        <ele>247.2</ele>
        <time>2015-07-14T06:45:06.000Z</time>
      </trkpt>
      <trkpt lat="47.07718" lon="5.21143">
        <ele>247.2</ele>
        <time>2015-07-14T06:45:09.000Z</time>
      </trkpt>
      <trkpt lat="47.07708" lon="5.21129">
        <ele>247.2</ele>
        <time>2015-07-14T06:45:12.000Z</time>
      </trkpt>
      <trkpt lat="47.07699" lon="5.21116">
        <ele>247.2</ele>
        <time>2015-07-14T06:45:15.000Z</time>
      </trkpt>
      <trkpt lat="47.0769" lon="5.21103">
        <ele>247.2</ele>
        <time>2015-07-14T06:45:18.000Z</time>
      </trkpt>
      <trkpt lat="47.07681" lon="5.2109">
        <ele>247.68</ele>
        <time>2015-07-14T06:45:21.000Z</time>
      </trkpt>
      <trkpt lat="47.07672" lon="5.21076">
        <ele>247.68</ele>
        <time>2015-07-14T06:45:24.000Z</time>
      </trkpt>
      <trkpt lat="47.07662" lon="5.21063">
        <ele>247.68</ele>
        <time>2015-07-14T06:45:27.000Z</time>
      </trkpt>
      <trkpt lat="47.07653" lon="5.21048">
        <ele>247.2</ele>
        <time>2015-07-14T06:45:30.000Z</time>
      </trkpt>
      <trkpt lat="47.07647" lon="5.21033">
        <ele>247.2</ele>
        <time>2015-07-14T06:45:33.000Z</time>
      </trkpt>
      <trkpt lat="47.0764" lon="5.21015">
        <ele>247.2</ele>
        <time>2015-07-14T06:45:36.000Z</time>
      </trkpt>
      <trkpt lat="47.07637" lon="5.21003">
        <ele>247.68</ele>
        <time>2015-07-14T06:45:38.000Z</time>
      </trkpt>
      <trkpt lat="47.07632" lon="5.20991">
        <ele>246.72</ele>
        <time>2015-07-14T06:45:40.000Z</time>
      </trkpt>
      <trkpt lat="47.07629" lon="5.20978">
        <ele>247.2</ele>
        <time>2015-07-14T06:45:42.000Z</time>
      </trkpt>
      <trkpt lat="47.07625" lon="5.20966">
        <ele>247.68</ele>
        <time>2015-07-14T06:45:44.000Z</time>
      </trkpt>
      <trkpt lat="47.07621" lon="5.20954">
        <ele>247.2</ele>
        <time>2015-07-14T06:45:46.000Z</time>
      </trkpt>
      <trkpt lat="47.07618" lon="5.20942">
        <ele>247.68</ele>
        <time>2015-07-14T06:45:48.000Z</time>
      </trkpt>
      <trkpt lat="47.07614" lon="5.20929">
        <ele>247.2</ele>
        <time>2015-07-14T06:45:50.000Z</time>
      </trkpt>
      <trkpt lat="47.0761" lon="5.20917">
        <ele>247.68</ele>
        <time>2015-07-14T06:45:52.000Z</time>
      </trkpt>
      <trkpt lat="47.07606" lon="5.20905">
        <ele>247.68</ele>
        <time>2015-07-14T06:45:54.000Z</time>
      </trkpt>
      <trkpt lat="47.07602" lon="5.20893">
        <ele>247.2</ele>
        <time>2015-07-14T06:45:56.000Z</time>
      </trkpt>
      <trkpt lat="47.07598" lon="5.20881">
        <ele>247.2</ele>
        <time>2015-07-14T06:45:58.000Z</time>
      </trkpt>
      <trkpt lat="47.07594" lon="5.20869">
        <ele>247.68</ele>
        <time>2015-07-14T06:46:00.000Z</time>
      </trkpt>
      <trkpt lat="47.07587" lon="5.20853">
        <ele>247.2</ele>
        <time>2015-07-14T06:46:03.000Z</time>
      </trkpt>
      <trkpt lat="47.07579" lon="5.20837">
        <ele>247.2</ele>
        <time>2015-07-14T06:46:06.000Z</time>
      </trkpt>
      <trkpt lat="47.07573" lon="5.20827">
        <ele>247.2</ele>
        <time>2015-07-14T06:46:08.000Z</time>
      </trkpt>
      <trkpt lat="47.07565" lon="5.20812">
        <ele>247.2</ele>
        <time>2015-07-14T06:46:11.000Z</time>
      </trkpt>
      <trkpt lat="47.07558" lon="5.20802">
        <ele>247.68</ele>
        <time>2015-07-14T06:46:13.000Z</time>
      </trkpt>
      <trkpt lat="47.07552" lon="5.20793">
        <ele>247.2</ele>
        <time>2015-07-14T06:46:15.000Z</time>
      </trkpt>
      <trkpt lat="47.07545" lon="5.20783">
        <ele>247.2</ele>
        <time>2015-07-14T06:46:17.000Z</time>
      </trkpt>
      <trkpt lat="47.07538" lon="5.20774">
        <ele>247.2</ele>
        <time>2015-07-14T06:46:19.000Z</time>
      </trkpt>
      <trkpt lat="47.07532" lon="5.20764">
        <ele>247.2</ele>
        <time>2015-07-14T06:46:21.000Z</time>
      </trkpt>
      <trkpt lat="47.07525" lon="5.20754">
        <ele>247.2</ele>
        <time>2015-07-14T06:46:23.000Z</time>
      </trkpt>
      <trkpt lat="47.07519" lon="5.20744">
        <ele>247.68</ele>
        <time>2015-07-14T06:46:25.000Z</time>
      </trkpt>
      <trkpt lat="47.07512" lon="5.20735">
        <ele>247.2</ele>
        <time>2015-07-14T06:46:27.000Z</time>
      </trkpt>
      <trkpt lat="47.07505" lon="5.20725">
        <ele>247.2</ele>
        <time>2015-07-14T06:46:29.000Z</time>
      </trkpt>
      <trkpt lat="47.07495" lon="5.20713">
        <ele>247.2</ele>
        <time>2015-07-14T06:46:32.000Z</time>
      </trkpt>
      <trkpt lat="47.07488" lon="5.20705">
        <ele>247.2</ele>
        <time>2015-07-14T06:46:34.000Z</time>
      </trkpt>
      <trkpt lat="47.07477" lon="5.20694">
        <ele>247.2</ele>
        <time>2015-07-14T06:46:37.000Z</time>
      </trkpt>
      <trkpt lat="47.07469" lon="5.20686">
        <ele>247.2</ele>
        <time>2015-07-14T06:46:39.000Z</time>
      </trkpt>
      <trkpt lat="47.07462" lon="5.20679">
        <ele>247.2</ele>
        <time>2015-07-14T06:46:41.000Z</time>
      </trkpt>
      <trkpt lat="47.07454" lon="5.20672">
        <ele>247.2</ele>
        <time>2015-07-14T06:46:43.000Z</time>
      </trkpt>
      <trkpt lat="47.07443" lon="5.20661">
        <ele>247.2</ele>
        <time>2015-07-14T06:46:46.000Z</time>
      </trkpt>
      <trkpt lat="47.07433" lon="5.2065">
        <ele>247.2</ele>
        <time>2015-07-14T06:46:49.000Z</time>
      </trkpt>
      <trkpt lat="47.07421" lon="5.20639">
        <ele>247.2</ele>
        <time>2015-07-14T06:46:52.000Z</time>
      </trkpt>
      <trkpt lat="47.0741" lon="5.2063">
        <ele>247.2</ele>
        <time>2015-07-14T06:46:55.000Z</time>
      </trkpt>
      <trkpt lat="47.07403" lon="5.20622">
        <ele>247.2</ele>
        <time>2015-07-14T06:46:57.000Z</time>
      </trkpt>
      <trkpt lat="47.07392" lon="5.20612">
        <ele>247.68</ele>
        <time>2015-07-14T06:47:00.000Z</time>
      </trkpt>
      <trkpt lat="47.07381" lon="5.20602">
        <ele>247.2</ele>
        <time>2015-07-14T06:47:03.000Z</time>
      </trkpt>
      <trkpt lat="47.0737" lon="5.20591">
        <ele>247.2</ele>
        <time>2015-07-14T06:47:06.000Z</time>
      </trkpt>
      <trkpt lat="47.07362" lon="5.20583">
        <ele>247.2</ele>
        <time>2015-07-14T06:47:08.000Z</time>
      </trkpt>
      <trkpt lat="47.07351" lon="5.20572">
        <ele>247.2</ele>
        <time>2015-07-14T06:47:11.000Z</time>
      </trkpt>
      <trkpt lat="47.0734" lon="5.20561">
        <ele>247.68</ele>
        <time>2015-07-14T06:47:14.000Z</time>
      </trkpt>
      <trkpt lat="47.07329" lon="5.20551">
        <ele>247.68</ele>
        <time>2015-07-14T06:47:17.000Z</time>
      </trkpt>
      <trkpt lat="47.07318" lon="5.2054">
        <ele>247.68</ele>
        <time>2015-07-14T06:47:20.000Z</time>
      </trkpt>
      <trkpt lat="47.07308" lon="5.20529">
        <ele>247.2</ele>
        <time>2015-07-14T06:47:23.000Z</time>
      </trkpt>
      <trkpt lat="47.07296" lon="5.20519">
        <ele>247.68</ele>
        <time>2015-07-14T06:47:26.000Z</time>
      </trkpt>
      <trkpt lat="47.07286" lon="5.20509">
        <ele>247.68</ele>
        <time>2015-07-14T06:47:29.000Z</time>
      </trkpt>
      <trkpt lat="47.07276" lon="5.20499">
        <ele>247.2</ele>
        <time>2015-07-14T06:47:32.000Z</time>
      </trkpt>
      <trkpt lat="47.07265" lon="5.20489">
        <ele>247.68</ele>
        <time>2015-07-14T06:47:35.000Z</time>
      </trkpt>
      <trkpt lat="47.07256" lon="5.20479">
        <ele>247.68</ele>
        <time>2015-07-14T06:47:38.000Z</time>
      </trkpt>
      <trkpt lat="47.07245" lon="5.20467">
        <ele>247.68</ele>
        <time>2015-07-14T06:47:41.000Z</time>
      </trkpt>
      <trkpt lat="47.07234" lon="5.20456">
        <ele>248.16</ele>
        <time>2015-07-14T06:47:44.000Z</time>
      </trkpt>
      <trkpt lat="47.07224" lon="5.20445">
        <ele>248.16</ele>
        <time>2015-07-14T06:47:47.000Z</time>
      </trkpt>
      <trkpt lat="47.07214" lon="5.20434">
        <ele>247.68</ele>
        <time>2015-07-14T06:47:50.000Z</time>
      </trkpt>
      <trkpt lat="47.07204" lon="5.20423">
        <ele>247.68</ele>
        <time>2015-07-14T06:47:53.000Z</time>
      </trkpt>
      <trkpt lat="47.07193" lon="5.20412">
        <ele>247.68</ele>
        <time>2015-07-14T06:47:56.000Z</time>
      </trkpt>
      <trkpt lat="47.07184" lon="5.20401">
        <ele>248.16</ele>
        <time>2015-07-14T06:47:59.000Z</time>
      </trkpt>
      <trkpt lat="47.07174" lon="5.20391">
        <ele>248.64</ele>
        <time>2015-07-14T06:48:02.000Z</time>
      </trkpt>
      <trkpt lat="47.07163" lon="5.2038">
        <ele>249.6</ele>
        <time>2015-07-14T06:48:05.000Z</time>
      </trkpt>
      <trkpt lat="47.07153" lon="5.20369">
        <ele>249.12</ele>
        <time>2015-07-14T06:48:08.000Z</time>
      </trkpt>
      <trkpt lat="47.07141" lon="5.20359">
        <ele>249.12</ele>
        <time>2015-07-14T06:48:11.000Z</time>
      </trkpt>
      <trkpt lat="47.0713" lon="5.20348">
        <ele>249.6</ele>
        <time>2015-07-14T06:48:14.000Z</time>
      </trkpt>
      <trkpt lat="47.07119" lon="5.20338">
        <ele>249.12</ele>
        <time>2015-07-14T06:48:17.000Z</time>
      </trkpt>
      <trkpt lat="47.07108" lon="5.20327">
        <ele>249.12</ele>
        <time>2015-07-14T06:48:20.000Z</time>
      </trkpt>
      <trkpt lat="47.071" lon="5.20319">
        <ele>249.12</ele>
        <time>2015-07-14T06:48:22.000Z</time>
      </trkpt>
      <trkpt lat="47.07089" lon="5.20308">
        <ele>249.12</ele>
        <time>2015-07-14T06:48:25.000Z</time>
      </trkpt>
      <trkpt lat="47.07081" lon="5.203">
        <ele>249.12</ele>
        <time>2015-07-14T06:48:27.000Z</time>
      </trkpt>
      <trkpt lat="47.07073" lon="5.20292">
        <ele>249.6</ele>
        <time>2015-07-14T06:48:29.000Z</time>
      </trkpt>
      <trkpt lat="47.07064" lon="5.20284">
        <ele>249.12</ele>
        <time>2015-07-14T06:48:31.000Z</time>
      </trkpt>
      <trkpt lat="47.07057" lon="5.20276">
        <ele>249.6</ele>
        <time>2015-07-14T06:48:33.000Z</time>
      </trkpt>
      <trkpt lat="47.07049" lon="5.20268">
        <ele>249.6</ele>
        <time>2015-07-14T06:48:35.000Z</time>
      </trkpt>
      <trkpt lat="47.0704" lon="5.2026">
        <ele>249.12</ele>
        <time>2015-07-14T06:48:37.000Z</time>
      </trkpt>
      <trkpt lat="47.07032" lon="5.20252">
        <ele>249.6</ele>
        <time>2015-07-14T06:48:39.000Z</time>
      </trkpt>
      <trkpt lat="47.07024" lon="5.20245">
        <ele>249.6</ele>
        <time>2015-07-14T06:48:41.000Z</time>
      </trkpt>
      <trkpt lat="47.07016" lon="5.20237">
        <ele>249.12</ele>
        <time>2015-07-14T06:48:43.000Z</time>
      </trkpt>
      <trkpt lat="47.07008" lon="5.20229">
        <ele>249.12</ele>
        <time>2015-07-14T06:48:45.000Z</time>
      </trkpt>
      <trkpt lat="47.07" lon="5.20221">
        <ele>249.12</ele>
        <time>2015-07-14T06:48:47.000Z</time>
      </trkpt>
      <trkpt lat="47.06992" lon="5.20214">
        <ele>249.6</ele>
        <time>2015-07-14T06:48:49.000Z</time>
      </trkpt>
      <trkpt lat="47.06984" lon="5.20206">
        <ele>249.12</ele>
        <time>2015-07-14T06:48:51.000Z</time>
      </trkpt>
      <trkpt lat="47.06976" lon="5.20199">
        <ele>249.12</ele>
        <time>2015-07-14T06:48:53.000Z</time>
      </trkpt>
      <trkpt lat="47.06968" lon="5.20191">
        <ele>249.6</ele>
        <time>2015-07-14T06:48:55.000Z</time>
      </trkpt>
      <trkpt lat="47.06961" lon="5.20183">
        <ele>249.12</ele>
        <time>2015-07-14T06:48:57.000Z</time>
      </trkpt>
      <trkpt lat="47.06953" lon="5.20175">
        <ele>249.12</ele>
        <time>2015-07-14T06:48:59.000Z</time>
      </trkpt>
      <trkpt lat="47.06944" lon="5.20168">
        <ele>249.12</ele>
        <time>2015-07-14T06:49:01.000Z</time>
      </trkpt>
      <trkpt lat="47.06936" lon="5.2016">
        <ele>249.12</ele>
        <time>2015-07-14T06:49:03.000Z</time>
      </trkpt>
      <trkpt lat="47.06928" lon="5.20152">
        <ele>249.12</ele>
        <time>2015-07-14T06:49:05.000Z</time>
      </trkpt>
      <trkpt lat="47.0692" lon="5.20143">
        <ele>249.12</ele>
        <time>2015-07-14T06:49:07.000Z</time>
      </trkpt>
      <trkpt lat="47.06911" lon="5.20136">
        <ele>249.12</ele>
        <time>2015-07-14T06:49:09.000Z</time>
      </trkpt>
      <trkpt lat="47.06903" lon="5.20128">
        <ele>249.12</ele>
        <time>2015-07-14T06:49:11.000Z</time>
      </trkpt>
      <trkpt lat="47.06895" lon="5.2012">
        <ele>249.12</ele>
        <time>2015-07-14T06:49:13.000Z</time>
      </trkpt>
      <trkpt lat="47.06887" lon="5.20112">
        <ele>249.12</ele>
        <time>2015-07-14T06:49:15.000Z</time>
      </trkpt>
      <trkpt lat="47.06879" lon="5.20104">
        <ele>249.12</ele>
        <time>2015-07-14T06:49:17.000Z</time>
      </trkpt>
      <trkpt lat="47.06871" lon="5.20096">
        <ele>249.12</ele>
        <time>2015-07-14T06:49:19.000Z</time>
      </trkpt>
      <trkpt lat="47.06863" lon="5.20088">
        <ele>249.12</ele>
        <time>2015-07-14T06:49:21.000Z</time>
      </trkpt>
      <trkpt lat="47.06854" lon="5.20081">
        <ele>249.12</ele>
        <time>2015-07-14T06:49:23.000Z</time>
      </trkpt>
      <trkpt lat="47.06846" lon="5.20073">
        <ele>249.12</ele>
        <time>2015-07-14T06:49:25.000Z</time>
      </trkpt>
      <trkpt lat="47.06838" lon="5.20065">
        <ele>249.12</ele>
        <time>2015-07-14T06:49:27.000Z</time>
      </trkpt>
      <trkpt lat="47.0683" lon="5.20057">
        <ele>249.6</ele>
        <time>2015-07-14T06:49:29.000Z</time>
      </trkpt>
      <trkpt lat="47.06822" lon="5.20049">
        <ele>249.12</ele>
        <time>2015-07-14T06:49:31.000Z</time>
      </trkpt>
      <trkpt lat="47.06814" lon="5.20041">
        <ele>249.6</ele>
        <time>2015-07-14T06:49:33.000Z</time>
      </trkpt>
      <trkpt lat="47.06806" lon="5.20033">
        <ele>249.6</ele>
        <time>2015-07-14T06:49:35.000Z</time>
      </trkpt>
      <trkpt lat="47.06798" lon="5.20025">
        <ele>249.12</ele>
        <time>2015-07-14T06:49:37.000Z</time>
      </trkpt>
      <trkpt lat="47.06789" lon="5.20017">
        <ele>249.12</ele>
        <time>2015-07-14T06:49:39.000Z</time>
      </trkpt>
      <trkpt lat="47.06781" lon="5.20009">
        <ele>249.6</ele>
        <time>2015-07-14T06:49:41.000Z</time>
      </trkpt>
      <trkpt lat="47.06773" lon="5.20001">
        <ele>249.12</ele>
        <time>2015-07-14T06:49:43.000Z</time>
      </trkpt>
      <trkpt lat="47.06765" lon="5.19993">
        <ele>249.12</ele>
        <time>2015-07-14T06:49:45.000Z</time>
      </trkpt>
      <trkpt lat="47.06757" lon="5.19986">
        <ele>249.12</ele>
        <time>2015-07-14T06:49:47.000Z</time>
      </trkpt>
      <trkpt lat="47.06749" lon="5.19978">
        <ele>249.6</ele>
        <time>2015-07-14T06:49:49.000Z</time>
      </trkpt>
      <trkpt lat="47.06741" lon="5.19971">
        <ele>249.12</ele>
        <time>2015-07-14T06:49:51.000Z</time>
      </trkpt>
      <trkpt lat="47.06734" lon="5.19963">
        <ele>249.12</ele>
        <time>2015-07-14T06:49:53.000Z</time>
      </trkpt>
      <trkpt lat="47.06726" lon="5.19955">
        <ele>249.12</ele>
        <time>2015-07-14T06:49:55.000Z</time>
      </trkpt>
      <trkpt lat="47.06718" lon="5.19948">
        <ele>249.6</ele>
        <time>2015-07-14T06:49:57.000Z</time>
      </trkpt>
      <trkpt lat="47.0671" lon="5.1994">
        <ele>249.6</ele>
        <time>2015-07-14T06:49:59.000Z</time>
      </trkpt>
      <trkpt lat="47.06702" lon="5.19933">
        <ele>249.6</ele>
        <time>2015-07-14T06:50:01.000Z</time>
      </trkpt>
      <trkpt lat="47.06694" lon="5.19925">
        <ele>249.12</ele>
        <time>2015-07-14T06:50:03.000Z</time>
      </trkpt>
      <trkpt lat="47.06686" lon="5.19917">
        <ele>249.6</ele>
        <time>2015-07-14T06:50:05.000Z</time>
      </trkpt>
      <trkpt lat="47.06678" lon="5.1991">
        <ele>249.12</ele>
        <time>2015-07-14T06:50:07.000Z</time>
      </trkpt>
      <trkpt lat="47.0667" lon="5.19902">
        <ele>249.12</ele>
        <time>2015-07-14T06:50:09.000Z</time>
      </trkpt>
      <trkpt lat="47.06662" lon="5.19896">
        <ele>249.12</ele>
        <time>2015-07-14T06:50:11.000Z</time>
      </trkpt>
      <trkpt lat="47.06649" lon="5.19887">
        <ele>249.6</ele>
        <time>2015-07-14T06:50:14.000Z</time>
      </trkpt>
      <trkpt lat="47.0664" lon="5.1988">
        <ele>249.6</ele>
        <time>2015-07-14T06:50:16.000Z</time>
      </trkpt>
      <trkpt lat="47.06632" lon="5.19874">
        <ele>249.6</ele>
        <time>2015-07-14T06:50:18.000Z</time>
      </trkpt>
      <trkpt lat="47.06623" lon="5.19866">
        <ele>249.6</ele>
        <time>2015-07-14T06:50:20.000Z</time>
      </trkpt>
      <trkpt lat="47.06615" lon="5.19859">
        <ele>249.6</ele>
        <time>2015-07-14T06:50:22.000Z</time>
      </trkpt>
      <trkpt lat="47.06607" lon="5.19852">
        <ele>249.6</ele>
        <time>2015-07-14T06:50:24.000Z</time>
      </trkpt>
      <trkpt lat="47.06599" lon="5.19844">
        <ele>249.6</ele>
        <time>2015-07-14T06:50:26.000Z</time>
      </trkpt>
      <trkpt lat="47.06591" lon="5.19836">
        <ele>249.6</ele>
        <time>2015-07-14T06:50:28.000Z</time>
      </trkpt>
      <trkpt lat="47.06583" lon="5.19828">
        <ele>249.6</ele>
        <time>2015-07-14T06:50:30.000Z</time>
      </trkpt>
      <trkpt lat="47.06575" lon="5.1982">
        <ele>249.6</ele>
        <time>2015-07-14T06:50:32.000Z</time>
      </trkpt>
      <trkpt lat="47.06566" lon="5.19812">
        <ele>249.6</ele>
        <time>2015-07-14T06:50:34.000Z</time>
      </trkpt>
      <trkpt lat="47.06557" lon="5.19803">
        <ele>249.12</ele>
        <time>2015-07-14T06:50:36.000Z</time>
      </trkpt>
      <trkpt lat="47.06549" lon="5.19795">
        <ele>249.12</ele>
        <time>2015-07-14T06:50:38.000Z</time>
      </trkpt>
      <trkpt lat="47.06541" lon="5.19787">
        <ele>249.12</ele>
        <time>2015-07-14T06:50:40.000Z</time>
      </trkpt>
      <trkpt lat="47.06532" lon="5.19778">
        <ele>248.64</ele>
        <time>2015-07-14T06:50:42.000Z</time>
      </trkpt>
      <trkpt lat="47.06524" lon="5.19769">
        <ele>249.12</ele>
        <time>2015-07-14T06:50:44.000Z</time>
      </trkpt>
      <trkpt lat="47.06515" lon="5.19762">
        <ele>249.12</ele>
        <time>2015-07-14T06:50:46.000Z</time>
      </trkpt>
      <trkpt lat="47.06507" lon="5.19753">
        <ele>249.12</ele>
        <time>2015-07-14T06:50:48.000Z</time>
      </trkpt>
      <trkpt lat="47.06498" lon="5.19745">
        <ele>249.12</ele>
        <time>2015-07-14T06:50:50.000Z</time>
      </trkpt>
      <trkpt lat="47.0649" lon="5.19736">
        <ele>249.12</ele>
        <time>2015-07-14T06:50:52.000Z</time>
      </trkpt>
      <trkpt lat="47.06482" lon="5.19728">
        <ele>249.12</ele>
        <time>2015-07-14T06:50:54.000Z</time>
      </trkpt>
      <trkpt lat="47.06474" lon="5.1972">
        <ele>249.12</ele>
        <time>2015-07-14T06:50:56.000Z</time>
      </trkpt>
      <trkpt lat="47.06465" lon="5.19713">
        <ele>249.12</ele>
        <time>2015-07-14T06:50:58.000Z</time>
      </trkpt>
      <trkpt lat="47.06457" lon="5.19704">
        <ele>249.12</ele>
        <time>2015-07-14T06:51:00.000Z</time>
      </trkpt>
      <trkpt lat="47.06449" lon="5.19695">
        <ele>249.12</ele>
        <time>2015-07-14T06:51:02.000Z</time>
      </trkpt>
      <trkpt lat="47.06441" lon="5.19686">
        <ele>249.12</ele>
        <time>2015-07-14T06:51:04.000Z</time>
      </trkpt>
      <trkpt lat="47.06434" lon="5.19677">
        <ele>249.6</ele>
        <time>2015-07-14T06:51:06.000Z</time>
      </trkpt>
      <trkpt lat="47.06427" lon="5.19668">
        <ele>249.12</ele>
        <time>2015-07-14T06:51:08.000Z</time>
      </trkpt>
      <trkpt lat="47.06418" lon="5.19659">
        <ele>249.12</ele>
        <time>2015-07-14T06:51:10.000Z</time>
      </trkpt>
      <trkpt lat="47.0641" lon="5.19651">
        <ele>249.12</ele>
        <time>2015-07-14T06:51:12.000Z</time>
      </trkpt>
      <trkpt lat="47.06401" lon="5.19642">
        <ele>249.12</ele>
        <time>2015-07-14T06:51:14.000Z</time>
      </trkpt>
      <trkpt lat="47.06393" lon="5.19634">
        <ele>249.12</ele>
        <time>2015-07-14T06:51:16.000Z</time>
      </trkpt>
      <trkpt lat="47.06385" lon="5.19626">
        <ele>249.12</ele>
        <time>2015-07-14T06:51:18.000Z</time>
      </trkpt>
      <trkpt lat="47.06377" lon="5.19618">
        <ele>249.12</ele>
        <time>2015-07-14T06:51:20.000Z</time>
      </trkpt>
      <trkpt lat="47.06368" lon="5.1961">
        <ele>249.12</ele>
        <time>2015-07-14T06:51:22.000Z</time>
      </trkpt>
      <trkpt lat="47.0636" lon="5.19602">
        <ele>249.12</ele>
        <time>2015-07-14T06:51:24.000Z</time>
      </trkpt>
      <trkpt lat="47.06352" lon="5.19594">
        <ele>249.12</ele>
        <time>2015-07-14T06:51:26.000Z</time>
      </trkpt>
      <trkpt lat="47.06343" lon="5.19586">
        <ele>249.12</ele>
        <time>2015-07-14T06:51:28.000Z</time>
      </trkpt>
      <trkpt lat="47.06335" lon="5.19578">
        <ele>249.12</ele>
        <time>2015-07-14T06:51:30.000Z</time>
      </trkpt>
      <trkpt lat="47.06327" lon="5.19569">
        <ele>249.12</ele>
        <time>2015-07-14T06:51:32.000Z</time>
      </trkpt>
      <trkpt lat="47.06319" lon="5.19562">
        <ele>249.12</ele>
        <time>2015-07-14T06:51:34.000Z</time>
      </trkpt>
      <trkpt lat="47.06311" lon="5.19554">
        <ele>249.12</ele>
        <time>2015-07-14T06:51:36.000Z</time>
      </trkpt>
      <trkpt lat="47.06303" lon="5.19546">
        <ele>249.12</ele>
        <time>2015-07-14T06:51:38.000Z</time>
      </trkpt>
      <trkpt lat="47.06294" lon="5.19538">
        <ele>249.12</ele>
        <time>2015-07-14T06:51:40.000Z</time>
      </trkpt>
      <trkpt lat="47.06286" lon="5.1953">
        <ele>248.64</ele>
        <time>2015-07-14T06:51:42.000Z</time>
      </trkpt>
      <trkpt lat="47.06278" lon="5.19522">
        <ele>249.12</ele>
        <time>2015-07-14T06:51:44.000Z</time>
      </trkpt>
      <trkpt lat="47.06269" lon="5.19514">
        <ele>249.12</ele>
        <time>2015-07-14T06:51:46.000Z</time>
      </trkpt>
      <trkpt lat="47.06261" lon="5.19505">
        <ele>249.12</ele>
        <time>2015-07-14T06:51:48.000Z</time>
      </trkpt>
      <trkpt lat="47.06253" lon="5.19497">
        <ele>249.12</ele>
        <time>2015-07-14T06:51:50.000Z</time>
      </trkpt>
      <trkpt lat="47.06245" lon="5.1949">
        <ele>249.12</ele>
        <time>2015-07-14T06:51:52.000Z</time>
      </trkpt>
      <trkpt lat="47.06237" lon="5.19482">
        <ele>249.6</ele>
        <time>2015-07-14T06:51:54.000Z</time>
      </trkpt>
      <trkpt lat="47.06228" lon="5.19474">
        <ele>249.6</ele>
        <time>2015-07-14T06:51:56.000Z</time>
      </trkpt>
      <trkpt lat="47.06219" lon="5.19465">
        <ele>249.12</ele>
        <time>2015-07-14T06:51:58.000Z</time>
      </trkpt>
      <trkpt lat="47.06211" lon="5.19457">
        <ele>249.12</ele>
        <time>2015-07-14T06:52:00.000Z</time>
      </trkpt>
      <trkpt lat="47.06202" lon="5.19449">
        <ele>249.12</ele>
        <time>2015-07-14T06:52:02.000Z</time>
      </trkpt>
      <trkpt lat="47.06194" lon="5.1944">
        <ele>249.12</ele>
        <time>2015-07-14T06:52:04.000Z</time>
      </trkpt>
      <trkpt lat="47.06185" lon="5.19432">
        <ele>249.12</ele>
        <time>2015-07-14T06:52:06.000Z</time>
      </trkpt>
      <trkpt lat="47.06176" lon="5.19424">
        <ele>249.12</ele>
        <time>2015-07-14T06:52:08.000Z</time>
      </trkpt>
      <trkpt lat="47.06168" lon="5.19416">
        <ele>249.12</ele>
        <time>2015-07-14T06:52:10.000Z</time>
      </trkpt>
      <trkpt lat="47.06159" lon="5.19408">
        <ele>249.12</ele>
        <time>2015-07-14T06:52:12.000Z</time>
      </trkpt>
      <trkpt lat="47.06151" lon="5.19399">
        <ele>249.12</ele>
        <time>2015-07-14T06:52:14.000Z</time>
      </trkpt>
      <trkpt lat="47.06142" lon="5.1939">
        <ele>249.12</ele>
        <time>2015-07-14T06:52:16.000Z</time>
      </trkpt>
      <trkpt lat="47.06134" lon="5.19382">
        <ele>249.12</ele>
        <time>2015-07-14T06:52:18.000Z</time>
      </trkpt>
      <trkpt lat="47.06125" lon="5.19374">
        <ele>249.12</ele>
        <time>2015-07-14T06:52:20.000Z</time>
      </trkpt>
      <trkpt lat="47.06116" lon="5.19366">
        <ele>249.12</ele>
        <time>2015-07-14T06:52:22.000Z</time>
      </trkpt>
      <trkpt lat="47.06108" lon="5.19358">
        <ele>249.12</ele>
        <time>2015-07-14T06:52:24.000Z</time>
      </trkpt>
      <trkpt lat="47.061" lon="5.1935">
        <ele>249.12</ele>
        <time>2015-07-14T06:52:26.000Z</time>
      </trkpt>
      <trkpt lat="47.06092" lon="5.19341">
        <ele>249.12</ele>
        <time>2015-07-14T06:52:28.000Z</time>
      </trkpt>
      <trkpt lat="47.06083" lon="5.19333">
        <ele>249.12</ele>
        <time>2015-07-14T06:52:30.000Z</time>
      </trkpt>
      <trkpt lat="47.06075" lon="5.19325">
        <ele>249.12</ele>
        <time>2015-07-14T06:52:32.000Z</time>
      </trkpt>
      <trkpt lat="47.06066" lon="5.19317">
        <ele>249.12</ele>
        <time>2015-07-14T06:52:34.000Z</time>
      </trkpt>
      <trkpt lat="47.06057" lon="5.19309">
        <ele>249.12</ele>
        <time>2015-07-14T06:52:36.000Z</time>
      </trkpt>
      <trkpt lat="47.06049" lon="5.19301">
        <ele>249.12</ele>
        <time>2015-07-14T06:52:38.000Z</time>
      </trkpt>
      <trkpt lat="47.06041" lon="5.19292">
        <ele>249.12</ele>
        <time>2015-07-14T06:52:40.000Z</time>
      </trkpt>
      <trkpt lat="47.06032" lon="5.19284">
        <ele>249.12</ele>
        <time>2015-07-14T06:52:42.000Z</time>
      </trkpt>
      <trkpt lat="47.06024" lon="5.19276">
        <ele>249.12</ele>
        <time>2015-07-14T06:52:44.000Z</time>
      </trkpt>
      <trkpt lat="47.06015" lon="5.19268">
        <ele>249.12</ele>
        <time>2015-07-14T06:52:46.000Z</time>
      </trkpt>
      <trkpt lat="47.06007" lon="5.19259">
        <ele>249.12</ele>
        <time>2015-07-14T06:52:48.000Z</time>
      </trkpt>
      <trkpt lat="47.05999" lon="5.19251">
        <ele>248.64</ele>
        <time>2015-07-14T06:52:50.000Z</time>
      </trkpt>
      <trkpt lat="47.0599" lon="5.19243">
        <ele>249.12</ele>
        <time>2015-07-14T06:52:52.000Z</time>
      </trkpt>
      <trkpt lat="47.05981" lon="5.19235">
        <ele>249.12</ele>
        <time>2015-07-14T06:52:54.000Z</time>
      </trkpt>
      <trkpt lat="47.05972" lon="5.19226">
        <ele>249.12</ele>
        <time>2015-07-14T06:52:56.000Z</time>
      </trkpt>
      <trkpt lat="47.05964" lon="5.19217">
        <ele>249.12</ele>
        <time>2015-07-14T06:52:58.000Z</time>
      </trkpt>
      <trkpt lat="47.05955" lon="5.19208">
        <ele>249.12</ele>
        <time>2015-07-14T06:53:00.000Z</time>
      </trkpt>
      <trkpt lat="47.05946" lon="5.192">
        <ele>249.12</ele>
        <time>2015-07-14T06:53:02.000Z</time>
      </trkpt>
      <trkpt lat="47.05937" lon="5.19191">
        <ele>249.12</ele>
        <time>2015-07-14T06:53:04.000Z</time>
      </trkpt>
      <trkpt lat="47.05928" lon="5.19183">
        <ele>249.12</ele>
        <time>2015-07-14T06:53:06.000Z</time>
      </trkpt>
      <trkpt lat="47.0592" lon="5.19175">
        <ele>249.12</ele>
        <time>2015-07-14T06:53:08.000Z</time>
      </trkpt>
      <trkpt lat="47.05911" lon="5.19166">
        <ele>249.12</ele>
        <time>2015-07-14T06:53:10.000Z</time>
      </trkpt>
      <trkpt lat="47.05902" lon="5.19157">
        <ele>249.12</ele>
        <time>2015-07-14T06:53:12.000Z</time>
      </trkpt>
      <trkpt lat="47.05894" lon="5.19149">
        <ele>249.12</ele>
        <time>2015-07-14T06:53:14.000Z</time>
      </trkpt>
      <trkpt lat="47.05886" lon="5.19141">
        <ele>249.6</ele>
        <time>2015-07-14T06:53:16.000Z</time>
      </trkpt>
      <trkpt lat="47.05877" lon="5.19133">
        <ele>249.12</ele>
        <time>2015-07-14T06:53:18.000Z</time>
      </trkpt>
      <trkpt lat="47.05869" lon="5.19125">
        <ele>249.12</ele>
        <time>2015-07-14T06:53:20.000Z</time>
      </trkpt>
      <trkpt lat="47.0586" lon="5.19116">
        <ele>249.12</ele>
        <time>2015-07-14T06:53:22.000Z</time>
      </trkpt>
      <trkpt lat="47.05852" lon="5.19108">
        <ele>249.12</ele>
        <time>2015-07-14T06:53:24.000Z</time>
      </trkpt>
      <trkpt lat="47.05843" lon="5.19099">
        <ele>249.12</ele>
        <time>2015-07-14T06:53:26.000Z</time>
      </trkpt>
      <trkpt lat="47.05835" lon="5.19091">
        <ele>249.6</ele>
        <time>2015-07-14T06:53:28.000Z</time>
      </trkpt>
      <trkpt lat="47.05822" lon="5.19079">
        <ele>249.12</ele>
        <time>2015-07-14T06:53:31.000Z</time>
      </trkpt>
      <trkpt lat="47.05814" lon="5.1907">
        <ele>249.12</ele>
        <time>2015-07-14T06:53:33.000Z</time>
      </trkpt>
      <trkpt lat="47.05805" lon="5.19061">
        <ele>248.64</ele>
        <time>2015-07-14T06:53:35.000Z</time>
      </trkpt>
      <trkpt lat="47.05797" lon="5.19053">
        <ele>249.12</ele>
        <time>2015-07-14T06:53:37.000Z</time>
      </trkpt>
      <trkpt lat="47.05788" lon="5.19044">
        <ele>249.12</ele>
        <time>2015-07-14T06:53:39.000Z</time>
      </trkpt>
      <trkpt lat="47.05779" lon="5.19035">
        <ele>249.12</ele>
        <time>2015-07-14T06:53:41.000Z</time>
      </trkpt>
      <trkpt lat="47.05771" lon="5.19027">
        <ele>249.6</ele>
        <time>2015-07-14T06:53:43.000Z</time>
      </trkpt>
      <trkpt lat="47.05763" lon="5.19019">
        <ele>249.12</ele>
        <time>2015-07-14T06:53:45.000Z</time>
      </trkpt>
      <trkpt lat="47.05754" lon="5.1901">
        <ele>249.12</ele>
        <time>2015-07-14T06:53:47.000Z</time>
      </trkpt>
      <trkpt lat="47.05746" lon="5.19002">
        <ele>249.12</ele>
        <time>2015-07-14T06:53:49.000Z</time>
      </trkpt>
      <trkpt lat="47.05738" lon="5.18993">
        <ele>249.12</ele>
        <time>2015-07-14T06:53:51.000Z</time>
      </trkpt>
      <trkpt lat="47.05729" lon="5.18985">
        <ele>249.12</ele>
        <time>2015-07-14T06:53:53.000Z</time>
      </trkpt>
      <trkpt lat="47.05721" lon="5.18976">
        <ele>249.12</ele>
        <time>2015-07-14T06:53:55.000Z</time>
      </trkpt>
      <trkpt lat="47.05713" lon="5.18968">
        <ele>249.12</ele>
        <time>2015-07-14T06:53:57.000Z</time>
      </trkpt>
      <trkpt lat="47.05704" lon="5.18959">
        <ele>249.12</ele>
        <time>2015-07-14T06:53:59.000Z</time>
      </trkpt>
      <trkpt lat="47.05696" lon="5.18951">
        <ele>249.6</ele>
        <time>2015-07-14T06:54:01.000Z</time>
      </trkpt>
      <trkpt lat="47.05688" lon="5.18943">
        <ele>249.12</ele>
        <time>2015-07-14T06:54:03.000Z</time>
      </trkpt>
      <trkpt lat="47.0568" lon="5.18934">
        <ele>249.12</ele>
        <time>2015-07-14T06:54:05.000Z</time>
      </trkpt>
      <trkpt lat="47.05672" lon="5.18926">
        <ele>249.12</ele>
        <time>2015-07-14T06:54:07.000Z</time>
      </trkpt>
      <trkpt lat="47.05663" lon="5.18918">
        <ele>249.12</ele>
        <time>2015-07-14T06:54:09.000Z</time>
      </trkpt>
      <trkpt lat="47.05655" lon="5.18909">
        <ele>249.12</ele>
        <time>2015-07-14T06:54:11.000Z</time>
      </trkpt>
      <trkpt lat="47.05646" lon="5.189">
        <ele>249.12</ele>
        <time>2015-07-14T06:54:13.000Z</time>
      </trkpt>
      <trkpt lat="47.05638" lon="5.18891">
        <ele>249.12</ele>
        <time>2015-07-14T06:54:15.000Z</time>
      </trkpt>
      <trkpt lat="47.05629" lon="5.18882">
        <ele>249.12</ele>
        <time>2015-07-14T06:54:17.000Z</time>
      </trkpt>
      <trkpt lat="47.05621" lon="5.18874">
        <ele>249.12</ele>
        <time>2015-07-14T06:54:19.000Z</time>
      </trkpt>
      <trkpt lat="47.05612" lon="5.18865">
        <ele>249.12</ele>
        <time>2015-07-14T06:54:21.000Z</time>
      </trkpt>
      <trkpt lat="47.05604" lon="5.18856">
        <ele>249.12</ele>
        <time>2015-07-14T06:54:23.000Z</time>
      </trkpt>
      <trkpt lat="47.05595" lon="5.18847">
        <ele>249.12</ele>
        <time>2015-07-14T06:54:25.000Z</time>
      </trkpt>
      <trkpt lat="47.05587" lon="5.18838">
        <ele>249.6</ele>
        <time>2015-07-14T06:54:27.000Z</time>
      </trkpt>
      <trkpt lat="47.05579" lon="5.18829">
        <ele>250.08</ele>
        <time>2015-07-14T06:54:29.000Z</time>
      </trkpt>
      <trkpt lat="47.0557" lon="5.18821">
        <ele>249.6</ele>
        <time>2015-07-14T06:54:31.000Z</time>
      </trkpt>
      <trkpt lat="47.05561" lon="5.18812">
        <ele>249.12</ele>
        <time>2015-07-14T06:54:33.000Z</time>
      </trkpt>
      <trkpt lat="47.05553" lon="5.18803">
        <ele>249.6</ele>
        <time>2015-07-14T06:54:35.000Z</time>
      </trkpt>
      <trkpt lat="47.05544" lon="5.18794">
        <ele>249.12</ele>
        <time>2015-07-14T06:54:37.000Z</time>
      </trkpt>
      <trkpt lat="47.05536" lon="5.18786">
        <ele>249.12</ele>
        <time>2015-07-14T06:54:39.000Z</time>
      </trkpt>
      <trkpt lat="47.05527" lon="5.18777">
        <ele>249.12</ele>
        <time>2015-07-14T06:54:41.000Z</time>
      </trkpt>
      <trkpt lat="47.05519" lon="5.18768">
        <ele>249.6</ele>
        <time>2015-07-14T06:54:43.000Z</time>
      </trkpt>
      <trkpt lat="47.0551" lon="5.18759">
        <ele>249.12</ele>
        <time>2015-07-14T06:54:45.000Z</time>
      </trkpt>
      <trkpt lat="47.05502" lon="5.18751">
        <ele>249.12</ele>
        <time>2015-07-14T06:54:47.000Z</time>
      </trkpt>
      <trkpt lat="47.05493" lon="5.18743">
        <ele>249.12</ele>
        <time>2015-07-14T06:54:49.000Z</time>
      </trkpt>
      <trkpt lat="47.05484" lon="5.18736">
        <ele>249.12</ele>
        <time>2015-07-14T06:54:51.000Z</time>
      </trkpt>
      <trkpt lat="47.05476" lon="5.18731">
        <ele>248.64</ele>
        <time>2015-07-14T06:54:54.000Z</time>
      </trkpt>
      <trkpt lat="47.05468" lon="5.18726">
        <ele>248.16</ele>
        <time>2015-07-14T06:55:24.000Z</time>
      </trkpt>
      <trkpt lat="47.05459" lon="5.18718">
        <ele>248.16</ele>
        <time>2015-07-14T06:55:29.000Z</time>
      </trkpt>
      <trkpt lat="47.05451" lon="5.18708">
        <ele>248.64</ele>
        <time>2015-07-14T06:55:34.000Z</time>
      </trkpt>
      <trkpt lat="47.05444" lon="5.18698">
        <ele>248.64</ele>
        <time>2015-07-14T06:55:38.000Z</time>
      </trkpt>
      <trkpt lat="47.05438" lon="5.18687">
        <ele>248.16</ele>
        <time>2015-07-14T06:55:42.000Z</time>
      </trkpt>
      <trkpt lat="47.05441" lon="5.18695">
        <ele>248.16</ele>
        <time>2015-07-14T06:57:38.000Z</time>
      </trkpt>
      <trkpt lat="47.05436" lon="5.18683">
        <ele>248.64</ele>
        <time>2015-07-14T06:57:52.000Z</time>
      </trkpt>
      <trkpt lat="47.0543" lon="5.18673">
        <ele>249.12</ele>
        <time>2015-07-14T06:57:56.000Z</time>
      </trkpt>
      <trkpt lat="47.05422" lon="5.18662">
        <ele>249.12</ele>
        <time>2015-07-14T06:58:00.000Z</time>
      </trkpt>
      <trkpt lat="47.05412" lon="5.18651">
        <ele>248.64</ele>
        <time>2015-07-14T06:58:04.000Z</time>
      </trkpt>
      <trkpt lat="47.05402" lon="5.18646">
        <ele>249.12</ele>
        <time>2015-07-14T06:58:08.000Z</time>
      </trkpt>
      <trkpt lat="47.05392" lon="5.18656">
        <ele>248.16</ele>
        <time>2015-07-14T06:58:12.000Z</time>
      </trkpt>
      <trkpt lat="47.05385" lon="5.1867">
        <ele>248.16</ele>
        <time>2015-07-14T06:58:15.000Z</time>
      </trkpt>
      <trkpt lat="47.05378" lon="5.18682">
        <ele>247.68</ele>
        <time>2015-07-14T06:58:18.000Z</time>
      </trkpt>
      <trkpt lat="47.05369" lon="5.18694">
        <ele>247.2</ele>
        <time>2015-07-14T06:58:21.000Z</time>
      </trkpt>
      <trkpt lat="47.05361" lon="5.18705">
        <ele>247.2</ele>
        <time>2015-07-14T06:58:24.000Z</time>
      </trkpt>
      <trkpt lat="47.05352" lon="5.18716">
        <ele>246.23</ele>
        <time>2015-07-14T06:58:27.000Z</time>
      </trkpt>
      <trkpt lat="47.05341" lon="5.18732">
        <ele>246.72</ele>
        <time>2015-07-14T06:58:30.000Z</time>
      </trkpt>
      <trkpt lat="47.05332" lon="5.18743">
        <ele>246.72</ele>
        <time>2015-07-14T06:58:33.000Z</time>
      </trkpt>
      <trkpt lat="47.05323" lon="5.18754">
        <ele>246.23</ele>
        <time>2015-07-14T06:58:36.000Z</time>
      </trkpt>
      <trkpt lat="47.05314" lon="5.18764">
        <ele>246.72</ele>
        <time>2015-07-14T06:58:39.000Z</time>
      </trkpt>
      <trkpt lat="47.05305" lon="5.18775">
        <ele>247.2</ele>
        <time>2015-07-14T06:58:42.000Z</time>
      </trkpt>
      <trkpt lat="47.05295" lon="5.18786">
        <ele>247.68</ele>
        <time>2015-07-14T06:58:45.000Z</time>
      </trkpt>
      <trkpt lat="47.05286" lon="5.18798">
        <ele>247.68</ele>
        <time>2015-07-14T06:58:48.000Z</time>
      </trkpt>
      <trkpt lat="47.05276" lon="5.18809">
        <ele>247.68</ele>
        <time>2015-07-14T06:58:51.000Z</time>
      </trkpt>
      <trkpt lat="47.05267" lon="5.18819">
        <ele>248.16</ele>
        <time>2015-07-14T06:58:54.000Z</time>
      </trkpt>
      <trkpt lat="47.05258" lon="5.18829">
        <ele>248.16</ele>
        <time>2015-07-14T06:58:57.000Z</time>
      </trkpt>
      <trkpt lat="47.0525" lon="5.18838">
        <ele>248.64</ele>
        <time>2015-07-14T06:59:00.000Z</time>
      </trkpt>
      <trkpt lat="47.05244" lon="5.1885">
        <ele>249.12</ele>
        <time>2015-07-14T06:59:04.000Z</time>
      </trkpt>
      <trkpt lat="47.0525" lon="5.18857">
        <ele>249.6</ele>
        <time>2015-07-14T06:59:10.000Z</time>
      </trkpt>
      <trkpt lat="47.05259" lon="5.18849">
        <ele>249.6</ele>
        <time>2015-07-14T06:59:14.000Z</time>
      </trkpt>
      <trkpt lat="47.05268" lon="5.1884">
        <ele>249.6</ele>
        <time>2015-07-14T06:59:17.000Z</time>
      </trkpt>
      <trkpt lat="47.05276" lon="5.1883">
        <ele>249.6</ele>
        <time>2015-07-14T06:59:20.000Z</time>
      </trkpt>
      <trkpt lat="47.05286" lon="5.1882">
        <ele>249.6</ele>
        <time>2015-07-14T06:59:23.000Z</time>
      </trkpt>
      <trkpt lat="47.05295" lon="5.18809">
        <ele>249.6</ele>
        <time>2015-07-14T06:59:26.000Z</time>
      </trkpt>
      <trkpt lat="47.05304" lon="5.18798">
        <ele>249.6</ele>
        <time>2015-07-14T06:59:29.000Z</time>
      </trkpt>
      <trkpt lat="47.05313" lon="5.18788">
        <ele>250.08</ele>
        <time>2015-07-14T06:59:32.000Z</time>
      </trkpt>
      <trkpt lat="47.05322" lon="5.18778">
        <ele>250.08</ele>
        <time>2015-07-14T06:59:35.000Z</time>
      </trkpt>
      <trkpt lat="47.05331" lon="5.18769">
        <ele>250.56</ele>
        <time>2015-07-14T06:59:38.000Z</time>
      </trkpt>
      <trkpt lat="47.0534" lon="5.18759">
        <ele>250.56</ele>
        <time>2015-07-14T06:59:41.000Z</time>
      </trkpt>
      <trkpt lat="47.05349" lon="5.1875">
        <ele>251.04</ele>
        <time>2015-07-14T06:59:44.000Z</time>
      </trkpt>
      <trkpt lat="47.05357" lon="5.1874">
        <ele>251.04</ele>
        <time>2015-07-14T06:59:47.000Z</time>
      </trkpt>
      <trkpt lat="47.05366" lon="5.18729">
        <ele>251.04</ele>
        <time>2015-07-14T06:59:50.000Z</time>
      </trkpt>
      <trkpt lat="47.05375" lon="5.18721">
        <ele>251.52</ele>
        <time>2015-07-14T06:59:53.000Z</time>
      </trkpt>
      <trkpt lat="47.05382" lon="5.18712">
        <ele>251.52</ele>
        <time>2015-07-14T06:59:56.000Z</time>
      </trkpt>
      <trkpt lat="47.0539" lon="5.18703">
        <ele>252.48</ele>
        <time>2015-07-14T06:59:59.000Z</time>
      </trkpt>
      <trkpt lat="47.05398" lon="5.18694">
        <ele>253.44</ele>
        <time>2015-07-14T07:00:02.000Z</time>
      </trkpt>
      <trkpt lat="47.05407" lon="5.18685">
        <ele>253.44</ele>
        <time>2015-07-14T07:00:05.000Z</time>
      </trkpt>
      <trkpt lat="47.05415" lon="5.18677">
        <ele>253.93</ele>
        <time>2015-07-14T07:00:08.000Z</time>
      </trkpt>
      <trkpt lat="47.05423" lon="5.18667">
        <ele>253.93</ele>
        <time>2015-07-14T07:00:11.000Z</time>
      </trkpt>
      <trkpt lat="47.05431" lon="5.18657">
        <ele>254.41</ele>
        <time>2015-07-14T07:00:14.000Z</time>
      </trkpt>
      <trkpt lat="47.0544" lon="5.18648">
        <ele>254.41</ele>
        <time>2015-07-14T07:00:17.000Z</time>
      </trkpt>
      <trkpt lat="47.05449" lon="5.18638">
        <ele>254.41</ele>
        <time>2015-07-14T07:00:20.000Z</time>
      </trkpt>
      <trkpt lat="47.05458" lon="5.18627">
        <ele>255.37</ele>
        <time>2015-07-14T07:00:23.000Z</time>
      </trkpt>
      <trkpt lat="47.05468" lon="5.18616">
        <ele>255.37</ele>
        <time>2015-07-14T07:00:26.000Z</time>
      </trkpt>
      <trkpt lat="47.05479" lon="5.18604">
        <ele>255.37</ele>
        <time>2015-07-14T07:00:29.000Z</time>
      </trkpt>
      <trkpt lat="47.05486" lon="5.18596">
        <ele>255.37</ele>
        <time>2015-07-14T07:00:31.000Z</time>
      </trkpt>
      <trkpt lat="47.05494" lon="5.18587">
        <ele>254.41</ele>
        <time>2015-07-14T07:00:33.000Z</time>
      </trkpt>
      <trkpt lat="47.05503" lon="5.18578">
        <ele>254.41</ele>
        <time>2015-07-14T07:00:35.000Z</time>
      </trkpt>
      <trkpt lat="47.05511" lon="5.18569">
        <ele>253.93</ele>
        <time>2015-07-14T07:00:37.000Z</time>
      </trkpt>
      <trkpt lat="47.0552" lon="5.18559">
        <ele>253.44</ele>
        <time>2015-07-14T07:00:39.000Z</time>
      </trkpt>
      <trkpt lat="47.05529" lon="5.18548">
        <ele>252.96</ele>
        <time>2015-07-14T07:00:41.000Z</time>
      </trkpt>
      <trkpt lat="47.0554" lon="5.18537">
        <ele>252.48</ele>
        <time>2015-07-14T07:00:43.000Z</time>
      </trkpt>
      <trkpt lat="47.0555" lon="5.18525">
        <ele>252</ele>
        <time>2015-07-14T07:00:45.000Z</time>
      </trkpt>
      <trkpt lat="47.05558" lon="5.18515">
        <ele>251.04</ele>
        <time>2015-07-14T07:00:47.000Z</time>
      </trkpt>
      <trkpt lat="47.05567" lon="5.18505">
        <ele>251.04</ele>
        <time>2015-07-14T07:00:50.000Z</time>
      </trkpt>
      <trkpt lat="47.05575" lon="5.18508">
        <ele>250.08</ele>
        <time>2015-07-14T07:00:55.000Z</time>
      </trkpt>
      <trkpt lat="47.05579" lon="5.18505">
        <ele>250.08</ele>
        <time>2015-07-14T07:02:06.000Z</time>
      </trkpt>
      <trkpt lat="47.05584" lon="5.18491">
        <ele>249.6</ele>
        <time>2015-07-14T07:02:20.000Z</time>
      </trkpt>
      <trkpt lat="47.05592" lon="5.18479">
        <ele>249.6</ele>
        <time>2015-07-14T07:02:25.000Z</time>
      </trkpt>
      <trkpt lat="47.05599" lon="5.18469">
        <ele>249.6</ele>
        <time>2015-07-14T07:02:28.000Z</time>
      </trkpt>
      <trkpt lat="47.05606" lon="5.18457">
        <ele>249.6</ele>
        <time>2015-07-14T07:02:31.000Z</time>
      </trkpt>
      <trkpt lat="47.05614" lon="5.18445">
        <ele>250.56</ele>
        <time>2015-07-14T07:02:34.000Z</time>
      </trkpt>
      <trkpt lat="47.05622" lon="5.18433">
        <ele>250.56</ele>
        <time>2015-07-14T07:02:37.000Z</time>
      </trkpt>
      <trkpt lat="47.0563" lon="5.18419">
        <ele>250.08</ele>
        <time>2015-07-14T07:02:40.000Z</time>
      </trkpt>
      <trkpt lat="47.05638" lon="5.18404">
        <ele>249.12</ele>
        <time>2015-07-14T07:02:43.000Z</time>
      </trkpt>
      <trkpt lat="47.05647" lon="5.18389">
        <ele>249.6</ele>
        <time>2015-07-14T07:02:46.000Z</time>
      </trkpt>
      <trkpt lat="47.05652" lon="5.18379">
        <ele>249.12</ele>
        <time>2015-07-14T07:02:48.000Z</time>
      </trkpt>
      <trkpt lat="47.05658" lon="5.18368">
        <ele>249.12</ele>
        <time>2015-07-14T07:02:50.000Z</time>
      </trkpt>
      <trkpt lat="47.05664" lon="5.18357">
        <ele>249.12</ele>
        <time>2015-07-14T07:02:52.000Z</time>
      </trkpt>
      <trkpt lat="47.0567" lon="5.18346">
        <ele>249.6</ele>
        <time>2015-07-14T07:02:54.000Z</time>
      </trkpt>
      <trkpt lat="47.05677" lon="5.18335">
        <ele>249.6</ele>
        <time>2015-07-14T07:02:56.000Z</time>
      </trkpt>
      <trkpt lat="47.05683" lon="5.18324">
        <ele>248.16</ele>
        <time>2015-07-14T07:02:58.000Z</time>
      </trkpt>
      <trkpt lat="47.05689" lon="5.18312">
        <ele>248.64</ele>
        <time>2015-07-14T07:03:00.000Z</time>
      </trkpt>
      <trkpt lat="47.05696" lon="5.183">
        <ele>248.64</ele>
        <time>2015-07-14T07:03:02.000Z</time>
      </trkpt>
      <trkpt lat="47.05703" lon="5.18289">
        <ele>248.16</ele>
        <time>2015-07-14T07:03:04.000Z</time>
      </trkpt>
      <trkpt lat="47.05709" lon="5.18277">
        <ele>248.16</ele>
        <time>2015-07-14T07:03:06.000Z</time>
      </trkpt>
      <trkpt lat="47.05716" lon="5.18266">
        <ele>248.16</ele>
        <time>2015-07-14T07:03:08.000Z</time>
      </trkpt>
      <trkpt lat="47.05723" lon="5.18254">
        <ele>248.16</ele>
        <time>2015-07-14T07:03:10.000Z</time>
      </trkpt>
      <trkpt lat="47.0573" lon="5.18243">
        <ele>248.64</ele>
        <time>2015-07-14T07:03:12.000Z</time>
      </trkpt>
      <trkpt lat="47.05737" lon="5.18231">
        <ele>249.12</ele>
        <time>2015-07-14T07:03:14.000Z</time>
      </trkpt>
      <trkpt lat="47.05743" lon="5.18219">
        <ele>249.12</ele>
        <time>2015-07-14T07:03:16.000Z</time>
      </trkpt>
      <trkpt lat="47.0575" lon="5.18208">
        <ele>249.12</ele>
        <time>2015-07-14T07:03:18.000Z</time>
      </trkpt>
      <trkpt lat="47.05757" lon="5.18197">
        <ele>248.64</ele>
        <time>2015-07-14T07:03:20.000Z</time>
      </trkpt>
      <trkpt lat="47.05764" lon="5.18187">
        <ele>248.16</ele>
        <time>2015-07-14T07:03:22.000Z</time>
      </trkpt>
      <trkpt lat="47.05771" lon="5.18177">
        <ele>248.64</ele>
        <time>2015-07-14T07:03:24.000Z</time>
      </trkpt>
      <trkpt lat="47.05778" lon="5.18168">
        <ele>247.68</ele>
        <time>2015-07-14T07:03:26.000Z</time>
      </trkpt>
      <trkpt lat="47.0579" lon="5.18158">
        <ele>248.16</ele>
        <time>2015-07-14T07:03:29.000Z</time>
      </trkpt>
      <trkpt lat="47.05802" lon="5.18149">
        <ele>248.16</ele>
        <time>2015-07-14T07:03:32.000Z</time>
      </trkpt>
      <trkpt lat="47.05813" lon="5.18141">
        <ele>249.12</ele>
        <time>2015-07-14T07:03:35.000Z</time>
      </trkpt>
      <trkpt lat="47.05824" lon="5.18133">
        <ele>248.16</ele>
        <time>2015-07-14T07:03:38.000Z</time>
      </trkpt>
      <trkpt lat="47.05833" lon="5.18128">
        <ele>248.16</ele>
        <time>2015-07-14T07:03:41.000Z</time>
      </trkpt>
      <trkpt lat="47.0584" lon="5.18122">
        <ele>249.12</ele>
        <time>2015-07-14T07:04:19.000Z</time>
      </trkpt>
      <trkpt lat="47.0585" lon="5.18116">
        <ele>249.12</ele>
        <time>2015-07-14T07:04:25.000Z</time>
      </trkpt>
      <trkpt lat="47.05861" lon="5.18109">
        <ele>249.6</ele>
        <time>2015-07-14T07:04:29.000Z</time>
      </trkpt>
      <trkpt lat="47.05871" lon="5.18103">
        <ele>249.6</ele>
        <time>2015-07-14T07:04:32.000Z</time>
      </trkpt>
      <trkpt lat="47.05882" lon="5.18097">
        <ele>249.6</ele>
        <time>2015-07-14T07:04:35.000Z</time>
      </trkpt>
      <trkpt lat="47.05893" lon="5.1809">
        <ele>249.12</ele>
        <time>2015-07-14T07:04:38.000Z</time>
      </trkpt>
      <trkpt lat="47.05904" lon="5.18082">
        <ele>248.16</ele>
        <time>2015-07-14T07:04:41.000Z</time>
      </trkpt>
      <trkpt lat="47.05916" lon="5.18075">
        <ele>249.12</ele>
        <time>2015-07-14T07:04:44.000Z</time>
      </trkpt>
      <trkpt lat="47.05925" lon="5.1807">
        <ele>248.64</ele>
        <time>2015-07-14T07:04:46.000Z</time>
      </trkpt>
      <trkpt lat="47.05933" lon="5.18065">
        <ele>248.64</ele>
        <time>2015-07-14T07:04:48.000Z</time>
      </trkpt>
      <trkpt lat="47.05946" lon="5.18057">
        <ele>249.12</ele>
        <time>2015-07-14T07:04:51.000Z</time>
      </trkpt>
      <trkpt lat="47.05954" lon="5.18051">
        <ele>248.64</ele>
        <time>2015-07-14T07:04:53.000Z</time>
      </trkpt>
      <trkpt lat="47.05963" lon="5.18047">
        <ele>248.64</ele>
        <time>2015-07-14T07:04:55.000Z</time>
      </trkpt>
      <trkpt lat="47.05972" lon="5.18042">
        <ele>249.12</ele>
        <time>2015-07-14T07:04:57.000Z</time>
      </trkpt>
      <trkpt lat="47.0598" lon="5.18036">
        <ele>249.6</ele>
        <time>2015-07-14T07:04:59.000Z</time>
      </trkpt>
      <trkpt lat="47.05989" lon="5.18031">
        <ele>249.6</ele>
        <time>2015-07-14T07:05:01.000Z</time>
      </trkpt>
      <trkpt lat="47.05997" lon="5.18026">
        <ele>249.6</ele>
        <time>2015-07-14T07:05:03.000Z</time>
      </trkpt>
      <trkpt lat="47.06006" lon="5.1802">
        <ele>249.12</ele>
        <time>2015-07-14T07:05:05.000Z</time>
      </trkpt>
      <trkpt lat="47.06015" lon="5.18013">
        <ele>246.72</ele>
        <time>2015-07-14T07:05:07.000Z</time>
      </trkpt>
      <trkpt lat="47.06026" lon="5.18002">
        <ele>248.16</ele>
        <time>2015-07-14T07:05:10.000Z</time>
      </trkpt>
      <trkpt lat="47.06036" lon="5.17989">
        <ele>248.64</ele>
        <time>2015-07-14T07:05:13.000Z</time>
      </trkpt>
      <trkpt lat="47.06045" lon="5.17975">
        <ele>248.64</ele>
        <time>2015-07-14T07:05:16.000Z</time>
      </trkpt>
      <trkpt lat="47.0605" lon="5.17965">
        <ele>248.16</ele>
        <time>2015-07-14T07:05:18.000Z</time>
      </trkpt>
      <trkpt lat="47.06055" lon="5.17953">
        <ele>248.64</ele>
        <time>2015-07-14T07:05:20.000Z</time>
      </trkpt>
      <trkpt lat="47.06061" lon="5.17942">
        <ele>249.12</ele>
        <time>2015-07-14T07:05:22.000Z</time>
      </trkpt>
      <trkpt lat="47.06066" lon="5.1793">
        <ele>249.12</ele>
        <time>2015-07-14T07:05:24.000Z</time>
      </trkpt>
      <trkpt lat="47.06071" lon="5.17917">
        <ele>249.12</ele>
        <time>2015-07-14T07:05:26.000Z</time>
      </trkpt>
      <trkpt lat="47.06076" lon="5.17905">
        <ele>248.64</ele>
        <time>2015-07-14T07:05:28.000Z</time>
      </trkpt>
      <trkpt lat="47.06081" lon="5.17893">
        <ele>249.12</ele>
        <time>2015-07-14T07:05:30.000Z</time>
      </trkpt>
      <trkpt lat="47.06086" lon="5.1788">
        <ele>248.64</ele>
        <time>2015-07-14T07:05:32.000Z</time>
      </trkpt>
      <trkpt lat="47.06091" lon="5.17868">
        <ele>249.12</ele>
        <time>2015-07-14T07:05:34.000Z</time>
      </trkpt>
      <trkpt lat="47.06096" lon="5.17855">
        <ele>248.64</ele>
        <time>2015-07-14T07:05:36.000Z</time>
      </trkpt>
      <trkpt lat="47.06101" lon="5.17842">
        <ele>248.64</ele>
        <time>2015-07-14T07:05:38.000Z</time>
      </trkpt>
      <trkpt lat="47.06106" lon="5.1783">
        <ele>249.12</ele>
        <time>2015-07-14T07:05:40.000Z</time>
      </trkpt>
      <trkpt lat="47.06111" lon="5.17818">
        <ele>248.64</ele>
        <time>2015-07-14T07:05:42.000Z</time>
      </trkpt>
      <trkpt lat="47.06116" lon="5.17805">
        <ele>248.64</ele>
        <time>2015-07-14T07:05:44.000Z</time>
      </trkpt>
      <trkpt lat="47.0612" lon="5.17792">
        <ele>249.12</ele>
        <time>2015-07-14T07:05:46.000Z</time>
      </trkpt>
      <trkpt lat="47.06125" lon="5.17779">
        <ele>248.64</ele>
        <time>2015-07-14T07:05:48.000Z</time>
      </trkpt>
      <trkpt lat="47.06129" lon="5.17766">
        <ele>248.64</ele>
        <time>2015-07-14T07:05:50.000Z</time>
      </trkpt>
      <trkpt lat="47.06133" lon="5.17753">
        <ele>248.64</ele>
        <time>2015-07-14T07:05:52.000Z</time>
      </trkpt>
      <trkpt lat="47.06137" lon="5.1774">
        <ele>248.16</ele>
        <time>2015-07-14T07:05:54.000Z</time>
      </trkpt>
      <trkpt lat="47.06142" lon="5.17726">
        <ele>248.64</ele>
        <time>2015-07-14T07:05:56.000Z</time>
      </trkpt>
      <trkpt lat="47.06147" lon="5.17712">
        <ele>250.56</ele>
        <time>2015-07-14T07:05:58.000Z</time>
      </trkpt>
      <trkpt lat="47.0615" lon="5.17698">
        <ele>247.68</ele>
        <time>2015-07-14T07:06:00.000Z</time>
      </trkpt>
      <trkpt lat="47.06154" lon="5.17685">
        <ele>247.68</ele>
        <time>2015-07-14T07:06:02.000Z</time>
      </trkpt>
      <trkpt lat="47.06158" lon="5.17672">
        <ele>247.68</ele>
        <time>2015-07-14T07:06:04.000Z</time>
      </trkpt>
      <trkpt lat="47.06162" lon="5.17659">
        <ele>247.68</ele>
        <time>2015-07-14T07:06:06.000Z</time>
      </trkpt>
      <trkpt lat="47.06167" lon="5.17642">
        <ele>247.68</ele>
        <time>2015-07-14T07:06:09.000Z</time>
      </trkpt>
      <trkpt lat="47.06172" lon="5.1763">
        <ele>247.2</ele>
        <time>2015-07-14T07:06:32.000Z</time>
      </trkpt>
      <trkpt lat="47.06177" lon="5.17616">
        <ele>247.2</ele>
        <time>2015-07-14T07:06:37.000Z</time>
      </trkpt>
      <trkpt lat="47.06181" lon="5.17603">
        <ele>247.68</ele>
        <time>2015-07-14T07:06:40.000Z</time>
      </trkpt>
      <trkpt lat="47.06186" lon="5.17588">
        <ele>247.2</ele>
        <time>2015-07-14T07:06:43.000Z</time>
      </trkpt>
      <trkpt lat="47.06191" lon="5.17572">
        <ele>247.68</ele>
        <time>2015-07-14T07:06:46.000Z</time>
      </trkpt>
      <trkpt lat="47.06196" lon="5.17556">
        <ele>247.68</ele>
        <time>2015-07-14T07:06:49.000Z</time>
      </trkpt>
      <trkpt lat="47.06202" lon="5.1754">
        <ele>248.64</ele>
        <time>2015-07-14T07:06:52.000Z</time>
      </trkpt>
      <trkpt lat="47.0621" lon="5.17526">
        <ele>249.12</ele>
        <time>2015-07-14T07:06:55.000Z</time>
      </trkpt>
      <trkpt lat="47.06218" lon="5.17512">
        <ele>248.64</ele>
        <time>2015-07-14T07:06:58.000Z</time>
      </trkpt>
      <trkpt lat="47.06227" lon="5.17498">
        <ele>249.12</ele>
        <time>2015-07-14T07:07:01.000Z</time>
      </trkpt>
      <trkpt lat="47.06235" lon="5.17485">
        <ele>249.12</ele>
        <time>2015-07-14T07:07:04.000Z</time>
      </trkpt>
      <trkpt lat="47.06244" lon="5.17472">
        <ele>249.6</ele>
        <time>2015-07-14T07:07:07.000Z</time>
      </trkpt>
      <trkpt lat="47.06253" lon="5.17459">
        <ele>249.6</ele>
        <time>2015-07-14T07:07:10.000Z</time>
      </trkpt>
      <trkpt lat="47.0626" lon="5.1745">
        <ele>249.6</ele>
        <time>2015-07-14T07:07:12.000Z</time>
      </trkpt>
      <trkpt lat="47.06267" lon="5.17442">
        <ele>249.12</ele>
        <time>2015-07-14T07:07:14.000Z</time>
      </trkpt>
      <trkpt lat="47.06275" lon="5.17433">
        <ele>249.12</ele>
        <time>2015-07-14T07:07:16.000Z</time>
      </trkpt>
      <trkpt lat="47.06282" lon="5.17423">
        <ele>249.12</ele>
        <time>2015-07-14T07:07:18.000Z</time>
      </trkpt>
      <trkpt lat="47.06291" lon="5.17414">
        <ele>249.12</ele>
        <time>2015-07-14T07:07:20.000Z</time>
      </trkpt>
      <trkpt lat="47.06299" lon="5.17405">
        <ele>248.16</ele>
        <time>2015-07-14T07:07:22.000Z</time>
      </trkpt>
      <trkpt lat="47.06307" lon="5.17395">
        <ele>248.16</ele>
        <time>2015-07-14T07:07:24.000Z</time>
      </trkpt>
      <trkpt lat="47.06315" lon="5.17385">
        <ele>247.68</ele>
        <time>2015-07-14T07:07:26.000Z</time>
      </trkpt>
      <trkpt lat="47.06322" lon="5.17376">
        <ele>247.2</ele>
        <time>2015-07-14T07:07:28.000Z</time>
      </trkpt>
      <trkpt lat="47.0633" lon="5.17366">
        <ele>247.68</ele>
        <time>2015-07-14T07:07:30.000Z</time>
      </trkpt>
      <trkpt lat="47.06337" lon="5.17356">
        <ele>247.2</ele>
        <time>2015-07-14T07:07:32.000Z</time>
      </trkpt>
      <trkpt lat="47.06343" lon="5.17345">
        <ele>246.72</ele>
        <time>2015-07-14T07:07:34.000Z</time>
      </trkpt>
      <trkpt lat="47.0635" lon="5.17335">
        <ele>247.68</ele>
        <time>2015-07-14T07:07:36.000Z</time>
      </trkpt>
      <trkpt lat="47.06356" lon="5.17319">
        <ele>248.16</ele>
        <time>2015-07-14T07:07:39.000Z</time>
      </trkpt>
      <trkpt lat="47.06354" lon="5.17303">
        <ele>248.16</ele>
        <time>2015-07-14T07:07:42.000Z</time>
      </trkpt>
      <trkpt lat="47.06347" lon="5.17287">
        <ele>246.72</ele>
        <time>2015-07-14T07:07:45.000Z</time>
      </trkpt>
      <trkpt lat="47.06342" lon="5.17275">
        <ele>247.2</ele>
        <time>2015-07-14T07:07:47.000Z</time>
      </trkpt>
      <trkpt lat="47.06337" lon="5.17265">
        <ele>247.2</ele>
        <time>2015-07-14T07:07:49.000Z</time>
      </trkpt>
      <trkpt lat="47.0633" lon="5.17248">
        <ele>247.2</ele>
        <time>2015-07-14T07:07:52.000Z</time>
      </trkpt>
      <trkpt lat="47.06324" lon="5.17233">
        <ele>247.2</ele>
        <time>2015-07-14T07:07:55.000Z</time>
      </trkpt>
      <trkpt lat="47.06316" lon="5.17219">
        <ele>247.68</ele>
        <time>2015-07-14T07:07:58.000Z</time>
      </trkpt>
      <trkpt lat="47.06306" lon="5.17209">
        <ele>247.68</ele>
        <time>2015-07-14T07:08:01.000Z</time>
      </trkpt>
      <trkpt lat="47.06294" lon="5.172">
        <ele>247.2</ele>
        <time>2015-07-14T07:08:04.000Z</time>
      </trkpt>
      <trkpt lat="47.06284" lon="5.17189">
        <ele>245.75</ele>
        <time>2015-07-14T07:08:07.000Z</time>
      </trkpt>
      <trkpt lat="47.06274" lon="5.17178">
        <ele>247.2</ele>
        <time>2015-07-14T07:08:10.000Z</time>
      </trkpt>
      <trkpt lat="47.06264" lon="5.17168">
        <ele>247.2</ele>
        <time>2015-07-14T07:08:13.000Z</time>
      </trkpt>
      <trkpt lat="47.06254" lon="5.17156">
        <ele>247.2</ele>
        <time>2015-07-14T07:08:16.000Z</time>
      </trkpt>
      <trkpt lat="47.06245" lon="5.17144">
        <ele>247.68</ele>
        <time>2015-07-14T07:08:19.000Z</time>
      </trkpt>
      <trkpt lat="47.06235" lon="5.17131">
        <ele>247.68</ele>
        <time>2015-07-14T07:08:22.000Z</time>
      </trkpt>
      <trkpt lat="47.06229" lon="5.17122">
        <ele>247.68</ele>
        <time>2015-07-14T07:08:24.000Z</time>
      </trkpt>
      <trkpt lat="47.06221" lon="5.17113">
        <ele>247.68</ele>
        <time>2015-07-14T07:08:26.000Z</time>
      </trkpt>
      <trkpt lat="47.06214" lon="5.17103">
        <ele>248.16</ele>
        <time>2015-07-14T07:08:28.000Z</time>
      </trkpt>
      <trkpt lat="47.06207" lon="5.17094">
        <ele>247.68</ele>
        <time>2015-07-14T07:08:30.000Z</time>
      </trkpt>
      <trkpt lat="47.06199" lon="5.17084">
        <ele>247.68</ele>
        <time>2015-07-14T07:08:32.000Z</time>
      </trkpt>
      <trkpt lat="47.06192" lon="5.17073">
        <ele>247.68</ele>
        <time>2015-07-14T07:08:34.000Z</time>
      </trkpt>
      <trkpt lat="47.06185" lon="5.17063">
        <ele>247.68</ele>
        <time>2015-07-14T07:08:36.000Z</time>
      </trkpt>
      <trkpt lat="47.06177" lon="5.17053">
        <ele>247.68</ele>
        <time>2015-07-14T07:08:38.000Z</time>
      </trkpt>
      <trkpt lat="47.0617" lon="5.17043">
        <ele>247.68</ele>
        <time>2015-07-14T07:08:40.000Z</time>
      </trkpt>
      <trkpt lat="47.06163" lon="5.17032">
        <ele>247.68</ele>
        <time>2015-07-14T07:08:42.000Z</time>
      </trkpt>
      <trkpt lat="47.06157" lon="5.17022">
        <ele>247.2</ele>
        <time>2015-07-14T07:08:44.000Z</time>
      </trkpt>
      <trkpt lat="47.0615" lon="5.17011">
        <ele>247.2</ele>
        <time>2015-07-14T07:08:46.000Z</time>
      </trkpt>
      <trkpt lat="47.06145" lon="5.16999">
        <ele>247.2</ele>
        <time>2015-07-14T07:08:48.000Z</time>
      </trkpt>
      <trkpt lat="47.06141" lon="5.16985">
        <ele>247.2</ele>
        <time>2015-07-14T07:08:50.000Z</time>
      </trkpt>
      <trkpt lat="47.06139" lon="5.1697">
        <ele>247.2</ele>
        <time>2015-07-14T07:08:52.000Z</time>
      </trkpt>
      <trkpt lat="47.06137" lon="5.16956">
        <ele>247.2</ele>
        <time>2015-07-14T07:08:54.000Z</time>
      </trkpt>
      <trkpt lat="47.06136" lon="5.1694">
        <ele>247.2</ele>
        <time>2015-07-14T07:08:56.000Z</time>
      </trkpt>
      <trkpt lat="47.06135" lon="5.16925">
        <ele>247.2</ele>
        <time>2015-07-14T07:08:58.000Z</time>
      </trkpt>
      <trkpt lat="47.06134" lon="5.16911">
        <ele>247.2</ele>
        <time>2015-07-14T07:09:00.000Z</time>
      </trkpt>
      <trkpt lat="47.06133" lon="5.16896">
        <ele>247.2</ele>
        <time>2015-07-14T07:09:02.000Z</time>
      </trkpt>
      <trkpt lat="47.06132" lon="5.16881">
        <ele>247.2</ele>
        <time>2015-07-14T07:09:04.000Z</time>
      </trkpt>
      <trkpt lat="47.06131" lon="5.16866">
        <ele>247.2</ele>
        <time>2015-07-14T07:09:06.000Z</time>
      </trkpt>
      <trkpt lat="47.0613" lon="5.16851">
        <ele>247.2</ele>
        <time>2015-07-14T07:09:08.000Z</time>
      </trkpt>
      <trkpt lat="47.06129" lon="5.16837">
        <ele>247.68</ele>
        <time>2015-07-14T07:09:10.000Z</time>
      </trkpt>
      <trkpt lat="47.06127" lon="5.16823">
        <ele>247.2</ele>
        <time>2015-07-14T07:09:12.000Z</time>
      </trkpt>
      <trkpt lat="47.06126" lon="5.16808">
        <ele>247.2</ele>
        <time>2015-07-14T07:09:14.000Z</time>
      </trkpt>
      <trkpt lat="47.06125" lon="5.16793">
        <ele>247.68</ele>
        <time>2015-07-14T07:09:16.000Z</time>
      </trkpt>
      <trkpt lat="47.06124" lon="5.16777">
        <ele>247.2</ele>
        <time>2015-07-14T07:09:18.000Z</time>
      </trkpt>
      <trkpt lat="47.06122" lon="5.16762">
        <ele>247.68</ele>
        <time>2015-07-14T07:09:20.000Z</time>
      </trkpt>
      <trkpt lat="47.06121" lon="5.16747">
        <ele>247.2</ele>
        <time>2015-07-14T07:09:22.000Z</time>
      </trkpt>
      <trkpt lat="47.0612" lon="5.16731">
        <ele>247.2</ele>
        <time>2015-07-14T07:09:24.000Z</time>
      </trkpt>
      <trkpt lat="47.06118" lon="5.16716">
        <ele>247.2</ele>
        <time>2015-07-14T07:09:26.000Z</time>
      </trkpt>
      <trkpt lat="47.06116" lon="5.16701">
        <ele>247.2</ele>
        <time>2015-07-14T07:09:28.000Z</time>
      </trkpt>
      <trkpt lat="47.06115" lon="5.16685">
        <ele>247.2</ele>
        <time>2015-07-14T07:09:30.000Z</time>
      </trkpt>
      <trkpt lat="47.06114" lon="5.1667">
        <ele>247.2</ele>
        <time>2015-07-14T07:09:32.000Z</time>
      </trkpt>
      <trkpt lat="47.06113" lon="5.16654">
        <ele>247.2</ele>
        <time>2015-07-14T07:09:34.000Z</time>
      </trkpt>
      <trkpt lat="47.06111" lon="5.16639">
        <ele>247.2</ele>
        <time>2015-07-14T07:09:36.000Z</time>
      </trkpt>
      <trkpt lat="47.0611" lon="5.16624">
        <ele>247.2</ele>
        <time>2015-07-14T07:09:38.000Z</time>
      </trkpt>
      <trkpt lat="47.06108" lon="5.16608">
        <ele>247.2</ele>
        <time>2015-07-14T07:09:40.000Z</time>
      </trkpt>
      <trkpt lat="47.06107" lon="5.16592">
        <ele>246.72</ele>
        <time>2015-07-14T07:09:42.000Z</time>
      </trkpt>
      <trkpt lat="47.06105" lon="5.16577">
        <ele>247.68</ele>
        <time>2015-07-14T07:09:44.000Z</time>
      </trkpt>
      <trkpt lat="47.06104" lon="5.16561">
        <ele>247.2</ele>
        <time>2015-07-14T07:09:46.000Z</time>
      </trkpt>
      <trkpt lat="47.06102" lon="5.16546">
        <ele>247.2</ele>
        <time>2015-07-14T07:09:48.000Z</time>
      </trkpt>
      <trkpt lat="47.06101" lon="5.16531">
        <ele>247.2</ele>
        <time>2015-07-14T07:09:50.000Z</time>
      </trkpt>
      <trkpt lat="47.06099" lon="5.16515">
        <ele>247.2</ele>
        <time>2015-07-14T07:09:52.000Z</time>
      </trkpt>
      <trkpt lat="47.06098" lon="5.16499">
        <ele>247.2</ele>
        <time>2015-07-14T07:09:54.000Z</time>
      </trkpt>
      <trkpt lat="47.06096" lon="5.16483">
        <ele>247.2</ele>
        <time>2015-07-14T07:09:56.000Z</time>
      </trkpt>
      <trkpt lat="47.06095" lon="5.16468">
        <ele>247.2</ele>
        <time>2015-07-14T07:09:58.000Z</time>
      </trkpt>
      <trkpt lat="47.06094" lon="5.16451">
        <ele>247.2</ele>
        <time>2015-07-14T07:10:00.000Z</time>
      </trkpt>
      <trkpt lat="47.06093" lon="5.16435">
        <ele>247.2</ele>
        <time>2015-07-14T07:10:02.000Z</time>
      </trkpt>
      <trkpt lat="47.06092" lon="5.16419">
        <ele>247.2</ele>
        <time>2015-07-14T07:10:04.000Z</time>
      </trkpt>
      <trkpt lat="47.06091" lon="5.16402">
        <ele>247.2</ele>
        <time>2015-07-14T07:10:06.000Z</time>
      </trkpt>
      <trkpt lat="47.0609" lon="5.16386">
        <ele>247.68</ele>
        <time>2015-07-14T07:10:08.000Z</time>
      </trkpt>
      <trkpt lat="47.06089" lon="5.1637">
        <ele>247.2</ele>
        <time>2015-07-14T07:10:10.000Z</time>
      </trkpt>
      <trkpt lat="47.06089" lon="5.16353">
        <ele>247.2</ele>
        <time>2015-07-14T07:10:12.000Z</time>
      </trkpt>
      <trkpt lat="47.06089" lon="5.16336">
        <ele>247.2</ele>
        <time>2015-07-14T07:10:14.000Z</time>
      </trkpt>
      <trkpt lat="47.06088" lon="5.16319">
        <ele>247.2</ele>
        <time>2015-07-14T07:10:16.000Z</time>
      </trkpt>
      <trkpt lat="47.06087" lon="5.16303">
        <ele>247.2</ele>
        <time>2015-07-14T07:10:18.000Z</time>
      </trkpt>
      <trkpt lat="47.06086" lon="5.16287">
        <ele>247.2</ele>
        <time>2015-07-14T07:10:20.000Z</time>
      </trkpt>
      <trkpt lat="47.06084" lon="5.16271">
        <ele>247.2</ele>
        <time>2015-07-14T07:10:22.000Z</time>
      </trkpt>
      <trkpt lat="47.06082" lon="5.16256">
        <ele>247.2</ele>
        <time>2015-07-14T07:10:24.000Z</time>
      </trkpt>
      <trkpt lat="47.06078" lon="5.1624">
        <ele>247.2</ele>
        <time>2015-07-14T07:10:26.000Z</time>
      </trkpt>
      <trkpt lat="47.06074" lon="5.16224">
        <ele>247.2</ele>
        <time>2015-07-14T07:10:28.000Z</time>
      </trkpt>
      <trkpt lat="47.0607" lon="5.16209">
        <ele>247.2</ele>
        <time>2015-07-14T07:10:30.000Z</time>
      </trkpt>
      <trkpt lat="47.06066" lon="5.16193">
        <ele>247.2</ele>
        <time>2015-07-14T07:10:32.000Z</time>
      </trkpt>
      <trkpt lat="47.06062" lon="5.16178">
        <ele>246.72</ele>
        <time>2015-07-14T07:10:34.000Z</time>
      </trkpt>
      <trkpt lat="47.06059" lon="5.16162">
        <ele>247.2</ele>
        <time>2015-07-14T07:10:36.000Z</time>
      </trkpt>
      <trkpt lat="47.06056" lon="5.16146">
        <ele>247.2</ele>
        <time>2015-07-14T07:10:38.000Z</time>
      </trkpt>
      <trkpt lat="47.06053" lon="5.1613">
        <ele>247.2</ele>
        <time>2015-07-14T07:10:40.000Z</time>
      </trkpt>
      <trkpt lat="47.0605" lon="5.16115">
        <ele>247.2</ele>
        <time>2015-07-14T07:10:42.000Z</time>
      </trkpt>
      <trkpt lat="47.06048" lon="5.16099">
        <ele>247.2</ele>
        <time>2015-07-14T07:10:44.000Z</time>
      </trkpt>
      <trkpt lat="47.06046" lon="5.16083">
        <ele>247.2</ele>
        <time>2015-07-14T07:10:46.000Z</time>
      </trkpt>
      <trkpt lat="47.06044" lon="5.16066">
        <ele>247.2</ele>
        <time>2015-07-14T07:10:48.000Z</time>
      </trkpt>
      <trkpt lat="47.06043" lon="5.1605">
        <ele>247.2</ele>
        <time>2015-07-14T07:10:50.000Z</time>
      </trkpt>
      <trkpt lat="47.06041" lon="5.16034">
        <ele>247.2</ele>
        <time>2015-07-14T07:10:52.000Z</time>
      </trkpt>
      <trkpt lat="47.0604" lon="5.16018">
        <ele>247.2</ele>
        <time>2015-07-14T07:10:54.000Z</time>
      </trkpt>
      <trkpt lat="47.06039" lon="5.16001">
        <ele>246.72</ele>
        <time>2015-07-14T07:10:56.000Z</time>
      </trkpt>
      <trkpt lat="47.06039" lon="5.15985">
        <ele>246.72</ele>
        <time>2015-07-14T07:10:58.000Z</time>
      </trkpt>
      <trkpt lat="47.06038" lon="5.15969">
        <ele>247.2</ele>
        <time>2015-07-14T07:11:00.000Z</time>
      </trkpt>
      <trkpt lat="47.06038" lon="5.15952">
        <ele>247.2</ele>
        <time>2015-07-14T07:11:02.000Z</time>
      </trkpt>
      <trkpt lat="47.06037" lon="5.15936">
        <ele>247.2</ele>
        <time>2015-07-14T07:11:04.000Z</time>
      </trkpt>
      <trkpt lat="47.06038" lon="5.1592">
        <ele>247.2</ele>
        <time>2015-07-14T07:11:06.000Z</time>
      </trkpt>
      <trkpt lat="47.06038" lon="5.15905">
        <ele>246.72</ele>
        <time>2015-07-14T07:11:08.000Z</time>
      </trkpt>
      <trkpt lat="47.06039" lon="5.15889">
        <ele>246.72</ele>
        <time>2015-07-14T07:11:10.000Z</time>
      </trkpt>
      <trkpt lat="47.06039" lon="5.15874">
        <ele>246.72</ele>
        <time>2015-07-14T07:11:12.000Z</time>
      </trkpt>
      <trkpt lat="47.0604" lon="5.1586">
        <ele>246.23</ele>
        <time>2015-07-14T07:11:14.000Z</time>
      </trkpt>
      <trkpt lat="47.06041" lon="5.15845">
        <ele>246.72</ele>
        <time>2015-07-14T07:11:16.000Z</time>
      </trkpt>
      <trkpt lat="47.06042" lon="5.15832">
        <ele>246.23</ele>
        <time>2015-07-14T07:11:18.000Z</time>
      </trkpt>
      <trkpt lat="47.06046" lon="5.15815">
        <ele>246.72</ele>
        <time>2015-07-14T07:11:21.000Z</time>
      </trkpt>
      <trkpt lat="47.06051" lon="5.15801">
        <ele>247.2</ele>
        <time>2015-07-14T07:11:24.000Z</time>
      </trkpt>
      <trkpt lat="47.06052" lon="5.15791">
        <ele>247.2</ele>
        <time>2015-07-14T07:12:26.000Z</time>
      </trkpt>
      <trkpt lat="47.06058" lon="5.15779">
        <ele>246.72</ele>
        <time>2015-07-14T07:12:31.000Z</time>
      </trkpt>
      <trkpt lat="47.06063" lon="5.15767">
        <ele>247.2</ele>
        <time>2015-07-14T07:12:34.000Z</time>
      </trkpt>
      <trkpt lat="47.06068" lon="5.15753">
        <ele>247.2</ele>
        <time>2015-07-14T07:12:37.000Z</time>
      </trkpt>
      <trkpt lat="47.06072" lon="5.15738">
        <ele>247.68</ele>
        <time>2015-07-14T07:12:40.000Z</time>
      </trkpt>
      <trkpt lat="47.06077" lon="5.15721">
        <ele>247.2</ele>
        <time>2015-07-14T07:12:43.000Z</time>
      </trkpt>
      <trkpt lat="47.06083" lon="5.15703">
        <ele>247.2</ele>
        <time>2015-07-14T07:12:46.000Z</time>
      </trkpt>
      <trkpt lat="47.06086" lon="5.1569">
        <ele>247.2</ele>
        <time>2015-07-14T07:12:48.000Z</time>
      </trkpt>
      <trkpt lat="47.0609" lon="5.15678">
        <ele>247.2</ele>
        <time>2015-07-14T07:12:50.000Z</time>
      </trkpt>
      <trkpt lat="47.06093" lon="5.15665">
        <ele>247.2</ele>
        <time>2015-07-14T07:12:52.000Z</time>
      </trkpt>
      <trkpt lat="47.06097" lon="5.15652">
        <ele>247.2</ele>
        <time>2015-07-14T07:12:54.000Z</time>
      </trkpt>
      <trkpt lat="47.06101" lon="5.15638">
        <ele>247.2</ele>
        <time>2015-07-14T07:12:56.000Z</time>
      </trkpt>
      <trkpt lat="47.06105" lon="5.15625">
        <ele>246.72</ele>
        <time>2015-07-14T07:12:58.000Z</time>
      </trkpt>
      <trkpt lat="47.06109" lon="5.15612">
        <ele>247.2</ele>
        <time>2015-07-14T07:13:00.000Z</time>
      </trkpt>
      <trkpt lat="47.06113" lon="5.15598">
        <ele>247.2</ele>
        <time>2015-07-14T07:13:02.000Z</time>
      </trkpt>
      <trkpt lat="47.06116" lon="5.15585">
        <ele>247.2</ele>
        <time>2015-07-14T07:13:04.000Z</time>
      </trkpt>
      <trkpt lat="47.06121" lon="5.15571">
        <ele>247.2</ele>
        <time>2015-07-14T07:13:06.000Z</time>
      </trkpt>
      <trkpt lat="47.06125" lon="5.15557">
        <ele>247.2</ele>
        <time>2015-07-14T07:13:08.000Z</time>
      </trkpt>
      <trkpt lat="47.06129" lon="5.15543">
        <ele>247.2</ele>
        <time>2015-07-14T07:13:10.000Z</time>
      </trkpt>
      <trkpt lat="47.06134" lon="5.15529">
        <ele>245.75</ele>
        <time>2015-07-14T07:13:12.000Z</time>
      </trkpt>
      <trkpt lat="47.06138" lon="5.15515">
        <ele>246.23</ele>
        <time>2015-07-14T07:13:14.000Z</time>
      </trkpt>
      <trkpt lat="47.06142" lon="5.15502">
        <ele>245.75</ele>
        <time>2015-07-14T07:13:16.000Z</time>
      </trkpt>
      <trkpt lat="47.06146" lon="5.15488">
        <ele>246.72</ele>
        <time>2015-07-14T07:13:18.000Z</time>
      </trkpt>
      <trkpt lat="47.0615" lon="5.15474">
        <ele>246.23</ele>
        <time>2015-07-14T07:13:20.000Z</time>
      </trkpt>
      <trkpt lat="47.06155" lon="5.15461">
        <ele>246.23</ele>
        <time>2015-07-14T07:13:22.000Z</time>
      </trkpt>
      <trkpt lat="47.06159" lon="5.15448">
        <ele>246.72</ele>
        <time>2015-07-14T07:13:24.000Z</time>
      </trkpt>
      <trkpt lat="47.06163" lon="5.15434">
        <ele>246.72</ele>
        <time>2015-07-14T07:13:26.000Z</time>
      </trkpt>
      <trkpt lat="47.06167" lon="5.15421">
        <ele>246.72</ele>
        <time>2015-07-14T07:13:28.000Z</time>
      </trkpt>
      <trkpt lat="47.06171" lon="5.15407">
        <ele>246.72</ele>
        <time>2015-07-14T07:13:30.000Z</time>
      </trkpt>
      <trkpt lat="47.06175" lon="5.15394">
        <ele>246.23</ele>
        <time>2015-07-14T07:13:32.000Z</time>
      </trkpt>
      <trkpt lat="47.06179" lon="5.15381">
        <ele>246.72</ele>
        <time>2015-07-14T07:13:34.000Z</time>
      </trkpt>
      <trkpt lat="47.06183" lon="5.15368">
        <ele>246.72</ele>
        <time>2015-07-14T07:13:36.000Z</time>
      </trkpt>
      <trkpt lat="47.06187" lon="5.15354">
        <ele>246.72</ele>
        <time>2015-07-14T07:13:38.000Z</time>
      </trkpt>
      <trkpt lat="47.06191" lon="5.1534">
        <ele>246.72</ele>
        <time>2015-07-14T07:13:40.000Z</time>
      </trkpt>
      <trkpt lat="47.06195" lon="5.15326">
        <ele>246.23</ele>
        <time>2015-07-14T07:13:42.000Z</time>
      </trkpt>
      <trkpt lat="47.062" lon="5.15312">
        <ele>246.72</ele>
        <time>2015-07-14T07:13:44.000Z</time>
      </trkpt>
      <trkpt lat="47.06205" lon="5.15299">
        <ele>246.72</ele>
        <time>2015-07-14T07:13:46.000Z</time>
      </trkpt>
      <trkpt lat="47.0621" lon="5.15287">
        <ele>246.72</ele>
        <time>2015-07-14T07:13:48.000Z</time>
      </trkpt>
      <trkpt lat="47.06215" lon="5.15274">
        <ele>246.23</ele>
        <time>2015-07-14T07:13:50.000Z</time>
      </trkpt>
      <trkpt lat="47.06221" lon="5.15262">
        <ele>246.72</ele>
        <time>2015-07-14T07:13:52.000Z</time>
      </trkpt>
      <trkpt lat="47.06226" lon="5.15249">
        <ele>247.2</ele>
        <time>2015-07-14T07:13:54.000Z</time>
      </trkpt>
      <trkpt lat="47.06232" lon="5.15236">
        <ele>246.72</ele>
        <time>2015-07-14T07:13:56.000Z</time>
      </trkpt>
      <trkpt lat="47.06239" lon="5.15225">
        <ele>246.72</ele>
        <time>2015-07-14T07:13:58.000Z</time>
      </trkpt>
      <trkpt lat="47.06247" lon="5.15216">
        <ele>246.72</ele>
        <time>2015-07-14T07:14:00.000Z</time>
      </trkpt>
      <trkpt lat="47.06256" lon="5.15207">
        <ele>246.72</ele>
        <time>2015-07-14T07:14:02.000Z</time>
      </trkpt>
      <trkpt lat="47.06264" lon="5.15198">
        <ele>247.2</ele>
        <time>2015-07-14T07:14:04.000Z</time>
      </trkpt>
      <trkpt lat="47.06271" lon="5.15187">
        <ele>246.72</ele>
        <time>2015-07-14T07:14:06.000Z</time>
      </trkpt>
      <trkpt lat="47.06278" lon="5.15175">
        <ele>247.2</ele>
        <time>2015-07-14T07:14:08.000Z</time>
      </trkpt>
      <trkpt lat="47.06284" lon="5.15162">
        <ele>246.72</ele>
        <time>2015-07-14T07:14:10.000Z</time>
      </trkpt>
      <trkpt lat="47.06289" lon="5.1515">
        <ele>246.72</ele>
        <time>2015-07-14T07:14:12.000Z</time>
      </trkpt>
      <trkpt lat="47.06295" lon="5.15138">
        <ele>246.72</ele>
        <time>2015-07-14T07:14:14.000Z</time>
      </trkpt>
      <trkpt lat="47.063" lon="5.15124">
        <ele>246.72</ele>
        <time>2015-07-14T07:14:16.000Z</time>
      </trkpt>
      <trkpt lat="47.06304" lon="5.1511">
        <ele>246.72</ele>
        <time>2015-07-14T07:14:18.000Z</time>
      </trkpt>
      <trkpt lat="47.06308" lon="5.15096">
        <ele>246.72</ele>
        <time>2015-07-14T07:14:20.000Z</time>
      </trkpt>
      <trkpt lat="47.06311" lon="5.15081">
        <ele>246.72</ele>
        <time>2015-07-14T07:14:22.000Z</time>
      </trkpt>
      <trkpt lat="47.06313" lon="5.15066">
        <ele>247.2</ele>
        <time>2015-07-14T07:14:24.000Z</time>
      </trkpt>
      <trkpt lat="47.06313" lon="5.15052">
        <ele>247.2</ele>
        <time>2015-07-14T07:14:26.000Z</time>
      </trkpt>
      <trkpt lat="47.06313" lon="5.15038">
        <ele>247.2</ele>
        <time>2015-07-14T07:14:28.000Z</time>
      </trkpt>
      <trkpt lat="47.06311" lon="5.15024">
        <ele>246.72</ele>
        <time>2015-07-14T07:14:30.000Z</time>
      </trkpt>
      <trkpt lat="47.0631" lon="5.15009">
        <ele>246.72</ele>
        <time>2015-07-14T07:14:32.000Z</time>
      </trkpt>
      <trkpt lat="47.06307" lon="5.14995">
        <ele>246.72</ele>
        <time>2015-07-14T07:14:34.000Z</time>
      </trkpt>
      <trkpt lat="47.06305" lon="5.1498">
        <ele>246.72</ele>
        <time>2015-07-14T07:14:36.000Z</time>
      </trkpt>
      <trkpt lat="47.06302" lon="5.14965">
        <ele>246.72</ele>
        <time>2015-07-14T07:14:38.000Z</time>
      </trkpt>
      <trkpt lat="47.06299" lon="5.1495">
        <ele>246.72</ele>
        <time>2015-07-14T07:14:40.000Z</time>
      </trkpt>
      <trkpt lat="47.06297" lon="5.14936">
        <ele>246.72</ele>
        <time>2015-07-14T07:14:42.000Z</time>
      </trkpt>
      <trkpt lat="47.06296" lon="5.14922">
        <ele>247.2</ele>
        <time>2015-07-14T07:14:44.000Z</time>
      </trkpt>
      <trkpt lat="47.06296" lon="5.14908">
        <ele>247.2</ele>
        <time>2015-07-14T07:14:46.000Z</time>
      </trkpt>
      <trkpt lat="47.06297" lon="5.14888">
        <ele>246.72</ele>
        <time>2015-07-14T07:14:49.000Z</time>
      </trkpt>
      <trkpt lat="47.06298" lon="5.14874">
        <ele>246.72</ele>
        <time>2015-07-14T07:14:51.000Z</time>
      </trkpt>
      <trkpt lat="47.063" lon="5.1486">
        <ele>247.2</ele>
        <time>2015-07-14T07:14:53.000Z</time>
      </trkpt>
      <trkpt lat="47.06302" lon="5.14847">
        <ele>246.72</ele>
        <time>2015-07-14T07:14:55.000Z</time>
      </trkpt>
      <trkpt lat="47.06305" lon="5.14834">
        <ele>247.2</ele>
        <time>2015-07-14T07:14:57.000Z</time>
      </trkpt>
      <trkpt lat="47.06309" lon="5.14821">
        <ele>247.2</ele>
        <time>2015-07-14T07:14:59.000Z</time>
      </trkpt>
      <trkpt lat="47.06313" lon="5.14808">
        <ele>247.2</ele>
        <time>2015-07-14T07:15:01.000Z</time>
      </trkpt>
      <trkpt lat="47.06316" lon="5.14795">
        <ele>246.72</ele>
        <time>2015-07-14T07:15:03.000Z</time>
      </trkpt>
      <trkpt lat="47.06319" lon="5.1478">
        <ele>246.72</ele>
        <time>2015-07-14T07:15:05.000Z</time>
      </trkpt>
      <trkpt lat="47.06322" lon="5.14764">
        <ele>246.72</ele>
        <time>2015-07-14T07:15:07.000Z</time>
      </trkpt>
      <trkpt lat="47.06325" lon="5.14748">
        <ele>246.72</ele>
        <time>2015-07-14T07:15:09.000Z</time>
      </trkpt>
      <trkpt lat="47.06328" lon="5.14733">
        <ele>246.72</ele>
        <time>2015-07-14T07:15:11.000Z</time>
      </trkpt>
      <trkpt lat="47.06332" lon="5.14718">
        <ele>246.23</ele>
        <time>2015-07-14T07:15:13.000Z</time>
      </trkpt>
      <trkpt lat="47.06335" lon="5.14703">
        <ele>246.23</ele>
        <time>2015-07-14T07:15:15.000Z</time>
      </trkpt>
      <trkpt lat="47.06338" lon="5.14688">
        <ele>246.72</ele>
        <time>2015-07-14T07:15:17.000Z</time>
      </trkpt>
      <trkpt lat="47.0634" lon="5.14673">
        <ele>246.23</ele>
        <time>2015-07-14T07:15:19.000Z</time>
      </trkpt>
      <trkpt lat="47.0634" lon="5.14658">
        <ele>246.23</ele>
        <time>2015-07-14T07:15:21.000Z</time>
      </trkpt>
      <trkpt lat="47.06339" lon="5.14643">
        <ele>246.23</ele>
        <time>2015-07-14T07:15:23.000Z</time>
      </trkpt>
      <trkpt lat="47.06336" lon="5.14629">
        <ele>246.72</ele>
        <time>2015-07-14T07:15:25.000Z</time>
      </trkpt>
      <trkpt lat="47.06333" lon="5.14615">
        <ele>244.79</ele>
        <time>2015-07-14T07:15:27.000Z</time>
      </trkpt>
      <trkpt lat="47.06329" lon="5.14602">
        <ele>246.23</ele>
        <time>2015-07-14T07:15:29.000Z</time>
      </trkpt>
      <trkpt lat="47.06326" lon="5.14588">
        <ele>246.23</ele>
        <time>2015-07-14T07:15:31.000Z</time>
      </trkpt>
      <trkpt lat="47.06324" lon="5.14575">
        <ele>246.23</ele>
        <time>2015-07-14T07:15:33.000Z</time>
      </trkpt>
      <trkpt lat="47.06321" lon="5.14559">
        <ele>247.2</ele>
        <time>2015-07-14T07:15:36.000Z</time>
      </trkpt>
      <trkpt lat="47.06317" lon="5.14543">
        <ele>248.16</ele>
        <time>2015-07-14T07:15:40.000Z</time>
      </trkpt>
      <trkpt lat="47.06312" lon="5.14529">
        <ele>249.12</ele>
        <time>2015-07-14T07:15:44.000Z</time>
      </trkpt>
      <trkpt lat="47.06305" lon="5.14517">
        <ele>248.64</ele>
        <time>2015-07-14T07:15:47.000Z</time>
      </trkpt>
      <trkpt lat="47.06298" lon="5.14508">
        <ele>248.16</ele>
        <time>2015-07-14T07:15:49.000Z</time>
      </trkpt>
      <trkpt lat="47.06291" lon="5.14498">
        <ele>247.2</ele>
        <time>2015-07-14T07:15:51.000Z</time>
      </trkpt>
      <trkpt lat="47.06282" lon="5.14488">
        <ele>246.72</ele>
        <time>2015-07-14T07:15:53.000Z</time>
      </trkpt>
      <trkpt lat="47.06272" lon="5.14479">
        <ele>246.72</ele>
        <time>2015-07-14T07:15:55.000Z</time>
      </trkpt>
      <trkpt lat="47.06263" lon="5.14472">
        <ele>246.23</ele>
        <time>2015-07-14T07:15:57.000Z</time>
      </trkpt>
      <trkpt lat="47.06253" lon="5.14467">
        <ele>246.23</ele>
        <time>2015-07-14T07:15:59.000Z</time>
      </trkpt>
      <trkpt lat="47.06245" lon="5.14464">
        <ele>246.23</ele>
        <time>2015-07-14T07:16:01.000Z</time>
      </trkpt>
      <trkpt lat="47.06236" lon="5.1446">
        <ele>246.23</ele>
        <time>2015-07-14T07:16:03.000Z</time>
      </trkpt>
      <trkpt lat="47.06226" lon="5.14457">
        <ele>246.23</ele>
        <time>2015-07-14T07:16:05.000Z</time>
      </trkpt>
      <trkpt lat="47.06216" lon="5.14453">
        <ele>246.23</ele>
        <time>2015-07-14T07:16:07.000Z</time>
      </trkpt>
      <trkpt lat="47.06207" lon="5.14449">
        <ele>246.23</ele>
        <time>2015-07-14T07:16:09.000Z</time>
      </trkpt>
      <trkpt lat="47.06197" lon="5.14445">
        <ele>246.23</ele>
        <time>2015-07-14T07:16:11.000Z</time>
      </trkpt>
      <trkpt lat="47.06187" lon="5.14441">
        <ele>246.23</ele>
        <time>2015-07-14T07:16:13.000Z</time>
      </trkpt>
      <trkpt lat="47.06178" lon="5.14436">
        <ele>246.23</ele>
        <time>2015-07-14T07:16:15.000Z</time>
      </trkpt>
      <trkpt lat="47.06168" lon="5.1443">
        <ele>246.72</ele>
        <time>2015-07-14T07:16:17.000Z</time>
      </trkpt>
      <trkpt lat="47.06158" lon="5.14424">
        <ele>246.23</ele>
        <time>2015-07-14T07:16:19.000Z</time>
      </trkpt>
      <trkpt lat="47.06149" lon="5.14418">
        <ele>246.23</ele>
        <time>2015-07-14T07:16:21.000Z</time>
      </trkpt>
      <trkpt lat="47.06141" lon="5.14411">
        <ele>246.23</ele>
        <time>2015-07-14T07:16:23.000Z</time>
      </trkpt>
      <trkpt lat="47.06132" lon="5.14404">
        <ele>246.23</ele>
        <time>2015-07-14T07:16:25.000Z</time>
      </trkpt>
      <trkpt lat="47.06123" lon="5.14396">
        <ele>246.72</ele>
        <time>2015-07-14T07:16:27.000Z</time>
      </trkpt>
      <trkpt lat="47.06114" lon="5.14389">
        <ele>246.23</ele>
        <time>2015-07-14T07:16:29.000Z</time>
      </trkpt>
      <trkpt lat="47.06106" lon="5.14381">
        <ele>246.72</ele>
        <time>2015-07-14T07:16:31.000Z</time>
      </trkpt>
      <trkpt lat="47.06097" lon="5.14373">
        <ele>246.72</ele>
        <time>2015-07-14T07:16:33.000Z</time>
      </trkpt>
      <trkpt lat="47.06089" lon="5.14367">
        <ele>246.72</ele>
        <time>2015-07-14T07:16:35.000Z</time>
      </trkpt>
      <trkpt lat="47.0608" lon="5.14361">
        <ele>246.72</ele>
        <time>2015-07-14T07:16:37.000Z</time>
      </trkpt>
      <trkpt lat="47.06071" lon="5.14354">
        <ele>246.72</ele>
        <time>2015-07-14T07:16:39.000Z</time>
      </trkpt>
      <trkpt lat="47.06063" lon="5.14347">
        <ele>246.72</ele>
        <time>2015-07-14T07:16:41.000Z</time>
      </trkpt>
      <trkpt lat="47.06055" lon="5.14342">
        <ele>247.2</ele>
        <time>2015-07-14T07:16:43.000Z</time>
      </trkpt>
      <trkpt lat="47.06047" lon="5.14337">
        <ele>247.2</ele>
        <time>2015-07-14T07:16:45.000Z</time>
      </trkpt>
      <trkpt lat="47.06038" lon="5.14332">
        <ele>247.2</ele>
        <time>2015-07-14T07:16:47.000Z</time>
      </trkpt>
      <trkpt lat="47.0603" lon="5.14326">
        <ele>247.2</ele>
        <time>2015-07-14T07:16:49.000Z</time>
      </trkpt>
      <trkpt lat="47.06022" lon="5.14321">
        <ele>247.2</ele>
        <time>2015-07-14T07:16:51.000Z</time>
      </trkpt>
      <trkpt lat="47.06012" lon="5.14315">
        <ele>247.2</ele>
        <time>2015-07-14T07:16:53.000Z</time>
      </trkpt>
      <trkpt lat="47.06003" lon="5.14309">
        <ele>247.2</ele>
        <time>2015-07-14T07:16:55.000Z</time>
      </trkpt>
      <trkpt lat="47.05994" lon="5.14303">
        <ele>247.2</ele>
        <time>2015-07-14T07:16:57.000Z</time>
      </trkpt>
      <trkpt lat="47.05984" lon="5.14297">
        <ele>247.2</ele>
        <time>2015-07-14T07:16:59.000Z</time>
      </trkpt>
      <trkpt lat="47.05976" lon="5.1429">
        <ele>246.72</ele>
        <time>2015-07-14T07:17:01.000Z</time>
      </trkpt>
      <trkpt lat="47.05966" lon="5.14284">
        <ele>247.2</ele>
        <time>2015-07-14T07:17:03.000Z</time>
      </trkpt>
      <trkpt lat="47.05957" lon="5.14277">
        <ele>246.72</ele>
        <time>2015-07-14T07:17:05.000Z</time>
      </trkpt>
      <trkpt lat="47.05948" lon="5.1427">
        <ele>247.2</ele>
        <time>2015-07-14T07:17:07.000Z</time>
      </trkpt>
      <trkpt lat="47.0594" lon="5.14263">
        <ele>247.2</ele>
        <time>2015-07-14T07:17:09.000Z</time>
      </trkpt>
      <trkpt lat="47.05932" lon="5.14256">
        <ele>247.2</ele>
        <time>2015-07-14T07:17:11.000Z</time>
      </trkpt>
      <trkpt lat="47.05923" lon="5.1425">
        <ele>247.2</ele>
        <time>2015-07-14T07:17:13.000Z</time>
      </trkpt>
      <trkpt lat="47.05915" lon="5.14243">
        <ele>247.2</ele>
        <time>2015-07-14T07:17:15.000Z</time>
      </trkpt>
      <trkpt lat="47.05905" lon="5.14236">
        <ele>247.2</ele>
        <time>2015-07-14T07:17:17.000Z</time>
      </trkpt>
      <trkpt lat="47.05896" lon="5.1423">
        <ele>247.2</ele>
        <time>2015-07-14T07:17:19.000Z</time>
      </trkpt>
      <trkpt lat="47.05887" lon="5.14224">
        <ele>247.2</ele>
        <time>2015-07-14T07:17:21.000Z</time>
      </trkpt>
      <trkpt lat="47.05878" lon="5.14218">
        <ele>246.72</ele>
        <time>2015-07-14T07:17:23.000Z</time>
      </trkpt>
      <trkpt lat="47.0587" lon="5.14212">
        <ele>246.72</ele>
        <time>2015-07-14T07:17:25.000Z</time>
      </trkpt>
      <trkpt lat="47.05861" lon="5.14206">
        <ele>246.72</ele>
        <time>2015-07-14T07:17:27.000Z</time>
      </trkpt>
      <trkpt lat="47.05852" lon="5.142">
        <ele>246.72</ele>
        <time>2015-07-14T07:17:29.000Z</time>
      </trkpt>
      <trkpt lat="47.05843" lon="5.14194">
        <ele>246.72</ele>
        <time>2015-07-14T07:17:31.000Z</time>
      </trkpt>
      <trkpt lat="47.05834" lon="5.14188">
        <ele>246.72</ele>
        <time>2015-07-14T07:17:33.000Z</time>
      </trkpt>
      <trkpt lat="47.05825" lon="5.14181">
        <ele>247.2</ele>
        <time>2015-07-14T07:17:35.000Z</time>
      </trkpt>
      <trkpt lat="47.05816" lon="5.14176">
        <ele>246.72</ele>
        <time>2015-07-14T07:17:37.000Z</time>
      </trkpt>
      <trkpt lat="47.05806" lon="5.1417">
        <ele>246.23</ele>
        <time>2015-07-14T07:17:39.000Z</time>
      </trkpt>
      <trkpt lat="47.05797" lon="5.14165">
        <ele>245.27</ele>
        <time>2015-07-14T07:17:41.000Z</time>
      </trkpt>
      <trkpt lat="47.05787" lon="5.1416">
        <ele>245.75</ele>
        <time>2015-07-14T07:17:43.000Z</time>
      </trkpt>
      <trkpt lat="47.05778" lon="5.14156">
        <ele>245.75</ele>
        <time>2015-07-14T07:17:45.000Z</time>
      </trkpt>
      <trkpt lat="47.05768" lon="5.14152">
        <ele>245.75</ele>
        <time>2015-07-14T07:17:47.000Z</time>
      </trkpt>
      <trkpt lat="47.05758" lon="5.14148">
        <ele>245.75</ele>
        <time>2015-07-14T07:17:49.000Z</time>
      </trkpt>
      <trkpt lat="47.05748" lon="5.14144">
        <ele>245.27</ele>
        <time>2015-07-14T07:17:51.000Z</time>
      </trkpt>
      <trkpt lat="47.05738" lon="5.14141">
        <ele>245.75</ele>
        <time>2015-07-14T07:17:53.000Z</time>
      </trkpt>
      <trkpt lat="47.05728" lon="5.14137">
        <ele>246.72</ele>
        <time>2015-07-14T07:17:55.000Z</time>
      </trkpt>
      <trkpt lat="47.05718" lon="5.14133">
        <ele>246.72</ele>
        <time>2015-07-14T07:17:57.000Z</time>
      </trkpt>
      <trkpt lat="47.05709" lon="5.1413">
        <ele>246.72</ele>
        <time>2015-07-14T07:17:59.000Z</time>
      </trkpt>
      <trkpt lat="47.05699" lon="5.14126">
        <ele>246.23</ele>
        <time>2015-07-14T07:18:01.000Z</time>
      </trkpt>
      <trkpt lat="47.05689" lon="5.14122">
        <ele>246.23</ele>
        <time>2015-07-14T07:18:03.000Z</time>
      </trkpt>
      <trkpt lat="47.0568" lon="5.14118">
        <ele>246.23</ele>
        <time>2015-07-14T07:18:05.000Z</time>
      </trkpt>
      <trkpt lat="47.0567" lon="5.14114">
        <ele>246.23</ele>
        <time>2015-07-14T07:18:07.000Z</time>
      </trkpt>
      <trkpt lat="47.05661" lon="5.14111">
        <ele>246.23</ele>
        <time>2015-07-14T07:18:09.000Z</time>
      </trkpt>
      <trkpt lat="47.05651" lon="5.14107">
        <ele>246.23</ele>
        <time>2015-07-14T07:18:11.000Z</time>
      </trkpt>
      <trkpt lat="47.05642" lon="5.14103">
        <ele>246.23</ele>
        <time>2015-07-14T07:18:13.000Z</time>
      </trkpt>
      <trkpt lat="47.05632" lon="5.14098">
        <ele>246.72</ele>
        <time>2015-07-14T07:18:15.000Z</time>
      </trkpt>
      <trkpt lat="47.05622" lon="5.14094">
        <ele>246.23</ele>
        <time>2015-07-14T07:18:17.000Z</time>
      </trkpt>
      <trkpt lat="47.05613" lon="5.14089">
        <ele>246.72</ele>
        <time>2015-07-14T07:18:19.000Z</time>
      </trkpt>
      <trkpt lat="47.05602" lon="5.14085">
        <ele>246.23</ele>
        <time>2015-07-14T07:18:21.000Z</time>
      </trkpt>
      <trkpt lat="47.05593" lon="5.14081">
        <ele>246.72</ele>
        <time>2015-07-14T07:18:23.000Z</time>
      </trkpt>
      <trkpt lat="47.05584" lon="5.14078">
        <ele>246.72</ele>
        <time>2015-07-14T07:18:25.000Z</time>
      </trkpt>
      <trkpt lat="47.05574" lon="5.14075">
        <ele>246.72</ele>
        <time>2015-07-14T07:18:27.000Z</time>
      </trkpt>
      <trkpt lat="47.05564" lon="5.14071">
        <ele>246.23</ele>
        <time>2015-07-14T07:18:29.000Z</time>
      </trkpt>
      <trkpt lat="47.05555" lon="5.14066">
        <ele>246.23</ele>
        <time>2015-07-14T07:18:31.000Z</time>
      </trkpt>
      <trkpt lat="47.05546" lon="5.1406">
        <ele>245.75</ele>
        <time>2015-07-14T07:18:33.000Z</time>
      </trkpt>
      <trkpt lat="47.05537" lon="5.14053">
        <ele>245.75</ele>
        <time>2015-07-14T07:18:35.000Z</time>
      </trkpt>
      <trkpt lat="47.05531" lon="5.14044">
        <ele>245.75</ele>
        <time>2015-07-14T07:18:37.000Z</time>
      </trkpt>
      <trkpt lat="47.05522" lon="5.1403">
        <ele>245.75</ele>
        <time>2015-07-14T07:18:40.000Z</time>
      </trkpt>
      <trkpt lat="47.05515" lon="5.14019">
        <ele>245.75</ele>
        <time>2015-07-14T07:18:43.000Z</time>
      </trkpt>
      <trkpt lat="47.05508" lon="5.1401">
        <ele>244.79</ele>
        <time>2015-07-14T07:19:01.000Z</time>
      </trkpt>
      <trkpt lat="47.05502" lon="5.13999">
        <ele>245.75</ele>
        <time>2015-07-14T07:19:04.000Z</time>
      </trkpt>
      <trkpt lat="47.05493" lon="5.13988">
        <ele>245.75</ele>
        <time>2015-07-14T07:19:07.000Z</time>
      </trkpt>
      <trkpt lat="47.05484" lon="5.13976">
        <ele>245.75</ele>
        <time>2015-07-14T07:19:10.000Z</time>
      </trkpt>
      <trkpt lat="47.05476" lon="5.13965">
        <ele>245.75</ele>
        <time>2015-07-14T07:19:13.000Z</time>
      </trkpt>
      <trkpt lat="47.05468" lon="5.13954">
        <ele>245.75</ele>
        <time>2015-07-14T07:19:16.000Z</time>
      </trkpt>
      <trkpt lat="47.05461" lon="5.13943">
        <ele>245.27</ele>
        <time>2015-07-14T07:19:19.000Z</time>
      </trkpt>
      <trkpt lat="47.05454" lon="5.13933">
        <ele>245.27</ele>
        <time>2015-07-14T07:19:22.000Z</time>
      </trkpt>
      <trkpt lat="47.05447" lon="5.13923">
        <ele>245.27</ele>
        <time>2015-07-14T07:19:25.000Z</time>
      </trkpt>
      <trkpt lat="47.05439" lon="5.13913">
        <ele>243.83</ele>
        <time>2015-07-14T07:19:28.000Z</time>
      </trkpt>
      <trkpt lat="47.05431" lon="5.13903">
        <ele>246.23</ele>
        <time>2015-07-14T07:19:31.000Z</time>
      </trkpt>
      <trkpt lat="47.05423" lon="5.13892">
        <ele>245.27</ele>
        <time>2015-07-14T07:19:35.000Z</time>
      </trkpt>
      <trkpt lat="47.05417" lon="5.13882">
        <ele>244.31</ele>
        <time>2015-07-14T07:19:38.000Z</time>
      </trkpt>
      <trkpt lat="47.05409" lon="5.1387">
        <ele>244.79</ele>
        <time>2015-07-14T07:19:41.000Z</time>
      </trkpt>
      <trkpt lat="47.054" lon="5.13857">
        <ele>244.79</ele>
        <time>2015-07-14T07:19:44.000Z</time>
      </trkpt>
      <trkpt lat="47.05391" lon="5.13845">
        <ele>245.27</ele>
        <time>2015-07-14T07:19:47.000Z</time>
      </trkpt>
      <trkpt lat="47.05381" lon="5.13834">
        <ele>245.75</ele>
        <time>2015-07-14T07:19:50.000Z</time>
      </trkpt>
      <trkpt lat="47.05369" lon="5.13824">
        <ele>245.75</ele>
        <time>2015-07-14T07:19:53.000Z</time>
      </trkpt>
      <trkpt lat="47.05357" lon="5.13815">
        <ele>245.75</ele>
        <time>2015-07-14T07:19:56.000Z</time>
      </trkpt>
      <trkpt lat="47.05349" lon="5.1381">
        <ele>245.75</ele>
        <time>2015-07-14T07:19:58.000Z</time>
      </trkpt>
      <trkpt lat="47.05341" lon="5.13805">
        <ele>246.23</ele>
        <time>2015-07-14T07:20:00.000Z</time>
      </trkpt>
      <trkpt lat="47.05333" lon="5.138">
        <ele>245.75</ele>
        <time>2015-07-14T07:20:02.000Z</time>
      </trkpt>
      <trkpt lat="47.0532" lon="5.13792">
        <ele>246.23</ele>
        <time>2015-07-14T07:20:05.000Z</time>
      </trkpt>
      <trkpt lat="47.05308" lon="5.13783">
        <ele>246.23</ele>
        <time>2015-07-14T07:20:08.000Z</time>
      </trkpt>
      <trkpt lat="47.05301" lon="5.13776">
        <ele>245.75</ele>
        <time>2015-07-14T07:20:10.000Z</time>
      </trkpt>
      <trkpt lat="47.05293" lon="5.13768">
        <ele>245.75</ele>
        <time>2015-07-14T07:20:12.000Z</time>
      </trkpt>
      <trkpt lat="47.05286" lon="5.1376">
        <ele>245.75</ele>
        <time>2015-07-14T07:20:14.000Z</time>
      </trkpt>
      <trkpt lat="47.05279" lon="5.1375">
        <ele>245.75</ele>
        <time>2015-07-14T07:20:16.000Z</time>
      </trkpt>
      <trkpt lat="47.05272" lon="5.13741">
        <ele>245.75</ele>
        <time>2015-07-14T07:20:18.000Z</time>
      </trkpt>
      <trkpt lat="47.05265" lon="5.13731">
        <ele>245.75</ele>
        <time>2015-07-14T07:20:20.000Z</time>
      </trkpt>
      <trkpt lat="47.05259" lon="5.13722">
        <ele>245.75</ele>
        <time>2015-07-14T07:20:22.000Z</time>
      </trkpt>
      <trkpt lat="47.05252" lon="5.13713">
        <ele>245.75</ele>
        <time>2015-07-14T07:20:24.000Z</time>
      </trkpt>
      <trkpt lat="47.05245" lon="5.13703">
        <ele>245.75</ele>
        <time>2015-07-14T07:20:26.000Z</time>
      </trkpt>
      <trkpt lat="47.05238" lon="5.13693">
        <ele>245.75</ele>
        <time>2015-07-14T07:20:28.000Z</time>
      </trkpt>
      <trkpt lat="47.05232" lon="5.13682">
        <ele>245.75</ele>
        <time>2015-07-14T07:20:30.000Z</time>
      </trkpt>
      <trkpt lat="47.05225" lon="5.13671">
        <ele>245.75</ele>
        <time>2015-07-14T07:20:32.000Z</time>
      </trkpt>
      <trkpt lat="47.05219" lon="5.1366">
        <ele>245.75</ele>
        <time>2015-07-14T07:20:34.000Z</time>
      </trkpt>
      <trkpt lat="47.05214" lon="5.13649">
        <ele>245.27</ele>
        <time>2015-07-14T07:20:36.000Z</time>
      </trkpt>
      <trkpt lat="47.05208" lon="5.13638">
        <ele>245.75</ele>
        <time>2015-07-14T07:20:38.000Z</time>
      </trkpt>
      <trkpt lat="47.05203" lon="5.13626">
        <ele>245.75</ele>
        <time>2015-07-14T07:20:40.000Z</time>
      </trkpt>
      <trkpt lat="47.05197" lon="5.13615">
        <ele>245.75</ele>
        <time>2015-07-14T07:20:42.000Z</time>
      </trkpt>
      <trkpt lat="47.05192" lon="5.13604">
        <ele>245.75</ele>
        <time>2015-07-14T07:20:44.000Z</time>
      </trkpt>
      <trkpt lat="47.05187" lon="5.13593">
        <ele>245.75</ele>
        <time>2015-07-14T07:20:46.000Z</time>
      </trkpt>
      <trkpt lat="47.05183" lon="5.1358">
        <ele>245.75</ele>
        <time>2015-07-14T07:20:48.000Z</time>
      </trkpt>
      <trkpt lat="47.05178" lon="5.13567">
        <ele>245.75</ele>
        <time>2015-07-14T07:20:50.000Z</time>
      </trkpt>
      <trkpt lat="47.05175" lon="5.13555">
        <ele>245.75</ele>
        <time>2015-07-14T07:20:52.000Z</time>
      </trkpt>
      <trkpt lat="47.05172" lon="5.13542">
        <ele>245.75</ele>
        <time>2015-07-14T07:20:54.000Z</time>
      </trkpt>
      <trkpt lat="47.05169" lon="5.13529">
        <ele>245.27</ele>
        <time>2015-07-14T07:20:56.000Z</time>
      </trkpt>
      <trkpt lat="47.05166" lon="5.13516">
        <ele>245.75</ele>
        <time>2015-07-14T07:20:58.000Z</time>
      </trkpt>
      <trkpt lat="47.05163" lon="5.13503">
        <ele>245.75</ele>
        <time>2015-07-14T07:21:00.000Z</time>
      </trkpt>
      <trkpt lat="47.0516" lon="5.1349">
        <ele>245.75</ele>
        <time>2015-07-14T07:21:02.000Z</time>
      </trkpt>
      <trkpt lat="47.05157" lon="5.13478">
        <ele>245.75</ele>
        <time>2015-07-14T07:21:04.000Z</time>
      </trkpt>
      <trkpt lat="47.05154" lon="5.13465">
        <ele>245.75</ele>
        <time>2015-07-14T07:21:06.000Z</time>
      </trkpt>
      <trkpt lat="47.05152" lon="5.13452">
        <ele>245.27</ele>
        <time>2015-07-14T07:21:08.000Z</time>
      </trkpt>
      <trkpt lat="47.05149" lon="5.13438">
        <ele>245.75</ele>
        <time>2015-07-14T07:21:10.000Z</time>
      </trkpt>
      <trkpt lat="47.05147" lon="5.13425">
        <ele>245.75</ele>
        <time>2015-07-14T07:21:12.000Z</time>
      </trkpt>
      <trkpt lat="47.05146" lon="5.13412">
        <ele>245.75</ele>
        <time>2015-07-14T07:21:14.000Z</time>
      </trkpt>
      <trkpt lat="47.05144" lon="5.13399">
        <ele>245.75</ele>
        <time>2015-07-14T07:21:16.000Z</time>
      </trkpt>
      <trkpt lat="47.05141" lon="5.13385">
        <ele>245.75</ele>
        <time>2015-07-14T07:21:18.000Z</time>
      </trkpt>
      <trkpt lat="47.05138" lon="5.13366">
        <ele>245.75</ele>
        <time>2015-07-14T07:21:21.000Z</time>
      </trkpt>
      <trkpt lat="47.05135" lon="5.13348">
        <ele>245.75</ele>
        <time>2015-07-14T07:21:24.000Z</time>
      </trkpt>
      <trkpt lat="47.05133" lon="5.13329">
        <ele>245.75</ele>
        <time>2015-07-14T07:21:27.000Z</time>
      </trkpt>
      <trkpt lat="47.0513" lon="5.1331">
        <ele>245.75</ele>
        <time>2015-07-14T07:21:30.000Z</time>
      </trkpt>
      <trkpt lat="47.05128" lon="5.13297">
        <ele>245.75</ele>
        <time>2015-07-14T07:21:32.000Z</time>
      </trkpt>
      <trkpt lat="47.05126" lon="5.13284">
        <ele>245.75</ele>
        <time>2015-07-14T07:21:34.000Z</time>
      </trkpt>
      <trkpt lat="47.05124" lon="5.13271">
        <ele>246.23</ele>
        <time>2015-07-14T07:21:36.000Z</time>
      </trkpt>
      <trkpt lat="47.05122" lon="5.13258">
        <ele>246.23</ele>
        <time>2015-07-14T07:21:38.000Z</time>
      </trkpt>
      <trkpt lat="47.0512" lon="5.13244">
        <ele>245.75</ele>
        <time>2015-07-14T07:21:40.000Z</time>
      </trkpt>
      <trkpt lat="47.05117" lon="5.13231">
        <ele>245.75</ele>
        <time>2015-07-14T07:21:42.000Z</time>
      </trkpt>
      <trkpt lat="47.05116" lon="5.13218">
        <ele>246.23</ele>
        <time>2015-07-14T07:21:44.000Z</time>
      </trkpt>
      <trkpt lat="47.05114" lon="5.13205">
        <ele>245.75</ele>
        <time>2015-07-14T07:21:46.000Z</time>
      </trkpt>
      <trkpt lat="47.05113" lon="5.13192">
        <ele>245.75</ele>
        <time>2015-07-14T07:21:48.000Z</time>
      </trkpt>
      <trkpt lat="47.05111" lon="5.13179">
        <ele>245.75</ele>
        <time>2015-07-14T07:21:50.000Z</time>
      </trkpt>
      <trkpt lat="47.05111" lon="5.13165">
        <ele>245.75</ele>
        <time>2015-07-14T07:21:52.000Z</time>
      </trkpt>
      <trkpt lat="47.0511" lon="5.13152">
        <ele>246.23</ele>
        <time>2015-07-14T07:21:54.000Z</time>
      </trkpt>
      <trkpt lat="47.05109" lon="5.13138">
        <ele>245.75</ele>
        <time>2015-07-14T07:21:56.000Z</time>
      </trkpt>
      <trkpt lat="47.05108" lon="5.13125">
        <ele>245.75</ele>
        <time>2015-07-14T07:21:58.000Z</time>
      </trkpt>
      <trkpt lat="47.05107" lon="5.13111">
        <ele>245.75</ele>
        <time>2015-07-14T07:22:00.000Z</time>
      </trkpt>
      <trkpt lat="47.05107" lon="5.13098">
        <ele>245.75</ele>
        <time>2015-07-14T07:22:02.000Z</time>
      </trkpt>
      <trkpt lat="47.05106" lon="5.13084">
        <ele>245.75</ele>
        <time>2015-07-14T07:22:04.000Z</time>
      </trkpt>
      <trkpt lat="47.05106" lon="5.1307">
        <ele>246.23</ele>
        <time>2015-07-14T07:22:06.000Z</time>
      </trkpt>
      <trkpt lat="47.05105" lon="5.13057">
        <ele>246.23</ele>
        <time>2015-07-14T07:22:08.000Z</time>
      </trkpt>
      <trkpt lat="47.05105" lon="5.13043">
        <ele>245.75</ele>
        <time>2015-07-14T07:22:10.000Z</time>
      </trkpt>
      <trkpt lat="47.05104" lon="5.13029">
        <ele>245.75</ele>
        <time>2015-07-14T07:22:12.000Z</time>
      </trkpt>
      <trkpt lat="47.05104" lon="5.13015">
        <ele>245.75</ele>
        <time>2015-07-14T07:22:14.000Z</time>
      </trkpt>
      <trkpt lat="47.05104" lon="5.13001">
        <ele>245.75</ele>
        <time>2015-07-14T07:22:16.000Z</time>
      </trkpt>
      <trkpt lat="47.05104" lon="5.12987">
        <ele>245.75</ele>
        <time>2015-07-14T07:22:18.000Z</time>
      </trkpt>
      <trkpt lat="47.05104" lon="5.12973">
        <ele>246.23</ele>
        <time>2015-07-14T07:22:20.000Z</time>
      </trkpt>
      <trkpt lat="47.05104" lon="5.12959">
        <ele>246.23</ele>
        <time>2015-07-14T07:22:22.000Z</time>
      </trkpt>
      <trkpt lat="47.05105" lon="5.12945">
        <ele>246.23</ele>
        <time>2015-07-14T07:22:24.000Z</time>
      </trkpt>
      <trkpt lat="47.05106" lon="5.12931">
        <ele>245.75</ele>
        <time>2015-07-14T07:22:26.000Z</time>
      </trkpt>
      <trkpt lat="47.05107" lon="5.12917">
        <ele>246.23</ele>
        <time>2015-07-14T07:22:28.000Z</time>
      </trkpt>
      <trkpt lat="47.05107" lon="5.12903">
        <ele>245.75</ele>
        <time>2015-07-14T07:22:30.000Z</time>
      </trkpt>
      <trkpt lat="47.05108" lon="5.12889">
        <ele>245.75</ele>
        <time>2015-07-14T07:22:32.000Z</time>
      </trkpt>
      <trkpt lat="47.0511" lon="5.12876">
        <ele>245.75</ele>
        <time>2015-07-14T07:22:34.000Z</time>
      </trkpt>
      <trkpt lat="47.05112" lon="5.12862">
        <ele>245.75</ele>
        <time>2015-07-14T07:22:36.000Z</time>
      </trkpt>
      <trkpt lat="47.05114" lon="5.12849">
        <ele>245.75</ele>
        <time>2015-07-14T07:22:38.000Z</time>
      </trkpt>
      <trkpt lat="47.05116" lon="5.12836">
        <ele>245.75</ele>
        <time>2015-07-14T07:22:40.000Z</time>
      </trkpt>
      <trkpt lat="47.05118" lon="5.12823">
        <ele>245.75</ele>
        <time>2015-07-14T07:22:42.000Z</time>
      </trkpt>
      <trkpt lat="47.0512" lon="5.1281">
        <ele>245.75</ele>
        <time>2015-07-14T07:22:44.000Z</time>
      </trkpt>
      <trkpt lat="47.05124" lon="5.12797">
        <ele>245.75</ele>
        <time>2015-07-14T07:22:46.000Z</time>
      </trkpt>
      <trkpt lat="47.05127" lon="5.12783">
        <ele>245.75</ele>
        <time>2015-07-14T07:22:48.000Z</time>
      </trkpt>
      <trkpt lat="47.0513" lon="5.12769">
        <ele>245.75</ele>
        <time>2015-07-14T07:22:50.000Z</time>
      </trkpt>
      <trkpt lat="47.05133" lon="5.12756">
        <ele>245.27</ele>
        <time>2015-07-14T07:22:52.000Z</time>
      </trkpt>
      <trkpt lat="47.05136" lon="5.12743">
        <ele>245.75</ele>
        <time>2015-07-14T07:22:54.000Z</time>
      </trkpt>
      <trkpt lat="47.0514" lon="5.12729">
        <ele>245.27</ele>
        <time>2015-07-14T07:22:57.000Z</time>
      </trkpt>
      <trkpt lat="47.05143" lon="5.12715">
        <ele>245.27</ele>
        <time>2015-07-14T07:23:59.000Z</time>
      </trkpt>
      <trkpt lat="47.05148" lon="5.127">
        <ele>245.27</ele>
        <time>2015-07-14T07:24:04.000Z</time>
      </trkpt>
      <trkpt lat="47.05154" lon="5.12685">
        <ele>245.27</ele>
        <time>2015-07-14T07:24:08.000Z</time>
      </trkpt>
      <trkpt lat="47.05158" lon="5.12672">
        <ele>245.27</ele>
        <time>2015-07-14T07:24:11.000Z</time>
      </trkpt>
      <trkpt lat="47.05163" lon="5.12658">
        <ele>244.79</ele>
        <time>2015-07-14T07:24:14.000Z</time>
      </trkpt>
      <trkpt lat="47.05167" lon="5.12644">
        <ele>244.79</ele>
        <time>2015-07-14T07:24:17.000Z</time>
      </trkpt>
      <trkpt lat="47.05172" lon="5.12632">
        <ele>244.79</ele>
        <time>2015-07-14T07:24:20.000Z</time>
      </trkpt>
      <trkpt lat="47.05176" lon="5.12617">
        <ele>244.79</ele>
        <time>2015-07-14T07:24:24.000Z</time>
      </trkpt>
      <trkpt lat="47.05178" lon="5.12605">
        <ele>244.79</ele>
        <time>2015-07-14T07:24:31.000Z</time>
      </trkpt>
      <trkpt lat="47.0518" lon="5.12617">
        <ele>244.79</ele>
        <time>2015-07-14T07:24:38.000Z</time>
      </trkpt>
      <trkpt lat="47.05175" lon="5.1263">
        <ele>245.27</ele>
        <time>2015-07-14T07:24:45.000Z</time>
      </trkpt>
      <trkpt lat="47.0517" lon="5.12642">
        <ele>244.79</ele>
        <time>2015-07-14T07:24:50.000Z</time>
      </trkpt>
      <trkpt lat="47.05165" lon="5.12655">
        <ele>244.79</ele>
        <time>2015-07-14T07:24:54.000Z</time>
      </trkpt>
      <trkpt lat="47.05161" lon="5.1267">
        <ele>244.31</ele>
        <time>2015-07-14T07:24:58.000Z</time>
      </trkpt>
      <trkpt lat="47.05155" lon="5.12682">
        <ele>244.79</ele>
        <time>2015-07-14T07:25:24.000Z</time>
      </trkpt>
      <trkpt lat="47.0515" lon="5.12695">
        <ele>244.79</ele>
        <time>2015-07-14T07:25:28.000Z</time>
      </trkpt>
      <trkpt lat="47.05146" lon="5.12709">
        <ele>244.31</ele>
        <time>2015-07-14T07:25:31.000Z</time>
      </trkpt>
      <trkpt lat="47.05141" lon="5.12724">
        <ele>245.75</ele>
        <time>2015-07-14T07:25:34.000Z</time>
      </trkpt>
      <trkpt lat="47.05136" lon="5.1274">
        <ele>245.27</ele>
        <time>2015-07-14T07:25:37.000Z</time>
      </trkpt>
      <trkpt lat="47.05133" lon="5.12756">
        <ele>245.75</ele>
        <time>2015-07-14T07:25:40.000Z</time>
      </trkpt>
      <trkpt lat="47.05128" lon="5.12775">
        <ele>245.27</ele>
        <time>2015-07-14T07:25:43.000Z</time>
      </trkpt>
      <trkpt lat="47.05125" lon="5.12787">
        <ele>245.75</ele>
        <time>2015-07-14T07:25:45.000Z</time>
      </trkpt>
      <trkpt lat="47.05121" lon="5.12805">
        <ele>245.75</ele>
        <time>2015-07-14T07:25:48.000Z</time>
      </trkpt>
      <trkpt lat="47.05117" lon="5.12823">
        <ele>245.75</ele>
        <time>2015-07-14T07:25:51.000Z</time>
      </trkpt>
      <trkpt lat="47.05115" lon="5.1284">
        <ele>245.75</ele>
        <time>2015-07-14T07:25:54.000Z</time>
      </trkpt>
      <trkpt lat="47.05113" lon="5.12856">
        <ele>245.75</ele>
        <time>2015-07-14T07:25:57.000Z</time>
      </trkpt>
      <trkpt lat="47.05111" lon="5.12873">
        <ele>245.75</ele>
        <time>2015-07-14T07:26:00.000Z</time>
      </trkpt>
      <trkpt lat="47.05107" lon="5.12889">
        <ele>245.75</ele>
        <time>2015-07-14T07:26:03.000Z</time>
      </trkpt>
      <trkpt lat="47.05106" lon="5.12906">
        <ele>245.75</ele>
        <time>2015-07-14T07:26:06.000Z</time>
      </trkpt>
      <trkpt lat="47.05105" lon="5.12925">
        <ele>245.75</ele>
        <time>2015-07-14T07:26:09.000Z</time>
      </trkpt>
      <trkpt lat="47.05104" lon="5.12944">
        <ele>246.23</ele>
        <time>2015-07-14T07:26:12.000Z</time>
      </trkpt>
      <trkpt lat="47.05103" lon="5.12962">
        <ele>245.75</ele>
        <time>2015-07-14T07:26:15.000Z</time>
      </trkpt>
      <trkpt lat="47.05102" lon="5.12981">
        <ele>245.75</ele>
        <time>2015-07-14T07:26:18.000Z</time>
      </trkpt>
      <trkpt lat="47.05101" lon="5.13">
        <ele>246.23</ele>
        <time>2015-07-14T07:26:21.000Z</time>
      </trkpt>
      <trkpt lat="47.05102" lon="5.13019">
        <ele>245.75</ele>
        <time>2015-07-14T07:26:24.000Z</time>
      </trkpt>
      <trkpt lat="47.05103" lon="5.13038">
        <ele>245.75</ele>
        <time>2015-07-14T07:26:27.000Z</time>
      </trkpt>
      <trkpt lat="47.05103" lon="5.13058">
        <ele>245.75</ele>
        <time>2015-07-14T07:26:30.000Z</time>
      </trkpt>
      <trkpt lat="47.05104" lon="5.13072">
        <ele>245.75</ele>
        <time>2015-07-14T07:26:32.000Z</time>
      </trkpt>
      <trkpt lat="47.05104" lon="5.13085">
        <ele>245.75</ele>
        <time>2015-07-14T07:26:34.000Z</time>
      </trkpt>
      <trkpt lat="47.05105" lon="5.13098">
        <ele>245.75</ele>
        <time>2015-07-14T07:26:36.000Z</time>
      </trkpt>
      <trkpt lat="47.05105" lon="5.13111">
        <ele>245.75</ele>
        <time>2015-07-14T07:26:38.000Z</time>
      </trkpt>
      <trkpt lat="47.05106" lon="5.13125">
        <ele>245.75</ele>
        <time>2015-07-14T07:26:40.000Z</time>
      </trkpt>
      <trkpt lat="47.05106" lon="5.13138">
        <ele>245.75</ele>
        <time>2015-07-14T07:26:42.000Z</time>
      </trkpt>
      <trkpt lat="47.05108" lon="5.13158">
        <ele>245.75</ele>
        <time>2015-07-14T07:26:45.000Z</time>
      </trkpt>
      <trkpt lat="47.05109" lon="5.13171">
        <ele>245.75</ele>
        <time>2015-07-14T07:26:47.000Z</time>
      </trkpt>
      <trkpt lat="47.05111" lon="5.13184">
        <ele>245.75</ele>
        <time>2015-07-14T07:26:49.000Z</time>
      </trkpt>
      <trkpt lat="47.05111" lon="5.13198">
        <ele>245.75</ele>
        <time>2015-07-14T07:26:51.000Z</time>
      </trkpt>
      <trkpt lat="47.05112" lon="5.13211">
        <ele>245.75</ele>
        <time>2015-07-14T07:26:53.000Z</time>
      </trkpt>
      <trkpt lat="47.05114" lon="5.13224">
        <ele>245.75</ele>
        <time>2015-07-14T07:26:55.000Z</time>
      </trkpt>
      <trkpt lat="47.05116" lon="5.13237">
        <ele>246.23</ele>
        <time>2015-07-14T07:26:57.000Z</time>
      </trkpt>
      <trkpt lat="47.05119" lon="5.1325">
        <ele>245.75</ele>
        <time>2015-07-14T07:26:59.000Z</time>
      </trkpt>
      <trkpt lat="47.05121" lon="5.13263">
        <ele>245.75</ele>
        <time>2015-07-14T07:27:01.000Z</time>
      </trkpt>
      <trkpt lat="47.05123" lon="5.13276">
        <ele>245.75</ele>
        <time>2015-07-14T07:27:03.000Z</time>
      </trkpt>
      <trkpt lat="47.05125" lon="5.13289">
        <ele>245.75</ele>
        <time>2015-07-14T07:27:05.000Z</time>
      </trkpt>
      <trkpt lat="47.05127" lon="5.13303">
        <ele>245.75</ele>
        <time>2015-07-14T07:27:07.000Z</time>
      </trkpt>
      <trkpt lat="47.05128" lon="5.13316">
        <ele>245.27</ele>
        <time>2015-07-14T07:27:09.000Z</time>
      </trkpt>
      <trkpt lat="47.05131" lon="5.13329">
        <ele>245.27</ele>
        <time>2015-07-14T07:27:11.000Z</time>
      </trkpt>
      <trkpt lat="47.05133" lon="5.13342">
        <ele>245.75</ele>
        <time>2015-07-14T07:27:13.000Z</time>
      </trkpt>
      <trkpt lat="47.05135" lon="5.13356">
        <ele>245.27</ele>
        <time>2015-07-14T07:27:15.000Z</time>
      </trkpt>
      <trkpt lat="47.05137" lon="5.13369">
        <ele>245.27</ele>
        <time>2015-07-14T07:27:17.000Z</time>
      </trkpt>
      <trkpt lat="47.05139" lon="5.13383">
        <ele>245.75</ele>
        <time>2015-07-14T07:27:19.000Z</time>
      </trkpt>
      <trkpt lat="47.05141" lon="5.13396">
        <ele>245.75</ele>
        <time>2015-07-14T07:27:21.000Z</time>
      </trkpt>
      <trkpt lat="47.05142" lon="5.13409">
        <ele>245.75</ele>
        <time>2015-07-14T07:27:23.000Z</time>
      </trkpt>
      <trkpt lat="47.05145" lon="5.13422">
        <ele>245.75</ele>
        <time>2015-07-14T07:27:25.000Z</time>
      </trkpt>
      <trkpt lat="47.05146" lon="5.13435">
        <ele>245.27</ele>
        <time>2015-07-14T07:27:27.000Z</time>
      </trkpt>
      <trkpt lat="47.05149" lon="5.13448">
        <ele>245.75</ele>
        <time>2015-07-14T07:27:29.000Z</time>
      </trkpt>
      <trkpt lat="47.05152" lon="5.13467">
        <ele>245.75</ele>
        <time>2015-07-14T07:27:32.000Z</time>
      </trkpt>
      <trkpt lat="47.05156" lon="5.13484">
        <ele>245.75</ele>
        <time>2015-07-14T07:27:35.000Z</time>
      </trkpt>
      <trkpt lat="47.05159" lon="5.13497">
        <ele>245.75</ele>
        <time>2015-07-14T07:27:37.000Z</time>
      </trkpt>
      <trkpt lat="47.05162" lon="5.1351">
        <ele>245.27</ele>
        <time>2015-07-14T07:27:39.000Z</time>
      </trkpt>
      <trkpt lat="47.05165" lon="5.13523">
        <ele>245.75</ele>
        <time>2015-07-14T07:27:41.000Z</time>
      </trkpt>
      <trkpt lat="47.05169" lon="5.13535">
        <ele>245.75</ele>
        <time>2015-07-14T07:27:43.000Z</time>
      </trkpt>
      <trkpt lat="47.05172" lon="5.13548">
        <ele>245.75</ele>
        <time>2015-07-14T07:27:45.000Z</time>
      </trkpt>
      <trkpt lat="47.05175" lon="5.13561">
        <ele>245.75</ele>
        <time>2015-07-14T07:27:47.000Z</time>
      </trkpt>
      <trkpt lat="47.05178" lon="5.13573">
        <ele>245.75</ele>
        <time>2015-07-14T07:27:49.000Z</time>
      </trkpt>
      <trkpt lat="47.05183" lon="5.13586">
        <ele>245.75</ele>
        <time>2015-07-14T07:27:51.000Z</time>
      </trkpt>
      <trkpt lat="47.05189" lon="5.13603">
        <ele>245.75</ele>
        <time>2015-07-14T07:27:54.000Z</time>
      </trkpt>
      <trkpt lat="47.05194" lon="5.13614">
        <ele>245.27</ele>
        <time>2015-07-14T07:27:56.000Z</time>
      </trkpt>
      <trkpt lat="47.05199" lon="5.13625">
        <ele>245.75</ele>
        <time>2015-07-14T07:27:58.000Z</time>
      </trkpt>
      <trkpt lat="47.05206" lon="5.13641">
        <ele>245.27</ele>
        <time>2015-07-14T07:28:01.000Z</time>
      </trkpt>
      <trkpt lat="47.05212" lon="5.13653">
        <ele>245.75</ele>
        <time>2015-07-14T07:28:03.000Z</time>
      </trkpt>
      <trkpt lat="47.05218" lon="5.13664">
        <ele>245.75</ele>
        <time>2015-07-14T07:28:05.000Z</time>
      </trkpt>
      <trkpt lat="47.05224" lon="5.13675">
        <ele>245.75</ele>
        <time>2015-07-14T07:28:07.000Z</time>
      </trkpt>
      <trkpt lat="47.0523" lon="5.13685">
        <ele>245.75</ele>
        <time>2015-07-14T07:28:09.000Z</time>
      </trkpt>
      <trkpt lat="47.05237" lon="5.13696">
        <ele>245.75</ele>
        <time>2015-07-14T07:28:11.000Z</time>
      </trkpt>
      <trkpt lat="47.05243" lon="5.13706">
        <ele>245.75</ele>
        <time>2015-07-14T07:28:13.000Z</time>
      </trkpt>
      <trkpt lat="47.0525" lon="5.13715">
        <ele>245.75</ele>
        <time>2015-07-14T07:28:15.000Z</time>
      </trkpt>
      <trkpt lat="47.0526" lon="5.13729">
        <ele>245.75</ele>
        <time>2015-07-14T07:28:18.000Z</time>
      </trkpt>
      <trkpt lat="47.0527" lon="5.13742">
        <ele>245.75</ele>
        <time>2015-07-14T07:28:21.000Z</time>
      </trkpt>
      <trkpt lat="47.05277" lon="5.13752">
        <ele>245.75</ele>
        <time>2015-07-14T07:28:23.000Z</time>
      </trkpt>
      <trkpt lat="47.05284" lon="5.13761">
        <ele>245.75</ele>
        <time>2015-07-14T07:28:25.000Z</time>
      </trkpt>
      <trkpt lat="47.05295" lon="5.13773">
        <ele>245.75</ele>
        <time>2015-07-14T07:28:28.000Z</time>
      </trkpt>
      <trkpt lat="47.05303" lon="5.1378">
        <ele>245.75</ele>
        <time>2015-07-14T07:28:30.000Z</time>
      </trkpt>
      <trkpt lat="47.0531" lon="5.13787">
        <ele>245.75</ele>
        <time>2015-07-14T07:28:32.000Z</time>
      </trkpt>
      <trkpt lat="47.05319" lon="5.13793">
        <ele>245.75</ele>
        <time>2015-07-14T07:28:34.000Z</time>
      </trkpt>
      <trkpt lat="47.05327" lon="5.13798">
        <ele>245.75</ele>
        <time>2015-07-14T07:28:36.000Z</time>
      </trkpt>
      <trkpt lat="47.05336" lon="5.13803">
        <ele>245.75</ele>
        <time>2015-07-14T07:28:38.000Z</time>
      </trkpt>
      <trkpt lat="47.05344" lon="5.13808">
        <ele>245.27</ele>
        <time>2015-07-14T07:28:40.000Z</time>
      </trkpt>
      <trkpt lat="47.05354" lon="5.13813">
        <ele>245.27</ele>
        <time>2015-07-14T07:28:42.000Z</time>
      </trkpt>
      <trkpt lat="47.05362" lon="5.13819">
        <ele>245.75</ele>
        <time>2015-07-14T07:28:44.000Z</time>
      </trkpt>
      <trkpt lat="47.05371" lon="5.13825">
        <ele>245.27</ele>
        <time>2015-07-14T07:28:46.000Z</time>
      </trkpt>
      <trkpt lat="47.05379" lon="5.13833">
        <ele>245.27</ele>
        <time>2015-07-14T07:28:48.000Z</time>
      </trkpt>
      <trkpt lat="47.05386" lon="5.1384">
        <ele>245.27</ele>
        <time>2015-07-14T07:28:50.000Z</time>
      </trkpt>
      <trkpt lat="47.05394" lon="5.13849">
        <ele>245.27</ele>
        <time>2015-07-14T07:28:52.000Z</time>
      </trkpt>
      <trkpt lat="47.05401" lon="5.13859">
        <ele>245.27</ele>
        <time>2015-07-14T07:28:54.000Z</time>
      </trkpt>
      <trkpt lat="47.05408" lon="5.13869">
        <ele>245.27</ele>
        <time>2015-07-14T07:28:56.000Z</time>
      </trkpt>
      <trkpt lat="47.05415" lon="5.13879">
        <ele>245.75</ele>
        <time>2015-07-14T07:28:58.000Z</time>
      </trkpt>
      <trkpt lat="47.05421" lon="5.1389">
        <ele>245.75</ele>
        <time>2015-07-14T07:29:00.000Z</time>
      </trkpt>
      <trkpt lat="47.05428" lon="5.13899">
        <ele>245.75</ele>
        <time>2015-07-14T07:29:02.000Z</time>
      </trkpt>
      <trkpt lat="47.05435" lon="5.13909">
        <ele>245.75</ele>
        <time>2015-07-14T07:29:04.000Z</time>
      </trkpt>
      <trkpt lat="47.05443" lon="5.13919">
        <ele>245.27</ele>
        <time>2015-07-14T07:29:06.000Z</time>
      </trkpt>
      <trkpt lat="47.0545" lon="5.13929">
        <ele>245.75</ele>
        <time>2015-07-14T07:29:08.000Z</time>
      </trkpt>
      <trkpt lat="47.05457" lon="5.13939">
        <ele>245.27</ele>
        <time>2015-07-14T07:29:10.000Z</time>
      </trkpt>
      <trkpt lat="47.05463" lon="5.13949">
        <ele>245.75</ele>
        <time>2015-07-14T07:29:12.000Z</time>
      </trkpt>
      <trkpt lat="47.0547" lon="5.13958">
        <ele>245.27</ele>
        <time>2015-07-14T07:29:14.000Z</time>
      </trkpt>
      <trkpt lat="47.05476" lon="5.13967">
        <ele>245.75</ele>
        <time>2015-07-14T07:29:16.000Z</time>
      </trkpt>
      <trkpt lat="47.05483" lon="5.13977">
        <ele>245.75</ele>
        <time>2015-07-14T07:29:18.000Z</time>
      </trkpt>
      <trkpt lat="47.05493" lon="5.1399">
        <ele>245.75</ele>
        <time>2015-07-14T07:29:21.000Z</time>
      </trkpt>
      <trkpt lat="47.05502" lon="5.14003">
        <ele>245.75</ele>
        <time>2015-07-14T07:29:24.000Z</time>
      </trkpt>
      <trkpt lat="47.05511" lon="5.14018">
        <ele>245.75</ele>
        <time>2015-07-14T07:29:27.000Z</time>
      </trkpt>
      <trkpt lat="47.05519" lon="5.14032">
        <ele>245.75</ele>
        <time>2015-07-14T07:29:30.000Z</time>
      </trkpt>
      <trkpt lat="47.05528" lon="5.14045">
        <ele>245.75</ele>
        <time>2015-07-14T07:29:33.000Z</time>
      </trkpt>
      <trkpt lat="47.05531" lon="5.14057">
        <ele>245.75</ele>
        <time>2015-07-14T07:29:38.000Z</time>
      </trkpt>
      <trkpt lat="47.0554" lon="5.14061">
        <ele>244.79</ele>
        <time>2015-07-14T07:30:02.000Z</time>
      </trkpt>
      <trkpt lat="47.0555" lon="5.14068">
        <ele>246.23</ele>
        <time>2015-07-14T07:30:07.000Z</time>
      </trkpt>
      <trkpt lat="47.05562" lon="5.14073">
        <ele>245.27</ele>
        <time>2015-07-14T07:30:11.000Z</time>
      </trkpt>
      <trkpt lat="47.05572" lon="5.14077">
        <ele>245.27</ele>
        <time>2015-07-14T07:30:14.000Z</time>
      </trkpt>
      <trkpt lat="47.05582" lon="5.1408">
        <ele>245.27</ele>
        <time>2015-07-14T07:30:17.000Z</time>
      </trkpt>
      <trkpt lat="47.05593" lon="5.14085">
        <ele>245.75</ele>
        <time>2015-07-14T07:30:20.000Z</time>
      </trkpt>
      <trkpt lat="47.05605" lon="5.1409">
        <ele>245.75</ele>
        <time>2015-07-14T07:30:23.000Z</time>
      </trkpt>
      <trkpt lat="47.05617" lon="5.14096">
        <ele>245.75</ele>
        <time>2015-07-14T07:30:26.000Z</time>
      </trkpt>
      <trkpt lat="47.05629" lon="5.141">
        <ele>245.75</ele>
        <time>2015-07-14T07:30:29.000Z</time>
      </trkpt>
      <trkpt lat="47.05642" lon="5.14106">
        <ele>246.23</ele>
        <time>2015-07-14T07:30:32.000Z</time>
      </trkpt>
      <trkpt lat="47.05651" lon="5.1411">
        <ele>246.72</ele>
        <time>2015-07-14T07:30:34.000Z</time>
      </trkpt>
      <trkpt lat="47.0566" lon="5.14113">
        <ele>245.27</ele>
        <time>2015-07-14T07:30:36.000Z</time>
      </trkpt>
      <trkpt lat="47.05669" lon="5.14116">
        <ele>245.27</ele>
        <time>2015-07-14T07:30:38.000Z</time>
      </trkpt>
      <trkpt lat="47.05678" lon="5.1412">
        <ele>245.75</ele>
        <time>2015-07-14T07:30:40.000Z</time>
      </trkpt>
      <trkpt lat="47.05691" lon="5.14125">
        <ele>245.75</ele>
        <time>2015-07-14T07:30:43.000Z</time>
      </trkpt>
      <trkpt lat="47.057" lon="5.14129">
        <ele>245.75</ele>
        <time>2015-07-14T07:30:45.000Z</time>
      </trkpt>
      <trkpt lat="47.05709" lon="5.14131">
        <ele>245.75</ele>
        <time>2015-07-14T07:30:47.000Z</time>
      </trkpt>
      <trkpt lat="47.05722" lon="5.14137">
        <ele>245.75</ele>
        <time>2015-07-14T07:30:50.000Z</time>
      </trkpt>
      <trkpt lat="47.05731" lon="5.1414">
        <ele>245.75</ele>
        <time>2015-07-14T07:30:52.000Z</time>
      </trkpt>
      <trkpt lat="47.0574" lon="5.14143">
        <ele>245.75</ele>
        <time>2015-07-14T07:30:54.000Z</time>
      </trkpt>
      <trkpt lat="47.05749" lon="5.14146">
        <ele>245.75</ele>
        <time>2015-07-14T07:30:56.000Z</time>
      </trkpt>
      <trkpt lat="47.05758" lon="5.1415">
        <ele>245.75</ele>
        <time>2015-07-14T07:30:58.000Z</time>
      </trkpt>
      <trkpt lat="47.05767" lon="5.14154">
        <ele>245.75</ele>
        <time>2015-07-14T07:31:00.000Z</time>
      </trkpt>
      <trkpt lat="47.05776" lon="5.14158">
        <ele>246.72</ele>
        <time>2015-07-14T07:31:02.000Z</time>
      </trkpt>
      <trkpt lat="47.05785" lon="5.14162">
        <ele>246.23</ele>
        <time>2015-07-14T07:31:04.000Z</time>
      </trkpt>
      <trkpt lat="47.05794" lon="5.14166">
        <ele>245.75</ele>
        <time>2015-07-14T07:31:06.000Z</time>
      </trkpt>
      <trkpt lat="47.05803" lon="5.14172">
        <ele>246.23</ele>
        <time>2015-07-14T07:31:08.000Z</time>
      </trkpt>
      <trkpt lat="47.05815" lon="5.14179">
        <ele>246.23</ele>
        <time>2015-07-14T07:31:11.000Z</time>
      </trkpt>
      <trkpt lat="47.05824" lon="5.14184">
        <ele>246.72</ele>
        <time>2015-07-14T07:31:13.000Z</time>
      </trkpt>
      <trkpt lat="47.05832" lon="5.1419">
        <ele>246.23</ele>
        <time>2015-07-14T07:31:15.000Z</time>
      </trkpt>
      <trkpt lat="47.05841" lon="5.14195">
        <ele>245.75</ele>
        <time>2015-07-14T07:31:17.000Z</time>
      </trkpt>
      <trkpt lat="47.05849" lon="5.14202">
        <ele>246.23</ele>
        <time>2015-07-14T07:31:19.000Z</time>
      </trkpt>
      <trkpt lat="47.05858" lon="5.14207">
        <ele>246.72</ele>
        <time>2015-07-14T07:31:21.000Z</time>
      </trkpt>
      <trkpt lat="47.05866" lon="5.14214">
        <ele>246.72</ele>
        <time>2015-07-14T07:31:23.000Z</time>
      </trkpt>
      <trkpt lat="47.05875" lon="5.14218">
        <ele>246.72</ele>
        <time>2015-07-14T07:31:25.000Z</time>
      </trkpt>
      <trkpt lat="47.05883" lon="5.14223">
        <ele>247.2</ele>
        <time>2015-07-14T07:31:27.000Z</time>
      </trkpt>
      <trkpt lat="47.05891" lon="5.14229">
        <ele>247.2</ele>
        <time>2015-07-14T07:31:29.000Z</time>
      </trkpt>
      <trkpt lat="47.05903" lon="5.14237">
        <ele>247.2</ele>
        <time>2015-07-14T07:31:32.000Z</time>
      </trkpt>
      <trkpt lat="47.05915" lon="5.14246">
        <ele>247.2</ele>
        <time>2015-07-14T07:31:35.000Z</time>
      </trkpt>
      <trkpt lat="47.05923" lon="5.14256">
        <ele>247.2</ele>
        <time>2015-07-14T07:31:38.000Z</time>
      </trkpt>
      <trkpt lat="47.05923" lon="5.14269">
        <ele>247.2</ele>
        <time>2015-07-14T07:31:41.000Z</time>
      </trkpt>
      <trkpt lat="47.05918" lon="5.14284">
        <ele>246.23</ele>
        <time>2015-07-14T07:31:44.000Z</time>
      </trkpt>
      <trkpt lat="47.05914" lon="5.14299">
        <ele>246.23</ele>
        <time>2015-07-14T07:31:47.000Z</time>
      </trkpt>
      <trkpt lat="47.05909" lon="5.14315">
        <ele>249.6</ele>
        <time>2015-07-14T07:31:50.000Z</time>
      </trkpt>
      <trkpt lat="47.05904" lon="5.14331">
        <ele>245.75</ele>
        <time>2015-07-14T07:31:53.000Z</time>
      </trkpt>
      <trkpt lat="47.05899" lon="5.14347">
        <ele>249.12</ele>
        <time>2015-07-14T07:31:56.000Z</time>
      </trkpt>
      <trkpt lat="47.05896" lon="5.14362">
        <ele>246.72</ele>
        <time>2015-07-14T07:31:59.000Z</time>
      </trkpt>
      <trkpt lat="47.05889" lon="5.14371">
        <ele>246.72</ele>
        <time>2015-07-14T07:32:02.000Z</time>
      </trkpt>
      <trkpt lat="47.0588" lon="5.14373">
        <ele>247.2</ele>
        <time>2015-07-14T07:32:06.000Z</time>
      </trkpt>
      <trkpt lat="47.05868" lon="5.14373">
        <ele>246.72</ele>
        <time>2015-07-14T07:32:10.000Z</time>
      </trkpt>
      <trkpt lat="47.05856" lon="5.14372">
        <ele>247.68</ele>
        <time>2015-07-14T07:32:14.000Z</time>
      </trkpt>
      <trkpt lat="47.05847" lon="5.14372">
        <ele>247.68</ele>
        <time>2015-07-14T07:32:17.000Z</time>
      </trkpt>
      <trkpt lat="47.05837" lon="5.14371">
        <ele>247.68</ele>
        <time>2015-07-14T07:32:20.000Z</time>
      </trkpt>
      <trkpt lat="47.05826" lon="5.1437">
        <ele>247.68</ele>
        <time>2015-07-14T07:32:23.000Z</time>
      </trkpt>
      <trkpt lat="47.05814" lon="5.14369">
        <ele>247.68</ele>
        <time>2015-07-14T07:32:26.000Z</time>
      </trkpt>
      <trkpt lat="47.05804" lon="5.14367">
        <ele>247.68</ele>
        <time>2015-07-14T07:32:29.000Z</time>
      </trkpt>
      <trkpt lat="47.05794" lon="5.14366">
        <ele>247.2</ele>
        <time>2015-07-14T07:32:48.000Z</time>
      </trkpt>
      <trkpt lat="47.05782" lon="5.14364">
        <ele>247.68</ele>
        <time>2015-07-14T07:32:52.000Z</time>
      </trkpt>
      <trkpt lat="47.05772" lon="5.14364">
        <ele>247.68</ele>
        <time>2015-07-14T07:32:55.000Z</time>
      </trkpt>
      <trkpt lat="47.0576" lon="5.14364">
        <ele>248.16</ele>
        <time>2015-07-14T07:32:58.000Z</time>
      </trkpt>
      <trkpt lat="47.05747" lon="5.14364">
        <ele>247.68</ele>
        <time>2015-07-14T07:33:01.000Z</time>
      </trkpt>
      <trkpt lat="47.05734" lon="5.14366">
        <ele>247.68</ele>
        <time>2015-07-14T07:33:04.000Z</time>
      </trkpt>
      <trkpt lat="47.05721" lon="5.14368">
        <ele>248.16</ele>
        <time>2015-07-14T07:33:07.000Z</time>
      </trkpt>
      <trkpt lat="47.05708" lon="5.1437">
        <ele>248.16</ele>
        <time>2015-07-14T07:33:10.000Z</time>
      </trkpt>
      <trkpt lat="47.05699" lon="5.14372">
        <ele>248.16</ele>
        <time>2015-07-14T07:33:12.000Z</time>
      </trkpt>
      <trkpt lat="47.0569" lon="5.14374">
        <ele>247.68</ele>
        <time>2015-07-14T07:33:14.000Z</time>
      </trkpt>
      <trkpt lat="47.0568" lon="5.14377">
        <ele>247.68</ele>
        <time>2015-07-14T07:33:16.000Z</time>
      </trkpt>
      <trkpt lat="47.05671" lon="5.14379">
        <ele>248.16</ele>
        <time>2015-07-14T07:33:18.000Z</time>
      </trkpt>
      <trkpt lat="47.05661" lon="5.14382">
        <ele>248.16</ele>
        <time>2015-07-14T07:33:20.000Z</time>
      </trkpt>
      <trkpt lat="47.05652" lon="5.14384">
        <ele>248.16</ele>
        <time>2015-07-14T07:33:22.000Z</time>
      </trkpt>
      <trkpt lat="47.05642" lon="5.14387">
        <ele>248.16</ele>
        <time>2015-07-14T07:33:24.000Z</time>
      </trkpt>
      <trkpt lat="47.05632" lon="5.14389">
        <ele>248.16</ele>
        <time>2015-07-14T07:33:26.000Z</time>
      </trkpt>
      <trkpt lat="47.05623" lon="5.14391">
        <ele>248.16</ele>
        <time>2015-07-14T07:33:28.000Z</time>
      </trkpt>
      <trkpt lat="47.05613" lon="5.14393">
        <ele>248.64</ele>
        <time>2015-07-14T07:33:30.000Z</time>
      </trkpt>
      <trkpt lat="47.05603" lon="5.14395">
        <ele>248.64</ele>
        <time>2015-07-14T07:33:32.000Z</time>
      </trkpt>
      <trkpt lat="47.05593" lon="5.14396">
        <ele>248.16</ele>
        <time>2015-07-14T07:33:34.000Z</time>
      </trkpt>
      <trkpt lat="47.05582" lon="5.14396">
        <ele>248.16</ele>
        <time>2015-07-14T07:33:36.000Z</time>
      </trkpt>
      <trkpt lat="47.05573" lon="5.14397">
        <ele>248.16</ele>
        <time>2015-07-14T07:33:38.000Z</time>
      </trkpt>
      <trkpt lat="47.05563" lon="5.14397">
        <ele>248.16</ele>
        <time>2015-07-14T07:33:40.000Z</time>
      </trkpt>
      <trkpt lat="47.05553" lon="5.14397">
        <ele>248.16</ele>
        <time>2015-07-14T07:33:42.000Z</time>
      </trkpt>
      <trkpt lat="47.05542" lon="5.14397">
        <ele>248.64</ele>
        <time>2015-07-14T07:33:44.000Z</time>
      </trkpt>
      <trkpt lat="47.05532" lon="5.14397">
        <ele>248.16</ele>
        <time>2015-07-14T07:33:46.000Z</time>
      </trkpt>
      <trkpt lat="47.05521" lon="5.14397">
        <ele>248.64</ele>
        <time>2015-07-14T07:33:48.000Z</time>
      </trkpt>
      <trkpt lat="47.05511" lon="5.14397">
        <ele>248.16</ele>
        <time>2015-07-14T07:33:50.000Z</time>
      </trkpt>
      <trkpt lat="47.05501" lon="5.14397">
        <ele>248.16</ele>
        <time>2015-07-14T07:33:52.000Z</time>
      </trkpt>
      <trkpt lat="47.0549" lon="5.14397">
        <ele>248.16</ele>
        <time>2015-07-14T07:33:54.000Z</time>
      </trkpt>
      <trkpt lat="47.0548" lon="5.14398">
        <ele>248.16</ele>
        <time>2015-07-14T07:33:56.000Z</time>
      </trkpt>
      <trkpt lat="47.0547" lon="5.14398">
        <ele>248.16</ele>
        <time>2015-07-14T07:33:58.000Z</time>
      </trkpt>
      <trkpt lat="47.0546" lon="5.14399">
        <ele>248.16</ele>
        <time>2015-07-14T07:34:00.000Z</time>
      </trkpt>
      <trkpt lat="47.0545" lon="5.144">
        <ele>248.16</ele>
        <time>2015-07-14T07:34:02.000Z</time>
      </trkpt>
      <trkpt lat="47.05439" lon="5.14401">
        <ele>247.68</ele>
        <time>2015-07-14T07:34:04.000Z</time>
      </trkpt>
      <trkpt lat="47.05429" lon="5.14402">
        <ele>248.16</ele>
        <time>2015-07-14T07:34:06.000Z</time>
      </trkpt>
      <trkpt lat="47.05418" lon="5.14404">
        <ele>247.68</ele>
        <time>2015-07-14T07:34:08.000Z</time>
      </trkpt>
      <trkpt lat="47.05407" lon="5.14406">
        <ele>247.68</ele>
        <time>2015-07-14T07:34:10.000Z</time>
      </trkpt>
      <trkpt lat="47.05396" lon="5.14408">
        <ele>247.68</ele>
        <time>2015-07-14T07:34:12.000Z</time>
      </trkpt>
      <trkpt lat="47.05385" lon="5.1441">
        <ele>247.68</ele>
        <time>2015-07-14T07:34:14.000Z</time>
      </trkpt>
      <trkpt lat="47.05374" lon="5.14412">
        <ele>247.2</ele>
        <time>2015-07-14T07:34:16.000Z</time>
      </trkpt>
      <trkpt lat="47.05362" lon="5.14414">
        <ele>247.2</ele>
        <time>2015-07-14T07:34:18.000Z</time>
      </trkpt>
      <trkpt lat="47.0535" lon="5.14416">
        <ele>247.2</ele>
        <time>2015-07-14T07:34:20.000Z</time>
      </trkpt>
      <trkpt lat="47.05338" lon="5.14417">
        <ele>247.2</ele>
        <time>2015-07-14T07:34:22.000Z</time>
      </trkpt>
      <trkpt lat="47.05326" lon="5.14418">
        <ele>246.72</ele>
        <time>2015-07-14T07:34:24.000Z</time>
      </trkpt>
      <trkpt lat="47.05313" lon="5.14417">
        <ele>246.72</ele>
        <time>2015-07-14T07:34:26.000Z</time>
      </trkpt>
      <trkpt lat="47.053" lon="5.14416">
        <ele>246.72</ele>
        <time>2015-07-14T07:34:28.000Z</time>
      </trkpt>
      <trkpt lat="47.05288" lon="5.14414">
        <ele>247.2</ele>
        <time>2015-07-14T07:34:30.000Z</time>
      </trkpt>
      <trkpt lat="47.05276" lon="5.14411">
        <ele>247.2</ele>
        <time>2015-07-14T07:34:32.000Z</time>
      </trkpt>
      <trkpt lat="47.05265" lon="5.14409">
        <ele>246.72</ele>
        <time>2015-07-14T07:34:34.000Z</time>
      </trkpt>
      <trkpt lat="47.05253" lon="5.14406">
        <ele>247.2</ele>
        <time>2015-07-14T07:34:36.000Z</time>
      </trkpt>
      <trkpt lat="47.05242" lon="5.14403">
        <ele>246.72</ele>
        <time>2015-07-14T07:34:38.000Z</time>
      </trkpt>
      <trkpt lat="47.05231" lon="5.144">
        <ele>247.2</ele>
        <time>2015-07-14T07:34:40.000Z</time>
      </trkpt>
      <trkpt lat="47.05221" lon="5.14397">
        <ele>247.2</ele>
        <time>2015-07-14T07:34:42.000Z</time>
      </trkpt>
      <trkpt lat="47.0521" lon="5.14394">
        <ele>247.2</ele>
        <time>2015-07-14T07:34:44.000Z</time>
      </trkpt>
      <trkpt lat="47.05199" lon="5.14392">
        <ele>247.2</ele>
        <time>2015-07-14T07:34:46.000Z</time>
      </trkpt>
      <trkpt lat="47.05189" lon="5.14389">
        <ele>247.2</ele>
        <time>2015-07-14T07:34:48.000Z</time>
      </trkpt>
      <trkpt lat="47.05178" lon="5.14386">
        <ele>247.68</ele>
        <time>2015-07-14T07:34:50.000Z</time>
      </trkpt>
      <trkpt lat="47.05167" lon="5.14384">
        <ele>247.68</ele>
        <time>2015-07-14T07:34:52.000Z</time>
      </trkpt>
      <trkpt lat="47.05156" lon="5.14384">
        <ele>247.68</ele>
        <time>2015-07-14T07:34:54.000Z</time>
      </trkpt>
      <trkpt lat="47.05145" lon="5.14384">
        <ele>248.16</ele>
        <time>2015-07-14T07:34:56.000Z</time>
      </trkpt>
      <trkpt lat="47.05133" lon="5.14385">
        <ele>248.16</ele>
        <time>2015-07-14T07:34:58.000Z</time>
      </trkpt>
      <trkpt lat="47.05122" lon="5.14386">
        <ele>247.68</ele>
        <time>2015-07-14T07:35:00.000Z</time>
      </trkpt>
      <trkpt lat="47.05111" lon="5.14387">
        <ele>248.16</ele>
        <time>2015-07-14T07:35:02.000Z</time>
      </trkpt>
      <trkpt lat="47.05099" lon="5.14389">
        <ele>248.16</ele>
        <time>2015-07-14T07:35:04.000Z</time>
      </trkpt>
      <trkpt lat="47.05088" lon="5.14391">
        <ele>247.68</ele>
        <time>2015-07-14T07:35:06.000Z</time>
      </trkpt>
      <trkpt lat="47.05075" lon="5.14394">
        <ele>247.68</ele>
        <time>2015-07-14T07:35:08.000Z</time>
      </trkpt>
      <trkpt lat="47.05063" lon="5.14396">
        <ele>247.2</ele>
        <time>2015-07-14T07:35:10.000Z</time>
      </trkpt>
      <trkpt lat="47.05051" lon="5.14398">
        <ele>247.2</ele>
        <time>2015-07-14T07:35:12.000Z</time>
      </trkpt>
      <trkpt lat="47.05038" lon="5.14401">
        <ele>247.2</ele>
        <time>2015-07-14T07:35:14.000Z</time>
      </trkpt>
      <trkpt lat="47.05026" lon="5.14403">
        <ele>247.2</ele>
        <time>2015-07-14T07:35:16.000Z</time>
      </trkpt>
      <trkpt lat="47.05014" lon="5.14407">
        <ele>247.2</ele>
        <time>2015-07-14T07:35:18.000Z</time>
      </trkpt>
      <trkpt lat="47.05002" lon="5.1441">
        <ele>247.68</ele>
        <time>2015-07-14T07:35:20.000Z</time>
      </trkpt>
      <trkpt lat="47.0499" lon="5.14414">
        <ele>247.68</ele>
        <time>2015-07-14T07:35:22.000Z</time>
      </trkpt>
      <trkpt lat="47.04979" lon="5.14419">
        <ele>247.2</ele>
        <time>2015-07-14T07:35:24.000Z</time>
      </trkpt>
      <trkpt lat="47.04968" lon="5.14424">
        <ele>247.2</ele>
        <time>2015-07-14T07:35:26.000Z</time>
      </trkpt>
      <trkpt lat="47.04956" lon="5.14429">
        <ele>247.2</ele>
        <time>2015-07-14T07:35:28.000Z</time>
      </trkpt>
      <trkpt lat="47.04945" lon="5.14435">
        <ele>247.2</ele>
        <time>2015-07-14T07:35:30.000Z</time>
      </trkpt>
      <trkpt lat="47.04933" lon="5.1444">
        <ele>247.2</ele>
        <time>2015-07-14T07:35:32.000Z</time>
      </trkpt>
      <trkpt lat="47.04922" lon="5.14445">
        <ele>247.2</ele>
        <time>2015-07-14T07:35:34.000Z</time>
      </trkpt>
      <trkpt lat="47.04911" lon="5.14451">
        <ele>247.68</ele>
        <time>2015-07-14T07:35:36.000Z</time>
      </trkpt>
      <trkpt lat="47.049" lon="5.14456">
        <ele>247.68</ele>
        <time>2015-07-14T07:35:38.000Z</time>
      </trkpt>
      <trkpt lat="47.04889" lon="5.14461">
        <ele>247.68</ele>
        <time>2015-07-14T07:35:40.000Z</time>
      </trkpt>
      <trkpt lat="47.04878" lon="5.14466">
        <ele>248.64</ele>
        <time>2015-07-14T07:35:42.000Z</time>
      </trkpt>
      <trkpt lat="47.04867" lon="5.14471">
        <ele>248.16</ele>
        <time>2015-07-14T07:35:44.000Z</time>
      </trkpt>
      <trkpt lat="47.04856" lon="5.14476">
        <ele>248.16</ele>
        <time>2015-07-14T07:35:46.000Z</time>
      </trkpt>
      <trkpt lat="47.04846" lon="5.14481">
        <ele>247.68</ele>
        <time>2015-07-14T07:35:48.000Z</time>
      </trkpt>
      <trkpt lat="47.04836" lon="5.14486">
        <ele>248.16</ele>
        <time>2015-07-14T07:35:50.000Z</time>
      </trkpt>
      <trkpt lat="47.04825" lon="5.14491">
        <ele>247.68</ele>
        <time>2015-07-14T07:35:52.000Z</time>
      </trkpt>
      <trkpt lat="47.04814" lon="5.14496">
        <ele>248.16</ele>
        <time>2015-07-14T07:35:54.000Z</time>
      </trkpt>
      <trkpt lat="47.04803" lon="5.14501">
        <ele>247.68</ele>
        <time>2015-07-14T07:35:56.000Z</time>
      </trkpt>
      <trkpt lat="47.04792" lon="5.14506">
        <ele>247.68</ele>
        <time>2015-07-14T07:35:58.000Z</time>
      </trkpt>
      <trkpt lat="47.0478" lon="5.14511">
        <ele>247.68</ele>
        <time>2015-07-14T07:36:00.000Z</time>
      </trkpt>
      <trkpt lat="47.04769" lon="5.14515">
        <ele>247.68</ele>
        <time>2015-07-14T07:36:02.000Z</time>
      </trkpt>
      <trkpt lat="47.04758" lon="5.1452">
        <ele>247.68</ele>
        <time>2015-07-14T07:36:04.000Z</time>
      </trkpt>
      <trkpt lat="47.04747" lon="5.14526">
        <ele>247.2</ele>
        <time>2015-07-14T07:36:06.000Z</time>
      </trkpt>
      <trkpt lat="47.04736" lon="5.14531">
        <ele>247.68</ele>
        <time>2015-07-14T07:36:08.000Z</time>
      </trkpt>
      <trkpt lat="47.04723" lon="5.14538">
        <ele>247.2</ele>
        <time>2015-07-14T07:36:10.000Z</time>
      </trkpt>
      <trkpt lat="47.04711" lon="5.14544">
        <ele>246.72</ele>
        <time>2015-07-14T07:36:12.000Z</time>
      </trkpt>
      <trkpt lat="47.04699" lon="5.14551">
        <ele>246.72</ele>
        <time>2015-07-14T07:36:14.000Z</time>
      </trkpt>
      <trkpt lat="47.04686" lon="5.14557">
        <ele>246.23</ele>
        <time>2015-07-14T07:36:16.000Z</time>
      </trkpt>
      <trkpt lat="47.04675" lon="5.14564">
        <ele>246.72</ele>
        <time>2015-07-14T07:36:18.000Z</time>
      </trkpt>
      <trkpt lat="47.04663" lon="5.14571">
        <ele>246.23</ele>
        <time>2015-07-14T07:36:20.000Z</time>
      </trkpt>
      <trkpt lat="47.04652" lon="5.14577">
        <ele>246.72</ele>
        <time>2015-07-14T07:36:22.000Z</time>
      </trkpt>
      <trkpt lat="47.0464" lon="5.14584">
        <ele>246.72</ele>
        <time>2015-07-14T07:36:24.000Z</time>
      </trkpt>
      <trkpt lat="47.04629" lon="5.14591">
        <ele>246.23</ele>
        <time>2015-07-14T07:36:26.000Z</time>
      </trkpt>
      <trkpt lat="47.04617" lon="5.14598">
        <ele>246.23</ele>
        <time>2015-07-14T07:36:28.000Z</time>
      </trkpt>
      <trkpt lat="47.04606" lon="5.14604">
        <ele>246.23</ele>
        <time>2015-07-14T07:36:30.000Z</time>
      </trkpt>
      <trkpt lat="47.04595" lon="5.1461">
        <ele>246.72</ele>
        <time>2015-07-14T07:36:32.000Z</time>
      </trkpt>
      <trkpt lat="47.04583" lon="5.14616">
        <ele>246.23</ele>
        <time>2015-07-14T07:36:34.000Z</time>
      </trkpt>
      <trkpt lat="47.04572" lon="5.14622">
        <ele>246.72</ele>
        <time>2015-07-14T07:36:36.000Z</time>
      </trkpt>
      <trkpt lat="47.0456" lon="5.14629">
        <ele>246.72</ele>
        <time>2015-07-14T07:36:38.000Z</time>
      </trkpt>
      <trkpt lat="47.04548" lon="5.14635">
        <ele>246.72</ele>
        <time>2015-07-14T07:36:40.000Z</time>
      </trkpt>
      <trkpt lat="47.04536" lon="5.14642">
        <ele>246.23</ele>
        <time>2015-07-14T07:36:42.000Z</time>
      </trkpt>
      <trkpt lat="47.04524" lon="5.14649">
        <ele>246.23</ele>
        <time>2015-07-14T07:36:44.000Z</time>
      </trkpt>
      <trkpt lat="47.04514" lon="5.14657">
        <ele>246.23</ele>
        <time>2015-07-14T07:36:46.000Z</time>
      </trkpt>
      <trkpt lat="47.04502" lon="5.14663">
        <ele>246.23</ele>
        <time>2015-07-14T07:36:48.000Z</time>
      </trkpt>
      <trkpt lat="47.0449" lon="5.14668">
        <ele>246.23</ele>
        <time>2015-07-14T07:36:50.000Z</time>
      </trkpt>
      <trkpt lat="47.04477" lon="5.14672">
        <ele>246.23</ele>
        <time>2015-07-14T07:36:52.000Z</time>
      </trkpt>
      <trkpt lat="47.04465" lon="5.14677">
        <ele>246.23</ele>
        <time>2015-07-14T07:36:54.000Z</time>
      </trkpt>
      <trkpt lat="47.04453" lon="5.14682">
        <ele>246.72</ele>
        <time>2015-07-14T07:36:56.000Z</time>
      </trkpt>
      <trkpt lat="47.04441" lon="5.14686">
        <ele>247.2</ele>
        <time>2015-07-14T07:36:58.000Z</time>
      </trkpt>
      <trkpt lat="47.0443" lon="5.1469">
        <ele>246.72</ele>
        <time>2015-07-14T07:37:00.000Z</time>
      </trkpt>
      <trkpt lat="47.04418" lon="5.14695">
        <ele>246.23</ele>
        <time>2015-07-14T07:37:02.000Z</time>
      </trkpt>
      <trkpt lat="47.04407" lon="5.14702">
        <ele>246.72</ele>
        <time>2015-07-14T07:37:04.000Z</time>
      </trkpt>
      <trkpt lat="47.04396" lon="5.14709">
        <ele>246.72</ele>
        <time>2015-07-14T07:37:06.000Z</time>
      </trkpt>
      <trkpt lat="47.04387" lon="5.14716">
        <ele>246.72</ele>
        <time>2015-07-14T07:37:08.000Z</time>
      </trkpt>
      <trkpt lat="47.04377" lon="5.14723">
        <ele>246.23</ele>
        <time>2015-07-14T07:37:10.000Z</time>
      </trkpt>
      <trkpt lat="47.04367" lon="5.14731">
        <ele>246.23</ele>
        <time>2015-07-14T07:37:12.000Z</time>
      </trkpt>
      <trkpt lat="47.04357" lon="5.14737">
        <ele>246.23</ele>
        <time>2015-07-14T07:37:14.000Z</time>
      </trkpt>
      <trkpt lat="47.04346" lon="5.14744">
        <ele>246.72</ele>
        <time>2015-07-14T07:37:16.000Z</time>
      </trkpt>
      <trkpt lat="47.04337" lon="5.14751">
        <ele>246.72</ele>
        <time>2015-07-14T07:37:18.000Z</time>
      </trkpt>
      <trkpt lat="47.04327" lon="5.14757">
        <ele>247.2</ele>
        <time>2015-07-14T07:37:20.000Z</time>
      </trkpt>
      <trkpt lat="47.04317" lon="5.14762">
        <ele>247.2</ele>
        <time>2015-07-14T07:37:22.000Z</time>
      </trkpt>
      <trkpt lat="47.04308" lon="5.14767">
        <ele>247.2</ele>
        <time>2015-07-14T07:37:24.000Z</time>
      </trkpt>
      <trkpt lat="47.043" lon="5.14772">
        <ele>246.72</ele>
        <time>2015-07-14T07:37:27.000Z</time>
      </trkpt>
      <trkpt lat="47.0429" lon="5.14779">
        <ele>246.72</ele>
        <time>2015-07-14T07:37:31.000Z</time>
      </trkpt>
      <trkpt lat="47.04282" lon="5.14786">
        <ele>246.72</ele>
        <time>2015-07-14T07:37:35.000Z</time>
      </trkpt>
      <trkpt lat="47.04285" lon="5.14802">
        <ele>246.72</ele>
        <time>2015-07-14T07:37:40.000Z</time>
      </trkpt>
      <trkpt lat="47.04293" lon="5.14809">
        <ele>246.23</ele>
        <time>2015-07-14T07:37:46.000Z</time>
      </trkpt>
      <trkpt lat="47.04303" lon="5.14814">
        <ele>246.72</ele>
        <time>2015-07-14T07:37:52.000Z</time>
      </trkpt>
      <trkpt lat="47.04312" lon="5.14816">
        <ele>246.72</ele>
        <time>2015-07-14T07:37:58.000Z</time>
      </trkpt>
      <trkpt lat="47.04312" lon="5.14829">
        <ele>245.75</ele>
        <time>2015-07-14T07:38:03.000Z</time>
      </trkpt>
      <trkpt lat="47.04303" lon="5.14833">
        <ele>246.23</ele>
        <time>2015-07-14T07:38:09.000Z</time>
      </trkpt>
      <trkpt lat="47.04296" lon="5.14835">
        <ele>247.2</ele>
        <time>2015-07-14T07:48:11.000Z</time>
      </trkpt>
      <trkpt lat="47.04285" lon="5.14831">
        <ele>247.2</ele>
        <time>2015-07-14T07:48:19.000Z</time>
      </trkpt>
      <trkpt lat="47.04277" lon="5.14823">
        <ele>246.72</ele>
        <time>2015-07-14T07:48:25.000Z</time>
      </trkpt>
      <trkpt lat="47.04271" lon="5.14811">
        <ele>247.2</ele>
        <time>2015-07-14T07:48:31.000Z</time>
      </trkpt>
      <trkpt lat="47.04263" lon="5.14801">
        <ele>247.68</ele>
        <time>2015-07-14T07:48:36.000Z</time>
      </trkpt>
      <trkpt lat="47.04254" lon="5.14803">
        <ele>246.72</ele>
        <time>2015-07-14T07:48:40.000Z</time>
      </trkpt>
      <trkpt lat="47.04254" lon="5.14807">
        <ele>246.72</ele>
        <time>2015-07-14T07:48:49.000Z</time>
      </trkpt>
      <trkpt lat="47.04261" lon="5.14798">
        <ele>246.72</ele>
        <time>2015-07-14T07:48:54.000Z</time>
      </trkpt>
      <trkpt lat="47.04261" lon="5.14782">
        <ele>246.23</ele>
        <time>2015-07-14T07:48:59.000Z</time>
      </trkpt>
      <trkpt lat="47.04256" lon="5.14765">
        <ele>246.72</ele>
        <time>2015-07-14T07:49:03.000Z</time>
      </trkpt>
      <trkpt lat="47.04252" lon="5.14753">
        <ele>246.72</ele>
        <time>2015-07-14T07:49:06.000Z</time>
      </trkpt>
      <trkpt lat="47.04247" lon="5.1474">
        <ele>247.2</ele>
        <time>2015-07-14T07:49:09.000Z</time>
      </trkpt>
      <trkpt lat="47.04242" lon="5.14727">
        <ele>247.68</ele>
        <time>2015-07-14T07:49:12.000Z</time>
      </trkpt>
      <trkpt lat="47.04237" lon="5.14712">
        <ele>247.68</ele>
        <time>2015-07-14T07:49:15.000Z</time>
      </trkpt>
      <trkpt lat="47.04231" lon="5.14698">
        <ele>247.68</ele>
        <time>2015-07-14T07:49:18.000Z</time>
      </trkpt>
      <trkpt lat="47.04225" lon="5.14684">
        <ele>248.16</ele>
        <time>2015-07-14T07:49:21.000Z</time>
      </trkpt>
      <trkpt lat="47.04218" lon="5.14669">
        <ele>248.16</ele>
        <time>2015-07-14T07:49:24.000Z</time>
      </trkpt>
      <trkpt lat="47.0421" lon="5.14655">
        <ele>247.68</ele>
        <time>2015-07-14T07:49:27.000Z</time>
      </trkpt>
      <trkpt lat="47.04202" lon="5.1464">
        <ele>247.68</ele>
        <time>2015-07-14T07:49:30.000Z</time>
      </trkpt>
      <trkpt lat="47.04194" lon="5.14625">
        <ele>248.16</ele>
        <time>2015-07-14T07:49:33.000Z</time>
      </trkpt>
      <trkpt lat="47.04186" lon="5.1461">
        <ele>247.68</ele>
        <time>2015-07-14T07:49:36.000Z</time>
      </trkpt>
      <trkpt lat="47.04178" lon="5.14597">
        <ele>247.2</ele>
        <time>2015-07-14T07:49:39.000Z</time>
      </trkpt>
      <trkpt lat="47.0417" lon="5.14583">
        <ele>247.68</ele>
        <time>2015-07-14T07:49:42.000Z</time>
      </trkpt>
      <trkpt lat="47.04161" lon="5.1457">
        <ele>247.68</ele>
        <time>2015-07-14T07:49:45.000Z</time>
      </trkpt>
      <trkpt lat="47.04151" lon="5.14557">
        <ele>247.68</ele>
        <time>2015-07-14T07:49:48.000Z</time>
      </trkpt>
      <trkpt lat="47.04141" lon="5.14545">
        <ele>248.16</ele>
        <time>2015-07-14T07:49:51.000Z</time>
      </trkpt>
      <trkpt lat="47.04131" lon="5.14533">
        <ele>247.2</ele>
        <time>2015-07-14T07:49:54.000Z</time>
      </trkpt>
      <trkpt lat="47.0412" lon="5.14521">
        <ele>246.72</ele>
        <time>2015-07-14T07:49:57.000Z</time>
      </trkpt>
      <trkpt lat="47.0411" lon="5.1451">
        <ele>247.2</ele>
        <time>2015-07-14T07:50:00.000Z</time>
      </trkpt>
      <trkpt lat="47.041" lon="5.14499">
        <ele>246.72</ele>
        <time>2015-07-14T07:50:03.000Z</time>
      </trkpt>
      <trkpt lat="47.04089" lon="5.14487">
        <ele>246.23</ele>
        <time>2015-07-14T07:50:06.000Z</time>
      </trkpt>
      <trkpt lat="47.04082" lon="5.14479">
        <ele>246.72</ele>
        <time>2015-07-14T07:50:08.000Z</time>
      </trkpt>
      <trkpt lat="47.04075" lon="5.14472">
        <ele>247.68</ele>
        <time>2015-07-14T07:50:10.000Z</time>
      </trkpt>
      <trkpt lat="47.04065" lon="5.14462">
        <ele>247.2</ele>
        <time>2015-07-14T07:50:13.000Z</time>
      </trkpt>
      <trkpt lat="47.04055" lon="5.14448">
        <ele>246.72</ele>
        <time>2015-07-14T07:50:16.000Z</time>
      </trkpt>
      <trkpt lat="47.0405" lon="5.14431">
        <ele>248.16</ele>
        <time>2015-07-14T07:50:19.000Z</time>
      </trkpt>
      <trkpt lat="47.04047" lon="5.14413">
        <ele>246.23</ele>
        <time>2015-07-14T07:50:22.000Z</time>
      </trkpt>
      <trkpt lat="47.04043" lon="5.14397">
        <ele>245.75</ele>
        <time>2015-07-14T07:50:25.000Z</time>
      </trkpt>
      <trkpt lat="47.04037" lon="5.14383">
        <ele>246.23</ele>
        <time>2015-07-14T07:50:28.000Z</time>
      </trkpt>
      <trkpt lat="47.04028" lon="5.1437">
        <ele>246.23</ele>
        <time>2015-07-14T07:50:31.000Z</time>
      </trkpt>
      <trkpt lat="47.04018" lon="5.14361">
        <ele>246.72</ele>
        <time>2015-07-14T07:50:34.000Z</time>
      </trkpt>
      <trkpt lat="47.04007" lon="5.14351">
        <ele>246.72</ele>
        <time>2015-07-14T07:50:37.000Z</time>
      </trkpt>
      <trkpt lat="47.03995" lon="5.1434">
        <ele>246.72</ele>
        <time>2015-07-14T07:50:40.000Z</time>
      </trkpt>
      <trkpt lat="47.03984" lon="5.1433">
        <ele>246.72</ele>
        <time>2015-07-14T07:50:43.000Z</time>
      </trkpt>
      <trkpt lat="47.03974" lon="5.1432">
        <ele>246.72</ele>
        <time>2015-07-14T07:50:46.000Z</time>
      </trkpt>
      <trkpt lat="47.03963" lon="5.1431">
        <ele>246.72</ele>
        <time>2015-07-14T07:50:49.000Z</time>
      </trkpt>
      <trkpt lat="47.03953" lon="5.14299">
        <ele>246.72</ele>
        <time>2015-07-14T07:50:52.000Z</time>
      </trkpt>
      <trkpt lat="47.03943" lon="5.14291">
        <ele>246.72</ele>
        <time>2015-07-14T07:50:55.000Z</time>
      </trkpt>
      <trkpt lat="47.03933" lon="5.14282">
        <ele>246.72</ele>
        <time>2015-07-14T07:50:58.000Z</time>
      </trkpt>
      <trkpt lat="47.03924" lon="5.14271">
        <ele>246.72</ele>
        <time>2015-07-14T07:51:01.000Z</time>
      </trkpt>
      <trkpt lat="47.03914" lon="5.14261">
        <ele>246.23</ele>
        <time>2015-07-14T07:51:04.000Z</time>
      </trkpt>
      <trkpt lat="47.03904" lon="5.14251">
        <ele>246.23</ele>
        <time>2015-07-14T07:51:07.000Z</time>
      </trkpt>
      <trkpt lat="47.03893" lon="5.14239">
        <ele>246.23</ele>
        <time>2015-07-14T07:51:10.000Z</time>
      </trkpt>
      <trkpt lat="47.03883" lon="5.14226">
        <ele>246.72</ele>
        <time>2015-07-14T07:51:13.000Z</time>
      </trkpt>
      <trkpt lat="47.03875" lon="5.14217">
        <ele>246.72</ele>
        <time>2015-07-14T07:51:15.000Z</time>
      </trkpt>
      <trkpt lat="47.03868" lon="5.14209">
        <ele>246.72</ele>
        <time>2015-07-14T07:51:17.000Z</time>
      </trkpt>
      <trkpt lat="47.03857" lon="5.14197">
        <ele>246.23</ele>
        <time>2015-07-14T07:51:20.000Z</time>
      </trkpt>
      <trkpt lat="47.0385" lon="5.14188">
        <ele>246.72</ele>
        <time>2015-07-14T07:51:22.000Z</time>
      </trkpt>
      <trkpt lat="47.03843" lon="5.1418">
        <ele>246.72</ele>
        <time>2015-07-14T07:51:24.000Z</time>
      </trkpt>
      <trkpt lat="47.03836" lon="5.14171">
        <ele>246.23</ele>
        <time>2015-07-14T07:51:26.000Z</time>
      </trkpt>
      <trkpt lat="47.03827" lon="5.14159">
        <ele>246.72</ele>
        <time>2015-07-14T07:51:29.000Z</time>
      </trkpt>
      <trkpt lat="47.03816" lon="5.14148">
        <ele>246.72</ele>
        <time>2015-07-14T07:51:32.000Z</time>
      </trkpt>
      <trkpt lat="47.03805" lon="5.14137">
        <ele>246.72</ele>
        <time>2015-07-14T07:51:35.000Z</time>
      </trkpt>
      <trkpt lat="47.03794" lon="5.14125">
        <ele>246.72</ele>
        <time>2015-07-14T07:51:38.000Z</time>
      </trkpt>
      <trkpt lat="47.03783" lon="5.14115">
        <ele>246.72</ele>
        <time>2015-07-14T07:51:41.000Z</time>
      </trkpt>
      <trkpt lat="47.03772" lon="5.14103">
        <ele>247.2</ele>
        <time>2015-07-14T07:51:44.000Z</time>
      </trkpt>
      <trkpt lat="47.03764" lon="5.14095">
        <ele>246.72</ele>
        <time>2015-07-14T07:51:46.000Z</time>
      </trkpt>
      <trkpt lat="47.03757" lon="5.14088">
        <ele>247.2</ele>
        <time>2015-07-14T07:51:48.000Z</time>
      </trkpt>
      <trkpt lat="47.03749" lon="5.14081">
        <ele>246.72</ele>
        <time>2015-07-14T07:51:50.000Z</time>
      </trkpt>
      <trkpt lat="47.03739" lon="5.14069">
        <ele>247.2</ele>
        <time>2015-07-14T07:51:53.000Z</time>
      </trkpt>
      <trkpt lat="47.03728" lon="5.14055">
        <ele>246.72</ele>
        <time>2015-07-14T07:51:56.000Z</time>
      </trkpt>
      <trkpt lat="47.03717" lon="5.14044">
        <ele>246.72</ele>
        <time>2015-07-14T07:51:59.000Z</time>
      </trkpt>
      <trkpt lat="47.03705" lon="5.14038">
        <ele>246.23</ele>
        <time>2015-07-14T07:52:02.000Z</time>
      </trkpt>
      <trkpt lat="47.03693" lon="5.14034">
        <ele>245.75</ele>
        <time>2015-07-14T07:52:05.000Z</time>
      </trkpt>
      <trkpt lat="47.03685" lon="5.14029">
        <ele>245.75</ele>
        <time>2015-07-14T07:52:07.000Z</time>
      </trkpt>
      <trkpt lat="47.03673" lon="5.14019">
        <ele>245.27</ele>
        <time>2015-07-14T07:52:10.000Z</time>
      </trkpt>
      <trkpt lat="47.03665" lon="5.14013">
        <ele>245.27</ele>
        <time>2015-07-14T07:52:12.000Z</time>
      </trkpt>
      <trkpt lat="47.03656" lon="5.14007">
        <ele>245.75</ele>
        <time>2015-07-14T07:52:14.000Z</time>
      </trkpt>
      <trkpt lat="47.03649" lon="5.13999">
        <ele>245.27</ele>
        <time>2015-07-14T07:52:16.000Z</time>
      </trkpt>
      <trkpt lat="47.03641" lon="5.13991">
        <ele>246.23</ele>
        <time>2015-07-14T07:52:18.000Z</time>
      </trkpt>
      <trkpt lat="47.03634" lon="5.13982">
        <ele>245.75</ele>
        <time>2015-07-14T07:52:20.000Z</time>
      </trkpt>
      <trkpt lat="47.03628" lon="5.13972">
        <ele>246.23</ele>
        <time>2015-07-14T07:52:22.000Z</time>
      </trkpt>
      <trkpt lat="47.03621" lon="5.13963">
        <ele>246.23</ele>
        <time>2015-07-14T07:52:24.000Z</time>
      </trkpt>
      <trkpt lat="47.03615" lon="5.13953">
        <ele>246.23</ele>
        <time>2015-07-14T07:52:26.000Z</time>
      </trkpt>
      <trkpt lat="47.03606" lon="5.13939">
        <ele>246.23</ele>
        <time>2015-07-14T07:52:29.000Z</time>
      </trkpt>
      <trkpt lat="47.036" lon="5.1393">
        <ele>245.75</ele>
        <time>2015-07-14T07:52:31.000Z</time>
      </trkpt>
      <trkpt lat="47.0359" lon="5.13916">
        <ele>246.23</ele>
        <time>2015-07-14T07:52:34.000Z</time>
      </trkpt>
      <trkpt lat="47.0358" lon="5.13903">
        <ele>246.23</ele>
        <time>2015-07-14T07:52:37.000Z</time>
      </trkpt>
      <trkpt lat="47.03569" lon="5.13891">
        <ele>246.23</ele>
        <time>2015-07-14T07:52:40.000Z</time>
      </trkpt>
      <trkpt lat="47.03562" lon="5.13884">
        <ele>245.75</ele>
        <time>2015-07-14T07:52:42.000Z</time>
      </trkpt>
      <trkpt lat="47.03555" lon="5.13876">
        <ele>246.23</ele>
        <time>2015-07-14T07:52:44.000Z</time>
      </trkpt>
      <trkpt lat="47.03547" lon="5.13868">
        <ele>246.23</ele>
        <time>2015-07-14T07:52:46.000Z</time>
      </trkpt>
      <trkpt lat="47.03539" lon="5.1386">
        <ele>246.23</ele>
        <time>2015-07-14T07:52:48.000Z</time>
      </trkpt>
      <trkpt lat="47.03532" lon="5.13852">
        <ele>246.23</ele>
        <time>2015-07-14T07:52:50.000Z</time>
      </trkpt>
      <trkpt lat="47.03522" lon="5.13841">
        <ele>246.23</ele>
        <time>2015-07-14T07:52:53.000Z</time>
      </trkpt>
      <trkpt lat="47.03511" lon="5.13829">
        <ele>246.23</ele>
        <time>2015-07-14T07:52:56.000Z</time>
      </trkpt>
      <trkpt lat="47.03502" lon="5.13815">
        <ele>246.23</ele>
        <time>2015-07-14T07:52:59.000Z</time>
      </trkpt>
      <trkpt lat="47.03498" lon="5.13804">
        <ele>246.23</ele>
        <time>2015-07-14T07:53:01.000Z</time>
      </trkpt>
      <trkpt lat="47.03495" lon="5.13791">
        <ele>245.75</ele>
        <time>2015-07-14T07:53:03.000Z</time>
      </trkpt>
      <trkpt lat="47.03494" lon="5.13771">
        <ele>245.75</ele>
        <time>2015-07-14T07:53:06.000Z</time>
      </trkpt>
      <trkpt lat="47.03495" lon="5.13758">
        <ele>246.23</ele>
        <time>2015-07-14T07:53:08.000Z</time>
      </trkpt>
      <trkpt lat="47.03497" lon="5.13745">
        <ele>245.75</ele>
        <time>2015-07-14T07:53:10.000Z</time>
      </trkpt>
      <trkpt lat="47.035" lon="5.13732">
        <ele>246.23</ele>
        <time>2015-07-14T07:53:12.000Z</time>
      </trkpt>
      <trkpt lat="47.03503" lon="5.13713">
        <ele>246.23</ele>
        <time>2015-07-14T07:53:15.000Z</time>
      </trkpt>
      <trkpt lat="47.03504" lon="5.137">
        <ele>246.23</ele>
        <time>2015-07-14T07:53:17.000Z</time>
      </trkpt>
      <trkpt lat="47.03504" lon="5.13686">
        <ele>247.68</ele>
        <time>2015-07-14T07:53:19.000Z</time>
      </trkpt>
      <trkpt lat="47.03505" lon="5.13671">
        <ele>245.27</ele>
        <time>2015-07-14T07:53:21.000Z</time>
      </trkpt>
      <trkpt lat="47.03505" lon="5.13655">
        <ele>245.75</ele>
        <time>2015-07-14T07:53:23.000Z</time>
      </trkpt>
      <trkpt lat="47.03505" lon="5.13639">
        <ele>245.75</ele>
        <time>2015-07-14T07:53:25.000Z</time>
      </trkpt>
      <trkpt lat="47.03505" lon="5.13624">
        <ele>245.27</ele>
        <time>2015-07-14T07:53:27.000Z</time>
      </trkpt>
      <trkpt lat="47.03504" lon="5.13608">
        <ele>245.27</ele>
        <time>2015-07-14T07:53:29.000Z</time>
      </trkpt>
      <trkpt lat="47.03504" lon="5.13593">
        <ele>245.27</ele>
        <time>2015-07-14T07:53:31.000Z</time>
      </trkpt>
      <trkpt lat="47.03504" lon="5.13577">
        <ele>245.75</ele>
        <time>2015-07-14T07:53:33.000Z</time>
      </trkpt>
      <trkpt lat="47.03504" lon="5.13561">
        <ele>246.23</ele>
        <time>2015-07-14T07:53:35.000Z</time>
      </trkpt>
      <trkpt lat="47.03504" lon="5.13545">
        <ele>245.75</ele>
        <time>2015-07-14T07:53:37.000Z</time>
      </trkpt>
      <trkpt lat="47.03504" lon="5.13529">
        <ele>246.23</ele>
        <time>2015-07-14T07:53:39.000Z</time>
      </trkpt>
      <trkpt lat="47.03505" lon="5.13513">
        <ele>246.23</ele>
        <time>2015-07-14T07:53:41.000Z</time>
      </trkpt>
      <trkpt lat="47.03505" lon="5.13497">
        <ele>246.23</ele>
        <time>2015-07-14T07:53:43.000Z</time>
      </trkpt>
      <trkpt lat="47.03505" lon="5.13482">
        <ele>246.23</ele>
        <time>2015-07-14T07:53:45.000Z</time>
      </trkpt>
      <trkpt lat="47.03505" lon="5.13466">
        <ele>246.23</ele>
        <time>2015-07-14T07:53:47.000Z</time>
      </trkpt>
      <trkpt lat="47.03505" lon="5.1345">
        <ele>246.23</ele>
        <time>2015-07-14T07:53:49.000Z</time>
      </trkpt>
      <trkpt lat="47.03505" lon="5.13435">
        <ele>246.23</ele>
        <time>2015-07-14T07:53:51.000Z</time>
      </trkpt>
      <trkpt lat="47.03505" lon="5.13419">
        <ele>246.23</ele>
        <time>2015-07-14T07:53:53.000Z</time>
      </trkpt>
      <trkpt lat="47.03505" lon="5.13403">
        <ele>246.23</ele>
        <time>2015-07-14T07:53:55.000Z</time>
      </trkpt>
      <trkpt lat="47.03505" lon="5.13387">
        <ele>246.23</ele>
        <time>2015-07-14T07:53:57.000Z</time>
      </trkpt>
      <trkpt lat="47.03505" lon="5.13371">
        <ele>246.23</ele>
        <time>2015-07-14T07:53:59.000Z</time>
      </trkpt>
      <trkpt lat="47.03505" lon="5.13355">
        <ele>246.23</ele>
        <time>2015-07-14T07:54:01.000Z</time>
      </trkpt>
      <trkpt lat="47.03506" lon="5.1334">
        <ele>245.75</ele>
        <time>2015-07-14T07:54:03.000Z</time>
      </trkpt>
      <trkpt lat="47.03506" lon="5.13324">
        <ele>246.23</ele>
        <time>2015-07-14T07:54:05.000Z</time>
      </trkpt>
      <trkpt lat="47.03506" lon="5.13308">
        <ele>245.75</ele>
        <time>2015-07-14T07:54:07.000Z</time>
      </trkpt>
      <trkpt lat="47.03506" lon="5.13292">
        <ele>245.75</ele>
        <time>2015-07-14T07:54:09.000Z</time>
      </trkpt>
      <trkpt lat="47.03506" lon="5.13275">
        <ele>246.23</ele>
        <time>2015-07-14T07:54:11.000Z</time>
      </trkpt>
      <trkpt lat="47.03506" lon="5.1326">
        <ele>246.23</ele>
        <time>2015-07-14T07:54:13.000Z</time>
      </trkpt>
      <trkpt lat="47.03506" lon="5.13244">
        <ele>245.75</ele>
        <time>2015-07-14T07:54:15.000Z</time>
      </trkpt>
      <trkpt lat="47.03507" lon="5.13228">
        <ele>246.23</ele>
        <time>2015-07-14T07:54:17.000Z</time>
      </trkpt>
      <trkpt lat="47.03507" lon="5.13212">
        <ele>246.23</ele>
        <time>2015-07-14T07:54:19.000Z</time>
      </trkpt>
      <trkpt lat="47.03506" lon="5.13197">
        <ele>246.23</ele>
        <time>2015-07-14T07:54:21.000Z</time>
      </trkpt>
      <trkpt lat="47.03506" lon="5.13181">
        <ele>246.23</ele>
        <time>2015-07-14T07:54:23.000Z</time>
      </trkpt>
      <trkpt lat="47.03507" lon="5.13165">
        <ele>245.75</ele>
        <time>2015-07-14T07:54:25.000Z</time>
      </trkpt>
      <trkpt lat="47.03507" lon="5.13149">
        <ele>246.23</ele>
        <time>2015-07-14T07:54:27.000Z</time>
      </trkpt>
      <trkpt lat="47.03507" lon="5.13132">
        <ele>245.75</ele>
        <time>2015-07-14T07:54:29.000Z</time>
      </trkpt>
      <trkpt lat="47.03507" lon="5.13116">
        <ele>246.23</ele>
        <time>2015-07-14T07:54:31.000Z</time>
      </trkpt>
      <trkpt lat="47.03507" lon="5.131">
        <ele>246.23</ele>
        <time>2015-07-14T07:54:33.000Z</time>
      </trkpt>
      <trkpt lat="47.03507" lon="5.13084">
        <ele>245.75</ele>
        <time>2015-07-14T07:54:35.000Z</time>
      </trkpt>
      <trkpt lat="47.03508" lon="5.13068">
        <ele>245.75</ele>
        <time>2015-07-14T07:54:37.000Z</time>
      </trkpt>
      <trkpt lat="47.03508" lon="5.13052">
        <ele>246.23</ele>
        <time>2015-07-14T07:54:39.000Z</time>
      </trkpt>
      <trkpt lat="47.03508" lon="5.13036">
        <ele>245.75</ele>
        <time>2015-07-14T07:54:41.000Z</time>
      </trkpt>
      <trkpt lat="47.03508" lon="5.13021">
        <ele>245.75</ele>
        <time>2015-07-14T07:54:43.000Z</time>
      </trkpt>
      <trkpt lat="47.03508" lon="5.13005">
        <ele>245.27</ele>
        <time>2015-07-14T07:54:45.000Z</time>
      </trkpt>
      <trkpt lat="47.03508" lon="5.1299">
        <ele>244.79</ele>
        <time>2015-07-14T07:54:47.000Z</time>
      </trkpt>
      <trkpt lat="47.03509" lon="5.12975">
        <ele>244.79</ele>
        <time>2015-07-14T07:54:49.000Z</time>
      </trkpt>
      <trkpt lat="47.03508" lon="5.12961">
        <ele>244.79</ele>
        <time>2015-07-14T07:54:51.000Z</time>
      </trkpt>
      <trkpt lat="47.03508" lon="5.12947">
        <ele>245.27</ele>
        <time>2015-07-14T07:54:53.000Z</time>
      </trkpt>
      <trkpt lat="47.03508" lon="5.12932">
        <ele>244.79</ele>
        <time>2015-07-14T07:54:55.000Z</time>
      </trkpt>
      <trkpt lat="47.03508" lon="5.12917">
        <ele>245.27</ele>
        <time>2015-07-14T07:54:57.000Z</time>
      </trkpt>
      <trkpt lat="47.03508" lon="5.12901">
        <ele>245.75</ele>
        <time>2015-07-14T07:54:59.000Z</time>
      </trkpt>
      <trkpt lat="47.03508" lon="5.12885">
        <ele>245.75</ele>
        <time>2015-07-14T07:55:01.000Z</time>
      </trkpt>
      <trkpt lat="47.03508" lon="5.1287">
        <ele>246.23</ele>
        <time>2015-07-14T07:55:03.000Z</time>
      </trkpt>
      <trkpt lat="47.03508" lon="5.12854">
        <ele>246.23</ele>
        <time>2015-07-14T07:55:05.000Z</time>
      </trkpt>
      <trkpt lat="47.03509" lon="5.12839">
        <ele>246.23</ele>
        <time>2015-07-14T07:55:07.000Z</time>
      </trkpt>
      <trkpt lat="47.03509" lon="5.12823">
        <ele>246.23</ele>
        <time>2015-07-14T07:55:09.000Z</time>
      </trkpt>
      <trkpt lat="47.03509" lon="5.12807">
        <ele>245.27</ele>
        <time>2015-07-14T07:55:11.000Z</time>
      </trkpt>
      <trkpt lat="47.03509" lon="5.12791">
        <ele>246.23</ele>
        <time>2015-07-14T07:55:13.000Z</time>
      </trkpt>
      <trkpt lat="47.03509" lon="5.12776">
        <ele>246.23</ele>
        <time>2015-07-14T07:55:15.000Z</time>
      </trkpt>
      <trkpt lat="47.03509" lon="5.1276">
        <ele>246.23</ele>
        <time>2015-07-14T07:55:17.000Z</time>
      </trkpt>
      <trkpt lat="47.03509" lon="5.12744">
        <ele>246.23</ele>
        <time>2015-07-14T07:55:19.000Z</time>
      </trkpt>
      <trkpt lat="47.03509" lon="5.12729">
        <ele>245.75</ele>
        <time>2015-07-14T07:55:21.000Z</time>
      </trkpt>
      <trkpt lat="47.0351" lon="5.12713">
        <ele>245.75</ele>
        <time>2015-07-14T07:55:23.000Z</time>
      </trkpt>
      <trkpt lat="47.0351" lon="5.12698">
        <ele>246.23</ele>
        <time>2015-07-14T07:55:25.000Z</time>
      </trkpt>
      <trkpt lat="47.0351" lon="5.12682">
        <ele>246.72</ele>
        <time>2015-07-14T07:55:27.000Z</time>
      </trkpt>
      <trkpt lat="47.0351" lon="5.12666">
        <ele>246.72</ele>
        <time>2015-07-14T07:55:29.000Z</time>
      </trkpt>
      <trkpt lat="47.0351" lon="5.12651">
        <ele>246.23</ele>
        <time>2015-07-14T07:55:31.000Z</time>
      </trkpt>
      <trkpt lat="47.0351" lon="5.12635">
        <ele>246.23</ele>
        <time>2015-07-14T07:55:33.000Z</time>
      </trkpt>
      <trkpt lat="47.0351" lon="5.12619">
        <ele>246.23</ele>
        <time>2015-07-14T07:55:35.000Z</time>
      </trkpt>
      <trkpt lat="47.0351" lon="5.12604">
        <ele>246.23</ele>
        <time>2015-07-14T07:55:37.000Z</time>
      </trkpt>
      <trkpt lat="47.0351" lon="5.12588">
        <ele>245.75</ele>
        <time>2015-07-14T07:55:39.000Z</time>
      </trkpt>
      <trkpt lat="47.03511" lon="5.12573">
        <ele>246.23</ele>
        <time>2015-07-14T07:55:41.000Z</time>
      </trkpt>
      <trkpt lat="47.03511" lon="5.12559">
        <ele>245.75</ele>
        <time>2015-07-14T07:55:43.000Z</time>
      </trkpt>
      <trkpt lat="47.03511" lon="5.12545">
        <ele>247.2</ele>
        <time>2015-07-14T07:55:45.000Z</time>
      </trkpt>
      <trkpt lat="47.03511" lon="5.12531">
        <ele>245.27</ele>
        <time>2015-07-14T07:55:47.000Z</time>
      </trkpt>
      <trkpt lat="47.03511" lon="5.12516">
        <ele>245.27</ele>
        <time>2015-07-14T07:55:49.000Z</time>
      </trkpt>
      <trkpt lat="47.03511" lon="5.12501">
        <ele>245.75</ele>
        <time>2015-07-14T07:55:51.000Z</time>
      </trkpt>
      <trkpt lat="47.03511" lon="5.12487">
        <ele>245.75</ele>
        <time>2015-07-14T07:55:53.000Z</time>
      </trkpt>
      <trkpt lat="47.03511" lon="5.12472">
        <ele>245.27</ele>
        <time>2015-07-14T07:55:55.000Z</time>
      </trkpt>
      <trkpt lat="47.03511" lon="5.12459">
        <ele>245.75</ele>
        <time>2015-07-14T07:55:57.000Z</time>
      </trkpt>
      <trkpt lat="47.03511" lon="5.1244">
        <ele>245.75</ele>
        <time>2015-07-14T07:56:00.000Z</time>
      </trkpt>
      <trkpt lat="47.03511" lon="5.12423">
        <ele>246.23</ele>
        <time>2015-07-14T07:56:03.000Z</time>
      </trkpt>
      <trkpt lat="47.03507" lon="5.1241">
        <ele>246.23</ele>
        <time>2015-07-14T07:56:06.000Z</time>
      </trkpt>
      <trkpt lat="47.03497" lon="5.12405">
        <ele>246.23</ele>
        <time>2015-07-14T07:56:09.000Z</time>
      </trkpt>
      <trkpt lat="47.03485" lon="5.12404">
        <ele>246.23</ele>
        <time>2015-07-14T07:56:12.000Z</time>
      </trkpt>
      <trkpt lat="47.03473" lon="5.12401">
        <ele>246.23</ele>
        <time>2015-07-14T07:56:15.000Z</time>
      </trkpt>
      <trkpt lat="47.03459" lon="5.12399">
        <ele>246.23</ele>
        <time>2015-07-14T07:56:18.000Z</time>
      </trkpt>
      <trkpt lat="47.0345" lon="5.12398">
        <ele>245.75</ele>
        <time>2015-07-14T07:56:20.000Z</time>
      </trkpt>
      <trkpt lat="47.03441" lon="5.12396">
        <ele>245.75</ele>
        <time>2015-07-14T07:56:22.000Z</time>
      </trkpt>
      <trkpt lat="47.03432" lon="5.12395">
        <ele>245.75</ele>
        <time>2015-07-14T07:56:24.000Z</time>
      </trkpt>
      <trkpt lat="47.03422" lon="5.12394">
        <ele>246.23</ele>
        <time>2015-07-14T07:56:26.000Z</time>
      </trkpt>
      <trkpt lat="47.03412" lon="5.12392">
        <ele>246.23</ele>
        <time>2015-07-14T07:56:28.000Z</time>
      </trkpt>
      <trkpt lat="47.03402" lon="5.1239">
        <ele>246.23</ele>
        <time>2015-07-14T07:56:30.000Z</time>
      </trkpt>
      <trkpt lat="47.03393" lon="5.12388">
        <ele>246.23</ele>
        <time>2015-07-14T07:56:32.000Z</time>
      </trkpt>
      <trkpt lat="47.03383" lon="5.12387">
        <ele>245.75</ele>
        <time>2015-07-14T07:56:34.000Z</time>
      </trkpt>
      <trkpt lat="47.03374" lon="5.12386">
        <ele>245.75</ele>
        <time>2015-07-14T07:56:36.000Z</time>
      </trkpt>
      <trkpt lat="47.03364" lon="5.12384">
        <ele>245.75</ele>
        <time>2015-07-14T07:56:38.000Z</time>
      </trkpt>
      <trkpt lat="47.03354" lon="5.12381">
        <ele>246.23</ele>
        <time>2015-07-14T07:56:40.000Z</time>
      </trkpt>
      <trkpt lat="47.03345" lon="5.1238">
        <ele>246.23</ele>
        <time>2015-07-14T07:56:42.000Z</time>
      </trkpt>
      <trkpt lat="47.03335" lon="5.12378">
        <ele>246.23</ele>
        <time>2015-07-14T07:56:44.000Z</time>
      </trkpt>
      <trkpt lat="47.03326" lon="5.12377">
        <ele>246.23</ele>
        <time>2015-07-14T07:56:46.000Z</time>
      </trkpt>
      <trkpt lat="47.03316" lon="5.12375">
        <ele>245.75</ele>
        <time>2015-07-14T07:56:48.000Z</time>
      </trkpt>
      <trkpt lat="47.03306" lon="5.12374">
        <ele>246.23</ele>
        <time>2015-07-14T07:56:50.000Z</time>
      </trkpt>
      <trkpt lat="47.03297" lon="5.12372">
        <ele>246.23</ele>
        <time>2015-07-14T07:56:52.000Z</time>
      </trkpt>
      <trkpt lat="47.03288" lon="5.12371">
        <ele>246.23</ele>
        <time>2015-07-14T07:56:54.000Z</time>
      </trkpt>
      <trkpt lat="47.03278" lon="5.12369">
        <ele>246.23</ele>
        <time>2015-07-14T07:56:56.000Z</time>
      </trkpt>
      <trkpt lat="47.03268" lon="5.12367">
        <ele>246.23</ele>
        <time>2015-07-14T07:56:58.000Z</time>
      </trkpt>
      <trkpt lat="47.03258" lon="5.12365">
        <ele>246.23</ele>
        <time>2015-07-14T07:57:00.000Z</time>
      </trkpt>
      <trkpt lat="47.03249" lon="5.12364">
        <ele>246.23</ele>
        <time>2015-07-14T07:57:02.000Z</time>
      </trkpt>
      <trkpt lat="47.0324" lon="5.12362">
        <ele>246.72</ele>
        <time>2015-07-14T07:57:04.000Z</time>
      </trkpt>
      <trkpt lat="47.0323" lon="5.1236">
        <ele>246.72</ele>
        <time>2015-07-14T07:57:06.000Z</time>
      </trkpt>
      <trkpt lat="47.03221" lon="5.12359">
        <ele>246.23</ele>
        <time>2015-07-14T07:57:08.000Z</time>
      </trkpt>
      <trkpt lat="47.03211" lon="5.12358">
        <ele>246.23</ele>
        <time>2015-07-14T07:57:10.000Z</time>
      </trkpt>
      <trkpt lat="47.03202" lon="5.12356">
        <ele>246.23</ele>
        <time>2015-07-14T07:57:12.000Z</time>
      </trkpt>
      <trkpt lat="47.03192" lon="5.12355">
        <ele>246.23</ele>
        <time>2015-07-14T07:57:14.000Z</time>
      </trkpt>
      <trkpt lat="47.03182" lon="5.12352">
        <ele>246.23</ele>
        <time>2015-07-14T07:57:16.000Z</time>
      </trkpt>
      <trkpt lat="47.03172" lon="5.12351">
        <ele>246.23</ele>
        <time>2015-07-14T07:57:18.000Z</time>
      </trkpt>
      <trkpt lat="47.03162" lon="5.12349">
        <ele>246.72</ele>
        <time>2015-07-14T07:57:20.000Z</time>
      </trkpt>
      <trkpt lat="47.03153" lon="5.12348">
        <ele>246.23</ele>
        <time>2015-07-14T07:57:22.000Z</time>
      </trkpt>
      <trkpt lat="47.03141" lon="5.12346">
        <ele>245.75</ele>
        <time>2015-07-14T07:57:25.000Z</time>
      </trkpt>
      <trkpt lat="47.0313" lon="5.12342">
        <ele>246.23</ele>
        <time>2015-07-14T07:57:28.000Z</time>
      </trkpt>
      <trkpt lat="47.03123" lon="5.12329">
        <ele>245.75</ele>
        <time>2015-07-14T07:57:31.000Z</time>
      </trkpt>
      <trkpt lat="47.03121" lon="5.12313">
        <ele>245.75</ele>
        <time>2015-07-14T07:57:34.000Z</time>
      </trkpt>
      <trkpt lat="47.03122" lon="5.12297">
        <ele>245.75</ele>
        <time>2015-07-14T07:57:37.000Z</time>
      </trkpt>
      <trkpt lat="47.03123" lon="5.12279">
        <ele>245.27</ele>
        <time>2015-07-14T07:57:40.000Z</time>
      </trkpt>
      <trkpt lat="47.03124" lon="5.12261">
        <ele>244.79</ele>
        <time>2015-07-14T07:57:43.000Z</time>
      </trkpt>
      <trkpt lat="47.03125" lon="5.12243">
        <ele>245.27</ele>
        <time>2015-07-14T07:57:46.000Z</time>
      </trkpt>
      <trkpt lat="47.03125" lon="5.12224">
        <ele>245.27</ele>
        <time>2015-07-14T07:57:49.000Z</time>
      </trkpt>
      <trkpt lat="47.03127" lon="5.12204">
        <ele>244.79</ele>
        <time>2015-07-14T07:57:52.000Z</time>
      </trkpt>
      <trkpt lat="47.03128" lon="5.12185">
        <ele>246.23</ele>
        <time>2015-07-14T07:57:55.000Z</time>
      </trkpt>
      <trkpt lat="47.03128" lon="5.12165">
        <ele>245.75</ele>
        <time>2015-07-14T07:57:58.000Z</time>
      </trkpt>
      <trkpt lat="47.03128" lon="5.12152">
        <ele>246.23</ele>
        <time>2015-07-14T07:58:00.000Z</time>
      </trkpt>
      <trkpt lat="47.03127" lon="5.12139">
        <ele>246.23</ele>
        <time>2015-07-14T07:58:02.000Z</time>
      </trkpt>
      <trkpt lat="47.03127" lon="5.12125">
        <ele>246.23</ele>
        <time>2015-07-14T07:58:04.000Z</time>
      </trkpt>
      <trkpt lat="47.03128" lon="5.12111">
        <ele>245.75</ele>
        <time>2015-07-14T07:58:06.000Z</time>
      </trkpt>
      <trkpt lat="47.03128" lon="5.12098">
        <ele>246.23</ele>
        <time>2015-07-14T07:58:08.000Z</time>
      </trkpt>
      <trkpt lat="47.03129" lon="5.12083">
        <ele>245.75</ele>
        <time>2015-07-14T07:58:10.000Z</time>
      </trkpt>
      <trkpt lat="47.0313" lon="5.12064">
        <ele>245.75</ele>
        <time>2015-07-14T07:58:13.000Z</time>
      </trkpt>
      <trkpt lat="47.03131" lon="5.12047">
        <ele>245.75</ele>
        <time>2015-07-14T07:58:16.000Z</time>
      </trkpt>
      <trkpt lat="47.03132" lon="5.12029">
        <ele>245.75</ele>
        <time>2015-07-14T07:58:19.000Z</time>
      </trkpt>
      <trkpt lat="47.03134" lon="5.1201">
        <ele>245.75</ele>
        <time>2015-07-14T07:58:22.000Z</time>
      </trkpt>
      <trkpt lat="47.03134" lon="5.11991">
        <ele>245.75</ele>
        <time>2015-07-14T07:58:25.000Z</time>
      </trkpt>
      <trkpt lat="47.03135" lon="5.11973">
        <ele>245.75</ele>
        <time>2015-07-14T07:58:28.000Z</time>
      </trkpt>
      <trkpt lat="47.03136" lon="5.11954">
        <ele>246.23</ele>
        <time>2015-07-14T07:58:31.000Z</time>
      </trkpt>
      <trkpt lat="47.03136" lon="5.11936">
        <ele>246.23</ele>
        <time>2015-07-14T07:58:34.000Z</time>
      </trkpt>
      <trkpt lat="47.03136" lon="5.11918">
        <ele>246.72</ele>
        <time>2015-07-14T07:58:37.000Z</time>
      </trkpt>
      <trkpt lat="47.03137" lon="5.11899">
        <ele>246.23</ele>
        <time>2015-07-14T07:58:40.000Z</time>
      </trkpt>
      <trkpt lat="47.03138" lon="5.1188">
        <ele>246.23</ele>
        <time>2015-07-14T07:58:43.000Z</time>
      </trkpt>
      <trkpt lat="47.03138" lon="5.11861">
        <ele>245.75</ele>
        <time>2015-07-14T07:58:46.000Z</time>
      </trkpt>
      <trkpt lat="47.03138" lon="5.11841">
        <ele>245.27</ele>
        <time>2015-07-14T07:58:49.000Z</time>
      </trkpt>
      <trkpt lat="47.03139" lon="5.11823">
        <ele>245.75</ele>
        <time>2015-07-14T07:58:52.000Z</time>
      </trkpt>
      <trkpt lat="47.03139" lon="5.11806">
        <ele>245.75</ele>
        <time>2015-07-14T07:58:55.000Z</time>
      </trkpt>
      <trkpt lat="47.03141" lon="5.1179">
        <ele>245.75</ele>
        <time>2015-07-14T07:58:58.000Z</time>
      </trkpt>
      <trkpt lat="47.03141" lon="5.11777">
        <ele>246.23</ele>
        <time>2015-07-14T07:59:01.000Z</time>
      </trkpt>
      <trkpt lat="47.03136" lon="5.11766">
        <ele>246.23</ele>
        <time>2015-07-14T07:59:05.000Z</time>
      </trkpt>
      <trkpt lat="47.03128" lon="5.1176">
        <ele>246.72</ele>
        <time>2015-07-14T07:59:09.000Z</time>
      </trkpt>
      <trkpt lat="47.03117" lon="5.11761">
        <ele>246.23</ele>
        <time>2015-07-14T07:59:14.000Z</time>
      </trkpt>
      <trkpt lat="47.03107" lon="5.11762">
        <ele>246.23</ele>
        <time>2015-07-14T07:59:20.000Z</time>
      </trkpt>
      <trkpt lat="47.03094" lon="5.1176">
        <ele>245.75</ele>
        <time>2015-07-14T07:59:24.000Z</time>
      </trkpt>
      <trkpt lat="47.03083" lon="5.11757">
        <ele>246.72</ele>
        <time>2015-07-14T07:59:27.000Z</time>
      </trkpt>
      <trkpt lat="47.03072" lon="5.11756">
        <ele>246.23</ele>
        <time>2015-07-14T07:59:30.000Z</time>
      </trkpt>
      <trkpt lat="47.03062" lon="5.11754">
        <ele>246.23</ele>
        <time>2015-07-14T07:59:33.000Z</time>
      </trkpt>
      <trkpt lat="47.03051" lon="5.11752">
        <ele>246.23</ele>
        <time>2015-07-14T07:59:36.000Z</time>
      </trkpt>
      <trkpt lat="47.0304" lon="5.1175">
        <ele>246.23</ele>
        <time>2015-07-14T07:59:39.000Z</time>
      </trkpt>
      <trkpt lat="47.0303" lon="5.11749">
        <ele>246.23</ele>
        <time>2015-07-14T07:59:42.000Z</time>
      </trkpt>
      <trkpt lat="47.0302" lon="5.11746">
        <ele>246.23</ele>
        <time>2015-07-14T07:59:45.000Z</time>
      </trkpt>
      <trkpt lat="47.0301" lon="5.11744">
        <ele>246.23</ele>
        <time>2015-07-14T07:59:48.000Z</time>
      </trkpt>
      <trkpt lat="47.02999" lon="5.11741">
        <ele>246.72</ele>
        <time>2015-07-14T07:59:51.000Z</time>
      </trkpt>
      <trkpt lat="47.02989" lon="5.11739">
        <ele>246.72</ele>
        <time>2015-07-14T07:59:54.000Z</time>
      </trkpt>
      <trkpt lat="47.02978" lon="5.11737">
        <ele>246.23</ele>
        <time>2015-07-14T07:59:57.000Z</time>
      </trkpt>
      <trkpt lat="47.02967" lon="5.11735">
        <ele>246.72</ele>
        <time>2015-07-14T08:00:00.000Z</time>
      </trkpt>
      <trkpt lat="47.02955" lon="5.11732">
        <ele>245.75</ele>
        <time>2015-07-14T08:00:03.000Z</time>
      </trkpt>
      <trkpt lat="47.02943" lon="5.11729">
        <ele>245.75</ele>
        <time>2015-07-14T08:00:06.000Z</time>
      </trkpt>
      <trkpt lat="47.02931" lon="5.11726">
        <ele>245.27</ele>
        <time>2015-07-14T08:00:09.000Z</time>
      </trkpt>
      <trkpt lat="47.02918" lon="5.11722">
        <ele>245.75</ele>
        <time>2015-07-14T08:00:12.000Z</time>
      </trkpt>
      <trkpt lat="47.02906" lon="5.11719">
        <ele>245.27</ele>
        <time>2015-07-14T08:00:15.000Z</time>
      </trkpt>
      <trkpt lat="47.02897" lon="5.11716">
        <ele>246.23</ele>
        <time>2015-07-14T08:00:17.000Z</time>
      </trkpt>
      <trkpt lat="47.02888" lon="5.11714">
        <ele>246.72</ele>
        <time>2015-07-14T08:00:19.000Z</time>
      </trkpt>
      <trkpt lat="47.02875" lon="5.1171">
        <ele>246.23</ele>
        <time>2015-07-14T08:00:22.000Z</time>
      </trkpt>
      <trkpt lat="47.02862" lon="5.11706">
        <ele>246.23</ele>
        <time>2015-07-14T08:00:25.000Z</time>
      </trkpt>
      <trkpt lat="47.02849" lon="5.11703">
        <ele>246.72</ele>
        <time>2015-07-14T08:00:28.000Z</time>
      </trkpt>
      <trkpt lat="47.02836" lon="5.117">
        <ele>246.23</ele>
        <time>2015-07-14T08:00:31.000Z</time>
      </trkpt>
      <trkpt lat="47.02827" lon="5.11698">
        <ele>246.72</ele>
        <time>2015-07-14T08:00:33.000Z</time>
      </trkpt>
      <trkpt lat="47.02814" lon="5.11696">
        <ele>246.72</ele>
        <time>2015-07-14T08:00:36.000Z</time>
      </trkpt>
      <trkpt lat="47.02801" lon="5.11695">
        <ele>246.72</ele>
        <time>2015-07-14T08:00:39.000Z</time>
      </trkpt>
      <trkpt lat="47.02792" lon="5.11695">
        <ele>246.72</ele>
        <time>2015-07-14T08:00:41.000Z</time>
      </trkpt>
      <trkpt lat="47.02783" lon="5.11695">
        <ele>246.72</ele>
        <time>2015-07-14T08:00:43.000Z</time>
      </trkpt>
      <trkpt lat="47.02774" lon="5.11695">
        <ele>247.2</ele>
        <time>2015-07-14T08:00:45.000Z</time>
      </trkpt>
      <trkpt lat="47.02765" lon="5.11695">
        <ele>246.72</ele>
        <time>2015-07-14T08:00:47.000Z</time>
      </trkpt>
      <trkpt lat="47.02755" lon="5.11695">
        <ele>246.72</ele>
        <time>2015-07-14T08:00:49.000Z</time>
      </trkpt>
      <trkpt lat="47.02747" lon="5.11695">
        <ele>246.72</ele>
        <time>2015-07-14T08:00:51.000Z</time>
      </trkpt>
      <trkpt lat="47.02737" lon="5.11697">
        <ele>246.72</ele>
        <time>2015-07-14T08:00:53.000Z</time>
      </trkpt>
      <trkpt lat="47.02728" lon="5.11699">
        <ele>246.72</ele>
        <time>2015-07-14T08:00:55.000Z</time>
      </trkpt>
      <trkpt lat="47.02719" lon="5.11702">
        <ele>246.23</ele>
        <time>2015-07-14T08:00:57.000Z</time>
      </trkpt>
      <trkpt lat="47.0271" lon="5.11705">
        <ele>246.72</ele>
        <time>2015-07-14T08:00:59.000Z</time>
      </trkpt>
      <trkpt lat="47.02701" lon="5.11707">
        <ele>246.23</ele>
        <time>2015-07-14T08:01:01.000Z</time>
      </trkpt>
      <trkpt lat="47.02692" lon="5.1171">
        <ele>246.72</ele>
        <time>2015-07-14T08:01:03.000Z</time>
      </trkpt>
      <trkpt lat="47.02679" lon="5.11713">
        <ele>246.23</ele>
        <time>2015-07-14T08:01:06.000Z</time>
      </trkpt>
      <trkpt lat="47.02666" lon="5.11717">
        <ele>246.23</ele>
        <time>2015-07-14T08:01:09.000Z</time>
      </trkpt>
      <trkpt lat="47.02654" lon="5.11722">
        <ele>246.23</ele>
        <time>2015-07-14T08:01:12.000Z</time>
      </trkpt>
      <trkpt lat="47.02642" lon="5.11727">
        <ele>246.23</ele>
        <time>2015-07-14T08:01:15.000Z</time>
      </trkpt>
      <trkpt lat="47.02629" lon="5.11733">
        <ele>246.23</ele>
        <time>2015-07-14T08:01:18.000Z</time>
      </trkpt>
      <trkpt lat="47.02618" lon="5.1174">
        <ele>246.23</ele>
        <time>2015-07-14T08:01:21.000Z</time>
      </trkpt>
      <trkpt lat="47.02606" lon="5.11746">
        <ele>246.23</ele>
        <time>2015-07-14T08:01:24.000Z</time>
      </trkpt>
      <trkpt lat="47.02594" lon="5.11752">
        <ele>246.23</ele>
        <time>2015-07-14T08:01:27.000Z</time>
      </trkpt>
      <trkpt lat="47.02582" lon="5.11759">
        <ele>246.23</ele>
        <time>2015-07-14T08:01:30.000Z</time>
      </trkpt>
      <trkpt lat="47.02574" lon="5.11764">
        <ele>246.72</ele>
        <time>2015-07-14T08:01:32.000Z</time>
      </trkpt>
      <trkpt lat="47.02565" lon="5.11768">
        <ele>246.72</ele>
        <time>2015-07-14T08:01:34.000Z</time>
      </trkpt>
      <trkpt lat="47.02552" lon="5.11775">
        <ele>246.23</ele>
        <time>2015-07-14T08:01:37.000Z</time>
      </trkpt>
      <trkpt lat="47.02544" lon="5.1178">
        <ele>246.23</ele>
        <time>2015-07-14T08:01:39.000Z</time>
      </trkpt>
      <trkpt lat="47.02536" lon="5.11785">
        <ele>246.23</ele>
        <time>2015-07-14T08:01:41.000Z</time>
      </trkpt>
      <trkpt lat="47.02527" lon="5.11789">
        <ele>246.72</ele>
        <time>2015-07-14T08:01:43.000Z</time>
      </trkpt>
      <trkpt lat="47.02518" lon="5.11795">
        <ele>245.75</ele>
        <time>2015-07-14T08:01:45.000Z</time>
      </trkpt>
      <trkpt lat="47.02509" lon="5.118">
        <ele>246.23</ele>
        <time>2015-07-14T08:01:47.000Z</time>
      </trkpt>
      <trkpt lat="47.02501" lon="5.11805">
        <ele>246.23</ele>
        <time>2015-07-14T08:01:49.000Z</time>
      </trkpt>
      <trkpt lat="47.02492" lon="5.1181">
        <ele>246.23</ele>
        <time>2015-07-14T08:01:51.000Z</time>
      </trkpt>
      <trkpt lat="47.02483" lon="5.11816">
        <ele>245.75</ele>
        <time>2015-07-14T08:01:53.000Z</time>
      </trkpt>
      <trkpt lat="47.02475" lon="5.11822">
        <ele>246.23</ele>
        <time>2015-07-14T08:01:55.000Z</time>
      </trkpt>
      <trkpt lat="47.02467" lon="5.11827">
        <ele>246.23</ele>
        <time>2015-07-14T08:01:57.000Z</time>
      </trkpt>
      <trkpt lat="47.02458" lon="5.11833">
        <ele>246.23</ele>
        <time>2015-07-14T08:01:59.000Z</time>
      </trkpt>
      <trkpt lat="47.02449" lon="5.11838">
        <ele>246.23</ele>
        <time>2015-07-14T08:02:01.000Z</time>
      </trkpt>
      <trkpt lat="47.02441" lon="5.11844">
        <ele>246.23</ele>
        <time>2015-07-14T08:02:03.000Z</time>
      </trkpt>
      <trkpt lat="47.02432" lon="5.1185">
        <ele>246.23</ele>
        <time>2015-07-14T08:02:05.000Z</time>
      </trkpt>
      <trkpt lat="47.02423" lon="5.11856">
        <ele>246.23</ele>
        <time>2015-07-14T08:02:07.000Z</time>
      </trkpt>
      <trkpt lat="47.02414" lon="5.11863">
        <ele>246.23</ele>
        <time>2015-07-14T08:02:09.000Z</time>
      </trkpt>
      <trkpt lat="47.02405" lon="5.1187">
        <ele>246.23</ele>
        <time>2015-07-14T08:02:11.000Z</time>
      </trkpt>
      <trkpt lat="47.02396" lon="5.11877">
        <ele>246.23</ele>
        <time>2015-07-14T08:02:13.000Z</time>
      </trkpt>
      <trkpt lat="47.02386" lon="5.11884">
        <ele>245.75</ele>
        <time>2015-07-14T08:02:15.000Z</time>
      </trkpt>
      <trkpt lat="47.02378" lon="5.11891">
        <ele>245.75</ele>
        <time>2015-07-14T08:02:17.000Z</time>
      </trkpt>
      <trkpt lat="47.02369" lon="5.11897">
        <ele>245.75</ele>
        <time>2015-07-14T08:02:19.000Z</time>
      </trkpt>
      <trkpt lat="47.0236" lon="5.11903">
        <ele>245.75</ele>
        <time>2015-07-14T08:02:21.000Z</time>
      </trkpt>
      <trkpt lat="47.02352" lon="5.1191">
        <ele>245.75</ele>
        <time>2015-07-14T08:02:23.000Z</time>
      </trkpt>
      <trkpt lat="47.02343" lon="5.11915">
        <ele>245.75</ele>
        <time>2015-07-14T08:02:25.000Z</time>
      </trkpt>
      <trkpt lat="47.02334" lon="5.11923">
        <ele>245.75</ele>
        <time>2015-07-14T08:02:27.000Z</time>
      </trkpt>
      <trkpt lat="47.02326" lon="5.11931">
        <ele>245.75</ele>
        <time>2015-07-14T08:02:29.000Z</time>
      </trkpt>
      <trkpt lat="47.02317" lon="5.11938">
        <ele>245.75</ele>
        <time>2015-07-14T08:02:31.000Z</time>
      </trkpt>
      <trkpt lat="47.02309" lon="5.11946">
        <ele>245.75</ele>
        <time>2015-07-14T08:02:33.000Z</time>
      </trkpt>
      <trkpt lat="47.02301" lon="5.11953">
        <ele>245.75</ele>
        <time>2015-07-14T08:02:35.000Z</time>
      </trkpt>
      <trkpt lat="47.02293" lon="5.11962">
        <ele>245.75</ele>
        <time>2015-07-14T08:02:37.000Z</time>
      </trkpt>
      <trkpt lat="47.02285" lon="5.1197">
        <ele>245.75</ele>
        <time>2015-07-14T08:02:39.000Z</time>
      </trkpt>
      <trkpt lat="47.02278" lon="5.11977">
        <ele>245.75</ele>
        <time>2015-07-14T08:02:41.000Z</time>
      </trkpt>
      <trkpt lat="47.0227" lon="5.11985">
        <ele>245.75</ele>
        <time>2015-07-14T08:02:43.000Z</time>
      </trkpt>
      <trkpt lat="47.02259" lon="5.11996">
        <ele>245.75</ele>
        <time>2015-07-14T08:02:46.000Z</time>
      </trkpt>
      <trkpt lat="47.02248" lon="5.12007">
        <ele>245.27</ele>
        <time>2015-07-14T08:02:49.000Z</time>
      </trkpt>
      <trkpt lat="47.02238" lon="5.12017">
        <ele>245.75</ele>
        <time>2015-07-14T08:02:52.000Z</time>
      </trkpt>
      <trkpt lat="47.02228" lon="5.12028">
        <ele>246.23</ele>
        <time>2015-07-14T08:02:55.000Z</time>
      </trkpt>
      <trkpt lat="47.02217" lon="5.1204">
        <ele>245.75</ele>
        <time>2015-07-14T08:02:58.000Z</time>
      </trkpt>
      <trkpt lat="47.02211" lon="5.12048">
        <ele>245.75</ele>
        <time>2015-07-14T08:03:00.000Z</time>
      </trkpt>
      <trkpt lat="47.02204" lon="5.12057">
        <ele>245.75</ele>
        <time>2015-07-14T08:03:02.000Z</time>
      </trkpt>
      <trkpt lat="47.02197" lon="5.12067">
        <ele>245.75</ele>
        <time>2015-07-14T08:03:04.000Z</time>
      </trkpt>
      <trkpt lat="47.02191" lon="5.12075">
        <ele>245.75</ele>
        <time>2015-07-14T08:03:06.000Z</time>
      </trkpt>
      <trkpt lat="47.02182" lon="5.1209">
        <ele>245.75</ele>
        <time>2015-07-14T08:03:09.000Z</time>
      </trkpt>
      <trkpt lat="47.02173" lon="5.12104">
        <ele>245.75</ele>
        <time>2015-07-14T08:03:12.000Z</time>
      </trkpt>
      <trkpt lat="47.02167" lon="5.12114">
        <ele>245.75</ele>
        <time>2015-07-14T08:03:14.000Z</time>
      </trkpt>
      <trkpt lat="47.02161" lon="5.12125">
        <ele>245.75</ele>
        <time>2015-07-14T08:03:16.000Z</time>
      </trkpt>
      <trkpt lat="47.02155" lon="5.12137">
        <ele>245.75</ele>
        <time>2015-07-14T08:03:18.000Z</time>
      </trkpt>
      <trkpt lat="47.02149" lon="5.12148">
        <ele>245.75</ele>
        <time>2015-07-14T08:03:20.000Z</time>
      </trkpt>
      <trkpt lat="47.02143" lon="5.12158">
        <ele>245.75</ele>
        <time>2015-07-14T08:03:22.000Z</time>
      </trkpt>
      <trkpt lat="47.02138" lon="5.12168">
        <ele>245.75</ele>
        <time>2015-07-14T08:03:24.000Z</time>
      </trkpt>
      <trkpt lat="47.02132" lon="5.12179">
        <ele>245.75</ele>
        <time>2015-07-14T08:03:26.000Z</time>
      </trkpt>
      <trkpt lat="47.02126" lon="5.12195">
        <ele>245.75</ele>
        <time>2015-07-14T08:03:29.000Z</time>
      </trkpt>
      <trkpt lat="47.02119" lon="5.12211">
        <ele>245.75</ele>
        <time>2015-07-14T08:03:32.000Z</time>
      </trkpt>
      <trkpt lat="47.02114" lon="5.12228">
        <ele>245.75</ele>
        <time>2015-07-14T08:03:35.000Z</time>
      </trkpt>
      <trkpt lat="47.0211" lon="5.12245">
        <ele>245.75</ele>
        <time>2015-07-14T08:03:38.000Z</time>
      </trkpt>
      <trkpt lat="47.02105" lon="5.12264">
        <ele>246.23</ele>
        <time>2015-07-14T08:03:41.000Z</time>
      </trkpt>
      <trkpt lat="47.02101" lon="5.12282">
        <ele>245.27</ele>
        <time>2015-07-14T08:03:44.000Z</time>
      </trkpt>
      <trkpt lat="47.02095" lon="5.12299">
        <ele>245.27</ele>
        <time>2015-07-14T08:03:47.000Z</time>
      </trkpt>
      <trkpt lat="47.02089" lon="5.12317">
        <ele>245.27</ele>
        <time>2015-07-14T08:03:50.000Z</time>
      </trkpt>
      <trkpt lat="47.02084" lon="5.12334">
        <ele>245.27</ele>
        <time>2015-07-14T08:03:53.000Z</time>
      </trkpt>
      <trkpt lat="47.02079" lon="5.12351">
        <ele>245.27</ele>
        <time>2015-07-14T08:03:56.000Z</time>
      </trkpt>
      <trkpt lat="47.02073" lon="5.12368">
        <ele>246.23</ele>
        <time>2015-07-14T08:03:59.000Z</time>
      </trkpt>
      <trkpt lat="47.02068" lon="5.1238">
        <ele>245.75</ele>
        <time>2015-07-14T08:04:01.000Z</time>
      </trkpt>
      <trkpt lat="47.02065" lon="5.12392">
        <ele>246.23</ele>
        <time>2015-07-14T08:04:03.000Z</time>
      </trkpt>
      <trkpt lat="47.0206" lon="5.12403">
        <ele>246.23</ele>
        <time>2015-07-14T08:04:05.000Z</time>
      </trkpt>
      <trkpt lat="47.02056" lon="5.12416">
        <ele>245.75</ele>
        <time>2015-07-14T08:04:07.000Z</time>
      </trkpt>
      <trkpt lat="47.02049" lon="5.12433">
        <ele>245.75</ele>
        <time>2015-07-14T08:04:10.000Z</time>
      </trkpt>
      <trkpt lat="47.02045" lon="5.12446">
        <ele>245.75</ele>
        <time>2015-07-14T08:04:12.000Z</time>
      </trkpt>
      <trkpt lat="47.02041" lon="5.12458">
        <ele>246.23</ele>
        <time>2015-07-14T08:04:14.000Z</time>
      </trkpt>
      <trkpt lat="47.02037" lon="5.1247">
        <ele>246.23</ele>
        <time>2015-07-14T08:04:16.000Z</time>
      </trkpt>
      <trkpt lat="47.02033" lon="5.12482">
        <ele>245.75</ele>
        <time>2015-07-14T08:04:18.000Z</time>
      </trkpt>
      <trkpt lat="47.02028" lon="5.12494">
        <ele>246.23</ele>
        <time>2015-07-14T08:04:20.000Z</time>
      </trkpt>
      <trkpt lat="47.02024" lon="5.12506">
        <ele>245.75</ele>
        <time>2015-07-14T08:04:22.000Z</time>
      </trkpt>
      <trkpt lat="47.0202" lon="5.12519">
        <ele>246.23</ele>
        <time>2015-07-14T08:04:24.000Z</time>
      </trkpt>
      <trkpt lat="47.02016" lon="5.12531">
        <ele>245.75</ele>
        <time>2015-07-14T08:04:26.000Z</time>
      </trkpt>
      <trkpt lat="47.02011" lon="5.12543">
        <ele>245.75</ele>
        <time>2015-07-14T08:04:28.000Z</time>
      </trkpt>
      <trkpt lat="47.02007" lon="5.12556">
        <ele>245.75</ele>
        <time>2015-07-14T08:04:30.000Z</time>
      </trkpt>
      <trkpt lat="47.02003" lon="5.12568">
        <ele>245.75</ele>
        <time>2015-07-14T08:04:32.000Z</time>
      </trkpt>
      <trkpt lat="47.01999" lon="5.1258">
        <ele>246.23</ele>
        <time>2015-07-14T08:04:34.000Z</time>
      </trkpt>
      <trkpt lat="47.01994" lon="5.12592">
        <ele>245.75</ele>
        <time>2015-07-14T08:04:36.000Z</time>
      </trkpt>
      <trkpt lat="47.0199" lon="5.12605">
        <ele>245.75</ele>
        <time>2015-07-14T08:04:38.000Z</time>
      </trkpt>
      <trkpt lat="47.01985" lon="5.12618">
        <ele>245.75</ele>
        <time>2015-07-14T08:04:40.000Z</time>
      </trkpt>
      <trkpt lat="47.01981" lon="5.1263">
        <ele>246.23</ele>
        <time>2015-07-14T08:04:42.000Z</time>
      </trkpt>
      <trkpt lat="47.01976" lon="5.12643">
        <ele>246.23</ele>
        <time>2015-07-14T08:04:44.000Z</time>
      </trkpt>
      <trkpt lat="47.01972" lon="5.12655">
        <ele>246.23</ele>
        <time>2015-07-14T08:04:46.000Z</time>
      </trkpt>
      <trkpt lat="47.01968" lon="5.12667">
        <ele>245.75</ele>
        <time>2015-07-14T08:04:48.000Z</time>
      </trkpt>
      <trkpt lat="47.01964" lon="5.12678">
        <ele>246.23</ele>
        <time>2015-07-14T08:04:50.000Z</time>
      </trkpt>
      <trkpt lat="47.01957" lon="5.12696">
        <ele>246.23</ele>
        <time>2015-07-14T08:04:53.000Z</time>
      </trkpt>
      <trkpt lat="47.01953" lon="5.12707">
        <ele>246.23</ele>
        <time>2015-07-14T08:04:55.000Z</time>
      </trkpt>
      <trkpt lat="47.01949" lon="5.12719">
        <ele>245.75</ele>
        <time>2015-07-14T08:04:57.000Z</time>
      </trkpt>
      <trkpt lat="47.01944" lon="5.12736">
        <ele>246.23</ele>
        <time>2015-07-14T08:05:00.000Z</time>
      </trkpt>
      <trkpt lat="47.01937" lon="5.12751">
        <ele>246.23</ele>
        <time>2015-07-14T08:05:03.000Z</time>
      </trkpt>
      <trkpt lat="47.01931" lon="5.12767">
        <ele>245.75</ele>
        <time>2015-07-14T08:05:06.000Z</time>
      </trkpt>
      <trkpt lat="47.01926" lon="5.12782">
        <ele>246.23</ele>
        <time>2015-07-14T08:05:09.000Z</time>
      </trkpt>
      <trkpt lat="47.01922" lon="5.12798">
        <ele>246.23</ele>
        <time>2015-07-14T08:05:12.000Z</time>
      </trkpt>
      <trkpt lat="47.01917" lon="5.12812">
        <ele>244.31</ele>
        <time>2015-07-14T08:05:15.000Z</time>
      </trkpt>
      <trkpt lat="47.01911" lon="5.12823">
        <ele>245.75</ele>
        <time>2015-07-14T08:05:18.000Z</time>
      </trkpt>
      <trkpt lat="47.01902" lon="5.12834">
        <ele>245.27</ele>
        <time>2015-07-14T08:05:21.000Z</time>
      </trkpt>
      <trkpt lat="47.01892" lon="5.12845">
        <ele>245.27</ele>
        <time>2015-07-14T08:05:24.000Z</time>
      </trkpt>
      <trkpt lat="47.01884" lon="5.12854">
        <ele>245.27</ele>
        <time>2015-07-14T08:05:26.000Z</time>
      </trkpt>
      <trkpt lat="47.01878" lon="5.12863">
        <ele>245.27</ele>
        <time>2015-07-14T08:05:28.000Z</time>
      </trkpt>
      <trkpt lat="47.01872" lon="5.12873">
        <ele>246.23</ele>
        <time>2015-07-14T08:05:30.000Z</time>
      </trkpt>
      <trkpt lat="47.01865" lon="5.12882">
        <ele>246.23</ele>
        <time>2015-07-14T08:05:32.000Z</time>
      </trkpt>
      <trkpt lat="47.01857" lon="5.12892">
        <ele>246.23</ele>
        <time>2015-07-14T08:05:34.000Z</time>
      </trkpt>
      <trkpt lat="47.0185" lon="5.12901">
        <ele>246.23</ele>
        <time>2015-07-14T08:05:36.000Z</time>
      </trkpt>
      <trkpt lat="47.01842" lon="5.12909">
        <ele>246.23</ele>
        <time>2015-07-14T08:05:38.000Z</time>
      </trkpt>
      <trkpt lat="47.01834" lon="5.12915">
        <ele>246.23</ele>
        <time>2015-07-14T08:05:40.000Z</time>
      </trkpt>
      <trkpt lat="47.01825" lon="5.12921">
        <ele>246.23</ele>
        <time>2015-07-14T08:05:42.000Z</time>
      </trkpt>
      <trkpt lat="47.01817" lon="5.12927">
        <ele>246.23</ele>
        <time>2015-07-14T08:05:44.000Z</time>
      </trkpt>
      <trkpt lat="47.01807" lon="5.12932">
        <ele>246.23</ele>
        <time>2015-07-14T08:05:46.000Z</time>
      </trkpt>
      <trkpt lat="47.01798" lon="5.12938">
        <ele>246.23</ele>
        <time>2015-07-14T08:05:48.000Z</time>
      </trkpt>
      <trkpt lat="47.01789" lon="5.12944">
        <ele>246.23</ele>
        <time>2015-07-14T08:05:50.000Z</time>
      </trkpt>
      <trkpt lat="47.0178" lon="5.12949">
        <ele>246.23</ele>
        <time>2015-07-14T08:05:52.000Z</time>
      </trkpt>
      <trkpt lat="47.01771" lon="5.12954">
        <ele>246.23</ele>
        <time>2015-07-14T08:05:54.000Z</time>
      </trkpt>
      <trkpt lat="47.01762" lon="5.12959">
        <ele>246.72</ele>
        <time>2015-07-14T08:05:56.000Z</time>
      </trkpt>
      <trkpt lat="47.01754" lon="5.12965">
        <ele>246.23</ele>
        <time>2015-07-14T08:05:58.000Z</time>
      </trkpt>
      <trkpt lat="47.01744" lon="5.12971">
        <ele>246.23</ele>
        <time>2015-07-14T08:06:00.000Z</time>
      </trkpt>
      <trkpt lat="47.01735" lon="5.12977">
        <ele>246.23</ele>
        <time>2015-07-14T08:06:02.000Z</time>
      </trkpt>
      <trkpt lat="47.01726" lon="5.12983">
        <ele>246.23</ele>
        <time>2015-07-14T08:06:04.000Z</time>
      </trkpt>
      <trkpt lat="47.01717" lon="5.12989">
        <ele>246.23</ele>
        <time>2015-07-14T08:06:06.000Z</time>
      </trkpt>
      <trkpt lat="47.01707" lon="5.12995">
        <ele>246.23</ele>
        <time>2015-07-14T08:06:08.000Z</time>
      </trkpt>
      <trkpt lat="47.01699" lon="5.13001">
        <ele>246.23</ele>
        <time>2015-07-14T08:06:10.000Z</time>
      </trkpt>
      <trkpt lat="47.0169" lon="5.13007">
        <ele>246.23</ele>
        <time>2015-07-14T08:06:12.000Z</time>
      </trkpt>
      <trkpt lat="47.0168" lon="5.13013">
        <ele>245.75</ele>
        <time>2015-07-14T08:06:14.000Z</time>
      </trkpt>
      <trkpt lat="47.01671" lon="5.1302">
        <ele>245.75</ele>
        <time>2015-07-14T08:06:16.000Z</time>
      </trkpt>
      <trkpt lat="47.01662" lon="5.13026">
        <ele>246.23</ele>
        <time>2015-07-14T08:06:18.000Z</time>
      </trkpt>
      <trkpt lat="47.01653" lon="5.13032">
        <ele>246.23</ele>
        <time>2015-07-14T08:06:20.000Z</time>
      </trkpt>
      <trkpt lat="47.01643" lon="5.13039">
        <ele>245.75</ele>
        <time>2015-07-14T08:06:22.000Z</time>
      </trkpt>
      <trkpt lat="47.01634" lon="5.13045">
        <ele>246.23</ele>
        <time>2015-07-14T08:06:24.000Z</time>
      </trkpt>
      <trkpt lat="47.01625" lon="5.13051">
        <ele>246.23</ele>
        <time>2015-07-14T08:06:26.000Z</time>
      </trkpt>
      <trkpt lat="47.01615" lon="5.13056">
        <ele>246.23</ele>
        <time>2015-07-14T08:06:28.000Z</time>
      </trkpt>
      <trkpt lat="47.01606" lon="5.13061">
        <ele>246.23</ele>
        <time>2015-07-14T08:06:30.000Z</time>
      </trkpt>
      <trkpt lat="47.01596" lon="5.13067">
        <ele>246.23</ele>
        <time>2015-07-14T08:06:32.000Z</time>
      </trkpt>
      <trkpt lat="47.01586" lon="5.13074">
        <ele>246.72</ele>
        <time>2015-07-14T08:06:34.000Z</time>
      </trkpt>
      <trkpt lat="47.01576" lon="5.1308">
        <ele>246.23</ele>
        <time>2015-07-14T08:06:36.000Z</time>
      </trkpt>
      <trkpt lat="47.01566" lon="5.13086">
        <ele>246.23</ele>
        <time>2015-07-14T08:06:38.000Z</time>
      </trkpt>
      <trkpt lat="47.01556" lon="5.13093">
        <ele>246.23</ele>
        <time>2015-07-14T08:06:40.000Z</time>
      </trkpt>
      <trkpt lat="47.01547" lon="5.13101">
        <ele>245.75</ele>
        <time>2015-07-14T08:06:42.000Z</time>
      </trkpt>
      <trkpt lat="47.01538" lon="5.13108">
        <ele>245.75</ele>
        <time>2015-07-14T08:06:44.000Z</time>
      </trkpt>
      <trkpt lat="47.01529" lon="5.13115">
        <ele>246.23</ele>
        <time>2015-07-14T08:06:46.000Z</time>
      </trkpt>
      <trkpt lat="47.01519" lon="5.13123">
        <ele>246.23</ele>
        <time>2015-07-14T08:06:48.000Z</time>
      </trkpt>
      <trkpt lat="47.01509" lon="5.1313">
        <ele>246.23</ele>
        <time>2015-07-14T08:06:50.000Z</time>
      </trkpt>
      <trkpt lat="47.015" lon="5.13137">
        <ele>246.23</ele>
        <time>2015-07-14T08:06:52.000Z</time>
      </trkpt>
      <trkpt lat="47.01491" lon="5.13144">
        <ele>246.23</ele>
        <time>2015-07-14T08:06:54.000Z</time>
      </trkpt>
      <trkpt lat="47.01482" lon="5.13152">
        <ele>246.72</ele>
        <time>2015-07-14T08:06:56.000Z</time>
      </trkpt>
      <trkpt lat="47.01472" lon="5.1316">
        <ele>246.72</ele>
        <time>2015-07-14T08:06:58.000Z</time>
      </trkpt>
      <trkpt lat="47.01463" lon="5.13167">
        <ele>246.23</ele>
        <time>2015-07-14T08:07:00.000Z</time>
      </trkpt>
      <trkpt lat="47.01455" lon="5.13174">
        <ele>246.23</ele>
        <time>2015-07-14T08:07:02.000Z</time>
      </trkpt>
      <trkpt lat="47.01446" lon="5.13182">
        <ele>246.23</ele>
        <time>2015-07-14T08:07:04.000Z</time>
      </trkpt>
      <trkpt lat="47.01436" lon="5.1319">
        <ele>245.75</ele>
        <time>2015-07-14T08:07:06.000Z</time>
      </trkpt>
      <trkpt lat="47.01427" lon="5.13197">
        <ele>245.75</ele>
        <time>2015-07-14T08:07:08.000Z</time>
      </trkpt>
      <trkpt lat="47.01418" lon="5.13205">
        <ele>245.75</ele>
        <time>2015-07-14T08:07:10.000Z</time>
      </trkpt>
      <trkpt lat="47.01409" lon="5.13212">
        <ele>245.75</ele>
        <time>2015-07-14T08:07:12.000Z</time>
      </trkpt>
      <trkpt lat="47.014" lon="5.1322">
        <ele>245.75</ele>
        <time>2015-07-14T08:07:14.000Z</time>
      </trkpt>
      <trkpt lat="47.0139" lon="5.13226">
        <ele>245.75</ele>
        <time>2015-07-14T08:07:16.000Z</time>
      </trkpt>
      <trkpt lat="47.0138" lon="5.13232">
        <ele>245.75</ele>
        <time>2015-07-14T08:07:18.000Z</time>
      </trkpt>
      <trkpt lat="47.0137" lon="5.13239">
        <ele>245.75</ele>
        <time>2015-07-14T08:07:20.000Z</time>
      </trkpt>
      <trkpt lat="47.0136" lon="5.13246">
        <ele>245.75</ele>
        <time>2015-07-14T08:07:22.000Z</time>
      </trkpt>
      <trkpt lat="47.0135" lon="5.13251">
        <ele>246.23</ele>
        <time>2015-07-14T08:07:24.000Z</time>
      </trkpt>
      <trkpt lat="47.01341" lon="5.13258">
        <ele>246.23</ele>
        <time>2015-07-14T08:07:26.000Z</time>
      </trkpt>
      <trkpt lat="47.01331" lon="5.13264">
        <ele>245.75</ele>
        <time>2015-07-14T08:07:28.000Z</time>
      </trkpt>
      <trkpt lat="47.01321" lon="5.13271">
        <ele>245.75</ele>
        <time>2015-07-14T08:07:30.000Z</time>
      </trkpt>
      <trkpt lat="47.01311" lon="5.13277">
        <ele>245.75</ele>
        <time>2015-07-14T08:07:32.000Z</time>
      </trkpt>
      <trkpt lat="47.01301" lon="5.13284">
        <ele>245.75</ele>
        <time>2015-07-14T08:07:34.000Z</time>
      </trkpt>
      <trkpt lat="47.01292" lon="5.13291">
        <ele>245.75</ele>
        <time>2015-07-14T08:07:36.000Z</time>
      </trkpt>
      <trkpt lat="47.01281" lon="5.13297">
        <ele>245.75</ele>
        <time>2015-07-14T08:07:38.000Z</time>
      </trkpt>
      <trkpt lat="47.01271" lon="5.13304">
        <ele>245.75</ele>
        <time>2015-07-14T08:07:40.000Z</time>
      </trkpt>
      <trkpt lat="47.0126" lon="5.13311">
        <ele>245.75</ele>
        <time>2015-07-14T08:07:42.000Z</time>
      </trkpt>
      <trkpt lat="47.0125" lon="5.13318">
        <ele>245.75</ele>
        <time>2015-07-14T08:07:44.000Z</time>
      </trkpt>
      <trkpt lat="47.0124" lon="5.13324">
        <ele>246.23</ele>
        <time>2015-07-14T08:07:46.000Z</time>
      </trkpt>
      <trkpt lat="47.0123" lon="5.13331">
        <ele>246.23</ele>
        <time>2015-07-14T08:07:48.000Z</time>
      </trkpt>
      <trkpt lat="47.0122" lon="5.13337">
        <ele>246.23</ele>
        <time>2015-07-14T08:07:50.000Z</time>
      </trkpt>
      <trkpt lat="47.01209" lon="5.13344">
        <ele>246.23</ele>
        <time>2015-07-14T08:07:52.000Z</time>
      </trkpt>
      <trkpt lat="47.012" lon="5.13351">
        <ele>246.23</ele>
        <time>2015-07-14T08:07:54.000Z</time>
      </trkpt>
      <trkpt lat="47.0119" lon="5.13357">
        <ele>245.75</ele>
        <time>2015-07-14T08:07:56.000Z</time>
      </trkpt>
      <trkpt lat="47.0118" lon="5.13364">
        <ele>245.75</ele>
        <time>2015-07-14T08:07:58.000Z</time>
      </trkpt>
      <trkpt lat="47.0117" lon="5.13369">
        <ele>245.75</ele>
        <time>2015-07-14T08:08:00.000Z</time>
      </trkpt>
      <trkpt lat="47.01159" lon="5.13374">
        <ele>245.75</ele>
        <time>2015-07-14T08:08:02.000Z</time>
      </trkpt>
      <trkpt lat="47.01148" lon="5.13378">
        <ele>245.75</ele>
        <time>2015-07-14T08:08:04.000Z</time>
      </trkpt>
      <trkpt lat="47.01138" lon="5.13383">
        <ele>245.75</ele>
        <time>2015-07-14T08:08:06.000Z</time>
      </trkpt>
      <trkpt lat="47.01126" lon="5.13387">
        <ele>245.75</ele>
        <time>2015-07-14T08:08:08.000Z</time>
      </trkpt>
      <trkpt lat="47.01116" lon="5.13392">
        <ele>245.75</ele>
        <time>2015-07-14T08:08:10.000Z</time>
      </trkpt>
      <trkpt lat="47.01105" lon="5.13396">
        <ele>245.75</ele>
        <time>2015-07-14T08:08:12.000Z</time>
      </trkpt>
      <trkpt lat="47.01095" lon="5.134">
        <ele>245.75</ele>
        <time>2015-07-14T08:08:14.000Z</time>
      </trkpt>
      <trkpt lat="47.01084" lon="5.13404">
        <ele>245.75</ele>
        <time>2015-07-14T08:08:16.000Z</time>
      </trkpt>
      <trkpt lat="47.01074" lon="5.13409">
        <ele>245.75</ele>
        <time>2015-07-14T08:08:18.000Z</time>
      </trkpt>
      <trkpt lat="47.01064" lon="5.13413">
        <ele>245.75</ele>
        <time>2015-07-14T08:08:20.000Z</time>
      </trkpt>
      <trkpt lat="47.01053" lon="5.13418">
        <ele>245.75</ele>
        <time>2015-07-14T08:08:22.000Z</time>
      </trkpt>
      <trkpt lat="47.01043" lon="5.13423">
        <ele>245.75</ele>
        <time>2015-07-14T08:08:24.000Z</time>
      </trkpt>
      <trkpt lat="47.01032" lon="5.13427">
        <ele>245.75</ele>
        <time>2015-07-14T08:08:26.000Z</time>
      </trkpt>
      <trkpt lat="47.01021" lon="5.13432">
        <ele>245.75</ele>
        <time>2015-07-14T08:08:28.000Z</time>
      </trkpt>
      <trkpt lat="47.01011" lon="5.13436">
        <ele>245.75</ele>
        <time>2015-07-14T08:08:30.000Z</time>
      </trkpt>
      <trkpt lat="47.01" lon="5.13441">
        <ele>245.27</ele>
        <time>2015-07-14T08:08:32.000Z</time>
      </trkpt>
      <trkpt lat="47.00989" lon="5.13445">
        <ele>245.75</ele>
        <time>2015-07-14T08:08:34.000Z</time>
      </trkpt>
      <trkpt lat="47.00978" lon="5.1345">
        <ele>245.75</ele>
        <time>2015-07-14T08:08:36.000Z</time>
      </trkpt>
      <trkpt lat="47.00968" lon="5.13454">
        <ele>245.75</ele>
        <time>2015-07-14T08:08:38.000Z</time>
      </trkpt>
      <trkpt lat="47.00957" lon="5.13458">
        <ele>245.27</ele>
        <time>2015-07-14T08:08:40.000Z</time>
      </trkpt>
      <trkpt lat="47.00947" lon="5.13462">
        <ele>245.75</ele>
        <time>2015-07-14T08:08:42.000Z</time>
      </trkpt>
      <trkpt lat="47.00937" lon="5.13466">
        <ele>245.27</ele>
        <time>2015-07-14T08:08:44.000Z</time>
      </trkpt>
      <trkpt lat="47.00927" lon="5.13469">
        <ele>245.27</ele>
        <time>2015-07-14T08:08:46.000Z</time>
      </trkpt>
      <trkpt lat="47.00917" lon="5.13472">
        <ele>245.75</ele>
        <time>2015-07-14T08:08:48.000Z</time>
      </trkpt>
      <trkpt lat="47.00906" lon="5.13475">
        <ele>245.75</ele>
        <time>2015-07-14T08:08:50.000Z</time>
      </trkpt>
      <trkpt lat="47.00896" lon="5.13478">
        <ele>245.75</ele>
        <time>2015-07-14T08:08:52.000Z</time>
      </trkpt>
      <trkpt lat="47.00885" lon="5.1348">
        <ele>245.27</ele>
        <time>2015-07-14T08:08:54.000Z</time>
      </trkpt>
      <trkpt lat="47.00874" lon="5.13482">
        <ele>245.75</ele>
        <time>2015-07-14T08:08:56.000Z</time>
      </trkpt>
      <trkpt lat="47.00864" lon="5.13485">
        <ele>245.75</ele>
        <time>2015-07-14T08:08:58.000Z</time>
      </trkpt>
      <trkpt lat="47.00853" lon="5.13487">
        <ele>245.75</ele>
        <time>2015-07-14T08:09:00.000Z</time>
      </trkpt>
      <trkpt lat="47.00842" lon="5.13488">
        <ele>245.75</ele>
        <time>2015-07-14T08:09:02.000Z</time>
      </trkpt>
      <trkpt lat="47.00832" lon="5.1349">
        <ele>245.75</ele>
        <time>2015-07-14T08:09:04.000Z</time>
      </trkpt>
      <trkpt lat="47.00822" lon="5.13492">
        <ele>245.75</ele>
        <time>2015-07-14T08:09:06.000Z</time>
      </trkpt>
      <trkpt lat="47.00811" lon="5.13494">
        <ele>245.75</ele>
        <time>2015-07-14T08:09:08.000Z</time>
      </trkpt>
      <trkpt lat="47.00801" lon="5.13495">
        <ele>245.75</ele>
        <time>2015-07-14T08:09:10.000Z</time>
      </trkpt>
      <trkpt lat="47.0079" lon="5.13496">
        <ele>245.75</ele>
        <time>2015-07-14T08:09:12.000Z</time>
      </trkpt>
      <trkpt lat="47.0078" lon="5.13498">
        <ele>246.23</ele>
        <time>2015-07-14T08:09:14.000Z</time>
      </trkpt>
      <trkpt lat="47.00769" lon="5.13502">
        <ele>245.75</ele>
        <time>2015-07-14T08:09:16.000Z</time>
      </trkpt>
      <trkpt lat="47.00758" lon="5.13505">
        <ele>246.23</ele>
        <time>2015-07-14T08:09:18.000Z</time>
      </trkpt>
      <trkpt lat="47.00748" lon="5.13508">
        <ele>245.75</ele>
        <time>2015-07-14T08:09:20.000Z</time>
      </trkpt>
      <trkpt lat="47.00737" lon="5.13512">
        <ele>245.75</ele>
        <time>2015-07-14T08:09:22.000Z</time>
      </trkpt>
      <trkpt lat="47.00727" lon="5.13515">
        <ele>246.23</ele>
        <time>2015-07-14T08:09:24.000Z</time>
      </trkpt>
      <trkpt lat="47.00716" lon="5.13518">
        <ele>246.23</ele>
        <time>2015-07-14T08:09:26.000Z</time>
      </trkpt>
      <trkpt lat="47.00706" lon="5.13522">
        <ele>246.23</ele>
        <time>2015-07-14T08:09:28.000Z</time>
      </trkpt>
      <trkpt lat="47.00695" lon="5.13526">
        <ele>245.75</ele>
        <time>2015-07-14T08:09:30.000Z</time>
      </trkpt>
      <trkpt lat="47.00685" lon="5.1353">
        <ele>245.75</ele>
        <time>2015-07-14T08:09:32.000Z</time>
      </trkpt>
      <trkpt lat="47.00674" lon="5.13534">
        <ele>245.75</ele>
        <time>2015-07-14T08:09:34.000Z</time>
      </trkpt>
      <trkpt lat="47.00664" lon="5.13538">
        <ele>245.75</ele>
        <time>2015-07-14T08:09:36.000Z</time>
      </trkpt>
      <trkpt lat="47.00653" lon="5.13543">
        <ele>245.75</ele>
        <time>2015-07-14T08:09:38.000Z</time>
      </trkpt>
      <trkpt lat="47.00642" lon="5.1355">
        <ele>245.27</ele>
        <time>2015-07-14T08:09:40.000Z</time>
      </trkpt>
      <trkpt lat="47.00631" lon="5.13557">
        <ele>245.27</ele>
        <time>2015-07-14T08:09:42.000Z</time>
      </trkpt>
      <trkpt lat="47.00621" lon="5.13564">
        <ele>245.27</ele>
        <time>2015-07-14T08:09:44.000Z</time>
      </trkpt>
      <trkpt lat="47.0061" lon="5.13571">
        <ele>245.27</ele>
        <time>2015-07-14T08:09:46.000Z</time>
      </trkpt>
      <trkpt lat="47.006" lon="5.13579">
        <ele>245.27</ele>
        <time>2015-07-14T08:09:48.000Z</time>
      </trkpt>
      <trkpt lat="47.0059" lon="5.13586">
        <ele>245.27</ele>
        <time>2015-07-14T08:09:50.000Z</time>
      </trkpt>
      <trkpt lat="47.00581" lon="5.13594">
        <ele>244.79</ele>
        <time>2015-07-14T08:09:52.000Z</time>
      </trkpt>
      <trkpt lat="47.00571" lon="5.13602">
        <ele>244.79</ele>
        <time>2015-07-14T08:09:54.000Z</time>
      </trkpt>
      <trkpt lat="47.0056" lon="5.13609">
        <ele>244.79</ele>
        <time>2015-07-14T08:09:56.000Z</time>
      </trkpt>
      <trkpt lat="47.0055" lon="5.13617">
        <ele>244.79</ele>
        <time>2015-07-14T08:09:58.000Z</time>
      </trkpt>
      <trkpt lat="47.00541" lon="5.13626">
        <ele>244.79</ele>
        <time>2015-07-14T08:10:00.000Z</time>
      </trkpt>
      <trkpt lat="47.00531" lon="5.13635">
        <ele>244.31</ele>
        <time>2015-07-14T08:10:02.000Z</time>
      </trkpt>
      <trkpt lat="47.00522" lon="5.13645">
        <ele>244.31</ele>
        <time>2015-07-14T08:10:04.000Z</time>
      </trkpt>
      <trkpt lat="47.00512" lon="5.13653">
        <ele>245.75</ele>
        <time>2015-07-14T08:10:06.000Z</time>
      </trkpt>
      <trkpt lat="47.00502" lon="5.13661">
        <ele>246.23</ele>
        <time>2015-07-14T08:10:08.000Z</time>
      </trkpt>
      <trkpt lat="47.00492" lon="5.13669">
        <ele>245.75</ele>
        <time>2015-07-14T08:10:10.000Z</time>
      </trkpt>
      <trkpt lat="47.00482" lon="5.13676">
        <ele>245.75</ele>
        <time>2015-07-14T08:10:12.000Z</time>
      </trkpt>
      <trkpt lat="47.00473" lon="5.13684">
        <ele>245.27</ele>
        <time>2015-07-14T08:10:14.000Z</time>
      </trkpt>
      <trkpt lat="47.00462" lon="5.13692">
        <ele>245.75</ele>
        <time>2015-07-14T08:10:16.000Z</time>
      </trkpt>
      <trkpt lat="47.00452" lon="5.137">
        <ele>245.75</ele>
        <time>2015-07-14T08:10:18.000Z</time>
      </trkpt>
      <trkpt lat="47.00442" lon="5.13709">
        <ele>245.75</ele>
        <time>2015-07-14T08:10:20.000Z</time>
      </trkpt>
      <trkpt lat="47.00433" lon="5.13717">
        <ele>245.75</ele>
        <time>2015-07-14T08:10:22.000Z</time>
      </trkpt>
      <trkpt lat="47.00423" lon="5.13724">
        <ele>246.23</ele>
        <time>2015-07-14T08:10:24.000Z</time>
      </trkpt>
      <trkpt lat="47.00413" lon="5.13731">
        <ele>245.75</ele>
        <time>2015-07-14T08:10:26.000Z</time>
      </trkpt>
      <trkpt lat="47.00403" lon="5.13739">
        <ele>245.75</ele>
        <time>2015-07-14T08:10:28.000Z</time>
      </trkpt>
      <trkpt lat="47.00393" lon="5.13747">
        <ele>245.75</ele>
        <time>2015-07-14T08:10:30.000Z</time>
      </trkpt>
      <trkpt lat="47.00383" lon="5.13755">
        <ele>245.27</ele>
        <time>2015-07-14T08:10:32.000Z</time>
      </trkpt>
      <trkpt lat="47.00373" lon="5.13763">
        <ele>245.75</ele>
        <time>2015-07-14T08:10:34.000Z</time>
      </trkpt>
      <trkpt lat="47.00364" lon="5.1377">
        <ele>245.27</ele>
        <time>2015-07-14T08:10:36.000Z</time>
      </trkpt>
      <trkpt lat="47.00354" lon="5.13778">
        <ele>245.27</ele>
        <time>2015-07-14T08:10:38.000Z</time>
      </trkpt>
      <trkpt lat="47.00344" lon="5.13784">
        <ele>245.27</ele>
        <time>2015-07-14T08:10:40.000Z</time>
      </trkpt>
      <trkpt lat="47.00334" lon="5.13791">
        <ele>245.75</ele>
        <time>2015-07-14T08:10:42.000Z</time>
      </trkpt>
      <trkpt lat="47.00324" lon="5.13799">
        <ele>245.75</ele>
        <time>2015-07-14T08:10:44.000Z</time>
      </trkpt>
      <trkpt lat="47.00314" lon="5.13807">
        <ele>245.27</ele>
        <time>2015-07-14T08:10:46.000Z</time>
      </trkpt>
      <trkpt lat="47.00305" lon="5.13815">
        <ele>245.27</ele>
        <time>2015-07-14T08:10:48.000Z</time>
      </trkpt>
      <trkpt lat="47.00296" lon="5.13824">
        <ele>245.75</ele>
        <time>2015-07-14T08:10:50.000Z</time>
      </trkpt>
      <trkpt lat="47.00287" lon="5.13832">
        <ele>245.75</ele>
        <time>2015-07-14T08:10:52.000Z</time>
      </trkpt>
      <trkpt lat="47.00278" lon="5.1384">
        <ele>246.23</ele>
        <time>2015-07-14T08:10:54.000Z</time>
      </trkpt>
      <trkpt lat="47.00269" lon="5.13849">
        <ele>245.75</ele>
        <time>2015-07-14T08:10:56.000Z</time>
      </trkpt>
      <trkpt lat="47.00261" lon="5.13859">
        <ele>246.23</ele>
        <time>2015-07-14T08:10:58.000Z</time>
      </trkpt>
      <trkpt lat="47.00252" lon="5.13869">
        <ele>245.27</ele>
        <time>2015-07-14T08:11:00.000Z</time>
      </trkpt>
      <trkpt lat="47.00243" lon="5.13881">
        <ele>245.27</ele>
        <time>2015-07-14T08:11:02.000Z</time>
      </trkpt>
      <trkpt lat="47.00235" lon="5.13892">
        <ele>245.27</ele>
        <time>2015-07-14T08:11:04.000Z</time>
      </trkpt>
      <trkpt lat="47.00227" lon="5.13904">
        <ele>245.27</ele>
        <time>2015-07-14T08:11:06.000Z</time>
      </trkpt>
      <trkpt lat="47.00219" lon="5.13917">
        <ele>245.27</ele>
        <time>2015-07-14T08:11:08.000Z</time>
      </trkpt>
      <trkpt lat="47.00212" lon="5.13929">
        <ele>244.79</ele>
        <time>2015-07-14T08:11:10.000Z</time>
      </trkpt>
      <trkpt lat="47.00204" lon="5.13942">
        <ele>245.27</ele>
        <time>2015-07-14T08:11:12.000Z</time>
      </trkpt>
      <trkpt lat="47.00198" lon="5.13955">
        <ele>244.79</ele>
        <time>2015-07-14T08:11:14.000Z</time>
      </trkpt>
      <trkpt lat="47.00191" lon="5.13969">
        <ele>244.79</ele>
        <time>2015-07-14T08:11:16.000Z</time>
      </trkpt>
      <trkpt lat="47.00186" lon="5.13983">
        <ele>244.79</ele>
        <time>2015-07-14T08:11:18.000Z</time>
      </trkpt>
      <trkpt lat="47.00181" lon="5.13997">
        <ele>245.27</ele>
        <time>2015-07-14T08:11:20.000Z</time>
      </trkpt>
      <trkpt lat="47.00176" lon="5.14011">
        <ele>244.31</ele>
        <time>2015-07-14T08:11:22.000Z</time>
      </trkpt>
      <trkpt lat="47.00171" lon="5.14023">
        <ele>244.31</ele>
        <time>2015-07-14T08:11:24.000Z</time>
      </trkpt>
      <trkpt lat="47.00166" lon="5.14041">
        <ele>243.35</ele>
        <time>2015-07-14T08:11:27.000Z</time>
      </trkpt>
      <trkpt lat="47.00168" lon="5.14056">
        <ele>243.83</ele>
        <time>2015-07-14T08:11:30.000Z</time>
      </trkpt>
      <trkpt lat="47.00178" lon="5.14059">
        <ele>243.83</ele>
        <time>2015-07-14T08:11:33.000Z</time>
      </trkpt>
      <trkpt lat="47.0019" lon="5.14055">
        <ele>244.79</ele>
        <time>2015-07-14T08:11:36.000Z</time>
      </trkpt>
      <trkpt lat="47.00203" lon="5.14051">
        <ele>244.79</ele>
        <time>2015-07-14T08:11:39.000Z</time>
      </trkpt>
      <trkpt lat="47.00212" lon="5.14047">
        <ele>244.79</ele>
        <time>2015-07-14T08:11:41.000Z</time>
      </trkpt>
      <trkpt lat="47.00221" lon="5.14044">
        <ele>245.27</ele>
        <time>2015-07-14T08:11:43.000Z</time>
      </trkpt>
      <trkpt lat="47.00231" lon="5.1404">
        <ele>245.27</ele>
        <time>2015-07-14T08:11:45.000Z</time>
      </trkpt>
      <trkpt lat="47.0024" lon="5.14037">
        <ele>245.27</ele>
        <time>2015-07-14T08:11:47.000Z</time>
      </trkpt>
      <trkpt lat="47.00253" lon="5.14031">
        <ele>245.27</ele>
        <time>2015-07-14T08:11:50.000Z</time>
      </trkpt>
      <trkpt lat="47.00262" lon="5.14027">
        <ele>245.27</ele>
        <time>2015-07-14T08:11:52.000Z</time>
      </trkpt>
      <trkpt lat="47.00272" lon="5.14024">
        <ele>245.27</ele>
        <time>2015-07-14T08:11:54.000Z</time>
      </trkpt>
      <trkpt lat="47.00281" lon="5.1402">
        <ele>244.79</ele>
        <time>2015-07-14T08:11:56.000Z</time>
      </trkpt>
      <trkpt lat="47.0029" lon="5.14016">
        <ele>244.79</ele>
        <time>2015-07-14T08:11:58.000Z</time>
      </trkpt>
      <trkpt lat="47.00299" lon="5.14013">
        <ele>244.79</ele>
        <time>2015-07-14T08:12:00.000Z</time>
      </trkpt>
      <trkpt lat="47.00312" lon="5.14009">
        <ele>244.79</ele>
        <time>2015-07-14T08:12:03.000Z</time>
      </trkpt>
      <trkpt lat="47.00324" lon="5.14006">
        <ele>245.27</ele>
        <time>2015-07-14T08:12:06.000Z</time>
      </trkpt>
      <trkpt lat="47.0033" lon="5.14015">
        <ele>245.27</ele>
        <time>2015-07-14T08:12:09.000Z</time>
      </trkpt>
      <trkpt lat="47.00338" lon="5.14027">
        <ele>244.79</ele>
        <time>2015-07-14T08:12:13.000Z</time>
      </trkpt>
      <trkpt lat="47.00347" lon="5.14026">
        <ele>244.31</ele>
        <time>2015-07-14T08:12:16.000Z</time>
      </trkpt>
      <trkpt lat="47.00358" lon="5.14023">
        <ele>244.79</ele>
        <time>2015-07-14T08:12:19.000Z</time>
      </trkpt>
      <trkpt lat="47.00369" lon="5.14022">
        <ele>245.75</ele>
        <time>2015-07-14T08:12:22.000Z</time>
      </trkpt>
      <trkpt lat="47.00379" lon="5.1402">
        <ele>246.23</ele>
        <time>2015-07-14T08:12:25.000Z</time>
      </trkpt>
      <trkpt lat="47.00389" lon="5.14017">
        <ele>247.2</ele>
        <time>2015-07-14T08:12:28.000Z</time>
      </trkpt>
      <trkpt lat="47.00398" lon="5.14016">
        <ele>247.68</ele>
        <time>2015-07-14T08:12:31.000Z</time>
      </trkpt>
      <trkpt lat="47.00407" lon="5.14015">
        <ele>248.16</ele>
        <time>2015-07-14T08:12:34.000Z</time>
      </trkpt>
      <trkpt lat="47.00416" lon="5.14014">
        <ele>248.64</ele>
        <time>2015-07-14T08:12:37.000Z</time>
      </trkpt>
      <trkpt lat="47.00428" lon="5.14012">
        <ele>249.12</ele>
        <time>2015-07-14T08:12:41.000Z</time>
      </trkpt>
      <trkpt lat="47.00439" lon="5.14014">
        <ele>250.08</ele>
        <time>2015-07-14T08:12:45.000Z</time>
      </trkpt>
      <trkpt lat="47.00448" lon="5.1402">
        <ele>251.04</ele>
        <time>2015-07-14T08:12:49.000Z</time>
      </trkpt>
      <trkpt lat="47.00451" lon="5.14033">
        <ele>252</ele>
        <time>2015-07-14T08:12:53.000Z</time>
      </trkpt>
      <trkpt lat="47.00452" lon="5.14047">
        <ele>252.48</ele>
        <time>2015-07-14T08:12:57.000Z</time>
      </trkpt>
      <trkpt lat="47.00455" lon="5.14064">
        <ele>252.48</ele>
        <time>2015-07-14T08:13:01.000Z</time>
      </trkpt>
      <trkpt lat="47.00459" lon="5.14077">
        <ele>251.52</ele>
        <time>2015-07-14T08:13:04.000Z</time>
      </trkpt>
      <trkpt lat="47.0046" lon="5.1409">
        <ele>251.04</ele>
        <time>2015-07-14T08:13:07.000Z</time>
      </trkpt>
      <trkpt lat="47.00463" lon="5.14105">
        <ele>250.56</ele>
        <time>2015-07-14T08:13:10.000Z</time>
      </trkpt>
      <trkpt lat="47.00467" lon="5.14122">
        <ele>250.08</ele>
        <time>2015-07-14T08:13:13.000Z</time>
      </trkpt>
      <trkpt lat="47.00469" lon="5.14136">
        <ele>249.6</ele>
        <time>2015-07-14T08:13:15.000Z</time>
      </trkpt>
      <trkpt lat="47.00471" lon="5.14149">
        <ele>248.64</ele>
        <time>2015-07-14T08:13:17.000Z</time>
      </trkpt>
      <trkpt lat="47.00474" lon="5.14167">
        <ele>248.16</ele>
        <time>2015-07-14T08:13:20.000Z</time>
      </trkpt>
      <trkpt lat="47.00471" lon="5.14183">
        <ele>247.2</ele>
        <time>2015-07-14T08:13:23.000Z</time>
      </trkpt>
      <trkpt lat="47.00468" lon="5.14196">
        <ele>246.72</ele>
        <time>2015-07-14T08:13:27.000Z</time>
      </trkpt>
      <trkpt lat="47.00466" lon="5.14212">
        <ele>246.72</ele>
        <time>2015-07-14T08:14:28.000Z</time>
      </trkpt>
      <trkpt lat="47.00462" lon="5.14225">
        <ele>246.72</ele>
        <time>2015-07-14T08:14:31.000Z</time>
      </trkpt>
      <trkpt lat="47.00457" lon="5.14239">
        <ele>246.72</ele>
        <time>2015-07-14T08:14:34.000Z</time>
      </trkpt>
      <trkpt lat="47.00451" lon="5.14254">
        <ele>246.72</ele>
        <time>2015-07-14T08:14:37.000Z</time>
      </trkpt>
      <trkpt lat="47.00443" lon="5.14269">
        <ele>246.72</ele>
        <time>2015-07-14T08:14:40.000Z</time>
      </trkpt>
      <trkpt lat="47.00435" lon="5.14284">
        <ele>246.72</ele>
        <time>2015-07-14T08:14:43.000Z</time>
      </trkpt>
      <trkpt lat="47.00425" lon="5.14296">
        <ele>246.23</ele>
        <time>2015-07-14T08:14:46.000Z</time>
      </trkpt>
      <trkpt lat="47.00415" lon="5.14308">
        <ele>246.72</ele>
        <time>2015-07-14T08:14:49.000Z</time>
      </trkpt>
      <trkpt lat="47.00406" lon="5.14317">
        <ele>246.23</ele>
        <time>2015-07-14T08:14:52.000Z</time>
      </trkpt>
      <trkpt lat="47.00406" lon="5.14329">
        <ele>246.23</ele>
        <time>2015-07-14T08:14:57.000Z</time>
      </trkpt>
      <trkpt lat="47.00396" lon="5.14331">
        <ele>246.23</ele>
        <time>2015-07-14T08:15:02.000Z</time>
      </trkpt>
      <trkpt lat="47.00388" lon="5.14321">
        <ele>246.23</ele>
        <time>2015-07-14T08:15:06.000Z</time>
      </trkpt>
      <trkpt lat="47.00377" lon="5.14319">
        <ele>246.72</ele>
        <time>2015-07-14T08:15:09.000Z</time>
      </trkpt>
      <trkpt lat="47.00365" lon="5.14321">
        <ele>246.72</ele>
        <time>2015-07-14T08:15:12.000Z</time>
      </trkpt>
      <trkpt lat="47.00354" lon="5.14324">
        <ele>245.27</ele>
        <time>2015-07-14T08:15:15.000Z</time>
      </trkpt>
      <trkpt lat="47.00341" lon="5.14326">
        <ele>245.75</ele>
        <time>2015-07-14T08:15:18.000Z</time>
      </trkpt>
      <trkpt lat="47.00328" lon="5.14328">
        <ele>246.23</ele>
        <time>2015-07-14T08:15:21.000Z</time>
      </trkpt>
      <trkpt lat="47.00319" lon="5.1433">
        <ele>245.75</ele>
        <time>2015-07-14T08:15:23.000Z</time>
      </trkpt>
      <trkpt lat="47.00306" lon="5.14332">
        <ele>245.75</ele>
        <time>2015-07-14T08:15:26.000Z</time>
      </trkpt>
      <trkpt lat="47.00297" lon="5.14334">
        <ele>246.72</ele>
        <time>2015-07-14T08:15:28.000Z</time>
      </trkpt>
      <trkpt lat="47.00288" lon="5.14338">
        <ele>246.23</ele>
        <time>2015-07-14T08:15:30.000Z</time>
      </trkpt>
      <trkpt lat="47.00279" lon="5.14342">
        <ele>246.23</ele>
        <time>2015-07-14T08:15:32.000Z</time>
      </trkpt>
      <trkpt lat="47.0027" lon="5.14344">
        <ele>246.72</ele>
        <time>2015-07-14T08:15:34.000Z</time>
      </trkpt>
      <trkpt lat="47.00261" lon="5.14343">
        <ele>246.72</ele>
        <time>2015-07-14T08:15:36.000Z</time>
      </trkpt>
      <trkpt lat="47.0025" lon="5.14341">
        <ele>245.75</ele>
        <time>2015-07-14T08:15:39.000Z</time>
      </trkpt>
      <trkpt lat="47.00239" lon="5.14338">
        <ele>245.75</ele>
        <time>2015-07-14T08:15:44.000Z</time>
      </trkpt>
      <trkpt lat="47.00228" lon="5.14336">
        <ele>245.75</ele>
        <time>2015-07-14T08:15:48.000Z</time>
      </trkpt>
      <trkpt lat="47.00218" lon="5.14333">
        <ele>245.75</ele>
        <time>2015-07-14T08:15:51.000Z</time>
      </trkpt>
      <trkpt lat="47.00206" lon="5.14329">
        <ele>245.75</ele>
        <time>2015-07-14T08:15:54.000Z</time>
      </trkpt>
      <trkpt lat="47.00194" lon="5.14326">
        <ele>245.75</ele>
        <time>2015-07-14T08:15:57.000Z</time>
      </trkpt>
      <trkpt lat="47.00182" lon="5.14323">
        <ele>245.75</ele>
        <time>2015-07-14T08:16:00.000Z</time>
      </trkpt>
      <trkpt lat="47.00169" lon="5.1432">
        <ele>245.27</ele>
        <time>2015-07-14T08:16:03.000Z</time>
      </trkpt>
      <trkpt lat="47.00158" lon="5.1432">
        <ele>244.79</ele>
        <time>2015-07-14T08:16:06.000Z</time>
      </trkpt>
      <trkpt lat="47.00146" lon="5.14324">
        <ele>245.75</ele>
        <time>2015-07-14T08:16:09.000Z</time>
      </trkpt>
      <trkpt lat="47.00133" lon="5.14328">
        <ele>244.79</ele>
        <time>2015-07-14T08:16:12.000Z</time>
      </trkpt>
      <trkpt lat="47.00124" lon="5.14331">
        <ele>245.27</ele>
        <time>2015-07-14T08:16:14.000Z</time>
      </trkpt>
      <trkpt lat="47.00115" lon="5.14334">
        <ele>245.75</ele>
        <time>2015-07-14T08:16:16.000Z</time>
      </trkpt>
      <trkpt lat="47.00106" lon="5.14337">
        <ele>245.75</ele>
        <time>2015-07-14T08:16:18.000Z</time>
      </trkpt>
      <trkpt lat="47.00097" lon="5.14341">
        <ele>245.75</ele>
        <time>2015-07-14T08:16:20.000Z</time>
      </trkpt>
      <trkpt lat="47.00088" lon="5.14345">
        <ele>245.75</ele>
        <time>2015-07-14T08:16:22.000Z</time>
      </trkpt>
      <trkpt lat="47.00079" lon="5.14351">
        <ele>246.23</ele>
        <time>2015-07-14T08:16:24.000Z</time>
      </trkpt>
      <trkpt lat="47.0007" lon="5.14357">
        <ele>245.75</ele>
        <time>2015-07-14T08:16:26.000Z</time>
      </trkpt>
      <trkpt lat="47.00061" lon="5.14362">
        <ele>246.23</ele>
        <time>2015-07-14T08:16:28.000Z</time>
      </trkpt>
      <trkpt lat="47.00053" lon="5.14368">
        <ele>246.23</ele>
        <time>2015-07-14T08:16:30.000Z</time>
      </trkpt>
      <trkpt lat="47.00042" lon="5.14376">
        <ele>247.2</ele>
        <time>2015-07-14T08:16:33.000Z</time>
      </trkpt>
      <trkpt lat="47.0003" lon="5.14384">
        <ele>247.2</ele>
        <time>2015-07-14T08:16:36.000Z</time>
      </trkpt>
      <trkpt lat="47.00018" lon="5.14392">
        <ele>247.2</ele>
        <time>2015-07-14T08:16:39.000Z</time>
      </trkpt>
      <trkpt lat="47.00009" lon="5.14397">
        <ele>246.72</ele>
        <time>2015-07-14T08:16:41.000Z</time>
      </trkpt>
      <trkpt lat="47" lon="5.14401">
        <ele>247.2</ele>
        <time>2015-07-14T08:16:43.000Z</time>
      </trkpt>
      <trkpt lat="46.99991" lon="5.14406">
        <ele>247.2</ele>
        <time>2015-07-14T08:16:45.000Z</time>
      </trkpt>
      <trkpt lat="46.99982" lon="5.14409">
        <ele>247.2</ele>
        <time>2015-07-14T08:16:47.000Z</time>
      </trkpt>
      <trkpt lat="46.99974" lon="5.14412">
        <ele>247.2</ele>
        <time>2015-07-14T08:16:49.000Z</time>
      </trkpt>
      <trkpt lat="46.99965" lon="5.14416">
        <ele>247.2</ele>
        <time>2015-07-14T08:16:51.000Z</time>
      </trkpt>
      <trkpt lat="46.99955" lon="5.14419">
        <ele>247.2</ele>
        <time>2015-07-14T08:16:53.000Z</time>
      </trkpt>
      <trkpt lat="46.99946" lon="5.14422">
        <ele>247.2</ele>
        <time>2015-07-14T08:16:55.000Z</time>
      </trkpt>
      <trkpt lat="46.99937" lon="5.14425">
        <ele>246.72</ele>
        <time>2015-07-14T08:16:57.000Z</time>
      </trkpt>
      <trkpt lat="46.99928" lon="5.14426">
        <ele>246.72</ele>
        <time>2015-07-14T08:16:59.000Z</time>
      </trkpt>
      <trkpt lat="46.99918" lon="5.14427">
        <ele>246.72</ele>
        <time>2015-07-14T08:17:01.000Z</time>
      </trkpt>
      <trkpt lat="46.99909" lon="5.14428">
        <ele>245.75</ele>
        <time>2015-07-14T08:17:03.000Z</time>
      </trkpt>
      <trkpt lat="46.99896" lon="5.14429">
        <ele>246.72</ele>
        <time>2015-07-14T08:17:06.000Z</time>
      </trkpt>
      <trkpt lat="46.99884" lon="5.1443">
        <ele>246.72</ele>
        <time>2015-07-14T08:17:09.000Z</time>
      </trkpt>
      <trkpt lat="46.99873" lon="5.14431">
        <ele>247.2</ele>
        <time>2015-07-14T08:17:12.000Z</time>
      </trkpt>
      <trkpt lat="46.99861" lon="5.14433">
        <ele>248.16</ele>
        <time>2015-07-14T08:17:15.000Z</time>
      </trkpt>
      <trkpt lat="46.99849" lon="5.14434">
        <ele>249.12</ele>
        <time>2015-07-14T08:17:18.000Z</time>
      </trkpt>
      <trkpt lat="46.99839" lon="5.14435">
        <ele>249.6</ele>
        <time>2015-07-14T08:17:21.000Z</time>
      </trkpt>
      <trkpt lat="46.99829" lon="5.14437">
        <ele>249.6</ele>
        <time>2015-07-14T08:17:24.000Z</time>
      </trkpt>
      <trkpt lat="46.99815" lon="5.14438">
        <ele>249.12</ele>
        <time>2015-07-14T08:17:27.000Z</time>
      </trkpt>
      <trkpt lat="46.99805" lon="5.1444">
        <ele>248.16</ele>
        <time>2015-07-14T08:17:29.000Z</time>
      </trkpt>
      <trkpt lat="46.99797" lon="5.14444">
        <ele>247.68</ele>
        <time>2015-07-14T08:17:31.000Z</time>
      </trkpt>
      <trkpt lat="46.99788" lon="5.14447">
        <ele>246.72</ele>
        <time>2015-07-14T08:17:33.000Z</time>
      </trkpt>
      <trkpt lat="46.99779" lon="5.14452">
        <ele>246.23</ele>
        <time>2015-07-14T08:17:35.000Z</time>
      </trkpt>
      <trkpt lat="46.99769" lon="5.14459">
        <ele>246.72</ele>
        <time>2015-07-14T08:17:37.000Z</time>
      </trkpt>
      <trkpt lat="46.99759" lon="5.14464">
        <ele>246.23</ele>
        <time>2015-07-14T08:17:39.000Z</time>
      </trkpt>
      <trkpt lat="46.9975" lon="5.14469">
        <ele>245.75</ele>
        <time>2015-07-14T08:17:41.000Z</time>
      </trkpt>
      <trkpt lat="46.9974" lon="5.14475">
        <ele>246.23</ele>
        <time>2015-07-14T08:17:43.000Z</time>
      </trkpt>
      <trkpt lat="46.99731" lon="5.1448">
        <ele>246.72</ele>
        <time>2015-07-14T08:17:45.000Z</time>
      </trkpt>
      <trkpt lat="46.99722" lon="5.14486">
        <ele>246.72</ele>
        <time>2015-07-14T08:17:47.000Z</time>
      </trkpt>
      <trkpt lat="46.99712" lon="5.14492">
        <ele>246.72</ele>
        <time>2015-07-14T08:17:49.000Z</time>
      </trkpt>
      <trkpt lat="46.99703" lon="5.14497">
        <ele>246.72</ele>
        <time>2015-07-14T08:17:51.000Z</time>
      </trkpt>
      <trkpt lat="46.99693" lon="5.14502">
        <ele>246.72</ele>
        <time>2015-07-14T08:17:53.000Z</time>
      </trkpt>
      <trkpt lat="46.99684" lon="5.14507">
        <ele>246.72</ele>
        <time>2015-07-14T08:17:55.000Z</time>
      </trkpt>
      <trkpt lat="46.99674" lon="5.14513">
        <ele>246.72</ele>
        <time>2015-07-14T08:17:57.000Z</time>
      </trkpt>
      <trkpt lat="46.99665" lon="5.14519">
        <ele>246.72</ele>
        <time>2015-07-14T08:17:59.000Z</time>
      </trkpt>
      <trkpt lat="46.99655" lon="5.14527">
        <ele>247.2</ele>
        <time>2015-07-14T08:18:01.000Z</time>
      </trkpt>
      <trkpt lat="46.99646" lon="5.14534">
        <ele>247.2</ele>
        <time>2015-07-14T08:18:03.000Z</time>
      </trkpt>
      <trkpt lat="46.99636" lon="5.14542">
        <ele>246.72</ele>
        <time>2015-07-14T08:18:05.000Z</time>
      </trkpt>
      <trkpt lat="46.99626" lon="5.1455">
        <ele>247.2</ele>
        <time>2015-07-14T08:18:07.000Z</time>
      </trkpt>
      <trkpt lat="46.99616" lon="5.14557">
        <ele>247.2</ele>
        <time>2015-07-14T08:18:09.000Z</time>
      </trkpt>
      <trkpt lat="46.99606" lon="5.14565">
        <ele>246.72</ele>
        <time>2015-07-14T08:18:11.000Z</time>
      </trkpt>
      <trkpt lat="46.99596" lon="5.14574">
        <ele>246.23</ele>
        <time>2015-07-14T08:18:13.000Z</time>
      </trkpt>
      <trkpt lat="46.99586" lon="5.14582">
        <ele>246.72</ele>
        <time>2015-07-14T08:18:15.000Z</time>
      </trkpt>
      <trkpt lat="46.99575" lon="5.1459">
        <ele>246.23</ele>
        <time>2015-07-14T08:18:17.000Z</time>
      </trkpt>
      <trkpt lat="46.99564" lon="5.14599">
        <ele>246.23</ele>
        <time>2015-07-14T08:18:19.000Z</time>
      </trkpt>
      <trkpt lat="46.99553" lon="5.14607">
        <ele>245.75</ele>
        <time>2015-07-14T08:18:21.000Z</time>
      </trkpt>
      <trkpt lat="46.99541" lon="5.14616">
        <ele>246.23</ele>
        <time>2015-07-14T08:18:23.000Z</time>
      </trkpt>
      <trkpt lat="46.9953" lon="5.14626">
        <ele>246.72</ele>
        <time>2015-07-14T08:18:25.000Z</time>
      </trkpt>
      <trkpt lat="46.99519" lon="5.14635">
        <ele>247.2</ele>
        <time>2015-07-14T08:18:27.000Z</time>
      </trkpt>
      <trkpt lat="46.99508" lon="5.14644">
        <ele>247.2</ele>
        <time>2015-07-14T08:18:29.000Z</time>
      </trkpt>
      <trkpt lat="46.99496" lon="5.14653">
        <ele>247.2</ele>
        <time>2015-07-14T08:18:31.000Z</time>
      </trkpt>
      <trkpt lat="46.99485" lon="5.14662">
        <ele>247.2</ele>
        <time>2015-07-14T08:18:33.000Z</time>
      </trkpt>
      <trkpt lat="46.99474" lon="5.14671">
        <ele>247.2</ele>
        <time>2015-07-14T08:18:35.000Z</time>
      </trkpt>
      <trkpt lat="46.99463" lon="5.1468">
        <ele>247.68</ele>
        <time>2015-07-14T08:18:37.000Z</time>
      </trkpt>
      <trkpt lat="46.99453" lon="5.14689">
        <ele>246.23</ele>
        <time>2015-07-14T08:18:39.000Z</time>
      </trkpt>
      <trkpt lat="46.99442" lon="5.14698">
        <ele>245.75</ele>
        <time>2015-07-14T08:18:41.000Z</time>
      </trkpt>
      <trkpt lat="46.9943" lon="5.14707">
        <ele>245.27</ele>
        <time>2015-07-14T08:18:43.000Z</time>
      </trkpt>
      <trkpt lat="46.99419" lon="5.14716">
        <ele>245.75</ele>
        <time>2015-07-14T08:18:45.000Z</time>
      </trkpt>
      <trkpt lat="46.99408" lon="5.14725">
        <ele>245.75</ele>
        <time>2015-07-14T08:18:47.000Z</time>
      </trkpt>
      <trkpt lat="46.99396" lon="5.14734">
        <ele>245.75</ele>
        <time>2015-07-14T08:18:49.000Z</time>
      </trkpt>
      <trkpt lat="46.99384" lon="5.1474">
        <ele>245.75</ele>
        <time>2015-07-14T08:18:51.000Z</time>
      </trkpt>
      <trkpt lat="46.99371" lon="5.14743">
        <ele>246.23</ele>
        <time>2015-07-14T08:18:53.000Z</time>
      </trkpt>
      <trkpt lat="46.99358" lon="5.14744">
        <ele>246.72</ele>
        <time>2015-07-14T08:18:55.000Z</time>
      </trkpt>
      <trkpt lat="46.99346" lon="5.14747">
        <ele>246.23</ele>
        <time>2015-07-14T08:18:57.000Z</time>
      </trkpt>
      <trkpt lat="46.99333" lon="5.14749">
        <ele>246.23</ele>
        <time>2015-07-14T08:18:59.000Z</time>
      </trkpt>
      <trkpt lat="46.99321" lon="5.1475">
        <ele>246.23</ele>
        <time>2015-07-14T08:19:01.000Z</time>
      </trkpt>
      <trkpt lat="46.99309" lon="5.1475">
        <ele>246.23</ele>
        <time>2015-07-14T08:19:03.000Z</time>
      </trkpt>
      <trkpt lat="46.99297" lon="5.14747">
        <ele>245.75</ele>
        <time>2015-07-14T08:19:05.000Z</time>
      </trkpt>
      <trkpt lat="46.99285" lon="5.14743">
        <ele>245.75</ele>
        <time>2015-07-14T08:19:07.000Z</time>
      </trkpt>
      <trkpt lat="46.99274" lon="5.14739">
        <ele>245.75</ele>
        <time>2015-07-14T08:19:09.000Z</time>
      </trkpt>
      <trkpt lat="46.99263" lon="5.14734">
        <ele>245.75</ele>
        <time>2015-07-14T08:19:11.000Z</time>
      </trkpt>
      <trkpt lat="46.99252" lon="5.14728">
        <ele>245.75</ele>
        <time>2015-07-14T08:19:13.000Z</time>
      </trkpt>
      <trkpt lat="46.99242" lon="5.14721">
        <ele>245.27</ele>
        <time>2015-07-14T08:19:15.000Z</time>
      </trkpt>
      <trkpt lat="46.99232" lon="5.14716">
        <ele>245.27</ele>
        <time>2015-07-14T08:19:17.000Z</time>
      </trkpt>
      <trkpt lat="46.99224" lon="5.14711">
        <ele>245.27</ele>
        <time>2015-07-14T08:19:19.000Z</time>
      </trkpt>
      <trkpt lat="46.99212" lon="5.14704">
        <ele>244.79</ele>
        <time>2015-07-14T08:19:22.000Z</time>
      </trkpt>
      <trkpt lat="46.99203" lon="5.14698">
        <ele>245.27</ele>
        <time>2015-07-14T08:19:25.000Z</time>
      </trkpt>
      <trkpt lat="46.99193" lon="5.14688">
        <ele>244.79</ele>
        <time>2015-07-14T08:19:29.000Z</time>
      </trkpt>
      <trkpt lat="46.99182" lon="5.14682">
        <ele>245.27</ele>
        <time>2015-07-14T08:19:32.000Z</time>
      </trkpt>
      <trkpt lat="46.9917" lon="5.14675">
        <ele>245.75</ele>
        <time>2015-07-14T08:19:35.000Z</time>
      </trkpt>
      <trkpt lat="46.99158" lon="5.14666">
        <ele>245.75</ele>
        <time>2015-07-14T08:19:38.000Z</time>
      </trkpt>
      <trkpt lat="46.9915" lon="5.14659">
        <ele>245.75</ele>
        <time>2015-07-14T08:19:40.000Z</time>
      </trkpt>
      <trkpt lat="46.99141" lon="5.14652">
        <ele>244.79</ele>
        <time>2015-07-14T08:19:42.000Z</time>
      </trkpt>
      <trkpt lat="46.99133" lon="5.14646">
        <ele>244.79</ele>
        <time>2015-07-14T08:19:44.000Z</time>
      </trkpt>
      <trkpt lat="46.99124" lon="5.1464">
        <ele>244.79</ele>
        <time>2015-07-14T08:19:46.000Z</time>
      </trkpt>
      <trkpt lat="46.99116" lon="5.14633">
        <ele>244.79</ele>
        <time>2015-07-14T08:19:48.000Z</time>
      </trkpt>
      <trkpt lat="46.99108" lon="5.14626">
        <ele>244.79</ele>
        <time>2015-07-14T08:19:50.000Z</time>
      </trkpt>
      <trkpt lat="46.991" lon="5.1462">
        <ele>244.79</ele>
        <time>2015-07-14T08:19:52.000Z</time>
      </trkpt>
      <trkpt lat="46.99091" lon="5.14613">
        <ele>245.27</ele>
        <time>2015-07-14T08:19:54.000Z</time>
      </trkpt>
      <trkpt lat="46.99083" lon="5.14607">
        <ele>245.27</ele>
        <time>2015-07-14T08:19:56.000Z</time>
      </trkpt>
      <trkpt lat="46.99073" lon="5.14599">
        <ele>245.27</ele>
        <time>2015-07-14T08:19:58.000Z</time>
      </trkpt>
      <trkpt lat="46.99063" lon="5.14591">
        <ele>245.27</ele>
        <time>2015-07-14T08:20:00.000Z</time>
      </trkpt>
      <trkpt lat="46.99053" lon="5.14583">
        <ele>245.27</ele>
        <time>2015-07-14T08:20:02.000Z</time>
      </trkpt>
      <trkpt lat="46.99043" lon="5.14576">
        <ele>245.75</ele>
        <time>2015-07-14T08:20:04.000Z</time>
      </trkpt>
      <trkpt lat="46.99033" lon="5.14568">
        <ele>245.27</ele>
        <time>2015-07-14T08:20:06.000Z</time>
      </trkpt>
      <trkpt lat="46.99023" lon="5.1456">
        <ele>244.79</ele>
        <time>2015-07-14T08:20:08.000Z</time>
      </trkpt>
      <trkpt lat="46.99014" lon="5.14553">
        <ele>245.27</ele>
        <time>2015-07-14T08:20:10.000Z</time>
      </trkpt>
      <trkpt lat="46.99005" lon="5.14546">
        <ele>245.75</ele>
        <time>2015-07-14T08:20:12.000Z</time>
      </trkpt>
      <trkpt lat="46.98996" lon="5.14539">
        <ele>245.75</ele>
        <time>2015-07-14T08:20:14.000Z</time>
      </trkpt>
      <trkpt lat="46.98987" lon="5.14531">
        <ele>245.75</ele>
        <time>2015-07-14T08:20:16.000Z</time>
      </trkpt>
      <trkpt lat="46.98977" lon="5.14524">
        <ele>245.27</ele>
        <time>2015-07-14T08:20:18.000Z</time>
      </trkpt>
      <trkpt lat="46.98966" lon="5.14518">
        <ele>245.27</ele>
        <time>2015-07-14T08:20:20.000Z</time>
      </trkpt>
      <trkpt lat="46.98954" lon="5.14515">
        <ele>245.27</ele>
        <time>2015-07-14T08:20:22.000Z</time>
      </trkpt>
      <trkpt lat="46.98943" lon="5.14513">
        <ele>245.27</ele>
        <time>2015-07-14T08:20:24.000Z</time>
      </trkpt>
      <trkpt lat="46.98932" lon="5.14511">
        <ele>245.27</ele>
        <time>2015-07-14T08:20:26.000Z</time>
      </trkpt>
      <trkpt lat="46.9892" lon="5.14511">
        <ele>245.27</ele>
        <time>2015-07-14T08:20:28.000Z</time>
      </trkpt>
      <trkpt lat="46.9891" lon="5.14511">
        <ele>245.27</ele>
        <time>2015-07-14T08:20:30.000Z</time>
      </trkpt>
      <trkpt lat="46.98901" lon="5.14511">
        <ele>245.27</ele>
        <time>2015-07-14T08:20:32.000Z</time>
      </trkpt>
      <trkpt lat="46.98889" lon="5.14511">
        <ele>244.79</ele>
        <time>2015-07-14T08:20:35.000Z</time>
      </trkpt>
      <trkpt lat="46.98879" lon="5.14509">
        <ele>244.79</ele>
        <time>2015-07-14T08:20:38.000Z</time>
      </trkpt>
      <trkpt lat="46.98867" lon="5.14509">
        <ele>244.79</ele>
        <time>2015-07-14T08:20:41.000Z</time>
      </trkpt>
      <trkpt lat="46.98858" lon="5.14509">
        <ele>244.79</ele>
        <time>2015-07-14T08:20:43.000Z</time>
      </trkpt>
      <trkpt lat="46.98848" lon="5.14508">
        <ele>245.27</ele>
        <time>2015-07-14T08:20:45.000Z</time>
      </trkpt>
      <trkpt lat="46.98838" lon="5.14507">
        <ele>245.27</ele>
        <time>2015-07-14T08:20:47.000Z</time>
      </trkpt>
      <trkpt lat="46.98828" lon="5.14507">
        <ele>244.79</ele>
        <time>2015-07-14T08:20:49.000Z</time>
      </trkpt>
      <trkpt lat="46.98818" lon="5.14507">
        <ele>244.79</ele>
        <time>2015-07-14T08:20:51.000Z</time>
      </trkpt>
      <trkpt lat="46.98809" lon="5.14507">
        <ele>244.79</ele>
        <time>2015-07-14T08:20:53.000Z</time>
      </trkpt>
      <trkpt lat="46.98796" lon="5.14501">
        <ele>245.27</ele>
        <time>2015-07-14T08:20:56.000Z</time>
      </trkpt>
      <trkpt lat="46.98787" lon="5.14496">
        <ele>244.79</ele>
        <time>2015-07-14T08:20:58.000Z</time>
      </trkpt>
      <trkpt lat="46.98778" lon="5.1449">
        <ele>245.27</ele>
        <time>2015-07-14T08:21:00.000Z</time>
      </trkpt>
      <trkpt lat="46.98769" lon="5.14484">
        <ele>245.27</ele>
        <time>2015-07-14T08:21:02.000Z</time>
      </trkpt>
      <trkpt lat="46.9876" lon="5.14479">
        <ele>245.27</ele>
        <time>2015-07-14T08:21:04.000Z</time>
      </trkpt>
      <trkpt lat="46.98751" lon="5.14473">
        <ele>244.79</ele>
        <time>2015-07-14T08:21:06.000Z</time>
      </trkpt>
      <trkpt lat="46.98743" lon="5.14467">
        <ele>244.79</ele>
        <time>2015-07-14T08:21:08.000Z</time>
      </trkpt>
      <trkpt lat="46.98734" lon="5.14461">
        <ele>245.27</ele>
        <time>2015-07-14T08:21:10.000Z</time>
      </trkpt>
      <trkpt lat="46.98724" lon="5.14455">
        <ele>245.27</ele>
        <time>2015-07-14T08:21:12.000Z</time>
      </trkpt>
      <trkpt lat="46.98714" lon="5.14448">
        <ele>245.27</ele>
        <time>2015-07-14T08:21:14.000Z</time>
      </trkpt>
      <trkpt lat="46.98706" lon="5.1444">
        <ele>244.79</ele>
        <time>2015-07-14T08:21:16.000Z</time>
      </trkpt>
      <trkpt lat="46.98698" lon="5.14431">
        <ele>245.27</ele>
        <time>2015-07-14T08:21:18.000Z</time>
      </trkpt>
      <trkpt lat="46.98691" lon="5.14423">
        <ele>245.27</ele>
        <time>2015-07-14T08:21:20.000Z</time>
      </trkpt>
      <trkpt lat="46.98683" lon="5.14415">
        <ele>245.27</ele>
        <time>2015-07-14T08:21:22.000Z</time>
      </trkpt>
      <trkpt lat="46.98675" lon="5.14408">
        <ele>244.79</ele>
        <time>2015-07-14T08:21:24.000Z</time>
      </trkpt>
      <trkpt lat="46.98667" lon="5.144">
        <ele>244.79</ele>
        <time>2015-07-14T08:21:26.000Z</time>
      </trkpt>
      <trkpt lat="46.9866" lon="5.14391">
        <ele>245.27</ele>
        <time>2015-07-14T08:21:28.000Z</time>
      </trkpt>
      <trkpt lat="46.98653" lon="5.14381">
        <ele>245.27</ele>
        <time>2015-07-14T08:21:30.000Z</time>
      </trkpt>
      <trkpt lat="46.98647" lon="5.1437">
        <ele>245.27</ele>
        <time>2015-07-14T08:21:32.000Z</time>
      </trkpt>
      <trkpt lat="46.98641" lon="5.14359">
        <ele>245.27</ele>
        <time>2015-07-14T08:21:34.000Z</time>
      </trkpt>
      <trkpt lat="46.98635" lon="5.14347">
        <ele>245.27</ele>
        <time>2015-07-14T08:21:36.000Z</time>
      </trkpt>
      <trkpt lat="46.98629" lon="5.14334">
        <ele>245.27</ele>
        <time>2015-07-14T08:21:38.000Z</time>
      </trkpt>
      <trkpt lat="46.98623" lon="5.14322">
        <ele>245.75</ele>
        <time>2015-07-14T08:21:40.000Z</time>
      </trkpt>
      <trkpt lat="46.98618" lon="5.14307">
        <ele>245.27</ele>
        <time>2015-07-14T08:21:42.000Z</time>
      </trkpt>
      <trkpt lat="46.98613" lon="5.14293">
        <ele>245.75</ele>
        <time>2015-07-14T08:21:44.000Z</time>
      </trkpt>
      <trkpt lat="46.98609" lon="5.1428">
        <ele>245.27</ele>
        <time>2015-07-14T08:21:46.000Z</time>
      </trkpt>
      <trkpt lat="46.98605" lon="5.14267">
        <ele>245.27</ele>
        <time>2015-07-14T08:21:48.000Z</time>
      </trkpt>
      <trkpt lat="46.986" lon="5.14254">
        <ele>245.27</ele>
        <time>2015-07-14T08:21:50.000Z</time>
      </trkpt>
      <trkpt lat="46.98596" lon="5.14241">
        <ele>245.27</ele>
        <time>2015-07-14T08:21:52.000Z</time>
      </trkpt>
      <trkpt lat="46.98592" lon="5.14229">
        <ele>245.27</ele>
        <time>2015-07-14T08:21:54.000Z</time>
      </trkpt>
      <trkpt lat="46.98587" lon="5.14211">
        <ele>245.27</ele>
        <time>2015-07-14T08:21:57.000Z</time>
      </trkpt>
      <trkpt lat="46.98582" lon="5.14195">
        <ele>245.27</ele>
        <time>2015-07-14T08:22:00.000Z</time>
      </trkpt>
      <trkpt lat="46.98579" lon="5.1418">
        <ele>245.27</ele>
        <time>2015-07-14T08:22:03.000Z</time>
      </trkpt>
      <trkpt lat="46.98576" lon="5.14167">
        <ele>244.79</ele>
        <time>2015-07-14T08:22:08.000Z</time>
      </trkpt>
      <trkpt lat="46.98572" lon="5.14157">
        <ele>244.31</ele>
        <time>2015-07-14T08:23:59.000Z</time>
      </trkpt>
      <trkpt lat="46.98566" lon="5.14142">
        <ele>244.31</ele>
        <time>2015-07-14T08:24:04.000Z</time>
      </trkpt>
      <trkpt lat="46.98561" lon="5.14128">
        <ele>244.31</ele>
        <time>2015-07-14T08:24:07.000Z</time>
      </trkpt>
      <trkpt lat="46.98556" lon="5.14113">
        <ele>245.27</ele>
        <time>2015-07-14T08:24:10.000Z</time>
      </trkpt>
      <trkpt lat="46.98549" lon="5.14098">
        <ele>245.27</ele>
        <time>2015-07-14T08:24:13.000Z</time>
      </trkpt>
      <trkpt lat="46.98542" lon="5.14081">
        <ele>245.27</ele>
        <time>2015-07-14T08:24:16.000Z</time>
      </trkpt>
      <trkpt lat="46.98535" lon="5.14064">
        <ele>245.75</ele>
        <time>2015-07-14T08:24:19.000Z</time>
      </trkpt>
      <trkpt lat="46.9853" lon="5.14053">
        <ele>245.27</ele>
        <time>2015-07-14T08:24:21.000Z</time>
      </trkpt>
      <trkpt lat="46.98524" lon="5.14042">
        <ele>245.27</ele>
        <time>2015-07-14T08:24:23.000Z</time>
      </trkpt>
      <trkpt lat="46.98519" lon="5.1403">
        <ele>245.27</ele>
        <time>2015-07-14T08:24:25.000Z</time>
      </trkpt>
      <trkpt lat="46.98513" lon="5.14018">
        <ele>245.27</ele>
        <time>2015-07-14T08:24:27.000Z</time>
      </trkpt>
      <trkpt lat="46.98508" lon="5.14006">
        <ele>244.79</ele>
        <time>2015-07-14T08:24:29.000Z</time>
      </trkpt>
      <trkpt lat="46.98502" lon="5.13994">
        <ele>245.27</ele>
        <time>2015-07-14T08:24:31.000Z</time>
      </trkpt>
      <trkpt lat="46.98497" lon="5.13981">
        <ele>245.27</ele>
        <time>2015-07-14T08:24:33.000Z</time>
      </trkpt>
      <trkpt lat="46.98491" lon="5.13969">
        <ele>245.75</ele>
        <time>2015-07-14T08:24:35.000Z</time>
      </trkpt>
      <trkpt lat="46.98485" lon="5.13958">
        <ele>245.27</ele>
        <time>2015-07-14T08:24:37.000Z</time>
      </trkpt>
      <trkpt lat="46.98479" lon="5.13946">
        <ele>245.27</ele>
        <time>2015-07-14T08:24:39.000Z</time>
      </trkpt>
      <trkpt lat="46.98473" lon="5.13935">
        <ele>245.27</ele>
        <time>2015-07-14T08:24:41.000Z</time>
      </trkpt>
      <trkpt lat="46.98466" lon="5.13923">
        <ele>245.75</ele>
        <time>2015-07-14T08:24:43.000Z</time>
      </trkpt>
      <trkpt lat="46.9846" lon="5.13911">
        <ele>245.75</ele>
        <time>2015-07-14T08:24:45.000Z</time>
      </trkpt>
      <trkpt lat="46.98454" lon="5.139">
        <ele>245.27</ele>
        <time>2015-07-14T08:24:47.000Z</time>
      </trkpt>
      <trkpt lat="46.98448" lon="5.13889">
        <ele>245.75</ele>
        <time>2015-07-14T08:24:49.000Z</time>
      </trkpt>
      <trkpt lat="46.98442" lon="5.13877">
        <ele>245.27</ele>
        <time>2015-07-14T08:24:51.000Z</time>
      </trkpt>
      <trkpt lat="46.98435" lon="5.13865">
        <ele>245.75</ele>
        <time>2015-07-14T08:24:53.000Z</time>
      </trkpt>
      <trkpt lat="46.98428" lon="5.13854">
        <ele>245.75</ele>
        <time>2015-07-14T08:24:55.000Z</time>
      </trkpt>
      <trkpt lat="46.98422" lon="5.13843">
        <ele>245.27</ele>
        <time>2015-07-14T08:24:57.000Z</time>
      </trkpt>
      <trkpt lat="46.98416" lon="5.13832">
        <ele>245.27</ele>
        <time>2015-07-14T08:24:59.000Z</time>
      </trkpt>
      <trkpt lat="46.9841" lon="5.13821">
        <ele>245.75</ele>
        <time>2015-07-14T08:25:01.000Z</time>
      </trkpt>
      <trkpt lat="46.98403" lon="5.13811">
        <ele>245.75</ele>
        <time>2015-07-14T08:25:03.000Z</time>
      </trkpt>
      <trkpt lat="46.98397" lon="5.138">
        <ele>245.75</ele>
        <time>2015-07-14T08:25:05.000Z</time>
      </trkpt>
      <trkpt lat="46.9839" lon="5.13789">
        <ele>245.75</ele>
        <time>2015-07-14T08:25:07.000Z</time>
      </trkpt>
      <trkpt lat="46.98384" lon="5.13778">
        <ele>245.75</ele>
        <time>2015-07-14T08:25:09.000Z</time>
      </trkpt>
      <trkpt lat="46.98378" lon="5.13766">
        <ele>245.27</ele>
        <time>2015-07-14T08:25:11.000Z</time>
      </trkpt>
      <trkpt lat="46.98372" lon="5.13756">
        <ele>245.75</ele>
        <time>2015-07-14T08:25:13.000Z</time>
      </trkpt>
      <trkpt lat="46.98365" lon="5.13744">
        <ele>245.75</ele>
        <time>2015-07-14T08:25:15.000Z</time>
      </trkpt>
      <trkpt lat="46.98358" lon="5.13734">
        <ele>245.27</ele>
        <time>2015-07-14T08:25:17.000Z</time>
      </trkpt>
      <trkpt lat="46.98351" lon="5.13725">
        <ele>245.75</ele>
        <time>2015-07-14T08:25:19.000Z</time>
      </trkpt>
      <trkpt lat="46.98341" lon="5.13712">
        <ele>245.27</ele>
        <time>2015-07-14T08:25:22.000Z</time>
      </trkpt>
      <trkpt lat="46.98331" lon="5.13702">
        <ele>245.27</ele>
        <time>2015-07-14T08:25:25.000Z</time>
      </trkpt>
      <trkpt lat="46.98323" lon="5.13695">
        <ele>245.27</ele>
        <time>2015-07-14T08:25:28.000Z</time>
      </trkpt>
      <trkpt lat="46.98314" lon="5.13687">
        <ele>245.75</ele>
        <time>2015-07-14T08:25:33.000Z</time>
      </trkpt>
      <trkpt lat="46.98307" lon="5.13681">
        <ele>245.27</ele>
        <time>2015-07-14T08:29:36.000Z</time>
      </trkpt>
      <trkpt lat="46.98297" lon="5.13672">
        <ele>246.23</ele>
        <time>2015-07-14T08:29:41.000Z</time>
      </trkpt>
      <trkpt lat="46.98286" lon="5.13664">
        <ele>246.23</ele>
        <time>2015-07-14T08:29:45.000Z</time>
      </trkpt>
      <trkpt lat="46.98278" lon="5.13658">
        <ele>246.72</ele>
        <time>2015-07-14T08:29:48.000Z</time>
      </trkpt>
      <trkpt lat="46.98269" lon="5.1365">
        <ele>247.2</ele>
        <time>2015-07-14T08:29:51.000Z</time>
      </trkpt>
      <trkpt lat="46.98259" lon="5.13643">
        <ele>245.75</ele>
        <time>2015-07-14T08:29:54.000Z</time>
      </trkpt>
      <trkpt lat="46.98249" lon="5.13636">
        <ele>245.27</ele>
        <time>2015-07-14T08:29:57.000Z</time>
      </trkpt>
      <trkpt lat="46.98236" lon="5.13627">
        <ele>245.27</ele>
        <time>2015-07-14T08:30:00.000Z</time>
      </trkpt>
      <trkpt lat="46.98227" lon="5.1362">
        <ele>244.79</ele>
        <time>2015-07-14T08:30:02.000Z</time>
      </trkpt>
      <trkpt lat="46.98217" lon="5.13613">
        <ele>244.31</ele>
        <time>2015-07-14T08:30:04.000Z</time>
      </trkpt>
      <trkpt lat="46.98208" lon="5.13605">
        <ele>245.27</ele>
        <time>2015-07-14T08:30:06.000Z</time>
      </trkpt>
      <trkpt lat="46.98199" lon="5.13598">
        <ele>245.27</ele>
        <time>2015-07-14T08:30:08.000Z</time>
      </trkpt>
      <trkpt lat="46.9819" lon="5.13591">
        <ele>244.79</ele>
        <time>2015-07-14T08:30:10.000Z</time>
      </trkpt>
      <trkpt lat="46.98181" lon="5.13584">
        <ele>245.27</ele>
        <time>2015-07-14T08:30:12.000Z</time>
      </trkpt>
      <trkpt lat="46.98172" lon="5.13577">
        <ele>245.27</ele>
        <time>2015-07-14T08:30:14.000Z</time>
      </trkpt>
      <trkpt lat="46.98164" lon="5.1357">
        <ele>244.79</ele>
        <time>2015-07-14T08:30:16.000Z</time>
      </trkpt>
      <trkpt lat="46.98155" lon="5.13563">
        <ele>244.79</ele>
        <time>2015-07-14T08:30:18.000Z</time>
      </trkpt>
      <trkpt lat="46.98146" lon="5.13556">
        <ele>244.79</ele>
        <time>2015-07-14T08:30:20.000Z</time>
      </trkpt>
      <trkpt lat="46.98137" lon="5.1355">
        <ele>245.27</ele>
        <time>2015-07-14T08:30:22.000Z</time>
      </trkpt>
      <trkpt lat="46.98129" lon="5.13543">
        <ele>245.27</ele>
        <time>2015-07-14T08:30:24.000Z</time>
      </trkpt>
      <trkpt lat="46.9812" lon="5.13536">
        <ele>244.79</ele>
        <time>2015-07-14T08:30:26.000Z</time>
      </trkpt>
      <trkpt lat="46.98111" lon="5.13529">
        <ele>245.27</ele>
        <time>2015-07-14T08:30:28.000Z</time>
      </trkpt>
      <trkpt lat="46.98103" lon="5.13522">
        <ele>245.27</ele>
        <time>2015-07-14T08:30:30.000Z</time>
      </trkpt>
      <trkpt lat="46.98095" lon="5.13515">
        <ele>245.27</ele>
        <time>2015-07-14T08:30:32.000Z</time>
      </trkpt>
      <trkpt lat="46.98086" lon="5.13509">
        <ele>245.27</ele>
        <time>2015-07-14T08:30:34.000Z</time>
      </trkpt>
      <trkpt lat="46.98078" lon="5.13502">
        <ele>245.27</ele>
        <time>2015-07-14T08:30:36.000Z</time>
      </trkpt>
      <trkpt lat="46.98069" lon="5.13494">
        <ele>244.79</ele>
        <time>2015-07-14T08:30:38.000Z</time>
      </trkpt>
      <trkpt lat="46.9806" lon="5.13488">
        <ele>245.27</ele>
        <time>2015-07-14T08:30:40.000Z</time>
      </trkpt>
      <trkpt lat="46.98051" lon="5.1348">
        <ele>245.27</ele>
        <time>2015-07-14T08:30:42.000Z</time>
      </trkpt>
      <trkpt lat="46.98043" lon="5.13474">
        <ele>245.27</ele>
        <time>2015-07-14T08:30:44.000Z</time>
      </trkpt>
      <trkpt lat="46.98034" lon="5.13467">
        <ele>244.79</ele>
        <time>2015-07-14T08:30:46.000Z</time>
      </trkpt>
      <trkpt lat="46.98025" lon="5.1346">
        <ele>244.79</ele>
        <time>2015-07-14T08:30:48.000Z</time>
      </trkpt>
      <trkpt lat="46.98017" lon="5.13453">
        <ele>244.79</ele>
        <time>2015-07-14T08:30:50.000Z</time>
      </trkpt>
      <trkpt lat="46.98008" lon="5.13446">
        <ele>245.27</ele>
        <time>2015-07-14T08:30:52.000Z</time>
      </trkpt>
      <trkpt lat="46.98" lon="5.13439">
        <ele>245.27</ele>
        <time>2015-07-14T08:30:54.000Z</time>
      </trkpt>
      <trkpt lat="46.97992" lon="5.13433">
        <ele>244.79</ele>
        <time>2015-07-14T08:30:56.000Z</time>
      </trkpt>
      <trkpt lat="46.97983" lon="5.13426">
        <ele>244.79</ele>
        <time>2015-07-14T08:30:58.000Z</time>
      </trkpt>
      <trkpt lat="46.97974" lon="5.13419">
        <ele>244.79</ele>
        <time>2015-07-14T08:31:00.000Z</time>
      </trkpt>
      <trkpt lat="46.97966" lon="5.13413">
        <ele>245.27</ele>
        <time>2015-07-14T08:31:02.000Z</time>
      </trkpt>
      <trkpt lat="46.97957" lon="5.13405">
        <ele>245.27</ele>
        <time>2015-07-14T08:31:04.000Z</time>
      </trkpt>
      <trkpt lat="46.97949" lon="5.13399">
        <ele>245.27</ele>
        <time>2015-07-14T08:31:06.000Z</time>
      </trkpt>
      <trkpt lat="46.9794" lon="5.13392">
        <ele>244.79</ele>
        <time>2015-07-14T08:31:08.000Z</time>
      </trkpt>
      <trkpt lat="46.97932" lon="5.13385">
        <ele>244.79</ele>
        <time>2015-07-14T08:31:10.000Z</time>
      </trkpt>
      <trkpt lat="46.97923" lon="5.13378">
        <ele>245.27</ele>
        <time>2015-07-14T08:31:12.000Z</time>
      </trkpt>
      <trkpt lat="46.97915" lon="5.13371">
        <ele>245.27</ele>
        <time>2015-07-14T08:31:14.000Z</time>
      </trkpt>
      <trkpt lat="46.97907" lon="5.13364">
        <ele>245.27</ele>
        <time>2015-07-14T08:31:16.000Z</time>
      </trkpt>
      <trkpt lat="46.97898" lon="5.13357">
        <ele>244.79</ele>
        <time>2015-07-14T08:31:18.000Z</time>
      </trkpt>
      <trkpt lat="46.9789" lon="5.13351">
        <ele>244.79</ele>
        <time>2015-07-14T08:31:20.000Z</time>
      </trkpt>
      <trkpt lat="46.97882" lon="5.13344">
        <ele>245.27</ele>
        <time>2015-07-14T08:31:22.000Z</time>
      </trkpt>
      <trkpt lat="46.97874" lon="5.13337">
        <ele>245.27</ele>
        <time>2015-07-14T08:31:24.000Z</time>
      </trkpt>
      <trkpt lat="46.97865" lon="5.13331">
        <ele>244.79</ele>
        <time>2015-07-14T08:31:26.000Z</time>
      </trkpt>
      <trkpt lat="46.97857" lon="5.13324">
        <ele>245.27</ele>
        <time>2015-07-14T08:31:28.000Z</time>
      </trkpt>
      <trkpt lat="46.97848" lon="5.13317">
        <ele>245.27</ele>
        <time>2015-07-14T08:31:30.000Z</time>
      </trkpt>
      <trkpt lat="46.9784" lon="5.13311">
        <ele>245.27</ele>
        <time>2015-07-14T08:31:32.000Z</time>
      </trkpt>
      <trkpt lat="46.97832" lon="5.13304">
        <ele>245.27</ele>
        <time>2015-07-14T08:31:34.000Z</time>
      </trkpt>
      <trkpt lat="46.97823" lon="5.13297">
        <ele>245.27</ele>
        <time>2015-07-14T08:31:36.000Z</time>
      </trkpt>
      <trkpt lat="46.97816" lon="5.13291">
        <ele>245.27</ele>
        <time>2015-07-14T08:31:38.000Z</time>
      </trkpt>
      <trkpt lat="46.97805" lon="5.13281">
        <ele>245.27</ele>
        <time>2015-07-14T08:31:41.000Z</time>
      </trkpt>
      <trkpt lat="46.97795" lon="5.13274">
        <ele>246.23</ele>
        <time>2015-07-14T08:31:44.000Z</time>
      </trkpt>
      <trkpt lat="46.97784" lon="5.13268">
        <ele>247.2</ele>
        <time>2015-07-14T08:31:48.000Z</time>
      </trkpt>
      <trkpt lat="46.97774" lon="5.13262">
        <ele>247.2</ele>
        <time>2015-07-14T08:31:53.000Z</time>
      </trkpt>
      <trkpt lat="46.97765" lon="5.13253">
        <ele>246.23</ele>
        <time>2015-07-14T08:32:00.000Z</time>
      </trkpt>
      <trkpt lat="46.97754" lon="5.13243">
        <ele>246.23</ele>
        <time>2015-07-14T08:32:04.000Z</time>
      </trkpt>
      <trkpt lat="46.97746" lon="5.13236">
        <ele>245.27</ele>
        <time>2015-07-14T08:32:06.000Z</time>
      </trkpt>
      <trkpt lat="46.97737" lon="5.13228">
        <ele>245.27</ele>
        <time>2015-07-14T08:32:08.000Z</time>
      </trkpt>
      <trkpt lat="46.97727" lon="5.1322">
        <ele>245.27</ele>
        <time>2015-07-14T08:32:10.000Z</time>
      </trkpt>
      <trkpt lat="46.97717" lon="5.13213">
        <ele>244.79</ele>
        <time>2015-07-14T08:32:12.000Z</time>
      </trkpt>
      <trkpt lat="46.97708" lon="5.13208">
        <ele>244.79</ele>
        <time>2015-07-14T08:32:14.000Z</time>
      </trkpt>
      <trkpt lat="46.97699" lon="5.13202">
        <ele>244.79</ele>
        <time>2015-07-14T08:32:16.000Z</time>
      </trkpt>
      <trkpt lat="46.97689" lon="5.13196">
        <ele>244.79</ele>
        <time>2015-07-14T08:32:18.000Z</time>
      </trkpt>
      <trkpt lat="46.97679" lon="5.13192">
        <ele>245.27</ele>
        <time>2015-07-14T08:32:20.000Z</time>
      </trkpt>
      <trkpt lat="46.9767" lon="5.13186">
        <ele>244.79</ele>
        <time>2015-07-14T08:32:22.000Z</time>
      </trkpt>
      <trkpt lat="46.97661" lon="5.13181">
        <ele>244.79</ele>
        <time>2015-07-14T08:32:24.000Z</time>
      </trkpt>
      <trkpt lat="46.97652" lon="5.13178">
        <ele>244.79</ele>
        <time>2015-07-14T08:32:26.000Z</time>
      </trkpt>
      <trkpt lat="46.97642" lon="5.13177">
        <ele>244.79</ele>
        <time>2015-07-14T08:32:28.000Z</time>
      </trkpt>
      <trkpt lat="46.97633" lon="5.13179">
        <ele>244.31</ele>
        <time>2015-07-14T08:32:30.000Z</time>
      </trkpt>
      <trkpt lat="46.97623" lon="5.13179">
        <ele>244.79</ele>
        <time>2015-07-14T08:32:32.000Z</time>
      </trkpt>
      <trkpt lat="46.97614" lon="5.13178">
        <ele>244.31</ele>
        <time>2015-07-14T08:32:34.000Z</time>
      </trkpt>
      <trkpt lat="46.97604" lon="5.13175">
        <ele>244.31</ele>
        <time>2015-07-14T08:32:36.000Z</time>
      </trkpt>
      <trkpt lat="46.97594" lon="5.13172">
        <ele>244.31</ele>
        <time>2015-07-14T08:32:38.000Z</time>
      </trkpt>
      <trkpt lat="46.97585" lon="5.13167">
        <ele>243.83</ele>
        <time>2015-07-14T08:32:40.000Z</time>
      </trkpt>
      <trkpt lat="46.97576" lon="5.13162">
        <ele>243.83</ele>
        <time>2015-07-14T08:32:42.000Z</time>
      </trkpt>
      <trkpt lat="46.97567" lon="5.13156">
        <ele>244.31</ele>
        <time>2015-07-14T08:32:44.000Z</time>
      </trkpt>
      <trkpt lat="46.97557" lon="5.1315">
        <ele>244.31</ele>
        <time>2015-07-14T08:32:46.000Z</time>
      </trkpt>
      <trkpt lat="46.97548" lon="5.13144">
        <ele>244.79</ele>
        <time>2015-07-14T08:32:48.000Z</time>
      </trkpt>
      <trkpt lat="46.97539" lon="5.13139">
        <ele>244.79</ele>
        <time>2015-07-14T08:32:50.000Z</time>
      </trkpt>
      <trkpt lat="46.9753" lon="5.13133">
        <ele>245.27</ele>
        <time>2015-07-14T08:32:52.000Z</time>
      </trkpt>
      <trkpt lat="46.9752" lon="5.13128">
        <ele>245.27</ele>
        <time>2015-07-14T08:32:54.000Z</time>
      </trkpt>
      <trkpt lat="46.97511" lon="5.13122">
        <ele>244.79</ele>
        <time>2015-07-14T08:32:56.000Z</time>
      </trkpt>
      <trkpt lat="46.97502" lon="5.13116">
        <ele>245.27</ele>
        <time>2015-07-14T08:32:58.000Z</time>
      </trkpt>
      <trkpt lat="46.97493" lon="5.13111">
        <ele>245.27</ele>
        <time>2015-07-14T08:33:00.000Z</time>
      </trkpt>
      <trkpt lat="46.97484" lon="5.13105">
        <ele>244.79</ele>
        <time>2015-07-14T08:33:02.000Z</time>
      </trkpt>
      <trkpt lat="46.97475" lon="5.13099">
        <ele>244.79</ele>
        <time>2015-07-14T08:33:04.000Z</time>
      </trkpt>
      <trkpt lat="46.97466" lon="5.13092">
        <ele>244.79</ele>
        <time>2015-07-14T08:33:06.000Z</time>
      </trkpt>
      <trkpt lat="46.97458" lon="5.13083">
        <ele>244.79</ele>
        <time>2015-07-14T08:33:08.000Z</time>
      </trkpt>
      <trkpt lat="46.9745" lon="5.13073">
        <ele>244.79</ele>
        <time>2015-07-14T08:33:10.000Z</time>
      </trkpt>
      <trkpt lat="46.97443" lon="5.13063">
        <ele>244.79</ele>
        <time>2015-07-14T08:33:12.000Z</time>
      </trkpt>
      <trkpt lat="46.97435" lon="5.13052">
        <ele>244.79</ele>
        <time>2015-07-14T08:33:14.000Z</time>
      </trkpt>
      <trkpt lat="46.97428" lon="5.13042">
        <ele>244.79</ele>
        <time>2015-07-14T08:33:16.000Z</time>
      </trkpt>
      <trkpt lat="46.97421" lon="5.13031">
        <ele>244.79</ele>
        <time>2015-07-14T08:33:18.000Z</time>
      </trkpt>
      <trkpt lat="46.97415" lon="5.13019">
        <ele>244.79</ele>
        <time>2015-07-14T08:33:20.000Z</time>
      </trkpt>
      <trkpt lat="46.97409" lon="5.13008">
        <ele>245.27</ele>
        <time>2015-07-14T08:33:22.000Z</time>
      </trkpt>
      <trkpt lat="46.97402" lon="5.12997">
        <ele>245.27</ele>
        <time>2015-07-14T08:33:24.000Z</time>
      </trkpt>
      <trkpt lat="46.97395" lon="5.12986">
        <ele>244.79</ele>
        <time>2015-07-14T08:33:26.000Z</time>
      </trkpt>
      <trkpt lat="46.97388" lon="5.12975">
        <ele>244.79</ele>
        <time>2015-07-14T08:33:28.000Z</time>
      </trkpt>
      <trkpt lat="46.97382" lon="5.12963">
        <ele>244.79</ele>
        <time>2015-07-14T08:33:30.000Z</time>
      </trkpt>
      <trkpt lat="46.97376" lon="5.12951">
        <ele>244.79</ele>
        <time>2015-07-14T08:33:32.000Z</time>
      </trkpt>
      <trkpt lat="46.9737" lon="5.1294">
        <ele>245.27</ele>
        <time>2015-07-14T08:33:34.000Z</time>
      </trkpt>
      <trkpt lat="46.97363" lon="5.12929">
        <ele>244.79</ele>
        <time>2015-07-14T08:33:36.000Z</time>
      </trkpt>
      <trkpt lat="46.97358" lon="5.12918">
        <ele>244.79</ele>
        <time>2015-07-14T08:33:38.000Z</time>
      </trkpt>
      <trkpt lat="46.97352" lon="5.12906">
        <ele>244.79</ele>
        <time>2015-07-14T08:33:40.000Z</time>
      </trkpt>
      <trkpt lat="46.97347" lon="5.12893">
        <ele>245.27</ele>
        <time>2015-07-14T08:33:42.000Z</time>
      </trkpt>
      <trkpt lat="46.97343" lon="5.1288">
        <ele>245.27</ele>
        <time>2015-07-14T08:33:44.000Z</time>
      </trkpt>
      <trkpt lat="46.97339" lon="5.12867">
        <ele>245.27</ele>
        <time>2015-07-14T08:33:46.000Z</time>
      </trkpt>
      <trkpt lat="46.97335" lon="5.12853">
        <ele>245.27</ele>
        <time>2015-07-14T08:33:48.000Z</time>
      </trkpt>
      <trkpt lat="46.97331" lon="5.1284">
        <ele>244.79</ele>
        <time>2015-07-14T08:33:50.000Z</time>
      </trkpt>
      <trkpt lat="46.97327" lon="5.12827">
        <ele>245.27</ele>
        <time>2015-07-14T08:33:52.000Z</time>
      </trkpt>
      <trkpt lat="46.97323" lon="5.12814">
        <ele>245.27</ele>
        <time>2015-07-14T08:33:54.000Z</time>
      </trkpt>
      <trkpt lat="46.97319" lon="5.128">
        <ele>244.79</ele>
        <time>2015-07-14T08:33:56.000Z</time>
      </trkpt>
      <trkpt lat="46.97315" lon="5.12787">
        <ele>244.79</ele>
        <time>2015-07-14T08:33:58.000Z</time>
      </trkpt>
      <trkpt lat="46.97312" lon="5.12774">
        <ele>245.27</ele>
        <time>2015-07-14T08:34:00.000Z</time>
      </trkpt>
      <trkpt lat="46.97309" lon="5.1276">
        <ele>245.27</ele>
        <time>2015-07-14T08:34:02.000Z</time>
      </trkpt>
      <trkpt lat="46.97306" lon="5.12746">
        <ele>244.79</ele>
        <time>2015-07-14T08:34:04.000Z</time>
      </trkpt>
      <trkpt lat="46.97303" lon="5.12732">
        <ele>244.79</ele>
        <time>2015-07-14T08:34:06.000Z</time>
      </trkpt>
      <trkpt lat="46.973" lon="5.12718">
        <ele>244.79</ele>
        <time>2015-07-14T08:34:08.000Z</time>
      </trkpt>
      <trkpt lat="46.97298" lon="5.12704">
        <ele>245.27</ele>
        <time>2015-07-14T08:34:10.000Z</time>
      </trkpt>
      <trkpt lat="46.97297" lon="5.1269">
        <ele>244.79</ele>
        <time>2015-07-14T08:34:12.000Z</time>
      </trkpt>
      <trkpt lat="46.97295" lon="5.12675">
        <ele>245.27</ele>
        <time>2015-07-14T08:34:14.000Z</time>
      </trkpt>
      <trkpt lat="46.97294" lon="5.1266">
        <ele>244.79</ele>
        <time>2015-07-14T08:34:16.000Z</time>
      </trkpt>
      <trkpt lat="46.97292" lon="5.12645">
        <ele>244.79</ele>
        <time>2015-07-14T08:34:18.000Z</time>
      </trkpt>
      <trkpt lat="46.97291" lon="5.1263">
        <ele>244.79</ele>
        <time>2015-07-14T08:34:20.000Z</time>
      </trkpt>
      <trkpt lat="46.9729" lon="5.12615">
        <ele>244.79</ele>
        <time>2015-07-14T08:34:22.000Z</time>
      </trkpt>
      <trkpt lat="46.97289" lon="5.126">
        <ele>244.79</ele>
        <time>2015-07-14T08:34:24.000Z</time>
      </trkpt>
      <trkpt lat="46.97288" lon="5.12585">
        <ele>244.79</ele>
        <time>2015-07-14T08:34:26.000Z</time>
      </trkpt>
      <trkpt lat="46.97287" lon="5.1257">
        <ele>244.79</ele>
        <time>2015-07-14T08:34:28.000Z</time>
      </trkpt>
      <trkpt lat="46.97285" lon="5.12554">
        <ele>245.27</ele>
        <time>2015-07-14T08:34:30.000Z</time>
      </trkpt>
      <trkpt lat="46.97284" lon="5.12538">
        <ele>245.27</ele>
        <time>2015-07-14T08:34:32.000Z</time>
      </trkpt>
      <trkpt lat="46.97283" lon="5.12523">
        <ele>244.31</ele>
        <time>2015-07-14T08:34:34.000Z</time>
      </trkpt>
      <trkpt lat="46.97282" lon="5.12508">
        <ele>244.31</ele>
        <time>2015-07-14T08:34:36.000Z</time>
      </trkpt>
      <trkpt lat="46.97281" lon="5.12494">
        <ele>244.31</ele>
        <time>2015-07-14T08:34:38.000Z</time>
      </trkpt>
      <trkpt lat="46.9728" lon="5.12479">
        <ele>244.31</ele>
        <time>2015-07-14T08:34:40.000Z</time>
      </trkpt>
      <trkpt lat="46.97279" lon="5.12464">
        <ele>244.31</ele>
        <time>2015-07-14T08:34:42.000Z</time>
      </trkpt>
      <trkpt lat="46.97278" lon="5.12448">
        <ele>244.31</ele>
        <time>2015-07-14T08:34:44.000Z</time>
      </trkpt>
      <trkpt lat="46.97277" lon="5.12433">
        <ele>244.31</ele>
        <time>2015-07-14T08:34:46.000Z</time>
      </trkpt>
      <trkpt lat="46.97276" lon="5.12418">
        <ele>244.79</ele>
        <time>2015-07-14T08:34:48.000Z</time>
      </trkpt>
      <trkpt lat="46.97275" lon="5.12402">
        <ele>245.27</ele>
        <time>2015-07-14T08:34:50.000Z</time>
      </trkpt>
      <trkpt lat="46.97274" lon="5.12387">
        <ele>245.27</ele>
        <time>2015-07-14T08:34:52.000Z</time>
      </trkpt>
      <trkpt lat="46.97272" lon="5.12371">
        <ele>244.79</ele>
        <time>2015-07-14T08:34:54.000Z</time>
      </trkpt>
      <trkpt lat="46.9727" lon="5.12355">
        <ele>244.79</ele>
        <time>2015-07-14T08:34:56.000Z</time>
      </trkpt>
      <trkpt lat="46.97268" lon="5.1234">
        <ele>244.79</ele>
        <time>2015-07-14T08:34:58.000Z</time>
      </trkpt>
      <trkpt lat="46.97264" lon="5.12325">
        <ele>244.79</ele>
        <time>2015-07-14T08:35:00.000Z</time>
      </trkpt>
      <trkpt lat="46.97261" lon="5.12311">
        <ele>244.79</ele>
        <time>2015-07-14T08:35:02.000Z</time>
      </trkpt>
      <trkpt lat="46.97257" lon="5.12296">
        <ele>244.79</ele>
        <time>2015-07-14T08:35:04.000Z</time>
      </trkpt>
      <trkpt lat="46.97254" lon="5.12281">
        <ele>244.79</ele>
        <time>2015-07-14T08:35:06.000Z</time>
      </trkpt>
      <trkpt lat="46.9725" lon="5.12266">
        <ele>244.79</ele>
        <time>2015-07-14T08:35:08.000Z</time>
      </trkpt>
      <trkpt lat="46.97247" lon="5.12251">
        <ele>245.27</ele>
        <time>2015-07-14T08:35:10.000Z</time>
      </trkpt>
      <trkpt lat="46.97244" lon="5.12235">
        <ele>244.79</ele>
        <time>2015-07-14T08:35:12.000Z</time>
      </trkpt>
      <trkpt lat="46.97242" lon="5.1222">
        <ele>245.27</ele>
        <time>2015-07-14T08:35:14.000Z</time>
      </trkpt>
      <trkpt lat="46.97238" lon="5.12204">
        <ele>244.79</ele>
        <time>2015-07-14T08:35:16.000Z</time>
      </trkpt>
      <trkpt lat="46.97234" lon="5.12189">
        <ele>244.79</ele>
        <time>2015-07-14T08:35:18.000Z</time>
      </trkpt>
      <trkpt lat="46.97227" lon="5.12175">
        <ele>244.79</ele>
        <time>2015-07-14T08:35:20.000Z</time>
      </trkpt>
      <trkpt lat="46.97221" lon="5.12162">
        <ele>244.79</ele>
        <time>2015-07-14T08:35:22.000Z</time>
      </trkpt>
      <trkpt lat="46.97215" lon="5.12149">
        <ele>244.79</ele>
        <time>2015-07-14T08:35:24.000Z</time>
      </trkpt>
      <trkpt lat="46.97209" lon="5.12137">
        <ele>244.79</ele>
        <time>2015-07-14T08:35:26.000Z</time>
      </trkpt>
      <trkpt lat="46.97202" lon="5.12125">
        <ele>244.79</ele>
        <time>2015-07-14T08:35:28.000Z</time>
      </trkpt>
      <trkpt lat="46.97195" lon="5.12114">
        <ele>244.79</ele>
        <time>2015-07-14T08:35:30.000Z</time>
      </trkpt>
      <trkpt lat="46.97187" lon="5.12103">
        <ele>244.79</ele>
        <time>2015-07-14T08:35:32.000Z</time>
      </trkpt>
      <trkpt lat="46.97179" lon="5.12093">
        <ele>244.79</ele>
        <time>2015-07-14T08:35:34.000Z</time>
      </trkpt>
      <trkpt lat="46.9717" lon="5.12084">
        <ele>244.79</ele>
        <time>2015-07-14T08:35:36.000Z</time>
      </trkpt>
      <trkpt lat="46.97161" lon="5.12076">
        <ele>244.79</ele>
        <time>2015-07-14T08:35:38.000Z</time>
      </trkpt>
      <trkpt lat="46.97151" lon="5.12069">
        <ele>244.31</ele>
        <time>2015-07-14T08:35:40.000Z</time>
      </trkpt>
      <trkpt lat="46.97141" lon="5.12062">
        <ele>244.79</ele>
        <time>2015-07-14T08:35:42.000Z</time>
      </trkpt>
      <trkpt lat="46.97131" lon="5.12057">
        <ele>244.31</ele>
        <time>2015-07-14T08:35:44.000Z</time>
      </trkpt>
      <trkpt lat="46.97121" lon="5.12051">
        <ele>244.31</ele>
        <time>2015-07-14T08:35:46.000Z</time>
      </trkpt>
      <trkpt lat="46.97112" lon="5.12044">
        <ele>244.31</ele>
        <time>2015-07-14T08:35:48.000Z</time>
      </trkpt>
      <trkpt lat="46.97102" lon="5.12037">
        <ele>244.31</ele>
        <time>2015-07-14T08:35:50.000Z</time>
      </trkpt>
      <trkpt lat="46.97092" lon="5.12031">
        <ele>244.31</ele>
        <time>2015-07-14T08:35:52.000Z</time>
      </trkpt>
      <trkpt lat="46.97081" lon="5.12025">
        <ele>244.31</ele>
        <time>2015-07-14T08:35:54.000Z</time>
      </trkpt>
      <trkpt lat="46.9707" lon="5.1202">
        <ele>244.31</ele>
        <time>2015-07-14T08:35:56.000Z</time>
      </trkpt>
      <trkpt lat="46.9706" lon="5.12015">
        <ele>243.83</ele>
        <time>2015-07-14T08:35:58.000Z</time>
      </trkpt>
      <trkpt lat="46.97049" lon="5.12009">
        <ele>244.31</ele>
        <time>2015-07-14T08:36:00.000Z</time>
      </trkpt>
      <trkpt lat="46.97039" lon="5.12004">
        <ele>243.83</ele>
        <time>2015-07-14T08:36:02.000Z</time>
      </trkpt>
      <trkpt lat="46.97028" lon="5.12">
        <ele>244.31</ele>
        <time>2015-07-14T08:36:04.000Z</time>
      </trkpt>
      <trkpt lat="46.97018" lon="5.11995">
        <ele>244.31</ele>
        <time>2015-07-14T08:36:06.000Z</time>
      </trkpt>
      <trkpt lat="46.97008" lon="5.11992">
        <ele>244.31</ele>
        <time>2015-07-14T08:36:08.000Z</time>
      </trkpt>
      <trkpt lat="46.96998" lon="5.11989">
        <ele>244.31</ele>
        <time>2015-07-14T08:36:10.000Z</time>
      </trkpt>
      <trkpt lat="46.96988" lon="5.11987">
        <ele>244.31</ele>
        <time>2015-07-14T08:36:12.000Z</time>
      </trkpt>
      <trkpt lat="46.96978" lon="5.11985">
        <ele>244.79</ele>
        <time>2015-07-14T08:36:14.000Z</time>
      </trkpt>
      <trkpt lat="46.96967" lon="5.11985">
        <ele>244.31</ele>
        <time>2015-07-14T08:36:16.000Z</time>
      </trkpt>
      <trkpt lat="46.96957" lon="5.11984">
        <ele>244.79</ele>
        <time>2015-07-14T08:36:18.000Z</time>
      </trkpt>
      <trkpt lat="46.96947" lon="5.11982">
        <ele>244.79</ele>
        <time>2015-07-14T08:36:20.000Z</time>
      </trkpt>
      <trkpt lat="46.96936" lon="5.1198">
        <ele>244.31</ele>
        <time>2015-07-14T08:36:22.000Z</time>
      </trkpt>
      <trkpt lat="46.96926" lon="5.11976">
        <ele>244.79</ele>
        <time>2015-07-14T08:36:24.000Z</time>
      </trkpt>
      <trkpt lat="46.96916" lon="5.11973">
        <ele>244.79</ele>
        <time>2015-07-14T08:36:26.000Z</time>
      </trkpt>
      <trkpt lat="46.96906" lon="5.1197">
        <ele>244.79</ele>
        <time>2015-07-14T08:36:28.000Z</time>
      </trkpt>
      <trkpt lat="46.96897" lon="5.11965">
        <ele>244.79</ele>
        <time>2015-07-14T08:36:30.000Z</time>
      </trkpt>
      <trkpt lat="46.96884" lon="5.11957">
        <ele>245.27</ele>
        <time>2015-07-14T08:36:33.000Z</time>
      </trkpt>
      <trkpt lat="46.96874" lon="5.11953">
        <ele>244.79</ele>
        <time>2015-07-14T08:36:35.000Z</time>
      </trkpt>
      <trkpt lat="46.96864" lon="5.11951">
        <ele>244.79</ele>
        <time>2015-07-14T08:36:37.000Z</time>
      </trkpt>
      <trkpt lat="46.96853" lon="5.11951">
        <ele>244.79</ele>
        <time>2015-07-14T08:36:39.000Z</time>
      </trkpt>
      <trkpt lat="46.96843" lon="5.1195">
        <ele>244.79</ele>
        <time>2015-07-14T08:36:41.000Z</time>
      </trkpt>
      <trkpt lat="46.96832" lon="5.1195">
        <ele>244.31</ele>
        <time>2015-07-14T08:36:43.000Z</time>
      </trkpt>
      <trkpt lat="46.9682" lon="5.11948">
        <ele>244.79</ele>
        <time>2015-07-14T08:36:45.000Z</time>
      </trkpt>
      <trkpt lat="46.96809" lon="5.11947">
        <ele>244.79</ele>
        <time>2015-07-14T08:36:47.000Z</time>
      </trkpt>
      <trkpt lat="46.96798" lon="5.11944">
        <ele>244.79</ele>
        <time>2015-07-14T08:36:49.000Z</time>
      </trkpt>
      <trkpt lat="46.96786" lon="5.11942">
        <ele>244.79</ele>
        <time>2015-07-14T08:36:51.000Z</time>
      </trkpt>
      <trkpt lat="46.96775" lon="5.11941">
        <ele>244.79</ele>
        <time>2015-07-14T08:36:53.000Z</time>
      </trkpt>
      <trkpt lat="46.96763" lon="5.11941">
        <ele>244.79</ele>
        <time>2015-07-14T08:36:55.000Z</time>
      </trkpt>
      <trkpt lat="46.96751" lon="5.11941">
        <ele>244.79</ele>
        <time>2015-07-14T08:36:57.000Z</time>
      </trkpt>
      <trkpt lat="46.96739" lon="5.11941">
        <ele>244.79</ele>
        <time>2015-07-14T08:36:59.000Z</time>
      </trkpt>
      <trkpt lat="46.96728" lon="5.11942">
        <ele>244.79</ele>
        <time>2015-07-14T08:37:01.000Z</time>
      </trkpt>
      <trkpt lat="46.96717" lon="5.11942">
        <ele>244.31</ele>
        <time>2015-07-14T08:37:03.000Z</time>
      </trkpt>
      <trkpt lat="46.96706" lon="5.11942">
        <ele>244.79</ele>
        <time>2015-07-14T08:37:05.000Z</time>
      </trkpt>
      <trkpt lat="46.96695" lon="5.11943">
        <ele>244.79</ele>
        <time>2015-07-14T08:37:07.000Z</time>
      </trkpt>
      <trkpt lat="46.96684" lon="5.11944">
        <ele>244.79</ele>
        <time>2015-07-14T08:37:09.000Z</time>
      </trkpt>
      <trkpt lat="46.96674" lon="5.11946">
        <ele>244.79</ele>
        <time>2015-07-14T08:37:11.000Z</time>
      </trkpt>
      <trkpt lat="46.96663" lon="5.11947">
        <ele>244.79</ele>
        <time>2015-07-14T08:37:13.000Z</time>
      </trkpt>
      <trkpt lat="46.96652" lon="5.11948">
        <ele>244.79</ele>
        <time>2015-07-14T08:37:15.000Z</time>
      </trkpt>
      <trkpt lat="46.9664" lon="5.11949">
        <ele>244.31</ele>
        <time>2015-07-14T08:37:17.000Z</time>
      </trkpt>
      <trkpt lat="46.96629" lon="5.1195">
        <ele>244.31</ele>
        <time>2015-07-14T08:37:19.000Z</time>
      </trkpt>
      <trkpt lat="46.96618" lon="5.11951">
        <ele>244.31</ele>
        <time>2015-07-14T08:37:21.000Z</time>
      </trkpt>
      <trkpt lat="46.96607" lon="5.11953">
        <ele>244.79</ele>
        <time>2015-07-14T08:37:23.000Z</time>
      </trkpt>
      <trkpt lat="46.96596" lon="5.11954">
        <ele>244.31</ele>
        <time>2015-07-14T08:37:25.000Z</time>
      </trkpt>
      <trkpt lat="46.96585" lon="5.11956">
        <ele>244.79</ele>
        <time>2015-07-14T08:37:27.000Z</time>
      </trkpt>
      <trkpt lat="46.96574" lon="5.11958">
        <ele>244.31</ele>
        <time>2015-07-14T08:37:29.000Z</time>
      </trkpt>
      <trkpt lat="46.96563" lon="5.11961">
        <ele>243.83</ele>
        <time>2015-07-14T08:37:31.000Z</time>
      </trkpt>
      <trkpt lat="46.96553" lon="5.11964">
        <ele>244.79</ele>
        <time>2015-07-14T08:37:33.000Z</time>
      </trkpt>
      <trkpt lat="46.96543" lon="5.11968">
        <ele>243.83</ele>
        <time>2015-07-14T08:37:35.000Z</time>
      </trkpt>
      <trkpt lat="46.96532" lon="5.11973">
        <ele>243.83</ele>
        <time>2015-07-14T08:37:37.000Z</time>
      </trkpt>
      <trkpt lat="46.96522" lon="5.11977">
        <ele>243.83</ele>
        <time>2015-07-14T08:37:39.000Z</time>
      </trkpt>
      <trkpt lat="46.96512" lon="5.11981">
        <ele>243.83</ele>
        <time>2015-07-14T08:37:41.000Z</time>
      </trkpt>
      <trkpt lat="46.96502" lon="5.11987">
        <ele>243.35</ele>
        <time>2015-07-14T08:37:43.000Z</time>
      </trkpt>
      <trkpt lat="46.96492" lon="5.11993">
        <ele>243.83</ele>
        <time>2015-07-14T08:37:45.000Z</time>
      </trkpt>
      <trkpt lat="46.96482" lon="5.11999">
        <ele>243.83</ele>
        <time>2015-07-14T08:37:47.000Z</time>
      </trkpt>
      <trkpt lat="46.96473" lon="5.12005">
        <ele>244.31</ele>
        <time>2015-07-14T08:37:49.000Z</time>
      </trkpt>
      <trkpt lat="46.96463" lon="5.12011">
        <ele>244.31</ele>
        <time>2015-07-14T08:37:51.000Z</time>
      </trkpt>
      <trkpt lat="46.96453" lon="5.12018">
        <ele>244.31</ele>
        <time>2015-07-14T08:37:53.000Z</time>
      </trkpt>
      <trkpt lat="46.96444" lon="5.12025">
        <ele>244.31</ele>
        <time>2015-07-14T08:37:55.000Z</time>
      </trkpt>
      <trkpt lat="46.96435" lon="5.12032">
        <ele>244.31</ele>
        <time>2015-07-14T08:37:57.000Z</time>
      </trkpt>
      <trkpt lat="46.96425" lon="5.12038">
        <ele>244.31</ele>
        <time>2015-07-14T08:37:59.000Z</time>
      </trkpt>
      <trkpt lat="46.96416" lon="5.12045">
        <ele>244.31</ele>
        <time>2015-07-14T08:38:01.000Z</time>
      </trkpt>
      <trkpt lat="46.96406" lon="5.12051">
        <ele>244.31</ele>
        <time>2015-07-14T08:38:03.000Z</time>
      </trkpt>
      <trkpt lat="46.96397" lon="5.12058">
        <ele>244.31</ele>
        <time>2015-07-14T08:38:05.000Z</time>
      </trkpt>
      <trkpt lat="46.96389" lon="5.12064">
        <ele>244.31</ele>
        <time>2015-07-14T08:38:07.000Z</time>
      </trkpt>
      <trkpt lat="46.96379" lon="5.1207">
        <ele>244.31</ele>
        <time>2015-07-14T08:38:09.000Z</time>
      </trkpt>
      <trkpt lat="46.9637" lon="5.12077">
        <ele>244.31</ele>
        <time>2015-07-14T08:38:11.000Z</time>
      </trkpt>
      <trkpt lat="46.9636" lon="5.12083">
        <ele>244.31</ele>
        <time>2015-07-14T08:38:13.000Z</time>
      </trkpt>
      <trkpt lat="46.96351" lon="5.12089">
        <ele>244.31</ele>
        <time>2015-07-14T08:38:15.000Z</time>
      </trkpt>
      <trkpt lat="46.96341" lon="5.12096">
        <ele>244.31</ele>
        <time>2015-07-14T08:38:17.000Z</time>
      </trkpt>
      <trkpt lat="46.96333" lon="5.12101">
        <ele>244.31</ele>
        <time>2015-07-14T08:38:19.000Z</time>
      </trkpt>
      <trkpt lat="46.96323" lon="5.12106">
        <ele>244.31</ele>
        <time>2015-07-14T08:38:21.000Z</time>
      </trkpt>
      <trkpt lat="46.96314" lon="5.12111">
        <ele>244.31</ele>
        <time>2015-07-14T08:38:23.000Z</time>
      </trkpt>
      <trkpt lat="46.96305" lon="5.12115">
        <ele>243.83</ele>
        <time>2015-07-14T08:38:25.000Z</time>
      </trkpt>
      <trkpt lat="46.96295" lon="5.1212">
        <ele>243.83</ele>
        <time>2015-07-14T08:38:27.000Z</time>
      </trkpt>
      <trkpt lat="46.96286" lon="5.12126">
        <ele>244.31</ele>
        <time>2015-07-14T08:38:29.000Z</time>
      </trkpt>
      <trkpt lat="46.96277" lon="5.12132">
        <ele>243.83</ele>
        <time>2015-07-14T08:38:31.000Z</time>
      </trkpt>
      <trkpt lat="46.96269" lon="5.12137">
        <ele>244.31</ele>
        <time>2015-07-14T08:38:33.000Z</time>
      </trkpt>
      <trkpt lat="46.9626" lon="5.12141">
        <ele>244.31</ele>
        <time>2015-07-14T08:38:35.000Z</time>
      </trkpt>
      <trkpt lat="46.9625" lon="5.12144">
        <ele>243.83</ele>
        <time>2015-07-14T08:38:37.000Z</time>
      </trkpt>
      <trkpt lat="46.96239" lon="5.12146">
        <ele>243.83</ele>
        <time>2015-07-14T08:38:39.000Z</time>
      </trkpt>
      <trkpt lat="46.96229" lon="5.12148">
        <ele>243.83</ele>
        <time>2015-07-14T08:38:41.000Z</time>
      </trkpt>
      <trkpt lat="46.96218" lon="5.12149">
        <ele>243.83</ele>
        <time>2015-07-14T08:38:43.000Z</time>
      </trkpt>
      <trkpt lat="46.96209" lon="5.1215">
        <ele>243.83</ele>
        <time>2015-07-14T08:38:45.000Z</time>
      </trkpt>
      <trkpt lat="46.96198" lon="5.12149">
        <ele>244.31</ele>
        <time>2015-07-14T08:38:47.000Z</time>
      </trkpt>
      <trkpt lat="46.96188" lon="5.12148">
        <ele>244.31</ele>
        <time>2015-07-14T08:38:49.000Z</time>
      </trkpt>
      <trkpt lat="46.96178" lon="5.12147">
        <ele>244.31</ele>
        <time>2015-07-14T08:38:51.000Z</time>
      </trkpt>
      <trkpt lat="46.96168" lon="5.12144">
        <ele>243.83</ele>
        <time>2015-07-14T08:38:53.000Z</time>
      </trkpt>
      <trkpt lat="46.96158" lon="5.12141">
        <ele>244.31</ele>
        <time>2015-07-14T08:38:55.000Z</time>
      </trkpt>
      <trkpt lat="46.96149" lon="5.12137">
        <ele>243.83</ele>
        <time>2015-07-14T08:38:57.000Z</time>
      </trkpt>
      <trkpt lat="46.9614" lon="5.12134">
        <ele>244.31</ele>
        <time>2015-07-14T08:38:59.000Z</time>
      </trkpt>
      <trkpt lat="46.96128" lon="5.12127">
        <ele>244.31</ele>
        <time>2015-07-14T08:39:02.000Z</time>
      </trkpt>
      <trkpt lat="46.9612" lon="5.12122">
        <ele>244.31</ele>
        <time>2015-07-14T08:39:05.000Z</time>
      </trkpt>
      <trkpt lat="46.96112" lon="5.12114">
        <ele>244.31</ele>
        <time>2015-07-14T08:39:08.000Z</time>
      </trkpt>
      <trkpt lat="46.96103" lon="5.12105">
        <ele>243.83</ele>
        <time>2015-07-14T08:39:11.000Z</time>
      </trkpt>
      <trkpt lat="46.96091" lon="5.12097">
        <ele>244.31</ele>
        <time>2015-07-14T08:39:14.000Z</time>
      </trkpt>
      <trkpt lat="46.96084" lon="5.12092">
        <ele>244.31</ele>
        <time>2015-07-14T08:39:16.000Z</time>
      </trkpt>
      <trkpt lat="46.96073" lon="5.12089">
        <ele>243.83</ele>
        <time>2015-07-14T08:39:19.000Z</time>
      </trkpt>
      <trkpt lat="46.96062" lon="5.12089">
        <ele>244.79</ele>
        <time>2015-07-14T08:39:23.000Z</time>
      </trkpt>
      <trkpt lat="46.96054" lon="5.12084">
        <ele>245.75</ele>
        <time>2015-07-14T08:39:27.000Z</time>
      </trkpt>
      <trkpt lat="46.96045" lon="5.12074">
        <ele>245.75</ele>
        <time>2015-07-14T08:39:31.000Z</time>
      </trkpt>
      <trkpt lat="46.96037" lon="5.12061">
        <ele>247.2</ele>
        <time>2015-07-14T08:39:35.000Z</time>
      </trkpt>
      <trkpt lat="46.96029" lon="5.12051">
        <ele>246.72</ele>
        <time>2015-07-14T08:39:38.000Z</time>
      </trkpt>
      <trkpt lat="46.9602" lon="5.12038">
        <ele>245.75</ele>
        <time>2015-07-14T08:39:41.000Z</time>
      </trkpt>
      <trkpt lat="46.96013" lon="5.12027">
        <ele>245.75</ele>
        <time>2015-07-14T08:39:43.000Z</time>
      </trkpt>
      <trkpt lat="46.96006" lon="5.12018">
        <ele>245.75</ele>
        <time>2015-07-14T08:39:45.000Z</time>
      </trkpt>
      <trkpt lat="46.95998" lon="5.1201">
        <ele>245.27</ele>
        <time>2015-07-14T08:39:47.000Z</time>
      </trkpt>
      <trkpt lat="46.9599" lon="5.12005">
        <ele>246.23</ele>
        <time>2015-07-14T08:39:49.000Z</time>
      </trkpt>
      <trkpt lat="46.95981" lon="5.12001">
        <ele>246.72</ele>
        <time>2015-07-14T08:39:51.000Z</time>
      </trkpt>
      <trkpt lat="46.95972" lon="5.11998">
        <ele>247.2</ele>
        <time>2015-07-14T08:39:53.000Z</time>
      </trkpt>
      <trkpt lat="46.95959" lon="5.11993">
        <ele>247.2</ele>
        <time>2015-07-14T08:39:56.000Z</time>
      </trkpt>
      <trkpt lat="46.95947" lon="5.11987">
        <ele>247.68</ele>
        <time>2015-07-14T08:39:59.000Z</time>
      </trkpt>
      <trkpt lat="46.95935" lon="5.11981">
        <ele>247.68</ele>
        <time>2015-07-14T08:40:02.000Z</time>
      </trkpt>
      <trkpt lat="46.95923" lon="5.11977">
        <ele>247.68</ele>
        <time>2015-07-14T08:40:05.000Z</time>
      </trkpt>
      <trkpt lat="46.9591" lon="5.11976">
        <ele>247.68</ele>
        <time>2015-07-14T08:40:08.000Z</time>
      </trkpt>
      <trkpt lat="46.95898" lon="5.11979">
        <ele>247.68</ele>
        <time>2015-07-14T08:40:11.000Z</time>
      </trkpt>
      <trkpt lat="46.9589" lon="5.11983">
        <ele>247.68</ele>
        <time>2015-07-14T08:40:14.000Z</time>
      </trkpt>
      <trkpt lat="46.9588" lon="5.11985">
        <ele>247.2</ele>
        <time>2015-07-14T08:40:48.000Z</time>
      </trkpt>
      <trkpt lat="46.9587" lon="5.1199">
        <ele>247.68</ele>
        <time>2015-07-14T08:40:52.000Z</time>
      </trkpt>
      <trkpt lat="46.9586" lon="5.11995">
        <ele>247.68</ele>
        <time>2015-07-14T08:40:55.000Z</time>
      </trkpt>
      <trkpt lat="46.95848" lon="5.11999">
        <ele>247.68</ele>
        <time>2015-07-14T08:40:58.000Z</time>
      </trkpt>
      <trkpt lat="46.95836" lon="5.12006">
        <ele>247.68</ele>
        <time>2015-07-14T08:41:01.000Z</time>
      </trkpt>
      <trkpt lat="46.95827" lon="5.12012">
        <ele>247.2</ele>
        <time>2015-07-14T08:41:03.000Z</time>
      </trkpt>
      <trkpt lat="46.95819" lon="5.1202">
        <ele>247.2</ele>
        <time>2015-07-14T08:41:05.000Z</time>
      </trkpt>
      <trkpt lat="46.95812" lon="5.12028">
        <ele>246.72</ele>
        <time>2015-07-14T08:41:07.000Z</time>
      </trkpt>
      <trkpt lat="46.95805" lon="5.12037">
        <ele>247.2</ele>
        <time>2015-07-14T08:41:09.000Z</time>
      </trkpt>
      <trkpt lat="46.95799" lon="5.12048">
        <ele>247.2</ele>
        <time>2015-07-14T08:41:11.000Z</time>
      </trkpt>
      <trkpt lat="46.95795" lon="5.12061">
        <ele>247.2</ele>
        <time>2015-07-14T08:41:13.000Z</time>
      </trkpt>
      <trkpt lat="46.95791" lon="5.12074">
        <ele>247.2</ele>
        <time>2015-07-14T08:41:15.000Z</time>
      </trkpt>
      <trkpt lat="46.95787" lon="5.12088">
        <ele>247.68</ele>
        <time>2015-07-14T08:41:17.000Z</time>
      </trkpt>
      <trkpt lat="46.95784" lon="5.12102">
        <ele>248.16</ele>
        <time>2015-07-14T08:41:19.000Z</time>
      </trkpt>
      <trkpt lat="46.95781" lon="5.12115">
        <ele>248.16</ele>
        <time>2015-07-14T08:41:21.000Z</time>
      </trkpt>
      <trkpt lat="46.95777" lon="5.12129">
        <ele>247.68</ele>
        <time>2015-07-14T08:41:23.000Z</time>
      </trkpt>
      <trkpt lat="46.95773" lon="5.12142">
        <ele>247.68</ele>
        <time>2015-07-14T08:41:25.000Z</time>
      </trkpt>
      <trkpt lat="46.9577" lon="5.12156">
        <ele>247.68</ele>
        <time>2015-07-14T08:41:27.000Z</time>
      </trkpt>
      <trkpt lat="46.95767" lon="5.12169">
        <ele>248.16</ele>
        <time>2015-07-14T08:41:29.000Z</time>
      </trkpt>
      <trkpt lat="46.95763" lon="5.12183">
        <ele>247.68</ele>
        <time>2015-07-14T08:41:31.000Z</time>
      </trkpt>
      <trkpt lat="46.9576" lon="5.12196">
        <ele>247.68</ele>
        <time>2015-07-14T08:41:33.000Z</time>
      </trkpt>
      <trkpt lat="46.95756" lon="5.1221">
        <ele>247.68</ele>
        <time>2015-07-14T08:41:35.000Z</time>
      </trkpt>
      <trkpt lat="46.95752" lon="5.12224">
        <ele>248.16</ele>
        <time>2015-07-14T08:41:37.000Z</time>
      </trkpt>
      <trkpt lat="46.95749" lon="5.12239">
        <ele>247.68</ele>
        <time>2015-07-14T08:41:39.000Z</time>
      </trkpt>
      <trkpt lat="46.95745" lon="5.12253">
        <ele>248.16</ele>
        <time>2015-07-14T08:41:41.000Z</time>
      </trkpt>
      <trkpt lat="46.95742" lon="5.12267">
        <ele>248.16</ele>
        <time>2015-07-14T08:41:43.000Z</time>
      </trkpt>
      <trkpt lat="46.95738" lon="5.12281">
        <ele>247.68</ele>
        <time>2015-07-14T08:41:45.000Z</time>
      </trkpt>
      <trkpt lat="46.95735" lon="5.12296">
        <ele>247.68</ele>
        <time>2015-07-14T08:41:47.000Z</time>
      </trkpt>
      <trkpt lat="46.95733" lon="5.1231">
        <ele>248.16</ele>
        <time>2015-07-14T08:41:49.000Z</time>
      </trkpt>
      <trkpt lat="46.9573" lon="5.12324">
        <ele>248.16</ele>
        <time>2015-07-14T08:41:51.000Z</time>
      </trkpt>
      <trkpt lat="46.95726" lon="5.12338">
        <ele>248.16</ele>
        <time>2015-07-14T08:41:53.000Z</time>
      </trkpt>
      <trkpt lat="46.95721" lon="5.1235">
        <ele>248.16</ele>
        <time>2015-07-14T08:41:55.000Z</time>
      </trkpt>
      <trkpt lat="46.95712" lon="5.12358">
        <ele>248.16</ele>
        <time>2015-07-14T08:41:57.000Z</time>
      </trkpt>
      <trkpt lat="46.95703" lon="5.12362">
        <ele>248.64</ele>
        <time>2015-07-14T08:41:59.000Z</time>
      </trkpt>
      <trkpt lat="46.95694" lon="5.12366">
        <ele>248.16</ele>
        <time>2015-07-14T08:42:01.000Z</time>
      </trkpt>
      <trkpt lat="46.95684" lon="5.1237">
        <ele>248.64</ele>
        <time>2015-07-14T08:42:03.000Z</time>
      </trkpt>
      <trkpt lat="46.95675" lon="5.12373">
        <ele>248.16</ele>
        <time>2015-07-14T08:42:05.000Z</time>
      </trkpt>
      <trkpt lat="46.95665" lon="5.12378">
        <ele>247.68</ele>
        <time>2015-07-14T08:42:07.000Z</time>
      </trkpt>
      <trkpt lat="46.95655" lon="5.12382">
        <ele>247.68</ele>
        <time>2015-07-14T08:42:09.000Z</time>
      </trkpt>
      <trkpt lat="46.95646" lon="5.12385">
        <ele>247.68</ele>
        <time>2015-07-14T08:42:11.000Z</time>
      </trkpt>
      <trkpt lat="46.95636" lon="5.12389">
        <ele>248.16</ele>
        <time>2015-07-14T08:42:13.000Z</time>
      </trkpt>
      <trkpt lat="46.95627" lon="5.12393">
        <ele>248.16</ele>
        <time>2015-07-14T08:42:15.000Z</time>
      </trkpt>
      <trkpt lat="46.95618" lon="5.12396">
        <ele>247.68</ele>
        <time>2015-07-14T08:42:17.000Z</time>
      </trkpt>
      <trkpt lat="46.95608" lon="5.124">
        <ele>248.16</ele>
        <time>2015-07-14T08:42:19.000Z</time>
      </trkpt>
      <trkpt lat="46.95599" lon="5.12404">
        <ele>249.12</ele>
        <time>2015-07-14T08:42:21.000Z</time>
      </trkpt>
      <trkpt lat="46.95589" lon="5.12408">
        <ele>249.12</ele>
        <time>2015-07-14T08:42:23.000Z</time>
      </trkpt>
      <trkpt lat="46.9558" lon="5.12411">
        <ele>249.12</ele>
        <time>2015-07-14T08:42:25.000Z</time>
      </trkpt>
      <trkpt lat="46.95571" lon="5.12415">
        <ele>249.12</ele>
        <time>2015-07-14T08:42:27.000Z</time>
      </trkpt>
      <trkpt lat="46.95561" lon="5.12417">
        <ele>249.12</ele>
        <time>2015-07-14T08:42:29.000Z</time>
      </trkpt>
      <trkpt lat="46.95551" lon="5.1242">
        <ele>249.12</ele>
        <time>2015-07-14T08:42:31.000Z</time>
      </trkpt>
      <trkpt lat="46.95541" lon="5.12421">
        <ele>249.6</ele>
        <time>2015-07-14T08:42:33.000Z</time>
      </trkpt>
      <trkpt lat="46.95531" lon="5.12422">
        <ele>249.6</ele>
        <time>2015-07-14T08:42:35.000Z</time>
      </trkpt>
      <trkpt lat="46.9552" lon="5.12422">
        <ele>249.6</ele>
        <time>2015-07-14T08:42:37.000Z</time>
      </trkpt>
      <trkpt lat="46.95509" lon="5.12422">
        <ele>250.08</ele>
        <time>2015-07-14T08:42:39.000Z</time>
      </trkpt>
      <trkpt lat="46.95499" lon="5.12422">
        <ele>250.08</ele>
        <time>2015-07-14T08:42:41.000Z</time>
      </trkpt>
      <trkpt lat="46.95489" lon="5.12422">
        <ele>250.56</ele>
        <time>2015-07-14T08:42:43.000Z</time>
      </trkpt>
      <trkpt lat="46.95479" lon="5.12422">
        <ele>251.04</ele>
        <time>2015-07-14T08:42:45.000Z</time>
      </trkpt>
      <trkpt lat="46.95469" lon="5.12422">
        <ele>251.04</ele>
        <time>2015-07-14T08:42:47.000Z</time>
      </trkpt>
      <trkpt lat="46.95459" lon="5.12422">
        <ele>251.04</ele>
        <time>2015-07-14T08:42:49.000Z</time>
      </trkpt>
      <trkpt lat="46.95449" lon="5.12421">
        <ele>251.52</ele>
        <time>2015-07-14T08:42:51.000Z</time>
      </trkpt>
      <trkpt lat="46.95439" lon="5.1242">
        <ele>251.52</ele>
        <time>2015-07-14T08:42:53.000Z</time>
      </trkpt>
      <trkpt lat="46.95429" lon="5.1242">
        <ele>252</ele>
        <time>2015-07-14T08:42:55.000Z</time>
      </trkpt>
      <trkpt lat="46.95419" lon="5.1242">
        <ele>252</ele>
        <time>2015-07-14T08:42:57.000Z</time>
      </trkpt>
      <trkpt lat="46.95409" lon="5.1242">
        <ele>252.48</ele>
        <time>2015-07-14T08:42:59.000Z</time>
      </trkpt>
      <trkpt lat="46.95399" lon="5.12419">
        <ele>252.96</ele>
        <time>2015-07-14T08:43:01.000Z</time>
      </trkpt>
      <trkpt lat="46.9539" lon="5.12419">
        <ele>253.44</ele>
        <time>2015-07-14T08:43:03.000Z</time>
      </trkpt>
      <trkpt lat="46.95381" lon="5.12419">
        <ele>253.44</ele>
        <time>2015-07-14T08:43:05.000Z</time>
      </trkpt>
      <trkpt lat="46.95372" lon="5.12418">
        <ele>253.44</ele>
        <time>2015-07-14T08:43:07.000Z</time>
      </trkpt>
      <trkpt lat="46.95362" lon="5.12418">
        <ele>253.93</ele>
        <time>2015-07-14T08:43:09.000Z</time>
      </trkpt>
      <trkpt lat="46.95353" lon="5.12417">
        <ele>254.41</ele>
        <time>2015-07-14T08:43:11.000Z</time>
      </trkpt>
      <trkpt lat="46.9534" lon="5.12417">
        <ele>254.89</ele>
        <time>2015-07-14T08:43:14.000Z</time>
      </trkpt>
      <trkpt lat="46.95327" lon="5.12417">
        <ele>254.89</ele>
        <time>2015-07-14T08:43:17.000Z</time>
      </trkpt>
      <trkpt lat="46.95314" lon="5.12416">
        <ele>255.37</ele>
        <time>2015-07-14T08:43:20.000Z</time>
      </trkpt>
      <trkpt lat="46.95301" lon="5.12416">
        <ele>255.85</ele>
        <time>2015-07-14T08:43:23.000Z</time>
      </trkpt>
      <trkpt lat="46.95288" lon="5.12415">
        <ele>255.85</ele>
        <time>2015-07-14T08:43:26.000Z</time>
      </trkpt>
      <trkpt lat="46.95276" lon="5.12414">
        <ele>256.33</ele>
        <time>2015-07-14T08:43:29.000Z</time>
      </trkpt>
      <trkpt lat="46.95263" lon="5.12414">
        <ele>256.81</ele>
        <time>2015-07-14T08:43:32.000Z</time>
      </trkpt>
      <trkpt lat="46.95254" lon="5.12413">
        <ele>257.29</ele>
        <time>2015-07-14T08:43:34.000Z</time>
      </trkpt>
      <trkpt lat="46.95241" lon="5.12412">
        <ele>257.29</ele>
        <time>2015-07-14T08:43:37.000Z</time>
      </trkpt>
      <trkpt lat="46.95227" lon="5.1241">
        <ele>257.29</ele>
        <time>2015-07-14T08:43:40.000Z</time>
      </trkpt>
      <trkpt lat="46.95214" lon="5.12408">
        <ele>257.29</ele>
        <time>2015-07-14T08:43:43.000Z</time>
      </trkpt>
      <trkpt lat="46.95205" lon="5.12406">
        <ele>257.77</ele>
        <time>2015-07-14T08:43:45.000Z</time>
      </trkpt>
      <trkpt lat="46.95197" lon="5.12404">
        <ele>257.77</ele>
        <time>2015-07-14T08:43:47.000Z</time>
      </trkpt>
      <trkpt lat="46.95187" lon="5.12401">
        <ele>258.25</ele>
        <time>2015-07-14T08:43:49.000Z</time>
      </trkpt>
      <trkpt lat="46.95177" lon="5.12399">
        <ele>258.25</ele>
        <time>2015-07-14T08:43:51.000Z</time>
      </trkpt>
      <trkpt lat="46.95168" lon="5.12397">
        <ele>258.25</ele>
        <time>2015-07-14T08:43:53.000Z</time>
      </trkpt>
      <trkpt lat="46.95158" lon="5.12394">
        <ele>258.25</ele>
        <time>2015-07-14T08:43:55.000Z</time>
      </trkpt>
      <trkpt lat="46.95148" lon="5.12392">
        <ele>258.25</ele>
        <time>2015-07-14T08:43:57.000Z</time>
      </trkpt>
      <trkpt lat="46.95139" lon="5.12389">
        <ele>258.25</ele>
        <time>2015-07-14T08:43:59.000Z</time>
      </trkpt>
      <trkpt lat="46.95129" lon="5.12386">
        <ele>258.25</ele>
        <time>2015-07-14T08:44:01.000Z</time>
      </trkpt>
      <trkpt lat="46.95119" lon="5.12383">
        <ele>258.73</ele>
        <time>2015-07-14T08:44:03.000Z</time>
      </trkpt>
      <trkpt lat="46.9511" lon="5.12381">
        <ele>259.21</ele>
        <time>2015-07-14T08:44:05.000Z</time>
      </trkpt>
      <trkpt lat="46.951" lon="5.12378">
        <ele>259.21</ele>
        <time>2015-07-14T08:44:07.000Z</time>
      </trkpt>
      <trkpt lat="46.9509" lon="5.12374">
        <ele>259.21</ele>
        <time>2015-07-14T08:44:09.000Z</time>
      </trkpt>
      <trkpt lat="46.9508" lon="5.1237">
        <ele>259.21</ele>
        <time>2015-07-14T08:44:11.000Z</time>
      </trkpt>
      <trkpt lat="46.9507" lon="5.12367">
        <ele>259.21</ele>
        <time>2015-07-14T08:44:13.000Z</time>
      </trkpt>
      <trkpt lat="46.9506" lon="5.12363">
        <ele>259.21</ele>
        <time>2015-07-14T08:44:15.000Z</time>
      </trkpt>
      <trkpt lat="46.9505" lon="5.12359">
        <ele>258.73</ele>
        <time>2015-07-14T08:44:17.000Z</time>
      </trkpt>
      <trkpt lat="46.9504" lon="5.12355">
        <ele>258.73</ele>
        <time>2015-07-14T08:44:19.000Z</time>
      </trkpt>
      <trkpt lat="46.95031" lon="5.1235">
        <ele>257.77</ele>
        <time>2015-07-14T08:44:21.000Z</time>
      </trkpt>
      <trkpt lat="46.95021" lon="5.12345">
        <ele>257.77</ele>
        <time>2015-07-14T08:44:23.000Z</time>
      </trkpt>
      <trkpt lat="46.95012" lon="5.1234">
        <ele>257.77</ele>
        <time>2015-07-14T08:44:25.000Z</time>
      </trkpt>
      <trkpt lat="46.95002" lon="5.12335">
        <ele>258.25</ele>
        <time>2015-07-14T08:44:27.000Z</time>
      </trkpt>
      <trkpt lat="46.94993" lon="5.1233">
        <ele>257.77</ele>
        <time>2015-07-14T08:44:29.000Z</time>
      </trkpt>
      <trkpt lat="46.94984" lon="5.12324">
        <ele>258.25</ele>
        <time>2015-07-14T08:44:31.000Z</time>
      </trkpt>
      <trkpt lat="46.94975" lon="5.12317">
        <ele>259.21</ele>
        <time>2015-07-14T08:44:33.000Z</time>
      </trkpt>
      <trkpt lat="46.94967" lon="5.1231">
        <ele>259.21</ele>
        <time>2015-07-14T08:44:35.000Z</time>
      </trkpt>
      <trkpt lat="46.94957" lon="5.12303">
        <ele>259.21</ele>
        <time>2015-07-14T08:44:37.000Z</time>
      </trkpt>
      <trkpt lat="46.94949" lon="5.12294">
        <ele>259.21</ele>
        <time>2015-07-14T08:44:39.000Z</time>
      </trkpt>
      <trkpt lat="46.9494" lon="5.12285">
        <ele>258.73</ele>
        <time>2015-07-14T08:44:41.000Z</time>
      </trkpt>
      <trkpt lat="46.94931" lon="5.12276">
        <ele>259.21</ele>
        <time>2015-07-14T08:44:43.000Z</time>
      </trkpt>
      <trkpt lat="46.94922" lon="5.12267">
        <ele>259.21</ele>
        <time>2015-07-14T08:44:45.000Z</time>
      </trkpt>
      <trkpt lat="46.94913" lon="5.12258">
        <ele>259.21</ele>
        <time>2015-07-14T08:44:47.000Z</time>
      </trkpt>
      <trkpt lat="46.94904" lon="5.12251">
        <ele>258.73</ele>
        <time>2015-07-14T08:44:49.000Z</time>
      </trkpt>
      <trkpt lat="46.94895" lon="5.12242">
        <ele>259.21</ele>
        <time>2015-07-14T08:44:51.000Z</time>
      </trkpt>
      <trkpt lat="46.94885" lon="5.12233">
        <ele>259.21</ele>
        <time>2015-07-14T08:44:53.000Z</time>
      </trkpt>
      <trkpt lat="46.94876" lon="5.12225">
        <ele>259.21</ele>
        <time>2015-07-14T08:44:55.000Z</time>
      </trkpt>
      <trkpt lat="46.94866" lon="5.12218">
        <ele>258.73</ele>
        <time>2015-07-14T08:44:57.000Z</time>
      </trkpt>
      <trkpt lat="46.94857" lon="5.12211">
        <ele>258.25</ele>
        <time>2015-07-14T08:44:59.000Z</time>
      </trkpt>
      <trkpt lat="46.94847" lon="5.12204">
        <ele>258.73</ele>
        <time>2015-07-14T08:45:01.000Z</time>
      </trkpt>
      <trkpt lat="46.94837" lon="5.12196">
        <ele>258.73</ele>
        <time>2015-07-14T08:45:03.000Z</time>
      </trkpt>
      <trkpt lat="46.94827" lon="5.12188">
        <ele>258.73</ele>
        <time>2015-07-14T08:45:05.000Z</time>
      </trkpt>
      <trkpt lat="46.94818" lon="5.1218">
        <ele>258.73</ele>
        <time>2015-07-14T08:45:07.000Z</time>
      </trkpt>
      <trkpt lat="46.94809" lon="5.12171">
        <ele>257.77</ele>
        <time>2015-07-14T08:45:09.000Z</time>
      </trkpt>
      <trkpt lat="46.948" lon="5.12161">
        <ele>257.77</ele>
        <time>2015-07-14T08:45:11.000Z</time>
      </trkpt>
      <trkpt lat="46.94791" lon="5.12151">
        <ele>257.77</ele>
        <time>2015-07-14T08:45:13.000Z</time>
      </trkpt>
      <trkpt lat="46.94782" lon="5.12141">
        <ele>257.77</ele>
        <time>2015-07-14T08:45:15.000Z</time>
      </trkpt>
      <trkpt lat="46.94773" lon="5.1213">
        <ele>257.77</ele>
        <time>2015-07-14T08:45:17.000Z</time>
      </trkpt>
      <trkpt lat="46.94765" lon="5.12119">
        <ele>257.29</ele>
        <time>2015-07-14T08:45:19.000Z</time>
      </trkpt>
      <trkpt lat="46.94757" lon="5.12107">
        <ele>257.29</ele>
        <time>2015-07-14T08:45:21.000Z</time>
      </trkpt>
      <trkpt lat="46.9475" lon="5.12095">
        <ele>257.77</ele>
        <time>2015-07-14T08:45:23.000Z</time>
      </trkpt>
      <trkpt lat="46.94743" lon="5.12082">
        <ele>257.77</ele>
        <time>2015-07-14T08:45:25.000Z</time>
      </trkpt>
      <trkpt lat="46.94737" lon="5.12068">
        <ele>257.77</ele>
        <time>2015-07-14T08:45:27.000Z</time>
      </trkpt>
      <trkpt lat="46.94731" lon="5.12054">
        <ele>257.77</ele>
        <time>2015-07-14T08:45:29.000Z</time>
      </trkpt>
      <trkpt lat="46.94727" lon="5.1204">
        <ele>257.29</ele>
        <time>2015-07-14T08:45:31.000Z</time>
      </trkpt>
      <trkpt lat="46.94723" lon="5.12026">
        <ele>257.29</ele>
        <time>2015-07-14T08:45:33.000Z</time>
      </trkpt>
      <trkpt lat="46.9472" lon="5.12011">
        <ele>257.77</ele>
        <time>2015-07-14T08:45:35.000Z</time>
      </trkpt>
      <trkpt lat="46.94717" lon="5.11997">
        <ele>256.81</ele>
        <time>2015-07-14T08:45:37.000Z</time>
      </trkpt>
      <trkpt lat="46.94715" lon="5.11981">
        <ele>257.29</ele>
        <time>2015-07-14T08:45:39.000Z</time>
      </trkpt>
      <trkpt lat="46.94712" lon="5.11967">
        <ele>257.29</ele>
        <time>2015-07-14T08:45:41.000Z</time>
      </trkpt>
      <trkpt lat="46.9471" lon="5.11952">
        <ele>257.29</ele>
        <time>2015-07-14T08:45:43.000Z</time>
      </trkpt>
      <trkpt lat="46.94708" lon="5.11937">
        <ele>257.29</ele>
        <time>2015-07-14T08:45:45.000Z</time>
      </trkpt>
      <trkpt lat="46.94705" lon="5.11922">
        <ele>257.29</ele>
        <time>2015-07-14T08:45:47.000Z</time>
      </trkpt>
      <trkpt lat="46.94702" lon="5.11908">
        <ele>256.81</ele>
        <time>2015-07-14T08:45:49.000Z</time>
      </trkpt>
      <trkpt lat="46.94699" lon="5.11893">
        <ele>256.33</ele>
        <time>2015-07-14T08:45:51.000Z</time>
      </trkpt>
      <trkpt lat="46.94696" lon="5.11878">
        <ele>256.81</ele>
        <time>2015-07-14T08:45:53.000Z</time>
      </trkpt>
      <trkpt lat="46.94691" lon="5.11864">
        <ele>256.81</ele>
        <time>2015-07-14T08:45:55.000Z</time>
      </trkpt>
      <trkpt lat="46.94686" lon="5.1185">
        <ele>256.81</ele>
        <time>2015-07-14T08:45:57.000Z</time>
      </trkpt>
      <trkpt lat="46.9468" lon="5.11837">
        <ele>257.29</ele>
        <time>2015-07-14T08:45:59.000Z</time>
      </trkpt>
      <trkpt lat="46.94674" lon="5.11824">
        <ele>257.29</ele>
        <time>2015-07-14T08:46:01.000Z</time>
      </trkpt>
      <trkpt lat="46.94668" lon="5.11811">
        <ele>256.33</ele>
        <time>2015-07-14T08:46:03.000Z</time>
      </trkpt>
      <trkpt lat="46.94661" lon="5.11798">
        <ele>256.33</ele>
        <time>2015-07-14T08:46:05.000Z</time>
      </trkpt>
      <trkpt lat="46.94654" lon="5.11786">
        <ele>256.81</ele>
        <time>2015-07-14T08:46:07.000Z</time>
      </trkpt>
      <trkpt lat="46.94647" lon="5.11774">
        <ele>257.29</ele>
        <time>2015-07-14T08:46:09.000Z</time>
      </trkpt>
      <trkpt lat="46.9464" lon="5.11762">
        <ele>256.33</ele>
        <time>2015-07-14T08:46:11.000Z</time>
      </trkpt>
      <trkpt lat="46.94633" lon="5.11751">
        <ele>255.85</ele>
        <time>2015-07-14T08:46:13.000Z</time>
      </trkpt>
      <trkpt lat="46.94625" lon="5.1174">
        <ele>256.33</ele>
        <time>2015-07-14T08:46:15.000Z</time>
      </trkpt>
      <trkpt lat="46.94618" lon="5.11729">
        <ele>256.81</ele>
        <time>2015-07-14T08:46:17.000Z</time>
      </trkpt>
      <trkpt lat="46.9461" lon="5.11718">
        <ele>256.33</ele>
        <time>2015-07-14T08:46:19.000Z</time>
      </trkpt>
      <trkpt lat="46.94603" lon="5.11707">
        <ele>255.85</ele>
        <time>2015-07-14T08:46:21.000Z</time>
      </trkpt>
      <trkpt lat="46.94595" lon="5.11695">
        <ele>255.85</ele>
        <time>2015-07-14T08:46:23.000Z</time>
      </trkpt>
      <trkpt lat="46.94588" lon="5.11683">
        <ele>255.85</ele>
        <time>2015-07-14T08:46:25.000Z</time>
      </trkpt>
      <trkpt lat="46.94582" lon="5.11672">
        <ele>256.33</ele>
        <time>2015-07-14T08:46:27.000Z</time>
      </trkpt>
      <trkpt lat="46.94576" lon="5.11659">
        <ele>256.33</ele>
        <time>2015-07-14T08:46:29.000Z</time>
      </trkpt>
      <trkpt lat="46.9457" lon="5.11647">
        <ele>255.85</ele>
        <time>2015-07-14T08:46:31.000Z</time>
      </trkpt>
      <trkpt lat="46.94564" lon="5.11633">
        <ele>256.33</ele>
        <time>2015-07-14T08:46:33.000Z</time>
      </trkpt>
      <trkpt lat="46.94558" lon="5.1162">
        <ele>256.33</ele>
        <time>2015-07-14T08:46:35.000Z</time>
      </trkpt>
      <trkpt lat="46.94551" lon="5.11607">
        <ele>255.37</ele>
        <time>2015-07-14T08:46:37.000Z</time>
      </trkpt>
      <trkpt lat="46.94545" lon="5.11593">
        <ele>255.85</ele>
        <time>2015-07-14T08:46:39.000Z</time>
      </trkpt>
      <trkpt lat="46.94539" lon="5.11579">
        <ele>255.37</ele>
        <time>2015-07-14T08:46:41.000Z</time>
      </trkpt>
      <trkpt lat="46.94533" lon="5.11564">
        <ele>254.89</ele>
        <time>2015-07-14T08:46:43.000Z</time>
      </trkpt>
      <trkpt lat="46.94527" lon="5.11549">
        <ele>255.37</ele>
        <time>2015-07-14T08:46:45.000Z</time>
      </trkpt>
      <trkpt lat="46.94522" lon="5.11534">
        <ele>254.89</ele>
        <time>2015-07-14T08:46:47.000Z</time>
      </trkpt>
      <trkpt lat="46.94517" lon="5.11519">
        <ele>255.37</ele>
        <time>2015-07-14T08:46:49.000Z</time>
      </trkpt>
      <trkpt lat="46.94513" lon="5.11503">
        <ele>255.37</ele>
        <time>2015-07-14T08:46:51.000Z</time>
      </trkpt>
      <trkpt lat="46.9451" lon="5.11485">
        <ele>254.89</ele>
        <time>2015-07-14T08:46:53.000Z</time>
      </trkpt>
      <trkpt lat="46.94506" lon="5.11468">
        <ele>254.89</ele>
        <time>2015-07-14T08:46:55.000Z</time>
      </trkpt>
      <trkpt lat="46.94504" lon="5.1145">
        <ele>254.89</ele>
        <time>2015-07-14T08:46:57.000Z</time>
      </trkpt>
      <trkpt lat="46.94501" lon="5.11433">
        <ele>253.93</ele>
        <time>2015-07-14T08:46:59.000Z</time>
      </trkpt>
      <trkpt lat="46.94498" lon="5.11415">
        <ele>253.44</ele>
        <time>2015-07-14T08:47:01.000Z</time>
      </trkpt>
      <trkpt lat="46.94495" lon="5.11396">
        <ele>253.93</ele>
        <time>2015-07-14T08:47:03.000Z</time>
      </trkpt>
      <trkpt lat="46.94492" lon="5.11378">
        <ele>253.93</ele>
        <time>2015-07-14T08:47:05.000Z</time>
      </trkpt>
      <trkpt lat="46.94489" lon="5.1136">
        <ele>252.96</ele>
        <time>2015-07-14T08:47:07.000Z</time>
      </trkpt>
      <trkpt lat="46.94486" lon="5.11342">
        <ele>253.44</ele>
        <time>2015-07-14T08:47:09.000Z</time>
      </trkpt>
      <trkpt lat="46.94482" lon="5.11323">
        <ele>252.48</ele>
        <time>2015-07-14T08:47:11.000Z</time>
      </trkpt>
      <trkpt lat="46.94479" lon="5.11305">
        <ele>252.96</ele>
        <time>2015-07-14T08:47:13.000Z</time>
      </trkpt>
      <trkpt lat="46.94476" lon="5.11286">
        <ele>252.48</ele>
        <time>2015-07-14T08:47:15.000Z</time>
      </trkpt>
      <trkpt lat="46.94473" lon="5.11269">
        <ele>252.48</ele>
        <time>2015-07-14T08:47:17.000Z</time>
      </trkpt>
      <trkpt lat="46.9447" lon="5.11251">
        <ele>252.48</ele>
        <time>2015-07-14T08:47:19.000Z</time>
      </trkpt>
      <trkpt lat="46.94467" lon="5.11234">
        <ele>252.48</ele>
        <time>2015-07-14T08:47:21.000Z</time>
      </trkpt>
      <trkpt lat="46.94464" lon="5.11216">
        <ele>252</ele>
        <time>2015-07-14T08:47:23.000Z</time>
      </trkpt>
      <trkpt lat="46.94461" lon="5.11197">
        <ele>252.48</ele>
        <time>2015-07-14T08:47:25.000Z</time>
      </trkpt>
      <trkpt lat="46.94459" lon="5.11179">
        <ele>252</ele>
        <time>2015-07-14T08:47:27.000Z</time>
      </trkpt>
      <trkpt lat="46.94457" lon="5.11162">
        <ele>252.48</ele>
        <time>2015-07-14T08:47:29.000Z</time>
      </trkpt>
      <trkpt lat="46.94455" lon="5.11144">
        <ele>252.48</ele>
        <time>2015-07-14T08:47:31.000Z</time>
      </trkpt>
      <trkpt lat="46.94452" lon="5.11127">
        <ele>252</ele>
        <time>2015-07-14T08:47:33.000Z</time>
      </trkpt>
      <trkpt lat="46.94449" lon="5.11109">
        <ele>252.48</ele>
        <time>2015-07-14T08:47:35.000Z</time>
      </trkpt>
      <trkpt lat="46.94445" lon="5.11092">
        <ele>252.48</ele>
        <time>2015-07-14T08:47:37.000Z</time>
      </trkpt>
      <trkpt lat="46.94441" lon="5.11075">
        <ele>252</ele>
        <time>2015-07-14T08:47:39.000Z</time>
      </trkpt>
      <trkpt lat="46.94437" lon="5.11059">
        <ele>251.52</ele>
        <time>2015-07-14T08:47:41.000Z</time>
      </trkpt>
      <trkpt lat="46.94432" lon="5.11043">
        <ele>251.52</ele>
        <time>2015-07-14T08:47:43.000Z</time>
      </trkpt>
      <trkpt lat="46.94427" lon="5.11027">
        <ele>251.52</ele>
        <time>2015-07-14T08:47:45.000Z</time>
      </trkpt>
      <trkpt lat="46.94421" lon="5.11012">
        <ele>251.52</ele>
        <time>2015-07-14T08:47:47.000Z</time>
      </trkpt>
      <trkpt lat="46.94416" lon="5.10996">
        <ele>251.04</ele>
        <time>2015-07-14T08:47:49.000Z</time>
      </trkpt>
      <trkpt lat="46.9441" lon="5.10981">
        <ele>251.04</ele>
        <time>2015-07-14T08:47:51.000Z</time>
      </trkpt>
      <trkpt lat="46.94405" lon="5.10966">
        <ele>251.52</ele>
        <time>2015-07-14T08:47:53.000Z</time>
      </trkpt>
      <trkpt lat="46.94399" lon="5.10951">
        <ele>251.04</ele>
        <time>2015-07-14T08:47:55.000Z</time>
      </trkpt>
      <trkpt lat="46.94394" lon="5.10936">
        <ele>251.04</ele>
        <time>2015-07-14T08:47:57.000Z</time>
      </trkpt>
      <trkpt lat="46.94388" lon="5.10921">
        <ele>251.52</ele>
        <time>2015-07-14T08:47:59.000Z</time>
      </trkpt>
      <trkpt lat="46.94382" lon="5.10906">
        <ele>251.52</ele>
        <time>2015-07-14T08:48:01.000Z</time>
      </trkpt>
      <trkpt lat="46.94377" lon="5.10891">
        <ele>251.52</ele>
        <time>2015-07-14T08:48:03.000Z</time>
      </trkpt>
      <trkpt lat="46.94372" lon="5.10876">
        <ele>251.04</ele>
        <time>2015-07-14T08:48:05.000Z</time>
      </trkpt>
      <trkpt lat="46.94367" lon="5.1086">
        <ele>251.04</ele>
        <time>2015-07-14T08:48:07.000Z</time>
      </trkpt>
      <trkpt lat="46.94363" lon="5.10844">
        <ele>250.08</ele>
        <time>2015-07-14T08:48:09.000Z</time>
      </trkpt>
      <trkpt lat="46.94358" lon="5.10828">
        <ele>250.08</ele>
        <time>2015-07-14T08:48:11.000Z</time>
      </trkpt>
      <trkpt lat="46.94355" lon="5.10811">
        <ele>250.08</ele>
        <time>2015-07-14T08:48:13.000Z</time>
      </trkpt>
      <trkpt lat="46.94351" lon="5.10795">
        <ele>250.08</ele>
        <time>2015-07-14T08:48:15.000Z</time>
      </trkpt>
      <trkpt lat="46.94347" lon="5.10779">
        <ele>250.56</ele>
        <time>2015-07-14T08:48:17.000Z</time>
      </trkpt>
      <trkpt lat="46.94344" lon="5.10762">
        <ele>250.08</ele>
        <time>2015-07-14T08:48:19.000Z</time>
      </trkpt>
      <trkpt lat="46.94341" lon="5.10746">
        <ele>250.56</ele>
        <time>2015-07-14T08:48:21.000Z</time>
      </trkpt>
      <trkpt lat="46.94337" lon="5.10731">
        <ele>250.56</ele>
        <time>2015-07-14T08:48:23.000Z</time>
      </trkpt>
      <trkpt lat="46.94334" lon="5.10715">
        <ele>250.08</ele>
        <time>2015-07-14T08:48:25.000Z</time>
      </trkpt>
      <trkpt lat="46.94331" lon="5.10699">
        <ele>250.08</ele>
        <time>2015-07-14T08:48:27.000Z</time>
      </trkpt>
      <trkpt lat="46.94328" lon="5.10683">
        <ele>250.56</ele>
        <time>2015-07-14T08:48:29.000Z</time>
      </trkpt>
      <trkpt lat="46.94325" lon="5.10667">
        <ele>250.56</ele>
        <time>2015-07-14T08:48:31.000Z</time>
      </trkpt>
      <trkpt lat="46.94321" lon="5.10651">
        <ele>251.04</ele>
        <time>2015-07-14T08:48:33.000Z</time>
      </trkpt>
      <trkpt lat="46.94318" lon="5.10635">
        <ele>250.56</ele>
        <time>2015-07-14T08:48:35.000Z</time>
      </trkpt>
      <trkpt lat="46.94315" lon="5.10619">
        <ele>250.08</ele>
        <time>2015-07-14T08:48:37.000Z</time>
      </trkpt>
      <trkpt lat="46.94313" lon="5.10603">
        <ele>250.08</ele>
        <time>2015-07-14T08:48:39.000Z</time>
      </trkpt>
      <trkpt lat="46.9431" lon="5.10587">
        <ele>250.56</ele>
        <time>2015-07-14T08:48:41.000Z</time>
      </trkpt>
      <trkpt lat="46.94308" lon="5.10571">
        <ele>251.04</ele>
        <time>2015-07-14T08:48:43.000Z</time>
      </trkpt>
      <trkpt lat="46.94306" lon="5.10554">
        <ele>250.56</ele>
        <time>2015-07-14T08:48:45.000Z</time>
      </trkpt>
      <trkpt lat="46.94304" lon="5.10538">
        <ele>251.04</ele>
        <time>2015-07-14T08:48:47.000Z</time>
      </trkpt>
      <trkpt lat="46.94302" lon="5.10523">
        <ele>251.04</ele>
        <time>2015-07-14T08:48:49.000Z</time>
      </trkpt>
      <trkpt lat="46.943" lon="5.10509">
        <ele>251.04</ele>
        <time>2015-07-14T08:48:51.000Z</time>
      </trkpt>
      <trkpt lat="46.94298" lon="5.10494">
        <ele>251.52</ele>
        <time>2015-07-14T08:48:53.000Z</time>
      </trkpt>
      <trkpt lat="46.94295" lon="5.1048">
        <ele>251.52</ele>
        <time>2015-07-14T08:48:55.000Z</time>
      </trkpt>
      <trkpt lat="46.94292" lon="5.10466">
        <ele>252</ele>
        <time>2015-07-14T08:48:57.000Z</time>
      </trkpt>
      <trkpt lat="46.94289" lon="5.10452">
        <ele>252</ele>
        <time>2015-07-14T08:48:59.000Z</time>
      </trkpt>
      <trkpt lat="46.94284" lon="5.10438">
        <ele>252</ele>
        <time>2015-07-14T08:49:01.000Z</time>
      </trkpt>
      <trkpt lat="46.9428" lon="5.10425">
        <ele>252.48</ele>
        <time>2015-07-14T08:49:03.000Z</time>
      </trkpt>
      <trkpt lat="46.94276" lon="5.10412">
        <ele>252.48</ele>
        <time>2015-07-14T08:49:05.000Z</time>
      </trkpt>
      <trkpt lat="46.94273" lon="5.10399">
        <ele>252.96</ele>
        <time>2015-07-14T08:49:07.000Z</time>
      </trkpt>
      <trkpt lat="46.94269" lon="5.10386">
        <ele>252.96</ele>
        <time>2015-07-14T08:49:09.000Z</time>
      </trkpt>
      <trkpt lat="46.94264" lon="5.10374">
        <ele>253.44</ele>
        <time>2015-07-14T08:49:11.000Z</time>
      </trkpt>
      <trkpt lat="46.9426" lon="5.10361">
        <ele>253.44</ele>
        <time>2015-07-14T08:49:13.000Z</time>
      </trkpt>
      <trkpt lat="46.94257" lon="5.10349">
        <ele>253.93</ele>
        <time>2015-07-14T08:49:15.000Z</time>
      </trkpt>
      <trkpt lat="46.94253" lon="5.10336">
        <ele>253.93</ele>
        <time>2015-07-14T08:49:17.000Z</time>
      </trkpt>
      <trkpt lat="46.94249" lon="5.10323">
        <ele>254.41</ele>
        <time>2015-07-14T08:49:19.000Z</time>
      </trkpt>
      <trkpt lat="46.94245" lon="5.10311">
        <ele>254.41</ele>
        <time>2015-07-14T08:49:21.000Z</time>
      </trkpt>
      <trkpt lat="46.94241" lon="5.10298">
        <ele>254.41</ele>
        <time>2015-07-14T08:49:23.000Z</time>
      </trkpt>
      <trkpt lat="46.94237" lon="5.10286">
        <ele>254.41</ele>
        <time>2015-07-14T08:49:25.000Z</time>
      </trkpt>
      <trkpt lat="46.94233" lon="5.10273">
        <ele>254.89</ele>
        <time>2015-07-14T08:49:27.000Z</time>
      </trkpt>
      <trkpt lat="46.94228" lon="5.1026">
        <ele>254.89</ele>
        <time>2015-07-14T08:49:29.000Z</time>
      </trkpt>
      <trkpt lat="46.94224" lon="5.10247">
        <ele>254.89</ele>
        <time>2015-07-14T08:49:31.000Z</time>
      </trkpt>
      <trkpt lat="46.9422" lon="5.10234">
        <ele>254.89</ele>
        <time>2015-07-14T08:49:33.000Z</time>
      </trkpt>
      <trkpt lat="46.94215" lon="5.10221">
        <ele>255.37</ele>
        <time>2015-07-14T08:49:35.000Z</time>
      </trkpt>
      <trkpt lat="46.94211" lon="5.10208">
        <ele>255.37</ele>
        <time>2015-07-14T08:49:37.000Z</time>
      </trkpt>
      <trkpt lat="46.94207" lon="5.10194">
        <ele>254.89</ele>
        <time>2015-07-14T08:49:39.000Z</time>
      </trkpt>
      <trkpt lat="46.94202" lon="5.1018">
        <ele>254.41</ele>
        <time>2015-07-14T08:49:41.000Z</time>
      </trkpt>
      <trkpt lat="46.94198" lon="5.10165">
        <ele>254.89</ele>
        <time>2015-07-14T08:49:43.000Z</time>
      </trkpt>
      <trkpt lat="46.94193" lon="5.10151">
        <ele>254.89</ele>
        <time>2015-07-14T08:49:45.000Z</time>
      </trkpt>
      <trkpt lat="46.94188" lon="5.10137">
        <ele>254.89</ele>
        <time>2015-07-14T08:49:47.000Z</time>
      </trkpt>
      <trkpt lat="46.94183" lon="5.10122">
        <ele>254.41</ele>
        <time>2015-07-14T08:49:49.000Z</time>
      </trkpt>
      <trkpt lat="46.94179" lon="5.10107">
        <ele>253.93</ele>
        <time>2015-07-14T08:49:51.000Z</time>
      </trkpt>
      <trkpt lat="46.94173" lon="5.10093">
        <ele>253.93</ele>
        <time>2015-07-14T08:49:53.000Z</time>
      </trkpt>
      <trkpt lat="46.94168" lon="5.10078">
        <ele>253.93</ele>
        <time>2015-07-14T08:49:55.000Z</time>
      </trkpt>
      <trkpt lat="46.94163" lon="5.10064">
        <ele>253.93</ele>
        <time>2015-07-14T08:49:57.000Z</time>
      </trkpt>
      <trkpt lat="46.94157" lon="5.1005">
        <ele>253.93</ele>
        <time>2015-07-14T08:49:59.000Z</time>
      </trkpt>
      <trkpt lat="46.94151" lon="5.10035">
        <ele>253.93</ele>
        <time>2015-07-14T08:50:01.000Z</time>
      </trkpt>
      <trkpt lat="46.94145" lon="5.10021">
        <ele>253.93</ele>
        <time>2015-07-14T08:50:03.000Z</time>
      </trkpt>
      <trkpt lat="46.94139" lon="5.10008">
        <ele>254.41</ele>
        <time>2015-07-14T08:50:05.000Z</time>
      </trkpt>
      <trkpt lat="46.94133" lon="5.09995">
        <ele>253.93</ele>
        <time>2015-07-14T08:50:07.000Z</time>
      </trkpt>
      <trkpt lat="46.94127" lon="5.09981">
        <ele>253.93</ele>
        <time>2015-07-14T08:50:09.000Z</time>
      </trkpt>
      <trkpt lat="46.9412" lon="5.09967">
        <ele>254.41</ele>
        <time>2015-07-14T08:50:11.000Z</time>
      </trkpt>
      <trkpt lat="46.94113" lon="5.09953">
        <ele>253.93</ele>
        <time>2015-07-14T08:50:13.000Z</time>
      </trkpt>
      <trkpt lat="46.94106" lon="5.09939">
        <ele>253.93</ele>
        <time>2015-07-14T08:50:15.000Z</time>
      </trkpt>
      <trkpt lat="46.94099" lon="5.09925">
        <ele>253.93</ele>
        <time>2015-07-14T08:50:17.000Z</time>
      </trkpt>
      <trkpt lat="46.94092" lon="5.09911">
        <ele>253.93</ele>
        <time>2015-07-14T08:50:19.000Z</time>
      </trkpt>
      <trkpt lat="46.94084" lon="5.09898">
        <ele>253.44</ele>
        <time>2015-07-14T08:50:21.000Z</time>
      </trkpt>
      <trkpt lat="46.94077" lon="5.09883">
        <ele>253.93</ele>
        <time>2015-07-14T08:50:23.000Z</time>
      </trkpt>
      <trkpt lat="46.9407" lon="5.09869">
        <ele>253.44</ele>
        <time>2015-07-14T08:50:25.000Z</time>
      </trkpt>
      <trkpt lat="46.94062" lon="5.09854">
        <ele>253.93</ele>
        <time>2015-07-14T08:50:27.000Z</time>
      </trkpt>
      <trkpt lat="46.94055" lon="5.09839">
        <ele>253.44</ele>
        <time>2015-07-14T08:50:29.000Z</time>
      </trkpt>
      <trkpt lat="46.94048" lon="5.09825">
        <ele>252.96</ele>
        <time>2015-07-14T08:50:31.000Z</time>
      </trkpt>
      <trkpt lat="46.9404" lon="5.0981">
        <ele>252</ele>
        <time>2015-07-14T08:50:33.000Z</time>
      </trkpt>
      <trkpt lat="46.94032" lon="5.09796">
        <ele>252.96</ele>
        <time>2015-07-14T08:50:35.000Z</time>
      </trkpt>
      <trkpt lat="46.94025" lon="5.09782">
        <ele>252.48</ele>
        <time>2015-07-14T08:50:37.000Z</time>
      </trkpt>
      <trkpt lat="46.94018" lon="5.09768">
        <ele>252</ele>
        <time>2015-07-14T08:50:39.000Z</time>
      </trkpt>
      <trkpt lat="46.94011" lon="5.09754">
        <ele>251.52</ele>
        <time>2015-07-14T08:50:41.000Z</time>
      </trkpt>
      <trkpt lat="46.94004" lon="5.09741">
        <ele>251.52</ele>
        <time>2015-07-14T08:50:43.000Z</time>
      </trkpt>
      <trkpt lat="46.93997" lon="5.09727">
        <ele>251.52</ele>
        <time>2015-07-14T08:50:45.000Z</time>
      </trkpt>
      <trkpt lat="46.9399" lon="5.09713">
        <ele>252</ele>
        <time>2015-07-14T08:50:47.000Z</time>
      </trkpt>
      <trkpt lat="46.93982" lon="5.09699">
        <ele>252</ele>
        <time>2015-07-14T08:50:49.000Z</time>
      </trkpt>
      <trkpt lat="46.93975" lon="5.09685">
        <ele>251.52</ele>
        <time>2015-07-14T08:50:51.000Z</time>
      </trkpt>
      <trkpt lat="46.93969" lon="5.09672">
        <ele>251.04</ele>
        <time>2015-07-14T08:50:53.000Z</time>
      </trkpt>
      <trkpt lat="46.93961" lon="5.09658">
        <ele>251.04</ele>
        <time>2015-07-14T08:50:55.000Z</time>
      </trkpt>
      <trkpt lat="46.93955" lon="5.09643">
        <ele>251.04</ele>
        <time>2015-07-14T08:50:57.000Z</time>
      </trkpt>
      <trkpt lat="46.93948" lon="5.09629">
        <ele>250.56</ele>
        <time>2015-07-14T08:50:59.000Z</time>
      </trkpt>
      <trkpt lat="46.93941" lon="5.09615">
        <ele>250.08</ele>
        <time>2015-07-14T08:51:01.000Z</time>
      </trkpt>
      <trkpt lat="46.93935" lon="5.09601">
        <ele>250.56</ele>
        <time>2015-07-14T08:51:03.000Z</time>
      </trkpt>
      <trkpt lat="46.93928" lon="5.09587">
        <ele>250.08</ele>
        <time>2015-07-14T08:51:05.000Z</time>
      </trkpt>
      <trkpt lat="46.93921" lon="5.09572">
        <ele>250.08</ele>
        <time>2015-07-14T08:51:07.000Z</time>
      </trkpt>
      <trkpt lat="46.93914" lon="5.09558">
        <ele>249.6</ele>
        <time>2015-07-14T08:51:09.000Z</time>
      </trkpt>
      <trkpt lat="46.93908" lon="5.09545">
        <ele>249.6</ele>
        <time>2015-07-14T08:51:11.000Z</time>
      </trkpt>
      <trkpt lat="46.93901" lon="5.09533">
        <ele>249.6</ele>
        <time>2015-07-14T08:51:13.000Z</time>
      </trkpt>
      <trkpt lat="46.93893" lon="5.09522">
        <ele>249.6</ele>
        <time>2015-07-14T08:51:15.000Z</time>
      </trkpt>
      <trkpt lat="46.93885" lon="5.09512">
        <ele>249.12</ele>
        <time>2015-07-14T08:51:17.000Z</time>
      </trkpt>
      <trkpt lat="46.93876" lon="5.09503">
        <ele>249.12</ele>
        <time>2015-07-14T08:51:19.000Z</time>
      </trkpt>
      <trkpt lat="46.93868" lon="5.09494">
        <ele>248.64</ele>
        <time>2015-07-14T08:51:21.000Z</time>
      </trkpt>
      <trkpt lat="46.9386" lon="5.09484">
        <ele>248.64</ele>
        <time>2015-07-14T08:51:23.000Z</time>
      </trkpt>
      <trkpt lat="46.93851" lon="5.09473">
        <ele>248.16</ele>
        <time>2015-07-14T08:51:25.000Z</time>
      </trkpt>
      <trkpt lat="46.93843" lon="5.09463">
        <ele>247.68</ele>
        <time>2015-07-14T08:51:27.000Z</time>
      </trkpt>
      <trkpt lat="46.93834" lon="5.09453">
        <ele>248.16</ele>
        <time>2015-07-14T08:51:29.000Z</time>
      </trkpt>
      <trkpt lat="46.93826" lon="5.09443">
        <ele>248.16</ele>
        <time>2015-07-14T08:51:31.000Z</time>
      </trkpt>
      <trkpt lat="46.93818" lon="5.09433">
        <ele>247.68</ele>
        <time>2015-07-14T08:51:33.000Z</time>
      </trkpt>
      <trkpt lat="46.9381" lon="5.09425">
        <ele>247.68</ele>
        <time>2015-07-14T08:51:35.000Z</time>
      </trkpt>
      <trkpt lat="46.938" lon="5.09418">
        <ele>247.68</ele>
        <time>2015-07-14T08:51:37.000Z</time>
      </trkpt>
      <trkpt lat="46.9379" lon="5.09414">
        <ele>247.68</ele>
        <time>2015-07-14T08:51:39.000Z</time>
      </trkpt>
      <trkpt lat="46.93779" lon="5.09414">
        <ele>247.2</ele>
        <time>2015-07-14T08:51:41.000Z</time>
      </trkpt>
      <trkpt lat="46.93769" lon="5.09419">
        <ele>247.2</ele>
        <time>2015-07-14T08:51:43.000Z</time>
      </trkpt>
      <trkpt lat="46.9376" lon="5.09426">
        <ele>247.2</ele>
        <time>2015-07-14T08:51:45.000Z</time>
      </trkpt>
      <trkpt lat="46.93751" lon="5.09436">
        <ele>246.72</ele>
        <time>2015-07-14T08:51:47.000Z</time>
      </trkpt>
      <trkpt lat="46.93743" lon="5.09445">
        <ele>246.72</ele>
        <time>2015-07-14T08:51:49.000Z</time>
      </trkpt>
      <trkpt lat="46.93736" lon="5.09454">
        <ele>246.72</ele>
        <time>2015-07-14T08:51:51.000Z</time>
      </trkpt>
      <trkpt lat="46.93728" lon="5.09464">
        <ele>246.72</ele>
        <time>2015-07-14T08:51:53.000Z</time>
      </trkpt>
      <trkpt lat="46.93721" lon="5.09473">
        <ele>247.2</ele>
        <time>2015-07-14T08:51:55.000Z</time>
      </trkpt>
      <trkpt lat="46.93712" lon="5.09482">
        <ele>246.72</ele>
        <time>2015-07-14T08:51:57.000Z</time>
      </trkpt>
      <trkpt lat="46.93703" lon="5.0949">
        <ele>244.79</ele>
        <time>2015-07-14T08:51:59.000Z</time>
      </trkpt>
      <trkpt lat="46.93693" lon="5.09493">
        <ele>245.27</ele>
        <time>2015-07-14T08:52:01.000Z</time>
      </trkpt>
      <trkpt lat="46.93682" lon="5.09493">
        <ele>244.79</ele>
        <time>2015-07-14T08:52:03.000Z</time>
      </trkpt>
      <trkpt lat="46.9367" lon="5.09491">
        <ele>245.27</ele>
        <time>2015-07-14T08:52:05.000Z</time>
      </trkpt>
      <trkpt lat="46.93659" lon="5.09486">
        <ele>244.79</ele>
        <time>2015-07-14T08:52:07.000Z</time>
      </trkpt>
      <trkpt lat="46.93649" lon="5.0948">
        <ele>244.79</ele>
        <time>2015-07-14T08:52:09.000Z</time>
      </trkpt>
      <trkpt lat="46.93638" lon="5.09473">
        <ele>244.31</ele>
        <time>2015-07-14T08:52:11.000Z</time>
      </trkpt>
      <trkpt lat="46.93628" lon="5.09468">
        <ele>244.79</ele>
        <time>2015-07-14T08:52:13.000Z</time>
      </trkpt>
      <trkpt lat="46.93617" lon="5.09462">
        <ele>245.27</ele>
        <time>2015-07-14T08:52:15.000Z</time>
      </trkpt>
      <trkpt lat="46.93607" lon="5.09457">
        <ele>245.27</ele>
        <time>2015-07-14T08:52:17.000Z</time>
      </trkpt>
      <trkpt lat="46.93597" lon="5.09452">
        <ele>245.27</ele>
        <time>2015-07-14T08:52:19.000Z</time>
      </trkpt>
      <trkpt lat="46.93586" lon="5.09446">
        <ele>245.27</ele>
        <time>2015-07-14T08:52:21.000Z</time>
      </trkpt>
      <trkpt lat="46.93576" lon="5.0944">
        <ele>245.27</ele>
        <time>2015-07-14T08:52:23.000Z</time>
      </trkpt>
      <trkpt lat="46.93566" lon="5.09435">
        <ele>245.27</ele>
        <time>2015-07-14T08:52:25.000Z</time>
      </trkpt>
      <trkpt lat="46.93556" lon="5.09429">
        <ele>245.75</ele>
        <time>2015-07-14T08:52:27.000Z</time>
      </trkpt>
      <trkpt lat="46.93546" lon="5.09424">
        <ele>245.75</ele>
        <time>2015-07-14T08:52:29.000Z</time>
      </trkpt>
      <trkpt lat="46.93536" lon="5.09419">
        <ele>245.75</ele>
        <time>2015-07-14T08:52:31.000Z</time>
      </trkpt>
      <trkpt lat="46.93526" lon="5.09414">
        <ele>245.75</ele>
        <time>2015-07-14T08:52:33.000Z</time>
      </trkpt>
      <trkpt lat="46.93516" lon="5.09409">
        <ele>245.27</ele>
        <time>2015-07-14T08:52:35.000Z</time>
      </trkpt>
      <trkpt lat="46.93506" lon="5.09404">
        <ele>245.75</ele>
        <time>2015-07-14T08:52:37.000Z</time>
      </trkpt>
      <trkpt lat="46.93496" lon="5.09399">
        <ele>245.75</ele>
        <time>2015-07-14T08:52:39.000Z</time>
      </trkpt>
      <trkpt lat="46.93486" lon="5.09396">
        <ele>245.27</ele>
        <time>2015-07-14T08:52:41.000Z</time>
      </trkpt>
      <trkpt lat="46.93475" lon="5.09393">
        <ele>245.75</ele>
        <time>2015-07-14T08:52:43.000Z</time>
      </trkpt>
      <trkpt lat="46.93465" lon="5.09391">
        <ele>245.75</ele>
        <time>2015-07-14T08:52:45.000Z</time>
      </trkpt>
      <trkpt lat="46.93454" lon="5.0939">
        <ele>245.75</ele>
        <time>2015-07-14T08:52:47.000Z</time>
      </trkpt>
      <trkpt lat="46.93443" lon="5.0939">
        <ele>245.27</ele>
        <time>2015-07-14T08:52:49.000Z</time>
      </trkpt>
      <trkpt lat="46.93432" lon="5.09391">
        <ele>245.27</ele>
        <time>2015-07-14T08:52:51.000Z</time>
      </trkpt>
      <trkpt lat="46.93421" lon="5.09392">
        <ele>245.27</ele>
        <time>2015-07-14T08:52:53.000Z</time>
      </trkpt>
      <trkpt lat="46.9341" lon="5.09394">
        <ele>245.27</ele>
        <time>2015-07-14T08:52:55.000Z</time>
      </trkpt>
      <trkpt lat="46.93399" lon="5.09395">
        <ele>245.27</ele>
        <time>2015-07-14T08:52:57.000Z</time>
      </trkpt>
      <trkpt lat="46.93388" lon="5.09397">
        <ele>245.27</ele>
        <time>2015-07-14T08:52:59.000Z</time>
      </trkpt>
      <trkpt lat="46.93377" lon="5.094">
        <ele>245.27</ele>
        <time>2015-07-14T08:53:01.000Z</time>
      </trkpt>
      <trkpt lat="46.93366" lon="5.09403">
        <ele>245.27</ele>
        <time>2015-07-14T08:53:03.000Z</time>
      </trkpt>
      <trkpt lat="46.93356" lon="5.09407">
        <ele>245.27</ele>
        <time>2015-07-14T08:53:05.000Z</time>
      </trkpt>
      <trkpt lat="46.93344" lon="5.0941">
        <ele>245.27</ele>
        <time>2015-07-14T08:53:07.000Z</time>
      </trkpt>
      <trkpt lat="46.93333" lon="5.09413">
        <ele>245.27</ele>
        <time>2015-07-14T08:53:09.000Z</time>
      </trkpt>
      <trkpt lat="46.93322" lon="5.09416">
        <ele>245.27</ele>
        <time>2015-07-14T08:53:11.000Z</time>
      </trkpt>
      <trkpt lat="46.93311" lon="5.09418">
        <ele>245.27</ele>
        <time>2015-07-14T08:53:13.000Z</time>
      </trkpt>
      <trkpt lat="46.93299" lon="5.0942">
        <ele>245.27</ele>
        <time>2015-07-14T08:53:15.000Z</time>
      </trkpt>
      <trkpt lat="46.93288" lon="5.09422">
        <ele>245.75</ele>
        <time>2015-07-14T08:53:17.000Z</time>
      </trkpt>
      <trkpt lat="46.93277" lon="5.09423">
        <ele>244.79</ele>
        <time>2015-07-14T08:53:19.000Z</time>
      </trkpt>
      <trkpt lat="46.93265" lon="5.09424">
        <ele>244.79</ele>
        <time>2015-07-14T08:53:21.000Z</time>
      </trkpt>
      <trkpt lat="46.93253" lon="5.09425">
        <ele>244.79</ele>
        <time>2015-07-14T08:53:23.000Z</time>
      </trkpt>
      <trkpt lat="46.93242" lon="5.09426">
        <ele>244.31</ele>
        <time>2015-07-14T08:53:25.000Z</time>
      </trkpt>
      <trkpt lat="46.93231" lon="5.09428">
        <ele>244.31</ele>
        <time>2015-07-14T08:53:27.000Z</time>
      </trkpt>
      <trkpt lat="46.93219" lon="5.09428">
        <ele>244.31</ele>
        <time>2015-07-14T08:53:29.000Z</time>
      </trkpt>
      <trkpt lat="46.93208" lon="5.09429">
        <ele>244.79</ele>
        <time>2015-07-14T08:53:31.000Z</time>
      </trkpt>
      <trkpt lat="46.93196" lon="5.0943">
        <ele>245.27</ele>
        <time>2015-07-14T08:53:33.000Z</time>
      </trkpt>
      <trkpt lat="46.93184" lon="5.09432">
        <ele>245.27</ele>
        <time>2015-07-14T08:53:35.000Z</time>
      </trkpt>
      <trkpt lat="46.93173" lon="5.09433">
        <ele>245.27</ele>
        <time>2015-07-14T08:53:37.000Z</time>
      </trkpt>
      <trkpt lat="46.93162" lon="5.09434">
        <ele>245.27</ele>
        <time>2015-07-14T08:53:39.000Z</time>
      </trkpt>
      <trkpt lat="46.93151" lon="5.09436">
        <ele>245.27</ele>
        <time>2015-07-14T08:53:41.000Z</time>
      </trkpt>
      <trkpt lat="46.9314" lon="5.09437">
        <ele>245.27</ele>
        <time>2015-07-14T08:53:43.000Z</time>
      </trkpt>
      <trkpt lat="46.93128" lon="5.09439">
        <ele>245.27</ele>
        <time>2015-07-14T08:53:45.000Z</time>
      </trkpt>
      <trkpt lat="46.93117" lon="5.0944">
        <ele>245.27</ele>
        <time>2015-07-14T08:53:47.000Z</time>
      </trkpt>
      <trkpt lat="46.93105" lon="5.09441">
        <ele>245.27</ele>
        <time>2015-07-14T08:53:49.000Z</time>
      </trkpt>
      <trkpt lat="46.93094" lon="5.09441">
        <ele>245.27</ele>
        <time>2015-07-14T08:53:51.000Z</time>
      </trkpt>
      <trkpt lat="46.93082" lon="5.0944">
        <ele>245.27</ele>
        <time>2015-07-14T08:53:53.000Z</time>
      </trkpt>
      <trkpt lat="46.9307" lon="5.0944">
        <ele>245.27</ele>
        <time>2015-07-14T08:53:55.000Z</time>
      </trkpt>
      <trkpt lat="46.93059" lon="5.09437">
        <ele>244.79</ele>
        <time>2015-07-14T08:53:57.000Z</time>
      </trkpt>
      <trkpt lat="46.93047" lon="5.09434">
        <ele>245.27</ele>
        <time>2015-07-14T08:53:59.000Z</time>
      </trkpt>
      <trkpt lat="46.93035" lon="5.09431">
        <ele>245.27</ele>
        <time>2015-07-14T08:54:01.000Z</time>
      </trkpt>
      <trkpt lat="46.93023" lon="5.09427">
        <ele>245.27</ele>
        <time>2015-07-14T08:54:03.000Z</time>
      </trkpt>
      <trkpt lat="46.93011" lon="5.09423">
        <ele>245.27</ele>
        <time>2015-07-14T08:54:05.000Z</time>
      </trkpt>
      <trkpt lat="46.92999" lon="5.09418">
        <ele>245.27</ele>
        <time>2015-07-14T08:54:07.000Z</time>
      </trkpt>
      <trkpt lat="46.92987" lon="5.09414">
        <ele>245.27</ele>
        <time>2015-07-14T08:54:09.000Z</time>
      </trkpt>
      <trkpt lat="46.92975" lon="5.0941">
        <ele>245.27</ele>
        <time>2015-07-14T08:54:11.000Z</time>
      </trkpt>
      <trkpt lat="46.92964" lon="5.09406">
        <ele>245.27</ele>
        <time>2015-07-14T08:54:13.000Z</time>
      </trkpt>
      <trkpt lat="46.92952" lon="5.09401">
        <ele>245.27</ele>
        <time>2015-07-14T08:54:15.000Z</time>
      </trkpt>
      <trkpt lat="46.9294" lon="5.09397">
        <ele>245.27</ele>
        <time>2015-07-14T08:54:17.000Z</time>
      </trkpt>
      <trkpt lat="46.92929" lon="5.09393">
        <ele>245.27</ele>
        <time>2015-07-14T08:54:19.000Z</time>
      </trkpt>
      <trkpt lat="46.92918" lon="5.09389">
        <ele>245.27</ele>
        <time>2015-07-14T08:54:21.000Z</time>
      </trkpt>
      <trkpt lat="46.92907" lon="5.09385">
        <ele>245.27</ele>
        <time>2015-07-14T08:54:23.000Z</time>
      </trkpt>
      <trkpt lat="46.92896" lon="5.09381">
        <ele>245.27</ele>
        <time>2015-07-14T08:54:25.000Z</time>
      </trkpt>
      <trkpt lat="46.92884" lon="5.09377">
        <ele>245.27</ele>
        <time>2015-07-14T08:54:27.000Z</time>
      </trkpt>
      <trkpt lat="46.92873" lon="5.09372">
        <ele>245.27</ele>
        <time>2015-07-14T08:54:29.000Z</time>
      </trkpt>
      <trkpt lat="46.92862" lon="5.09368">
        <ele>245.27</ele>
        <time>2015-07-14T08:54:31.000Z</time>
      </trkpt>
      <trkpt lat="46.9285" lon="5.09364">
        <ele>245.27</ele>
        <time>2015-07-14T08:54:33.000Z</time>
      </trkpt>
      <trkpt lat="46.92839" lon="5.09359">
        <ele>245.27</ele>
        <time>2015-07-14T08:54:35.000Z</time>
      </trkpt>
      <trkpt lat="46.92829" lon="5.09355">
        <ele>245.75</ele>
        <time>2015-07-14T08:54:37.000Z</time>
      </trkpt>
      <trkpt lat="46.92818" lon="5.0935">
        <ele>245.27</ele>
        <time>2015-07-14T08:54:39.000Z</time>
      </trkpt>
      <trkpt lat="46.92808" lon="5.09345">
        <ele>245.27</ele>
        <time>2015-07-14T08:54:41.000Z</time>
      </trkpt>
      <trkpt lat="46.92798" lon="5.09339">
        <ele>245.27</ele>
        <time>2015-07-14T08:54:43.000Z</time>
      </trkpt>
      <trkpt lat="46.92788" lon="5.09333">
        <ele>245.75</ele>
        <time>2015-07-14T08:54:45.000Z</time>
      </trkpt>
      <trkpt lat="46.92778" lon="5.09326">
        <ele>245.75</ele>
        <time>2015-07-14T08:54:47.000Z</time>
      </trkpt>
      <trkpt lat="46.92769" lon="5.09319">
        <ele>245.75</ele>
        <time>2015-07-14T08:54:49.000Z</time>
      </trkpt>
      <trkpt lat="46.9276" lon="5.0931">
        <ele>245.75</ele>
        <time>2015-07-14T08:54:51.000Z</time>
      </trkpt>
      <trkpt lat="46.92751" lon="5.09302">
        <ele>245.75</ele>
        <time>2015-07-14T08:54:53.000Z</time>
      </trkpt>
      <trkpt lat="46.92743" lon="5.09294">
        <ele>245.75</ele>
        <time>2015-07-14T08:54:55.000Z</time>
      </trkpt>
      <trkpt lat="46.92734" lon="5.09285">
        <ele>246.23</ele>
        <time>2015-07-14T08:54:57.000Z</time>
      </trkpt>
      <trkpt lat="46.92725" lon="5.09276">
        <ele>245.75</ele>
        <time>2015-07-14T08:54:59.000Z</time>
      </trkpt>
      <trkpt lat="46.92717" lon="5.09268">
        <ele>245.75</ele>
        <time>2015-07-14T08:55:01.000Z</time>
      </trkpt>
      <trkpt lat="46.92709" lon="5.0926">
        <ele>245.75</ele>
        <time>2015-07-14T08:55:03.000Z</time>
      </trkpt>
      <trkpt lat="46.927" lon="5.09252">
        <ele>245.75</ele>
        <time>2015-07-14T08:55:05.000Z</time>
      </trkpt>
      <trkpt lat="46.92691" lon="5.09244">
        <ele>245.75</ele>
        <time>2015-07-14T08:55:07.000Z</time>
      </trkpt>
      <trkpt lat="46.92682" lon="5.09237">
        <ele>246.23</ele>
        <time>2015-07-14T08:55:09.000Z</time>
      </trkpt>
      <trkpt lat="46.92672" lon="5.0923">
        <ele>245.75</ele>
        <time>2015-07-14T08:55:11.000Z</time>
      </trkpt>
      <trkpt lat="46.92662" lon="5.09223">
        <ele>245.27</ele>
        <time>2015-07-14T08:55:13.000Z</time>
      </trkpt>
      <trkpt lat="46.92652" lon="5.09217">
        <ele>245.75</ele>
        <time>2015-07-14T08:55:15.000Z</time>
      </trkpt>
      <trkpt lat="46.92641" lon="5.09211">
        <ele>245.75</ele>
        <time>2015-07-14T08:55:17.000Z</time>
      </trkpt>
      <trkpt lat="46.92631" lon="5.09205">
        <ele>245.27</ele>
        <time>2015-07-14T08:55:19.000Z</time>
      </trkpt>
      <trkpt lat="46.92621" lon="5.09199">
        <ele>245.27</ele>
        <time>2015-07-14T08:55:21.000Z</time>
      </trkpt>
      <trkpt lat="46.9261" lon="5.09194">
        <ele>244.79</ele>
        <time>2015-07-14T08:55:23.000Z</time>
      </trkpt>
      <trkpt lat="46.92599" lon="5.09189">
        <ele>245.27</ele>
        <time>2015-07-14T08:55:25.000Z</time>
      </trkpt>
      <trkpt lat="46.92589" lon="5.09184">
        <ele>245.27</ele>
        <time>2015-07-14T08:55:27.000Z</time>
      </trkpt>
      <trkpt lat="46.92579" lon="5.09178">
        <ele>245.75</ele>
        <time>2015-07-14T08:55:29.000Z</time>
      </trkpt>
      <trkpt lat="46.92569" lon="5.09172">
        <ele>245.75</ele>
        <time>2015-07-14T08:55:31.000Z</time>
      </trkpt>
      <trkpt lat="46.92558" lon="5.09167">
        <ele>245.75</ele>
        <time>2015-07-14T08:55:33.000Z</time>
      </trkpt>
      <trkpt lat="46.92548" lon="5.09161">
        <ele>245.75</ele>
        <time>2015-07-14T08:55:35.000Z</time>
      </trkpt>
      <trkpt lat="46.92537" lon="5.09155">
        <ele>246.23</ele>
        <time>2015-07-14T08:55:37.000Z</time>
      </trkpt>
      <trkpt lat="46.92527" lon="5.09149">
        <ele>246.23</ele>
        <time>2015-07-14T08:55:39.000Z</time>
      </trkpt>
      <trkpt lat="46.92516" lon="5.09142">
        <ele>247.2</ele>
        <time>2015-07-14T08:55:41.000Z</time>
      </trkpt>
      <trkpt lat="46.92505" lon="5.09135">
        <ele>245.75</ele>
        <time>2015-07-14T08:55:43.000Z</time>
      </trkpt>
      <trkpt lat="46.92495" lon="5.09128">
        <ele>245.75</ele>
        <time>2015-07-14T08:55:45.000Z</time>
      </trkpt>
      <trkpt lat="46.92485" lon="5.0912">
        <ele>246.23</ele>
        <time>2015-07-14T08:55:47.000Z</time>
      </trkpt>
      <trkpt lat="46.92475" lon="5.09113">
        <ele>245.75</ele>
        <time>2015-07-14T08:55:49.000Z</time>
      </trkpt>
      <trkpt lat="46.92466" lon="5.09106">
        <ele>246.23</ele>
        <time>2015-07-14T08:55:51.000Z</time>
      </trkpt>
      <trkpt lat="46.92456" lon="5.09098">
        <ele>246.23</ele>
        <time>2015-07-14T08:55:53.000Z</time>
      </trkpt>
      <trkpt lat="46.92447" lon="5.09089">
        <ele>246.23</ele>
        <time>2015-07-14T08:55:55.000Z</time>
      </trkpt>
      <trkpt lat="46.92437" lon="5.0908">
        <ele>245.75</ele>
        <time>2015-07-14T08:55:57.000Z</time>
      </trkpt>
      <trkpt lat="46.92427" lon="5.09072">
        <ele>246.23</ele>
        <time>2015-07-14T08:55:59.000Z</time>
      </trkpt>
      <trkpt lat="46.92418" lon="5.09063">
        <ele>246.23</ele>
        <time>2015-07-14T08:56:01.000Z</time>
      </trkpt>
      <trkpt lat="46.92409" lon="5.09054">
        <ele>245.75</ele>
        <time>2015-07-14T08:56:03.000Z</time>
      </trkpt>
      <trkpt lat="46.924" lon="5.09044">
        <ele>245.75</ele>
        <time>2015-07-14T08:56:05.000Z</time>
      </trkpt>
      <trkpt lat="46.9239" lon="5.09035">
        <ele>245.75</ele>
        <time>2015-07-14T08:56:07.000Z</time>
      </trkpt>
      <trkpt lat="46.92381" lon="5.09025">
        <ele>245.75</ele>
        <time>2015-07-14T08:56:09.000Z</time>
      </trkpt>
      <trkpt lat="46.92373" lon="5.09015">
        <ele>245.75</ele>
        <time>2015-07-14T08:56:11.000Z</time>
      </trkpt>
      <trkpt lat="46.92365" lon="5.09005">
        <ele>246.23</ele>
        <time>2015-07-14T08:56:13.000Z</time>
      </trkpt>
      <trkpt lat="46.92357" lon="5.08993">
        <ele>246.23</ele>
        <time>2015-07-14T08:56:15.000Z</time>
      </trkpt>
      <trkpt lat="46.92349" lon="5.08981">
        <ele>246.23</ele>
        <time>2015-07-14T08:56:17.000Z</time>
      </trkpt>
      <trkpt lat="46.92341" lon="5.08968">
        <ele>246.72</ele>
        <time>2015-07-14T08:56:19.000Z</time>
      </trkpt>
      <trkpt lat="46.92333" lon="5.08955">
        <ele>246.23</ele>
        <time>2015-07-14T08:56:21.000Z</time>
      </trkpt>
      <trkpt lat="46.92326" lon="5.08942">
        <ele>245.27</ele>
        <time>2015-07-14T08:56:23.000Z</time>
      </trkpt>
      <trkpt lat="46.92318" lon="5.0893">
        <ele>245.27</ele>
        <time>2015-07-14T08:56:25.000Z</time>
      </trkpt>
      <trkpt lat="46.9231" lon="5.08919">
        <ele>245.75</ele>
        <time>2015-07-14T08:56:27.000Z</time>
      </trkpt>
      <trkpt lat="46.92301" lon="5.08908">
        <ele>245.27</ele>
        <time>2015-07-14T08:56:29.000Z</time>
      </trkpt>
      <trkpt lat="46.92292" lon="5.08897">
        <ele>245.75</ele>
        <time>2015-07-14T08:56:31.000Z</time>
      </trkpt>
      <trkpt lat="46.92284" lon="5.08887">
        <ele>245.75</ele>
        <time>2015-07-14T08:56:33.000Z</time>
      </trkpt>
      <trkpt lat="46.92274" lon="5.08878">
        <ele>246.23</ele>
        <time>2015-07-14T08:56:35.000Z</time>
      </trkpt>
      <trkpt lat="46.92265" lon="5.08869">
        <ele>245.75</ele>
        <time>2015-07-14T08:56:37.000Z</time>
      </trkpt>
      <trkpt lat="46.92255" lon="5.08859">
        <ele>245.75</ele>
        <time>2015-07-14T08:56:39.000Z</time>
      </trkpt>
      <trkpt lat="46.92245" lon="5.08851">
        <ele>246.23</ele>
        <time>2015-07-14T08:56:41.000Z</time>
      </trkpt>
      <trkpt lat="46.92234" lon="5.08843">
        <ele>246.23</ele>
        <time>2015-07-14T08:56:43.000Z</time>
      </trkpt>
      <trkpt lat="46.92225" lon="5.08836">
        <ele>246.23</ele>
        <time>2015-07-14T08:56:45.000Z</time>
      </trkpt>
      <trkpt lat="46.92215" lon="5.08829">
        <ele>246.23</ele>
        <time>2015-07-14T08:56:47.000Z</time>
      </trkpt>
      <trkpt lat="46.92204" lon="5.08822">
        <ele>246.23</ele>
        <time>2015-07-14T08:56:49.000Z</time>
      </trkpt>
      <trkpt lat="46.92194" lon="5.08816">
        <ele>246.23</ele>
        <time>2015-07-14T08:56:51.000Z</time>
      </trkpt>
      <trkpt lat="46.92182" lon="5.0881">
        <ele>246.23</ele>
        <time>2015-07-14T08:56:53.000Z</time>
      </trkpt>
      <trkpt lat="46.92171" lon="5.08804">
        <ele>245.75</ele>
        <time>2015-07-14T08:56:55.000Z</time>
      </trkpt>
      <trkpt lat="46.92159" lon="5.08799">
        <ele>245.75</ele>
        <time>2015-07-14T08:56:57.000Z</time>
      </trkpt>
      <trkpt lat="46.92146" lon="5.08795">
        <ele>245.27</ele>
        <time>2015-07-14T08:56:59.000Z</time>
      </trkpt>
      <trkpt lat="46.92133" lon="5.08792">
        <ele>245.27</ele>
        <time>2015-07-14T08:57:01.000Z</time>
      </trkpt>
      <trkpt lat="46.92121" lon="5.0879">
        <ele>245.27</ele>
        <time>2015-07-14T08:57:03.000Z</time>
      </trkpt>
      <trkpt lat="46.92109" lon="5.08789">
        <ele>245.75</ele>
        <time>2015-07-14T08:57:05.000Z</time>
      </trkpt>
      <trkpt lat="46.92096" lon="5.08788">
        <ele>245.75</ele>
        <time>2015-07-14T08:57:07.000Z</time>
      </trkpt>
      <trkpt lat="46.92085" lon="5.08788">
        <ele>245.75</ele>
        <time>2015-07-14T08:57:09.000Z</time>
      </trkpt>
      <trkpt lat="46.92073" lon="5.08788">
        <ele>245.75</ele>
        <time>2015-07-14T08:57:11.000Z</time>
      </trkpt>
      <trkpt lat="46.9206" lon="5.08788">
        <ele>246.23</ele>
        <time>2015-07-14T08:57:13.000Z</time>
      </trkpt>
      <trkpt lat="46.92049" lon="5.08788">
        <ele>246.23</ele>
        <time>2015-07-14T08:57:15.000Z</time>
      </trkpt>
      <trkpt lat="46.92037" lon="5.08789">
        <ele>246.23</ele>
        <time>2015-07-14T08:57:17.000Z</time>
      </trkpt>
      <trkpt lat="46.92025" lon="5.08791">
        <ele>246.23</ele>
        <time>2015-07-14T08:57:19.000Z</time>
      </trkpt>
      <trkpt lat="46.92013" lon="5.08792">
        <ele>246.23</ele>
        <time>2015-07-14T08:57:21.000Z</time>
      </trkpt>
      <trkpt lat="46.92001" lon="5.08794">
        <ele>246.23</ele>
        <time>2015-07-14T08:57:23.000Z</time>
      </trkpt>
      <trkpt lat="46.91989" lon="5.08796">
        <ele>246.23</ele>
        <time>2015-07-14T08:57:25.000Z</time>
      </trkpt>
      <trkpt lat="46.91977" lon="5.08799">
        <ele>246.72</ele>
        <time>2015-07-14T08:57:27.000Z</time>
      </trkpt>
      <trkpt lat="46.91966" lon="5.08801">
        <ele>246.23</ele>
        <time>2015-07-14T08:57:29.000Z</time>
      </trkpt>
      <trkpt lat="46.91954" lon="5.08804">
        <ele>246.23</ele>
        <time>2015-07-14T08:57:31.000Z</time>
      </trkpt>
      <trkpt lat="46.91942" lon="5.08806">
        <ele>245.75</ele>
        <time>2015-07-14T08:57:33.000Z</time>
      </trkpt>
      <trkpt lat="46.9193" lon="5.08809">
        <ele>245.75</ele>
        <time>2015-07-14T08:57:35.000Z</time>
      </trkpt>
      <trkpt lat="46.91918" lon="5.08811">
        <ele>245.75</ele>
        <time>2015-07-14T08:57:37.000Z</time>
      </trkpt>
      <trkpt lat="46.91906" lon="5.08814">
        <ele>245.27</ele>
        <time>2015-07-14T08:57:39.000Z</time>
      </trkpt>
      <trkpt lat="46.91893" lon="5.08816">
        <ele>245.75</ele>
        <time>2015-07-14T08:57:41.000Z</time>
      </trkpt>
      <trkpt lat="46.91882" lon="5.08819">
        <ele>245.75</ele>
        <time>2015-07-14T08:57:43.000Z</time>
      </trkpt>
      <trkpt lat="46.91869" lon="5.08822">
        <ele>245.75</ele>
        <time>2015-07-14T08:57:45.000Z</time>
      </trkpt>
      <trkpt lat="46.91857" lon="5.08823">
        <ele>245.27</ele>
        <time>2015-07-14T08:57:47.000Z</time>
      </trkpt>
      <trkpt lat="46.91845" lon="5.08825">
        <ele>245.75</ele>
        <time>2015-07-14T08:57:49.000Z</time>
      </trkpt>
      <trkpt lat="46.91832" lon="5.08826">
        <ele>246.23</ele>
        <time>2015-07-14T08:57:51.000Z</time>
      </trkpt>
      <trkpt lat="46.9182" lon="5.08827">
        <ele>245.75</ele>
        <time>2015-07-14T08:57:53.000Z</time>
      </trkpt>
      <trkpt lat="46.91808" lon="5.08826">
        <ele>245.27</ele>
        <time>2015-07-14T08:57:55.000Z</time>
      </trkpt>
      <trkpt lat="46.91795" lon="5.08825">
        <ele>244.79</ele>
        <time>2015-07-14T08:57:57.000Z</time>
      </trkpt>
      <trkpt lat="46.91783" lon="5.08824">
        <ele>245.27</ele>
        <time>2015-07-14T08:57:59.000Z</time>
      </trkpt>
      <trkpt lat="46.9177" lon="5.08822">
        <ele>244.31</ele>
        <time>2015-07-14T08:58:01.000Z</time>
      </trkpt>
      <trkpt lat="46.91758" lon="5.08821">
        <ele>244.79</ele>
        <time>2015-07-14T08:58:03.000Z</time>
      </trkpt>
      <trkpt lat="46.91746" lon="5.08819">
        <ele>244.79</ele>
        <time>2015-07-14T08:58:05.000Z</time>
      </trkpt>
      <trkpt lat="46.91734" lon="5.08818">
        <ele>245.27</ele>
        <time>2015-07-14T08:58:07.000Z</time>
      </trkpt>
      <trkpt lat="46.91721" lon="5.08816">
        <ele>245.27</ele>
        <time>2015-07-14T08:58:09.000Z</time>
      </trkpt>
      <trkpt lat="46.91709" lon="5.08815">
        <ele>246.23</ele>
        <time>2015-07-14T08:58:11.000Z</time>
      </trkpt>
      <trkpt lat="46.91698" lon="5.08814">
        <ele>246.23</ele>
        <time>2015-07-14T08:58:13.000Z</time>
      </trkpt>
      <trkpt lat="46.91686" lon="5.08813">
        <ele>245.75</ele>
        <time>2015-07-14T08:58:15.000Z</time>
      </trkpt>
      <trkpt lat="46.91674" lon="5.08811">
        <ele>246.23</ele>
        <time>2015-07-14T08:58:17.000Z</time>
      </trkpt>
      <trkpt lat="46.91663" lon="5.08807">
        <ele>246.72</ele>
        <time>2015-07-14T08:58:19.000Z</time>
      </trkpt>
      <trkpt lat="46.91651" lon="5.08802">
        <ele>246.23</ele>
        <time>2015-07-14T08:58:21.000Z</time>
      </trkpt>
      <trkpt lat="46.91639" lon="5.08796">
        <ele>246.23</ele>
        <time>2015-07-14T08:58:23.000Z</time>
      </trkpt>
      <trkpt lat="46.91628" lon="5.08789">
        <ele>246.23</ele>
        <time>2015-07-14T08:58:25.000Z</time>
      </trkpt>
      <trkpt lat="46.91616" lon="5.08782">
        <ele>246.23</ele>
        <time>2015-07-14T08:58:27.000Z</time>
      </trkpt>
      <trkpt lat="46.91605" lon="5.08775">
        <ele>246.23</ele>
        <time>2015-07-14T08:58:29.000Z</time>
      </trkpt>
      <trkpt lat="46.91594" lon="5.08769">
        <ele>246.23</ele>
        <time>2015-07-14T08:58:31.000Z</time>
      </trkpt>
      <trkpt lat="46.91581" lon="5.08765">
        <ele>246.72</ele>
        <time>2015-07-14T08:58:33.000Z</time>
      </trkpt>
      <trkpt lat="46.91569" lon="5.08764">
        <ele>246.72</ele>
        <time>2015-07-14T08:58:35.000Z</time>
      </trkpt>
      <trkpt lat="46.91556" lon="5.08765">
        <ele>246.23</ele>
        <time>2015-07-14T08:58:37.000Z</time>
      </trkpt>
      <trkpt lat="46.91544" lon="5.08768">
        <ele>246.23</ele>
        <time>2015-07-14T08:58:39.000Z</time>
      </trkpt>
      <trkpt lat="46.91532" lon="5.08769">
        <ele>246.23</ele>
        <time>2015-07-14T08:58:41.000Z</time>
      </trkpt>
      <trkpt lat="46.9152" lon="5.08767">
        <ele>246.72</ele>
        <time>2015-07-14T08:58:43.000Z</time>
      </trkpt>
      <trkpt lat="46.91508" lon="5.08761">
        <ele>246.72</ele>
        <time>2015-07-14T08:58:45.000Z</time>
      </trkpt>
      <trkpt lat="46.91497" lon="5.08751">
        <ele>246.72</ele>
        <time>2015-07-14T08:58:47.000Z</time>
      </trkpt>
      <trkpt lat="46.91487" lon="5.0874">
        <ele>246.72</ele>
        <time>2015-07-14T08:58:49.000Z</time>
      </trkpt>
      <trkpt lat="46.91477" lon="5.08729">
        <ele>246.72</ele>
        <time>2015-07-14T08:58:51.000Z</time>
      </trkpt>
      <trkpt lat="46.91468" lon="5.08717">
        <ele>246.72</ele>
        <time>2015-07-14T08:58:53.000Z</time>
      </trkpt>
      <trkpt lat="46.91458" lon="5.08706">
        <ele>246.72</ele>
        <time>2015-07-14T08:58:55.000Z</time>
      </trkpt>
      <trkpt lat="46.91449" lon="5.08694">
        <ele>246.23</ele>
        <time>2015-07-14T08:58:57.000Z</time>
      </trkpt>
      <trkpt lat="46.91439" lon="5.08682">
        <ele>246.23</ele>
        <time>2015-07-14T08:58:59.000Z</time>
      </trkpt>
      <trkpt lat="46.9143" lon="5.08671">
        <ele>246.23</ele>
        <time>2015-07-14T08:59:01.000Z</time>
      </trkpt>
      <trkpt lat="46.9142" lon="5.08659">
        <ele>246.23</ele>
        <time>2015-07-14T08:59:03.000Z</time>
      </trkpt>
      <trkpt lat="46.9141" lon="5.08648">
        <ele>246.23</ele>
        <time>2015-07-14T08:59:05.000Z</time>
      </trkpt>
      <trkpt lat="46.91401" lon="5.08637">
        <ele>246.72</ele>
        <time>2015-07-14T08:59:07.000Z</time>
      </trkpt>
      <trkpt lat="46.91392" lon="5.08625">
        <ele>247.2</ele>
        <time>2015-07-14T08:59:09.000Z</time>
      </trkpt>
      <trkpt lat="46.91382" lon="5.08614">
        <ele>247.2</ele>
        <time>2015-07-14T08:59:11.000Z</time>
      </trkpt>
      <trkpt lat="46.91372" lon="5.08603">
        <ele>247.2</ele>
        <time>2015-07-14T08:59:13.000Z</time>
      </trkpt>
      <trkpt lat="46.91362" lon="5.08592">
        <ele>247.2</ele>
        <time>2015-07-14T08:59:15.000Z</time>
      </trkpt>
      <trkpt lat="46.91352" lon="5.08582">
        <ele>247.2</ele>
        <time>2015-07-14T08:59:17.000Z</time>
      </trkpt>
      <trkpt lat="46.91342" lon="5.08571">
        <ele>247.2</ele>
        <time>2015-07-14T08:59:19.000Z</time>
      </trkpt>
      <trkpt lat="46.91332" lon="5.08561">
        <ele>246.72</ele>
        <time>2015-07-14T08:59:21.000Z</time>
      </trkpt>
      <trkpt lat="46.91322" lon="5.08552">
        <ele>247.2</ele>
        <time>2015-07-14T08:59:23.000Z</time>
      </trkpt>
      <trkpt lat="46.91311" lon="5.08541">
        <ele>247.2</ele>
        <time>2015-07-14T08:59:25.000Z</time>
      </trkpt>
      <trkpt lat="46.91301" lon="5.08531">
        <ele>247.2</ele>
        <time>2015-07-14T08:59:27.000Z</time>
      </trkpt>
      <trkpt lat="46.9129" lon="5.0852">
        <ele>247.2</ele>
        <time>2015-07-14T08:59:29.000Z</time>
      </trkpt>
      <trkpt lat="46.9128" lon="5.08509">
        <ele>246.72</ele>
        <time>2015-07-14T08:59:31.000Z</time>
      </trkpt>
      <trkpt lat="46.9127" lon="5.08498">
        <ele>246.72</ele>
        <time>2015-07-14T08:59:33.000Z</time>
      </trkpt>
      <trkpt lat="46.91259" lon="5.08489">
        <ele>247.2</ele>
        <time>2015-07-14T08:59:35.000Z</time>
      </trkpt>
      <trkpt lat="46.91248" lon="5.08478">
        <ele>247.2</ele>
        <time>2015-07-14T08:59:37.000Z</time>
      </trkpt>
      <trkpt lat="46.91238" lon="5.08467">
        <ele>246.72</ele>
        <time>2015-07-14T08:59:39.000Z</time>
      </trkpt>
      <trkpt lat="46.91227" lon="5.08456">
        <ele>247.2</ele>
        <time>2015-07-14T08:59:41.000Z</time>
      </trkpt>
      <trkpt lat="46.91217" lon="5.08445">
        <ele>246.72</ele>
        <time>2015-07-14T08:59:43.000Z</time>
      </trkpt>
      <trkpt lat="46.91207" lon="5.08435">
        <ele>247.2</ele>
        <time>2015-07-14T08:59:45.000Z</time>
      </trkpt>
      <trkpt lat="46.91197" lon="5.08424">
        <ele>247.2</ele>
        <time>2015-07-14T08:59:47.000Z</time>
      </trkpt>
      <trkpt lat="46.91186" lon="5.08414">
        <ele>247.2</ele>
        <time>2015-07-14T08:59:49.000Z</time>
      </trkpt>
      <trkpt lat="46.91175" lon="5.08405">
        <ele>246.72</ele>
        <time>2015-07-14T08:59:51.000Z</time>
      </trkpt>
      <trkpt lat="46.91164" lon="5.08395">
        <ele>247.2</ele>
        <time>2015-07-14T08:59:53.000Z</time>
      </trkpt>
      <trkpt lat="46.91153" lon="5.08386">
        <ele>247.68</ele>
        <time>2015-07-14T08:59:55.000Z</time>
      </trkpt>
      <trkpt lat="46.91142" lon="5.08378">
        <ele>247.68</ele>
        <time>2015-07-14T08:59:57.000Z</time>
      </trkpt>
      <trkpt lat="46.9113" lon="5.08371">
        <ele>246.72</ele>
        <time>2015-07-14T08:59:59.000Z</time>
      </trkpt>
      <trkpt lat="46.91117" lon="5.08364">
        <ele>247.2</ele>
        <time>2015-07-14T09:00:01.000Z</time>
      </trkpt>
      <trkpt lat="46.91106" lon="5.08356">
        <ele>246.72</ele>
        <time>2015-07-14T09:00:03.000Z</time>
      </trkpt>
      <trkpt lat="46.91093" lon="5.08349">
        <ele>247.2</ele>
        <time>2015-07-14T09:00:05.000Z</time>
      </trkpt>
      <trkpt lat="46.91081" lon="5.08343">
        <ele>246.72</ele>
        <time>2015-07-14T09:00:07.000Z</time>
      </trkpt>
      <trkpt lat="46.91069" lon="5.08336">
        <ele>247.2</ele>
        <time>2015-07-14T09:00:09.000Z</time>
      </trkpt>
      <trkpt lat="46.91057" lon="5.0833">
        <ele>247.2</ele>
        <time>2015-07-14T09:00:11.000Z</time>
      </trkpt>
      <trkpt lat="46.91045" lon="5.08325">
        <ele>247.68</ele>
        <time>2015-07-14T09:00:13.000Z</time>
      </trkpt>
      <trkpt lat="46.91032" lon="5.08321">
        <ele>247.68</ele>
        <time>2015-07-14T09:00:15.000Z</time>
      </trkpt>
      <trkpt lat="46.9102" lon="5.08317">
        <ele>247.68</ele>
        <time>2015-07-14T09:00:17.000Z</time>
      </trkpt>
      <trkpt lat="46.91007" lon="5.08313">
        <ele>247.2</ele>
        <time>2015-07-14T09:00:19.000Z</time>
      </trkpt>
      <trkpt lat="46.90995" lon="5.08309">
        <ele>247.2</ele>
        <time>2015-07-14T09:00:21.000Z</time>
      </trkpt>
      <trkpt lat="46.90982" lon="5.08306">
        <ele>247.68</ele>
        <time>2015-07-14T09:00:23.000Z</time>
      </trkpt>
      <trkpt lat="46.90971" lon="5.08303">
        <ele>247.68</ele>
        <time>2015-07-14T09:00:25.000Z</time>
      </trkpt>
      <trkpt lat="46.90959" lon="5.08301">
        <ele>246.23</ele>
        <time>2015-07-14T09:00:27.000Z</time>
      </trkpt>
      <trkpt lat="46.90948" lon="5.08297">
        <ele>246.72</ele>
        <time>2015-07-14T09:00:29.000Z</time>
      </trkpt>
      <trkpt lat="46.90936" lon="5.08294">
        <ele>246.72</ele>
        <time>2015-07-14T09:00:31.000Z</time>
      </trkpt>
      <trkpt lat="46.90926" lon="5.08291">
        <ele>246.23</ele>
        <time>2015-07-14T09:00:33.000Z</time>
      </trkpt>
      <trkpt lat="46.90916" lon="5.08285">
        <ele>246.72</ele>
        <time>2015-07-14T09:00:35.000Z</time>
      </trkpt>
      <trkpt lat="46.90905" lon="5.08276">
        <ele>246.23</ele>
        <time>2015-07-14T09:00:37.000Z</time>
      </trkpt>
      <trkpt lat="46.90894" lon="5.08265">
        <ele>245.75</ele>
        <time>2015-07-14T09:00:39.000Z</time>
      </trkpt>
      <trkpt lat="46.90881" lon="5.08254">
        <ele>246.23</ele>
        <time>2015-07-14T09:00:41.000Z</time>
      </trkpt>
      <trkpt lat="46.90868" lon="5.08243">
        <ele>245.75</ele>
        <time>2015-07-14T09:00:43.000Z</time>
      </trkpt>
      <trkpt lat="46.90857" lon="5.08232">
        <ele>246.23</ele>
        <time>2015-07-14T09:00:45.000Z</time>
      </trkpt>
      <trkpt lat="46.90845" lon="5.08222">
        <ele>245.75</ele>
        <time>2015-07-14T09:00:47.000Z</time>
      </trkpt>
      <trkpt lat="46.90833" lon="5.08211">
        <ele>245.75</ele>
        <time>2015-07-14T09:00:49.000Z</time>
      </trkpt>
      <trkpt lat="46.90821" lon="5.08201">
        <ele>246.23</ele>
        <time>2015-07-14T09:00:51.000Z</time>
      </trkpt>
      <trkpt lat="46.90808" lon="5.08192">
        <ele>245.75</ele>
        <time>2015-07-14T09:00:53.000Z</time>
      </trkpt>
      <trkpt lat="46.90795" lon="5.08184">
        <ele>245.75</ele>
        <time>2015-07-14T09:00:55.000Z</time>
      </trkpt>
      <trkpt lat="46.90782" lon="5.08176">
        <ele>246.23</ele>
        <time>2015-07-14T09:00:57.000Z</time>
      </trkpt>
      <trkpt lat="46.90768" lon="5.08169">
        <ele>246.23</ele>
        <time>2015-07-14T09:00:59.000Z</time>
      </trkpt>
      <trkpt lat="46.90755" lon="5.08161">
        <ele>246.23</ele>
        <time>2015-07-14T09:01:01.000Z</time>
      </trkpt>
      <trkpt lat="46.90742" lon="5.08153">
        <ele>245.75</ele>
        <time>2015-07-14T09:01:03.000Z</time>
      </trkpt>
      <trkpt lat="46.90729" lon="5.08145">
        <ele>245.75</ele>
        <time>2015-07-14T09:01:05.000Z</time>
      </trkpt>
      <trkpt lat="46.90716" lon="5.08137">
        <ele>245.75</ele>
        <time>2015-07-14T09:01:07.000Z</time>
      </trkpt>
      <trkpt lat="46.90702" lon="5.08129">
        <ele>245.75</ele>
        <time>2015-07-14T09:01:09.000Z</time>
      </trkpt>
      <trkpt lat="46.90689" lon="5.08123">
        <ele>245.75</ele>
        <time>2015-07-14T09:01:11.000Z</time>
      </trkpt>
      <trkpt lat="46.90676" lon="5.0812">
        <ele>245.75</ele>
        <time>2015-07-14T09:01:13.000Z</time>
      </trkpt>
      <trkpt lat="46.90663" lon="5.08117">
        <ele>245.27</ele>
        <time>2015-07-14T09:01:15.000Z</time>
      </trkpt>
      <trkpt lat="46.90649" lon="5.08114">
        <ele>244.79</ele>
        <time>2015-07-14T09:01:17.000Z</time>
      </trkpt>
      <trkpt lat="46.90636" lon="5.08111">
        <ele>245.27</ele>
        <time>2015-07-14T09:01:19.000Z</time>
      </trkpt>
      <trkpt lat="46.90622" lon="5.08109">
        <ele>246.23</ele>
        <time>2015-07-14T09:01:21.000Z</time>
      </trkpt>
      <trkpt lat="46.90609" lon="5.08106">
        <ele>245.27</ele>
        <time>2015-07-14T09:01:23.000Z</time>
      </trkpt>
      <trkpt lat="46.90596" lon="5.08104">
        <ele>245.27</ele>
        <time>2015-07-14T09:01:25.000Z</time>
      </trkpt>
      <trkpt lat="46.90582" lon="5.08101">
        <ele>245.75</ele>
        <time>2015-07-14T09:01:27.000Z</time>
      </trkpt>
      <trkpt lat="46.90569" lon="5.08099">
        <ele>245.27</ele>
        <time>2015-07-14T09:01:29.000Z</time>
      </trkpt>
      <trkpt lat="46.90557" lon="5.08095">
        <ele>245.75</ele>
        <time>2015-07-14T09:01:31.000Z</time>
      </trkpt>
      <trkpt lat="46.90545" lon="5.08093">
        <ele>245.75</ele>
        <time>2015-07-14T09:01:33.000Z</time>
      </trkpt>
      <trkpt lat="46.90535" lon="5.0809">
        <ele>246.23</ele>
        <time>2015-07-14T09:01:35.000Z</time>
      </trkpt>
      <trkpt lat="46.90523" lon="5.08085">
        <ele>246.23</ele>
        <time>2015-07-14T09:01:38.000Z</time>
      </trkpt>
      <trkpt lat="46.90514" lon="5.08081">
        <ele>246.23</ele>
        <time>2015-07-14T09:01:41.000Z</time>
      </trkpt>
      <trkpt lat="46.90503" lon="5.08084">
        <ele>246.72</ele>
        <time>2015-07-14T09:01:45.000Z</time>
      </trkpt>
      <trkpt lat="46.90496" lon="5.08098">
        <ele>246.72</ele>
        <time>2015-07-14T09:01:48.000Z</time>
      </trkpt>
      <trkpt lat="46.9049" lon="5.08109">
        <ele>246.23</ele>
        <time>2015-07-14T09:01:50.000Z</time>
      </trkpt>
      <trkpt lat="46.90484" lon="5.08121">
        <ele>245.75</ele>
        <time>2015-07-14T09:01:52.000Z</time>
      </trkpt>
      <trkpt lat="46.90478" lon="5.08132">
        <ele>246.23</ele>
        <time>2015-07-14T09:01:54.000Z</time>
      </trkpt>
      <trkpt lat="46.90471" lon="5.08144">
        <ele>245.75</ele>
        <time>2015-07-14T09:01:56.000Z</time>
      </trkpt>
      <trkpt lat="46.90464" lon="5.08155">
        <ele>246.23</ele>
        <time>2015-07-14T09:01:58.000Z</time>
      </trkpt>
      <trkpt lat="46.90457" lon="5.08167">
        <ele>246.23</ele>
        <time>2015-07-14T09:02:00.000Z</time>
      </trkpt>
      <trkpt lat="46.9045" lon="5.08179">
        <ele>246.23</ele>
        <time>2015-07-14T09:02:02.000Z</time>
      </trkpt>
      <trkpt lat="46.90443" lon="5.08191">
        <ele>246.23</ele>
        <time>2015-07-14T09:02:04.000Z</time>
      </trkpt>
      <trkpt lat="46.90437" lon="5.08203">
        <ele>246.23</ele>
        <time>2015-07-14T09:02:06.000Z</time>
      </trkpt>
      <trkpt lat="46.9043" lon="5.08215">
        <ele>246.23</ele>
        <time>2015-07-14T09:02:08.000Z</time>
      </trkpt>
      <trkpt lat="46.90423" lon="5.08228">
        <ele>246.23</ele>
        <time>2015-07-14T09:02:10.000Z</time>
      </trkpt>
      <trkpt lat="46.90416" lon="5.08241">
        <ele>246.23</ele>
        <time>2015-07-14T09:02:12.000Z</time>
      </trkpt>
      <trkpt lat="46.90409" lon="5.08255">
        <ele>245.75</ele>
        <time>2015-07-14T09:02:14.000Z</time>
      </trkpt>
      <trkpt lat="46.90403" lon="5.08269">
        <ele>245.27</ele>
        <time>2015-07-14T09:02:16.000Z</time>
      </trkpt>
      <trkpt lat="46.90397" lon="5.08282">
        <ele>245.27</ele>
        <time>2015-07-14T09:02:18.000Z</time>
      </trkpt>
      <trkpt lat="46.90393" lon="5.08295">
        <ele>245.27</ele>
        <time>2015-07-14T09:02:20.000Z</time>
      </trkpt>
      <trkpt lat="46.90388" lon="5.08312">
        <ele>245.75</ele>
        <time>2015-07-14T09:02:23.000Z</time>
      </trkpt>
      <trkpt lat="46.90383" lon="5.08328">
        <ele>245.75</ele>
        <time>2015-07-14T09:02:26.000Z</time>
      </trkpt>
      <trkpt lat="46.90377" lon="5.0834">
        <ele>246.72</ele>
        <time>2015-07-14T09:02:29.000Z</time>
      </trkpt>
      <trkpt lat="46.90366" lon="5.08334">
        <ele>246.72</ele>
        <time>2015-07-14T09:02:33.000Z</time>
      </trkpt>
      <trkpt lat="46.90358" lon="5.08327">
        <ele>246.23</ele>
        <time>2015-07-14T09:02:35.000Z</time>
      </trkpt>
      <trkpt lat="46.9035" lon="5.0832">
        <ele>246.23</ele>
        <time>2015-07-14T09:02:37.000Z</time>
      </trkpt>
      <trkpt lat="46.9034" lon="5.08312">
        <ele>246.23</ele>
        <time>2015-07-14T09:02:39.000Z</time>
      </trkpt>
      <trkpt lat="46.90331" lon="5.08304">
        <ele>246.23</ele>
        <time>2015-07-14T09:02:41.000Z</time>
      </trkpt>
      <trkpt lat="46.90321" lon="5.08296">
        <ele>246.23</ele>
        <time>2015-07-14T09:02:43.000Z</time>
      </trkpt>
      <trkpt lat="46.90311" lon="5.08289">
        <ele>245.27</ele>
        <time>2015-07-14T09:02:45.000Z</time>
      </trkpt>
      <trkpt lat="46.90302" lon="5.0828">
        <ele>245.27</ele>
        <time>2015-07-14T09:02:47.000Z</time>
      </trkpt>
      <trkpt lat="46.90292" lon="5.08272">
        <ele>245.75</ele>
        <time>2015-07-14T09:02:49.000Z</time>
      </trkpt>
      <trkpt lat="46.90283" lon="5.08263">
        <ele>245.75</ele>
        <time>2015-07-14T09:02:51.000Z</time>
      </trkpt>
      <trkpt lat="46.90275" lon="5.08253">
        <ele>245.27</ele>
        <time>2015-07-14T09:02:53.000Z</time>
      </trkpt>
      <trkpt lat="46.90266" lon="5.08243">
        <ele>245.75</ele>
        <time>2015-07-14T09:02:55.000Z</time>
      </trkpt>
      <trkpt lat="46.90258" lon="5.08232">
        <ele>245.27</ele>
        <time>2015-07-14T09:02:57.000Z</time>
      </trkpt>
      <trkpt lat="46.90251" lon="5.08221">
        <ele>246.23</ele>
        <time>2015-07-14T09:02:59.000Z</time>
      </trkpt>
      <trkpt lat="46.90243" lon="5.08211">
        <ele>246.23</ele>
        <time>2015-07-14T09:03:01.000Z</time>
      </trkpt>
      <trkpt lat="46.90234" lon="5.08201">
        <ele>246.23</ele>
        <time>2015-07-14T09:03:03.000Z</time>
      </trkpt>
      <trkpt lat="46.90226" lon="5.08191">
        <ele>246.23</ele>
        <time>2015-07-14T09:03:05.000Z</time>
      </trkpt>
      <trkpt lat="46.90217" lon="5.08182">
        <ele>245.75</ele>
        <time>2015-07-14T09:03:07.000Z</time>
      </trkpt>
      <trkpt lat="46.90208" lon="5.08172">
        <ele>245.75</ele>
        <time>2015-07-14T09:03:09.000Z</time>
      </trkpt>
      <trkpt lat="46.90199" lon="5.08159">
        <ele>245.27</ele>
        <time>2015-07-14T09:03:11.000Z</time>
      </trkpt>
      <trkpt lat="46.90191" lon="5.08147">
        <ele>245.27</ele>
        <time>2015-07-14T09:03:13.000Z</time>
      </trkpt>
      <trkpt lat="46.90183" lon="5.08134">
        <ele>245.27</ele>
        <time>2015-07-14T09:03:15.000Z</time>
      </trkpt>
      <trkpt lat="46.90175" lon="5.08121">
        <ele>245.27</ele>
        <time>2015-07-14T09:03:17.000Z</time>
      </trkpt>
      <trkpt lat="46.90168" lon="5.08108">
        <ele>245.27</ele>
        <time>2015-07-14T09:03:19.000Z</time>
      </trkpt>
      <trkpt lat="46.90159" lon="5.08096">
        <ele>245.27</ele>
        <time>2015-07-14T09:03:21.000Z</time>
      </trkpt>
      <trkpt lat="46.9015" lon="5.08084">
        <ele>244.79</ele>
        <time>2015-07-14T09:03:23.000Z</time>
      </trkpt>
      <trkpt lat="46.90142" lon="5.08073">
        <ele>245.75</ele>
        <time>2015-07-14T09:03:25.000Z</time>
      </trkpt>
      <trkpt lat="46.90134" lon="5.08061">
        <ele>245.27</ele>
        <time>2015-07-14T09:03:27.000Z</time>
      </trkpt>
      <trkpt lat="46.90127" lon="5.08048">
        <ele>244.79</ele>
        <time>2015-07-14T09:03:29.000Z</time>
      </trkpt>
      <trkpt lat="46.9012" lon="5.08035">
        <ele>244.79</ele>
        <time>2015-07-14T09:03:31.000Z</time>
      </trkpt>
      <trkpt lat="46.90115" lon="5.0802">
        <ele>244.79</ele>
        <time>2015-07-14T09:03:33.000Z</time>
      </trkpt>
      <trkpt lat="46.90108" lon="5.08005">
        <ele>244.79</ele>
        <time>2015-07-14T09:03:35.000Z</time>
      </trkpt>
      <trkpt lat="46.90103" lon="5.07991">
        <ele>244.79</ele>
        <time>2015-07-14T09:03:37.000Z</time>
      </trkpt>
      <trkpt lat="46.90097" lon="5.07976">
        <ele>244.31</ele>
        <time>2015-07-14T09:03:39.000Z</time>
      </trkpt>
      <trkpt lat="46.90089" lon="5.07962">
        <ele>244.79</ele>
        <time>2015-07-14T09:03:41.000Z</time>
      </trkpt>
      <trkpt lat="46.90083" lon="5.07947">
        <ele>245.27</ele>
        <time>2015-07-14T09:03:43.000Z</time>
      </trkpt>
      <trkpt lat="46.90076" lon="5.07933">
        <ele>244.79</ele>
        <time>2015-07-14T09:03:45.000Z</time>
      </trkpt>
      <trkpt lat="46.9007" lon="5.07919">
        <ele>244.31</ele>
        <time>2015-07-14T09:03:47.000Z</time>
      </trkpt>
      <trkpt lat="46.90063" lon="5.07905">
        <ele>244.31</ele>
        <time>2015-07-14T09:03:49.000Z</time>
      </trkpt>
      <trkpt lat="46.90056" lon="5.07891">
        <ele>244.31</ele>
        <time>2015-07-14T09:03:51.000Z</time>
      </trkpt>
      <trkpt lat="46.90049" lon="5.07877">
        <ele>244.31</ele>
        <time>2015-07-14T09:03:53.000Z</time>
      </trkpt>
      <trkpt lat="46.90041" lon="5.07864">
        <ele>244.31</ele>
        <time>2015-07-14T09:03:55.000Z</time>
      </trkpt>
      <trkpt lat="46.90034" lon="5.07851">
        <ele>243.83</ele>
        <time>2015-07-14T09:03:57.000Z</time>
      </trkpt>
      <trkpt lat="46.90027" lon="5.07837">
        <ele>243.83</ele>
        <time>2015-07-14T09:03:59.000Z</time>
      </trkpt>
      <trkpt lat="46.9002" lon="5.07823">
        <ele>243.83</ele>
        <time>2015-07-14T09:04:01.000Z</time>
      </trkpt>
      <trkpt lat="46.90013" lon="5.07808">
        <ele>243.83</ele>
        <time>2015-07-14T09:04:03.000Z</time>
      </trkpt>
      <trkpt lat="46.90005" lon="5.07795">
        <ele>243.83</ele>
        <time>2015-07-14T09:04:05.000Z</time>
      </trkpt>
      <trkpt lat="46.89997" lon="5.07781">
        <ele>243.83</ele>
        <time>2015-07-14T09:04:07.000Z</time>
      </trkpt>
      <trkpt lat="46.8999" lon="5.07766">
        <ele>243.83</ele>
        <time>2015-07-14T09:04:09.000Z</time>
      </trkpt>
      <trkpt lat="46.89982" lon="5.07753">
        <ele>243.83</ele>
        <time>2015-07-14T09:04:11.000Z</time>
      </trkpt>
      <trkpt lat="46.89975" lon="5.07739">
        <ele>243.35</ele>
        <time>2015-07-14T09:04:13.000Z</time>
      </trkpt>
      <trkpt lat="46.89968" lon="5.07724">
        <ele>243.83</ele>
        <time>2015-07-14T09:04:15.000Z</time>
      </trkpt>
      <trkpt lat="46.8996" lon="5.07711">
        <ele>243.83</ele>
        <time>2015-07-14T09:04:17.000Z</time>
      </trkpt>
      <trkpt lat="46.89953" lon="5.07697">
        <ele>243.83</ele>
        <time>2015-07-14T09:04:19.000Z</time>
      </trkpt>
      <trkpt lat="46.89946" lon="5.07684">
        <ele>243.83</ele>
        <time>2015-07-14T09:04:21.000Z</time>
      </trkpt>
      <trkpt lat="46.89939" lon="5.0767">
        <ele>243.35</ele>
        <time>2015-07-14T09:04:23.000Z</time>
      </trkpt>
      <trkpt lat="46.89932" lon="5.07656">
        <ele>243.83</ele>
        <time>2015-07-14T09:04:25.000Z</time>
      </trkpt>
      <trkpt lat="46.89925" lon="5.07642">
        <ele>244.31</ele>
        <time>2015-07-14T09:04:27.000Z</time>
      </trkpt>
      <trkpt lat="46.8992" lon="5.0763">
        <ele>243.83</ele>
        <time>2015-07-14T09:04:29.000Z</time>
      </trkpt>
      <trkpt lat="46.89915" lon="5.07616">
        <ele>243.83</ele>
        <time>2015-07-14T09:04:31.000Z</time>
      </trkpt>
      <trkpt lat="46.89912" lon="5.07602">
        <ele>243.83</ele>
        <time>2015-07-14T09:04:33.000Z</time>
      </trkpt>
      <trkpt lat="46.89911" lon="5.07586">
        <ele>244.31</ele>
        <time>2015-07-14T09:04:35.000Z</time>
      </trkpt>
      <trkpt lat="46.89911" lon="5.07572">
        <ele>244.31</ele>
        <time>2015-07-14T09:04:37.000Z</time>
      </trkpt>
      <trkpt lat="46.89912" lon="5.07554">
        <ele>244.79</ele>
        <time>2015-07-14T09:04:40.000Z</time>
      </trkpt>
      <trkpt lat="46.89913" lon="5.0754">
        <ele>244.31</ele>
        <time>2015-07-14T09:04:43.000Z</time>
      </trkpt>
      <trkpt lat="46.89914" lon="5.07525">
        <ele>245.27</ele>
        <time>2015-07-14T09:04:47.000Z</time>
      </trkpt>
      <trkpt lat="46.89914" lon="5.07508">
        <ele>245.27</ele>
        <time>2015-07-14T09:04:51.000Z</time>
      </trkpt>
      <trkpt lat="46.89914" lon="5.07493">
        <ele>245.27</ele>
        <time>2015-07-14T09:04:54.000Z</time>
      </trkpt>
      <trkpt lat="46.89916" lon="5.07478">
        <ele>245.75</ele>
        <time>2015-07-14T09:04:57.000Z</time>
      </trkpt>
      <trkpt lat="46.89917" lon="5.07462">
        <ele>245.75</ele>
        <time>2015-07-14T09:05:00.000Z</time>
      </trkpt>
      <trkpt lat="46.89919" lon="5.07444">
        <ele>246.23</ele>
        <time>2015-07-14T09:05:03.000Z</time>
      </trkpt>
      <trkpt lat="46.89919" lon="5.0743">
        <ele>245.75</ele>
        <time>2015-07-14T09:05:05.000Z</time>
      </trkpt>
      <trkpt lat="46.8992" lon="5.07416">
        <ele>245.75</ele>
        <time>2015-07-14T09:05:07.000Z</time>
      </trkpt>
      <trkpt lat="46.8992" lon="5.07402">
        <ele>246.23</ele>
        <time>2015-07-14T09:05:09.000Z</time>
      </trkpt>
      <trkpt lat="46.89922" lon="5.07386">
        <ele>245.75</ele>
        <time>2015-07-14T09:05:11.000Z</time>
      </trkpt>
      <trkpt lat="46.89922" lon="5.07372">
        <ele>244.79</ele>
        <time>2015-07-14T09:05:13.000Z</time>
      </trkpt>
      <trkpt lat="46.89924" lon="5.07357">
        <ele>245.27</ele>
        <time>2015-07-14T09:05:15.000Z</time>
      </trkpt>
      <trkpt lat="46.89926" lon="5.07342">
        <ele>245.27</ele>
        <time>2015-07-14T09:05:17.000Z</time>
      </trkpt>
      <trkpt lat="46.89929" lon="5.07327">
        <ele>245.27</ele>
        <time>2015-07-14T09:05:19.000Z</time>
      </trkpt>
      <trkpt lat="46.89933" lon="5.07311">
        <ele>245.27</ele>
        <time>2015-07-14T09:05:21.000Z</time>
      </trkpt>
      <trkpt lat="46.89936" lon="5.07296">
        <ele>245.27</ele>
        <time>2015-07-14T09:05:23.000Z</time>
      </trkpt>
      <trkpt lat="46.89941" lon="5.07282">
        <ele>245.75</ele>
        <time>2015-07-14T09:05:25.000Z</time>
      </trkpt>
      <trkpt lat="46.89947" lon="5.07269">
        <ele>246.23</ele>
        <time>2015-07-14T09:05:27.000Z</time>
      </trkpt>
      <trkpt lat="46.89952" lon="5.07255">
        <ele>246.23</ele>
        <time>2015-07-14T09:05:29.000Z</time>
      </trkpt>
      <trkpt lat="46.89959" lon="5.07242">
        <ele>246.23</ele>
        <time>2015-07-14T09:05:31.000Z</time>
      </trkpt>
      <trkpt lat="46.89965" lon="5.07228">
        <ele>246.23</ele>
        <time>2015-07-14T09:05:33.000Z</time>
      </trkpt>
      <trkpt lat="46.89971" lon="5.07214">
        <ele>246.23</ele>
        <time>2015-07-14T09:05:35.000Z</time>
      </trkpt>
      <trkpt lat="46.89977" lon="5.072">
        <ele>245.75</ele>
        <time>2015-07-14T09:05:37.000Z</time>
      </trkpt>
      <trkpt lat="46.89983" lon="5.07184">
        <ele>245.75</ele>
        <time>2015-07-14T09:05:39.000Z</time>
      </trkpt>
      <trkpt lat="46.89988" lon="5.07168">
        <ele>245.75</ele>
        <time>2015-07-14T09:05:41.000Z</time>
      </trkpt>
      <trkpt lat="46.89994" lon="5.0715">
        <ele>244.79</ele>
        <time>2015-07-14T09:05:43.000Z</time>
      </trkpt>
      <trkpt lat="46.89998" lon="5.07131">
        <ele>245.27</ele>
        <time>2015-07-14T09:05:45.000Z</time>
      </trkpt>
      <trkpt lat="46.90001" lon="5.07111">
        <ele>244.31</ele>
        <time>2015-07-14T09:05:47.000Z</time>
      </trkpt>
      <trkpt lat="46.90001" lon="5.07092">
        <ele>245.27</ele>
        <time>2015-07-14T09:05:49.000Z</time>
      </trkpt>
      <trkpt lat="46.90001" lon="5.07073">
        <ele>245.27</ele>
        <time>2015-07-14T09:05:51.000Z</time>
      </trkpt>
      <trkpt lat="46.90001" lon="5.07055">
        <ele>245.27</ele>
        <time>2015-07-14T09:05:53.000Z</time>
      </trkpt>
      <trkpt lat="46.9" lon="5.07037">
        <ele>244.79</ele>
        <time>2015-07-14T09:05:55.000Z</time>
      </trkpt>
      <trkpt lat="46.89999" lon="5.07019">
        <ele>244.79</ele>
        <time>2015-07-14T09:05:57.000Z</time>
      </trkpt>
      <trkpt lat="46.89998" lon="5.07001">
        <ele>244.79</ele>
        <time>2015-07-14T09:05:59.000Z</time>
      </trkpt>
      <trkpt lat="46.89997" lon="5.06983">
        <ele>244.79</ele>
        <time>2015-07-14T09:06:01.000Z</time>
      </trkpt>
      <trkpt lat="46.89997" lon="5.06966">
        <ele>244.79</ele>
        <time>2015-07-14T09:06:03.000Z</time>
      </trkpt>
      <trkpt lat="46.89997" lon="5.06948">
        <ele>244.31</ele>
        <time>2015-07-14T09:06:05.000Z</time>
      </trkpt>
      <trkpt lat="46.89996" lon="5.0693">
        <ele>243.83</ele>
        <time>2015-07-14T09:06:07.000Z</time>
      </trkpt>
      <trkpt lat="46.89995" lon="5.06911">
        <ele>244.31</ele>
        <time>2015-07-14T09:06:09.000Z</time>
      </trkpt>
      <trkpt lat="46.89994" lon="5.06891">
        <ele>244.31</ele>
        <time>2015-07-14T09:06:11.000Z</time>
      </trkpt>
      <trkpt lat="46.89993" lon="5.06871">
        <ele>244.31</ele>
        <time>2015-07-14T09:06:13.000Z</time>
      </trkpt>
      <trkpt lat="46.89992" lon="5.06852">
        <ele>244.31</ele>
        <time>2015-07-14T09:06:15.000Z</time>
      </trkpt>
      <trkpt lat="46.89991" lon="5.06832">
        <ele>244.79</ele>
        <time>2015-07-14T09:06:17.000Z</time>
      </trkpt>
      <trkpt lat="46.8999" lon="5.06813">
        <ele>244.79</ele>
        <time>2015-07-14T09:06:19.000Z</time>
      </trkpt>
      <trkpt lat="46.8999" lon="5.06794">
        <ele>244.79</ele>
        <time>2015-07-14T09:06:21.000Z</time>
      </trkpt>
      <trkpt lat="46.89989" lon="5.06775">
        <ele>244.79</ele>
        <time>2015-07-14T09:06:23.000Z</time>
      </trkpt>
      <trkpt lat="46.89988" lon="5.06755">
        <ele>244.79</ele>
        <time>2015-07-14T09:06:25.000Z</time>
      </trkpt>
      <trkpt lat="46.89988" lon="5.06737">
        <ele>244.79</ele>
        <time>2015-07-14T09:06:27.000Z</time>
      </trkpt>
      <trkpt lat="46.89987" lon="5.06719">
        <ele>245.27</ele>
        <time>2015-07-14T09:06:29.000Z</time>
      </trkpt>
      <trkpt lat="46.89986" lon="5.06702">
        <ele>244.31</ele>
        <time>2015-07-14T09:06:31.000Z</time>
      </trkpt>
      <trkpt lat="46.89985" lon="5.06684">
        <ele>244.79</ele>
        <time>2015-07-14T09:06:33.000Z</time>
      </trkpt>
      <trkpt lat="46.89984" lon="5.06666">
        <ele>244.79</ele>
        <time>2015-07-14T09:06:35.000Z</time>
      </trkpt>
      <trkpt lat="46.89984" lon="5.06649">
        <ele>244.79</ele>
        <time>2015-07-14T09:06:37.000Z</time>
      </trkpt>
      <trkpt lat="46.89983" lon="5.06632">
        <ele>244.79</ele>
        <time>2015-07-14T09:06:39.000Z</time>
      </trkpt>
      <trkpt lat="46.89982" lon="5.06614">
        <ele>244.79</ele>
        <time>2015-07-14T09:06:41.000Z</time>
      </trkpt>
      <trkpt lat="46.89981" lon="5.06598">
        <ele>244.79</ele>
        <time>2015-07-14T09:06:43.000Z</time>
      </trkpt>
      <trkpt lat="46.89981" lon="5.06581">
        <ele>244.79</ele>
        <time>2015-07-14T09:06:45.000Z</time>
      </trkpt>
      <trkpt lat="46.8998" lon="5.06565">
        <ele>244.79</ele>
        <time>2015-07-14T09:06:47.000Z</time>
      </trkpt>
      <trkpt lat="46.8998" lon="5.06548">
        <ele>244.31</ele>
        <time>2015-07-14T09:06:49.000Z</time>
      </trkpt>
      <trkpt lat="46.8998" lon="5.06532">
        <ele>244.31</ele>
        <time>2015-07-14T09:06:51.000Z</time>
      </trkpt>
      <trkpt lat="46.89979" lon="5.06516">
        <ele>244.79</ele>
        <time>2015-07-14T09:06:53.000Z</time>
      </trkpt>
      <trkpt lat="46.89978" lon="5.065">
        <ele>244.79</ele>
        <time>2015-07-14T09:06:55.000Z</time>
      </trkpt>
      <trkpt lat="46.89978" lon="5.06484">
        <ele>244.79</ele>
        <time>2015-07-14T09:06:57.000Z</time>
      </trkpt>
      <trkpt lat="46.89977" lon="5.06468">
        <ele>244.79</ele>
        <time>2015-07-14T09:06:59.000Z</time>
      </trkpt>
      <trkpt lat="46.89977" lon="5.06453">
        <ele>244.79</ele>
        <time>2015-07-14T09:07:01.000Z</time>
      </trkpt>
      <trkpt lat="46.89976" lon="5.06438">
        <ele>244.31</ele>
        <time>2015-07-14T09:07:03.000Z</time>
      </trkpt>
      <trkpt lat="46.89976" lon="5.06423">
        <ele>243.83</ele>
        <time>2015-07-14T09:07:05.000Z</time>
      </trkpt>
      <trkpt lat="46.89975" lon="5.06407">
        <ele>244.31</ele>
        <time>2015-07-14T09:07:07.000Z</time>
      </trkpt>
      <trkpt lat="46.89975" lon="5.06391">
        <ele>244.31</ele>
        <time>2015-07-14T09:07:09.000Z</time>
      </trkpt>
      <trkpt lat="46.89975" lon="5.06376">
        <ele>244.31</ele>
        <time>2015-07-14T09:07:11.000Z</time>
      </trkpt>
      <trkpt lat="46.89974" lon="5.0636">
        <ele>244.31</ele>
        <time>2015-07-14T09:07:13.000Z</time>
      </trkpt>
      <trkpt lat="46.89974" lon="5.06345">
        <ele>244.31</ele>
        <time>2015-07-14T09:07:15.000Z</time>
      </trkpt>
      <trkpt lat="46.89973" lon="5.06329">
        <ele>243.83</ele>
        <time>2015-07-14T09:07:17.000Z</time>
      </trkpt>
      <trkpt lat="46.89973" lon="5.06313">
        <ele>244.31</ele>
        <time>2015-07-14T09:07:19.000Z</time>
      </trkpt>
      <trkpt lat="46.89973" lon="5.06296">
        <ele>243.83</ele>
        <time>2015-07-14T09:07:21.000Z</time>
      </trkpt>
      <trkpt lat="46.89972" lon="5.0628">
        <ele>244.31</ele>
        <time>2015-07-14T09:07:23.000Z</time>
      </trkpt>
      <trkpt lat="46.89971" lon="5.06263">
        <ele>244.31</ele>
        <time>2015-07-14T09:07:25.000Z</time>
      </trkpt>
      <trkpt lat="46.89971" lon="5.06247">
        <ele>243.83</ele>
        <time>2015-07-14T09:07:27.000Z</time>
      </trkpt>
      <trkpt lat="46.8997" lon="5.0623">
        <ele>244.31</ele>
        <time>2015-07-14T09:07:29.000Z</time>
      </trkpt>
      <trkpt lat="46.8997" lon="5.06213">
        <ele>243.83</ele>
        <time>2015-07-14T09:07:31.000Z</time>
      </trkpt>
      <trkpt lat="46.8997" lon="5.06196">
        <ele>243.83</ele>
        <time>2015-07-14T09:07:33.000Z</time>
      </trkpt>
      <trkpt lat="46.89969" lon="5.06179">
        <ele>244.31</ele>
        <time>2015-07-14T09:07:35.000Z</time>
      </trkpt>
      <trkpt lat="46.89968" lon="5.06161">
        <ele>244.31</ele>
        <time>2015-07-14T09:07:37.000Z</time>
      </trkpt>
      <trkpt lat="46.89968" lon="5.06145">
        <ele>244.31</ele>
        <time>2015-07-14T09:07:39.000Z</time>
      </trkpt>
      <trkpt lat="46.89967" lon="5.06128">
        <ele>243.83</ele>
        <time>2015-07-14T09:07:41.000Z</time>
      </trkpt>
      <trkpt lat="46.89967" lon="5.06111">
        <ele>243.83</ele>
        <time>2015-07-14T09:07:43.000Z</time>
      </trkpt>
      <trkpt lat="46.89967" lon="5.06094">
        <ele>244.31</ele>
        <time>2015-07-14T09:07:45.000Z</time>
      </trkpt>
      <trkpt lat="46.89966" lon="5.06076">
        <ele>244.31</ele>
        <time>2015-07-14T09:07:47.000Z</time>
      </trkpt>
      <trkpt lat="46.89965" lon="5.06059">
        <ele>244.31</ele>
        <time>2015-07-14T09:07:49.000Z</time>
      </trkpt>
      <trkpt lat="46.89965" lon="5.06042">
        <ele>244.31</ele>
        <time>2015-07-14T09:07:51.000Z</time>
      </trkpt>
      <trkpt lat="46.89965" lon="5.06026">
        <ele>244.31</ele>
        <time>2015-07-14T09:07:53.000Z</time>
      </trkpt>
      <trkpt lat="46.89964" lon="5.06009">
        <ele>244.31</ele>
        <time>2015-07-14T09:07:55.000Z</time>
      </trkpt>
      <trkpt lat="46.89964" lon="5.05992">
        <ele>244.31</ele>
        <time>2015-07-14T09:07:57.000Z</time>
      </trkpt>
      <trkpt lat="46.89963" lon="5.05975">
        <ele>244.31</ele>
        <time>2015-07-14T09:07:59.000Z</time>
      </trkpt>
      <trkpt lat="46.89962" lon="5.05958">
        <ele>244.31</ele>
        <time>2015-07-14T09:08:01.000Z</time>
      </trkpt>
      <trkpt lat="46.89962" lon="5.05942">
        <ele>244.31</ele>
        <time>2015-07-14T09:08:03.000Z</time>
      </trkpt>
      <trkpt lat="46.89962" lon="5.05926">
        <ele>244.31</ele>
        <time>2015-07-14T09:08:05.000Z</time>
      </trkpt>
      <trkpt lat="46.89961" lon="5.0591">
        <ele>244.31</ele>
        <time>2015-07-14T09:08:07.000Z</time>
      </trkpt>
      <trkpt lat="46.89961" lon="5.05894">
        <ele>244.31</ele>
        <time>2015-07-14T09:08:09.000Z</time>
      </trkpt>
      <trkpt lat="46.8996" lon="5.05878">
        <ele>244.31</ele>
        <time>2015-07-14T09:08:11.000Z</time>
      </trkpt>
      <trkpt lat="46.8996" lon="5.05862">
        <ele>244.31</ele>
        <time>2015-07-14T09:08:13.000Z</time>
      </trkpt>
      <trkpt lat="46.89959" lon="5.05846">
        <ele>244.31</ele>
        <time>2015-07-14T09:08:15.000Z</time>
      </trkpt>
      <trkpt lat="46.89959" lon="5.0583">
        <ele>244.79</ele>
        <time>2015-07-14T09:08:17.000Z</time>
      </trkpt>
      <trkpt lat="46.89959" lon="5.05814">
        <ele>244.31</ele>
        <time>2015-07-14T09:08:19.000Z</time>
      </trkpt>
      <trkpt lat="46.89958" lon="5.05797">
        <ele>244.31</ele>
        <time>2015-07-14T09:08:21.000Z</time>
      </trkpt>
      <trkpt lat="46.89958" lon="5.05781">
        <ele>244.31</ele>
        <time>2015-07-14T09:08:23.000Z</time>
      </trkpt>
      <trkpt lat="46.89957" lon="5.05765">
        <ele>244.31</ele>
        <time>2015-07-14T09:08:25.000Z</time>
      </trkpt>
      <trkpt lat="46.89956" lon="5.05748">
        <ele>244.31</ele>
        <time>2015-07-14T09:08:27.000Z</time>
      </trkpt>
      <trkpt lat="46.89956" lon="5.05732">
        <ele>244.31</ele>
        <time>2015-07-14T09:08:29.000Z</time>
      </trkpt>
      <trkpt lat="46.89955" lon="5.05716">
        <ele>244.31</ele>
        <time>2015-07-14T09:08:31.000Z</time>
      </trkpt>
      <trkpt lat="46.89955" lon="5.05699">
        <ele>244.31</ele>
        <time>2015-07-14T09:08:33.000Z</time>
      </trkpt>
      <trkpt lat="46.89954" lon="5.05683">
        <ele>244.31</ele>
        <time>2015-07-14T09:08:35.000Z</time>
      </trkpt>
      <trkpt lat="46.89953" lon="5.05667">
        <ele>244.31</ele>
        <time>2015-07-14T09:08:37.000Z</time>
      </trkpt>
      <trkpt lat="46.89951" lon="5.05651">
        <ele>244.31</ele>
        <time>2015-07-14T09:08:39.000Z</time>
      </trkpt>
      <trkpt lat="46.89949" lon="5.05635">
        <ele>244.31</ele>
        <time>2015-07-14T09:08:41.000Z</time>
      </trkpt>
      <trkpt lat="46.89947" lon="5.05619">
        <ele>244.31</ele>
        <time>2015-07-14T09:08:43.000Z</time>
      </trkpt>
      <trkpt lat="46.89945" lon="5.05604">
        <ele>244.31</ele>
        <time>2015-07-14T09:08:45.000Z</time>
      </trkpt>
      <trkpt lat="46.89942" lon="5.05588">
        <ele>243.83</ele>
        <time>2015-07-14T09:08:47.000Z</time>
      </trkpt>
      <trkpt lat="46.89939" lon="5.05572">
        <ele>243.83</ele>
        <time>2015-07-14T09:08:49.000Z</time>
      </trkpt>
      <trkpt lat="46.89936" lon="5.05557">
        <ele>243.83</ele>
        <time>2015-07-14T09:08:51.000Z</time>
      </trkpt>
      <trkpt lat="46.89933" lon="5.05541">
        <ele>244.31</ele>
        <time>2015-07-14T09:08:53.000Z</time>
      </trkpt>
      <trkpt lat="46.8993" lon="5.05526">
        <ele>244.31</ele>
        <time>2015-07-14T09:08:55.000Z</time>
      </trkpt>
      <trkpt lat="46.89927" lon="5.0551">
        <ele>243.83</ele>
        <time>2015-07-14T09:08:57.000Z</time>
      </trkpt>
      <trkpt lat="46.89923" lon="5.05493">
        <ele>243.83</ele>
        <time>2015-07-14T09:08:59.000Z</time>
      </trkpt>
      <trkpt lat="46.8992" lon="5.05477">
        <ele>244.31</ele>
        <time>2015-07-14T09:09:01.000Z</time>
      </trkpt>
      <trkpt lat="46.89916" lon="5.05461">
        <ele>243.83</ele>
        <time>2015-07-14T09:09:03.000Z</time>
      </trkpt>
      <trkpt lat="46.89913" lon="5.05446">
        <ele>243.83</ele>
        <time>2015-07-14T09:09:05.000Z</time>
      </trkpt>
      <trkpt lat="46.89909" lon="5.0543">
        <ele>243.83</ele>
        <time>2015-07-14T09:09:07.000Z</time>
      </trkpt>
      <trkpt lat="46.89906" lon="5.05413">
        <ele>243.83</ele>
        <time>2015-07-14T09:09:09.000Z</time>
      </trkpt>
      <trkpt lat="46.89902" lon="5.05398">
        <ele>243.83</ele>
        <time>2015-07-14T09:09:11.000Z</time>
      </trkpt>
      <trkpt lat="46.89899" lon="5.05382">
        <ele>243.83</ele>
        <time>2015-07-14T09:09:13.000Z</time>
      </trkpt>
      <trkpt lat="46.89895" lon="5.05366">
        <ele>244.31</ele>
        <time>2015-07-14T09:09:15.000Z</time>
      </trkpt>
      <trkpt lat="46.89891" lon="5.0535">
        <ele>243.35</ele>
        <time>2015-07-14T09:09:17.000Z</time>
      </trkpt>
      <trkpt lat="46.89888" lon="5.05334">
        <ele>243.35</ele>
        <time>2015-07-14T09:09:19.000Z</time>
      </trkpt>
      <trkpt lat="46.89884" lon="5.05318">
        <ele>242.87</ele>
        <time>2015-07-14T09:09:21.000Z</time>
      </trkpt>
      <trkpt lat="46.8988" lon="5.05302">
        <ele>243.35</ele>
        <time>2015-07-14T09:09:23.000Z</time>
      </trkpt>
      <trkpt lat="46.89877" lon="5.05287">
        <ele>243.35</ele>
        <time>2015-07-14T09:09:25.000Z</time>
      </trkpt>
      <trkpt lat="46.89873" lon="5.05271">
        <ele>243.83</ele>
        <time>2015-07-14T09:09:27.000Z</time>
      </trkpt>
      <trkpt lat="46.8987" lon="5.05255">
        <ele>243.83</ele>
        <time>2015-07-14T09:09:29.000Z</time>
      </trkpt>
      <trkpt lat="46.89866" lon="5.05239">
        <ele>244.31</ele>
        <time>2015-07-14T09:09:31.000Z</time>
      </trkpt>
      <trkpt lat="46.89862" lon="5.05223">
        <ele>244.31</ele>
        <time>2015-07-14T09:09:33.000Z</time>
      </trkpt>
      <trkpt lat="46.89859" lon="5.05207">
        <ele>244.31</ele>
        <time>2015-07-14T09:09:35.000Z</time>
      </trkpt>
      <trkpt lat="46.89856" lon="5.05191">
        <ele>244.31</ele>
        <time>2015-07-14T09:09:37.000Z</time>
      </trkpt>
      <trkpt lat="46.89852" lon="5.05175">
        <ele>243.83</ele>
        <time>2015-07-14T09:09:39.000Z</time>
      </trkpt>
      <trkpt lat="46.89848" lon="5.05159">
        <ele>243.83</ele>
        <time>2015-07-14T09:09:41.000Z</time>
      </trkpt>
      <trkpt lat="46.89845" lon="5.05141">
        <ele>243.83</ele>
        <time>2015-07-14T09:09:43.000Z</time>
      </trkpt>
      <trkpt lat="46.89841" lon="5.05123">
        <ele>243.83</ele>
        <time>2015-07-14T09:09:45.000Z</time>
      </trkpt>
      <trkpt lat="46.89838" lon="5.05106">
        <ele>244.31</ele>
        <time>2015-07-14T09:09:47.000Z</time>
      </trkpt>
      <trkpt lat="46.89835" lon="5.05089">
        <ele>244.31</ele>
        <time>2015-07-14T09:09:49.000Z</time>
      </trkpt>
      <trkpt lat="46.89832" lon="5.05072">
        <ele>244.31</ele>
        <time>2015-07-14T09:09:51.000Z</time>
      </trkpt>
      <trkpt lat="46.89829" lon="5.05055">
        <ele>243.83</ele>
        <time>2015-07-14T09:09:53.000Z</time>
      </trkpt>
      <trkpt lat="46.89826" lon="5.05037">
        <ele>243.83</ele>
        <time>2015-07-14T09:09:55.000Z</time>
      </trkpt>
      <trkpt lat="46.89823" lon="5.0502">
        <ele>243.83</ele>
        <time>2015-07-14T09:09:57.000Z</time>
      </trkpt>
      <trkpt lat="46.89821" lon="5.05003">
        <ele>243.83</ele>
        <time>2015-07-14T09:09:59.000Z</time>
      </trkpt>
      <trkpt lat="46.89818" lon="5.04986">
        <ele>243.83</ele>
        <time>2015-07-14T09:10:01.000Z</time>
      </trkpt>
      <trkpt lat="46.89816" lon="5.04969">
        <ele>243.83</ele>
        <time>2015-07-14T09:10:03.000Z</time>
      </trkpt>
      <trkpt lat="46.89813" lon="5.04951">
        <ele>244.31</ele>
        <time>2015-07-14T09:10:05.000Z</time>
      </trkpt>
      <trkpt lat="46.89811" lon="5.04935">
        <ele>243.35</ele>
        <time>2015-07-14T09:10:07.000Z</time>
      </trkpt>
      <trkpt lat="46.89808" lon="5.04918">
        <ele>243.83</ele>
        <time>2015-07-14T09:10:09.000Z</time>
      </trkpt>
      <trkpt lat="46.89805" lon="5.04902">
        <ele>243.83</ele>
        <time>2015-07-14T09:10:11.000Z</time>
      </trkpt>
      <trkpt lat="46.89802" lon="5.04885">
        <ele>244.31</ele>
        <time>2015-07-14T09:10:13.000Z</time>
      </trkpt>
      <trkpt lat="46.89799" lon="5.04869">
        <ele>243.35</ele>
        <time>2015-07-14T09:10:15.000Z</time>
      </trkpt>
      <trkpt lat="46.89796" lon="5.04853">
        <ele>243.83</ele>
        <time>2015-07-14T09:10:17.000Z</time>
      </trkpt>
      <trkpt lat="46.89793" lon="5.04837">
        <ele>243.83</ele>
        <time>2015-07-14T09:10:19.000Z</time>
      </trkpt>
      <trkpt lat="46.89789" lon="5.04821">
        <ele>243.83</ele>
        <time>2015-07-14T09:10:21.000Z</time>
      </trkpt>
      <trkpt lat="46.89785" lon="5.04805">
        <ele>243.83</ele>
        <time>2015-07-14T09:10:23.000Z</time>
      </trkpt>
      <trkpt lat="46.89782" lon="5.04789">
        <ele>244.31</ele>
        <time>2015-07-14T09:10:25.000Z</time>
      </trkpt>
      <trkpt lat="46.89779" lon="5.04773">
        <ele>243.83</ele>
        <time>2015-07-14T09:10:27.000Z</time>
      </trkpt>
      <trkpt lat="46.89775" lon="5.04757">
        <ele>243.83</ele>
        <time>2015-07-14T09:10:29.000Z</time>
      </trkpt>
      <trkpt lat="46.89772" lon="5.04741">
        <ele>243.83</ele>
        <time>2015-07-14T09:10:31.000Z</time>
      </trkpt>
      <trkpt lat="46.89768" lon="5.04725">
        <ele>243.83</ele>
        <time>2015-07-14T09:10:33.000Z</time>
      </trkpt>
      <trkpt lat="46.89765" lon="5.0471">
        <ele>243.83</ele>
        <time>2015-07-14T09:10:35.000Z</time>
      </trkpt>
      <trkpt lat="46.89761" lon="5.04694">
        <ele>243.83</ele>
        <time>2015-07-14T09:10:37.000Z</time>
      </trkpt>
      <trkpt lat="46.89758" lon="5.04679">
        <ele>244.31</ele>
        <time>2015-07-14T09:10:39.000Z</time>
      </trkpt>
      <trkpt lat="46.89754" lon="5.04663">
        <ele>244.31</ele>
        <time>2015-07-14T09:10:41.000Z</time>
      </trkpt>
      <trkpt lat="46.89751" lon="5.04646">
        <ele>243.83</ele>
        <time>2015-07-14T09:10:43.000Z</time>
      </trkpt>
      <trkpt lat="46.89747" lon="5.04629">
        <ele>243.83</ele>
        <time>2015-07-14T09:10:45.000Z</time>
      </trkpt>
      <trkpt lat="46.89743" lon="5.04613">
        <ele>244.31</ele>
        <time>2015-07-14T09:10:47.000Z</time>
      </trkpt>
      <trkpt lat="46.8974" lon="5.04596">
        <ele>243.83</ele>
        <time>2015-07-14T09:10:49.000Z</time>
      </trkpt>
      <trkpt lat="46.89736" lon="5.04579">
        <ele>243.83</ele>
        <time>2015-07-14T09:10:51.000Z</time>
      </trkpt>
      <trkpt lat="46.89732" lon="5.04563">
        <ele>243.35</ele>
        <time>2015-07-14T09:10:53.000Z</time>
      </trkpt>
      <trkpt lat="46.89729" lon="5.04546">
        <ele>243.83</ele>
        <time>2015-07-14T09:10:55.000Z</time>
      </trkpt>
      <trkpt lat="46.89725" lon="5.0453">
        <ele>243.35</ele>
        <time>2015-07-14T09:10:57.000Z</time>
      </trkpt>
      <trkpt lat="46.89722" lon="5.04514">
        <ele>243.83</ele>
        <time>2015-07-14T09:10:59.000Z</time>
      </trkpt>
      <trkpt lat="46.89719" lon="5.04498">
        <ele>243.83</ele>
        <time>2015-07-14T09:11:01.000Z</time>
      </trkpt>
      <trkpt lat="46.89715" lon="5.04482">
        <ele>243.83</ele>
        <time>2015-07-14T09:11:03.000Z</time>
      </trkpt>
      <trkpt lat="46.89711" lon="5.04465">
        <ele>243.83</ele>
        <time>2015-07-14T09:11:05.000Z</time>
      </trkpt>
      <trkpt lat="46.89708" lon="5.04449">
        <ele>243.83</ele>
        <time>2015-07-14T09:11:07.000Z</time>
      </trkpt>
      <trkpt lat="46.89704" lon="5.04431">
        <ele>243.83</ele>
        <time>2015-07-14T09:11:09.000Z</time>
      </trkpt>
      <trkpt lat="46.89701" lon="5.04416">
        <ele>243.83</ele>
        <time>2015-07-14T09:11:11.000Z</time>
      </trkpt>
      <trkpt lat="46.89698" lon="5.04399">
        <ele>243.83</ele>
        <time>2015-07-14T09:11:13.000Z</time>
      </trkpt>
      <trkpt lat="46.89694" lon="5.04382">
        <ele>244.31</ele>
        <time>2015-07-14T09:11:15.000Z</time>
      </trkpt>
      <trkpt lat="46.8969" lon="5.04366">
        <ele>243.83</ele>
        <time>2015-07-14T09:11:17.000Z</time>
      </trkpt>
      <trkpt lat="46.89687" lon="5.04348">
        <ele>244.31</ele>
        <time>2015-07-14T09:11:19.000Z</time>
      </trkpt>
      <trkpt lat="46.89683" lon="5.04331">
        <ele>243.83</ele>
        <time>2015-07-14T09:11:21.000Z</time>
      </trkpt>
      <trkpt lat="46.89679" lon="5.04314">
        <ele>244.31</ele>
        <time>2015-07-14T09:11:23.000Z</time>
      </trkpt>
      <trkpt lat="46.89676" lon="5.04296">
        <ele>243.83</ele>
        <time>2015-07-14T09:11:25.000Z</time>
      </trkpt>
      <trkpt lat="46.89672" lon="5.04278">
        <ele>243.83</ele>
        <time>2015-07-14T09:11:27.000Z</time>
      </trkpt>
      <trkpt lat="46.89668" lon="5.04261">
        <ele>243.35</ele>
        <time>2015-07-14T09:11:29.000Z</time>
      </trkpt>
      <trkpt lat="46.89664" lon="5.04244">
        <ele>244.31</ele>
        <time>2015-07-14T09:11:31.000Z</time>
      </trkpt>
      <trkpt lat="46.89661" lon="5.04227">
        <ele>244.31</ele>
        <time>2015-07-14T09:11:33.000Z</time>
      </trkpt>
      <trkpt lat="46.89657" lon="5.04211">
        <ele>244.31</ele>
        <time>2015-07-14T09:11:35.000Z</time>
      </trkpt>
      <trkpt lat="46.89654" lon="5.04194">
        <ele>244.31</ele>
        <time>2015-07-14T09:11:37.000Z</time>
      </trkpt>
      <trkpt lat="46.8965" lon="5.04178">
        <ele>244.31</ele>
        <time>2015-07-14T09:11:39.000Z</time>
      </trkpt>
      <trkpt lat="46.89647" lon="5.04161">
        <ele>244.31</ele>
        <time>2015-07-14T09:11:41.000Z</time>
      </trkpt>
      <trkpt lat="46.89643" lon="5.04144">
        <ele>244.31</ele>
        <time>2015-07-14T09:11:43.000Z</time>
      </trkpt>
      <trkpt lat="46.8964" lon="5.04127">
        <ele>244.31</ele>
        <time>2015-07-14T09:11:45.000Z</time>
      </trkpt>
      <trkpt lat="46.89637" lon="5.04111">
        <ele>244.31</ele>
        <time>2015-07-14T09:11:47.000Z</time>
      </trkpt>
      <trkpt lat="46.89634" lon="5.04094">
        <ele>244.79</ele>
        <time>2015-07-14T09:11:49.000Z</time>
      </trkpt>
      <trkpt lat="46.8963" lon="5.04078">
        <ele>244.31</ele>
        <time>2015-07-14T09:11:51.000Z</time>
      </trkpt>
      <trkpt lat="46.89627" lon="5.04062">
        <ele>244.31</ele>
        <time>2015-07-14T09:11:53.000Z</time>
      </trkpt>
      <trkpt lat="46.89624" lon="5.04045">
        <ele>244.31</ele>
        <time>2015-07-14T09:11:55.000Z</time>
      </trkpt>
      <trkpt lat="46.89621" lon="5.04028">
        <ele>244.79</ele>
        <time>2015-07-14T09:11:57.000Z</time>
      </trkpt>
      <trkpt lat="46.89618" lon="5.04012">
        <ele>244.79</ele>
        <time>2015-07-14T09:11:59.000Z</time>
      </trkpt>
      <trkpt lat="46.89614" lon="5.03996">
        <ele>244.31</ele>
        <time>2015-07-14T09:12:01.000Z</time>
      </trkpt>
      <trkpt lat="46.89611" lon="5.03979">
        <ele>244.31</ele>
        <time>2015-07-14T09:12:03.000Z</time>
      </trkpt>
      <trkpt lat="46.89608" lon="5.03962">
        <ele>244.31</ele>
        <time>2015-07-14T09:12:05.000Z</time>
      </trkpt>
      <trkpt lat="46.89605" lon="5.03945">
        <ele>244.31</ele>
        <time>2015-07-14T09:12:07.000Z</time>
      </trkpt>
      <trkpt lat="46.89602" lon="5.03928">
        <ele>244.31</ele>
        <time>2015-07-14T09:12:09.000Z</time>
      </trkpt>
      <trkpt lat="46.89598" lon="5.03911">
        <ele>244.79</ele>
        <time>2015-07-14T09:12:11.000Z</time>
      </trkpt>
      <trkpt lat="46.89596" lon="5.03894">
        <ele>244.79</ele>
        <time>2015-07-14T09:12:13.000Z</time>
      </trkpt>
      <trkpt lat="46.89594" lon="5.03877">
        <ele>245.27</ele>
        <time>2015-07-14T09:12:15.000Z</time>
      </trkpt>
      <trkpt lat="46.89591" lon="5.03861">
        <ele>245.75</ele>
        <time>2015-07-14T09:12:17.000Z</time>
      </trkpt>
      <trkpt lat="46.89588" lon="5.03844">
        <ele>245.75</ele>
        <time>2015-07-14T09:12:19.000Z</time>
      </trkpt>
      <trkpt lat="46.89585" lon="5.03827">
        <ele>245.75</ele>
        <time>2015-07-14T09:12:21.000Z</time>
      </trkpt>
      <trkpt lat="46.89582" lon="5.03811">
        <ele>245.75</ele>
        <time>2015-07-14T09:12:23.000Z</time>
      </trkpt>
      <trkpt lat="46.8958" lon="5.03794">
        <ele>245.75</ele>
        <time>2015-07-14T09:12:25.000Z</time>
      </trkpt>
      <trkpt lat="46.89577" lon="5.03777">
        <ele>245.75</ele>
        <time>2015-07-14T09:12:27.000Z</time>
      </trkpt>
      <trkpt lat="46.89574" lon="5.03759">
        <ele>245.75</ele>
        <time>2015-07-14T09:12:29.000Z</time>
      </trkpt>
      <trkpt lat="46.89571" lon="5.03742">
        <ele>245.75</ele>
        <time>2015-07-14T09:12:31.000Z</time>
      </trkpt>
      <trkpt lat="46.89569" lon="5.03725">
        <ele>245.75</ele>
        <time>2015-07-14T09:12:33.000Z</time>
      </trkpt>
      <trkpt lat="46.89567" lon="5.03709">
        <ele>245.75</ele>
        <time>2015-07-14T09:12:35.000Z</time>
      </trkpt>
      <trkpt lat="46.89564" lon="5.03691">
        <ele>245.75</ele>
        <time>2015-07-14T09:12:37.000Z</time>
      </trkpt>
      <trkpt lat="46.89562" lon="5.03674">
        <ele>246.23</ele>
        <time>2015-07-14T09:12:39.000Z</time>
      </trkpt>
      <trkpt lat="46.89559" lon="5.03656">
        <ele>246.23</ele>
        <time>2015-07-14T09:12:41.000Z</time>
      </trkpt>
      <trkpt lat="46.89557" lon="5.03639">
        <ele>245.75</ele>
        <time>2015-07-14T09:12:43.000Z</time>
      </trkpt>
      <trkpt lat="46.89554" lon="5.03622">
        <ele>245.75</ele>
        <time>2015-07-14T09:12:45.000Z</time>
      </trkpt>
      <trkpt lat="46.89552" lon="5.03605">
        <ele>245.75</ele>
        <time>2015-07-14T09:12:47.000Z</time>
      </trkpt>
      <trkpt lat="46.8955" lon="5.03587">
        <ele>245.27</ele>
        <time>2015-07-14T09:12:49.000Z</time>
      </trkpt>
      <trkpt lat="46.89547" lon="5.0357">
        <ele>245.27</ele>
        <time>2015-07-14T09:12:51.000Z</time>
      </trkpt>
      <trkpt lat="46.89545" lon="5.03552">
        <ele>245.27</ele>
        <time>2015-07-14T09:12:53.000Z</time>
      </trkpt>
      <trkpt lat="46.89542" lon="5.03535">
        <ele>244.79</ele>
        <time>2015-07-14T09:12:55.000Z</time>
      </trkpt>
      <trkpt lat="46.8954" lon="5.03518">
        <ele>245.27</ele>
        <time>2015-07-14T09:12:57.000Z</time>
      </trkpt>
      <trkpt lat="46.89538" lon="5.03501">
        <ele>245.75</ele>
        <time>2015-07-14T09:12:59.000Z</time>
      </trkpt>
      <trkpt lat="46.89536" lon="5.03483">
        <ele>245.75</ele>
        <time>2015-07-14T09:13:01.000Z</time>
      </trkpt>
      <trkpt lat="46.89534" lon="5.03466">
        <ele>245.75</ele>
        <time>2015-07-14T09:13:03.000Z</time>
      </trkpt>
      <trkpt lat="46.89531" lon="5.03447">
        <ele>245.75</ele>
        <time>2015-07-14T09:13:05.000Z</time>
      </trkpt>
      <trkpt lat="46.89529" lon="5.0343">
        <ele>246.23</ele>
        <time>2015-07-14T09:13:07.000Z</time>
      </trkpt>
      <trkpt lat="46.89526" lon="5.03413">
        <ele>245.75</ele>
        <time>2015-07-14T09:13:09.000Z</time>
      </trkpt>
      <trkpt lat="46.89524" lon="5.03396">
        <ele>245.27</ele>
        <time>2015-07-14T09:13:11.000Z</time>
      </trkpt>
      <trkpt lat="46.89521" lon="5.03378">
        <ele>245.75</ele>
        <time>2015-07-14T09:13:13.000Z</time>
      </trkpt>
      <trkpt lat="46.89519" lon="5.03362">
        <ele>245.75</ele>
        <time>2015-07-14T09:13:15.000Z</time>
      </trkpt>
      <trkpt lat="46.89517" lon="5.03345">
        <ele>245.75</ele>
        <time>2015-07-14T09:13:17.000Z</time>
      </trkpt>
      <trkpt lat="46.89517" lon="5.03328">
        <ele>246.23</ele>
        <time>2015-07-14T09:13:19.000Z</time>
      </trkpt>
      <trkpt lat="46.89517" lon="5.0331">
        <ele>245.75</ele>
        <time>2015-07-14T09:13:21.000Z</time>
      </trkpt>
      <trkpt lat="46.89519" lon="5.03292">
        <ele>246.72</ele>
        <time>2015-07-14T09:13:23.000Z</time>
      </trkpt>
      <trkpt lat="46.89522" lon="5.03275">
        <ele>245.75</ele>
        <time>2015-07-14T09:13:25.000Z</time>
      </trkpt>
      <trkpt lat="46.89525" lon="5.03259">
        <ele>245.27</ele>
        <time>2015-07-14T09:13:27.000Z</time>
      </trkpt>
      <trkpt lat="46.89528" lon="5.03242">
        <ele>245.27</ele>
        <time>2015-07-14T09:13:29.000Z</time>
      </trkpt>
      <trkpt lat="46.8953" lon="5.03227">
        <ele>245.27</ele>
        <time>2015-07-14T09:13:31.000Z</time>
      </trkpt>
      <trkpt lat="46.89532" lon="5.03213">
        <ele>244.79</ele>
        <time>2015-07-14T09:13:33.000Z</time>
      </trkpt>
      <trkpt lat="46.89534" lon="5.03198">
        <ele>245.27</ele>
        <time>2015-07-14T09:13:35.000Z</time>
      </trkpt>
      <trkpt lat="46.89535" lon="5.03183">
        <ele>245.27</ele>
        <time>2015-07-14T09:13:37.000Z</time>
      </trkpt>
      <trkpt lat="46.89536" lon="5.03167">
        <ele>245.75</ele>
        <time>2015-07-14T09:13:39.000Z</time>
      </trkpt>
      <trkpt lat="46.89538" lon="5.03151">
        <ele>246.23</ele>
        <time>2015-07-14T09:13:41.000Z</time>
      </trkpt>
      <trkpt lat="46.8954" lon="5.03136">
        <ele>245.75</ele>
        <time>2015-07-14T09:13:43.000Z</time>
      </trkpt>
      <trkpt lat="46.89543" lon="5.0312">
        <ele>246.72</ele>
        <time>2015-07-14T09:13:45.000Z</time>
      </trkpt>
      <trkpt lat="46.89546" lon="5.03105">
        <ele>245.75</ele>
        <time>2015-07-14T09:13:47.000Z</time>
      </trkpt>
      <trkpt lat="46.8955" lon="5.03089">
        <ele>245.75</ele>
        <time>2015-07-14T09:13:49.000Z</time>
      </trkpt>
      <trkpt lat="46.89555" lon="5.03074">
        <ele>246.23</ele>
        <time>2015-07-14T09:13:51.000Z</time>
      </trkpt>
      <trkpt lat="46.89561" lon="5.03059">
        <ele>246.23</ele>
        <time>2015-07-14T09:13:53.000Z</time>
      </trkpt>
      <trkpt lat="46.89566" lon="5.03044">
        <ele>246.23</ele>
        <time>2015-07-14T09:13:55.000Z</time>
      </trkpt>
      <trkpt lat="46.89573" lon="5.0303">
        <ele>246.72</ele>
        <time>2015-07-14T09:13:57.000Z</time>
      </trkpt>
      <trkpt lat="46.89579" lon="5.03017">
        <ele>246.23</ele>
        <time>2015-07-14T09:13:59.000Z</time>
      </trkpt>
      <trkpt lat="46.89586" lon="5.03004">
        <ele>247.2</ele>
        <time>2015-07-14T09:14:01.000Z</time>
      </trkpt>
      <trkpt lat="46.89592" lon="5.02991">
        <ele>246.72</ele>
        <time>2015-07-14T09:14:03.000Z</time>
      </trkpt>
      <trkpt lat="46.89596" lon="5.02977">
        <ele>246.72</ele>
        <time>2015-07-14T09:14:05.000Z</time>
      </trkpt>
      <trkpt lat="46.89601" lon="5.02965">
        <ele>246.23</ele>
        <time>2015-07-14T09:14:07.000Z</time>
      </trkpt>
      <trkpt lat="46.89605" lon="5.02953">
        <ele>246.72</ele>
        <time>2015-07-14T09:14:09.000Z</time>
      </trkpt>
      <trkpt lat="46.89607" lon="5.02936">
        <ele>246.23</ele>
        <time>2015-07-14T09:14:12.000Z</time>
      </trkpt>
      <trkpt lat="46.896" lon="5.02921">
        <ele>245.27</ele>
        <time>2015-07-14T09:14:15.000Z</time>
      </trkpt>
      <trkpt lat="46.8959" lon="5.02909">
        <ele>244.79</ele>
        <time>2015-07-14T09:14:18.000Z</time>
      </trkpt>
      <trkpt lat="46.89583" lon="5.029">
        <ele>245.27</ele>
        <time>2015-07-14T09:14:20.000Z</time>
      </trkpt>
      <trkpt lat="46.89576" lon="5.02889">
        <ele>245.27</ele>
        <time>2015-07-14T09:14:22.000Z</time>
      </trkpt>
      <trkpt lat="46.89569" lon="5.02878">
        <ele>245.27</ele>
        <time>2015-07-14T09:14:24.000Z</time>
      </trkpt>
      <trkpt lat="46.89563" lon="5.02865">
        <ele>245.27</ele>
        <time>2015-07-14T09:14:26.000Z</time>
      </trkpt>
      <trkpt lat="46.89556" lon="5.02853">
        <ele>246.23</ele>
        <time>2015-07-14T09:14:28.000Z</time>
      </trkpt>
      <trkpt lat="46.89549" lon="5.0284">
        <ele>245.75</ele>
        <time>2015-07-14T09:14:30.000Z</time>
      </trkpt>
      <trkpt lat="46.89543" lon="5.02827">
        <ele>245.27</ele>
        <time>2015-07-14T09:14:32.000Z</time>
      </trkpt>
      <trkpt lat="46.89536" lon="5.02815">
        <ele>245.27</ele>
        <time>2015-07-14T09:14:34.000Z</time>
      </trkpt>
      <trkpt lat="46.89529" lon="5.02804">
        <ele>245.27</ele>
        <time>2015-07-14T09:14:36.000Z</time>
      </trkpt>
      <trkpt lat="46.89523" lon="5.02795">
        <ele>245.75</ele>
        <time>2015-07-14T09:14:38.000Z</time>
      </trkpt>
      <trkpt lat="46.89515" lon="5.02786">
        <ele>245.27</ele>
        <time>2015-07-14T09:14:40.000Z</time>
      </trkpt>
      <trkpt lat="46.89505" lon="5.02776">
        <ele>245.27</ele>
        <time>2015-07-14T09:14:43.000Z</time>
      </trkpt>
      <trkpt lat="46.89495" lon="5.02767">
        <ele>246.23</ele>
        <time>2015-07-14T09:14:46.000Z</time>
      </trkpt>
      <trkpt lat="46.89486" lon="5.02757">
        <ele>246.23</ele>
        <time>2015-07-14T09:14:49.000Z</time>
      </trkpt>
      <trkpt lat="46.89474" lon="5.02747">
        <ele>247.2</ele>
        <time>2015-07-14T09:14:52.000Z</time>
      </trkpt>
      <trkpt lat="46.89465" lon="5.02735">
        <ele>247.68</ele>
        <time>2015-07-14T09:14:55.000Z</time>
      </trkpt>
      <trkpt lat="46.89457" lon="5.02719">
        <ele>247.2</ele>
        <time>2015-07-14T09:14:58.000Z</time>
      </trkpt>
      <trkpt lat="46.89454" lon="5.02702">
        <ele>247.68</ele>
        <time>2015-07-14T09:15:01.000Z</time>
      </trkpt>
      <trkpt lat="46.89454" lon="5.02684">
        <ele>248.16</ele>
        <time>2015-07-14T09:15:04.000Z</time>
      </trkpt>
      <trkpt lat="46.89454" lon="5.02666">
        <ele>249.12</ele>
        <time>2015-07-14T09:15:07.000Z</time>
      </trkpt>
      <trkpt lat="46.89455" lon="5.02647">
        <ele>249.12</ele>
        <time>2015-07-14T09:15:10.000Z</time>
      </trkpt>
      <trkpt lat="46.89455" lon="5.02628">
        <ele>250.08</ele>
        <time>2015-07-14T09:15:13.000Z</time>
      </trkpt>
      <trkpt lat="46.89456" lon="5.02614">
        <ele>250.08</ele>
        <time>2015-07-14T09:15:15.000Z</time>
      </trkpt>
      <trkpt lat="46.89457" lon="5.02601">
        <ele>250.08</ele>
        <time>2015-07-14T09:15:17.000Z</time>
      </trkpt>
      <trkpt lat="46.89457" lon="5.02587">
        <ele>250.08</ele>
        <time>2015-07-14T09:15:19.000Z</time>
      </trkpt>
      <trkpt lat="46.89457" lon="5.02573">
        <ele>250.08</ele>
        <time>2015-07-14T09:15:21.000Z</time>
      </trkpt>
      <trkpt lat="46.89458" lon="5.02554">
        <ele>251.52</ele>
        <time>2015-07-14T09:15:24.000Z</time>
      </trkpt>
      <trkpt lat="46.89458" lon="5.02534">
        <ele>249.6</ele>
        <time>2015-07-14T09:15:27.000Z</time>
      </trkpt>
      <trkpt lat="46.89459" lon="5.02521">
        <ele>249.12</ele>
        <time>2015-07-14T09:15:29.000Z</time>
      </trkpt>
      <trkpt lat="46.8946" lon="5.02506">
        <ele>248.16</ele>
        <time>2015-07-14T09:15:31.000Z</time>
      </trkpt>
      <trkpt lat="46.8946" lon="5.0249">
        <ele>247.68</ele>
        <time>2015-07-14T09:15:33.000Z</time>
      </trkpt>
      <trkpt lat="46.8946" lon="5.02474">
        <ele>247.2</ele>
        <time>2015-07-14T09:15:35.000Z</time>
      </trkpt>
      <trkpt lat="46.8946" lon="5.0246">
        <ele>246.72</ele>
        <time>2015-07-14T09:15:37.000Z</time>
      </trkpt>
      <trkpt lat="46.8946" lon="5.02445">
        <ele>246.23</ele>
        <time>2015-07-14T09:15:39.000Z</time>
      </trkpt>
      <trkpt lat="46.89461" lon="5.02429">
        <ele>246.72</ele>
        <time>2015-07-14T09:15:41.000Z</time>
      </trkpt>
      <trkpt lat="46.89462" lon="5.02415">
        <ele>246.23</ele>
        <time>2015-07-14T09:15:43.000Z</time>
      </trkpt>
      <trkpt lat="46.89466" lon="5.02403">
        <ele>245.75</ele>
        <time>2015-07-14T09:15:46.000Z</time>
      </trkpt>
      <trkpt lat="46.89476" lon="5.02403">
        <ele>245.27</ele>
        <time>2015-07-14T09:15:51.000Z</time>
      </trkpt>
      <trkpt lat="46.89484" lon="5.02406">
        <ele>244.31</ele>
        <time>2015-07-14T09:17:15.000Z</time>
      </trkpt>
      <trkpt lat="46.8949" lon="5.0242">
        <ele>245.27</ele>
        <time>2015-07-14T09:17:21.000Z</time>
      </trkpt>
      <trkpt lat="46.89487" lon="5.02435">
        <ele>245.75</ele>
        <time>2015-07-14T09:17:27.000Z</time>
      </trkpt>
      <trkpt lat="46.89484" lon="5.02449">
        <ele>246.23</ele>
        <time>2015-07-14T09:17:32.000Z</time>
      </trkpt>
      <trkpt lat="46.8948" lon="5.02459">
        <ele>245.75</ele>
        <time>2015-07-14T09:17:39.000Z</time>
      </trkpt>
      <trkpt lat="46.89492" lon="5.02454">
        <ele>246.23</ele>
        <time>2015-07-14T09:20:43.000Z</time>
      </trkpt>
      <trkpt lat="46.89497" lon="5.02439">
        <ele>245.27</ele>
        <time>2015-07-14T09:20:47.000Z</time>
      </trkpt>
      <trkpt lat="46.89502" lon="5.02424">
        <ele>245.75</ele>
        <time>2015-07-14T09:20:51.000Z</time>
      </trkpt>
      <trkpt lat="46.89507" lon="5.02413">
        <ele>244.79</ele>
        <time>2015-07-14T09:20:56.000Z</time>
      </trkpt>
      <trkpt lat="46.89516" lon="5.02413">
        <ele>245.27</ele>
        <time>2015-07-14T09:21:00.000Z</time>
      </trkpt>
      <trkpt lat="46.89525" lon="5.02416">
        <ele>246.23</ele>
        <time>2015-07-14T09:21:03.000Z</time>
      </trkpt>
      <trkpt lat="46.89534" lon="5.02419">
        <ele>246.23</ele>
        <time>2015-07-14T09:21:06.000Z</time>
      </trkpt>
      <trkpt lat="46.89545" lon="5.02424">
        <ele>246.23</ele>
        <time>2015-07-14T09:21:10.000Z</time>
      </trkpt>
      <trkpt lat="46.89553" lon="5.02431">
        <ele>247.2</ele>
        <time>2015-07-14T09:21:14.000Z</time>
      </trkpt>
      <trkpt lat="46.89562" lon="5.02437">
        <ele>246.72</ele>
        <time>2015-07-14T09:21:18.000Z</time>
      </trkpt>
      <trkpt lat="46.89573" lon="5.02446">
        <ele>248.16</ele>
        <time>2015-07-14T09:21:22.000Z</time>
      </trkpt>
      <trkpt lat="46.89581" lon="5.02454">
        <ele>248.16</ele>
        <time>2015-07-14T09:21:25.000Z</time>
      </trkpt>
      <trkpt lat="46.89591" lon="5.02462">
        <ele>248.16</ele>
        <time>2015-07-14T09:21:28.000Z</time>
      </trkpt>
      <trkpt lat="46.89602" lon="5.02468">
        <ele>247.2</ele>
        <time>2015-07-14T09:21:31.000Z</time>
      </trkpt>
      <trkpt lat="46.89611" lon="5.02472">
        <ele>246.72</ele>
        <time>2015-07-14T09:21:33.000Z</time>
      </trkpt>
      <trkpt lat="46.89626" lon="5.02471">
        <ele>247.2</ele>
        <time>2015-07-14T09:21:36.000Z</time>
      </trkpt>
      <trkpt lat="46.89635" lon="5.02466">
        <ele>246.72</ele>
        <time>2015-07-14T09:21:38.000Z</time>
      </trkpt>
      <trkpt lat="46.89646" lon="5.02455">
        <ele>246.72</ele>
        <time>2015-07-14T09:21:41.000Z</time>
      </trkpt>
      <trkpt lat="46.89655" lon="5.02452">
        <ele>248.16</ele>
        <time>2015-07-14T09:21:44.000Z</time>
      </trkpt>
      <trkpt lat="46.89667" lon="5.02458">
        <ele>246.72</ele>
        <time>2015-07-14T09:21:48.000Z</time>
      </trkpt>
      <trkpt lat="46.89679" lon="5.02466">
        <ele>246.72</ele>
        <time>2015-07-14T09:21:51.000Z</time>
      </trkpt>
      <trkpt lat="46.89691" lon="5.02474">
        <ele>246.72</ele>
        <time>2015-07-14T09:21:54.000Z</time>
      </trkpt>
      <trkpt lat="46.89703" lon="5.02482">
        <ele>246.72</ele>
        <time>2015-07-14T09:21:57.000Z</time>
      </trkpt>
      <trkpt lat="46.89716" lon="5.02489">
        <ele>247.68</ele>
        <time>2015-07-14T09:22:00.000Z</time>
      </trkpt>
      <trkpt lat="46.89728" lon="5.02496">
        <ele>247.2</ele>
        <time>2015-07-14T09:22:03.000Z</time>
      </trkpt>
      <trkpt lat="46.89739" lon="5.02503">
        <ele>246.72</ele>
        <time>2015-07-14T09:22:06.000Z</time>
      </trkpt>
      <trkpt lat="46.89748" lon="5.02509">
        <ele>246.72</ele>
        <time>2015-07-14T09:22:08.000Z</time>
      </trkpt>
      <trkpt lat="46.89762" lon="5.02515">
        <ele>246.72</ele>
        <time>2015-07-14T09:22:11.000Z</time>
      </trkpt>
      <trkpt lat="46.89775" lon="5.02513">
        <ele>246.23</ele>
        <time>2015-07-14T09:22:14.000Z</time>
      </trkpt>
      <trkpt lat="46.89783" lon="5.02507">
        <ele>246.72</ele>
        <time>2015-07-14T09:22:16.000Z</time>
      </trkpt>
      <trkpt lat="46.89791" lon="5.02501">
        <ele>246.72</ele>
        <time>2015-07-14T09:22:18.000Z</time>
      </trkpt>
      <trkpt lat="46.898" lon="5.02495">
        <ele>246.72</ele>
        <time>2015-07-14T09:22:20.000Z</time>
      </trkpt>
      <trkpt lat="46.89809" lon="5.02489">
        <ele>246.72</ele>
        <time>2015-07-14T09:22:22.000Z</time>
      </trkpt>
      <trkpt lat="46.89818" lon="5.02483">
        <ele>246.23</ele>
        <time>2015-07-14T09:22:24.000Z</time>
      </trkpt>
      <trkpt lat="46.89827" lon="5.02476">
        <ele>246.72</ele>
        <time>2015-07-14T09:22:26.000Z</time>
      </trkpt>
      <trkpt lat="46.89836" lon="5.0247">
        <ele>247.2</ele>
        <time>2015-07-14T09:22:28.000Z</time>
      </trkpt>
      <trkpt lat="46.89846" lon="5.02463">
        <ele>247.68</ele>
        <time>2015-07-14T09:22:30.000Z</time>
      </trkpt>
      <trkpt lat="46.89854" lon="5.02456">
        <ele>247.68</ele>
        <time>2015-07-14T09:22:32.000Z</time>
      </trkpt>
      <trkpt lat="46.89864" lon="5.02448">
        <ele>247.68</ele>
        <time>2015-07-14T09:22:34.000Z</time>
      </trkpt>
      <trkpt lat="46.89871" lon="5.02438">
        <ele>247.68</ele>
        <time>2015-07-14T09:22:36.000Z</time>
      </trkpt>
      <trkpt lat="46.89878" lon="5.02428">
        <ele>247.2</ele>
        <time>2015-07-14T09:22:38.000Z</time>
      </trkpt>
      <trkpt lat="46.89885" lon="5.02417">
        <ele>247.2</ele>
        <time>2015-07-14T09:22:40.000Z</time>
      </trkpt>
      <trkpt lat="46.89893" lon="5.02406">
        <ele>246.23</ele>
        <time>2015-07-14T09:22:42.000Z</time>
      </trkpt>
      <trkpt lat="46.899" lon="5.02396">
        <ele>246.23</ele>
        <time>2015-07-14T09:22:44.000Z</time>
      </trkpt>
      <trkpt lat="46.89907" lon="5.02386">
        <ele>246.23</ele>
        <time>2015-07-14T09:22:46.000Z</time>
      </trkpt>
      <trkpt lat="46.89914" lon="5.02376">
        <ele>246.23</ele>
        <time>2015-07-14T09:22:48.000Z</time>
      </trkpt>
      <trkpt lat="46.89922" lon="5.02365">
        <ele>246.72</ele>
        <time>2015-07-14T09:22:50.000Z</time>
      </trkpt>
      <trkpt lat="46.89929" lon="5.02355">
        <ele>245.75</ele>
        <time>2015-07-14T09:22:52.000Z</time>
      </trkpt>
      <trkpt lat="46.89936" lon="5.02344">
        <ele>246.23</ele>
        <time>2015-07-14T09:22:54.000Z</time>
      </trkpt>
      <trkpt lat="46.89943" lon="5.02335">
        <ele>246.72</ele>
        <time>2015-07-14T09:22:56.000Z</time>
      </trkpt>
      <trkpt lat="46.89951" lon="5.02326">
        <ele>247.2</ele>
        <time>2015-07-14T09:22:58.000Z</time>
      </trkpt>
      <trkpt lat="46.89959" lon="5.02316">
        <ele>246.72</ele>
        <time>2015-07-14T09:23:00.000Z</time>
      </trkpt>
      <trkpt lat="46.89966" lon="5.02307">
        <ele>246.72</ele>
        <time>2015-07-14T09:23:02.000Z</time>
      </trkpt>
      <trkpt lat="46.89973" lon="5.02297">
        <ele>247.2</ele>
        <time>2015-07-14T09:23:04.000Z</time>
      </trkpt>
      <trkpt lat="46.8998" lon="5.02287">
        <ele>246.72</ele>
        <time>2015-07-14T09:23:06.000Z</time>
      </trkpt>
      <trkpt lat="46.89987" lon="5.02278">
        <ele>246.23</ele>
        <time>2015-07-14T09:23:08.000Z</time>
      </trkpt>
      <trkpt lat="46.89994" lon="5.02268">
        <ele>246.72</ele>
        <time>2015-07-14T09:23:10.000Z</time>
      </trkpt>
      <trkpt lat="46.90001" lon="5.02259">
        <ele>246.72</ele>
        <time>2015-07-14T09:23:12.000Z</time>
      </trkpt>
      <trkpt lat="46.9001" lon="5.0225">
        <ele>246.23</ele>
        <time>2015-07-14T09:23:14.000Z</time>
      </trkpt>
      <trkpt lat="46.90017" lon="5.0224">
        <ele>246.72</ele>
        <time>2015-07-14T09:23:16.000Z</time>
      </trkpt>
      <trkpt lat="46.90025" lon="5.0223">
        <ele>246.23</ele>
        <time>2015-07-14T09:23:18.000Z</time>
      </trkpt>
      <trkpt lat="46.90031" lon="5.0222">
        <ele>247.2</ele>
        <time>2015-07-14T09:23:20.000Z</time>
      </trkpt>
      <trkpt lat="46.90038" lon="5.02211">
        <ele>246.72</ele>
        <time>2015-07-14T09:23:22.000Z</time>
      </trkpt>
      <trkpt lat="46.90046" lon="5.02202">
        <ele>247.2</ele>
        <time>2015-07-14T09:23:24.000Z</time>
      </trkpt>
      <trkpt lat="46.90054" lon="5.02193">
        <ele>247.2</ele>
        <time>2015-07-14T09:23:26.000Z</time>
      </trkpt>
      <trkpt lat="46.90062" lon="5.02185">
        <ele>247.2</ele>
        <time>2015-07-14T09:23:28.000Z</time>
      </trkpt>
      <trkpt lat="46.9007" lon="5.02178">
        <ele>248.64</ele>
        <time>2015-07-14T09:23:30.000Z</time>
      </trkpt>
      <trkpt lat="46.90079" lon="5.02174">
        <ele>246.72</ele>
        <time>2015-07-14T09:23:32.000Z</time>
      </trkpt>
      <trkpt lat="46.90088" lon="5.02171">
        <ele>246.72</ele>
        <time>2015-07-14T09:23:34.000Z</time>
      </trkpt>
      <trkpt lat="46.901" lon="5.02169">
        <ele>247.2</ele>
        <time>2015-07-14T09:23:37.000Z</time>
      </trkpt>
      <trkpt lat="46.90111" lon="5.0217">
        <ele>248.16</ele>
        <time>2015-07-14T09:23:40.000Z</time>
      </trkpt>
      <trkpt lat="46.90123" lon="5.02174">
        <ele>248.16</ele>
        <time>2015-07-14T09:23:43.000Z</time>
      </trkpt>
      <trkpt lat="46.90133" lon="5.02179">
        <ele>249.6</ele>
        <time>2015-07-14T09:23:46.000Z</time>
      </trkpt>
      <trkpt lat="46.90142" lon="5.02184">
        <ele>250.08</ele>
        <time>2015-07-14T09:23:49.000Z</time>
      </trkpt>
      <trkpt lat="46.90151" lon="5.0219">
        <ele>251.04</ele>
        <time>2015-07-14T09:23:52.000Z</time>
      </trkpt>
      <trkpt lat="46.9016" lon="5.02196">
        <ele>251.04</ele>
        <time>2015-07-14T09:23:55.000Z</time>
      </trkpt>
      <trkpt lat="46.90169" lon="5.02202">
        <ele>252</ele>
        <time>2015-07-14T09:23:58.000Z</time>
      </trkpt>
      <trkpt lat="46.90177" lon="5.02208">
        <ele>252</ele>
        <time>2015-07-14T09:24:01.000Z</time>
      </trkpt>
      <trkpt lat="46.90186" lon="5.02215">
        <ele>252.48</ele>
        <time>2015-07-14T09:24:04.000Z</time>
      </trkpt>
      <trkpt lat="46.90194" lon="5.02222">
        <ele>252.96</ele>
        <time>2015-07-14T09:24:07.000Z</time>
      </trkpt>
      <trkpt lat="46.90203" lon="5.02228">
        <ele>252.96</ele>
        <time>2015-07-14T09:24:10.000Z</time>
      </trkpt>
      <trkpt lat="46.90213" lon="5.02235">
        <ele>253.44</ele>
        <time>2015-07-14T09:24:13.000Z</time>
      </trkpt>
      <trkpt lat="46.90222" lon="5.02243">
        <ele>253.44</ele>
        <time>2015-07-14T09:24:16.000Z</time>
      </trkpt>
      <trkpt lat="46.90232" lon="5.0225">
        <ele>253.44</ele>
        <time>2015-07-14T09:24:19.000Z</time>
      </trkpt>
      <trkpt lat="46.90243" lon="5.02258">
        <ele>253.44</ele>
        <time>2015-07-14T09:24:22.000Z</time>
      </trkpt>
      <trkpt lat="46.90255" lon="5.02267">
        <ele>253.44</ele>
        <time>2015-07-14T09:24:25.000Z</time>
      </trkpt>
      <trkpt lat="46.90264" lon="5.02274">
        <ele>253.93</ele>
        <time>2015-07-14T09:24:27.000Z</time>
      </trkpt>
      <trkpt lat="46.90273" lon="5.0228">
        <ele>252.48</ele>
        <time>2015-07-14T09:24:29.000Z</time>
      </trkpt>
      <trkpt lat="46.90282" lon="5.02288">
        <ele>251.52</ele>
        <time>2015-07-14T09:24:31.000Z</time>
      </trkpt>
      <trkpt lat="46.90293" lon="5.02295">
        <ele>251.04</ele>
        <time>2015-07-14T09:24:33.000Z</time>
      </trkpt>
      <trkpt lat="46.90303" lon="5.02303">
        <ele>251.04</ele>
        <time>2015-07-14T09:24:35.000Z</time>
      </trkpt>
      <trkpt lat="46.90313" lon="5.02313">
        <ele>250.08</ele>
        <time>2015-07-14T09:24:37.000Z</time>
      </trkpt>
      <trkpt lat="46.90321" lon="5.02327">
        <ele>249.6</ele>
        <time>2015-07-14T09:24:39.000Z</time>
      </trkpt>
      <trkpt lat="46.90329" lon="5.02345">
        <ele>249.12</ele>
        <time>2015-07-14T09:24:41.000Z</time>
      </trkpt>
      <trkpt lat="46.90334" lon="5.02364">
        <ele>249.6</ele>
        <time>2015-07-14T09:24:43.000Z</time>
      </trkpt>
      <trkpt lat="46.90339" lon="5.02382">
        <ele>249.12</ele>
        <time>2015-07-14T09:24:45.000Z</time>
      </trkpt>
      <trkpt lat="46.90343" lon="5.024">
        <ele>248.64</ele>
        <time>2015-07-14T09:24:47.000Z</time>
      </trkpt>
      <trkpt lat="46.90347" lon="5.02418">
        <ele>248.16</ele>
        <time>2015-07-14T09:24:49.000Z</time>
      </trkpt>
      <trkpt lat="46.90351" lon="5.02433">
        <ele>247.2</ele>
        <time>2015-07-14T09:24:51.000Z</time>
      </trkpt>
      <trkpt lat="46.90356" lon="5.02451">
        <ele>247.2</ele>
        <time>2015-07-14T09:24:54.000Z</time>
      </trkpt>
      <trkpt lat="46.90362" lon="5.02462">
        <ele>247.68</ele>
        <time>2015-07-14T09:24:57.000Z</time>
      </trkpt>
      <trkpt lat="46.9037" lon="5.02462">
        <ele>247.2</ele>
        <time>2015-07-14T09:25:01.000Z</time>
      </trkpt>
      <trkpt lat="46.90374" lon="5.0245">
        <ele>246.72</ele>
        <time>2015-07-14T09:25:04.000Z</time>
      </trkpt>
      <trkpt lat="46.9037" lon="5.02435">
        <ele>246.23</ele>
        <time>2015-07-14T09:25:07.000Z</time>
      </trkpt>
      <trkpt lat="46.90362" lon="5.0242">
        <ele>245.27</ele>
        <time>2015-07-14T09:25:10.000Z</time>
      </trkpt>
      <trkpt lat="46.90357" lon="5.02409">
        <ele>245.27</ele>
        <time>2015-07-14T09:25:12.000Z</time>
      </trkpt>
      <trkpt lat="46.90352" lon="5.0239">
        <ele>244.79</ele>
        <time>2015-07-14T09:25:15.000Z</time>
      </trkpt>
      <trkpt lat="46.90348" lon="5.02371">
        <ele>245.27</ele>
        <time>2015-07-14T09:25:18.000Z</time>
      </trkpt>
      <trkpt lat="46.90346" lon="5.02358">
        <ele>245.27</ele>
        <time>2015-07-14T09:25:20.000Z</time>
      </trkpt>
      <trkpt lat="46.90344" lon="5.02344">
        <ele>244.79</ele>
        <time>2015-07-14T09:25:22.000Z</time>
      </trkpt>
      <trkpt lat="46.9034" lon="5.02329">
        <ele>245.75</ele>
        <time>2015-07-14T09:25:24.000Z</time>
      </trkpt>
      <trkpt lat="46.90334" lon="5.02316">
        <ele>245.75</ele>
        <time>2015-07-14T09:25:26.000Z</time>
      </trkpt>
      <trkpt lat="46.90328" lon="5.02303">
        <ele>245.27</ele>
        <time>2015-07-14T09:25:28.000Z</time>
      </trkpt>
      <trkpt lat="46.90326" lon="5.02288">
        <ele>245.27</ele>
        <time>2015-07-14T09:25:30.000Z</time>
      </trkpt>
      <trkpt lat="46.90326" lon="5.02272">
        <ele>244.79</ele>
        <time>2015-07-14T09:25:32.000Z</time>
      </trkpt>
      <trkpt lat="46.90329" lon="5.02256">
        <ele>244.79</ele>
        <time>2015-07-14T09:25:34.000Z</time>
      </trkpt>
      <trkpt lat="46.90334" lon="5.02242">
        <ele>244.79</ele>
        <time>2015-07-14T09:25:36.000Z</time>
      </trkpt>
      <trkpt lat="46.90339" lon="5.02229">
        <ele>244.79</ele>
        <time>2015-07-14T09:25:38.000Z</time>
      </trkpt>
      <trkpt lat="46.90343" lon="5.02216">
        <ele>244.79</ele>
        <time>2015-07-14T09:25:40.000Z</time>
      </trkpt>
      <trkpt lat="46.90348" lon="5.02204">
        <ele>245.27</ele>
        <time>2015-07-14T09:25:42.000Z</time>
      </trkpt>
      <trkpt lat="46.90352" lon="5.02191">
        <ele>245.27</ele>
        <time>2015-07-14T09:25:44.000Z</time>
      </trkpt>
      <trkpt lat="46.90357" lon="5.0218">
        <ele>245.75</ele>
        <time>2015-07-14T09:25:46.000Z</time>
      </trkpt>
      <trkpt lat="46.90362" lon="5.02168">
        <ele>245.27</ele>
        <time>2015-07-14T09:25:48.000Z</time>
      </trkpt>
      <trkpt lat="46.90367" lon="5.02155">
        <ele>245.27</ele>
        <time>2015-07-14T09:25:50.000Z</time>
      </trkpt>
      <trkpt lat="46.90372" lon="5.02142">
        <ele>245.75</ele>
        <time>2015-07-14T09:25:52.000Z</time>
      </trkpt>
      <trkpt lat="46.90376" lon="5.02129">
        <ele>245.27</ele>
        <time>2015-07-14T09:25:54.000Z</time>
      </trkpt>
      <trkpt lat="46.90382" lon="5.02116">
        <ele>244.79</ele>
        <time>2015-07-14T09:25:56.000Z</time>
      </trkpt>
      <trkpt lat="46.90387" lon="5.02102">
        <ele>244.31</ele>
        <time>2015-07-14T09:25:58.000Z</time>
      </trkpt>
      <trkpt lat="46.90392" lon="5.02088">
        <ele>244.79</ele>
        <time>2015-07-14T09:26:00.000Z</time>
      </trkpt>
      <trkpt lat="46.90397" lon="5.02074">
        <ele>244.79</ele>
        <time>2015-07-14T09:26:02.000Z</time>
      </trkpt>
      <trkpt lat="46.90401" lon="5.0206">
        <ele>244.31</ele>
        <time>2015-07-14T09:26:04.000Z</time>
      </trkpt>
      <trkpt lat="46.90406" lon="5.02046">
        <ele>244.31</ele>
        <time>2015-07-14T09:26:06.000Z</time>
      </trkpt>
      <trkpt lat="46.90411" lon="5.02032">
        <ele>244.79</ele>
        <time>2015-07-14T09:26:08.000Z</time>
      </trkpt>
      <trkpt lat="46.90417" lon="5.02018">
        <ele>245.27</ele>
        <time>2015-07-14T09:26:10.000Z</time>
      </trkpt>
      <trkpt lat="46.90422" lon="5.02004">
        <ele>245.27</ele>
        <time>2015-07-14T09:26:12.000Z</time>
      </trkpt>
      <trkpt lat="46.90427" lon="5.0199">
        <ele>245.27</ele>
        <time>2015-07-14T09:26:14.000Z</time>
      </trkpt>
      <trkpt lat="46.90433" lon="5.01975">
        <ele>244.79</ele>
        <time>2015-07-14T09:26:16.000Z</time>
      </trkpt>
      <trkpt lat="46.90438" lon="5.01961">
        <ele>245.27</ele>
        <time>2015-07-14T09:26:18.000Z</time>
      </trkpt>
      <trkpt lat="46.90443" lon="5.01945">
        <ele>244.79</ele>
        <time>2015-07-14T09:26:20.000Z</time>
      </trkpt>
      <trkpt lat="46.90449" lon="5.01931">
        <ele>245.27</ele>
        <time>2015-07-14T09:26:22.000Z</time>
      </trkpt>
      <trkpt lat="46.90454" lon="5.01916">
        <ele>244.79</ele>
        <time>2015-07-14T09:26:24.000Z</time>
      </trkpt>
      <trkpt lat="46.9046" lon="5.01901">
        <ele>244.79</ele>
        <time>2015-07-14T09:26:26.000Z</time>
      </trkpt>
      <trkpt lat="46.90466" lon="5.01886">
        <ele>244.79</ele>
        <time>2015-07-14T09:26:28.000Z</time>
      </trkpt>
      <trkpt lat="46.90472" lon="5.01871">
        <ele>244.79</ele>
        <time>2015-07-14T09:26:30.000Z</time>
      </trkpt>
      <trkpt lat="46.90477" lon="5.01856">
        <ele>244.79</ele>
        <time>2015-07-14T09:26:32.000Z</time>
      </trkpt>
      <trkpt lat="46.90483" lon="5.01842">
        <ele>244.79</ele>
        <time>2015-07-14T09:26:34.000Z</time>
      </trkpt>
      <trkpt lat="46.90489" lon="5.01828">
        <ele>244.79</ele>
        <time>2015-07-14T09:26:36.000Z</time>
      </trkpt>
      <trkpt lat="46.90496" lon="5.01814">
        <ele>244.79</ele>
        <time>2015-07-14T09:26:38.000Z</time>
      </trkpt>
      <trkpt lat="46.90502" lon="5.01799">
        <ele>244.79</ele>
        <time>2015-07-14T09:26:40.000Z</time>
      </trkpt>
      <trkpt lat="46.90508" lon="5.01785">
        <ele>244.79</ele>
        <time>2015-07-14T09:26:42.000Z</time>
      </trkpt>
      <trkpt lat="46.90514" lon="5.0177">
        <ele>244.79</ele>
        <time>2015-07-14T09:26:44.000Z</time>
      </trkpt>
      <trkpt lat="46.9052" lon="5.01755">
        <ele>244.79</ele>
        <time>2015-07-14T09:26:46.000Z</time>
      </trkpt>
      <trkpt lat="46.90526" lon="5.0174">
        <ele>244.79</ele>
        <time>2015-07-14T09:26:48.000Z</time>
      </trkpt>
      <trkpt lat="46.90533" lon="5.01725">
        <ele>244.79</ele>
        <time>2015-07-14T09:26:50.000Z</time>
      </trkpt>
      <trkpt lat="46.90539" lon="5.0171">
        <ele>244.79</ele>
        <time>2015-07-14T09:26:52.000Z</time>
      </trkpt>
      <trkpt lat="46.90546" lon="5.01695">
        <ele>245.27</ele>
        <time>2015-07-14T09:26:54.000Z</time>
      </trkpt>
      <trkpt lat="46.90553" lon="5.01681">
        <ele>244.79</ele>
        <time>2015-07-14T09:26:56.000Z</time>
      </trkpt>
      <trkpt lat="46.9056" lon="5.01666">
        <ele>244.79</ele>
        <time>2015-07-14T09:26:58.000Z</time>
      </trkpt>
      <trkpt lat="46.90566" lon="5.01651">
        <ele>244.79</ele>
        <time>2015-07-14T09:27:00.000Z</time>
      </trkpt>
      <trkpt lat="46.90573" lon="5.01637">
        <ele>244.79</ele>
        <time>2015-07-14T09:27:02.000Z</time>
      </trkpt>
      <trkpt lat="46.90581" lon="5.01622">
        <ele>244.79</ele>
        <time>2015-07-14T09:27:04.000Z</time>
      </trkpt>
      <trkpt lat="46.90588" lon="5.01607">
        <ele>244.79</ele>
        <time>2015-07-14T09:27:06.000Z</time>
      </trkpt>
      <trkpt lat="46.90596" lon="5.01593">
        <ele>244.31</ele>
        <time>2015-07-14T09:27:08.000Z</time>
      </trkpt>
      <trkpt lat="46.90603" lon="5.0158">
        <ele>244.79</ele>
        <time>2015-07-14T09:27:10.000Z</time>
      </trkpt>
      <trkpt lat="46.90611" lon="5.01565">
        <ele>244.31</ele>
        <time>2015-07-14T09:27:12.000Z</time>
      </trkpt>
      <trkpt lat="46.90618" lon="5.01551">
        <ele>244.31</ele>
        <time>2015-07-14T09:27:14.000Z</time>
      </trkpt>
      <trkpt lat="46.90626" lon="5.01536">
        <ele>244.31</ele>
        <time>2015-07-14T09:27:16.000Z</time>
      </trkpt>
      <trkpt lat="46.90633" lon="5.01521">
        <ele>244.31</ele>
        <time>2015-07-14T09:27:18.000Z</time>
      </trkpt>
      <trkpt lat="46.90641" lon="5.01507">
        <ele>244.79</ele>
        <time>2015-07-14T09:27:20.000Z</time>
      </trkpt>
      <trkpt lat="46.90648" lon="5.01494">
        <ele>244.79</ele>
        <time>2015-07-14T09:27:22.000Z</time>
      </trkpt>
      <trkpt lat="46.90656" lon="5.0148">
        <ele>244.79</ele>
        <time>2015-07-14T09:27:24.000Z</time>
      </trkpt>
      <trkpt lat="46.90663" lon="5.01466">
        <ele>244.79</ele>
        <time>2015-07-14T09:27:26.000Z</time>
      </trkpt>
      <trkpt lat="46.9067" lon="5.01451">
        <ele>244.79</ele>
        <time>2015-07-14T09:27:28.000Z</time>
      </trkpt>
      <trkpt lat="46.90678" lon="5.01436">
        <ele>244.31</ele>
        <time>2015-07-14T09:27:30.000Z</time>
      </trkpt>
      <trkpt lat="46.90685" lon="5.01422">
        <ele>245.27</ele>
        <time>2015-07-14T09:27:32.000Z</time>
      </trkpt>
      <trkpt lat="46.90693" lon="5.01409">
        <ele>244.79</ele>
        <time>2015-07-14T09:27:34.000Z</time>
      </trkpt>
      <trkpt lat="46.907" lon="5.01395">
        <ele>244.79</ele>
        <time>2015-07-14T09:27:36.000Z</time>
      </trkpt>
      <trkpt lat="46.90707" lon="5.0138">
        <ele>245.27</ele>
        <time>2015-07-14T09:27:38.000Z</time>
      </trkpt>
      <trkpt lat="46.90714" lon="5.01366">
        <ele>245.27</ele>
        <time>2015-07-14T09:27:40.000Z</time>
      </trkpt>
      <trkpt lat="46.90721" lon="5.01351">
        <ele>243.83</ele>
        <time>2015-07-14T09:27:42.000Z</time>
      </trkpt>
      <trkpt lat="46.90728" lon="5.01336">
        <ele>244.31</ele>
        <time>2015-07-14T09:27:44.000Z</time>
      </trkpt>
      <trkpt lat="46.90733" lon="5.0132">
        <ele>244.79</ele>
        <time>2015-07-14T09:27:46.000Z</time>
      </trkpt>
      <trkpt lat="46.90739" lon="5.01304">
        <ele>243.83</ele>
        <time>2015-07-14T09:27:48.000Z</time>
      </trkpt>
      <trkpt lat="46.90744" lon="5.01288">
        <ele>244.79</ele>
        <time>2015-07-14T09:27:50.000Z</time>
      </trkpt>
      <trkpt lat="46.90749" lon="5.01272">
        <ele>244.31</ele>
        <time>2015-07-14T09:27:52.000Z</time>
      </trkpt>
      <trkpt lat="46.90754" lon="5.01256">
        <ele>244.31</ele>
        <time>2015-07-14T09:27:54.000Z</time>
      </trkpt>
      <trkpt lat="46.90758" lon="5.01239">
        <ele>244.31</ele>
        <time>2015-07-14T09:27:56.000Z</time>
      </trkpt>
      <trkpt lat="46.90762" lon="5.01222">
        <ele>244.79</ele>
        <time>2015-07-14T09:27:58.000Z</time>
      </trkpt>
      <trkpt lat="46.90766" lon="5.01205">
        <ele>245.27</ele>
        <time>2015-07-14T09:28:00.000Z</time>
      </trkpt>
      <trkpt lat="46.9077" lon="5.01189">
        <ele>245.27</ele>
        <time>2015-07-14T09:28:02.000Z</time>
      </trkpt>
      <trkpt lat="46.90773" lon="5.01171">
        <ele>244.79</ele>
        <time>2015-07-14T09:28:04.000Z</time>
      </trkpt>
      <trkpt lat="46.90776" lon="5.01154">
        <ele>244.31</ele>
        <time>2015-07-14T09:28:06.000Z</time>
      </trkpt>
      <trkpt lat="46.90779" lon="5.01135">
        <ele>244.31</ele>
        <time>2015-07-14T09:28:08.000Z</time>
      </trkpt>
      <trkpt lat="46.90782" lon="5.01116">
        <ele>244.31</ele>
        <time>2015-07-14T09:28:10.000Z</time>
      </trkpt>
      <trkpt lat="46.90784" lon="5.01098">
        <ele>244.31</ele>
        <time>2015-07-14T09:28:12.000Z</time>
      </trkpt>
      <trkpt lat="46.90787" lon="5.0108">
        <ele>244.31</ele>
        <time>2015-07-14T09:28:14.000Z</time>
      </trkpt>
      <trkpt lat="46.90789" lon="5.01062">
        <ele>244.31</ele>
        <time>2015-07-14T09:28:16.000Z</time>
      </trkpt>
      <trkpt lat="46.90791" lon="5.01043">
        <ele>244.31</ele>
        <time>2015-07-14T09:28:18.000Z</time>
      </trkpt>
      <trkpt lat="46.90792" lon="5.01024">
        <ele>244.31</ele>
        <time>2015-07-14T09:28:20.000Z</time>
      </trkpt>
      <trkpt lat="46.90792" lon="5.01005">
        <ele>244.31</ele>
        <time>2015-07-14T09:28:22.000Z</time>
      </trkpt>
      <trkpt lat="46.90792" lon="5.00987">
        <ele>244.31</ele>
        <time>2015-07-14T09:28:24.000Z</time>
      </trkpt>
      <trkpt lat="46.90792" lon="5.00968">
        <ele>243.83</ele>
        <time>2015-07-14T09:28:26.000Z</time>
      </trkpt>
      <trkpt lat="46.90791" lon="5.0095">
        <ele>244.31</ele>
        <time>2015-07-14T09:28:28.000Z</time>
      </trkpt>
      <trkpt lat="46.90791" lon="5.00932">
        <ele>243.83</ele>
        <time>2015-07-14T09:28:30.000Z</time>
      </trkpt>
      <trkpt lat="46.90789" lon="5.00914">
        <ele>244.31</ele>
        <time>2015-07-14T09:28:32.000Z</time>
      </trkpt>
      <trkpt lat="46.90789" lon="5.00895">
        <ele>244.31</ele>
        <time>2015-07-14T09:28:34.000Z</time>
      </trkpt>
      <trkpt lat="46.90788" lon="5.00878">
        <ele>243.83</ele>
        <time>2015-07-14T09:28:36.000Z</time>
      </trkpt>
      <trkpt lat="46.90788" lon="5.00861">
        <ele>244.31</ele>
        <time>2015-07-14T09:28:38.000Z</time>
      </trkpt>
      <trkpt lat="46.90787" lon="5.00844">
        <ele>244.31</ele>
        <time>2015-07-14T09:28:40.000Z</time>
      </trkpt>
      <trkpt lat="46.90786" lon="5.00828">
        <ele>244.31</ele>
        <time>2015-07-14T09:28:42.000Z</time>
      </trkpt>
      <trkpt lat="46.90784" lon="5.00813">
        <ele>244.79</ele>
        <time>2015-07-14T09:28:44.000Z</time>
      </trkpt>
      <trkpt lat="46.90783" lon="5.00798">
        <ele>245.27</ele>
        <time>2015-07-14T09:28:46.000Z</time>
      </trkpt>
      <trkpt lat="46.90783" lon="5.00784">
        <ele>245.75</ele>
        <time>2015-07-14T09:28:48.000Z</time>
      </trkpt>
      <trkpt lat="46.90782" lon="5.00765">
        <ele>246.23</ele>
        <time>2015-07-14T09:28:51.000Z</time>
      </trkpt>
      <trkpt lat="46.9078" lon="5.00747">
        <ele>246.72</ele>
        <time>2015-07-14T09:28:54.000Z</time>
      </trkpt>
      <trkpt lat="46.90779" lon="5.0073">
        <ele>246.72</ele>
        <time>2015-07-14T09:28:57.000Z</time>
      </trkpt>
      <trkpt lat="46.90779" lon="5.00715">
        <ele>247.2</ele>
        <time>2015-07-14T09:29:00.000Z</time>
      </trkpt>
      <trkpt lat="46.90778" lon="5.00703">
        <ele>246.72</ele>
        <time>2015-07-14T09:30:17.000Z</time>
      </trkpt>
      <trkpt lat="46.90774" lon="5.00689">
        <ele>245.27</ele>
        <time>2015-07-14T09:30:21.000Z</time>
      </trkpt>
      <trkpt lat="46.90769" lon="5.00678">
        <ele>245.27</ele>
        <time>2015-07-14T09:30:24.000Z</time>
      </trkpt>
      <trkpt lat="46.90762" lon="5.00663">
        <ele>245.27</ele>
        <time>2015-07-14T09:30:27.000Z</time>
      </trkpt>
      <trkpt lat="46.90757" lon="5.00652">
        <ele>244.31</ele>
        <time>2015-07-14T09:30:29.000Z</time>
      </trkpt>
      <trkpt lat="46.90752" lon="5.00639">
        <ele>244.79</ele>
        <time>2015-07-14T09:30:31.000Z</time>
      </trkpt>
      <trkpt lat="46.90746" lon="5.00626">
        <ele>244.31</ele>
        <time>2015-07-14T09:30:33.000Z</time>
      </trkpt>
      <trkpt lat="46.90741" lon="5.00612">
        <ele>244.79</ele>
        <time>2015-07-14T09:30:35.000Z</time>
      </trkpt>
      <trkpt lat="46.90736" lon="5.00597">
        <ele>245.27</ele>
        <time>2015-07-14T09:30:37.000Z</time>
      </trkpt>
      <trkpt lat="46.90731" lon="5.00582">
        <ele>244.31</ele>
        <time>2015-07-14T09:30:39.000Z</time>
      </trkpt>
      <trkpt lat="46.90726" lon="5.00566">
        <ele>244.31</ele>
        <time>2015-07-14T09:30:41.000Z</time>
      </trkpt>
      <trkpt lat="46.90721" lon="5.00552">
        <ele>244.31</ele>
        <time>2015-07-14T09:30:43.000Z</time>
      </trkpt>
      <trkpt lat="46.90716" lon="5.00538">
        <ele>244.31</ele>
        <time>2015-07-14T09:30:45.000Z</time>
      </trkpt>
      <trkpt lat="46.90711" lon="5.00524">
        <ele>243.83</ele>
        <time>2015-07-14T09:30:47.000Z</time>
      </trkpt>
      <trkpt lat="46.90706" lon="5.0051">
        <ele>244.31</ele>
        <time>2015-07-14T09:30:49.000Z</time>
      </trkpt>
      <trkpt lat="46.907" lon="5.00496">
        <ele>244.31</ele>
        <time>2015-07-14T09:30:51.000Z</time>
      </trkpt>
      <trkpt lat="46.90695" lon="5.00482">
        <ele>244.31</ele>
        <time>2015-07-14T09:30:53.000Z</time>
      </trkpt>
      <trkpt lat="46.9069" lon="5.00468">
        <ele>244.31</ele>
        <time>2015-07-14T09:30:55.000Z</time>
      </trkpt>
      <trkpt lat="46.90683" lon="5.00456">
        <ele>244.31</ele>
        <time>2015-07-14T09:30:57.000Z</time>
      </trkpt>
      <trkpt lat="46.90676" lon="5.00446">
        <ele>244.31</ele>
        <time>2015-07-14T09:30:59.000Z</time>
      </trkpt>
      <trkpt lat="46.90667" lon="5.00436">
        <ele>244.31</ele>
        <time>2015-07-14T09:31:01.000Z</time>
      </trkpt>
      <trkpt lat="46.9066" lon="5.00425">
        <ele>244.31</ele>
        <time>2015-07-14T09:31:03.000Z</time>
      </trkpt>
      <trkpt lat="46.90654" lon="5.00413">
        <ele>244.31</ele>
        <time>2015-07-14T09:31:05.000Z</time>
      </trkpt>
      <trkpt lat="46.90648" lon="5.00402">
        <ele>243.83</ele>
        <time>2015-07-14T09:31:07.000Z</time>
      </trkpt>
      <trkpt lat="46.90641" lon="5.00392">
        <ele>243.83</ele>
        <time>2015-07-14T09:31:09.000Z</time>
      </trkpt>
      <trkpt lat="46.90635" lon="5.00381">
        <ele>243.83</ele>
        <time>2015-07-14T09:31:12.000Z</time>
      </trkpt>
      <trkpt lat="46.90631" lon="5.00369">
        <ele>243.83</ele>
        <time>2015-07-14T09:31:20.000Z</time>
      </trkpt>
      <trkpt lat="46.90622" lon="5.00361">
        <ele>243.83</ele>
        <time>2015-07-14T09:31:25.000Z</time>
      </trkpt>
      <trkpt lat="46.90615" lon="5.00346">
        <ele>244.31</ele>
        <time>2015-07-14T09:31:29.000Z</time>
      </trkpt>
      <trkpt lat="46.90609" lon="5.00333">
        <ele>244.31</ele>
        <time>2015-07-14T09:31:32.000Z</time>
      </trkpt>
      <trkpt lat="46.90601" lon="5.00319">
        <ele>244.31</ele>
        <time>2015-07-14T09:31:35.000Z</time>
      </trkpt>
      <trkpt lat="46.90592" lon="5.00305">
        <ele>244.31</ele>
        <time>2015-07-14T09:31:38.000Z</time>
      </trkpt>
      <trkpt lat="46.90586" lon="5.00295">
        <ele>244.31</ele>
        <time>2015-07-14T09:31:40.000Z</time>
      </trkpt>
      <trkpt lat="46.90579" lon="5.00284">
        <ele>244.31</ele>
        <time>2015-07-14T09:31:42.000Z</time>
      </trkpt>
      <trkpt lat="46.90573" lon="5.00274">
        <ele>244.31</ele>
        <time>2015-07-14T09:31:44.000Z</time>
      </trkpt>
      <trkpt lat="46.90567" lon="5.00264">
        <ele>244.31</ele>
        <time>2015-07-14T09:31:46.000Z</time>
      </trkpt>
      <trkpt lat="46.9056" lon="5.00253">
        <ele>244.31</ele>
        <time>2015-07-14T09:31:48.000Z</time>
      </trkpt>
      <trkpt lat="46.90554" lon="5.00243">
        <ele>244.31</ele>
        <time>2015-07-14T09:31:50.000Z</time>
      </trkpt>
      <trkpt lat="46.90547" lon="5.00232">
        <ele>244.31</ele>
        <time>2015-07-14T09:31:52.000Z</time>
      </trkpt>
      <trkpt lat="46.90541" lon="5.00221">
        <ele>244.31</ele>
        <time>2015-07-14T09:31:54.000Z</time>
      </trkpt>
      <trkpt lat="46.90535" lon="5.00209">
        <ele>244.31</ele>
        <time>2015-07-14T09:31:56.000Z</time>
      </trkpt>
      <trkpt lat="46.90528" lon="5.00198">
        <ele>244.79</ele>
        <time>2015-07-14T09:31:58.000Z</time>
      </trkpt>
      <trkpt lat="46.90522" lon="5.00187">
        <ele>245.27</ele>
        <time>2015-07-14T09:32:00.000Z</time>
      </trkpt>
      <trkpt lat="46.90514" lon="5.00173">
        <ele>244.31</ele>
        <time>2015-07-14T09:32:03.000Z</time>
      </trkpt>
      <trkpt lat="46.90507" lon="5.00161">
        <ele>244.31</ele>
        <time>2015-07-14T09:32:06.000Z</time>
      </trkpt>
      <trkpt lat="46.90499" lon="5.00144">
        <ele>244.79</ele>
        <time>2015-07-14T09:32:09.000Z</time>
      </trkpt>
      <trkpt lat="46.90492" lon="5.00134">
        <ele>244.31</ele>
        <time>2015-07-14T09:32:11.000Z</time>
      </trkpt>
      <trkpt lat="46.90485" lon="5.00123">
        <ele>244.31</ele>
        <time>2015-07-14T09:32:13.000Z</time>
      </trkpt>
      <trkpt lat="46.90479" lon="5.00111">
        <ele>244.31</ele>
        <time>2015-07-14T09:32:15.000Z</time>
      </trkpt>
      <trkpt lat="46.90472" lon="5.00099">
        <ele>244.79</ele>
        <time>2015-07-14T09:32:17.000Z</time>
      </trkpt>
      <trkpt lat="46.90465" lon="5.00088">
        <ele>244.31</ele>
        <time>2015-07-14T09:32:19.000Z</time>
      </trkpt>
      <trkpt lat="46.90458" lon="5.00077">
        <ele>243.83</ele>
        <time>2015-07-14T09:32:21.000Z</time>
      </trkpt>
      <trkpt lat="46.90451" lon="5.00065">
        <ele>243.83</ele>
        <time>2015-07-14T09:32:23.000Z</time>
      </trkpt>
      <trkpt lat="46.90445" lon="5.00053">
        <ele>243.35</ele>
        <time>2015-07-14T09:32:25.000Z</time>
      </trkpt>
      <trkpt lat="46.90438" lon="5.00041">
        <ele>243.83</ele>
        <time>2015-07-14T09:32:27.000Z</time>
      </trkpt>
      <trkpt lat="46.90431" lon="5.00029">
        <ele>243.83</ele>
        <time>2015-07-14T09:32:29.000Z</time>
      </trkpt>
      <trkpt lat="46.90424" lon="5.00017">
        <ele>243.35</ele>
        <time>2015-07-14T09:32:31.000Z</time>
      </trkpt>
      <trkpt lat="46.90417" lon="5.00005">
        <ele>244.31</ele>
        <time>2015-07-14T09:32:33.000Z</time>
      </trkpt>
      <trkpt lat="46.9041" lon="4.99993">
        <ele>244.31</ele>
        <time>2015-07-14T09:32:35.000Z</time>
      </trkpt>
      <trkpt lat="46.90403" lon="4.99981">
        <ele>244.31</ele>
        <time>2015-07-14T09:32:37.000Z</time>
      </trkpt>
      <trkpt lat="46.90397" lon="4.99969">
        <ele>244.31</ele>
        <time>2015-07-14T09:32:39.000Z</time>
      </trkpt>
      <trkpt lat="46.9039" lon="4.99957">
        <ele>244.31</ele>
        <time>2015-07-14T09:32:41.000Z</time>
      </trkpt>
      <trkpt lat="46.90383" lon="4.99946">
        <ele>244.79</ele>
        <time>2015-07-14T09:32:43.000Z</time>
      </trkpt>
      <trkpt lat="46.90376" lon="4.99934">
        <ele>244.31</ele>
        <time>2015-07-14T09:32:45.000Z</time>
      </trkpt>
      <trkpt lat="46.90369" lon="4.99922">
        <ele>244.31</ele>
        <time>2015-07-14T09:32:47.000Z</time>
      </trkpt>
      <trkpt lat="46.90362" lon="4.99909">
        <ele>245.75</ele>
        <time>2015-07-14T09:32:49.000Z</time>
      </trkpt>
      <trkpt lat="46.90356" lon="4.99897">
        <ele>243.83</ele>
        <time>2015-07-14T09:32:51.000Z</time>
      </trkpt>
      <trkpt lat="46.90351" lon="4.99883">
        <ele>243.83</ele>
        <time>2015-07-14T09:32:53.000Z</time>
      </trkpt>
      <trkpt lat="46.90351" lon="4.99869">
        <ele>243.83</ele>
        <time>2015-07-14T09:32:55.000Z</time>
      </trkpt>
      <trkpt lat="46.90355" lon="4.99852">
        <ele>244.79</ele>
        <time>2015-07-14T09:32:58.000Z</time>
      </trkpt>
      <trkpt lat="46.9036" lon="4.9984">
        <ele>245.27</ele>
        <time>2015-07-14T09:33:02.000Z</time>
      </trkpt>
      <trkpt lat="46.90352" lon="4.99828">
        <ele>245.75</ele>
        <time>2015-07-14T09:33:07.000Z</time>
      </trkpt>
      <trkpt lat="46.90343" lon="4.99815">
        <ele>245.75</ele>
        <time>2015-07-14T09:33:11.000Z</time>
      </trkpt>
      <trkpt lat="46.90336" lon="4.99804">
        <ele>245.27</ele>
        <time>2015-07-14T09:33:14.000Z</time>
      </trkpt>
      <trkpt lat="46.90335" lon="4.99789">
        <ele>245.27</ele>
        <time>2015-07-14T09:33:17.000Z</time>
      </trkpt>
      <trkpt lat="46.90345" lon="4.99777">
        <ele>244.79</ele>
        <time>2015-07-14T09:33:20.000Z</time>
      </trkpt>
      <trkpt lat="46.90352" lon="4.99767">
        <ele>245.75</ele>
        <time>2015-07-14T09:33:22.000Z</time>
      </trkpt>
      <trkpt lat="46.90359" lon="4.99758">
        <ele>244.31</ele>
        <time>2015-07-14T09:33:24.000Z</time>
      </trkpt>
      <trkpt lat="46.90367" lon="4.99748">
        <ele>244.31</ele>
        <time>2015-07-14T09:33:26.000Z</time>
      </trkpt>
      <trkpt lat="46.90374" lon="4.99739">
        <ele>244.31</ele>
        <time>2015-07-14T09:33:28.000Z</time>
      </trkpt>
      <trkpt lat="46.90382" lon="4.99729">
        <ele>244.31</ele>
        <time>2015-07-14T09:33:30.000Z</time>
      </trkpt>
      <trkpt lat="46.9039" lon="4.9972">
        <ele>243.83</ele>
        <time>2015-07-14T09:33:32.000Z</time>
      </trkpt>
      <trkpt lat="46.90397" lon="4.9971">
        <ele>244.79</ele>
        <time>2015-07-14T09:33:34.000Z</time>
      </trkpt>
      <trkpt lat="46.90404" lon="4.99699">
        <ele>244.79</ele>
        <time>2015-07-14T09:33:36.000Z</time>
      </trkpt>
      <trkpt lat="46.90411" lon="4.99687">
        <ele>245.27</ele>
        <time>2015-07-14T09:33:38.000Z</time>
      </trkpt>
      <trkpt lat="46.90418" lon="4.99676">
        <ele>245.27</ele>
        <time>2015-07-14T09:33:40.000Z</time>
      </trkpt>
      <trkpt lat="46.90425" lon="4.99664">
        <ele>245.27</ele>
        <time>2015-07-14T09:33:42.000Z</time>
      </trkpt>
      <trkpt lat="46.90432" lon="4.99651">
        <ele>245.27</ele>
        <time>2015-07-14T09:33:44.000Z</time>
      </trkpt>
      <trkpt lat="46.90438" lon="4.99637">
        <ele>245.27</ele>
        <time>2015-07-14T09:33:46.000Z</time>
      </trkpt>
      <trkpt lat="46.90445" lon="4.99623">
        <ele>245.27</ele>
        <time>2015-07-14T09:33:48.000Z</time>
      </trkpt>
      <trkpt lat="46.90451" lon="4.99609">
        <ele>245.27</ele>
        <time>2015-07-14T09:33:50.000Z</time>
      </trkpt>
      <trkpt lat="46.90458" lon="4.99595">
        <ele>245.27</ele>
        <time>2015-07-14T09:33:52.000Z</time>
      </trkpt>
      <trkpt lat="46.90463" lon="4.9958">
        <ele>245.27</ele>
        <time>2015-07-14T09:33:54.000Z</time>
      </trkpt>
      <trkpt lat="46.90469" lon="4.99565">
        <ele>245.75</ele>
        <time>2015-07-14T09:33:56.000Z</time>
      </trkpt>
      <trkpt lat="46.90475" lon="4.9955">
        <ele>244.79</ele>
        <time>2015-07-14T09:33:58.000Z</time>
      </trkpt>
      <trkpt lat="46.90482" lon="4.99535">
        <ele>245.75</ele>
        <time>2015-07-14T09:34:00.000Z</time>
      </trkpt>
      <trkpt lat="46.90487" lon="4.99519">
        <ele>245.27</ele>
        <time>2015-07-14T09:34:02.000Z</time>
      </trkpt>
      <trkpt lat="46.90489" lon="4.99503">
        <ele>245.27</ele>
        <time>2015-07-14T09:34:04.000Z</time>
      </trkpt>
      <trkpt lat="46.9049" lon="4.99487">
        <ele>245.27</ele>
        <time>2015-07-14T09:34:06.000Z</time>
      </trkpt>
      <trkpt lat="46.9049" lon="4.99472">
        <ele>244.79</ele>
        <time>2015-07-14T09:34:08.000Z</time>
      </trkpt>
      <trkpt lat="46.90491" lon="4.99458">
        <ele>244.79</ele>
        <time>2015-07-14T09:34:10.000Z</time>
      </trkpt>
      <trkpt lat="46.90491" lon="4.99443">
        <ele>245.27</ele>
        <time>2015-07-14T09:34:12.000Z</time>
      </trkpt>
      <trkpt lat="46.90491" lon="4.99429">
        <ele>245.27</ele>
        <time>2015-07-14T09:34:14.000Z</time>
      </trkpt>
      <trkpt lat="46.90491" lon="4.99414">
        <ele>245.27</ele>
        <time>2015-07-14T09:34:16.000Z</time>
      </trkpt>
      <trkpt lat="46.90493" lon="4.99399">
        <ele>245.27</ele>
        <time>2015-07-14T09:34:18.000Z</time>
      </trkpt>
      <trkpt lat="46.90494" lon="4.99384">
        <ele>244.79</ele>
        <time>2015-07-14T09:34:20.000Z</time>
      </trkpt>
      <trkpt lat="46.90496" lon="4.99368">
        <ele>244.79</ele>
        <time>2015-07-14T09:34:22.000Z</time>
      </trkpt>
      <trkpt lat="46.90497" lon="4.99354">
        <ele>244.31</ele>
        <time>2015-07-14T09:34:24.000Z</time>
      </trkpt>
      <trkpt lat="46.90497" lon="4.99339">
        <ele>244.79</ele>
        <time>2015-07-14T09:34:26.000Z</time>
      </trkpt>
      <trkpt lat="46.90498" lon="4.99324">
        <ele>244.79</ele>
        <time>2015-07-14T09:34:28.000Z</time>
      </trkpt>
      <trkpt lat="46.90498" lon="4.99309">
        <ele>244.79</ele>
        <time>2015-07-14T09:34:30.000Z</time>
      </trkpt>
      <trkpt lat="46.90498" lon="4.99294">
        <ele>244.79</ele>
        <time>2015-07-14T09:34:32.000Z</time>
      </trkpt>
      <trkpt lat="46.90498" lon="4.99278">
        <ele>244.79</ele>
        <time>2015-07-14T09:34:34.000Z</time>
      </trkpt>
      <trkpt lat="46.90497" lon="4.99262">
        <ele>245.75</ele>
        <time>2015-07-14T09:34:36.000Z</time>
      </trkpt>
      <trkpt lat="46.90496" lon="4.99246">
        <ele>245.75</ele>
        <time>2015-07-14T09:34:38.000Z</time>
      </trkpt>
      <trkpt lat="46.90494" lon="4.99231">
        <ele>245.75</ele>
        <time>2015-07-14T09:34:40.000Z</time>
      </trkpt>
      <trkpt lat="46.90492" lon="4.99216">
        <ele>245.27</ele>
        <time>2015-07-14T09:34:42.000Z</time>
      </trkpt>
      <trkpt lat="46.9049" lon="4.99202">
        <ele>245.75</ele>
        <time>2015-07-14T09:34:44.000Z</time>
      </trkpt>
      <trkpt lat="46.90488" lon="4.99187">
        <ele>245.27</ele>
        <time>2015-07-14T09:34:46.000Z</time>
      </trkpt>
      <trkpt lat="46.90486" lon="4.99173">
        <ele>245.27</ele>
        <time>2015-07-14T09:34:48.000Z</time>
      </trkpt>
      <trkpt lat="46.90483" lon="4.9916">
        <ele>245.75</ele>
        <time>2015-07-14T09:34:50.000Z</time>
      </trkpt>
      <trkpt lat="46.9048" lon="4.99147">
        <ele>245.75</ele>
        <time>2015-07-14T09:34:52.000Z</time>
      </trkpt>
      <trkpt lat="46.90476" lon="4.99128">
        <ele>245.75</ele>
        <time>2015-07-14T09:34:55.000Z</time>
      </trkpt>
      <trkpt lat="46.90474" lon="4.99115">
        <ele>246.23</ele>
        <time>2015-07-14T09:34:57.000Z</time>
      </trkpt>
      <trkpt lat="46.9047" lon="4.99096">
        <ele>246.23</ele>
        <time>2015-07-14T09:35:00.000Z</time>
      </trkpt>
      <trkpt lat="46.90467" lon="4.99077">
        <ele>246.23</ele>
        <time>2015-07-14T09:35:03.000Z</time>
      </trkpt>
      <trkpt lat="46.90462" lon="4.99059">
        <ele>246.72</ele>
        <time>2015-07-14T09:35:06.000Z</time>
      </trkpt>
      <trkpt lat="46.90459" lon="4.9904">
        <ele>246.23</ele>
        <time>2015-07-14T09:35:09.000Z</time>
      </trkpt>
      <trkpt lat="46.90456" lon="4.99026">
        <ele>245.75</ele>
        <time>2015-07-14T09:35:11.000Z</time>
      </trkpt>
      <trkpt lat="46.90453" lon="4.99011">
        <ele>245.75</ele>
        <time>2015-07-14T09:35:13.000Z</time>
      </trkpt>
      <trkpt lat="46.90451" lon="4.98996">
        <ele>245.27</ele>
        <time>2015-07-14T09:35:15.000Z</time>
      </trkpt>
      <trkpt lat="46.90448" lon="4.9898">
        <ele>245.27</ele>
        <time>2015-07-14T09:35:17.000Z</time>
      </trkpt>
      <trkpt lat="46.90445" lon="4.98964">
        <ele>244.79</ele>
        <time>2015-07-14T09:35:19.000Z</time>
      </trkpt>
      <trkpt lat="46.90442" lon="4.98948">
        <ele>245.27</ele>
        <time>2015-07-14T09:35:21.000Z</time>
      </trkpt>
      <trkpt lat="46.90439" lon="4.98932">
        <ele>245.75</ele>
        <time>2015-07-14T09:35:23.000Z</time>
      </trkpt>
      <trkpt lat="46.90435" lon="4.98916">
        <ele>246.23</ele>
        <time>2015-07-14T09:35:25.000Z</time>
      </trkpt>
      <trkpt lat="46.90432" lon="4.98901">
        <ele>246.23</ele>
        <time>2015-07-14T09:35:27.000Z</time>
      </trkpt>
      <trkpt lat="46.90429" lon="4.98886">
        <ele>246.23</ele>
        <time>2015-07-14T09:35:29.000Z</time>
      </trkpt>
      <trkpt lat="46.90425" lon="4.98871">
        <ele>245.75</ele>
        <time>2015-07-14T09:35:31.000Z</time>
      </trkpt>
      <trkpt lat="46.90422" lon="4.98856">
        <ele>245.27</ele>
        <time>2015-07-14T09:35:33.000Z</time>
      </trkpt>
      <trkpt lat="46.90418" lon="4.98841">
        <ele>246.23</ele>
        <time>2015-07-14T09:35:35.000Z</time>
      </trkpt>
      <trkpt lat="46.90412" lon="4.98819">
        <ele>245.27</ele>
        <time>2015-07-14T09:35:38.000Z</time>
      </trkpt>
      <trkpt lat="46.90408" lon="4.98804">
        <ele>245.27</ele>
        <time>2015-07-14T09:35:40.000Z</time>
      </trkpt>
      <trkpt lat="46.90403" lon="4.9879">
        <ele>245.27</ele>
        <time>2015-07-14T09:35:42.000Z</time>
      </trkpt>
      <trkpt lat="46.90398" lon="4.98775">
        <ele>245.27</ele>
        <time>2015-07-14T09:35:44.000Z</time>
      </trkpt>
      <trkpt lat="46.90393" lon="4.98761">
        <ele>245.27</ele>
        <time>2015-07-14T09:35:46.000Z</time>
      </trkpt>
      <trkpt lat="46.90388" lon="4.98747">
        <ele>245.27</ele>
        <time>2015-07-14T09:35:48.000Z</time>
      </trkpt>
      <trkpt lat="46.90384" lon="4.98734">
        <ele>245.27</ele>
        <time>2015-07-14T09:35:50.000Z</time>
      </trkpt>
      <trkpt lat="46.9038" lon="4.9872">
        <ele>245.27</ele>
        <time>2015-07-14T09:35:52.000Z</time>
      </trkpt>
      <trkpt lat="46.90378" lon="4.98706">
        <ele>245.75</ele>
        <time>2015-07-14T09:35:54.000Z</time>
      </trkpt>
      <trkpt lat="46.90376" lon="4.98693">
        <ele>246.23</ele>
        <time>2015-07-14T09:35:56.000Z</time>
      </trkpt>
      <trkpt lat="46.90374" lon="4.98679">
        <ele>246.23</ele>
        <time>2015-07-14T09:35:58.000Z</time>
      </trkpt>
      <trkpt lat="46.90373" lon="4.98664">
        <ele>246.23</ele>
        <time>2015-07-14T09:36:00.000Z</time>
      </trkpt>
      <trkpt lat="46.90372" lon="4.9865">
        <ele>245.75</ele>
        <time>2015-07-14T09:36:02.000Z</time>
      </trkpt>
      <trkpt lat="46.9037" lon="4.98635">
        <ele>246.23</ele>
        <time>2015-07-14T09:36:04.000Z</time>
      </trkpt>
      <trkpt lat="46.90369" lon="4.98619">
        <ele>245.75</ele>
        <time>2015-07-14T09:36:06.000Z</time>
      </trkpt>
      <trkpt lat="46.90367" lon="4.98604">
        <ele>246.23</ele>
        <time>2015-07-14T09:36:08.000Z</time>
      </trkpt>
      <trkpt lat="46.90365" lon="4.98589">
        <ele>246.23</ele>
        <time>2015-07-14T09:36:10.000Z</time>
      </trkpt>
      <trkpt lat="46.90364" lon="4.98573">
        <ele>245.75</ele>
        <time>2015-07-14T09:36:12.000Z</time>
      </trkpt>
      <trkpt lat="46.90362" lon="4.98558">
        <ele>245.75</ele>
        <time>2015-07-14T09:36:14.000Z</time>
      </trkpt>
      <trkpt lat="46.90359" lon="4.98543">
        <ele>246.23</ele>
        <time>2015-07-14T09:36:16.000Z</time>
      </trkpt>
      <trkpt lat="46.90357" lon="4.98527">
        <ele>245.75</ele>
        <time>2015-07-14T09:36:18.000Z</time>
      </trkpt>
      <trkpt lat="46.90355" lon="4.98511">
        <ele>245.75</ele>
        <time>2015-07-14T09:36:20.000Z</time>
      </trkpt>
      <trkpt lat="46.90351" lon="4.98496">
        <ele>245.75</ele>
        <time>2015-07-14T09:36:22.000Z</time>
      </trkpt>
      <trkpt lat="46.90349" lon="4.98481">
        <ele>245.75</ele>
        <time>2015-07-14T09:36:24.000Z</time>
      </trkpt>
      <trkpt lat="46.90345" lon="4.98466">
        <ele>245.27</ele>
        <time>2015-07-14T09:36:26.000Z</time>
      </trkpt>
      <trkpt lat="46.90342" lon="4.98452">
        <ele>245.27</ele>
        <time>2015-07-14T09:36:28.000Z</time>
      </trkpt>
      <trkpt lat="46.90338" lon="4.98436">
        <ele>245.75</ele>
        <time>2015-07-14T09:36:30.000Z</time>
      </trkpt>
      <trkpt lat="46.90334" lon="4.98421">
        <ele>245.75</ele>
        <time>2015-07-14T09:36:32.000Z</time>
      </trkpt>
      <trkpt lat="46.9033" lon="4.98405">
        <ele>245.75</ele>
        <time>2015-07-14T09:36:34.000Z</time>
      </trkpt>
      <trkpt lat="46.90326" lon="4.9839">
        <ele>245.75</ele>
        <time>2015-07-14T09:36:36.000Z</time>
      </trkpt>
      <trkpt lat="46.90324" lon="4.98374">
        <ele>245.27</ele>
        <time>2015-07-14T09:36:38.000Z</time>
      </trkpt>
      <trkpt lat="46.90321" lon="4.98358">
        <ele>245.27</ele>
        <time>2015-07-14T09:36:40.000Z</time>
      </trkpt>
      <trkpt lat="46.90318" lon="4.98342">
        <ele>245.27</ele>
        <time>2015-07-14T09:36:42.000Z</time>
      </trkpt>
      <trkpt lat="46.90316" lon="4.98326">
        <ele>245.27</ele>
        <time>2015-07-14T09:36:44.000Z</time>
      </trkpt>
      <trkpt lat="46.90313" lon="4.98311">
        <ele>245.75</ele>
        <time>2015-07-14T09:36:46.000Z</time>
      </trkpt>
      <trkpt lat="46.9031" lon="4.98296">
        <ele>244.79</ele>
        <time>2015-07-14T09:36:48.000Z</time>
      </trkpt>
      <trkpt lat="46.90308" lon="4.98283">
        <ele>244.79</ele>
        <time>2015-07-14T09:36:50.000Z</time>
      </trkpt>
      <trkpt lat="46.90305" lon="4.9827">
        <ele>244.79</ele>
        <time>2015-07-14T09:36:52.000Z</time>
      </trkpt>
      <trkpt lat="46.90303" lon="4.98255">
        <ele>244.79</ele>
        <time>2015-07-14T09:36:54.000Z</time>
      </trkpt>
      <trkpt lat="46.90302" lon="4.98241">
        <ele>244.79</ele>
        <time>2015-07-14T09:36:56.000Z</time>
      </trkpt>
      <trkpt lat="46.90303" lon="4.98225">
        <ele>244.31</ele>
        <time>2015-07-14T09:36:58.000Z</time>
      </trkpt>
      <trkpt lat="46.90304" lon="4.98209">
        <ele>244.79</ele>
        <time>2015-07-14T09:37:00.000Z</time>
      </trkpt>
      <trkpt lat="46.90305" lon="4.98193">
        <ele>244.79</ele>
        <time>2015-07-14T09:37:02.000Z</time>
      </trkpt>
      <trkpt lat="46.90305" lon="4.98175">
        <ele>245.27</ele>
        <time>2015-07-14T09:37:04.000Z</time>
      </trkpt>
      <trkpt lat="46.90306" lon="4.98159">
        <ele>245.27</ele>
        <time>2015-07-14T09:37:06.000Z</time>
      </trkpt>
      <trkpt lat="46.90305" lon="4.98142">
        <ele>245.27</ele>
        <time>2015-07-14T09:37:08.000Z</time>
      </trkpt>
      <trkpt lat="46.90305" lon="4.98125">
        <ele>245.27</ele>
        <time>2015-07-14T09:37:10.000Z</time>
      </trkpt>
      <trkpt lat="46.90305" lon="4.98108">
        <ele>244.79</ele>
        <time>2015-07-14T09:37:12.000Z</time>
      </trkpt>
      <trkpt lat="46.90304" lon="4.9809">
        <ele>245.27</ele>
        <time>2015-07-14T09:37:14.000Z</time>
      </trkpt>
      <trkpt lat="46.90303" lon="4.98072">
        <ele>245.27</ele>
        <time>2015-07-14T09:37:16.000Z</time>
      </trkpt>
      <trkpt lat="46.90303" lon="4.98056">
        <ele>245.27</ele>
        <time>2015-07-14T09:37:18.000Z</time>
      </trkpt>
      <trkpt lat="46.90302" lon="4.98041">
        <ele>245.27</ele>
        <time>2015-07-14T09:37:20.000Z</time>
      </trkpt>
      <trkpt lat="46.90301" lon="4.98027">
        <ele>244.79</ele>
        <time>2015-07-14T09:37:22.000Z</time>
      </trkpt>
      <trkpt lat="46.903" lon="4.98012">
        <ele>245.27</ele>
        <time>2015-07-14T09:37:24.000Z</time>
      </trkpt>
      <trkpt lat="46.90298" lon="4.97997">
        <ele>245.27</ele>
        <time>2015-07-14T09:37:26.000Z</time>
      </trkpt>
      <trkpt lat="46.90297" lon="4.97982">
        <ele>244.79</ele>
        <time>2015-07-14T09:37:28.000Z</time>
      </trkpt>
      <trkpt lat="46.90295" lon="4.97967">
        <ele>244.31</ele>
        <time>2015-07-14T09:37:30.000Z</time>
      </trkpt>
      <trkpt lat="46.90294" lon="4.97952">
        <ele>244.31</ele>
        <time>2015-07-14T09:37:32.000Z</time>
      </trkpt>
      <trkpt lat="46.90292" lon="4.97936">
        <ele>244.31</ele>
        <time>2015-07-14T09:37:34.000Z</time>
      </trkpt>
      <trkpt lat="46.90291" lon="4.97921">
        <ele>244.31</ele>
        <time>2015-07-14T09:37:36.000Z</time>
      </trkpt>
      <trkpt lat="46.90289" lon="4.97905">
        <ele>244.31</ele>
        <time>2015-07-14T09:37:38.000Z</time>
      </trkpt>
      <trkpt lat="46.90287" lon="4.9789">
        <ele>243.83</ele>
        <time>2015-07-14T09:37:40.000Z</time>
      </trkpt>
      <trkpt lat="46.90284" lon="4.97875">
        <ele>243.83</ele>
        <time>2015-07-14T09:37:42.000Z</time>
      </trkpt>
      <trkpt lat="46.90281" lon="4.9786">
        <ele>245.27</ele>
        <time>2015-07-14T09:37:44.000Z</time>
      </trkpt>
      <trkpt lat="46.90277" lon="4.97846">
        <ele>244.79</ele>
        <time>2015-07-14T09:37:46.000Z</time>
      </trkpt>
      <trkpt lat="46.90274" lon="4.97831">
        <ele>245.27</ele>
        <time>2015-07-14T09:37:48.000Z</time>
      </trkpt>
      <trkpt lat="46.9027" lon="4.97817">
        <ele>245.75</ele>
        <time>2015-07-14T09:37:50.000Z</time>
      </trkpt>
      <trkpt lat="46.90266" lon="4.97803">
        <ele>245.27</ele>
        <time>2015-07-14T09:37:52.000Z</time>
      </trkpt>
      <trkpt lat="46.90263" lon="4.9779">
        <ele>245.27</ele>
        <time>2015-07-14T09:37:54.000Z</time>
      </trkpt>
      <trkpt lat="46.9026" lon="4.97777">
        <ele>245.27</ele>
        <time>2015-07-14T09:37:56.000Z</time>
      </trkpt>
      <trkpt lat="46.90257" lon="4.97763">
        <ele>245.27</ele>
        <time>2015-07-14T09:37:58.000Z</time>
      </trkpt>
      <trkpt lat="46.90254" lon="4.9775">
        <ele>245.75</ele>
        <time>2015-07-14T09:38:00.000Z</time>
      </trkpt>
      <trkpt lat="46.90252" lon="4.97737">
        <ele>246.23</ele>
        <time>2015-07-14T09:38:02.000Z</time>
      </trkpt>
      <trkpt lat="46.9025" lon="4.97718">
        <ele>246.23</ele>
        <time>2015-07-14T09:38:05.000Z</time>
      </trkpt>
      <trkpt lat="46.90249" lon="4.97702">
        <ele>246.23</ele>
        <time>2015-07-14T09:38:08.000Z</time>
      </trkpt>
      <trkpt lat="46.90245" lon="4.9769">
        <ele>246.72</ele>
        <time>2015-07-14T09:38:11.000Z</time>
      </trkpt>
      <trkpt lat="46.90239" lon="4.97675">
        <ele>246.23</ele>
        <time>2015-07-14T09:38:14.000Z</time>
      </trkpt>
      <trkpt lat="46.90234" lon="4.97661">
        <ele>245.75</ele>
        <time>2015-07-14T09:38:16.000Z</time>
      </trkpt>
      <trkpt lat="46.90229" lon="4.97646">
        <ele>245.75</ele>
        <time>2015-07-14T09:38:18.000Z</time>
      </trkpt>
      <trkpt lat="46.90224" lon="4.9763">
        <ele>245.27</ele>
        <time>2015-07-14T09:38:20.000Z</time>
      </trkpt>
      <trkpt lat="46.90219" lon="4.97612">
        <ele>244.79</ele>
        <time>2015-07-14T09:38:22.000Z</time>
      </trkpt>
      <trkpt lat="46.90216" lon="4.97595">
        <ele>245.27</ele>
        <time>2015-07-14T09:38:24.000Z</time>
      </trkpt>
      <trkpt lat="46.90212" lon="4.97578">
        <ele>245.27</ele>
        <time>2015-07-14T09:38:26.000Z</time>
      </trkpt>
      <trkpt lat="46.90208" lon="4.97561">
        <ele>245.27</ele>
        <time>2015-07-14T09:38:28.000Z</time>
      </trkpt>
      <trkpt lat="46.90205" lon="4.97544">
        <ele>244.79</ele>
        <time>2015-07-14T09:38:30.000Z</time>
      </trkpt>
      <trkpt lat="46.90201" lon="4.97526">
        <ele>244.79</ele>
        <time>2015-07-14T09:38:32.000Z</time>
      </trkpt>
      <trkpt lat="46.90197" lon="4.97509">
        <ele>244.79</ele>
        <time>2015-07-14T09:38:34.000Z</time>
      </trkpt>
      <trkpt lat="46.90194" lon="4.97492">
        <ele>244.31</ele>
        <time>2015-07-14T09:38:36.000Z</time>
      </trkpt>
      <trkpt lat="46.90189" lon="4.97475">
        <ele>244.31</ele>
        <time>2015-07-14T09:38:38.000Z</time>
      </trkpt>
      <trkpt lat="46.90187" lon="4.97458">
        <ele>244.31</ele>
        <time>2015-07-14T09:38:40.000Z</time>
      </trkpt>
      <trkpt lat="46.90183" lon="4.9744">
        <ele>244.31</ele>
        <time>2015-07-14T09:38:42.000Z</time>
      </trkpt>
      <trkpt lat="46.9018" lon="4.97423">
        <ele>244.79</ele>
        <time>2015-07-14T09:38:44.000Z</time>
      </trkpt>
      <trkpt lat="46.90176" lon="4.97406">
        <ele>245.27</ele>
        <time>2015-07-14T09:38:46.000Z</time>
      </trkpt>
      <trkpt lat="46.90173" lon="4.9739">
        <ele>244.79</ele>
        <time>2015-07-14T09:38:48.000Z</time>
      </trkpt>
      <trkpt lat="46.90169" lon="4.97374">
        <ele>245.27</ele>
        <time>2015-07-14T09:38:50.000Z</time>
      </trkpt>
      <trkpt lat="46.90166" lon="4.97358">
        <ele>244.79</ele>
        <time>2015-07-14T09:38:52.000Z</time>
      </trkpt>
      <trkpt lat="46.90163" lon="4.97343">
        <ele>245.27</ele>
        <time>2015-07-14T09:38:54.000Z</time>
      </trkpt>
      <trkpt lat="46.9016" lon="4.9733">
        <ele>244.79</ele>
        <time>2015-07-14T09:38:56.000Z</time>
      </trkpt>
      <trkpt lat="46.90157" lon="4.97317">
        <ele>244.79</ele>
        <time>2015-07-14T09:38:58.000Z</time>
      </trkpt>
      <trkpt lat="46.90152" lon="4.973">
        <ele>245.27</ele>
        <time>2015-07-14T09:39:01.000Z</time>
      </trkpt>
      <trkpt lat="46.90147" lon="4.97282">
        <ele>245.27</ele>
        <time>2015-07-14T09:39:04.000Z</time>
      </trkpt>
      <trkpt lat="46.90141" lon="4.97265">
        <ele>245.27</ele>
        <time>2015-07-14T09:39:07.000Z</time>
      </trkpt>
      <trkpt lat="46.90136" lon="4.97249">
        <ele>245.27</ele>
        <time>2015-07-14T09:39:10.000Z</time>
      </trkpt>
      <trkpt lat="46.90131" lon="4.97234">
        <ele>246.23</ele>
        <time>2015-07-14T09:39:13.000Z</time>
      </trkpt>
      <trkpt lat="46.90125" lon="4.97219">
        <ele>245.27</ele>
        <time>2015-07-14T09:39:16.000Z</time>
      </trkpt>
      <trkpt lat="46.90121" lon="4.97203">
        <ele>245.27</ele>
        <time>2015-07-14T09:39:19.000Z</time>
      </trkpt>
      <trkpt lat="46.90116" lon="4.97188">
        <ele>245.27</ele>
        <time>2015-07-14T09:39:22.000Z</time>
      </trkpt>
      <trkpt lat="46.90111" lon="4.97172">
        <ele>246.23</ele>
        <time>2015-07-14T09:39:25.000Z</time>
      </trkpt>
      <trkpt lat="46.90106" lon="4.97156">
        <ele>246.23</ele>
        <time>2015-07-14T09:39:28.000Z</time>
      </trkpt>
      <trkpt lat="46.90102" lon="4.9714">
        <ele>247.2</ele>
        <time>2015-07-14T09:39:31.000Z</time>
      </trkpt>
      <trkpt lat="46.90097" lon="4.97124">
        <ele>246.72</ele>
        <time>2015-07-14T09:39:34.000Z</time>
      </trkpt>
      <trkpt lat="46.90092" lon="4.97108">
        <ele>247.2</ele>
        <time>2015-07-14T09:39:37.000Z</time>
      </trkpt>
      <trkpt lat="46.90088" lon="4.97091">
        <ele>246.72</ele>
        <time>2015-07-14T09:39:40.000Z</time>
      </trkpt>
      <trkpt lat="46.9008" lon="4.97084">
        <ele>247.2</ele>
        <time>2015-07-14T09:39:43.000Z</time>
      </trkpt>
      <trkpt lat="46.9007" lon="4.97086">
        <ele>246.72</ele>
        <time>2015-07-14T09:39:46.000Z</time>
      </trkpt>
      <trkpt lat="46.90059" lon="4.97089">
        <ele>246.72</ele>
        <time>2015-07-14T09:39:49.000Z</time>
      </trkpt>
      <trkpt lat="46.90045" lon="4.97092">
        <ele>246.23</ele>
        <time>2015-07-14T09:39:52.000Z</time>
      </trkpt>
      <trkpt lat="46.90035" lon="4.97095">
        <ele>245.75</ele>
        <time>2015-07-14T09:39:54.000Z</time>
      </trkpt>
      <trkpt lat="46.90024" lon="4.97097">
        <ele>245.27</ele>
        <time>2015-07-14T09:39:56.000Z</time>
      </trkpt>
      <trkpt lat="46.90013" lon="4.97099">
        <ele>244.79</ele>
        <time>2015-07-14T09:39:58.000Z</time>
      </trkpt>
      <trkpt lat="46.90002" lon="4.97102">
        <ele>245.27</ele>
        <time>2015-07-14T09:40:00.000Z</time>
      </trkpt>
      <trkpt lat="46.89991" lon="4.97104">
        <ele>244.79</ele>
        <time>2015-07-14T09:40:02.000Z</time>
      </trkpt>
      <trkpt lat="46.8998" lon="4.97107">
        <ele>244.31</ele>
        <time>2015-07-14T09:40:04.000Z</time>
      </trkpt>
      <trkpt lat="46.89968" lon="4.97109">
        <ele>244.79</ele>
        <time>2015-07-14T09:40:06.000Z</time>
      </trkpt>
      <trkpt lat="46.89957" lon="4.97112">
        <ele>244.31</ele>
        <time>2015-07-14T09:40:08.000Z</time>
      </trkpt>
      <trkpt lat="46.89945" lon="4.97114">
        <ele>244.31</ele>
        <time>2015-07-14T09:40:10.000Z</time>
      </trkpt>
      <trkpt lat="46.89933" lon="4.97117">
        <ele>243.83</ele>
        <time>2015-07-14T09:40:12.000Z</time>
      </trkpt>
      <trkpt lat="46.89921" lon="4.9712">
        <ele>243.35</ele>
        <time>2015-07-14T09:40:14.000Z</time>
      </trkpt>
      <trkpt lat="46.89909" lon="4.97123">
        <ele>243.83</ele>
        <time>2015-07-14T09:40:16.000Z</time>
      </trkpt>
      <trkpt lat="46.89897" lon="4.97125">
        <ele>243.83</ele>
        <time>2015-07-14T09:40:18.000Z</time>
      </trkpt>
      <trkpt lat="46.89886" lon="4.97127">
        <ele>243.83</ele>
        <time>2015-07-14T09:40:20.000Z</time>
      </trkpt>
      <trkpt lat="46.89874" lon="4.97129">
        <ele>243.83</ele>
        <time>2015-07-14T09:40:22.000Z</time>
      </trkpt>
      <trkpt lat="46.89862" lon="4.97131">
        <ele>243.83</ele>
        <time>2015-07-14T09:40:24.000Z</time>
      </trkpt>
      <trkpt lat="46.89851" lon="4.97134">
        <ele>244.31</ele>
        <time>2015-07-14T09:40:26.000Z</time>
      </trkpt>
      <trkpt lat="46.8984" lon="4.97136">
        <ele>244.79</ele>
        <time>2015-07-14T09:40:28.000Z</time>
      </trkpt>
      <trkpt lat="46.8983" lon="4.97138">
        <ele>244.79</ele>
        <time>2015-07-14T09:40:30.000Z</time>
      </trkpt>
      <trkpt lat="46.89819" lon="4.97141">
        <ele>245.27</ele>
        <time>2015-07-14T09:40:32.000Z</time>
      </trkpt>
      <trkpt lat="46.89808" lon="4.97143">
        <ele>244.79</ele>
        <time>2015-07-14T09:40:34.000Z</time>
      </trkpt>
      <trkpt lat="46.89798" lon="4.97145">
        <ele>245.27</ele>
        <time>2015-07-14T09:40:36.000Z</time>
      </trkpt>
      <trkpt lat="46.89788" lon="4.97146">
        <ele>245.27</ele>
        <time>2015-07-14T09:40:38.000Z</time>
      </trkpt>
      <trkpt lat="46.89779" lon="4.97149">
        <ele>245.27</ele>
        <time>2015-07-14T09:40:40.000Z</time>
      </trkpt>
      <trkpt lat="46.8977" lon="4.9715">
        <ele>244.79</ele>
        <time>2015-07-14T09:40:42.000Z</time>
      </trkpt>
      <trkpt lat="46.89761" lon="4.97146">
        <ele>245.27</ele>
        <time>2015-07-14T09:40:44.000Z</time>
      </trkpt>
      <trkpt lat="46.89754" lon="4.97137">
        <ele>245.27</ele>
        <time>2015-07-14T09:40:46.000Z</time>
      </trkpt>
      <trkpt lat="46.89748" lon="4.97125">
        <ele>245.27</ele>
        <time>2015-07-14T09:40:48.000Z</time>
      </trkpt>
      <trkpt lat="46.89742" lon="4.97113">
        <ele>244.79</ele>
        <time>2015-07-14T09:40:50.000Z</time>
      </trkpt>
      <trkpt lat="46.89735" lon="4.97104">
        <ele>245.27</ele>
        <time>2015-07-14T09:40:52.000Z</time>
      </trkpt>
      <trkpt lat="46.89729" lon="4.97093">
        <ele>245.27</ele>
        <time>2015-07-14T09:40:54.000Z</time>
      </trkpt>
      <trkpt lat="46.89722" lon="4.97082">
        <ele>245.27</ele>
        <time>2015-07-14T09:40:56.000Z</time>
      </trkpt>
      <trkpt lat="46.89714" lon="4.97073">
        <ele>245.27</ele>
        <time>2015-07-14T09:40:58.000Z</time>
      </trkpt>
      <trkpt lat="46.89707" lon="4.97062">
        <ele>245.27</ele>
        <time>2015-07-14T09:41:00.000Z</time>
      </trkpt>
      <trkpt lat="46.897" lon="4.97052">
        <ele>244.79</ele>
        <time>2015-07-14T09:41:02.000Z</time>
      </trkpt>
      <trkpt lat="46.89693" lon="4.97042">
        <ele>244.79</ele>
        <time>2015-07-14T09:41:04.000Z</time>
      </trkpt>
      <trkpt lat="46.89685" lon="4.97032">
        <ele>245.27</ele>
        <time>2015-07-14T09:41:06.000Z</time>
      </trkpt>
      <trkpt lat="46.89677" lon="4.97023">
        <ele>245.27</ele>
        <time>2015-07-14T09:41:08.000Z</time>
      </trkpt>
      <trkpt lat="46.89668" lon="4.9701">
        <ele>244.79</ele>
        <time>2015-07-14T09:41:11.000Z</time>
      </trkpt>
      <trkpt lat="46.89659" lon="4.96998">
        <ele>244.79</ele>
        <time>2015-07-14T09:41:14.000Z</time>
      </trkpt>
      <trkpt lat="46.8965" lon="4.96985">
        <ele>244.79</ele>
        <time>2015-07-14T09:41:17.000Z</time>
      </trkpt>
      <trkpt lat="46.89642" lon="4.96973">
        <ele>245.27</ele>
        <time>2015-07-14T09:41:20.000Z</time>
      </trkpt>
      <trkpt lat="46.89634" lon="4.96961">
        <ele>245.27</ele>
        <time>2015-07-14T09:41:23.000Z</time>
      </trkpt>
      <trkpt lat="46.89627" lon="4.96949">
        <ele>245.27</ele>
        <time>2015-07-14T09:41:26.000Z</time>
      </trkpt>
      <trkpt lat="46.89619" lon="4.96938">
        <ele>244.79</ele>
        <time>2015-07-14T09:41:29.000Z</time>
      </trkpt>
      <trkpt lat="46.8961" lon="4.96925">
        <ele>244.79</ele>
        <time>2015-07-14T09:41:32.000Z</time>
      </trkpt>
      <trkpt lat="46.89605" lon="4.96914">
        <ele>245.27</ele>
        <time>2015-07-14T09:41:34.000Z</time>
      </trkpt>
      <trkpt lat="46.89597" lon="4.96898">
        <ele>245.75</ele>
        <time>2015-07-14T09:41:37.000Z</time>
      </trkpt>
      <trkpt lat="46.8959" lon="4.96886">
        <ele>246.23</ele>
        <time>2015-07-14T09:41:40.000Z</time>
      </trkpt>
      <trkpt lat="46.89584" lon="4.96876">
        <ele>245.75</ele>
        <time>2015-07-14T09:41:42.000Z</time>
      </trkpt>
      <trkpt lat="46.89577" lon="4.96864">
        <ele>245.27</ele>
        <time>2015-07-14T09:41:44.000Z</time>
      </trkpt>
      <trkpt lat="46.89569" lon="4.96853">
        <ele>245.27</ele>
        <time>2015-07-14T09:41:46.000Z</time>
      </trkpt>
      <trkpt lat="46.89563" lon="4.9684">
        <ele>245.27</ele>
        <time>2015-07-14T09:41:48.000Z</time>
      </trkpt>
      <trkpt lat="46.89557" lon="4.96827">
        <ele>245.27</ele>
        <time>2015-07-14T09:41:50.000Z</time>
      </trkpt>
      <trkpt lat="46.89552" lon="4.96813">
        <ele>244.79</ele>
        <time>2015-07-14T09:41:52.000Z</time>
      </trkpt>
      <trkpt lat="46.89546" lon="4.968">
        <ele>245.27</ele>
        <time>2015-07-14T09:41:54.000Z</time>
      </trkpt>
      <trkpt lat="46.8954" lon="4.96787">
        <ele>245.27</ele>
        <time>2015-07-14T09:41:56.000Z</time>
      </trkpt>
      <trkpt lat="46.89535" lon="4.96774">
        <ele>244.79</ele>
        <time>2015-07-14T09:41:58.000Z</time>
      </trkpt>
      <trkpt lat="46.89529" lon="4.9676">
        <ele>244.79</ele>
        <time>2015-07-14T09:42:00.000Z</time>
      </trkpt>
      <trkpt lat="46.89522" lon="4.96748">
        <ele>245.27</ele>
        <time>2015-07-14T09:42:02.000Z</time>
      </trkpt>
      <trkpt lat="46.89515" lon="4.96736">
        <ele>245.27</ele>
        <time>2015-07-14T09:42:04.000Z</time>
      </trkpt>
      <trkpt lat="46.89508" lon="4.96723">
        <ele>245.27</ele>
        <time>2015-07-14T09:42:06.000Z</time>
      </trkpt>
      <trkpt lat="46.89502" lon="4.9671">
        <ele>245.27</ele>
        <time>2015-07-14T09:42:08.000Z</time>
      </trkpt>
      <trkpt lat="46.89495" lon="4.96699">
        <ele>245.75</ele>
        <time>2015-07-14T09:42:10.000Z</time>
      </trkpt>
      <trkpt lat="46.89489" lon="4.96686">
        <ele>245.27</ele>
        <time>2015-07-14T09:42:12.000Z</time>
      </trkpt>
      <trkpt lat="46.89483" lon="4.96674">
        <ele>245.75</ele>
        <time>2015-07-14T09:42:14.000Z</time>
      </trkpt>
      <trkpt lat="46.89477" lon="4.96662">
        <ele>245.27</ele>
        <time>2015-07-14T09:42:16.000Z</time>
      </trkpt>
      <trkpt lat="46.89471" lon="4.96649">
        <ele>245.75</ele>
        <time>2015-07-14T09:42:18.000Z</time>
      </trkpt>
      <trkpt lat="46.89466" lon="4.96635">
        <ele>245.27</ele>
        <time>2015-07-14T09:42:20.000Z</time>
      </trkpt>
      <trkpt lat="46.8946" lon="4.96622">
        <ele>245.27</ele>
        <time>2015-07-14T09:42:22.000Z</time>
      </trkpt>
      <trkpt lat="46.89455" lon="4.96608">
        <ele>244.79</ele>
        <time>2015-07-14T09:42:24.000Z</time>
      </trkpt>
      <trkpt lat="46.89449" lon="4.96594">
        <ele>244.31</ele>
        <time>2015-07-14T09:42:26.000Z</time>
      </trkpt>
      <trkpt lat="46.89444" lon="4.96581">
        <ele>244.31</ele>
        <time>2015-07-14T09:42:28.000Z</time>
      </trkpt>
      <trkpt lat="46.89439" lon="4.96569">
        <ele>244.79</ele>
        <time>2015-07-14T09:42:30.000Z</time>
      </trkpt>
      <trkpt lat="46.89433" lon="4.96556">
        <ele>244.31</ele>
        <time>2015-07-14T09:42:32.000Z</time>
      </trkpt>
      <trkpt lat="46.89428" lon="4.96544">
        <ele>244.31</ele>
        <time>2015-07-14T09:42:34.000Z</time>
      </trkpt>
      <trkpt lat="46.89422" lon="4.96532">
        <ele>244.79</ele>
        <time>2015-07-14T09:42:36.000Z</time>
      </trkpt>
      <trkpt lat="46.89418" lon="4.96521">
        <ele>245.27</ele>
        <time>2015-07-14T09:42:38.000Z</time>
      </trkpt>
      <trkpt lat="46.89413" lon="4.9651">
        <ele>244.79</ele>
        <time>2015-07-14T09:42:40.000Z</time>
      </trkpt>
      <trkpt lat="46.89408" lon="4.96499">
        <ele>244.79</ele>
        <time>2015-07-14T09:42:42.000Z</time>
      </trkpt>
      <trkpt lat="46.89405" lon="4.96481">
        <ele>245.27</ele>
        <time>2015-07-14T09:42:45.000Z</time>
      </trkpt>
      <trkpt lat="46.89407" lon="4.96463">
        <ele>245.27</ele>
        <time>2015-07-14T09:42:48.000Z</time>
      </trkpt>
      <trkpt lat="46.89405" lon="4.96446">
        <ele>244.79</ele>
        <time>2015-07-14T09:42:51.000Z</time>
      </trkpt>
      <trkpt lat="46.89399" lon="4.96429">
        <ele>244.79</ele>
        <time>2015-07-14T09:42:54.000Z</time>
      </trkpt>
      <trkpt lat="46.89394" lon="4.96416">
        <ele>244.79</ele>
        <time>2015-07-14T09:42:56.000Z</time>
      </trkpt>
      <trkpt lat="46.89391" lon="4.96401">
        <ele>244.31</ele>
        <time>2015-07-14T09:42:58.000Z</time>
      </trkpt>
      <trkpt lat="46.89389" lon="4.96385">
        <ele>244.31</ele>
        <time>2015-07-14T09:43:00.000Z</time>
      </trkpt>
      <trkpt lat="46.89386" lon="4.96369">
        <ele>244.31</ele>
        <time>2015-07-14T09:43:02.000Z</time>
      </trkpt>
      <trkpt lat="46.89384" lon="4.96352">
        <ele>244.31</ele>
        <time>2015-07-14T09:43:04.000Z</time>
      </trkpt>
      <trkpt lat="46.89383" lon="4.96336">
        <ele>243.83</ele>
        <time>2015-07-14T09:43:06.000Z</time>
      </trkpt>
      <trkpt lat="46.8938" lon="4.96318">
        <ele>243.35</ele>
        <time>2015-07-14T09:43:08.000Z</time>
      </trkpt>
      <trkpt lat="46.89379" lon="4.96301">
        <ele>243.83</ele>
        <time>2015-07-14T09:43:10.000Z</time>
      </trkpt>
      <trkpt lat="46.89377" lon="4.96284">
        <ele>242.87</ele>
        <time>2015-07-14T09:43:12.000Z</time>
      </trkpt>
      <trkpt lat="46.89376" lon="4.96268">
        <ele>243.35</ele>
        <time>2015-07-14T09:43:14.000Z</time>
      </trkpt>
      <trkpt lat="46.89374" lon="4.96252">
        <ele>243.35</ele>
        <time>2015-07-14T09:43:16.000Z</time>
      </trkpt>
      <trkpt lat="46.89373" lon="4.96236">
        <ele>243.35</ele>
        <time>2015-07-14T09:43:18.000Z</time>
      </trkpt>
      <trkpt lat="46.89372" lon="4.9622">
        <ele>243.35</ele>
        <time>2015-07-14T09:43:20.000Z</time>
      </trkpt>
      <trkpt lat="46.89371" lon="4.96204">
        <ele>243.83</ele>
        <time>2015-07-14T09:43:22.000Z</time>
      </trkpt>
      <trkpt lat="46.8937" lon="4.96188">
        <ele>243.35</ele>
        <time>2015-07-14T09:43:24.000Z</time>
      </trkpt>
      <trkpt lat="46.89369" lon="4.96172">
        <ele>242.87</ele>
        <time>2015-07-14T09:43:26.000Z</time>
      </trkpt>
      <trkpt lat="46.89368" lon="4.96156">
        <ele>243.35</ele>
        <time>2015-07-14T09:43:28.000Z</time>
      </trkpt>
      <trkpt lat="46.89367" lon="4.9614">
        <ele>242.87</ele>
        <time>2015-07-14T09:43:30.000Z</time>
      </trkpt>
      <trkpt lat="46.89366" lon="4.96124">
        <ele>242.87</ele>
        <time>2015-07-14T09:43:32.000Z</time>
      </trkpt>
      <trkpt lat="46.89365" lon="4.96108">
        <ele>242.87</ele>
        <time>2015-07-14T09:43:34.000Z</time>
      </trkpt>
      <trkpt lat="46.89364" lon="4.96091">
        <ele>243.35</ele>
        <time>2015-07-14T09:43:36.000Z</time>
      </trkpt>
      <trkpt lat="46.89364" lon="4.96074">
        <ele>243.35</ele>
        <time>2015-07-14T09:43:38.000Z</time>
      </trkpt>
      <trkpt lat="46.89364" lon="4.96058">
        <ele>243.83</ele>
        <time>2015-07-14T09:43:40.000Z</time>
      </trkpt>
      <trkpt lat="46.89363" lon="4.96041">
        <ele>243.35</ele>
        <time>2015-07-14T09:43:42.000Z</time>
      </trkpt>
      <trkpt lat="46.89363" lon="4.96024">
        <ele>243.35</ele>
        <time>2015-07-14T09:43:44.000Z</time>
      </trkpt>
      <trkpt lat="46.89362" lon="4.96007">
        <ele>243.35</ele>
        <time>2015-07-14T09:43:46.000Z</time>
      </trkpt>
      <trkpt lat="46.8936" lon="4.95991">
        <ele>242.87</ele>
        <time>2015-07-14T09:43:48.000Z</time>
      </trkpt>
      <trkpt lat="46.89359" lon="4.95974">
        <ele>242.87</ele>
        <time>2015-07-14T09:43:50.000Z</time>
      </trkpt>
      <trkpt lat="46.89357" lon="4.95957">
        <ele>243.35</ele>
        <time>2015-07-14T09:43:52.000Z</time>
      </trkpt>
      <trkpt lat="46.89355" lon="4.95939">
        <ele>243.35</ele>
        <time>2015-07-14T09:43:54.000Z</time>
      </trkpt>
      <trkpt lat="46.89353" lon="4.95923">
        <ele>242.87</ele>
        <time>2015-07-14T09:43:56.000Z</time>
      </trkpt>
      <trkpt lat="46.89351" lon="4.95907">
        <ele>243.35</ele>
        <time>2015-07-14T09:43:58.000Z</time>
      </trkpt>
      <trkpt lat="46.89349" lon="4.95891">
        <ele>243.35</ele>
        <time>2015-07-14T09:44:00.000Z</time>
      </trkpt>
      <trkpt lat="46.89347" lon="4.95875">
        <ele>243.35</ele>
        <time>2015-07-14T09:44:02.000Z</time>
      </trkpt>
      <trkpt lat="46.89346" lon="4.95858">
        <ele>243.35</ele>
        <time>2015-07-14T09:44:04.000Z</time>
      </trkpt>
      <trkpt lat="46.89344" lon="4.95841">
        <ele>243.35</ele>
        <time>2015-07-14T09:44:06.000Z</time>
      </trkpt>
      <trkpt lat="46.89341" lon="4.95825">
        <ele>243.35</ele>
        <time>2015-07-14T09:44:08.000Z</time>
      </trkpt>
      <trkpt lat="46.89339" lon="4.95809">
        <ele>243.35</ele>
        <time>2015-07-14T09:44:10.000Z</time>
      </trkpt>
      <trkpt lat="46.89337" lon="4.95793">
        <ele>242.87</ele>
        <time>2015-07-14T09:44:12.000Z</time>
      </trkpt>
      <trkpt lat="46.89335" lon="4.95776">
        <ele>243.35</ele>
        <time>2015-07-14T09:44:14.000Z</time>
      </trkpt>
      <trkpt lat="46.89332" lon="4.9576">
        <ele>243.83</ele>
        <time>2015-07-14T09:44:16.000Z</time>
      </trkpt>
      <trkpt lat="46.89329" lon="4.95744">
        <ele>243.35</ele>
        <time>2015-07-14T09:44:18.000Z</time>
      </trkpt>
      <trkpt lat="46.89325" lon="4.95727">
        <ele>243.35</ele>
        <time>2015-07-14T09:44:20.000Z</time>
      </trkpt>
      <trkpt lat="46.89321" lon="4.95711">
        <ele>243.35</ele>
        <time>2015-07-14T09:44:22.000Z</time>
      </trkpt>
      <trkpt lat="46.89318" lon="4.95695">
        <ele>243.35</ele>
        <time>2015-07-14T09:44:24.000Z</time>
      </trkpt>
      <trkpt lat="46.89315" lon="4.95679">
        <ele>243.83</ele>
        <time>2015-07-14T09:44:26.000Z</time>
      </trkpt>
      <trkpt lat="46.89313" lon="4.95663">
        <ele>243.83</ele>
        <time>2015-07-14T09:44:28.000Z</time>
      </trkpt>
      <trkpt lat="46.8931" lon="4.95647">
        <ele>243.83</ele>
        <time>2015-07-14T09:44:30.000Z</time>
      </trkpt>
      <trkpt lat="46.89307" lon="4.95632">
        <ele>243.83</ele>
        <time>2015-07-14T09:44:32.000Z</time>
      </trkpt>
      <trkpt lat="46.89305" lon="4.95616">
        <ele>243.83</ele>
        <time>2015-07-14T09:44:34.000Z</time>
      </trkpt>
      <trkpt lat="46.89302" lon="4.956">
        <ele>243.83</ele>
        <time>2015-07-14T09:44:36.000Z</time>
      </trkpt>
      <trkpt lat="46.89298" lon="4.95584">
        <ele>243.83</ele>
        <time>2015-07-14T09:44:38.000Z</time>
      </trkpt>
      <trkpt lat="46.89294" lon="4.95568">
        <ele>244.31</ele>
        <time>2015-07-14T09:44:40.000Z</time>
      </trkpt>
      <trkpt lat="46.89291" lon="4.95552">
        <ele>244.31</ele>
        <time>2015-07-14T09:44:42.000Z</time>
      </trkpt>
      <trkpt lat="46.89286" lon="4.95539">
        <ele>244.79</ele>
        <time>2015-07-14T09:44:44.000Z</time>
      </trkpt>
      <trkpt lat="46.89279" lon="4.95525">
        <ele>244.31</ele>
        <time>2015-07-14T09:44:46.000Z</time>
      </trkpt>
      <trkpt lat="46.89271" lon="4.95512">
        <ele>244.31</ele>
        <time>2015-07-14T09:44:48.000Z</time>
      </trkpt>
      <trkpt lat="46.89264" lon="4.955">
        <ele>244.31</ele>
        <time>2015-07-14T09:44:50.000Z</time>
      </trkpt>
      <trkpt lat="46.89258" lon="4.95485">
        <ele>244.31</ele>
        <time>2015-07-14T09:44:52.000Z</time>
      </trkpt>
      <trkpt lat="46.89253" lon="4.9547">
        <ele>243.83</ele>
        <time>2015-07-14T09:44:54.000Z</time>
      </trkpt>
      <trkpt lat="46.89247" lon="4.95457">
        <ele>244.79</ele>
        <time>2015-07-14T09:44:56.000Z</time>
      </trkpt>
      <trkpt lat="46.89241" lon="4.95447">
        <ele>243.83</ele>
        <time>2015-07-14T09:44:58.000Z</time>
      </trkpt>
      <trkpt lat="46.89235" lon="4.95436">
        <ele>243.83</ele>
        <time>2015-07-14T09:45:00.000Z</time>
      </trkpt>
      <trkpt lat="46.89228" lon="4.95425">
        <ele>243.83</ele>
        <time>2015-07-14T09:45:02.000Z</time>
      </trkpt>
      <trkpt lat="46.89222" lon="4.95415">
        <ele>244.31</ele>
        <time>2015-07-14T09:45:04.000Z</time>
      </trkpt>
      <trkpt lat="46.89213" lon="4.954">
        <ele>244.79</ele>
        <time>2015-07-14T09:45:07.000Z</time>
      </trkpt>
      <trkpt lat="46.89207" lon="4.95389">
        <ele>244.79</ele>
        <time>2015-07-14T09:45:09.000Z</time>
      </trkpt>
      <trkpt lat="46.89201" lon="4.95373">
        <ele>245.75</ele>
        <time>2015-07-14T09:45:12.000Z</time>
      </trkpt>
      <trkpt lat="46.89196" lon="4.95359">
        <ele>247.68</ele>
        <time>2015-07-14T09:45:15.000Z</time>
      </trkpt>
      <trkpt lat="46.89189" lon="4.95347">
        <ele>247.68</ele>
        <time>2015-07-14T09:45:18.000Z</time>
      </trkpt>
      <trkpt lat="46.89181" lon="4.95339">
        <ele>247.68</ele>
        <time>2015-07-14T09:45:21.000Z</time>
      </trkpt>
      <trkpt lat="46.8917" lon="4.95332">
        <ele>248.16</ele>
        <time>2015-07-14T09:45:24.000Z</time>
      </trkpt>
      <trkpt lat="46.89159" lon="4.95326">
        <ele>248.16</ele>
        <time>2015-07-14T09:45:27.000Z</time>
      </trkpt>
      <trkpt lat="46.89149" lon="4.95319">
        <ele>248.64</ele>
        <time>2015-07-14T09:45:30.000Z</time>
      </trkpt>
      <trkpt lat="46.89137" lon="4.9531">
        <ele>248.64</ele>
        <time>2015-07-14T09:45:33.000Z</time>
      </trkpt>
      <trkpt lat="46.89125" lon="4.95301">
        <ele>248.64</ele>
        <time>2015-07-14T09:45:36.000Z</time>
      </trkpt>
      <trkpt lat="46.89116" lon="4.95293">
        <ele>248.64</ele>
        <time>2015-07-14T09:45:38.000Z</time>
      </trkpt>
      <trkpt lat="46.89108" lon="4.95285">
        <ele>248.64</ele>
        <time>2015-07-14T09:45:40.000Z</time>
      </trkpt>
      <trkpt lat="46.89101" lon="4.95277">
        <ele>248.16</ele>
        <time>2015-07-14T09:45:42.000Z</time>
      </trkpt>
      <trkpt lat="46.89094" lon="4.95267">
        <ele>247.68</ele>
        <time>2015-07-14T09:45:44.000Z</time>
      </trkpt>
      <trkpt lat="46.89087" lon="4.95255">
        <ele>247.2</ele>
        <time>2015-07-14T09:45:46.000Z</time>
      </trkpt>
      <trkpt lat="46.89077" lon="4.95248">
        <ele>245.75</ele>
        <time>2015-07-14T09:45:48.000Z</time>
      </trkpt>
      <trkpt lat="46.89066" lon="4.95245">
        <ele>246.23</ele>
        <time>2015-07-14T09:45:50.000Z</time>
      </trkpt>
      <trkpt lat="46.89055" lon="4.95247">
        <ele>247.68</ele>
        <time>2015-07-14T09:45:53.000Z</time>
      </trkpt>
      <trkpt lat="46.89042" lon="4.95247">
        <ele>248.64</ele>
        <time>2015-07-14T09:45:57.000Z</time>
      </trkpt>
      <trkpt lat="46.89032" lon="4.95244">
        <ele>249.12</ele>
        <time>2015-07-14T09:46:00.000Z</time>
      </trkpt>
      <trkpt lat="46.89022" lon="4.95237">
        <ele>249.12</ele>
        <time>2015-07-14T09:46:03.000Z</time>
      </trkpt>
      <trkpt lat="46.89011" lon="4.95229">
        <ele>249.6</ele>
        <time>2015-07-14T09:46:06.000Z</time>
      </trkpt>
      <trkpt lat="46.89001" lon="4.95223">
        <ele>250.56</ele>
        <time>2015-07-14T09:46:09.000Z</time>
      </trkpt>
      <trkpt lat="46.8899" lon="4.95215">
        <ele>251.04</ele>
        <time>2015-07-14T09:46:13.000Z</time>
      </trkpt>
      <trkpt lat="46.8898" lon="4.95209">
        <ele>251.04</ele>
        <time>2015-07-14T09:46:16.000Z</time>
      </trkpt>
      <trkpt lat="46.88968" lon="4.95203">
        <ele>251.52</ele>
        <time>2015-07-14T09:46:19.000Z</time>
      </trkpt>
      <trkpt lat="46.88957" lon="4.95196">
        <ele>251.04</ele>
        <time>2015-07-14T09:46:22.000Z</time>
      </trkpt>
      <trkpt lat="46.88948" lon="4.95188">
        <ele>251.04</ele>
        <time>2015-07-14T09:46:25.000Z</time>
      </trkpt>
      <trkpt lat="46.88939" lon="4.95182">
        <ele>251.04</ele>
        <time>2015-07-14T09:46:28.000Z</time>
      </trkpt>
      <trkpt lat="46.88932" lon="4.9518">
        <ele>251.52</ele>
        <time>2015-07-14T09:47:02.000Z</time>
      </trkpt>
      <trkpt lat="46.88936" lon="4.95168">
        <ele>252</ele>
        <time>2015-07-14T09:47:32.000Z</time>
      </trkpt>
      <trkpt lat="46.88937" lon="4.95153">
        <ele>252.96</ele>
        <time>2015-07-14T09:47:38.000Z</time>
      </trkpt>
      <trkpt lat="46.88933" lon="4.95138">
        <ele>254.41</ele>
        <time>2015-07-14T09:47:44.000Z</time>
      </trkpt>
      <trkpt lat="46.88928" lon="4.95127">
        <ele>255.37</ele>
        <time>2015-07-14T09:47:50.000Z</time>
      </trkpt>
      <trkpt lat="46.8892" lon="4.95115">
        <ele>255.85</ele>
        <time>2015-07-14T09:47:56.000Z</time>
      </trkpt>
      <trkpt lat="46.88915" lon="4.95103">
        <ele>256.81</ele>
        <time>2015-07-14T09:48:01.000Z</time>
      </trkpt>
      <trkpt lat="46.88909" lon="4.95091">
        <ele>257.29</ele>
        <time>2015-07-14T09:48:05.000Z</time>
      </trkpt>
      <trkpt lat="46.88902" lon="4.9508">
        <ele>257.29</ele>
        <time>2015-07-14T09:48:09.000Z</time>
      </trkpt>
      <trkpt lat="46.88894" lon="4.95069">
        <ele>257.77</ele>
        <time>2015-07-14T09:48:13.000Z</time>
      </trkpt>
      <trkpt lat="46.88884" lon="4.95063">
        <ele>256.81</ele>
        <time>2015-07-14T09:48:16.000Z</time>
      </trkpt>
      <trkpt lat="46.88874" lon="4.95056">
        <ele>257.29</ele>
        <time>2015-07-14T09:48:19.000Z</time>
      </trkpt>
      <trkpt lat="46.88863" lon="4.95048">
        <ele>257.29</ele>
        <time>2015-07-14T09:48:22.000Z</time>
      </trkpt>
      <trkpt lat="46.88853" lon="4.95037">
        <ele>257.77</ele>
        <time>2015-07-14T09:48:25.000Z</time>
      </trkpt>
      <trkpt lat="46.88845" lon="4.95023">
        <ele>257.77</ele>
        <time>2015-07-14T09:48:28.000Z</time>
      </trkpt>
      <trkpt lat="46.88842" lon="4.95006">
        <ele>258.25</ele>
        <time>2015-07-14T09:48:31.000Z</time>
      </trkpt>
      <trkpt lat="46.8884" lon="4.94988">
        <ele>257.77</ele>
        <time>2015-07-14T09:48:34.000Z</time>
      </trkpt>
      <trkpt lat="46.88836" lon="4.94976">
        <ele>257.77</ele>
        <time>2015-07-14T09:48:36.000Z</time>
      </trkpt>
      <trkpt lat="46.88829" lon="4.94966">
        <ele>256.33</ele>
        <time>2015-07-14T09:48:38.000Z</time>
      </trkpt>
      <trkpt lat="46.88821" lon="4.94958">
        <ele>256.33</ele>
        <time>2015-07-14T09:48:40.000Z</time>
      </trkpt>
      <trkpt lat="46.88811" lon="4.94953">
        <ele>256.33</ele>
        <time>2015-07-14T09:48:42.000Z</time>
      </trkpt>
      <trkpt lat="46.88801" lon="4.94946">
        <ele>256.33</ele>
        <time>2015-07-14T09:48:44.000Z</time>
      </trkpt>
      <trkpt lat="46.88791" lon="4.9494">
        <ele>256.33</ele>
        <time>2015-07-14T09:48:46.000Z</time>
      </trkpt>
      <trkpt lat="46.88781" lon="4.94933">
        <ele>256.33</ele>
        <time>2015-07-14T09:48:48.000Z</time>
      </trkpt>
      <trkpt lat="46.88772" lon="4.94927">
        <ele>256.81</ele>
        <time>2015-07-14T09:48:50.000Z</time>
      </trkpt>
      <trkpt lat="46.8876" lon="4.94919">
        <ele>256.81</ele>
        <time>2015-07-14T09:48:53.000Z</time>
      </trkpt>
      <trkpt lat="46.88747" lon="4.94913">
        <ele>257.29</ele>
        <time>2015-07-14T09:48:56.000Z</time>
      </trkpt>
      <trkpt lat="46.88734" lon="4.94907">
        <ele>257.77</ele>
        <time>2015-07-14T09:48:59.000Z</time>
      </trkpt>
      <trkpt lat="46.88726" lon="4.94903">
        <ele>257.77</ele>
        <time>2015-07-14T09:49:01.000Z</time>
      </trkpt>
      <trkpt lat="46.88717" lon="4.949">
        <ele>257.77</ele>
        <time>2015-07-14T09:49:03.000Z</time>
      </trkpt>
      <trkpt lat="46.88708" lon="4.94898">
        <ele>258.25</ele>
        <time>2015-07-14T09:49:05.000Z</time>
      </trkpt>
      <trkpt lat="46.88698" lon="4.94895">
        <ele>258.25</ele>
        <time>2015-07-14T09:49:07.000Z</time>
      </trkpt>
      <trkpt lat="46.88689" lon="4.94891">
        <ele>258.25</ele>
        <time>2015-07-14T09:49:09.000Z</time>
      </trkpt>
      <trkpt lat="46.88679" lon="4.94888">
        <ele>258.73</ele>
        <time>2015-07-14T09:49:11.000Z</time>
      </trkpt>
      <trkpt lat="46.8867" lon="4.94884">
        <ele>258.73</ele>
        <time>2015-07-14T09:49:13.000Z</time>
      </trkpt>
      <trkpt lat="46.8866" lon="4.94882">
        <ele>258.25</ele>
        <time>2015-07-14T09:49:15.000Z</time>
      </trkpt>
      <trkpt lat="46.88651" lon="4.94877">
        <ele>258.25</ele>
        <time>2015-07-14T09:49:17.000Z</time>
      </trkpt>
      <trkpt lat="46.88642" lon="4.94873">
        <ele>258.73</ele>
        <time>2015-07-14T09:49:19.000Z</time>
      </trkpt>
      <trkpt lat="46.88633" lon="4.94869">
        <ele>258.73</ele>
        <time>2015-07-14T09:49:21.000Z</time>
      </trkpt>
      <trkpt lat="46.88623" lon="4.94865">
        <ele>258.25</ele>
        <time>2015-07-14T09:49:23.000Z</time>
      </trkpt>
      <trkpt lat="46.88614" lon="4.9486">
        <ele>258.73</ele>
        <time>2015-07-14T09:49:25.000Z</time>
      </trkpt>
      <trkpt lat="46.88604" lon="4.94854">
        <ele>258.73</ele>
        <time>2015-07-14T09:49:27.000Z</time>
      </trkpt>
      <trkpt lat="46.88595" lon="4.94849">
        <ele>258.25</ele>
        <time>2015-07-14T09:49:29.000Z</time>
      </trkpt>
      <trkpt lat="46.88586" lon="4.94844">
        <ele>258.73</ele>
        <time>2015-07-14T09:49:31.000Z</time>
      </trkpt>
      <trkpt lat="46.88576" lon="4.94839">
        <ele>258.73</ele>
        <time>2015-07-14T09:49:33.000Z</time>
      </trkpt>
      <trkpt lat="46.88567" lon="4.94834">
        <ele>258.73</ele>
        <time>2015-07-14T09:49:35.000Z</time>
      </trkpt>
      <trkpt lat="46.88557" lon="4.94829">
        <ele>257.29</ele>
        <time>2015-07-14T09:49:37.000Z</time>
      </trkpt>
      <trkpt lat="46.88548" lon="4.94824">
        <ele>257.77</ele>
        <time>2015-07-14T09:49:39.000Z</time>
      </trkpt>
      <trkpt lat="46.88538" lon="4.94819">
        <ele>257.29</ele>
        <time>2015-07-14T09:49:41.000Z</time>
      </trkpt>
      <trkpt lat="46.88528" lon="4.94814">
        <ele>257.77</ele>
        <time>2015-07-14T09:49:43.000Z</time>
      </trkpt>
      <trkpt lat="46.88519" lon="4.94809">
        <ele>257.77</ele>
        <time>2015-07-14T09:49:45.000Z</time>
      </trkpt>
      <trkpt lat="46.88509" lon="4.94804">
        <ele>257.29</ele>
        <time>2015-07-14T09:49:47.000Z</time>
      </trkpt>
      <trkpt lat="46.885" lon="4.94799">
        <ele>256.81</ele>
        <time>2015-07-14T09:49:49.000Z</time>
      </trkpt>
      <trkpt lat="46.88492" lon="4.94792">
        <ele>257.77</ele>
        <time>2015-07-14T09:49:51.000Z</time>
      </trkpt>
      <trkpt lat="46.88482" lon="4.9478">
        <ele>257.77</ele>
        <time>2015-07-14T09:49:54.000Z</time>
      </trkpt>
      <trkpt lat="46.88474" lon="4.94776">
        <ele>257.77</ele>
        <time>2015-07-14T09:49:57.000Z</time>
      </trkpt>
      <trkpt lat="46.88465" lon="4.94789">
        <ele>257.29</ele>
        <time>2015-07-14T09:50:00.000Z</time>
      </trkpt>
      <trkpt lat="46.88461" lon="4.94802">
        <ele>257.29</ele>
        <time>2015-07-14T09:50:02.000Z</time>
      </trkpt>
      <trkpt lat="46.88456" lon="4.94815">
        <ele>256.33</ele>
        <time>2015-07-14T09:50:04.000Z</time>
      </trkpt>
      <trkpt lat="46.88452" lon="4.94829">
        <ele>255.37</ele>
        <time>2015-07-14T09:50:06.000Z</time>
      </trkpt>
      <trkpt lat="46.88446" lon="4.94842">
        <ele>255.37</ele>
        <time>2015-07-14T09:50:08.000Z</time>
      </trkpt>
      <trkpt lat="46.88441" lon="4.94859">
        <ele>253.93</ele>
        <time>2015-07-14T09:50:11.000Z</time>
      </trkpt>
      <trkpt lat="46.88437" lon="4.94875">
        <ele>252.96</ele>
        <time>2015-07-14T09:50:14.000Z</time>
      </trkpt>
      <trkpt lat="46.88432" lon="4.94892">
        <ele>252</ele>
        <time>2015-07-14T09:50:17.000Z</time>
      </trkpt>
      <trkpt lat="46.88428" lon="4.94909">
        <ele>250.56</ele>
        <time>2015-07-14T09:50:20.000Z</time>
      </trkpt>
      <trkpt lat="46.88428" lon="4.94925">
        <ele>250.08</ele>
        <time>2015-07-14T09:50:22.000Z</time>
      </trkpt>
      <trkpt lat="46.88428" lon="4.94942">
        <ele>249.12</ele>
        <time>2015-07-14T09:50:24.000Z</time>
      </trkpt>
      <trkpt lat="46.88429" lon="4.94959">
        <ele>248.64</ele>
        <time>2015-07-14T09:50:26.000Z</time>
      </trkpt>
      <trkpt lat="46.8843" lon="4.94974">
        <ele>247.68</ele>
        <time>2015-07-14T09:50:28.000Z</time>
      </trkpt>
      <trkpt lat="46.8843" lon="4.94991">
        <ele>247.2</ele>
        <time>2015-07-14T09:50:31.000Z</time>
      </trkpt>
      <trkpt lat="46.88425" lon="4.95003">
        <ele>246.23</ele>
        <time>2015-07-14T09:50:35.000Z</time>
      </trkpt>
      <trkpt lat="46.88416" lon="4.95006">
        <ele>245.75</ele>
        <time>2015-07-14T09:50:38.000Z</time>
      </trkpt>
      <trkpt lat="46.88403" lon="4.95009">
        <ele>245.27</ele>
        <time>2015-07-14T09:50:41.000Z</time>
      </trkpt>
      <trkpt lat="46.88393" lon="4.95012">
        <ele>244.79</ele>
        <time>2015-07-14T09:50:43.000Z</time>
      </trkpt>
      <trkpt lat="46.88383" lon="4.95014">
        <ele>244.79</ele>
        <time>2015-07-14T09:50:45.000Z</time>
      </trkpt>
      <trkpt lat="46.88373" lon="4.95016">
        <ele>244.31</ele>
        <time>2015-07-14T09:50:47.000Z</time>
      </trkpt>
      <trkpt lat="46.88363" lon="4.95019">
        <ele>244.31</ele>
        <time>2015-07-14T09:50:49.000Z</time>
      </trkpt>
      <trkpt lat="46.88352" lon="4.95021">
        <ele>244.31</ele>
        <time>2015-07-14T09:50:51.000Z</time>
      </trkpt>
      <trkpt lat="46.88342" lon="4.95024">
        <ele>244.79</ele>
        <time>2015-07-14T09:50:53.000Z</time>
      </trkpt>
      <trkpt lat="46.88331" lon="4.95028">
        <ele>244.31</ele>
        <time>2015-07-14T09:50:55.000Z</time>
      </trkpt>
      <trkpt lat="46.8832" lon="4.95032">
        <ele>244.79</ele>
        <time>2015-07-14T09:50:57.000Z</time>
      </trkpt>
      <trkpt lat="46.88309" lon="4.95036">
        <ele>245.27</ele>
        <time>2015-07-14T09:50:59.000Z</time>
      </trkpt>
      <trkpt lat="46.88298" lon="4.9504">
        <ele>245.27</ele>
        <time>2015-07-14T09:51:01.000Z</time>
      </trkpt>
      <trkpt lat="46.88287" lon="4.95044">
        <ele>244.79</ele>
        <time>2015-07-14T09:51:03.000Z</time>
      </trkpt>
      <trkpt lat="46.88276" lon="4.95049">
        <ele>244.31</ele>
        <time>2015-07-14T09:51:05.000Z</time>
      </trkpt>
      <trkpt lat="46.88265" lon="4.95053">
        <ele>244.79</ele>
        <time>2015-07-14T09:51:07.000Z</time>
      </trkpt>
      <trkpt lat="46.88255" lon="4.95057">
        <ele>244.31</ele>
        <time>2015-07-14T09:51:09.000Z</time>
      </trkpt>
      <trkpt lat="46.88245" lon="4.95061">
        <ele>243.83</ele>
        <time>2015-07-14T09:51:11.000Z</time>
      </trkpt>
      <trkpt lat="46.88234" lon="4.95066">
        <ele>244.31</ele>
        <time>2015-07-14T09:51:13.000Z</time>
      </trkpt>
      <trkpt lat="46.88224" lon="4.9507">
        <ele>243.83</ele>
        <time>2015-07-14T09:51:15.000Z</time>
      </trkpt>
      <trkpt lat="46.88214" lon="4.95075">
        <ele>244.31</ele>
        <time>2015-07-14T09:51:17.000Z</time>
      </trkpt>
      <trkpt lat="46.88205" lon="4.9508">
        <ele>244.31</ele>
        <time>2015-07-14T09:51:19.000Z</time>
      </trkpt>
      <trkpt lat="46.88195" lon="4.95085">
        <ele>244.79</ele>
        <time>2015-07-14T09:51:21.000Z</time>
      </trkpt>
      <trkpt lat="46.88185" lon="4.95089">
        <ele>244.79</ele>
        <time>2015-07-14T09:51:23.000Z</time>
      </trkpt>
      <trkpt lat="46.88176" lon="4.95094">
        <ele>244.79</ele>
        <time>2015-07-14T09:51:25.000Z</time>
      </trkpt>
      <trkpt lat="46.88166" lon="4.95099">
        <ele>244.79</ele>
        <time>2015-07-14T09:51:27.000Z</time>
      </trkpt>
      <trkpt lat="46.88157" lon="4.95105">
        <ele>245.27</ele>
        <time>2015-07-14T09:51:29.000Z</time>
      </trkpt>
      <trkpt lat="46.88148" lon="4.95111">
        <ele>244.31</ele>
        <time>2015-07-14T09:51:31.000Z</time>
      </trkpt>
      <trkpt lat="46.88139" lon="4.95118">
        <ele>244.79</ele>
        <time>2015-07-14T09:51:33.000Z</time>
      </trkpt>
      <trkpt lat="46.88131" lon="4.95125">
        <ele>244.79</ele>
        <time>2015-07-14T09:51:35.000Z</time>
      </trkpt>
      <trkpt lat="46.88122" lon="4.95131">
        <ele>244.79</ele>
        <time>2015-07-14T09:51:37.000Z</time>
      </trkpt>
      <trkpt lat="46.88114" lon="4.95136">
        <ele>244.79</ele>
        <time>2015-07-14T09:51:39.000Z</time>
      </trkpt>
      <trkpt lat="46.88105" lon="4.95142">
        <ele>244.31</ele>
        <time>2015-07-14T09:51:41.000Z</time>
      </trkpt>
      <trkpt lat="46.88096" lon="4.95148">
        <ele>244.79</ele>
        <time>2015-07-14T09:51:43.000Z</time>
      </trkpt>
      <trkpt lat="46.88087" lon="4.95154">
        <ele>244.31</ele>
        <time>2015-07-14T09:51:45.000Z</time>
      </trkpt>
      <trkpt lat="46.88079" lon="4.95159">
        <ele>244.79</ele>
        <time>2015-07-14T09:51:47.000Z</time>
      </trkpt>
      <trkpt lat="46.8807" lon="4.95165">
        <ele>244.31</ele>
        <time>2015-07-14T09:51:49.000Z</time>
      </trkpt>
      <trkpt lat="46.88062" lon="4.9517">
        <ele>244.31</ele>
        <time>2015-07-14T09:51:51.000Z</time>
      </trkpt>
      <trkpt lat="46.88053" lon="4.95175">
        <ele>244.79</ele>
        <time>2015-07-14T09:51:53.000Z</time>
      </trkpt>
      <trkpt lat="46.88044" lon="4.95181">
        <ele>244.79</ele>
        <time>2015-07-14T09:51:55.000Z</time>
      </trkpt>
      <trkpt lat="46.88035" lon="4.95187">
        <ele>244.79</ele>
        <time>2015-07-14T09:51:57.000Z</time>
      </trkpt>
      <trkpt lat="46.88026" lon="4.95194">
        <ele>244.79</ele>
        <time>2015-07-14T09:51:59.000Z</time>
      </trkpt>
      <trkpt lat="46.88018" lon="4.95201">
        <ele>244.31</ele>
        <time>2015-07-14T09:52:01.000Z</time>
      </trkpt>
      <trkpt lat="46.8801" lon="4.95207">
        <ele>244.31</ele>
        <time>2015-07-14T09:52:04.000Z</time>
      </trkpt>
      <trkpt lat="46.88002" lon="4.95217">
        <ele>244.31</ele>
        <time>2015-07-14T09:52:09.000Z</time>
      </trkpt>
      <trkpt lat="46.87994" lon="4.95224">
        <ele>244.31</ele>
        <time>2015-07-14T09:52:12.000Z</time>
      </trkpt>
      <trkpt lat="46.87986" lon="4.95233">
        <ele>244.31</ele>
        <time>2015-07-14T09:52:16.000Z</time>
      </trkpt>
      <trkpt lat="46.87978" lon="4.9524">
        <ele>244.31</ele>
        <time>2015-07-14T09:52:20.000Z</time>
      </trkpt>
      <trkpt lat="46.87968" lon="4.95245">
        <ele>244.79</ele>
        <time>2015-07-14T09:52:24.000Z</time>
      </trkpt>
      <trkpt lat="46.87961" lon="4.95254">
        <ele>245.27</ele>
        <time>2015-07-14T09:52:28.000Z</time>
      </trkpt>
      <trkpt lat="46.87955" lon="4.95265">
        <ele>244.79</ele>
        <time>2015-07-14T09:52:32.000Z</time>
      </trkpt>
      <trkpt lat="46.8795" lon="4.95277">
        <ele>244.31</ele>
        <time>2015-07-14T09:52:36.000Z</time>
      </trkpt>
      <trkpt lat="46.87943" lon="4.95287">
        <ele>244.79</ele>
        <time>2015-07-14T09:52:40.000Z</time>
      </trkpt>
      <trkpt lat="46.87936" lon="4.953">
        <ele>244.79</ele>
        <time>2015-07-14T09:52:44.000Z</time>
      </trkpt>
      <trkpt lat="46.87928" lon="4.9531">
        <ele>244.79</ele>
        <time>2015-07-14T09:52:47.000Z</time>
      </trkpt>
      <trkpt lat="46.8792" lon="4.95322">
        <ele>245.27</ele>
        <time>2015-07-14T09:52:50.000Z</time>
      </trkpt>
      <trkpt lat="46.87912" lon="4.95336">
        <ele>244.79</ele>
        <time>2015-07-14T09:52:53.000Z</time>
      </trkpt>
      <trkpt lat="46.87904" lon="4.9535">
        <ele>244.79</ele>
        <time>2015-07-14T09:52:56.000Z</time>
      </trkpt>
      <trkpt lat="46.87897" lon="4.95359">
        <ele>244.79</ele>
        <time>2015-07-14T09:52:58.000Z</time>
      </trkpt>
      <trkpt lat="46.8789" lon="4.95367">
        <ele>244.79</ele>
        <time>2015-07-14T09:53:00.000Z</time>
      </trkpt>
      <trkpt lat="46.87882" lon="4.95377">
        <ele>244.79</ele>
        <time>2015-07-14T09:53:02.000Z</time>
      </trkpt>
      <trkpt lat="46.87874" lon="4.95387">
        <ele>244.79</ele>
        <time>2015-07-14T09:53:04.000Z</time>
      </trkpt>
      <trkpt lat="46.87867" lon="4.95396">
        <ele>244.79</ele>
        <time>2015-07-14T09:53:06.000Z</time>
      </trkpt>
      <trkpt lat="46.8786" lon="4.95406">
        <ele>245.27</ele>
        <time>2015-07-14T09:53:08.000Z</time>
      </trkpt>
      <trkpt lat="46.87853" lon="4.95416">
        <ele>245.27</ele>
        <time>2015-07-14T09:53:10.000Z</time>
      </trkpt>
      <trkpt lat="46.87846" lon="4.95427">
        <ele>245.27</ele>
        <time>2015-07-14T09:53:12.000Z</time>
      </trkpt>
      <trkpt lat="46.87838" lon="4.95438">
        <ele>244.79</ele>
        <time>2015-07-14T09:53:14.000Z</time>
      </trkpt>
      <trkpt lat="46.8783" lon="4.95448">
        <ele>244.79</ele>
        <time>2015-07-14T09:53:16.000Z</time>
      </trkpt>
      <trkpt lat="46.87821" lon="4.95458">
        <ele>244.79</ele>
        <time>2015-07-14T09:53:18.000Z</time>
      </trkpt>
      <trkpt lat="46.87812" lon="4.95466">
        <ele>244.79</ele>
        <time>2015-07-14T09:53:20.000Z</time>
      </trkpt>
      <trkpt lat="46.87804" lon="4.95476">
        <ele>244.79</ele>
        <time>2015-07-14T09:53:22.000Z</time>
      </trkpt>
      <trkpt lat="46.87797" lon="4.95486">
        <ele>245.27</ele>
        <time>2015-07-14T09:53:24.000Z</time>
      </trkpt>
      <trkpt lat="46.8779" lon="4.95496">
        <ele>244.31</ele>
        <time>2015-07-14T09:53:26.000Z</time>
      </trkpt>
      <trkpt lat="46.87781" lon="4.9551">
        <ele>244.31</ele>
        <time>2015-07-14T09:53:29.000Z</time>
      </trkpt>
      <trkpt lat="46.87775" lon="4.9552">
        <ele>243.83</ele>
        <time>2015-07-14T09:53:31.000Z</time>
      </trkpt>
      <trkpt lat="46.87768" lon="4.9553">
        <ele>244.31</ele>
        <time>2015-07-14T09:53:33.000Z</time>
      </trkpt>
      <trkpt lat="46.87761" lon="4.9554">
        <ele>244.31</ele>
        <time>2015-07-14T09:53:35.000Z</time>
      </trkpt>
      <trkpt lat="46.87754" lon="4.95551">
        <ele>244.31</ele>
        <time>2015-07-14T09:53:37.000Z</time>
      </trkpt>
      <trkpt lat="46.87748" lon="4.95561">
        <ele>243.83</ele>
        <time>2015-07-14T09:53:39.000Z</time>
      </trkpt>
      <trkpt lat="46.87741" lon="4.95572">
        <ele>244.31</ele>
        <time>2015-07-14T09:53:41.000Z</time>
      </trkpt>
      <trkpt lat="46.87735" lon="4.95583">
        <ele>245.27</ele>
        <time>2015-07-14T09:53:43.000Z</time>
      </trkpt>
      <trkpt lat="46.87729" lon="4.95594">
        <ele>245.27</ele>
        <time>2015-07-14T09:53:45.000Z</time>
      </trkpt>
      <trkpt lat="46.87724" lon="4.95605">
        <ele>244.79</ele>
        <time>2015-07-14T09:53:47.000Z</time>
      </trkpt>
      <trkpt lat="46.87718" lon="4.95617">
        <ele>245.27</ele>
        <time>2015-07-14T09:53:49.000Z</time>
      </trkpt>
      <trkpt lat="46.87712" lon="4.95628">
        <ele>244.79</ele>
        <time>2015-07-14T09:53:51.000Z</time>
      </trkpt>
      <trkpt lat="46.87706" lon="4.95639">
        <ele>244.79</ele>
        <time>2015-07-14T09:53:53.000Z</time>
      </trkpt>
      <trkpt lat="46.877" lon="4.9565">
        <ele>244.79</ele>
        <time>2015-07-14T09:53:55.000Z</time>
      </trkpt>
      <trkpt lat="46.87695" lon="4.95661">
        <ele>244.79</ele>
        <time>2015-07-14T09:53:57.000Z</time>
      </trkpt>
      <trkpt lat="46.87689" lon="4.95672">
        <ele>245.27</ele>
        <time>2015-07-14T09:53:59.000Z</time>
      </trkpt>
      <trkpt lat="46.87683" lon="4.95683">
        <ele>244.79</ele>
        <time>2015-07-14T09:54:01.000Z</time>
      </trkpt>
      <trkpt lat="46.87678" lon="4.95694">
        <ele>244.31</ele>
        <time>2015-07-14T09:54:03.000Z</time>
      </trkpt>
      <trkpt lat="46.87672" lon="4.95704">
        <ele>244.79</ele>
        <time>2015-07-14T09:54:05.000Z</time>
      </trkpt>
      <trkpt lat="46.87666" lon="4.95715">
        <ele>244.79</ele>
        <time>2015-07-14T09:54:07.000Z</time>
      </trkpt>
      <trkpt lat="46.8766" lon="4.95726">
        <ele>245.27</ele>
        <time>2015-07-14T09:54:09.000Z</time>
      </trkpt>
      <trkpt lat="46.87655" lon="4.95737">
        <ele>245.27</ele>
        <time>2015-07-14T09:54:11.000Z</time>
      </trkpt>
      <trkpt lat="46.87649" lon="4.95747">
        <ele>245.27</ele>
        <time>2015-07-14T09:54:13.000Z</time>
      </trkpt>
      <trkpt lat="46.87643" lon="4.95758">
        <ele>245.27</ele>
        <time>2015-07-14T09:54:15.000Z</time>
      </trkpt>
      <trkpt lat="46.87638" lon="4.95768">
        <ele>245.27</ele>
        <time>2015-07-14T09:54:17.000Z</time>
      </trkpt>
      <trkpt lat="46.87632" lon="4.95779">
        <ele>245.27</ele>
        <time>2015-07-14T09:54:19.000Z</time>
      </trkpt>
      <trkpt lat="46.87626" lon="4.95789">
        <ele>245.27</ele>
        <time>2015-07-14T09:54:21.000Z</time>
      </trkpt>
      <trkpt lat="46.87621" lon="4.958">
        <ele>245.27</ele>
        <time>2015-07-14T09:54:23.000Z</time>
      </trkpt>
      <trkpt lat="46.87615" lon="4.95811">
        <ele>245.27</ele>
        <time>2015-07-14T09:54:25.000Z</time>
      </trkpt>
      <trkpt lat="46.87609" lon="4.95824">
        <ele>244.79</ele>
        <time>2015-07-14T09:54:27.000Z</time>
      </trkpt>
      <trkpt lat="46.87603" lon="4.95837">
        <ele>244.79</ele>
        <time>2015-07-14T09:54:29.000Z</time>
      </trkpt>
      <trkpt lat="46.87597" lon="4.9585">
        <ele>244.79</ele>
        <time>2015-07-14T09:54:31.000Z</time>
      </trkpt>
      <trkpt lat="46.87591" lon="4.95863">
        <ele>244.79</ele>
        <time>2015-07-14T09:54:33.000Z</time>
      </trkpt>
      <trkpt lat="46.87585" lon="4.95876">
        <ele>244.31</ele>
        <time>2015-07-14T09:54:35.000Z</time>
      </trkpt>
      <trkpt lat="46.87579" lon="4.95888">
        <ele>245.27</ele>
        <time>2015-07-14T09:54:37.000Z</time>
      </trkpt>
      <trkpt lat="46.87573" lon="4.959">
        <ele>245.27</ele>
        <time>2015-07-14T09:54:39.000Z</time>
      </trkpt>
      <trkpt lat="46.87567" lon="4.95912">
        <ele>245.27</ele>
        <time>2015-07-14T09:54:41.000Z</time>
      </trkpt>
      <trkpt lat="46.87561" lon="4.95923">
        <ele>244.79</ele>
        <time>2015-07-14T09:54:43.000Z</time>
      </trkpt>
      <trkpt lat="46.87555" lon="4.95934">
        <ele>244.79</ele>
        <time>2015-07-14T09:54:45.000Z</time>
      </trkpt>
      <trkpt lat="46.87548" lon="4.95946">
        <ele>244.79</ele>
        <time>2015-07-14T09:54:47.000Z</time>
      </trkpt>
      <trkpt lat="46.87541" lon="4.95957">
        <ele>244.79</ele>
        <time>2015-07-14T09:54:49.000Z</time>
      </trkpt>
      <trkpt lat="46.87534" lon="4.95967">
        <ele>244.79</ele>
        <time>2015-07-14T09:54:51.000Z</time>
      </trkpt>
      <trkpt lat="46.87528" lon="4.95978">
        <ele>244.79</ele>
        <time>2015-07-14T09:54:53.000Z</time>
      </trkpt>
      <trkpt lat="46.87522" lon="4.95989">
        <ele>245.27</ele>
        <time>2015-07-14T09:54:55.000Z</time>
      </trkpt>
      <trkpt lat="46.87515" lon="4.95999">
        <ele>245.27</ele>
        <time>2015-07-14T09:54:57.000Z</time>
      </trkpt>
      <trkpt lat="46.87509" lon="4.96009">
        <ele>245.27</ele>
        <time>2015-07-14T09:54:59.000Z</time>
      </trkpt>
      <trkpt lat="46.87503" lon="4.9602">
        <ele>245.75</ele>
        <time>2015-07-14T09:55:01.000Z</time>
      </trkpt>
      <trkpt lat="46.87497" lon="4.9603">
        <ele>245.75</ele>
        <time>2015-07-14T09:55:03.000Z</time>
      </trkpt>
      <trkpt lat="46.8749" lon="4.9604">
        <ele>245.27</ele>
        <time>2015-07-14T09:55:05.000Z</time>
      </trkpt>
      <trkpt lat="46.87484" lon="4.9605">
        <ele>245.75</ele>
        <time>2015-07-14T09:55:07.000Z</time>
      </trkpt>
      <trkpt lat="46.87478" lon="4.96061">
        <ele>245.75</ele>
        <time>2015-07-14T09:55:09.000Z</time>
      </trkpt>
      <trkpt lat="46.87472" lon="4.96071">
        <ele>245.75</ele>
        <time>2015-07-14T09:55:11.000Z</time>
      </trkpt>
      <trkpt lat="46.87466" lon="4.96082">
        <ele>245.75</ele>
        <time>2015-07-14T09:55:13.000Z</time>
      </trkpt>
      <trkpt lat="46.8746" lon="4.96093">
        <ele>246.23</ele>
        <time>2015-07-14T09:55:15.000Z</time>
      </trkpt>
      <trkpt lat="46.87454" lon="4.96104">
        <ele>245.75</ele>
        <time>2015-07-14T09:55:17.000Z</time>
      </trkpt>
      <trkpt lat="46.87449" lon="4.96114">
        <ele>245.75</ele>
        <time>2015-07-14T09:55:19.000Z</time>
      </trkpt>
      <trkpt lat="46.8744" lon="4.96129">
        <ele>245.75</ele>
        <time>2015-07-14T09:55:22.000Z</time>
      </trkpt>
      <trkpt lat="46.87433" lon="4.96143">
        <ele>245.75</ele>
        <time>2015-07-14T09:55:25.000Z</time>
      </trkpt>
      <trkpt lat="46.87428" lon="4.96153">
        <ele>245.75</ele>
        <time>2015-07-14T09:55:27.000Z</time>
      </trkpt>
      <trkpt lat="46.87422" lon="4.96164">
        <ele>245.75</ele>
        <time>2015-07-14T09:55:29.000Z</time>
      </trkpt>
      <trkpt lat="46.87416" lon="4.96176">
        <ele>246.23</ele>
        <time>2015-07-14T09:55:31.000Z</time>
      </trkpt>
      <trkpt lat="46.87411" lon="4.96187">
        <ele>245.27</ele>
        <time>2015-07-14T09:55:33.000Z</time>
      </trkpt>
      <trkpt lat="46.87405" lon="4.962">
        <ele>244.79</ele>
        <time>2015-07-14T09:55:35.000Z</time>
      </trkpt>
      <trkpt lat="46.87399" lon="4.96211">
        <ele>244.79</ele>
        <time>2015-07-14T09:55:37.000Z</time>
      </trkpt>
      <trkpt lat="46.87393" lon="4.96222">
        <ele>245.27</ele>
        <time>2015-07-14T09:55:39.000Z</time>
      </trkpt>
      <trkpt lat="46.87386" lon="4.96232">
        <ele>244.79</ele>
        <time>2015-07-14T09:55:41.000Z</time>
      </trkpt>
      <trkpt lat="46.87379" lon="4.96244">
        <ele>244.79</ele>
        <time>2015-07-14T09:55:43.000Z</time>
      </trkpt>
      <trkpt lat="46.8737" lon="4.96254">
        <ele>245.27</ele>
        <time>2015-07-14T09:55:45.000Z</time>
      </trkpt>
      <trkpt lat="46.87362" lon="4.96264">
        <ele>244.79</ele>
        <time>2015-07-14T09:55:47.000Z</time>
      </trkpt>
      <trkpt lat="46.87354" lon="4.96273">
        <ele>244.79</ele>
        <time>2015-07-14T09:55:49.000Z</time>
      </trkpt>
      <trkpt lat="46.87346" lon="4.96281">
        <ele>244.79</ele>
        <time>2015-07-14T09:55:51.000Z</time>
      </trkpt>
      <trkpt lat="46.87337" lon="4.96288">
        <ele>244.79</ele>
        <time>2015-07-14T09:55:53.000Z</time>
      </trkpt>
      <trkpt lat="46.87329" lon="4.96294">
        <ele>244.79</ele>
        <time>2015-07-14T09:55:55.000Z</time>
      </trkpt>
      <trkpt lat="46.87321" lon="4.96302">
        <ele>244.79</ele>
        <time>2015-07-14T09:55:57.000Z</time>
      </trkpt>
      <trkpt lat="46.87313" lon="4.96309">
        <ele>244.31</ele>
        <time>2015-07-14T09:55:59.000Z</time>
      </trkpt>
      <trkpt lat="46.87304" lon="4.96315">
        <ele>244.31</ele>
        <time>2015-07-14T09:56:01.000Z</time>
      </trkpt>
      <trkpt lat="46.87293" lon="4.96324">
        <ele>244.31</ele>
        <time>2015-07-14T09:56:04.000Z</time>
      </trkpt>
      <trkpt lat="46.87281" lon="4.96333">
        <ele>244.79</ele>
        <time>2015-07-14T09:56:07.000Z</time>
      </trkpt>
      <trkpt lat="46.87273" lon="4.9634">
        <ele>244.79</ele>
        <time>2015-07-14T09:56:09.000Z</time>
      </trkpt>
      <trkpt lat="46.87265" lon="4.96345">
        <ele>244.79</ele>
        <time>2015-07-14T09:56:11.000Z</time>
      </trkpt>
      <trkpt lat="46.87254" lon="4.96353">
        <ele>245.27</ele>
        <time>2015-07-14T09:56:14.000Z</time>
      </trkpt>
      <trkpt lat="46.87244" lon="4.9636">
        <ele>245.27</ele>
        <time>2015-07-14T09:56:17.000Z</time>
      </trkpt>
      <trkpt lat="46.87234" lon="4.96364">
        <ele>244.79</ele>
        <time>2015-07-14T09:56:20.000Z</time>
      </trkpt>
      <trkpt lat="46.87222" lon="4.96366">
        <ele>245.27</ele>
        <time>2015-07-14T09:56:23.000Z</time>
      </trkpt>
      <trkpt lat="46.87209" lon="4.9637">
        <ele>244.79</ele>
        <time>2015-07-14T09:56:26.000Z</time>
      </trkpt>
      <trkpt lat="46.87195" lon="4.96372">
        <ele>245.27</ele>
        <time>2015-07-14T09:56:29.000Z</time>
      </trkpt>
      <trkpt lat="46.87185" lon="4.96372">
        <ele>245.27</ele>
        <time>2015-07-14T09:56:31.000Z</time>
      </trkpt>
      <trkpt lat="46.87175" lon="4.96372">
        <ele>245.27</ele>
        <time>2015-07-14T09:56:33.000Z</time>
      </trkpt>
      <trkpt lat="46.87165" lon="4.96373">
        <ele>244.79</ele>
        <time>2015-07-14T09:56:35.000Z</time>
      </trkpt>
      <trkpt lat="46.87156" lon="4.96372">
        <ele>244.79</ele>
        <time>2015-07-14T09:56:37.000Z</time>
      </trkpt>
      <trkpt lat="46.87145" lon="4.9637">
        <ele>244.79</ele>
        <time>2015-07-14T09:56:39.000Z</time>
      </trkpt>
      <trkpt lat="46.87135" lon="4.96367">
        <ele>245.27</ele>
        <time>2015-07-14T09:56:41.000Z</time>
      </trkpt>
      <trkpt lat="46.87125" lon="4.96363">
        <ele>245.27</ele>
        <time>2015-07-14T09:56:43.000Z</time>
      </trkpt>
      <trkpt lat="46.87115" lon="4.96358">
        <ele>245.27</ele>
        <time>2015-07-14T09:56:45.000Z</time>
      </trkpt>
      <trkpt lat="46.87106" lon="4.96352">
        <ele>244.79</ele>
        <time>2015-07-14T09:56:47.000Z</time>
      </trkpt>
      <trkpt lat="46.87097" lon="4.96346">
        <ele>245.27</ele>
        <time>2015-07-14T09:56:49.000Z</time>
      </trkpt>
      <trkpt lat="46.87088" lon="4.9634">
        <ele>245.27</ele>
        <time>2015-07-14T09:56:51.000Z</time>
      </trkpt>
      <trkpt lat="46.87079" lon="4.96333">
        <ele>244.79</ele>
        <time>2015-07-14T09:56:53.000Z</time>
      </trkpt>
      <trkpt lat="46.8707" lon="4.96326">
        <ele>245.27</ele>
        <time>2015-07-14T09:56:55.000Z</time>
      </trkpt>
      <trkpt lat="46.87061" lon="4.96319">
        <ele>244.79</ele>
        <time>2015-07-14T09:56:57.000Z</time>
      </trkpt>
      <trkpt lat="46.87053" lon="4.96311">
        <ele>244.79</ele>
        <time>2015-07-14T09:56:59.000Z</time>
      </trkpt>
      <trkpt lat="46.87045" lon="4.96302">
        <ele>244.79</ele>
        <time>2015-07-14T09:57:01.000Z</time>
      </trkpt>
      <trkpt lat="46.87036" lon="4.96292">
        <ele>244.79</ele>
        <time>2015-07-14T09:57:03.000Z</time>
      </trkpt>
      <trkpt lat="46.87027" lon="4.96283">
        <ele>243.83</ele>
        <time>2015-07-14T09:57:05.000Z</time>
      </trkpt>
      <trkpt lat="46.87019" lon="4.96274">
        <ele>243.83</ele>
        <time>2015-07-14T09:57:07.000Z</time>
      </trkpt>
      <trkpt lat="46.87011" lon="4.96267">
        <ele>244.31</ele>
        <time>2015-07-14T09:57:09.000Z</time>
      </trkpt>
      <trkpt lat="46.87" lon="4.96256">
        <ele>243.35</ele>
        <time>2015-07-14T09:57:12.000Z</time>
      </trkpt>
      <trkpt lat="46.86992" lon="4.96244">
        <ele>243.35</ele>
        <time>2015-07-14T09:57:15.000Z</time>
      </trkpt>
      <trkpt lat="46.86991" lon="4.9623">
        <ele>244.31</ele>
        <time>2015-07-14T09:57:18.000Z</time>
      </trkpt>
      <trkpt lat="46.86996" lon="4.96217">
        <ele>244.79</ele>
        <time>2015-07-14T09:57:21.000Z</time>
      </trkpt>
      <trkpt lat="46.87003" lon="4.96203">
        <ele>244.79</ele>
        <time>2015-07-14T09:57:24.000Z</time>
      </trkpt>
      <trkpt lat="46.87009" lon="4.96192">
        <ele>245.27</ele>
        <time>2015-07-14T09:57:26.000Z</time>
      </trkpt>
      <trkpt lat="46.87014" lon="4.9618">
        <ele>244.79</ele>
        <time>2015-07-14T09:57:28.000Z</time>
      </trkpt>
      <trkpt lat="46.87019" lon="4.96169">
        <ele>244.79</ele>
        <time>2015-07-14T09:57:30.000Z</time>
      </trkpt>
      <trkpt lat="46.87025" lon="4.96157">
        <ele>244.79</ele>
        <time>2015-07-14T09:57:32.000Z</time>
      </trkpt>
      <trkpt lat="46.87032" lon="4.96145">
        <ele>244.31</ele>
        <time>2015-07-14T09:57:34.000Z</time>
      </trkpt>
      <trkpt lat="46.87038" lon="4.96133">
        <ele>244.79</ele>
        <time>2015-07-14T09:57:36.000Z</time>
      </trkpt>
      <trkpt lat="46.87044" lon="4.96122">
        <ele>244.79</ele>
        <time>2015-07-14T09:57:38.000Z</time>
      </trkpt>
      <trkpt lat="46.8705" lon="4.96111">
        <ele>245.27</ele>
        <time>2015-07-14T09:57:40.000Z</time>
      </trkpt>
      <trkpt lat="46.87056" lon="4.96099">
        <ele>244.79</ele>
        <time>2015-07-14T09:57:42.000Z</time>
      </trkpt>
      <trkpt lat="46.87058" lon="4.96085">
        <ele>244.31</ele>
        <time>2015-07-14T09:57:44.000Z</time>
      </trkpt>
      <trkpt lat="46.87056" lon="4.96072">
        <ele>244.31</ele>
        <time>2015-07-14T09:57:46.000Z</time>
      </trkpt>
      <trkpt lat="46.87048" lon="4.96064">
        <ele>243.83</ele>
        <time>2015-07-14T09:57:48.000Z</time>
      </trkpt>
      <trkpt lat="46.87039" lon="4.96059">
        <ele>243.83</ele>
        <time>2015-07-14T09:57:50.000Z</time>
      </trkpt>
      <trkpt lat="46.8703" lon="4.96055">
        <ele>244.79</ele>
        <time>2015-07-14T09:57:52.000Z</time>
      </trkpt>
      <trkpt lat="46.87022" lon="4.96051">
        <ele>244.79</ele>
        <time>2015-07-14T09:57:54.000Z</time>
      </trkpt>
      <trkpt lat="46.87014" lon="4.96042">
        <ele>244.79</ele>
        <time>2015-07-14T09:57:56.000Z</time>
      </trkpt>
      <trkpt lat="46.87008" lon="4.96032">
        <ele>244.79</ele>
        <time>2015-07-14T09:57:58.000Z</time>
      </trkpt>
      <trkpt lat="46.86999" lon="4.96024">
        <ele>244.79</ele>
        <time>2015-07-14T09:58:00.000Z</time>
      </trkpt>
      <trkpt lat="46.8699" lon="4.96018">
        <ele>244.79</ele>
        <time>2015-07-14T09:58:02.000Z</time>
      </trkpt>
      <trkpt lat="46.86981" lon="4.9601">
        <ele>244.31</ele>
        <time>2015-07-14T09:58:04.000Z</time>
      </trkpt>
      <trkpt lat="46.86971" lon="4.96004">
        <ele>244.79</ele>
        <time>2015-07-14T09:58:06.000Z</time>
      </trkpt>
      <trkpt lat="46.8696" lon="4.95999">
        <ele>244.31</ele>
        <time>2015-07-14T09:58:08.000Z</time>
      </trkpt>
      <trkpt lat="46.8695" lon="4.95996">
        <ele>244.31</ele>
        <time>2015-07-14T09:58:10.000Z</time>
      </trkpt>
      <trkpt lat="46.8694" lon="4.95993">
        <ele>244.31</ele>
        <time>2015-07-14T09:58:12.000Z</time>
      </trkpt>
      <trkpt lat="46.8693" lon="4.95989">
        <ele>244.31</ele>
        <time>2015-07-14T09:58:14.000Z</time>
      </trkpt>
      <trkpt lat="46.86921" lon="4.95983">
        <ele>243.83</ele>
        <time>2015-07-14T09:58:16.000Z</time>
      </trkpt>
      <trkpt lat="46.86913" lon="4.95975">
        <ele>244.31</ele>
        <time>2015-07-14T09:58:18.000Z</time>
      </trkpt>
      <trkpt lat="46.86906" lon="4.95964">
        <ele>243.83</ele>
        <time>2015-07-14T09:58:20.000Z</time>
      </trkpt>
      <trkpt lat="46.86901" lon="4.95952">
        <ele>243.83</ele>
        <time>2015-07-14T09:58:22.000Z</time>
      </trkpt>
      <trkpt lat="46.86897" lon="4.95939">
        <ele>244.31</ele>
        <time>2015-07-14T09:58:24.000Z</time>
      </trkpt>
      <trkpt lat="46.86892" lon="4.95926">
        <ele>244.31</ele>
        <time>2015-07-14T09:58:26.000Z</time>
      </trkpt>
      <trkpt lat="46.86886" lon="4.95913">
        <ele>244.31</ele>
        <time>2015-07-14T09:58:28.000Z</time>
      </trkpt>
      <trkpt lat="46.86881" lon="4.959">
        <ele>243.35</ele>
        <time>2015-07-14T09:58:30.000Z</time>
      </trkpt>
      <trkpt lat="46.86876" lon="4.95888">
        <ele>243.83</ele>
        <time>2015-07-14T09:58:32.000Z</time>
      </trkpt>
      <trkpt lat="46.86869" lon="4.95871">
        <ele>243.35</ele>
        <time>2015-07-14T09:58:35.000Z</time>
      </trkpt>
      <trkpt lat="46.86864" lon="4.9586">
        <ele>242.87</ele>
        <time>2015-07-14T09:58:37.000Z</time>
      </trkpt>
      <trkpt lat="46.8686" lon="4.95846">
        <ele>243.35</ele>
        <time>2015-07-14T09:58:40.000Z</time>
      </trkpt>
      <trkpt lat="46.8686" lon="4.95848">
        <ele>243.83</ele>
        <time>2015-07-14T09:58:49.000Z</time>
      </trkpt>
      <trkpt lat="46.86865" lon="4.95861">
        <ele>243.83</ele>
        <time>2015-07-14T09:58:54.000Z</time>
      </trkpt>
      <trkpt lat="46.8687" lon="4.95873">
        <ele>243.83</ele>
        <time>2015-07-14T09:58:58.000Z</time>
      </trkpt>
      <trkpt lat="46.86876" lon="4.95887">
        <ele>243.83</ele>
        <time>2015-07-14T09:59:02.000Z</time>
      </trkpt>
      <trkpt lat="46.8688" lon="4.95899">
        <ele>244.31</ele>
        <time>2015-07-14T09:59:05.000Z</time>
      </trkpt>
      <trkpt lat="46.86886" lon="4.95912">
        <ele>243.83</ele>
        <time>2015-07-14T09:59:09.000Z</time>
      </trkpt>
      <trkpt lat="46.8689" lon="4.95924">
        <ele>243.83</ele>
        <time>2015-07-14T09:59:12.000Z</time>
      </trkpt>
      <trkpt lat="46.86895" lon="4.95938">
        <ele>243.83</ele>
        <time>2015-07-14T09:59:16.000Z</time>
      </trkpt>
      <trkpt lat="46.869" lon="4.9595">
        <ele>243.83</ele>
        <time>2015-07-14T09:59:20.000Z</time>
      </trkpt>
      <trkpt lat="46.86905" lon="4.95962">
        <ele>244.31</ele>
        <time>2015-07-14T09:59:23.000Z</time>
      </trkpt>
      <trkpt lat="46.86912" lon="4.95975">
        <ele>243.83</ele>
        <time>2015-07-14T09:59:27.000Z</time>
      </trkpt>
      <trkpt lat="46.86906" lon="4.95985">
        <ele>244.31</ele>
        <time>2015-07-14T09:59:32.000Z</time>
      </trkpt>
      <trkpt lat="46.86897" lon="4.9599">
        <ele>243.35</ele>
        <time>2015-07-14T09:59:36.000Z</time>
      </trkpt>
      <trkpt lat="46.86888" lon="4.95985">
        <ele>243.35</ele>
        <time>2015-07-14T09:59:40.000Z</time>
      </trkpt>
      <trkpt lat="46.86879" lon="4.95977">
        <ele>243.35</ele>
        <time>2015-07-14T09:59:44.000Z</time>
      </trkpt>
      <trkpt lat="46.86869" lon="4.95972">
        <ele>243.35</ele>
        <time>2015-07-14T09:59:48.000Z</time>
      </trkpt>
      <trkpt lat="46.86861" lon="4.95966">
        <ele>242.87</ele>
        <time>2015-07-14T09:59:52.000Z</time>
      </trkpt>
      <trkpt lat="46.86852" lon="4.95958">
        <ele>243.35</ele>
        <time>2015-07-14T09:59:57.000Z</time>
      </trkpt>
      <trkpt lat="46.86843" lon="4.95955">
        <ele>242.87</ele>
        <time>2015-07-14T10:00:02.000Z</time>
      </trkpt>
      <trkpt lat="46.86835" lon="4.95952">
        <ele>242.87</ele>
        <time>2015-07-14T10:00:34.000Z</time>
      </trkpt>
      <trkpt lat="46.86841" lon="4.95954">
        <ele>242.87</ele>
        <time>2015-07-14T10:01:03.000Z</time>
      </trkpt>
      <trkpt lat="46.86852" lon="4.95964">
        <ele>242.87</ele>
        <time>2015-07-14T10:01:09.000Z</time>
      </trkpt>
      <trkpt lat="46.8686" lon="4.95972">
        <ele>242.87</ele>
        <time>2015-07-14T10:01:13.000Z</time>
      </trkpt>
      <trkpt lat="46.86869" lon="4.95978">
        <ele>243.35</ele>
        <time>2015-07-14T10:01:17.000Z</time>
      </trkpt>
      <trkpt lat="46.8688" lon="4.95987">
        <ele>243.35</ele>
        <time>2015-07-14T10:01:22.000Z</time>
      </trkpt>
      <trkpt lat="46.86892" lon="4.95992">
        <ele>243.35</ele>
        <time>2015-07-14T10:01:27.000Z</time>
      </trkpt>
      <trkpt lat="46.86904" lon="4.95983">
        <ele>244.31</ele>
        <time>2015-07-14T10:01:32.000Z</time>
      </trkpt>
      <trkpt lat="46.86905" lon="4.95969">
        <ele>244.31</ele>
        <time>2015-07-14T10:01:37.000Z</time>
      </trkpt>
      <trkpt lat="46.869" lon="4.95957">
        <ele>243.83</ele>
        <time>2015-07-14T10:01:40.000Z</time>
      </trkpt>
      <trkpt lat="46.86894" lon="4.95942">
        <ele>244.31</ele>
        <time>2015-07-14T10:01:43.000Z</time>
      </trkpt>
      <trkpt lat="46.86889" lon="4.95927">
        <ele>244.31</ele>
        <time>2015-07-14T10:01:46.000Z</time>
      </trkpt>
      <trkpt lat="46.86885" lon="4.95916">
        <ele>244.31</ele>
        <time>2015-07-14T10:01:48.000Z</time>
      </trkpt>
      <trkpt lat="46.86881" lon="4.95904">
        <ele>243.83</ele>
        <time>2015-07-14T10:01:50.000Z</time>
      </trkpt>
      <trkpt lat="46.86876" lon="4.95892">
        <ele>244.31</ele>
        <time>2015-07-14T10:01:52.000Z</time>
      </trkpt>
      <trkpt lat="46.86872" lon="4.9588">
        <ele>244.31</ele>
        <time>2015-07-14T10:01:54.000Z</time>
      </trkpt>
      <trkpt lat="46.86867" lon="4.95867">
        <ele>244.31</ele>
        <time>2015-07-14T10:01:56.000Z</time>
      </trkpt>
      <trkpt lat="46.86862" lon="4.95855">
        <ele>244.31</ele>
        <time>2015-07-14T10:01:58.000Z</time>
      </trkpt>
      <trkpt lat="46.86858" lon="4.95843">
        <ele>244.31</ele>
        <time>2015-07-14T10:02:00.000Z</time>
      </trkpt>
      <trkpt lat="46.86852" lon="4.9583">
        <ele>244.31</ele>
        <time>2015-07-14T10:02:02.000Z</time>
      </trkpt>
      <trkpt lat="46.86848" lon="4.95818">
        <ele>244.31</ele>
        <time>2015-07-14T10:02:04.000Z</time>
      </trkpt>
      <trkpt lat="46.86843" lon="4.95805">
        <ele>244.31</ele>
        <time>2015-07-14T10:02:06.000Z</time>
      </trkpt>
      <trkpt lat="46.86837" lon="4.95792">
        <ele>244.31</ele>
        <time>2015-07-14T10:02:08.000Z</time>
      </trkpt>
      <trkpt lat="46.86832" lon="4.95779">
        <ele>244.79</ele>
        <time>2015-07-14T10:02:10.000Z</time>
      </trkpt>
      <trkpt lat="46.86827" lon="4.95766">
        <ele>244.31</ele>
        <time>2015-07-14T10:02:12.000Z</time>
      </trkpt>
      <trkpt lat="46.86822" lon="4.95753">
        <ele>244.79</ele>
        <time>2015-07-14T10:02:14.000Z</time>
      </trkpt>
      <trkpt lat="46.86817" lon="4.9574">
        <ele>244.31</ele>
        <time>2015-07-14T10:02:16.000Z</time>
      </trkpt>
      <trkpt lat="46.86811" lon="4.95728">
        <ele>244.31</ele>
        <time>2015-07-14T10:02:18.000Z</time>
      </trkpt>
      <trkpt lat="46.86805" lon="4.95716">
        <ele>244.31</ele>
        <time>2015-07-14T10:02:20.000Z</time>
      </trkpt>
      <trkpt lat="46.86798" lon="4.95705">
        <ele>244.31</ele>
        <time>2015-07-14T10:02:22.000Z</time>
      </trkpt>
      <trkpt lat="46.86791" lon="4.95693">
        <ele>243.83</ele>
        <time>2015-07-14T10:02:24.000Z</time>
      </trkpt>
      <trkpt lat="46.86785" lon="4.95682">
        <ele>244.31</ele>
        <time>2015-07-14T10:02:26.000Z</time>
      </trkpt>
      <trkpt lat="46.86778" lon="4.95671">
        <ele>244.31</ele>
        <time>2015-07-14T10:02:28.000Z</time>
      </trkpt>
      <trkpt lat="46.86772" lon="4.9566">
        <ele>244.31</ele>
        <time>2015-07-14T10:02:30.000Z</time>
      </trkpt>
      <trkpt lat="46.86766" lon="4.95648">
        <ele>243.83</ele>
        <time>2015-07-14T10:02:32.000Z</time>
      </trkpt>
      <trkpt lat="46.86759" lon="4.95637">
        <ele>244.31</ele>
        <time>2015-07-14T10:02:34.000Z</time>
      </trkpt>
      <trkpt lat="46.86752" lon="4.95626">
        <ele>244.31</ele>
        <time>2015-07-14T10:02:36.000Z</time>
      </trkpt>
      <trkpt lat="46.86747" lon="4.95615">
        <ele>243.83</ele>
        <time>2015-07-14T10:02:38.000Z</time>
      </trkpt>
      <trkpt lat="46.8674" lon="4.95605">
        <ele>243.83</ele>
        <time>2015-07-14T10:02:40.000Z</time>
      </trkpt>
      <trkpt lat="46.86734" lon="4.95594">
        <ele>244.31</ele>
        <time>2015-07-14T10:02:42.000Z</time>
      </trkpt>
      <trkpt lat="46.86728" lon="4.95584">
        <ele>243.83</ele>
        <time>2015-07-14T10:02:44.000Z</time>
      </trkpt>
      <trkpt lat="46.86721" lon="4.95573">
        <ele>244.31</ele>
        <time>2015-07-14T10:02:46.000Z</time>
      </trkpt>
      <trkpt lat="46.86715" lon="4.95564">
        <ele>244.31</ele>
        <time>2015-07-14T10:02:48.000Z</time>
      </trkpt>
      <trkpt lat="46.86707" lon="4.95549">
        <ele>244.79</ele>
        <time>2015-07-14T10:02:51.000Z</time>
      </trkpt>
      <trkpt lat="46.86697" lon="4.95535">
        <ele>244.31</ele>
        <time>2015-07-14T10:02:54.000Z</time>
      </trkpt>
      <trkpt lat="46.86689" lon="4.9552">
        <ele>244.31</ele>
        <time>2015-07-14T10:02:57.000Z</time>
      </trkpt>
      <trkpt lat="46.86682" lon="4.95511">
        <ele>244.79</ele>
        <time>2015-07-14T10:02:59.000Z</time>
      </trkpt>
      <trkpt lat="46.86676" lon="4.95502">
        <ele>244.79</ele>
        <time>2015-07-14T10:03:01.000Z</time>
      </trkpt>
      <trkpt lat="46.86668" lon="4.95493">
        <ele>244.79</ele>
        <time>2015-07-14T10:03:03.000Z</time>
      </trkpt>
      <trkpt lat="46.86661" lon="4.95484">
        <ele>244.79</ele>
        <time>2015-07-14T10:03:05.000Z</time>
      </trkpt>
      <trkpt lat="46.86653" lon="4.95475">
        <ele>244.79</ele>
        <time>2015-07-14T10:03:07.000Z</time>
      </trkpt>
      <trkpt lat="46.86645" lon="4.95468">
        <ele>245.27</ele>
        <time>2015-07-14T10:03:09.000Z</time>
      </trkpt>
      <trkpt lat="46.86637" lon="4.95461">
        <ele>244.79</ele>
        <time>2015-07-14T10:03:11.000Z</time>
      </trkpt>
      <trkpt lat="46.86629" lon="4.95454">
        <ele>244.79</ele>
        <time>2015-07-14T10:03:13.000Z</time>
      </trkpt>
      <trkpt lat="46.8662" lon="4.95448">
        <ele>244.79</ele>
        <time>2015-07-14T10:03:15.000Z</time>
      </trkpt>
      <trkpt lat="46.8661" lon="4.95442">
        <ele>244.79</ele>
        <time>2015-07-14T10:03:17.000Z</time>
      </trkpt>
      <trkpt lat="46.86601" lon="4.95437">
        <ele>244.79</ele>
        <time>2015-07-14T10:03:19.000Z</time>
      </trkpt>
      <trkpt lat="46.86591" lon="4.95432">
        <ele>244.79</ele>
        <time>2015-07-14T10:03:21.000Z</time>
      </trkpt>
      <trkpt lat="46.86582" lon="4.95427">
        <ele>245.27</ele>
        <time>2015-07-14T10:03:23.000Z</time>
      </trkpt>
      <trkpt lat="46.86573" lon="4.95422">
        <ele>244.79</ele>
        <time>2015-07-14T10:03:25.000Z</time>
      </trkpt>
      <trkpt lat="46.86563" lon="4.95417">
        <ele>244.79</ele>
        <time>2015-07-14T10:03:27.000Z</time>
      </trkpt>
      <trkpt lat="46.86554" lon="4.95412">
        <ele>245.27</ele>
        <time>2015-07-14T10:03:29.000Z</time>
      </trkpt>
      <trkpt lat="46.86545" lon="4.95407">
        <ele>244.79</ele>
        <time>2015-07-14T10:03:31.000Z</time>
      </trkpt>
      <trkpt lat="46.86536" lon="4.95403">
        <ele>244.79</ele>
        <time>2015-07-14T10:03:33.000Z</time>
      </trkpt>
      <trkpt lat="46.86526" lon="4.954">
        <ele>244.79</ele>
        <time>2015-07-14T10:03:35.000Z</time>
      </trkpt>
      <trkpt lat="46.86516" lon="4.95398">
        <ele>245.27</ele>
        <time>2015-07-14T10:03:37.000Z</time>
      </trkpt>
      <trkpt lat="46.86506" lon="4.95396">
        <ele>244.79</ele>
        <time>2015-07-14T10:03:39.000Z</time>
      </trkpt>
      <trkpt lat="46.86496" lon="4.95394">
        <ele>244.31</ele>
        <time>2015-07-14T10:03:41.000Z</time>
      </trkpt>
      <trkpt lat="46.86485" lon="4.95393">
        <ele>244.79</ele>
        <time>2015-07-14T10:03:43.000Z</time>
      </trkpt>
      <trkpt lat="46.86474" lon="4.95392">
        <ele>244.79</ele>
        <time>2015-07-14T10:03:45.000Z</time>
      </trkpt>
      <trkpt lat="46.86464" lon="4.95391">
        <ele>244.79</ele>
        <time>2015-07-14T10:03:47.000Z</time>
      </trkpt>
      <trkpt lat="46.86453" lon="4.95391">
        <ele>245.27</ele>
        <time>2015-07-14T10:03:49.000Z</time>
      </trkpt>
      <trkpt lat="46.86443" lon="4.95391">
        <ele>244.79</ele>
        <time>2015-07-14T10:03:51.000Z</time>
      </trkpt>
      <trkpt lat="46.86432" lon="4.95392">
        <ele>244.79</ele>
        <time>2015-07-14T10:03:53.000Z</time>
      </trkpt>
      <trkpt lat="46.86422" lon="4.95392">
        <ele>244.79</ele>
        <time>2015-07-14T10:03:55.000Z</time>
      </trkpt>
      <trkpt lat="46.86413" lon="4.95392">
        <ele>244.79</ele>
        <time>2015-07-14T10:03:57.000Z</time>
      </trkpt>
      <trkpt lat="46.86403" lon="4.95396">
        <ele>244.79</ele>
        <time>2015-07-14T10:04:00.000Z</time>
      </trkpt>
      <trkpt lat="46.86395" lon="4.95405">
        <ele>244.79</ele>
        <time>2015-07-14T10:04:05.000Z</time>
      </trkpt>
      <trkpt lat="46.86393" lon="4.95407">
        <ele>244.31</ele>
        <time>2015-07-14T10:04:39.000Z</time>
      </trkpt>
      <trkpt lat="46.86393" lon="4.95407">
        <ele>176.06</ele>
        <time>2015-07-14T11:10:57.000Z</time>
      </trkpt>
      <trkpt lat="46.8639" lon="4.95407">
        <ele>246.23</ele>
        <time>2015-07-14T11:11:02.000Z</time>
      </trkpt>
      <trkpt lat="46.86383" lon="4.95401">
        <ele>246.23</ele>
        <time>2015-07-14T11:13:32.000Z</time>
      </trkpt>
      <trkpt lat="46.86372" lon="4.954">
        <ele>245.75</ele>
        <time>2015-07-14T11:13:37.000Z</time>
      </trkpt>
      <trkpt lat="46.86363" lon="4.95403">
        <ele>245.27</ele>
        <time>2015-07-14T11:13:41.000Z</time>
      </trkpt>
      <trkpt lat="46.86353" lon="4.95406">
        <ele>245.75</ele>
        <time>2015-07-14T11:13:47.000Z</time>
      </trkpt>
      <trkpt lat="46.86345" lon="4.95408">
        <ele>246.23</ele>
        <time>2015-07-14T11:13:59.000Z</time>
      </trkpt>
      <trkpt lat="46.86353" lon="4.95406">
        <ele>246.23</ele>
        <time>2015-07-14T11:14:07.000Z</time>
      </trkpt>
      <trkpt lat="46.86363" lon="4.95402">
        <ele>246.23</ele>
        <time>2015-07-14T11:14:12.000Z</time>
      </trkpt>
      <trkpt lat="46.86374" lon="4.954">
        <ele>245.75</ele>
        <time>2015-07-14T11:14:17.000Z</time>
      </trkpt>
      <trkpt lat="46.86383" lon="4.95399">
        <ele>245.75</ele>
        <time>2015-07-14T11:14:21.000Z</time>
      </trkpt>
      <trkpt lat="46.86393" lon="4.95396">
        <ele>246.23</ele>
        <time>2015-07-14T11:14:26.000Z</time>
      </trkpt>
      <trkpt lat="46.86404" lon="4.95397">
        <ele>246.23</ele>
        <time>2015-07-14T11:14:32.000Z</time>
      </trkpt>
      <trkpt lat="46.86402" lon="4.95395">
        <ele>245.27</ele>
        <time>2015-07-14T11:14:56.000Z</time>
      </trkpt>
      <trkpt lat="46.86391" lon="4.95398">
        <ele>245.75</ele>
        <time>2015-07-14T11:15:02.000Z</time>
      </trkpt>
      <trkpt lat="46.86382" lon="4.954">
        <ele>246.72</ele>
        <time>2015-07-14T11:15:06.000Z</time>
      </trkpt>
      <trkpt lat="46.86369" lon="4.95401">
        <ele>246.72</ele>
        <time>2015-07-14T11:15:10.000Z</time>
      </trkpt>
      <trkpt lat="46.86359" lon="4.95404">
        <ele>246.72</ele>
        <time>2015-07-14T11:15:13.000Z</time>
      </trkpt>
      <trkpt lat="46.8635" lon="4.95408">
        <ele>246.72</ele>
        <time>2015-07-14T11:15:16.000Z</time>
      </trkpt>
      <trkpt lat="46.8634" lon="4.95409">
        <ele>246.72</ele>
        <time>2015-07-14T11:15:19.000Z</time>
      </trkpt>
      <trkpt lat="46.8633" lon="4.95409">
        <ele>246.72</ele>
        <time>2015-07-14T11:15:22.000Z</time>
      </trkpt>
      <trkpt lat="46.8632" lon="4.9541">
        <ele>247.2</ele>
        <time>2015-07-14T11:15:25.000Z</time>
      </trkpt>
      <trkpt lat="46.86309" lon="4.9541">
        <ele>247.2</ele>
        <time>2015-07-14T11:15:28.000Z</time>
      </trkpt>
      <trkpt lat="46.86298" lon="4.9541">
        <ele>247.2</ele>
        <time>2015-07-14T11:15:31.000Z</time>
      </trkpt>
      <trkpt lat="46.86287" lon="4.95411">
        <ele>247.2</ele>
        <time>2015-07-14T11:15:34.000Z</time>
      </trkpt>
      <trkpt lat="46.86276" lon="4.95414">
        <ele>246.72</ele>
        <time>2015-07-14T11:15:37.000Z</time>
      </trkpt>
      <trkpt lat="46.86265" lon="4.9542">
        <ele>246.72</ele>
        <time>2015-07-14T11:15:40.000Z</time>
      </trkpt>
      <trkpt lat="46.86253" lon="4.95426">
        <ele>247.2</ele>
        <time>2015-07-14T11:15:43.000Z</time>
      </trkpt>
      <trkpt lat="46.86242" lon="4.95433">
        <ele>247.2</ele>
        <time>2015-07-14T11:15:46.000Z</time>
      </trkpt>
      <trkpt lat="46.86231" lon="4.95439">
        <ele>247.2</ele>
        <time>2015-07-14T11:15:49.000Z</time>
      </trkpt>
      <trkpt lat="46.86221" lon="4.95446">
        <ele>248.16</ele>
        <time>2015-07-14T11:15:52.000Z</time>
      </trkpt>
      <trkpt lat="46.86209" lon="4.95454">
        <ele>247.2</ele>
        <time>2015-07-14T11:15:55.000Z</time>
      </trkpt>
      <trkpt lat="46.862" lon="4.95459">
        <ele>247.2</ele>
        <time>2015-07-14T11:15:57.000Z</time>
      </trkpt>
      <trkpt lat="46.86192" lon="4.95464">
        <ele>246.72</ele>
        <time>2015-07-14T11:15:59.000Z</time>
      </trkpt>
      <trkpt lat="46.86183" lon="4.95469">
        <ele>246.72</ele>
        <time>2015-07-14T11:16:01.000Z</time>
      </trkpt>
      <trkpt lat="46.86174" lon="4.95474">
        <ele>247.2</ele>
        <time>2015-07-14T11:16:03.000Z</time>
      </trkpt>
      <trkpt lat="46.86166" lon="4.9548">
        <ele>247.2</ele>
        <time>2015-07-14T11:16:05.000Z</time>
      </trkpt>
      <trkpt lat="46.86157" lon="4.95485">
        <ele>246.72</ele>
        <time>2015-07-14T11:16:07.000Z</time>
      </trkpt>
      <trkpt lat="46.86146" lon="4.95494">
        <ele>247.2</ele>
        <time>2015-07-14T11:16:10.000Z</time>
      </trkpt>
      <trkpt lat="46.86134" lon="4.95504">
        <ele>247.2</ele>
        <time>2015-07-14T11:16:13.000Z</time>
      </trkpt>
      <trkpt lat="46.86123" lon="4.95513">
        <ele>246.72</ele>
        <time>2015-07-14T11:16:16.000Z</time>
      </trkpt>
      <trkpt lat="46.86112" lon="4.95522">
        <ele>247.2</ele>
        <time>2015-07-14T11:16:19.000Z</time>
      </trkpt>
      <trkpt lat="46.86101" lon="4.95532">
        <ele>246.72</ele>
        <time>2015-07-14T11:16:22.000Z</time>
      </trkpt>
      <trkpt lat="46.8609" lon="4.95541">
        <ele>247.2</ele>
        <time>2015-07-14T11:16:25.000Z</time>
      </trkpt>
      <trkpt lat="46.86079" lon="4.9555">
        <ele>247.2</ele>
        <time>2015-07-14T11:16:28.000Z</time>
      </trkpt>
      <trkpt lat="46.86068" lon="4.95558">
        <ele>246.72</ele>
        <time>2015-07-14T11:16:31.000Z</time>
      </trkpt>
      <trkpt lat="46.86057" lon="4.95567">
        <ele>247.2</ele>
        <time>2015-07-14T11:16:34.000Z</time>
      </trkpt>
      <trkpt lat="46.86045" lon="4.95575">
        <ele>246.72</ele>
        <time>2015-07-14T11:16:37.000Z</time>
      </trkpt>
      <trkpt lat="46.86034" lon="4.95583">
        <ele>245.75</ele>
        <time>2015-07-14T11:16:40.000Z</time>
      </trkpt>
      <trkpt lat="46.86021" lon="4.95591">
        <ele>246.23</ele>
        <time>2015-07-14T11:16:43.000Z</time>
      </trkpt>
      <trkpt lat="46.8601" lon="4.95599">
        <ele>246.23</ele>
        <time>2015-07-14T11:16:46.000Z</time>
      </trkpt>
      <trkpt lat="46.85998" lon="4.95608">
        <ele>246.23</ele>
        <time>2015-07-14T11:16:49.000Z</time>
      </trkpt>
      <trkpt lat="46.85987" lon="4.95616">
        <ele>246.72</ele>
        <time>2015-07-14T11:16:52.000Z</time>
      </trkpt>
      <trkpt lat="46.85975" lon="4.95623">
        <ele>247.2</ele>
        <time>2015-07-14T11:16:55.000Z</time>
      </trkpt>
      <trkpt lat="46.85963" lon="4.95632">
        <ele>247.2</ele>
        <time>2015-07-14T11:16:58.000Z</time>
      </trkpt>
      <trkpt lat="46.85953" lon="4.9564">
        <ele>247.2</ele>
        <time>2015-07-14T11:17:01.000Z</time>
      </trkpt>
      <trkpt lat="46.85941" lon="4.95649">
        <ele>246.72</ele>
        <time>2015-07-14T11:17:04.000Z</time>
      </trkpt>
      <trkpt lat="46.85933" lon="4.95655">
        <ele>247.2</ele>
        <time>2015-07-14T11:17:06.000Z</time>
      </trkpt>
      <trkpt lat="46.85926" lon="4.95661">
        <ele>246.72</ele>
        <time>2015-07-14T11:17:08.000Z</time>
      </trkpt>
      <trkpt lat="46.85915" lon="4.95672">
        <ele>246.72</ele>
        <time>2015-07-14T11:17:11.000Z</time>
      </trkpt>
      <trkpt lat="46.85907" lon="4.9568">
        <ele>247.2</ele>
        <time>2015-07-14T11:17:13.000Z</time>
      </trkpt>
      <trkpt lat="46.859" lon="4.95689">
        <ele>246.72</ele>
        <time>2015-07-14T11:17:15.000Z</time>
      </trkpt>
      <trkpt lat="46.85894" lon="4.95698">
        <ele>246.72</ele>
        <time>2015-07-14T11:17:17.000Z</time>
      </trkpt>
      <trkpt lat="46.85888" lon="4.95708">
        <ele>246.23</ele>
        <time>2015-07-14T11:17:19.000Z</time>
      </trkpt>
      <trkpt lat="46.85879" lon="4.95721">
        <ele>246.23</ele>
        <time>2015-07-14T11:17:22.000Z</time>
      </trkpt>
      <trkpt lat="46.85869" lon="4.95734">
        <ele>246.72</ele>
        <time>2015-07-14T11:17:25.000Z</time>
      </trkpt>
      <trkpt lat="46.8586" lon="4.95747">
        <ele>246.72</ele>
        <time>2015-07-14T11:17:28.000Z</time>
      </trkpt>
      <trkpt lat="46.85851" lon="4.9576">
        <ele>246.72</ele>
        <time>2015-07-14T11:17:31.000Z</time>
      </trkpt>
      <trkpt lat="46.85841" lon="4.95774">
        <ele>246.72</ele>
        <time>2015-07-14T11:17:34.000Z</time>
      </trkpt>
      <trkpt lat="46.85832" lon="4.95788">
        <ele>246.72</ele>
        <time>2015-07-14T11:17:37.000Z</time>
      </trkpt>
      <trkpt lat="46.85823" lon="4.95803">
        <ele>246.23</ele>
        <time>2015-07-14T11:17:40.000Z</time>
      </trkpt>
      <trkpt lat="46.85815" lon="4.95819">
        <ele>246.72</ele>
        <time>2015-07-14T11:17:43.000Z</time>
      </trkpt>
      <trkpt lat="46.8581" lon="4.9583">
        <ele>246.23</ele>
        <time>2015-07-14T11:17:45.000Z</time>
      </trkpt>
      <trkpt lat="46.85805" lon="4.95841">
        <ele>246.23</ele>
        <time>2015-07-14T11:17:47.000Z</time>
      </trkpt>
      <trkpt lat="46.85799" lon="4.95853">
        <ele>246.72</ele>
        <time>2015-07-14T11:17:49.000Z</time>
      </trkpt>
      <trkpt lat="46.85794" lon="4.95865">
        <ele>246.23</ele>
        <time>2015-07-14T11:17:51.000Z</time>
      </trkpt>
      <trkpt lat="46.85788" lon="4.95878">
        <ele>246.23</ele>
        <time>2015-07-14T11:17:53.000Z</time>
      </trkpt>
      <trkpt lat="46.85783" lon="4.95891">
        <ele>246.23</ele>
        <time>2015-07-14T11:17:55.000Z</time>
      </trkpt>
      <trkpt lat="46.85779" lon="4.95903">
        <ele>246.23</ele>
        <time>2015-07-14T11:17:57.000Z</time>
      </trkpt>
      <trkpt lat="46.85774" lon="4.95915">
        <ele>246.72</ele>
        <time>2015-07-14T11:17:59.000Z</time>
      </trkpt>
      <trkpt lat="46.85769" lon="4.95926">
        <ele>246.72</ele>
        <time>2015-07-14T11:18:01.000Z</time>
      </trkpt>
      <trkpt lat="46.85763" lon="4.95943">
        <ele>247.2</ele>
        <time>2015-07-14T11:18:04.000Z</time>
      </trkpt>
      <trkpt lat="46.85757" lon="4.95961">
        <ele>247.2</ele>
        <time>2015-07-14T11:18:07.000Z</time>
      </trkpt>
      <trkpt lat="46.85753" lon="4.95972">
        <ele>247.2</ele>
        <time>2015-07-14T11:18:09.000Z</time>
      </trkpt>
      <trkpt lat="46.85749" lon="4.95985">
        <ele>246.72</ele>
        <time>2015-07-14T11:18:11.000Z</time>
      </trkpt>
      <trkpt lat="46.85745" lon="4.95997">
        <ele>246.72</ele>
        <time>2015-07-14T11:18:13.000Z</time>
      </trkpt>
      <trkpt lat="46.85741" lon="4.96009">
        <ele>246.23</ele>
        <time>2015-07-14T11:18:15.000Z</time>
      </trkpt>
      <trkpt lat="46.85737" lon="4.96021">
        <ele>246.72</ele>
        <time>2015-07-14T11:18:17.000Z</time>
      </trkpt>
      <trkpt lat="46.85734" lon="4.96033">
        <ele>246.72</ele>
        <time>2015-07-14T11:18:19.000Z</time>
      </trkpt>
      <trkpt lat="46.8573" lon="4.96045">
        <ele>247.2</ele>
        <time>2015-07-14T11:18:21.000Z</time>
      </trkpt>
      <trkpt lat="46.85725" lon="4.96056">
        <ele>246.72</ele>
        <time>2015-07-14T11:18:23.000Z</time>
      </trkpt>
      <trkpt lat="46.8572" lon="4.96067">
        <ele>246.72</ele>
        <time>2015-07-14T11:18:25.000Z</time>
      </trkpt>
      <trkpt lat="46.85713" lon="4.96077">
        <ele>246.72</ele>
        <time>2015-07-14T11:18:27.000Z</time>
      </trkpt>
      <trkpt lat="46.85707" lon="4.96088">
        <ele>246.72</ele>
        <time>2015-07-14T11:18:29.000Z</time>
      </trkpt>
      <trkpt lat="46.85699" lon="4.96098">
        <ele>246.72</ele>
        <time>2015-07-14T11:18:31.000Z</time>
      </trkpt>
      <trkpt lat="46.85692" lon="4.96107">
        <ele>247.2</ele>
        <time>2015-07-14T11:18:33.000Z</time>
      </trkpt>
      <trkpt lat="46.85684" lon="4.96116">
        <ele>246.72</ele>
        <time>2015-07-14T11:18:35.000Z</time>
      </trkpt>
      <trkpt lat="46.85677" lon="4.96126">
        <ele>246.72</ele>
        <time>2015-07-14T11:18:37.000Z</time>
      </trkpt>
      <trkpt lat="46.85669" lon="4.96135">
        <ele>246.72</ele>
        <time>2015-07-14T11:18:39.000Z</time>
      </trkpt>
      <trkpt lat="46.85661" lon="4.96145">
        <ele>247.2</ele>
        <time>2015-07-14T11:18:41.000Z</time>
      </trkpt>
      <trkpt lat="46.85654" lon="4.96154">
        <ele>247.2</ele>
        <time>2015-07-14T11:18:43.000Z</time>
      </trkpt>
      <trkpt lat="46.85646" lon="4.96163">
        <ele>247.2</ele>
        <time>2015-07-14T11:18:45.000Z</time>
      </trkpt>
      <trkpt lat="46.85638" lon="4.96171">
        <ele>247.2</ele>
        <time>2015-07-14T11:18:47.000Z</time>
      </trkpt>
      <trkpt lat="46.85631" lon="4.96179">
        <ele>246.72</ele>
        <time>2015-07-14T11:18:49.000Z</time>
      </trkpt>
      <trkpt lat="46.85623" lon="4.96187">
        <ele>247.2</ele>
        <time>2015-07-14T11:18:51.000Z</time>
      </trkpt>
      <trkpt lat="46.85615" lon="4.96195">
        <ele>247.2</ele>
        <time>2015-07-14T11:18:53.000Z</time>
      </trkpt>
      <trkpt lat="46.85608" lon="4.96202">
        <ele>247.2</ele>
        <time>2015-07-14T11:18:55.000Z</time>
      </trkpt>
      <trkpt lat="46.85596" lon="4.96213">
        <ele>247.2</ele>
        <time>2015-07-14T11:18:58.000Z</time>
      </trkpt>
      <trkpt lat="46.85588" lon="4.9622">
        <ele>247.2</ele>
        <time>2015-07-14T11:19:00.000Z</time>
      </trkpt>
      <trkpt lat="46.8558" lon="4.96227">
        <ele>246.72</ele>
        <time>2015-07-14T11:19:02.000Z</time>
      </trkpt>
      <trkpt lat="46.85573" lon="4.96234">
        <ele>247.2</ele>
        <time>2015-07-14T11:19:04.000Z</time>
      </trkpt>
      <trkpt lat="46.85561" lon="4.96243">
        <ele>247.2</ele>
        <time>2015-07-14T11:19:07.000Z</time>
      </trkpt>
      <trkpt lat="46.8555" lon="4.96253">
        <ele>247.2</ele>
        <time>2015-07-14T11:19:10.000Z</time>
      </trkpt>
      <trkpt lat="46.85542" lon="4.96259">
        <ele>247.2</ele>
        <time>2015-07-14T11:19:12.000Z</time>
      </trkpt>
      <trkpt lat="46.85533" lon="4.96266">
        <ele>247.2</ele>
        <time>2015-07-14T11:19:14.000Z</time>
      </trkpt>
      <trkpt lat="46.85525" lon="4.96272">
        <ele>246.72</ele>
        <time>2015-07-14T11:19:16.000Z</time>
      </trkpt>
      <trkpt lat="46.85516" lon="4.96278">
        <ele>246.72</ele>
        <time>2015-07-14T11:19:18.000Z</time>
      </trkpt>
      <trkpt lat="46.85506" lon="4.96284">
        <ele>246.72</ele>
        <time>2015-07-14T11:19:20.000Z</time>
      </trkpt>
      <trkpt lat="46.85497" lon="4.96289">
        <ele>246.72</ele>
        <time>2015-07-14T11:19:22.000Z</time>
      </trkpt>
      <trkpt lat="46.85487" lon="4.96294">
        <ele>246.72</ele>
        <time>2015-07-14T11:19:24.000Z</time>
      </trkpt>
      <trkpt lat="46.85477" lon="4.96298">
        <ele>246.23</ele>
        <time>2015-07-14T11:19:26.000Z</time>
      </trkpt>
      <trkpt lat="46.85468" lon="4.96302">
        <ele>246.72</ele>
        <time>2015-07-14T11:19:28.000Z</time>
      </trkpt>
      <trkpt lat="46.85458" lon="4.96306">
        <ele>246.23</ele>
        <time>2015-07-14T11:19:30.000Z</time>
      </trkpt>
      <trkpt lat="46.85447" lon="4.96309">
        <ele>246.72</ele>
        <time>2015-07-14T11:19:32.000Z</time>
      </trkpt>
      <trkpt lat="46.85437" lon="4.96311">
        <ele>246.72</ele>
        <time>2015-07-14T11:19:34.000Z</time>
      </trkpt>
      <trkpt lat="46.85427" lon="4.96311">
        <ele>246.72</ele>
        <time>2015-07-14T11:19:36.000Z</time>
      </trkpt>
      <trkpt lat="46.85418" lon="4.96312">
        <ele>246.72</ele>
        <time>2015-07-14T11:19:38.000Z</time>
      </trkpt>
      <trkpt lat="46.85408" lon="4.96313">
        <ele>246.72</ele>
        <time>2015-07-14T11:19:40.000Z</time>
      </trkpt>
      <trkpt lat="46.85398" lon="4.96313">
        <ele>246.72</ele>
        <time>2015-07-14T11:19:42.000Z</time>
      </trkpt>
      <trkpt lat="46.85388" lon="4.96314">
        <ele>246.23</ele>
        <time>2015-07-14T11:19:44.000Z</time>
      </trkpt>
      <trkpt lat="46.85378" lon="4.96313">
        <ele>246.23</ele>
        <time>2015-07-14T11:19:46.000Z</time>
      </trkpt>
      <trkpt lat="46.85368" lon="4.96311">
        <ele>246.23</ele>
        <time>2015-07-14T11:19:48.000Z</time>
      </trkpt>
      <trkpt lat="46.85358" lon="4.96307">
        <ele>246.72</ele>
        <time>2015-07-14T11:19:50.000Z</time>
      </trkpt>
      <trkpt lat="46.85348" lon="4.96303">
        <ele>246.72</ele>
        <time>2015-07-14T11:19:52.000Z</time>
      </trkpt>
      <trkpt lat="46.85338" lon="4.96299">
        <ele>246.72</ele>
        <time>2015-07-14T11:19:54.000Z</time>
      </trkpt>
      <trkpt lat="46.85329" lon="4.96294">
        <ele>246.72</ele>
        <time>2015-07-14T11:19:56.000Z</time>
      </trkpt>
      <trkpt lat="46.8532" lon="4.96289">
        <ele>246.72</ele>
        <time>2015-07-14T11:19:58.000Z</time>
      </trkpt>
      <trkpt lat="46.85311" lon="4.96284">
        <ele>247.2</ele>
        <time>2015-07-14T11:20:00.000Z</time>
      </trkpt>
      <trkpt lat="46.85302" lon="4.96279">
        <ele>246.72</ele>
        <time>2015-07-14T11:20:02.000Z</time>
      </trkpt>
      <trkpt lat="46.85292" lon="4.96273">
        <ele>246.72</ele>
        <time>2015-07-14T11:20:04.000Z</time>
      </trkpt>
      <trkpt lat="46.85283" lon="4.96267">
        <ele>246.72</ele>
        <time>2015-07-14T11:20:06.000Z</time>
      </trkpt>
      <trkpt lat="46.85273" lon="4.96262">
        <ele>246.72</ele>
        <time>2015-07-14T11:20:08.000Z</time>
      </trkpt>
      <trkpt lat="46.85264" lon="4.96256">
        <ele>246.23</ele>
        <time>2015-07-14T11:20:10.000Z</time>
      </trkpt>
      <trkpt lat="46.85254" lon="4.96251">
        <ele>246.23</ele>
        <time>2015-07-14T11:20:12.000Z</time>
      </trkpt>
      <trkpt lat="46.85244" lon="4.96245">
        <ele>246.23</ele>
        <time>2015-07-14T11:20:14.000Z</time>
      </trkpt>
      <trkpt lat="46.85235" lon="4.9624">
        <ele>246.72</ele>
        <time>2015-07-14T11:20:16.000Z</time>
      </trkpt>
      <trkpt lat="46.85225" lon="4.96235">
        <ele>246.23</ele>
        <time>2015-07-14T11:20:18.000Z</time>
      </trkpt>
      <trkpt lat="46.85215" lon="4.9623">
        <ele>246.72</ele>
        <time>2015-07-14T11:20:20.000Z</time>
      </trkpt>
      <trkpt lat="46.85205" lon="4.96225">
        <ele>246.72</ele>
        <time>2015-07-14T11:20:22.000Z</time>
      </trkpt>
      <trkpt lat="46.85196" lon="4.9622">
        <ele>246.23</ele>
        <time>2015-07-14T11:20:24.000Z</time>
      </trkpt>
      <trkpt lat="46.85187" lon="4.96215">
        <ele>246.72</ele>
        <time>2015-07-14T11:20:26.000Z</time>
      </trkpt>
      <trkpt lat="46.85178" lon="4.9621">
        <ele>246.72</ele>
        <time>2015-07-14T11:20:28.000Z</time>
      </trkpt>
      <trkpt lat="46.85169" lon="4.96205">
        <ele>246.72</ele>
        <time>2015-07-14T11:20:30.000Z</time>
      </trkpt>
      <trkpt lat="46.8516" lon="4.96201">
        <ele>246.72</ele>
        <time>2015-07-14T11:20:32.000Z</time>
      </trkpt>
      <trkpt lat="46.85151" lon="4.96196">
        <ele>246.72</ele>
        <time>2015-07-14T11:20:34.000Z</time>
      </trkpt>
      <trkpt lat="46.85142" lon="4.96192">
        <ele>246.72</ele>
        <time>2015-07-14T11:20:36.000Z</time>
      </trkpt>
      <trkpt lat="46.85132" lon="4.96187">
        <ele>246.72</ele>
        <time>2015-07-14T11:20:38.000Z</time>
      </trkpt>
      <trkpt lat="46.85123" lon="4.96182">
        <ele>246.72</ele>
        <time>2015-07-14T11:20:40.000Z</time>
      </trkpt>
      <trkpt lat="46.85114" lon="4.96178">
        <ele>246.72</ele>
        <time>2015-07-14T11:20:42.000Z</time>
      </trkpt>
      <trkpt lat="46.85105" lon="4.96174">
        <ele>247.2</ele>
        <time>2015-07-14T11:20:44.000Z</time>
      </trkpt>
      <trkpt lat="46.85096" lon="4.9617">
        <ele>246.72</ele>
        <time>2015-07-14T11:20:46.000Z</time>
      </trkpt>
      <trkpt lat="46.85087" lon="4.96167">
        <ele>246.23</ele>
        <time>2015-07-14T11:20:48.000Z</time>
      </trkpt>
      <trkpt lat="46.85078" lon="4.96164">
        <ele>246.23</ele>
        <time>2015-07-14T11:20:50.000Z</time>
      </trkpt>
      <trkpt lat="46.85069" lon="4.9616">
        <ele>245.75</ele>
        <time>2015-07-14T11:20:52.000Z</time>
      </trkpt>
      <trkpt lat="46.85059" lon="4.96158">
        <ele>247.2</ele>
        <time>2015-07-14T11:20:54.000Z</time>
      </trkpt>
      <trkpt lat="46.85047" lon="4.96155">
        <ele>246.23</ele>
        <time>2015-07-14T11:20:57.000Z</time>
      </trkpt>
      <trkpt lat="46.85035" lon="4.96152">
        <ele>246.23</ele>
        <time>2015-07-14T11:21:00.000Z</time>
      </trkpt>
      <trkpt lat="46.85025" lon="4.9615">
        <ele>246.23</ele>
        <time>2015-07-14T11:21:02.000Z</time>
      </trkpt>
      <trkpt lat="46.85016" lon="4.96149">
        <ele>246.23</ele>
        <time>2015-07-14T11:21:04.000Z</time>
      </trkpt>
      <trkpt lat="46.85006" lon="4.96149">
        <ele>246.23</ele>
        <time>2015-07-14T11:21:06.000Z</time>
      </trkpt>
      <trkpt lat="46.84996" lon="4.96147">
        <ele>246.23</ele>
        <time>2015-07-14T11:21:08.000Z</time>
      </trkpt>
      <trkpt lat="46.84986" lon="4.96146">
        <ele>246.23</ele>
        <time>2015-07-14T11:21:10.000Z</time>
      </trkpt>
      <trkpt lat="46.84976" lon="4.96145">
        <ele>246.72</ele>
        <time>2015-07-14T11:21:12.000Z</time>
      </trkpt>
      <trkpt lat="46.84967" lon="4.96144">
        <ele>247.2</ele>
        <time>2015-07-14T11:21:14.000Z</time>
      </trkpt>
      <trkpt lat="46.84957" lon="4.96143">
        <ele>246.72</ele>
        <time>2015-07-14T11:21:16.000Z</time>
      </trkpt>
      <trkpt lat="46.84947" lon="4.96143">
        <ele>247.2</ele>
        <time>2015-07-14T11:21:18.000Z</time>
      </trkpt>
      <trkpt lat="46.84937" lon="4.96142">
        <ele>247.2</ele>
        <time>2015-07-14T11:21:20.000Z</time>
      </trkpt>
      <trkpt lat="46.84928" lon="4.96142">
        <ele>247.68</ele>
        <time>2015-07-14T11:21:22.000Z</time>
      </trkpt>
      <trkpt lat="46.84919" lon="4.96143">
        <ele>247.68</ele>
        <time>2015-07-14T11:21:24.000Z</time>
      </trkpt>
      <trkpt lat="46.84909" lon="4.96143">
        <ele>247.68</ele>
        <time>2015-07-14T11:21:26.000Z</time>
      </trkpt>
      <trkpt lat="46.849" lon="4.96143">
        <ele>247.68</ele>
        <time>2015-07-14T11:21:28.000Z</time>
      </trkpt>
      <trkpt lat="46.84891" lon="4.96144">
        <ele>247.68</ele>
        <time>2015-07-14T11:21:30.000Z</time>
      </trkpt>
      <trkpt lat="46.84881" lon="4.96146">
        <ele>247.68</ele>
        <time>2015-07-14T11:21:32.000Z</time>
      </trkpt>
      <trkpt lat="46.84871" lon="4.96148">
        <ele>247.68</ele>
        <time>2015-07-14T11:21:34.000Z</time>
      </trkpt>
      <trkpt lat="46.84862" lon="4.96152">
        <ele>247.68</ele>
        <time>2015-07-14T11:21:36.000Z</time>
      </trkpt>
      <trkpt lat="46.84852" lon="4.96156">
        <ele>247.68</ele>
        <time>2015-07-14T11:21:38.000Z</time>
      </trkpt>
      <trkpt lat="46.84843" lon="4.9616">
        <ele>248.16</ele>
        <time>2015-07-14T11:21:40.000Z</time>
      </trkpt>
      <trkpt lat="46.84833" lon="4.96165">
        <ele>247.68</ele>
        <time>2015-07-14T11:21:42.000Z</time>
      </trkpt>
      <trkpt lat="46.84824" lon="4.96171">
        <ele>247.68</ele>
        <time>2015-07-14T11:21:44.000Z</time>
      </trkpt>
      <trkpt lat="46.84814" lon="4.96176">
        <ele>247.2</ele>
        <time>2015-07-14T11:21:46.000Z</time>
      </trkpt>
      <trkpt lat="46.84805" lon="4.9618">
        <ele>247.68</ele>
        <time>2015-07-14T11:21:48.000Z</time>
      </trkpt>
      <trkpt lat="46.84795" lon="4.96184">
        <ele>247.68</ele>
        <time>2015-07-14T11:21:50.000Z</time>
      </trkpt>
      <trkpt lat="46.84786" lon="4.96189">
        <ele>247.68</ele>
        <time>2015-07-14T11:21:52.000Z</time>
      </trkpt>
      <trkpt lat="46.84776" lon="4.96194">
        <ele>247.68</ele>
        <time>2015-07-14T11:21:54.000Z</time>
      </trkpt>
      <trkpt lat="46.84766" lon="4.96198">
        <ele>247.68</ele>
        <time>2015-07-14T11:21:56.000Z</time>
      </trkpt>
      <trkpt lat="46.84756" lon="4.96203">
        <ele>247.68</ele>
        <time>2015-07-14T11:21:58.000Z</time>
      </trkpt>
      <trkpt lat="46.84746" lon="4.96208">
        <ele>247.68</ele>
        <time>2015-07-14T11:22:00.000Z</time>
      </trkpt>
      <trkpt lat="46.84736" lon="4.96212">
        <ele>247.68</ele>
        <time>2015-07-14T11:22:02.000Z</time>
      </trkpt>
      <trkpt lat="46.84726" lon="4.96216">
        <ele>248.16</ele>
        <time>2015-07-14T11:22:04.000Z</time>
      </trkpt>
      <trkpt lat="46.84716" lon="4.96221">
        <ele>248.16</ele>
        <time>2015-07-14T11:22:06.000Z</time>
      </trkpt>
      <trkpt lat="46.84707" lon="4.96226">
        <ele>248.16</ele>
        <time>2015-07-14T11:22:08.000Z</time>
      </trkpt>
      <trkpt lat="46.84697" lon="4.96229">
        <ele>248.16</ele>
        <time>2015-07-14T11:22:10.000Z</time>
      </trkpt>
      <trkpt lat="46.84688" lon="4.96233">
        <ele>248.16</ele>
        <time>2015-07-14T11:22:12.000Z</time>
      </trkpt>
      <trkpt lat="46.84678" lon="4.96237">
        <ele>248.16</ele>
        <time>2015-07-14T11:22:14.000Z</time>
      </trkpt>
      <trkpt lat="46.84669" lon="4.9624">
        <ele>248.16</ele>
        <time>2015-07-14T11:22:16.000Z</time>
      </trkpt>
      <trkpt lat="46.84659" lon="4.96243">
        <ele>248.16</ele>
        <time>2015-07-14T11:22:18.000Z</time>
      </trkpt>
      <trkpt lat="46.8465" lon="4.96247">
        <ele>248.64</ele>
        <time>2015-07-14T11:22:20.000Z</time>
      </trkpt>
      <trkpt lat="46.8464" lon="4.96251">
        <ele>248.64</ele>
        <time>2015-07-14T11:22:22.000Z</time>
      </trkpt>
      <trkpt lat="46.84631" lon="4.96253">
        <ele>249.12</ele>
        <time>2015-07-14T11:22:24.000Z</time>
      </trkpt>
      <trkpt lat="46.84621" lon="4.96256">
        <ele>248.64</ele>
        <time>2015-07-14T11:22:26.000Z</time>
      </trkpt>
      <trkpt lat="46.84612" lon="4.96258">
        <ele>248.16</ele>
        <time>2015-07-14T11:22:28.000Z</time>
      </trkpt>
      <trkpt lat="46.84602" lon="4.96261">
        <ele>248.16</ele>
        <time>2015-07-14T11:22:30.000Z</time>
      </trkpt>
      <trkpt lat="46.84592" lon="4.96265">
        <ele>248.16</ele>
        <time>2015-07-14T11:22:32.000Z</time>
      </trkpt>
      <trkpt lat="46.84583" lon="4.96268">
        <ele>248.16</ele>
        <time>2015-07-14T11:22:34.000Z</time>
      </trkpt>
      <trkpt lat="46.84573" lon="4.96271">
        <ele>248.16</ele>
        <time>2015-07-14T11:22:36.000Z</time>
      </trkpt>
      <trkpt lat="46.84563" lon="4.96274">
        <ele>248.64</ele>
        <time>2015-07-14T11:22:38.000Z</time>
      </trkpt>
      <trkpt lat="46.84552" lon="4.96277">
        <ele>248.64</ele>
        <time>2015-07-14T11:22:40.000Z</time>
      </trkpt>
      <trkpt lat="46.84543" lon="4.9628">
        <ele>248.16</ele>
        <time>2015-07-14T11:22:42.000Z</time>
      </trkpt>
      <trkpt lat="46.84533" lon="4.96283">
        <ele>248.16</ele>
        <time>2015-07-14T11:22:44.000Z</time>
      </trkpt>
      <trkpt lat="46.84523" lon="4.96285">
        <ele>248.16</ele>
        <time>2015-07-14T11:22:46.000Z</time>
      </trkpt>
      <trkpt lat="46.84513" lon="4.96287">
        <ele>248.16</ele>
        <time>2015-07-14T11:22:48.000Z</time>
      </trkpt>
      <trkpt lat="46.84503" lon="4.96288">
        <ele>247.68</ele>
        <time>2015-07-14T11:22:50.000Z</time>
      </trkpt>
      <trkpt lat="46.84492" lon="4.96287">
        <ele>248.16</ele>
        <time>2015-07-14T11:22:52.000Z</time>
      </trkpt>
      <trkpt lat="46.84482" lon="4.96286">
        <ele>247.68</ele>
        <time>2015-07-14T11:22:54.000Z</time>
      </trkpt>
      <trkpt lat="46.84472" lon="4.96285">
        <ele>247.68</ele>
        <time>2015-07-14T11:22:56.000Z</time>
      </trkpt>
      <trkpt lat="46.84463" lon="4.96283">
        <ele>247.68</ele>
        <time>2015-07-14T11:22:58.000Z</time>
      </trkpt>
      <trkpt lat="46.84453" lon="4.9628">
        <ele>248.16</ele>
        <time>2015-07-14T11:23:00.000Z</time>
      </trkpt>
      <trkpt lat="46.84444" lon="4.96278">
        <ele>248.16</ele>
        <time>2015-07-14T11:23:02.000Z</time>
      </trkpt>
      <trkpt lat="46.84435" lon="4.96275">
        <ele>248.16</ele>
        <time>2015-07-14T11:23:04.000Z</time>
      </trkpt>
      <trkpt lat="46.84425" lon="4.96272">
        <ele>248.16</ele>
        <time>2015-07-14T11:23:06.000Z</time>
      </trkpt>
      <trkpt lat="46.84415" lon="4.96269">
        <ele>248.16</ele>
        <time>2015-07-14T11:23:08.000Z</time>
      </trkpt>
      <trkpt lat="46.84406" lon="4.96267">
        <ele>248.16</ele>
        <time>2015-07-14T11:23:10.000Z</time>
      </trkpt>
      <trkpt lat="46.84396" lon="4.96264">
        <ele>247.68</ele>
        <time>2015-07-14T11:23:12.000Z</time>
      </trkpt>
      <trkpt lat="46.84386" lon="4.96261">
        <ele>248.16</ele>
        <time>2015-07-14T11:23:14.000Z</time>
      </trkpt>
      <trkpt lat="46.84377" lon="4.96258">
        <ele>248.16</ele>
        <time>2015-07-14T11:23:16.000Z</time>
      </trkpt>
      <trkpt lat="46.84367" lon="4.96255">
        <ele>248.16</ele>
        <time>2015-07-14T11:23:18.000Z</time>
      </trkpt>
      <trkpt lat="46.84357" lon="4.96252">
        <ele>247.68</ele>
        <time>2015-07-14T11:23:20.000Z</time>
      </trkpt>
      <trkpt lat="46.84349" lon="4.9625">
        <ele>247.68</ele>
        <time>2015-07-14T11:23:22.000Z</time>
      </trkpt>
      <trkpt lat="46.84335" lon="4.96246">
        <ele>247.2</ele>
        <time>2015-07-14T11:23:25.000Z</time>
      </trkpt>
      <trkpt lat="46.84323" lon="4.96242">
        <ele>247.2</ele>
        <time>2015-07-14T11:23:28.000Z</time>
      </trkpt>
      <trkpt lat="46.84314" lon="4.96239">
        <ele>246.72</ele>
        <time>2015-07-14T11:23:30.000Z</time>
      </trkpt>
      <trkpt lat="46.84305" lon="4.96237">
        <ele>246.72</ele>
        <time>2015-07-14T11:23:32.000Z</time>
      </trkpt>
      <trkpt lat="46.84296" lon="4.96233">
        <ele>247.2</ele>
        <time>2015-07-14T11:23:34.000Z</time>
      </trkpt>
      <trkpt lat="46.84286" lon="4.96227">
        <ele>247.2</ele>
        <time>2015-07-14T11:23:36.000Z</time>
      </trkpt>
      <trkpt lat="46.84277" lon="4.96219">
        <ele>247.2</ele>
        <time>2015-07-14T11:23:38.000Z</time>
      </trkpt>
      <trkpt lat="46.84268" lon="4.96212">
        <ele>247.2</ele>
        <time>2015-07-14T11:23:40.000Z</time>
      </trkpt>
      <trkpt lat="46.84259" lon="4.96205">
        <ele>246.72</ele>
        <time>2015-07-14T11:23:42.000Z</time>
      </trkpt>
      <trkpt lat="46.84251" lon="4.96197">
        <ele>247.2</ele>
        <time>2015-07-14T11:23:44.000Z</time>
      </trkpt>
      <trkpt lat="46.84243" lon="4.96189">
        <ele>247.2</ele>
        <time>2015-07-14T11:23:46.000Z</time>
      </trkpt>
      <trkpt lat="46.84236" lon="4.96181">
        <ele>247.2</ele>
        <time>2015-07-14T11:23:48.000Z</time>
      </trkpt>
      <trkpt lat="46.84228" lon="4.96173">
        <ele>247.2</ele>
        <time>2015-07-14T11:23:50.000Z</time>
      </trkpt>
      <trkpt lat="46.8422" lon="4.96166">
        <ele>247.2</ele>
        <time>2015-07-14T11:23:52.000Z</time>
      </trkpt>
      <trkpt lat="46.84212" lon="4.96159">
        <ele>247.2</ele>
        <time>2015-07-14T11:23:54.000Z</time>
      </trkpt>
      <trkpt lat="46.84205" lon="4.96151">
        <ele>247.2</ele>
        <time>2015-07-14T11:23:56.000Z</time>
      </trkpt>
      <trkpt lat="46.84197" lon="4.96144">
        <ele>247.2</ele>
        <time>2015-07-14T11:23:58.000Z</time>
      </trkpt>
      <trkpt lat="46.84188" lon="4.96137">
        <ele>247.2</ele>
        <time>2015-07-14T11:24:00.000Z</time>
      </trkpt>
      <trkpt lat="46.8418" lon="4.9613">
        <ele>247.68</ele>
        <time>2015-07-14T11:24:02.000Z</time>
      </trkpt>
      <trkpt lat="46.84172" lon="4.96123">
        <ele>247.2</ele>
        <time>2015-07-14T11:24:04.000Z</time>
      </trkpt>
      <trkpt lat="46.84164" lon="4.96116">
        <ele>247.2</ele>
        <time>2015-07-14T11:24:06.000Z</time>
      </trkpt>
      <trkpt lat="46.84156" lon="4.96108">
        <ele>247.68</ele>
        <time>2015-07-14T11:24:08.000Z</time>
      </trkpt>
      <trkpt lat="46.84147" lon="4.961">
        <ele>247.2</ele>
        <time>2015-07-14T11:24:10.000Z</time>
      </trkpt>
      <trkpt lat="46.84139" lon="4.96092">
        <ele>247.68</ele>
        <time>2015-07-14T11:24:12.000Z</time>
      </trkpt>
      <trkpt lat="46.84132" lon="4.96084">
        <ele>247.68</ele>
        <time>2015-07-14T11:24:14.000Z</time>
      </trkpt>
      <trkpt lat="46.84124" lon="4.96076">
        <ele>247.68</ele>
        <time>2015-07-14T11:24:16.000Z</time>
      </trkpt>
      <trkpt lat="46.84116" lon="4.96069">
        <ele>247.68</ele>
        <time>2015-07-14T11:24:18.000Z</time>
      </trkpt>
      <trkpt lat="46.84108" lon="4.96061">
        <ele>247.68</ele>
        <time>2015-07-14T11:24:20.000Z</time>
      </trkpt>
      <trkpt lat="46.841" lon="4.96054">
        <ele>247.68</ele>
        <time>2015-07-14T11:24:22.000Z</time>
      </trkpt>
      <trkpt lat="46.84091" lon="4.96046">
        <ele>247.68</ele>
        <time>2015-07-14T11:24:24.000Z</time>
      </trkpt>
      <trkpt lat="46.84083" lon="4.96039">
        <ele>248.16</ele>
        <time>2015-07-14T11:24:26.000Z</time>
      </trkpt>
      <trkpt lat="46.84075" lon="4.96031">
        <ele>247.68</ele>
        <time>2015-07-14T11:24:28.000Z</time>
      </trkpt>
      <trkpt lat="46.84067" lon="4.96024">
        <ele>247.68</ele>
        <time>2015-07-14T11:24:30.000Z</time>
      </trkpt>
      <trkpt lat="46.84058" lon="4.96017">
        <ele>247.68</ele>
        <time>2015-07-14T11:24:32.000Z</time>
      </trkpt>
      <trkpt lat="46.8405" lon="4.9601">
        <ele>247.68</ele>
        <time>2015-07-14T11:24:34.000Z</time>
      </trkpt>
      <trkpt lat="46.84041" lon="4.96003">
        <ele>247.68</ele>
        <time>2015-07-14T11:24:36.000Z</time>
      </trkpt>
      <trkpt lat="46.84033" lon="4.95996">
        <ele>247.68</ele>
        <time>2015-07-14T11:24:38.000Z</time>
      </trkpt>
      <trkpt lat="46.84025" lon="4.95989">
        <ele>247.68</ele>
        <time>2015-07-14T11:24:40.000Z</time>
      </trkpt>
      <trkpt lat="46.84016" lon="4.95982">
        <ele>247.68</ele>
        <time>2015-07-14T11:24:42.000Z</time>
      </trkpt>
      <trkpt lat="46.84008" lon="4.95974">
        <ele>247.68</ele>
        <time>2015-07-14T11:24:44.000Z</time>
      </trkpt>
      <trkpt lat="46.83998" lon="4.95966">
        <ele>247.68</ele>
        <time>2015-07-14T11:24:46.000Z</time>
      </trkpt>
      <trkpt lat="46.8399" lon="4.95959">
        <ele>247.68</ele>
        <time>2015-07-14T11:24:48.000Z</time>
      </trkpt>
      <trkpt lat="46.83981" lon="4.95951">
        <ele>247.68</ele>
        <time>2015-07-14T11:24:50.000Z</time>
      </trkpt>
      <trkpt lat="46.83973" lon="4.95943">
        <ele>247.68</ele>
        <time>2015-07-14T11:24:52.000Z</time>
      </trkpt>
      <trkpt lat="46.83964" lon="4.95935">
        <ele>247.68</ele>
        <time>2015-07-14T11:24:54.000Z</time>
      </trkpt>
      <trkpt lat="46.83955" lon="4.95927">
        <ele>248.16</ele>
        <time>2015-07-14T11:24:56.000Z</time>
      </trkpt>
      <trkpt lat="46.83948" lon="4.95918">
        <ele>246.72</ele>
        <time>2015-07-14T11:24:58.000Z</time>
      </trkpt>
      <trkpt lat="46.83939" lon="4.95905">
        <ele>246.72</ele>
        <time>2015-07-14T11:25:01.000Z</time>
      </trkpt>
      <trkpt lat="46.83932" lon="4.95896">
        <ele>247.2</ele>
        <time>2015-07-14T11:25:03.000Z</time>
      </trkpt>
      <trkpt lat="46.83924" lon="4.95888">
        <ele>246.72</ele>
        <time>2015-07-14T11:25:05.000Z</time>
      </trkpt>
      <trkpt lat="46.83916" lon="4.95879">
        <ele>247.2</ele>
        <time>2015-07-14T11:25:07.000Z</time>
      </trkpt>
      <trkpt lat="46.83909" lon="4.95869">
        <ele>246.72</ele>
        <time>2015-07-14T11:25:09.000Z</time>
      </trkpt>
      <trkpt lat="46.83901" lon="4.9586">
        <ele>247.68</ele>
        <time>2015-07-14T11:25:11.000Z</time>
      </trkpt>
      <trkpt lat="46.83894" lon="4.95851">
        <ele>247.68</ele>
        <time>2015-07-14T11:25:13.000Z</time>
      </trkpt>
      <trkpt lat="46.83886" lon="4.95842">
        <ele>248.16</ele>
        <time>2015-07-14T11:25:15.000Z</time>
      </trkpt>
      <trkpt lat="46.83878" lon="4.95834">
        <ele>247.68</ele>
        <time>2015-07-14T11:25:17.000Z</time>
      </trkpt>
      <trkpt lat="46.83869" lon="4.95825">
        <ele>247.2</ele>
        <time>2015-07-14T11:25:19.000Z</time>
      </trkpt>
      <trkpt lat="46.83861" lon="4.95816">
        <ele>248.16</ele>
        <time>2015-07-14T11:25:21.000Z</time>
      </trkpt>
      <trkpt lat="46.83853" lon="4.95807">
        <ele>247.68</ele>
        <time>2015-07-14T11:25:23.000Z</time>
      </trkpt>
      <trkpt lat="46.83845" lon="4.95798">
        <ele>247.2</ele>
        <time>2015-07-14T11:25:25.000Z</time>
      </trkpt>
      <trkpt lat="46.83837" lon="4.9579">
        <ele>247.2</ele>
        <time>2015-07-14T11:25:27.000Z</time>
      </trkpt>
      <trkpt lat="46.83829" lon="4.95781">
        <ele>247.2</ele>
        <time>2015-07-14T11:25:29.000Z</time>
      </trkpt>
      <trkpt lat="46.83821" lon="4.95771">
        <ele>247.2</ele>
        <time>2015-07-14T11:25:31.000Z</time>
      </trkpt>
      <trkpt lat="46.83812" lon="4.95762">
        <ele>246.72</ele>
        <time>2015-07-14T11:25:33.000Z</time>
      </trkpt>
      <trkpt lat="46.83804" lon="4.95753">
        <ele>247.2</ele>
        <time>2015-07-14T11:25:35.000Z</time>
      </trkpt>
      <trkpt lat="46.83796" lon="4.95744">
        <ele>246.72</ele>
        <time>2015-07-14T11:25:37.000Z</time>
      </trkpt>
      <trkpt lat="46.83788" lon="4.95734">
        <ele>247.2</ele>
        <time>2015-07-14T11:25:39.000Z</time>
      </trkpt>
      <trkpt lat="46.83781" lon="4.95722">
        <ele>247.2</ele>
        <time>2015-07-14T11:25:41.000Z</time>
      </trkpt>
      <trkpt lat="46.83775" lon="4.9571">
        <ele>247.2</ele>
        <time>2015-07-14T11:25:43.000Z</time>
      </trkpt>
      <trkpt lat="46.83768" lon="4.95699">
        <ele>247.2</ele>
        <time>2015-07-14T11:25:45.000Z</time>
      </trkpt>
      <trkpt lat="46.83761" lon="4.95688">
        <ele>247.2</ele>
        <time>2015-07-14T11:25:47.000Z</time>
      </trkpt>
      <trkpt lat="46.83754" lon="4.95678">
        <ele>247.2</ele>
        <time>2015-07-14T11:25:49.000Z</time>
      </trkpt>
      <trkpt lat="46.83747" lon="4.95667">
        <ele>247.68</ele>
        <time>2015-07-14T11:25:51.000Z</time>
      </trkpt>
      <trkpt lat="46.8374" lon="4.95656">
        <ele>247.2</ele>
        <time>2015-07-14T11:25:53.000Z</time>
      </trkpt>
      <trkpt lat="46.83732" lon="4.95645">
        <ele>247.68</ele>
        <time>2015-07-14T11:25:55.000Z</time>
      </trkpt>
      <trkpt lat="46.83725" lon="4.95634">
        <ele>247.68</ele>
        <time>2015-07-14T11:25:57.000Z</time>
      </trkpt>
      <trkpt lat="46.83717" lon="4.95623">
        <ele>247.68</ele>
        <time>2015-07-14T11:25:59.000Z</time>
      </trkpt>
      <trkpt lat="46.8371" lon="4.95613">
        <ele>247.2</ele>
        <time>2015-07-14T11:26:01.000Z</time>
      </trkpt>
      <trkpt lat="46.83701" lon="4.95603">
        <ele>247.2</ele>
        <time>2015-07-14T11:26:03.000Z</time>
      </trkpt>
      <trkpt lat="46.83693" lon="4.95593">
        <ele>247.2</ele>
        <time>2015-07-14T11:26:05.000Z</time>
      </trkpt>
      <trkpt lat="46.83685" lon="4.95583">
        <ele>247.2</ele>
        <time>2015-07-14T11:26:07.000Z</time>
      </trkpt>
      <trkpt lat="46.83677" lon="4.95573">
        <ele>247.2</ele>
        <time>2015-07-14T11:26:09.000Z</time>
      </trkpt>
      <trkpt lat="46.83669" lon="4.95564">
        <ele>247.2</ele>
        <time>2015-07-14T11:26:11.000Z</time>
      </trkpt>
      <trkpt lat="46.83661" lon="4.95554">
        <ele>247.2</ele>
        <time>2015-07-14T11:26:13.000Z</time>
      </trkpt>
      <trkpt lat="46.83652" lon="4.95544">
        <ele>247.2</ele>
        <time>2015-07-14T11:26:15.000Z</time>
      </trkpt>
      <trkpt lat="46.83644" lon="4.95535">
        <ele>247.2</ele>
        <time>2015-07-14T11:26:17.000Z</time>
      </trkpt>
      <trkpt lat="46.83635" lon="4.95526">
        <ele>247.2</ele>
        <time>2015-07-14T11:26:19.000Z</time>
      </trkpt>
      <trkpt lat="46.83627" lon="4.95517">
        <ele>247.2</ele>
        <time>2015-07-14T11:26:21.000Z</time>
      </trkpt>
      <trkpt lat="46.83619" lon="4.95507">
        <ele>247.2</ele>
        <time>2015-07-14T11:26:23.000Z</time>
      </trkpt>
      <trkpt lat="46.83611" lon="4.95498">
        <ele>246.72</ele>
        <time>2015-07-14T11:26:25.000Z</time>
      </trkpt>
      <trkpt lat="46.83602" lon="4.95488">
        <ele>247.2</ele>
        <time>2015-07-14T11:26:27.000Z</time>
      </trkpt>
      <trkpt lat="46.83593" lon="4.9548">
        <ele>247.2</ele>
        <time>2015-07-14T11:26:29.000Z</time>
      </trkpt>
      <trkpt lat="46.83585" lon="4.95471">
        <ele>247.2</ele>
        <time>2015-07-14T11:26:31.000Z</time>
      </trkpt>
      <trkpt lat="46.83576" lon="4.95463">
        <ele>247.2</ele>
        <time>2015-07-14T11:26:33.000Z</time>
      </trkpt>
      <trkpt lat="46.83567" lon="4.95455">
        <ele>247.2</ele>
        <time>2015-07-14T11:26:35.000Z</time>
      </trkpt>
      <trkpt lat="46.83559" lon="4.95445">
        <ele>247.2</ele>
        <time>2015-07-14T11:26:37.000Z</time>
      </trkpt>
      <trkpt lat="46.8355" lon="4.95435">
        <ele>246.72</ele>
        <time>2015-07-14T11:26:39.000Z</time>
      </trkpt>
      <trkpt lat="46.83541" lon="4.95427">
        <ele>247.2</ele>
        <time>2015-07-14T11:26:41.000Z</time>
      </trkpt>
      <trkpt lat="46.83533" lon="4.95419">
        <ele>247.2</ele>
        <time>2015-07-14T11:26:43.000Z</time>
      </trkpt>
      <trkpt lat="46.83524" lon="4.95411">
        <ele>247.2</ele>
        <time>2015-07-14T11:26:45.000Z</time>
      </trkpt>
      <trkpt lat="46.83515" lon="4.95402">
        <ele>247.2</ele>
        <time>2015-07-14T11:26:47.000Z</time>
      </trkpt>
      <trkpt lat="46.83506" lon="4.95393">
        <ele>247.2</ele>
        <time>2015-07-14T11:26:49.000Z</time>
      </trkpt>
      <trkpt lat="46.83498" lon="4.95384">
        <ele>247.2</ele>
        <time>2015-07-14T11:26:51.000Z</time>
      </trkpt>
      <trkpt lat="46.83489" lon="4.95375">
        <ele>247.2</ele>
        <time>2015-07-14T11:26:53.000Z</time>
      </trkpt>
      <trkpt lat="46.8348" lon="4.95366">
        <ele>247.2</ele>
        <time>2015-07-14T11:26:55.000Z</time>
      </trkpt>
      <trkpt lat="46.83471" lon="4.95358">
        <ele>247.2</ele>
        <time>2015-07-14T11:26:57.000Z</time>
      </trkpt>
      <trkpt lat="46.83463" lon="4.95348">
        <ele>246.72</ele>
        <time>2015-07-14T11:26:59.000Z</time>
      </trkpt>
      <trkpt lat="46.83454" lon="4.95339">
        <ele>247.2</ele>
        <time>2015-07-14T11:27:01.000Z</time>
      </trkpt>
      <trkpt lat="46.83445" lon="4.9533">
        <ele>246.72</ele>
        <time>2015-07-14T11:27:03.000Z</time>
      </trkpt>
      <trkpt lat="46.83437" lon="4.9532">
        <ele>246.72</ele>
        <time>2015-07-14T11:27:05.000Z</time>
      </trkpt>
      <trkpt lat="46.83428" lon="4.95309">
        <ele>247.2</ele>
        <time>2015-07-14T11:27:07.000Z</time>
      </trkpt>
      <trkpt lat="46.8342" lon="4.95299">
        <ele>247.2</ele>
        <time>2015-07-14T11:27:09.000Z</time>
      </trkpt>
      <trkpt lat="46.83411" lon="4.95289">
        <ele>247.2</ele>
        <time>2015-07-14T11:27:11.000Z</time>
      </trkpt>
      <trkpt lat="46.83403" lon="4.95279">
        <ele>247.2</ele>
        <time>2015-07-14T11:27:13.000Z</time>
      </trkpt>
      <trkpt lat="46.83395" lon="4.95269">
        <ele>246.72</ele>
        <time>2015-07-14T11:27:15.000Z</time>
      </trkpt>
      <trkpt lat="46.83387" lon="4.9526">
        <ele>246.72</ele>
        <time>2015-07-14T11:27:17.000Z</time>
      </trkpt>
      <trkpt lat="46.83379" lon="4.95249">
        <ele>246.23</ele>
        <time>2015-07-14T11:27:19.000Z</time>
      </trkpt>
      <trkpt lat="46.83371" lon="4.95239">
        <ele>246.72</ele>
        <time>2015-07-14T11:27:21.000Z</time>
      </trkpt>
      <trkpt lat="46.83363" lon="4.95229">
        <ele>246.72</ele>
        <time>2015-07-14T11:27:23.000Z</time>
      </trkpt>
      <trkpt lat="46.83355" lon="4.95219">
        <ele>246.72</ele>
        <time>2015-07-14T11:27:25.000Z</time>
      </trkpt>
      <trkpt lat="46.83347" lon="4.95209">
        <ele>246.72</ele>
        <time>2015-07-14T11:27:27.000Z</time>
      </trkpt>
      <trkpt lat="46.83339" lon="4.95198">
        <ele>247.2</ele>
        <time>2015-07-14T11:27:29.000Z</time>
      </trkpt>
      <trkpt lat="46.83331" lon="4.95188">
        <ele>247.2</ele>
        <time>2015-07-14T11:27:31.000Z</time>
      </trkpt>
      <trkpt lat="46.83322" lon="4.95177">
        <ele>247.2</ele>
        <time>2015-07-14T11:27:33.000Z</time>
      </trkpt>
      <trkpt lat="46.83314" lon="4.95168">
        <ele>247.2</ele>
        <time>2015-07-14T11:27:35.000Z</time>
      </trkpt>
      <trkpt lat="46.83305" lon="4.95159">
        <ele>247.2</ele>
        <time>2015-07-14T11:27:37.000Z</time>
      </trkpt>
      <trkpt lat="46.83297" lon="4.95149">
        <ele>247.2</ele>
        <time>2015-07-14T11:27:39.000Z</time>
      </trkpt>
      <trkpt lat="46.83289" lon="4.95139">
        <ele>247.2</ele>
        <time>2015-07-14T11:27:41.000Z</time>
      </trkpt>
      <trkpt lat="46.83281" lon="4.95129">
        <ele>247.2</ele>
        <time>2015-07-14T11:27:43.000Z</time>
      </trkpt>
      <trkpt lat="46.83272" lon="4.9512">
        <ele>247.2</ele>
        <time>2015-07-14T11:27:45.000Z</time>
      </trkpt>
      <trkpt lat="46.83263" lon="4.95111">
        <ele>246.72</ele>
        <time>2015-07-14T11:27:47.000Z</time>
      </trkpt>
      <trkpt lat="46.83255" lon="4.95102">
        <ele>246.72</ele>
        <time>2015-07-14T11:27:49.000Z</time>
      </trkpt>
      <trkpt lat="46.83247" lon="4.95091">
        <ele>247.2</ele>
        <time>2015-07-14T11:27:51.000Z</time>
      </trkpt>
      <trkpt lat="46.83239" lon="4.95082">
        <ele>246.72</ele>
        <time>2015-07-14T11:27:53.000Z</time>
      </trkpt>
      <trkpt lat="46.8323" lon="4.95073">
        <ele>247.2</ele>
        <time>2015-07-14T11:27:55.000Z</time>
      </trkpt>
      <trkpt lat="46.83222" lon="4.95064">
        <ele>246.72</ele>
        <time>2015-07-14T11:27:57.000Z</time>
      </trkpt>
      <trkpt lat="46.83213" lon="4.95055">
        <ele>247.2</ele>
        <time>2015-07-14T11:27:59.000Z</time>
      </trkpt>
      <trkpt lat="46.83204" lon="4.95045">
        <ele>247.2</ele>
        <time>2015-07-14T11:28:01.000Z</time>
      </trkpt>
      <trkpt lat="46.83196" lon="4.95036">
        <ele>247.2</ele>
        <time>2015-07-14T11:28:03.000Z</time>
      </trkpt>
      <trkpt lat="46.83189" lon="4.95027">
        <ele>247.2</ele>
        <time>2015-07-14T11:28:05.000Z</time>
      </trkpt>
      <trkpt lat="46.83181" lon="4.95017">
        <ele>247.2</ele>
        <time>2015-07-14T11:28:07.000Z</time>
      </trkpt>
      <trkpt lat="46.83173" lon="4.95006">
        <ele>247.2</ele>
        <time>2015-07-14T11:28:09.000Z</time>
      </trkpt>
      <trkpt lat="46.83165" lon="4.94995">
        <ele>247.2</ele>
        <time>2015-07-14T11:28:11.000Z</time>
      </trkpt>
      <trkpt lat="46.83157" lon="4.94984">
        <ele>247.2</ele>
        <time>2015-07-14T11:28:13.000Z</time>
      </trkpt>
      <trkpt lat="46.8315" lon="4.94973">
        <ele>247.2</ele>
        <time>2015-07-14T11:28:15.000Z</time>
      </trkpt>
      <trkpt lat="46.83142" lon="4.94963">
        <ele>247.2</ele>
        <time>2015-07-14T11:28:17.000Z</time>
      </trkpt>
      <trkpt lat="46.83135" lon="4.94952">
        <ele>247.2</ele>
        <time>2015-07-14T11:28:19.000Z</time>
      </trkpt>
      <trkpt lat="46.83128" lon="4.94941">
        <ele>247.2</ele>
        <time>2015-07-14T11:28:21.000Z</time>
      </trkpt>
      <trkpt lat="46.8312" lon="4.94931">
        <ele>246.72</ele>
        <time>2015-07-14T11:28:23.000Z</time>
      </trkpt>
      <trkpt lat="46.83112" lon="4.94921">
        <ele>247.2</ele>
        <time>2015-07-14T11:28:25.000Z</time>
      </trkpt>
      <trkpt lat="46.83104" lon="4.9491">
        <ele>246.23</ele>
        <time>2015-07-14T11:28:27.000Z</time>
      </trkpt>
      <trkpt lat="46.83096" lon="4.94899">
        <ele>246.72</ele>
        <time>2015-07-14T11:28:29.000Z</time>
      </trkpt>
      <trkpt lat="46.83088" lon="4.94888">
        <ele>246.23</ele>
        <time>2015-07-14T11:28:31.000Z</time>
      </trkpt>
      <trkpt lat="46.8308" lon="4.94877">
        <ele>246.23</ele>
        <time>2015-07-14T11:28:33.000Z</time>
      </trkpt>
      <trkpt lat="46.83072" lon="4.94866">
        <ele>246.72</ele>
        <time>2015-07-14T11:28:35.000Z</time>
      </trkpt>
      <trkpt lat="46.83064" lon="4.94854">
        <ele>246.23</ele>
        <time>2015-07-14T11:28:37.000Z</time>
      </trkpt>
      <trkpt lat="46.83057" lon="4.94844">
        <ele>246.72</ele>
        <time>2015-07-14T11:28:39.000Z</time>
      </trkpt>
      <trkpt lat="46.8305" lon="4.94833">
        <ele>246.72</ele>
        <time>2015-07-14T11:28:41.000Z</time>
      </trkpt>
      <trkpt lat="46.83043" lon="4.94822">
        <ele>246.72</ele>
        <time>2015-07-14T11:28:43.000Z</time>
      </trkpt>
      <trkpt lat="46.83035" lon="4.94811">
        <ele>246.72</ele>
        <time>2015-07-14T11:28:45.000Z</time>
      </trkpt>
      <trkpt lat="46.83028" lon="4.948">
        <ele>246.72</ele>
        <time>2015-07-14T11:28:47.000Z</time>
      </trkpt>
      <trkpt lat="46.83021" lon="4.94789">
        <ele>246.72</ele>
        <time>2015-07-14T11:28:49.000Z</time>
      </trkpt>
      <trkpt lat="46.83014" lon="4.94778">
        <ele>247.68</ele>
        <time>2015-07-14T11:28:51.000Z</time>
      </trkpt>
      <trkpt lat="46.83007" lon="4.94767">
        <ele>247.68</ele>
        <time>2015-07-14T11:28:53.000Z</time>
      </trkpt>
      <trkpt lat="46.83" lon="4.94756">
        <ele>247.2</ele>
        <time>2015-07-14T11:28:55.000Z</time>
      </trkpt>
      <trkpt lat="46.82993" lon="4.94745">
        <ele>247.2</ele>
        <time>2015-07-14T11:28:57.000Z</time>
      </trkpt>
      <trkpt lat="46.82985" lon="4.94733">
        <ele>247.2</ele>
        <time>2015-07-14T11:28:59.000Z</time>
      </trkpt>
      <trkpt lat="46.82978" lon="4.94722">
        <ele>246.72</ele>
        <time>2015-07-14T11:29:01.000Z</time>
      </trkpt>
      <trkpt lat="46.8297" lon="4.9471">
        <ele>246.72</ele>
        <time>2015-07-14T11:29:03.000Z</time>
      </trkpt>
      <trkpt lat="46.82962" lon="4.94698">
        <ele>246.72</ele>
        <time>2015-07-14T11:29:05.000Z</time>
      </trkpt>
      <trkpt lat="46.82955" lon="4.94686">
        <ele>247.68</ele>
        <time>2015-07-14T11:29:07.000Z</time>
      </trkpt>
      <trkpt lat="46.82948" lon="4.94674">
        <ele>246.72</ele>
        <time>2015-07-14T11:29:09.000Z</time>
      </trkpt>
      <trkpt lat="46.82941" lon="4.94662">
        <ele>247.2</ele>
        <time>2015-07-14T11:29:11.000Z</time>
      </trkpt>
      <trkpt lat="46.82935" lon="4.9465">
        <ele>248.16</ele>
        <time>2015-07-14T11:29:13.000Z</time>
      </trkpt>
      <trkpt lat="46.82925" lon="4.94632">
        <ele>247.68</ele>
        <time>2015-07-14T11:29:16.000Z</time>
      </trkpt>
      <trkpt lat="46.82919" lon="4.94619">
        <ele>247.2</ele>
        <time>2015-07-14T11:29:18.000Z</time>
      </trkpt>
      <trkpt lat="46.82913" lon="4.94605">
        <ele>247.68</ele>
        <time>2015-07-14T11:29:20.000Z</time>
      </trkpt>
      <trkpt lat="46.82906" lon="4.94592">
        <ele>247.2</ele>
        <time>2015-07-14T11:29:22.000Z</time>
      </trkpt>
      <trkpt lat="46.82899" lon="4.94579">
        <ele>247.2</ele>
        <time>2015-07-14T11:29:24.000Z</time>
      </trkpt>
      <trkpt lat="46.82892" lon="4.94567">
        <ele>247.2</ele>
        <time>2015-07-14T11:29:26.000Z</time>
      </trkpt>
      <trkpt lat="46.82885" lon="4.94554">
        <ele>247.2</ele>
        <time>2015-07-14T11:29:28.000Z</time>
      </trkpt>
      <trkpt lat="46.82878" lon="4.94541">
        <ele>247.68</ele>
        <time>2015-07-14T11:29:30.000Z</time>
      </trkpt>
      <trkpt lat="46.82872" lon="4.94527">
        <ele>247.2</ele>
        <time>2015-07-14T11:29:32.000Z</time>
      </trkpt>
      <trkpt lat="46.82865" lon="4.94515">
        <ele>247.2</ele>
        <time>2015-07-14T11:29:34.000Z</time>
      </trkpt>
      <trkpt lat="46.82858" lon="4.94502">
        <ele>247.68</ele>
        <time>2015-07-14T11:29:36.000Z</time>
      </trkpt>
      <trkpt lat="46.8285" lon="4.94491">
        <ele>247.2</ele>
        <time>2015-07-14T11:29:38.000Z</time>
      </trkpt>
      <trkpt lat="46.82842" lon="4.94479">
        <ele>247.2</ele>
        <time>2015-07-14T11:29:40.000Z</time>
      </trkpt>
      <trkpt lat="46.82835" lon="4.94467">
        <ele>247.2</ele>
        <time>2015-07-14T11:29:42.000Z</time>
      </trkpt>
      <trkpt lat="46.82827" lon="4.94455">
        <ele>246.72</ele>
        <time>2015-07-14T11:29:44.000Z</time>
      </trkpt>
      <trkpt lat="46.82821" lon="4.94443">
        <ele>247.2</ele>
        <time>2015-07-14T11:29:46.000Z</time>
      </trkpt>
      <trkpt lat="46.82814" lon="4.9443">
        <ele>247.2</ele>
        <time>2015-07-14T11:29:48.000Z</time>
      </trkpt>
      <trkpt lat="46.82807" lon="4.94418">
        <ele>246.72</ele>
        <time>2015-07-14T11:29:50.000Z</time>
      </trkpt>
      <trkpt lat="46.828" lon="4.94406">
        <ele>246.23</ele>
        <time>2015-07-14T11:29:52.000Z</time>
      </trkpt>
      <trkpt lat="46.82793" lon="4.94394">
        <ele>244.79</ele>
        <time>2015-07-14T11:29:54.000Z</time>
      </trkpt>
      <trkpt lat="46.82786" lon="4.94383">
        <ele>246.72</ele>
        <time>2015-07-14T11:29:56.000Z</time>
      </trkpt>
      <trkpt lat="46.82779" lon="4.94371">
        <ele>247.2</ele>
        <time>2015-07-14T11:29:58.000Z</time>
      </trkpt>
      <trkpt lat="46.82772" lon="4.9436">
        <ele>246.72</ele>
        <time>2015-07-14T11:30:00.000Z</time>
      </trkpt>
      <trkpt lat="46.82765" lon="4.94349">
        <ele>246.72</ele>
        <time>2015-07-14T11:30:02.000Z</time>
      </trkpt>
      <trkpt lat="46.82758" lon="4.94337">
        <ele>246.72</ele>
        <time>2015-07-14T11:30:04.000Z</time>
      </trkpt>
      <trkpt lat="46.8275" lon="4.94326">
        <ele>246.72</ele>
        <time>2015-07-14T11:30:06.000Z</time>
      </trkpt>
      <trkpt lat="46.82742" lon="4.94315">
        <ele>246.72</ele>
        <time>2015-07-14T11:30:08.000Z</time>
      </trkpt>
      <trkpt lat="46.82734" lon="4.94303">
        <ele>247.2</ele>
        <time>2015-07-14T11:30:10.000Z</time>
      </trkpt>
      <trkpt lat="46.82726" lon="4.94291">
        <ele>247.2</ele>
        <time>2015-07-14T11:30:12.000Z</time>
      </trkpt>
      <trkpt lat="46.82719" lon="4.9428">
        <ele>247.2</ele>
        <time>2015-07-14T11:30:14.000Z</time>
      </trkpt>
      <trkpt lat="46.82711" lon="4.94269">
        <ele>248.16</ele>
        <time>2015-07-14T11:30:16.000Z</time>
      </trkpt>
      <trkpt lat="46.82703" lon="4.94258">
        <ele>247.68</ele>
        <time>2015-07-14T11:30:18.000Z</time>
      </trkpt>
      <trkpt lat="46.82696" lon="4.94247">
        <ele>248.16</ele>
        <time>2015-07-14T11:30:20.000Z</time>
      </trkpt>
      <trkpt lat="46.82687" lon="4.94237">
        <ele>247.68</ele>
        <time>2015-07-14T11:30:22.000Z</time>
      </trkpt>
      <trkpt lat="46.82679" lon="4.94227">
        <ele>247.68</ele>
        <time>2015-07-14T11:30:24.000Z</time>
      </trkpt>
      <trkpt lat="46.82671" lon="4.94216">
        <ele>247.2</ele>
        <time>2015-07-14T11:30:26.000Z</time>
      </trkpt>
      <trkpt lat="46.82663" lon="4.94205">
        <ele>247.2</ele>
        <time>2015-07-14T11:30:28.000Z</time>
      </trkpt>
      <trkpt lat="46.82655" lon="4.94194">
        <ele>247.2</ele>
        <time>2015-07-14T11:30:30.000Z</time>
      </trkpt>
      <trkpt lat="46.82647" lon="4.94184">
        <ele>247.68</ele>
        <time>2015-07-14T11:30:32.000Z</time>
      </trkpt>
      <trkpt lat="46.82639" lon="4.94173">
        <ele>247.2</ele>
        <time>2015-07-14T11:30:34.000Z</time>
      </trkpt>
      <trkpt lat="46.82631" lon="4.94163">
        <ele>246.72</ele>
        <time>2015-07-14T11:30:36.000Z</time>
      </trkpt>
      <trkpt lat="46.82623" lon="4.94152">
        <ele>247.2</ele>
        <time>2015-07-14T11:30:38.000Z</time>
      </trkpt>
      <trkpt lat="46.82615" lon="4.94141">
        <ele>247.2</ele>
        <time>2015-07-14T11:30:40.000Z</time>
      </trkpt>
      <trkpt lat="46.82607" lon="4.94131">
        <ele>247.2</ele>
        <time>2015-07-14T11:30:42.000Z</time>
      </trkpt>
      <trkpt lat="46.82598" lon="4.94121">
        <ele>247.2</ele>
        <time>2015-07-14T11:30:44.000Z</time>
      </trkpt>
      <trkpt lat="46.8259" lon="4.9411">
        <ele>247.68</ele>
        <time>2015-07-14T11:30:46.000Z</time>
      </trkpt>
      <trkpt lat="46.82581" lon="4.941">
        <ele>247.68</ele>
        <time>2015-07-14T11:30:48.000Z</time>
      </trkpt>
      <trkpt lat="46.82572" lon="4.9409">
        <ele>247.2</ele>
        <time>2015-07-14T11:30:50.000Z</time>
      </trkpt>
      <trkpt lat="46.82564" lon="4.9408">
        <ele>247.68</ele>
        <time>2015-07-14T11:30:52.000Z</time>
      </trkpt>
      <trkpt lat="46.82556" lon="4.9407">
        <ele>247.2</ele>
        <time>2015-07-14T11:30:54.000Z</time>
      </trkpt>
      <trkpt lat="46.82547" lon="4.94061">
        <ele>247.68</ele>
        <time>2015-07-14T11:30:56.000Z</time>
      </trkpt>
      <trkpt lat="46.82539" lon="4.94051">
        <ele>247.68</ele>
        <time>2015-07-14T11:30:58.000Z</time>
      </trkpt>
      <trkpt lat="46.82531" lon="4.94041">
        <ele>247.68</ele>
        <time>2015-07-14T11:31:00.000Z</time>
      </trkpt>
      <trkpt lat="46.82523" lon="4.94032">
        <ele>248.64</ele>
        <time>2015-07-14T11:31:02.000Z</time>
      </trkpt>
      <trkpt lat="46.82516" lon="4.94023">
        <ele>248.64</ele>
        <time>2015-07-14T11:31:04.000Z</time>
      </trkpt>
      <trkpt lat="46.8251" lon="4.94009">
        <ele>248.16</ele>
        <time>2015-07-14T11:31:07.000Z</time>
      </trkpt>
      <trkpt lat="46.82516" lon="4.93994">
        <ele>248.16</ele>
        <time>2015-07-14T11:31:11.000Z</time>
      </trkpt>
      <trkpt lat="46.82525" lon="4.93979">
        <ele>247.2</ele>
        <time>2015-07-14T11:31:14.000Z</time>
      </trkpt>
      <trkpt lat="46.82531" lon="4.93968">
        <ele>246.72</ele>
        <time>2015-07-14T11:31:16.000Z</time>
      </trkpt>
      <trkpt lat="46.82538" lon="4.93958">
        <ele>247.2</ele>
        <time>2015-07-14T11:31:18.000Z</time>
      </trkpt>
      <trkpt lat="46.82544" lon="4.93948">
        <ele>246.72</ele>
        <time>2015-07-14T11:31:20.000Z</time>
      </trkpt>
      <trkpt lat="46.8255" lon="4.93938">
        <ele>247.2</ele>
        <time>2015-07-14T11:31:22.000Z</time>
      </trkpt>
      <trkpt lat="46.82557" lon="4.93927">
        <ele>246.72</ele>
        <time>2015-07-14T11:31:24.000Z</time>
      </trkpt>
      <trkpt lat="46.82564" lon="4.93917">
        <ele>247.2</ele>
        <time>2015-07-14T11:31:26.000Z</time>
      </trkpt>
      <trkpt lat="46.82571" lon="4.93906">
        <ele>247.68</ele>
        <time>2015-07-14T11:31:28.000Z</time>
      </trkpt>
      <trkpt lat="46.82579" lon="4.93896">
        <ele>247.68</ele>
        <time>2015-07-14T11:31:30.000Z</time>
      </trkpt>
      <trkpt lat="46.82586" lon="4.93885">
        <ele>247.68</ele>
        <time>2015-07-14T11:31:32.000Z</time>
      </trkpt>
      <trkpt lat="46.82592" lon="4.93875">
        <ele>248.16</ele>
        <time>2015-07-14T11:31:34.000Z</time>
      </trkpt>
      <trkpt lat="46.82599" lon="4.93865">
        <ele>248.16</ele>
        <time>2015-07-14T11:31:36.000Z</time>
      </trkpt>
      <trkpt lat="46.82606" lon="4.93854">
        <ele>247.68</ele>
        <time>2015-07-14T11:31:38.000Z</time>
      </trkpt>
      <trkpt lat="46.82614" lon="4.93844">
        <ele>248.16</ele>
        <time>2015-07-14T11:31:40.000Z</time>
      </trkpt>
      <trkpt lat="46.8262" lon="4.93835">
        <ele>247.2</ele>
        <time>2015-07-14T11:31:42.000Z</time>
      </trkpt>
      <trkpt lat="46.82629" lon="4.93823">
        <ele>247.2</ele>
        <time>2015-07-14T11:31:45.000Z</time>
      </trkpt>
      <trkpt lat="46.82626" lon="4.93821">
        <ele>247.68</ele>
        <time>2015-07-14T11:32:06.000Z</time>
      </trkpt>
      <trkpt lat="46.82617" lon="4.93817">
        <ele>247.68</ele>
        <time>2015-07-14T11:32:11.000Z</time>
      </trkpt>
      <trkpt lat="46.82609" lon="4.93811">
        <ele>247.2</ele>
        <time>2015-07-14T11:32:14.000Z</time>
      </trkpt>
      <trkpt lat="46.826" lon="4.93804">
        <ele>247.2</ele>
        <time>2015-07-14T11:32:17.000Z</time>
      </trkpt>
      <trkpt lat="46.82589" lon="4.93796">
        <ele>247.68</ele>
        <time>2015-07-14T11:32:20.000Z</time>
      </trkpt>
      <trkpt lat="46.82577" lon="4.9379">
        <ele>246.72</ele>
        <time>2015-07-14T11:32:23.000Z</time>
      </trkpt>
      <trkpt lat="46.82568" lon="4.93785">
        <ele>247.2</ele>
        <time>2015-07-14T11:32:25.000Z</time>
      </trkpt>
      <trkpt lat="46.8256" lon="4.93779">
        <ele>247.2</ele>
        <time>2015-07-14T11:32:27.000Z</time>
      </trkpt>
      <trkpt lat="46.82551" lon="4.93774">
        <ele>247.68</ele>
        <time>2015-07-14T11:32:29.000Z</time>
      </trkpt>
      <trkpt lat="46.82542" lon="4.93771">
        <ele>247.68</ele>
        <time>2015-07-14T11:32:31.000Z</time>
      </trkpt>
      <trkpt lat="46.82534" lon="4.93765">
        <ele>248.16</ele>
        <time>2015-07-14T11:32:33.000Z</time>
      </trkpt>
      <trkpt lat="46.82526" lon="4.9376">
        <ele>247.68</ele>
        <time>2015-07-14T11:32:35.000Z</time>
      </trkpt>
      <trkpt lat="46.82518" lon="4.93751">
        <ele>248.64</ele>
        <time>2015-07-14T11:32:37.000Z</time>
      </trkpt>
      <trkpt lat="46.82511" lon="4.93735">
        <ele>248.16</ele>
        <time>2015-07-14T11:32:40.000Z</time>
      </trkpt>
      <trkpt lat="46.82506" lon="4.93724">
        <ele>248.16</ele>
        <time>2015-07-14T11:32:42.000Z</time>
      </trkpt>
      <trkpt lat="46.82502" lon="4.93713">
        <ele>247.68</ele>
        <time>2015-07-14T11:32:44.000Z</time>
      </trkpt>
      <trkpt lat="46.82494" lon="4.93696">
        <ele>248.16</ele>
        <time>2015-07-14T11:32:47.000Z</time>
      </trkpt>
      <trkpt lat="46.8249" lon="4.93684">
        <ele>248.16</ele>
        <time>2015-07-14T11:32:49.000Z</time>
      </trkpt>
      <trkpt lat="46.82485" lon="4.93672">
        <ele>248.16</ele>
        <time>2015-07-14T11:32:51.000Z</time>
      </trkpt>
      <trkpt lat="46.8248" lon="4.9366">
        <ele>248.16</ele>
        <time>2015-07-14T11:32:53.000Z</time>
      </trkpt>
      <trkpt lat="46.82475" lon="4.93648">
        <ele>248.16</ele>
        <time>2015-07-14T11:32:55.000Z</time>
      </trkpt>
      <trkpt lat="46.8247" lon="4.93635">
        <ele>248.16</ele>
        <time>2015-07-14T11:32:57.000Z</time>
      </trkpt>
      <trkpt lat="46.82465" lon="4.93623">
        <ele>248.64</ele>
        <time>2015-07-14T11:32:59.000Z</time>
      </trkpt>
      <trkpt lat="46.82459" lon="4.9361">
        <ele>247.68</ele>
        <time>2015-07-14T11:33:01.000Z</time>
      </trkpt>
      <trkpt lat="46.82455" lon="4.93598">
        <ele>247.2</ele>
        <time>2015-07-14T11:33:03.000Z</time>
      </trkpt>
      <trkpt lat="46.8245" lon="4.93587">
        <ele>248.16</ele>
        <time>2015-07-14T11:33:05.000Z</time>
      </trkpt>
      <trkpt lat="46.82445" lon="4.93576">
        <ele>248.16</ele>
        <time>2015-07-14T11:33:07.000Z</time>
      </trkpt>
      <trkpt lat="46.82439" lon="4.93564">
        <ele>248.16</ele>
        <time>2015-07-14T11:33:09.000Z</time>
      </trkpt>
      <trkpt lat="46.82434" lon="4.93553">
        <ele>248.16</ele>
        <time>2015-07-14T11:33:11.000Z</time>
      </trkpt>
      <trkpt lat="46.82429" lon="4.93541">
        <ele>247.68</ele>
        <time>2015-07-14T11:33:13.000Z</time>
      </trkpt>
      <trkpt lat="46.82424" lon="4.93529">
        <ele>247.68</ele>
        <time>2015-07-14T11:33:15.000Z</time>
      </trkpt>
      <trkpt lat="46.82418" lon="4.93517">
        <ele>247.68</ele>
        <time>2015-07-14T11:33:17.000Z</time>
      </trkpt>
      <trkpt lat="46.82413" lon="4.93505">
        <ele>247.2</ele>
        <time>2015-07-14T11:33:19.000Z</time>
      </trkpt>
      <trkpt lat="46.82408" lon="4.93493">
        <ele>247.2</ele>
        <time>2015-07-14T11:33:21.000Z</time>
      </trkpt>
      <trkpt lat="46.82402" lon="4.93481">
        <ele>247.2</ele>
        <time>2015-07-14T11:33:23.000Z</time>
      </trkpt>
      <trkpt lat="46.82397" lon="4.93469">
        <ele>247.2</ele>
        <time>2015-07-14T11:33:25.000Z</time>
      </trkpt>
      <trkpt lat="46.82392" lon="4.93457">
        <ele>247.2</ele>
        <time>2015-07-14T11:33:27.000Z</time>
      </trkpt>
      <trkpt lat="46.82387" lon="4.93446">
        <ele>247.2</ele>
        <time>2015-07-14T11:33:29.000Z</time>
      </trkpt>
      <trkpt lat="46.82381" lon="4.93433">
        <ele>247.2</ele>
        <time>2015-07-14T11:33:31.000Z</time>
      </trkpt>
      <trkpt lat="46.82376" lon="4.93421">
        <ele>246.72</ele>
        <time>2015-07-14T11:33:33.000Z</time>
      </trkpt>
      <trkpt lat="46.82371" lon="4.93408">
        <ele>247.2</ele>
        <time>2015-07-14T11:33:35.000Z</time>
      </trkpt>
      <trkpt lat="46.82365" lon="4.93395">
        <ele>247.2</ele>
        <time>2015-07-14T11:33:37.000Z</time>
      </trkpt>
      <trkpt lat="46.82358" lon="4.93387">
        <ele>246.72</ele>
        <time>2015-07-14T11:33:39.000Z</time>
      </trkpt>
      <trkpt lat="46.82349" lon="4.93378">
        <ele>247.2</ele>
        <time>2015-07-14T11:33:41.000Z</time>
      </trkpt>
      <trkpt lat="46.82342" lon="4.9337">
        <ele>247.2</ele>
        <time>2015-07-14T11:33:43.000Z</time>
      </trkpt>
      <trkpt lat="46.82334" lon="4.93361">
        <ele>247.2</ele>
        <time>2015-07-14T11:33:45.000Z</time>
      </trkpt>
      <trkpt lat="46.82328" lon="4.93351">
        <ele>247.2</ele>
        <time>2015-07-14T11:33:47.000Z</time>
      </trkpt>
      <trkpt lat="46.82321" lon="4.9334">
        <ele>246.72</ele>
        <time>2015-07-14T11:33:49.000Z</time>
      </trkpt>
      <trkpt lat="46.82316" lon="4.93328">
        <ele>246.72</ele>
        <time>2015-07-14T11:33:51.000Z</time>
      </trkpt>
      <trkpt lat="46.82315" lon="4.93311">
        <ele>247.2</ele>
        <time>2015-07-14T11:33:54.000Z</time>
      </trkpt>
      <trkpt lat="46.82322" lon="4.93296">
        <ele>247.2</ele>
        <time>2015-07-14T11:33:57.000Z</time>
      </trkpt>
      <trkpt lat="46.82327" lon="4.93285">
        <ele>246.72</ele>
        <time>2015-07-14T11:33:59.000Z</time>
      </trkpt>
      <trkpt lat="46.82332" lon="4.93272">
        <ele>246.23</ele>
        <time>2015-07-14T11:34:01.000Z</time>
      </trkpt>
      <trkpt lat="46.82337" lon="4.93259">
        <ele>246.23</ele>
        <time>2015-07-14T11:34:03.000Z</time>
      </trkpt>
      <trkpt lat="46.82343" lon="4.93246">
        <ele>246.23</ele>
        <time>2015-07-14T11:34:05.000Z</time>
      </trkpt>
      <trkpt lat="46.82349" lon="4.93233">
        <ele>246.23</ele>
        <time>2015-07-14T11:34:07.000Z</time>
      </trkpt>
      <trkpt lat="46.82356" lon="4.93221">
        <ele>246.23</ele>
        <time>2015-07-14T11:34:09.000Z</time>
      </trkpt>
      <trkpt lat="46.82364" lon="4.9321">
        <ele>246.23</ele>
        <time>2015-07-14T11:34:11.000Z</time>
      </trkpt>
      <trkpt lat="46.82372" lon="4.93199">
        <ele>246.23</ele>
        <time>2015-07-14T11:34:13.000Z</time>
      </trkpt>
      <trkpt lat="46.82379" lon="4.93188">
        <ele>247.2</ele>
        <time>2015-07-14T11:34:15.000Z</time>
      </trkpt>
      <trkpt lat="46.82388" lon="4.93178">
        <ele>247.2</ele>
        <time>2015-07-14T11:34:17.000Z</time>
      </trkpt>
      <trkpt lat="46.82396" lon="4.93168">
        <ele>247.2</ele>
        <time>2015-07-14T11:34:19.000Z</time>
      </trkpt>
      <trkpt lat="46.82404" lon="4.93158">
        <ele>247.2</ele>
        <time>2015-07-14T11:34:21.000Z</time>
      </trkpt>
      <trkpt lat="46.82412" lon="4.93148">
        <ele>247.2</ele>
        <time>2015-07-14T11:34:23.000Z</time>
      </trkpt>
      <trkpt lat="46.8242" lon="4.93137">
        <ele>247.2</ele>
        <time>2015-07-14T11:34:25.000Z</time>
      </trkpt>
      <trkpt lat="46.82428" lon="4.93127">
        <ele>247.68</ele>
        <time>2015-07-14T11:34:27.000Z</time>
      </trkpt>
      <trkpt lat="46.82436" lon="4.93117">
        <ele>247.2</ele>
        <time>2015-07-14T11:34:29.000Z</time>
      </trkpt>
      <trkpt lat="46.82444" lon="4.93107">
        <ele>247.68</ele>
        <time>2015-07-14T11:34:31.000Z</time>
      </trkpt>
      <trkpt lat="46.82453" lon="4.93097">
        <ele>247.68</ele>
        <time>2015-07-14T11:34:33.000Z</time>
      </trkpt>
      <trkpt lat="46.82462" lon="4.93086">
        <ele>247.68</ele>
        <time>2015-07-14T11:34:35.000Z</time>
      </trkpt>
      <trkpt lat="46.8247" lon="4.93076">
        <ele>247.68</ele>
        <time>2015-07-14T11:34:37.000Z</time>
      </trkpt>
      <trkpt lat="46.82477" lon="4.93066">
        <ele>247.2</ele>
        <time>2015-07-14T11:34:39.000Z</time>
      </trkpt>
      <trkpt lat="46.82484" lon="4.93056">
        <ele>248.16</ele>
        <time>2015-07-14T11:34:41.000Z</time>
      </trkpt>
      <trkpt lat="46.82492" lon="4.93047">
        <ele>248.16</ele>
        <time>2015-07-14T11:34:43.000Z</time>
      </trkpt>
      <trkpt lat="46.825" lon="4.93037">
        <ele>247.68</ele>
        <time>2015-07-14T11:34:45.000Z</time>
      </trkpt>
      <trkpt lat="46.82509" lon="4.93026">
        <ele>247.68</ele>
        <time>2015-07-14T11:34:47.000Z</time>
      </trkpt>
      <trkpt lat="46.82517" lon="4.93016">
        <ele>247.68</ele>
        <time>2015-07-14T11:34:49.000Z</time>
      </trkpt>
      <trkpt lat="46.82525" lon="4.93006">
        <ele>247.68</ele>
        <time>2015-07-14T11:34:51.000Z</time>
      </trkpt>
      <trkpt lat="46.82534" lon="4.92995">
        <ele>248.16</ele>
        <time>2015-07-14T11:34:53.000Z</time>
      </trkpt>
      <trkpt lat="46.82542" lon="4.92984">
        <ele>247.68</ele>
        <time>2015-07-14T11:34:55.000Z</time>
      </trkpt>
      <trkpt lat="46.82551" lon="4.92974">
        <ele>247.68</ele>
        <time>2015-07-14T11:34:57.000Z</time>
      </trkpt>
      <trkpt lat="46.82559" lon="4.92962">
        <ele>247.68</ele>
        <time>2015-07-14T11:34:59.000Z</time>
      </trkpt>
      <trkpt lat="46.82567" lon="4.92952">
        <ele>247.68</ele>
        <time>2015-07-14T11:35:01.000Z</time>
      </trkpt>
      <trkpt lat="46.82574" lon="4.92942">
        <ele>247.68</ele>
        <time>2015-07-14T11:35:03.000Z</time>
      </trkpt>
      <trkpt lat="46.82582" lon="4.92933">
        <ele>247.68</ele>
        <time>2015-07-14T11:35:05.000Z</time>
      </trkpt>
      <trkpt lat="46.8259" lon="4.92923">
        <ele>247.68</ele>
        <time>2015-07-14T11:35:07.000Z</time>
      </trkpt>
      <trkpt lat="46.82598" lon="4.92913">
        <ele>247.2</ele>
        <time>2015-07-14T11:35:09.000Z</time>
      </trkpt>
      <trkpt lat="46.82606" lon="4.92903">
        <ele>247.2</ele>
        <time>2015-07-14T11:35:11.000Z</time>
      </trkpt>
      <trkpt lat="46.82613" lon="4.92894">
        <ele>247.2</ele>
        <time>2015-07-14T11:35:13.000Z</time>
      </trkpt>
      <trkpt lat="46.82621" lon="4.92884">
        <ele>247.2</ele>
        <time>2015-07-14T11:35:15.000Z</time>
      </trkpt>
      <trkpt lat="46.82627" lon="4.92875">
        <ele>247.2</ele>
        <time>2015-07-14T11:35:17.000Z</time>
      </trkpt>
      <trkpt lat="46.82629" lon="4.92856">
        <ele>247.68</ele>
        <time>2015-07-14T11:35:20.000Z</time>
      </trkpt>
      <trkpt lat="46.82622" lon="4.92841">
        <ele>248.16</ele>
        <time>2015-07-14T11:35:23.000Z</time>
      </trkpt>
      <trkpt lat="46.82611" lon="4.92828">
        <ele>247.68</ele>
        <time>2015-07-14T11:35:26.000Z</time>
      </trkpt>
      <trkpt lat="46.82605" lon="4.92818">
        <ele>248.16</ele>
        <time>2015-07-14T11:35:28.000Z</time>
      </trkpt>
      <trkpt lat="46.82598" lon="4.92809">
        <ele>247.68</ele>
        <time>2015-07-14T11:35:30.000Z</time>
      </trkpt>
      <trkpt lat="46.82591" lon="4.92799">
        <ele>247.2</ele>
        <time>2015-07-14T11:35:32.000Z</time>
      </trkpt>
      <trkpt lat="46.82584" lon="4.92788">
        <ele>247.2</ele>
        <time>2015-07-14T11:35:34.000Z</time>
      </trkpt>
      <trkpt lat="46.82577" lon="4.92778">
        <ele>247.68</ele>
        <time>2015-07-14T11:35:36.000Z</time>
      </trkpt>
      <trkpt lat="46.8257" lon="4.92768">
        <ele>247.2</ele>
        <time>2015-07-14T11:35:38.000Z</time>
      </trkpt>
      <trkpt lat="46.82563" lon="4.92759">
        <ele>248.16</ele>
        <time>2015-07-14T11:35:40.000Z</time>
      </trkpt>
      <trkpt lat="46.82556" lon="4.92748">
        <ele>248.16</ele>
        <time>2015-07-14T11:35:42.000Z</time>
      </trkpt>
      <trkpt lat="46.82549" lon="4.92738">
        <ele>248.16</ele>
        <time>2015-07-14T11:35:44.000Z</time>
      </trkpt>
      <trkpt lat="46.82541" lon="4.92726">
        <ele>247.68</ele>
        <time>2015-07-14T11:35:46.000Z</time>
      </trkpt>
      <trkpt lat="46.82533" lon="4.92715">
        <ele>247.68</ele>
        <time>2015-07-14T11:35:48.000Z</time>
      </trkpt>
      <trkpt lat="46.82526" lon="4.92704">
        <ele>247.68</ele>
        <time>2015-07-14T11:35:50.000Z</time>
      </trkpt>
      <trkpt lat="46.82518" lon="4.92694">
        <ele>248.16</ele>
        <time>2015-07-14T11:35:52.000Z</time>
      </trkpt>
      <trkpt lat="46.82511" lon="4.92683">
        <ele>248.16</ele>
        <time>2015-07-14T11:35:54.000Z</time>
      </trkpt>
      <trkpt lat="46.82503" lon="4.92671">
        <ele>248.16</ele>
        <time>2015-07-14T11:35:56.000Z</time>
      </trkpt>
      <trkpt lat="46.82495" lon="4.9266">
        <ele>247.68</ele>
        <time>2015-07-14T11:35:58.000Z</time>
      </trkpt>
      <trkpt lat="46.82487" lon="4.92648">
        <ele>247.68</ele>
        <time>2015-07-14T11:36:00.000Z</time>
      </trkpt>
      <trkpt lat="46.82479" lon="4.92637">
        <ele>248.16</ele>
        <time>2015-07-14T11:36:02.000Z</time>
      </trkpt>
      <trkpt lat="46.82472" lon="4.92626">
        <ele>248.16</ele>
        <time>2015-07-14T11:36:04.000Z</time>
      </trkpt>
      <trkpt lat="46.82465" lon="4.92614">
        <ele>248.16</ele>
        <time>2015-07-14T11:36:06.000Z</time>
      </trkpt>
      <trkpt lat="46.82458" lon="4.92603">
        <ele>247.68</ele>
        <time>2015-07-14T11:36:08.000Z</time>
      </trkpt>
      <trkpt lat="46.8245" lon="4.92591">
        <ele>247.68</ele>
        <time>2015-07-14T11:36:10.000Z</time>
      </trkpt>
      <trkpt lat="46.82442" lon="4.9258">
        <ele>247.68</ele>
        <time>2015-07-14T11:36:12.000Z</time>
      </trkpt>
      <trkpt lat="46.82435" lon="4.92569">
        <ele>247.68</ele>
        <time>2015-07-14T11:36:14.000Z</time>
      </trkpt>
      <trkpt lat="46.82428" lon="4.92557">
        <ele>247.68</ele>
        <time>2015-07-14T11:36:16.000Z</time>
      </trkpt>
      <trkpt lat="46.82421" lon="4.92545">
        <ele>247.68</ele>
        <time>2015-07-14T11:36:18.000Z</time>
      </trkpt>
      <trkpt lat="46.82414" lon="4.92533">
        <ele>247.68</ele>
        <time>2015-07-14T11:36:20.000Z</time>
      </trkpt>
      <trkpt lat="46.82407" lon="4.92521">
        <ele>247.2</ele>
        <time>2015-07-14T11:36:22.000Z</time>
      </trkpt>
      <trkpt lat="46.82399" lon="4.9251">
        <ele>247.68</ele>
        <time>2015-07-14T11:36:24.000Z</time>
      </trkpt>
      <trkpt lat="46.82392" lon="4.92499">
        <ele>247.2</ele>
        <time>2015-07-14T11:36:26.000Z</time>
      </trkpt>
      <trkpt lat="46.82384" lon="4.92488">
        <ele>247.68</ele>
        <time>2015-07-14T11:36:28.000Z</time>
      </trkpt>
      <trkpt lat="46.82377" lon="4.92476">
        <ele>247.2</ele>
        <time>2015-07-14T11:36:30.000Z</time>
      </trkpt>
      <trkpt lat="46.8237" lon="4.92465">
        <ele>247.2</ele>
        <time>2015-07-14T11:36:32.000Z</time>
      </trkpt>
      <trkpt lat="46.82364" lon="4.92453">
        <ele>247.2</ele>
        <time>2015-07-14T11:36:34.000Z</time>
      </trkpt>
      <trkpt lat="46.82356" lon="4.92442">
        <ele>247.2</ele>
        <time>2015-07-14T11:36:36.000Z</time>
      </trkpt>
      <trkpt lat="46.82348" lon="4.92431">
        <ele>247.2</ele>
        <time>2015-07-14T11:36:38.000Z</time>
      </trkpt>
      <trkpt lat="46.82341" lon="4.92419">
        <ele>247.2</ele>
        <time>2015-07-14T11:36:40.000Z</time>
      </trkpt>
      <trkpt lat="46.82333" lon="4.92407">
        <ele>247.68</ele>
        <time>2015-07-14T11:36:42.000Z</time>
      </trkpt>
      <trkpt lat="46.82325" lon="4.92396">
        <ele>247.68</ele>
        <time>2015-07-14T11:36:44.000Z</time>
      </trkpt>
      <trkpt lat="46.82317" lon="4.92384">
        <ele>246.72</ele>
        <time>2015-07-14T11:36:46.000Z</time>
      </trkpt>
      <trkpt lat="46.8231" lon="4.92373">
        <ele>246.72</ele>
        <time>2015-07-14T11:36:48.000Z</time>
      </trkpt>
      <trkpt lat="46.82303" lon="4.92362">
        <ele>246.72</ele>
        <time>2015-07-14T11:36:50.000Z</time>
      </trkpt>
      <trkpt lat="46.82296" lon="4.9235">
        <ele>246.72</ele>
        <time>2015-07-14T11:36:52.000Z</time>
      </trkpt>
      <trkpt lat="46.8229" lon="4.92338">
        <ele>246.72</ele>
        <time>2015-07-14T11:36:54.000Z</time>
      </trkpt>
      <trkpt lat="46.82284" lon="4.92326">
        <ele>246.72</ele>
        <time>2015-07-14T11:36:56.000Z</time>
      </trkpt>
      <trkpt lat="46.82279" lon="4.92313">
        <ele>246.72</ele>
        <time>2015-07-14T11:36:58.000Z</time>
      </trkpt>
      <trkpt lat="46.82274" lon="4.923">
        <ele>247.2</ele>
        <time>2015-07-14T11:37:00.000Z</time>
      </trkpt>
      <trkpt lat="46.82269" lon="4.92286">
        <ele>247.2</ele>
        <time>2015-07-14T11:37:02.000Z</time>
      </trkpt>
      <trkpt lat="46.82265" lon="4.92271">
        <ele>247.68</ele>
        <time>2015-07-14T11:37:04.000Z</time>
      </trkpt>
      <trkpt lat="46.82261" lon="4.92255">
        <ele>247.2</ele>
        <time>2015-07-14T11:37:06.000Z</time>
      </trkpt>
      <trkpt lat="46.82257" lon="4.9224">
        <ele>247.2</ele>
        <time>2015-07-14T11:37:08.000Z</time>
      </trkpt>
      <trkpt lat="46.82254" lon="4.92226">
        <ele>247.2</ele>
        <time>2015-07-14T11:37:10.000Z</time>
      </trkpt>
      <trkpt lat="46.8225" lon="4.92211">
        <ele>247.2</ele>
        <time>2015-07-14T11:37:12.000Z</time>
      </trkpt>
      <trkpt lat="46.82247" lon="4.92197">
        <ele>246.72</ele>
        <time>2015-07-14T11:37:14.000Z</time>
      </trkpt>
      <trkpt lat="46.82244" lon="4.92182">
        <ele>247.2</ele>
        <time>2015-07-14T11:37:16.000Z</time>
      </trkpt>
      <trkpt lat="46.82241" lon="4.92167">
        <ele>247.2</ele>
        <time>2015-07-14T11:37:18.000Z</time>
      </trkpt>
      <trkpt lat="46.82238" lon="4.92153">
        <ele>247.2</ele>
        <time>2015-07-14T11:37:20.000Z</time>
      </trkpt>
      <trkpt lat="46.82236" lon="4.92138">
        <ele>247.68</ele>
        <time>2015-07-14T11:37:22.000Z</time>
      </trkpt>
      <trkpt lat="46.82234" lon="4.92124">
        <ele>247.68</ele>
        <time>2015-07-14T11:37:24.000Z</time>
      </trkpt>
      <trkpt lat="46.82232" lon="4.92109">
        <ele>247.68</ele>
        <time>2015-07-14T11:37:26.000Z</time>
      </trkpt>
      <trkpt lat="46.82229" lon="4.92094">
        <ele>247.68</ele>
        <time>2015-07-14T11:37:28.000Z</time>
      </trkpt>
      <trkpt lat="46.82227" lon="4.92079">
        <ele>247.2</ele>
        <time>2015-07-14T11:37:30.000Z</time>
      </trkpt>
      <trkpt lat="46.82225" lon="4.92065">
        <ele>247.2</ele>
        <time>2015-07-14T11:37:32.000Z</time>
      </trkpt>
      <trkpt lat="46.82224" lon="4.92051">
        <ele>247.68</ele>
        <time>2015-07-14T11:37:34.000Z</time>
      </trkpt>
      <trkpt lat="46.82222" lon="4.92038">
        <ele>247.68</ele>
        <time>2015-07-14T11:37:36.000Z</time>
      </trkpt>
      <trkpt lat="46.8222" lon="4.92024">
        <ele>248.16</ele>
        <time>2015-07-14T11:37:38.000Z</time>
      </trkpt>
      <trkpt lat="46.82218" lon="4.9201">
        <ele>247.68</ele>
        <time>2015-07-14T11:37:40.000Z</time>
      </trkpt>
      <trkpt lat="46.82216" lon="4.91996">
        <ele>247.68</ele>
        <time>2015-07-14T11:37:42.000Z</time>
      </trkpt>
      <trkpt lat="46.82214" lon="4.91982">
        <ele>247.2</ele>
        <time>2015-07-14T11:37:44.000Z</time>
      </trkpt>
      <trkpt lat="46.82212" lon="4.91968">
        <ele>248.16</ele>
        <time>2015-07-14T11:37:46.000Z</time>
      </trkpt>
      <trkpt lat="46.82211" lon="4.91954">
        <ele>248.16</ele>
        <time>2015-07-14T11:37:48.000Z</time>
      </trkpt>
      <trkpt lat="46.82209" lon="4.91939">
        <ele>247.68</ele>
        <time>2015-07-14T11:37:50.000Z</time>
      </trkpt>
      <trkpt lat="46.82207" lon="4.91924">
        <ele>247.68</ele>
        <time>2015-07-14T11:37:52.000Z</time>
      </trkpt>
      <trkpt lat="46.82206" lon="4.91909">
        <ele>248.16</ele>
        <time>2015-07-14T11:37:54.000Z</time>
      </trkpt>
      <trkpt lat="46.82205" lon="4.91894">
        <ele>247.68</ele>
        <time>2015-07-14T11:37:56.000Z</time>
      </trkpt>
      <trkpt lat="46.82204" lon="4.9188">
        <ele>247.2</ele>
        <time>2015-07-14T11:37:58.000Z</time>
      </trkpt>
      <trkpt lat="46.82203" lon="4.91865">
        <ele>248.16</ele>
        <time>2015-07-14T11:38:00.000Z</time>
      </trkpt>
      <trkpt lat="46.82201" lon="4.9185">
        <ele>247.68</ele>
        <time>2015-07-14T11:38:02.000Z</time>
      </trkpt>
      <trkpt lat="46.822" lon="4.91834">
        <ele>247.68</ele>
        <time>2015-07-14T11:38:04.000Z</time>
      </trkpt>
      <trkpt lat="46.82199" lon="4.91818">
        <ele>247.68</ele>
        <time>2015-07-14T11:38:06.000Z</time>
      </trkpt>
      <trkpt lat="46.82197" lon="4.91803">
        <ele>247.2</ele>
        <time>2015-07-14T11:38:08.000Z</time>
      </trkpt>
      <trkpt lat="46.82195" lon="4.91788">
        <ele>248.16</ele>
        <time>2015-07-14T11:38:10.000Z</time>
      </trkpt>
      <trkpt lat="46.82192" lon="4.91773">
        <ele>247.68</ele>
        <time>2015-07-14T11:38:12.000Z</time>
      </trkpt>
      <trkpt lat="46.82188" lon="4.91759">
        <ele>247.68</ele>
        <time>2015-07-14T11:38:14.000Z</time>
      </trkpt>
      <trkpt lat="46.82183" lon="4.91745">
        <ele>247.68</ele>
        <time>2015-07-14T11:38:16.000Z</time>
      </trkpt>
      <trkpt lat="46.82177" lon="4.91732">
        <ele>247.68</ele>
        <time>2015-07-14T11:38:18.000Z</time>
      </trkpt>
      <trkpt lat="46.82172" lon="4.91719">
        <ele>248.16</ele>
        <time>2015-07-14T11:38:20.000Z</time>
      </trkpt>
      <trkpt lat="46.82166" lon="4.91706">
        <ele>248.16</ele>
        <time>2015-07-14T11:38:22.000Z</time>
      </trkpt>
      <trkpt lat="46.82159" lon="4.91692">
        <ele>247.68</ele>
        <time>2015-07-14T11:38:24.000Z</time>
      </trkpt>
      <trkpt lat="46.82154" lon="4.91677">
        <ele>248.16</ele>
        <time>2015-07-14T11:38:26.000Z</time>
      </trkpt>
      <trkpt lat="46.8215" lon="4.91663">
        <ele>248.16</ele>
        <time>2015-07-14T11:38:28.000Z</time>
      </trkpt>
      <trkpt lat="46.82146" lon="4.91649">
        <ele>247.68</ele>
        <time>2015-07-14T11:38:30.000Z</time>
      </trkpt>
      <trkpt lat="46.82142" lon="4.91635">
        <ele>248.16</ele>
        <time>2015-07-14T11:38:32.000Z</time>
      </trkpt>
      <trkpt lat="46.82137" lon="4.9162">
        <ele>247.68</ele>
        <time>2015-07-14T11:38:34.000Z</time>
      </trkpt>
      <trkpt lat="46.82133" lon="4.91606">
        <ele>247.68</ele>
        <time>2015-07-14T11:38:36.000Z</time>
      </trkpt>
      <trkpt lat="46.82129" lon="4.91591">
        <ele>247.2</ele>
        <time>2015-07-14T11:38:38.000Z</time>
      </trkpt>
      <trkpt lat="46.82124" lon="4.91577">
        <ele>247.68</ele>
        <time>2015-07-14T11:38:40.000Z</time>
      </trkpt>
      <trkpt lat="46.82121" lon="4.91562">
        <ele>247.68</ele>
        <time>2015-07-14T11:38:42.000Z</time>
      </trkpt>
      <trkpt lat="46.82117" lon="4.91549">
        <ele>247.68</ele>
        <time>2015-07-14T11:38:44.000Z</time>
      </trkpt>
      <trkpt lat="46.82112" lon="4.91536">
        <ele>247.2</ele>
        <time>2015-07-14T11:38:46.000Z</time>
      </trkpt>
      <trkpt lat="46.82107" lon="4.91523">
        <ele>247.68</ele>
        <time>2015-07-14T11:38:48.000Z</time>
      </trkpt>
      <trkpt lat="46.82101" lon="4.9151">
        <ele>247.68</ele>
        <time>2015-07-14T11:38:50.000Z</time>
      </trkpt>
      <trkpt lat="46.82095" lon="4.91497">
        <ele>247.2</ele>
        <time>2015-07-14T11:38:52.000Z</time>
      </trkpt>
      <trkpt lat="46.8209" lon="4.91484">
        <ele>247.2</ele>
        <time>2015-07-14T11:38:54.000Z</time>
      </trkpt>
      <trkpt lat="46.82085" lon="4.91472">
        <ele>247.2</ele>
        <time>2015-07-14T11:38:56.000Z</time>
      </trkpt>
      <trkpt lat="46.82079" lon="4.9146">
        <ele>247.2</ele>
        <time>2015-07-14T11:38:58.000Z</time>
      </trkpt>
      <trkpt lat="46.82073" lon="4.91447">
        <ele>247.68</ele>
        <time>2015-07-14T11:39:00.000Z</time>
      </trkpt>
      <trkpt lat="46.82068" lon="4.91434">
        <ele>247.2</ele>
        <time>2015-07-14T11:39:02.000Z</time>
      </trkpt>
      <trkpt lat="46.82063" lon="4.91421">
        <ele>247.2</ele>
        <time>2015-07-14T11:39:04.000Z</time>
      </trkpt>
      <trkpt lat="46.82058" lon="4.91407">
        <ele>247.2</ele>
        <time>2015-07-14T11:39:06.000Z</time>
      </trkpt>
      <trkpt lat="46.82053" lon="4.91393">
        <ele>247.68</ele>
        <time>2015-07-14T11:39:08.000Z</time>
      </trkpt>
      <trkpt lat="46.82049" lon="4.91378">
        <ele>247.68</ele>
        <time>2015-07-14T11:39:10.000Z</time>
      </trkpt>
      <trkpt lat="46.82045" lon="4.91364">
        <ele>247.68</ele>
        <time>2015-07-14T11:39:12.000Z</time>
      </trkpt>
      <trkpt lat="46.8204" lon="4.91351">
        <ele>248.16</ele>
        <time>2015-07-14T11:39:14.000Z</time>
      </trkpt>
      <trkpt lat="46.82036" lon="4.91337">
        <ele>248.16</ele>
        <time>2015-07-14T11:39:16.000Z</time>
      </trkpt>
      <trkpt lat="46.82031" lon="4.91324">
        <ele>247.68</ele>
        <time>2015-07-14T11:39:18.000Z</time>
      </trkpt>
      <trkpt lat="46.82027" lon="4.91311">
        <ele>248.16</ele>
        <time>2015-07-14T11:39:20.000Z</time>
      </trkpt>
      <trkpt lat="46.82022" lon="4.91296">
        <ele>248.64</ele>
        <time>2015-07-14T11:39:22.000Z</time>
      </trkpt>
      <trkpt lat="46.82018" lon="4.91282">
        <ele>248.16</ele>
        <time>2015-07-14T11:39:24.000Z</time>
      </trkpt>
      <trkpt lat="46.82013" lon="4.91267">
        <ele>248.16</ele>
        <time>2015-07-14T11:39:26.000Z</time>
      </trkpt>
      <trkpt lat="46.82008" lon="4.91253">
        <ele>248.16</ele>
        <time>2015-07-14T11:39:28.000Z</time>
      </trkpt>
      <trkpt lat="46.82003" lon="4.91238">
        <ele>248.16</ele>
        <time>2015-07-14T11:39:30.000Z</time>
      </trkpt>
      <trkpt lat="46.81998" lon="4.91224">
        <ele>248.16</ele>
        <time>2015-07-14T11:39:32.000Z</time>
      </trkpt>
      <trkpt lat="46.81993" lon="4.9121">
        <ele>247.68</ele>
        <time>2015-07-14T11:39:34.000Z</time>
      </trkpt>
      <trkpt lat="46.81987" lon="4.91196">
        <ele>247.68</ele>
        <time>2015-07-14T11:39:36.000Z</time>
      </trkpt>
      <trkpt lat="46.81982" lon="4.91183">
        <ele>247.2</ele>
        <time>2015-07-14T11:39:38.000Z</time>
      </trkpt>
      <trkpt lat="46.81977" lon="4.91169">
        <ele>247.2</ele>
        <time>2015-07-14T11:39:40.000Z</time>
      </trkpt>
      <trkpt lat="46.81972" lon="4.91156">
        <ele>247.2</ele>
        <time>2015-07-14T11:39:42.000Z</time>
      </trkpt>
      <trkpt lat="46.81966" lon="4.91143">
        <ele>247.68</ele>
        <time>2015-07-14T11:39:44.000Z</time>
      </trkpt>
      <trkpt lat="46.81961" lon="4.91129">
        <ele>247.68</ele>
        <time>2015-07-14T11:39:46.000Z</time>
      </trkpt>
      <trkpt lat="46.81956" lon="4.91117">
        <ele>247.2</ele>
        <time>2015-07-14T11:39:48.000Z</time>
      </trkpt>
      <trkpt lat="46.81951" lon="4.91101">
        <ele>247.2</ele>
        <time>2015-07-14T11:39:51.000Z</time>
      </trkpt>
      <trkpt lat="46.81952" lon="4.91088">
        <ele>247.68</ele>
        <time>2015-07-14T11:40:09.000Z</time>
      </trkpt>
      <trkpt lat="46.8196" lon="4.91087">
        <ele>247.68</ele>
        <time>2015-07-14T11:40:16.000Z</time>
      </trkpt>
      <trkpt lat="46.81963" lon="4.91074">
        <ele>248.16</ele>
        <time>2015-07-14T11:40:22.000Z</time>
      </trkpt>
      <trkpt lat="46.81957" lon="4.91059">
        <ele>247.68</ele>
        <time>2015-07-14T11:40:26.000Z</time>
      </trkpt>
      <trkpt lat="46.81951" lon="4.91043">
        <ele>248.16</ele>
        <time>2015-07-14T11:40:29.000Z</time>
      </trkpt>
      <trkpt lat="46.81946" lon="4.91031">
        <ele>248.16</ele>
        <time>2015-07-14T11:40:31.000Z</time>
      </trkpt>
      <trkpt lat="46.81941" lon="4.91019">
        <ele>248.16</ele>
        <time>2015-07-14T11:40:33.000Z</time>
      </trkpt>
      <trkpt lat="46.81936" lon="4.91006">
        <ele>248.16</ele>
        <time>2015-07-14T11:40:35.000Z</time>
      </trkpt>
      <trkpt lat="46.81931" lon="4.90994">
        <ele>248.16</ele>
        <time>2015-07-14T11:40:37.000Z</time>
      </trkpt>
      <trkpt lat="46.81926" lon="4.90981">
        <ele>248.16</ele>
        <time>2015-07-14T11:40:39.000Z</time>
      </trkpt>
      <trkpt lat="46.8192" lon="4.90969">
        <ele>247.68</ele>
        <time>2015-07-14T11:40:41.000Z</time>
      </trkpt>
      <trkpt lat="46.81915" lon="4.90956">
        <ele>248.16</ele>
        <time>2015-07-14T11:40:43.000Z</time>
      </trkpt>
      <trkpt lat="46.81911" lon="4.90942">
        <ele>247.68</ele>
        <time>2015-07-14T11:40:45.000Z</time>
      </trkpt>
      <trkpt lat="46.81905" lon="4.9093">
        <ele>247.68</ele>
        <time>2015-07-14T11:40:47.000Z</time>
      </trkpt>
      <trkpt lat="46.819" lon="4.90917">
        <ele>247.68</ele>
        <time>2015-07-14T11:40:49.000Z</time>
      </trkpt>
      <trkpt lat="46.81895" lon="4.90905">
        <ele>247.68</ele>
        <time>2015-07-14T11:40:51.000Z</time>
      </trkpt>
      <trkpt lat="46.8189" lon="4.90892">
        <ele>247.68</ele>
        <time>2015-07-14T11:40:53.000Z</time>
      </trkpt>
      <trkpt lat="46.81885" lon="4.90879">
        <ele>246.72</ele>
        <time>2015-07-14T11:40:55.000Z</time>
      </trkpt>
      <trkpt lat="46.8188" lon="4.90866">
        <ele>246.23</ele>
        <time>2015-07-14T11:40:57.000Z</time>
      </trkpt>
      <trkpt lat="46.81875" lon="4.90853">
        <ele>246.23</ele>
        <time>2015-07-14T11:40:59.000Z</time>
      </trkpt>
      <trkpt lat="46.81871" lon="4.9084">
        <ele>246.23</ele>
        <time>2015-07-14T11:41:01.000Z</time>
      </trkpt>
      <trkpt lat="46.81866" lon="4.90828">
        <ele>246.23</ele>
        <time>2015-07-14T11:41:03.000Z</time>
      </trkpt>
      <trkpt lat="46.8186" lon="4.9081">
        <ele>246.72</ele>
        <time>2015-07-14T11:41:06.000Z</time>
      </trkpt>
      <trkpt lat="46.8186" lon="4.90796">
        <ele>247.2</ele>
        <time>2015-07-14T11:41:09.000Z</time>
      </trkpt>
      <trkpt lat="46.81857" lon="4.90782">
        <ele>247.2</ele>
        <time>2015-07-14T11:41:12.000Z</time>
      </trkpt>
      <trkpt lat="46.81851" lon="4.90771">
        <ele>245.75</ele>
        <time>2015-07-14T11:41:15.000Z</time>
      </trkpt>
      <trkpt lat="46.81844" lon="4.90759">
        <ele>245.75</ele>
        <time>2015-07-14T11:41:18.000Z</time>
      </trkpt>
      <trkpt lat="46.81836" lon="4.90744">
        <ele>245.27</ele>
        <time>2015-07-14T11:41:21.000Z</time>
      </trkpt>
      <trkpt lat="46.81831" lon="4.90734">
        <ele>246.23</ele>
        <time>2015-07-14T11:41:23.000Z</time>
      </trkpt>
      <trkpt lat="46.81825" lon="4.90723">
        <ele>246.23</ele>
        <time>2015-07-14T11:41:25.000Z</time>
      </trkpt>
      <trkpt lat="46.81819" lon="4.90713">
        <ele>246.23</ele>
        <time>2015-07-14T11:41:27.000Z</time>
      </trkpt>
      <trkpt lat="46.81813" lon="4.90703">
        <ele>246.23</ele>
        <time>2015-07-14T11:41:29.000Z</time>
      </trkpt>
      <trkpt lat="46.81804" lon="4.90688">
        <ele>246.23</ele>
        <time>2015-07-14T11:41:32.000Z</time>
      </trkpt>
      <trkpt lat="46.81798" lon="4.90677">
        <ele>246.72</ele>
        <time>2015-07-14T11:41:34.000Z</time>
      </trkpt>
      <trkpt lat="46.81791" lon="4.90666">
        <ele>246.72</ele>
        <time>2015-07-14T11:41:36.000Z</time>
      </trkpt>
      <trkpt lat="46.81785" lon="4.90654">
        <ele>246.72</ele>
        <time>2015-07-14T11:41:38.000Z</time>
      </trkpt>
      <trkpt lat="46.8178" lon="4.90641">
        <ele>246.72</ele>
        <time>2015-07-14T11:41:40.000Z</time>
      </trkpt>
      <trkpt lat="46.81775" lon="4.90629">
        <ele>246.72</ele>
        <time>2015-07-14T11:41:42.000Z</time>
      </trkpt>
      <trkpt lat="46.81769" lon="4.90617">
        <ele>246.72</ele>
        <time>2015-07-14T11:41:44.000Z</time>
      </trkpt>
      <trkpt lat="46.81763" lon="4.90605">
        <ele>246.23</ele>
        <time>2015-07-14T11:41:46.000Z</time>
      </trkpt>
      <trkpt lat="46.81758" lon="4.90593">
        <ele>246.72</ele>
        <time>2015-07-14T11:41:48.000Z</time>
      </trkpt>
      <trkpt lat="46.81752" lon="4.9058">
        <ele>246.72</ele>
        <time>2015-07-14T11:41:50.000Z</time>
      </trkpt>
      <trkpt lat="46.81746" lon="4.90568">
        <ele>246.23</ele>
        <time>2015-07-14T11:41:52.000Z</time>
      </trkpt>
      <trkpt lat="46.81741" lon="4.90556">
        <ele>246.72</ele>
        <time>2015-07-14T11:41:54.000Z</time>
      </trkpt>
      <trkpt lat="46.81736" lon="4.90544">
        <ele>246.23</ele>
        <time>2015-07-14T11:41:56.000Z</time>
      </trkpt>
      <trkpt lat="46.81731" lon="4.90531">
        <ele>246.72</ele>
        <time>2015-07-14T11:41:58.000Z</time>
      </trkpt>
      <trkpt lat="46.81726" lon="4.90519">
        <ele>246.72</ele>
        <time>2015-07-14T11:42:00.000Z</time>
      </trkpt>
      <trkpt lat="46.81721" lon="4.90507">
        <ele>246.23</ele>
        <time>2015-07-14T11:42:02.000Z</time>
      </trkpt>
      <trkpt lat="46.81716" lon="4.90494">
        <ele>246.72</ele>
        <time>2015-07-14T11:42:04.000Z</time>
      </trkpt>
      <trkpt lat="46.81711" lon="4.90482">
        <ele>246.72</ele>
        <time>2015-07-14T11:42:06.000Z</time>
      </trkpt>
      <trkpt lat="46.81706" lon="4.90469">
        <ele>246.72</ele>
        <time>2015-07-14T11:42:08.000Z</time>
      </trkpt>
      <trkpt lat="46.81701" lon="4.90455">
        <ele>246.72</ele>
        <time>2015-07-14T11:42:10.000Z</time>
      </trkpt>
      <trkpt lat="46.81697" lon="4.90442">
        <ele>246.72</ele>
        <time>2015-07-14T11:42:12.000Z</time>
      </trkpt>
      <trkpt lat="46.81693" lon="4.90429">
        <ele>246.72</ele>
        <time>2015-07-14T11:42:14.000Z</time>
      </trkpt>
      <trkpt lat="46.81689" lon="4.90415">
        <ele>246.72</ele>
        <time>2015-07-14T11:42:16.000Z</time>
      </trkpt>
      <trkpt lat="46.81685" lon="4.90402">
        <ele>246.72</ele>
        <time>2015-07-14T11:42:18.000Z</time>
      </trkpt>
      <trkpt lat="46.8168" lon="4.90388">
        <ele>246.72</ele>
        <time>2015-07-14T11:42:20.000Z</time>
      </trkpt>
      <trkpt lat="46.81675" lon="4.90375">
        <ele>246.23</ele>
        <time>2015-07-14T11:42:22.000Z</time>
      </trkpt>
      <trkpt lat="46.8167" lon="4.90362">
        <ele>246.23</ele>
        <time>2015-07-14T11:42:24.000Z</time>
      </trkpt>
      <trkpt lat="46.81664" lon="4.90349">
        <ele>246.23</ele>
        <time>2015-07-14T11:42:26.000Z</time>
      </trkpt>
      <trkpt lat="46.81659" lon="4.90336">
        <ele>246.23</ele>
        <time>2015-07-14T11:42:28.000Z</time>
      </trkpt>
      <trkpt lat="46.81653" lon="4.90323">
        <ele>246.23</ele>
        <time>2015-07-14T11:42:30.000Z</time>
      </trkpt>
      <trkpt lat="46.81648" lon="4.9031">
        <ele>246.72</ele>
        <time>2015-07-14T11:42:32.000Z</time>
      </trkpt>
      <trkpt lat="46.81644" lon="4.90297">
        <ele>246.72</ele>
        <time>2015-07-14T11:42:34.000Z</time>
      </trkpt>
      <trkpt lat="46.81638" lon="4.90285">
        <ele>246.23</ele>
        <time>2015-07-14T11:42:36.000Z</time>
      </trkpt>
      <trkpt lat="46.81633" lon="4.90272">
        <ele>247.2</ele>
        <time>2015-07-14T11:42:38.000Z</time>
      </trkpt>
      <trkpt lat="46.81628" lon="4.9026">
        <ele>246.72</ele>
        <time>2015-07-14T11:42:40.000Z</time>
      </trkpt>
      <trkpt lat="46.81623" lon="4.90247">
        <ele>246.23</ele>
        <time>2015-07-14T11:42:42.000Z</time>
      </trkpt>
      <trkpt lat="46.81617" lon="4.90236">
        <ele>246.72</ele>
        <time>2015-07-14T11:42:44.000Z</time>
      </trkpt>
      <trkpt lat="46.81612" lon="4.90223">
        <ele>246.72</ele>
        <time>2015-07-14T11:42:46.000Z</time>
      </trkpt>
      <trkpt lat="46.81606" lon="4.90211">
        <ele>246.72</ele>
        <time>2015-07-14T11:42:48.000Z</time>
      </trkpt>
      <trkpt lat="46.816" lon="4.90198">
        <ele>246.72</ele>
        <time>2015-07-14T11:42:50.000Z</time>
      </trkpt>
      <trkpt lat="46.81594" lon="4.90185">
        <ele>246.72</ele>
        <time>2015-07-14T11:42:52.000Z</time>
      </trkpt>
      <trkpt lat="46.81588" lon="4.90172">
        <ele>247.2</ele>
        <time>2015-07-14T11:42:54.000Z</time>
      </trkpt>
      <trkpt lat="46.81582" lon="4.90158">
        <ele>246.23</ele>
        <time>2015-07-14T11:42:56.000Z</time>
      </trkpt>
      <trkpt lat="46.81577" lon="4.90145">
        <ele>246.72</ele>
        <time>2015-07-14T11:42:58.000Z</time>
      </trkpt>
      <trkpt lat="46.81572" lon="4.90132">
        <ele>247.2</ele>
        <time>2015-07-14T11:43:00.000Z</time>
      </trkpt>
      <trkpt lat="46.81567" lon="4.90119">
        <ele>247.68</ele>
        <time>2015-07-14T11:43:02.000Z</time>
      </trkpt>
      <trkpt lat="46.81562" lon="4.90108">
        <ele>247.68</ele>
        <time>2015-07-14T11:43:04.000Z</time>
      </trkpt>
      <trkpt lat="46.81557" lon="4.9009">
        <ele>248.16</ele>
        <time>2015-07-14T11:43:07.000Z</time>
      </trkpt>
      <trkpt lat="46.81555" lon="4.90071">
        <ele>247.68</ele>
        <time>2015-07-14T11:43:10.000Z</time>
      </trkpt>
      <trkpt lat="46.81553" lon="4.90058">
        <ele>247.68</ele>
        <time>2015-07-14T11:43:12.000Z</time>
      </trkpt>
      <trkpt lat="46.81551" lon="4.90038">
        <ele>248.16</ele>
        <time>2015-07-14T11:43:15.000Z</time>
      </trkpt>
      <trkpt lat="46.81549" lon="4.90019">
        <ele>248.16</ele>
        <time>2015-07-14T11:43:18.000Z</time>
      </trkpt>
      <trkpt lat="46.81548" lon="4.90005">
        <ele>248.16</ele>
        <time>2015-07-14T11:43:20.000Z</time>
      </trkpt>
      <trkpt lat="46.81547" lon="4.89993">
        <ele>248.64</ele>
        <time>2015-07-14T11:43:22.000Z</time>
      </trkpt>
      <trkpt lat="46.81546" lon="4.89974">
        <ele>249.12</ele>
        <time>2015-07-14T11:43:25.000Z</time>
      </trkpt>
      <trkpt lat="46.81546" lon="4.89956">
        <ele>248.64</ele>
        <time>2015-07-14T11:43:28.000Z</time>
      </trkpt>
      <trkpt lat="46.81544" lon="4.89936">
        <ele>248.64</ele>
        <time>2015-07-14T11:43:31.000Z</time>
      </trkpt>
      <trkpt lat="46.81543" lon="4.89917">
        <ele>247.68</ele>
        <time>2015-07-14T11:43:34.000Z</time>
      </trkpt>
      <trkpt lat="46.81542" lon="4.899">
        <ele>247.68</ele>
        <time>2015-07-14T11:43:37.000Z</time>
      </trkpt>
      <trkpt lat="46.8154" lon="4.89885">
        <ele>247.2</ele>
        <time>2015-07-14T11:43:40.000Z</time>
      </trkpt>
      <trkpt lat="46.81533" lon="4.89876">
        <ele>247.2</ele>
        <time>2015-07-14T11:43:44.000Z</time>
      </trkpt>
      <trkpt lat="46.81522" lon="4.89878">
        <ele>247.2</ele>
        <time>2015-07-14T11:43:47.000Z</time>
      </trkpt>
      <trkpt lat="46.8151" lon="4.8988">
        <ele>248.16</ele>
        <time>2015-07-14T11:43:50.000Z</time>
      </trkpt>
      <trkpt lat="46.81497" lon="4.89883">
        <ele>247.2</ele>
        <time>2015-07-14T11:43:53.000Z</time>
      </trkpt>
      <trkpt lat="46.81488" lon="4.89885">
        <ele>247.2</ele>
        <time>2015-07-14T11:43:55.000Z</time>
      </trkpt>
      <trkpt lat="46.81475" lon="4.89887">
        <ele>247.2</ele>
        <time>2015-07-14T11:43:58.000Z</time>
      </trkpt>
      <trkpt lat="46.81463" lon="4.8989">
        <ele>247.2</ele>
        <time>2015-07-14T11:44:01.000Z</time>
      </trkpt>
      <trkpt lat="46.81452" lon="4.89892">
        <ele>247.68</ele>
        <time>2015-07-14T11:44:04.000Z</time>
      </trkpt>
      <trkpt lat="46.81442" lon="4.89888">
        <ele>247.68</ele>
        <time>2015-07-14T11:44:07.000Z</time>
      </trkpt>
      <trkpt lat="46.8144" lon="4.89873">
        <ele>247.68</ele>
        <time>2015-07-14T11:44:10.000Z</time>
      </trkpt>
      <trkpt lat="46.81442" lon="4.89854">
        <ele>247.68</ele>
        <time>2015-07-14T11:44:13.000Z</time>
      </trkpt>
      <trkpt lat="46.81443" lon="4.89834">
        <ele>246.72</ele>
        <time>2015-07-14T11:44:16.000Z</time>
      </trkpt>
      <trkpt lat="46.81446" lon="4.89815">
        <ele>247.2</ele>
        <time>2015-07-14T11:44:19.000Z</time>
      </trkpt>
      <trkpt lat="46.81448" lon="4.89797">
        <ele>247.2</ele>
        <time>2015-07-14T11:44:22.000Z</time>
      </trkpt>
      <trkpt lat="46.81451" lon="4.89782">
        <ele>246.72</ele>
        <time>2015-07-14T11:44:24.000Z</time>
      </trkpt>
      <trkpt lat="46.81453" lon="4.89766">
        <ele>246.72</ele>
        <time>2015-07-14T11:44:26.000Z</time>
      </trkpt>
      <trkpt lat="46.81456" lon="4.8975">
        <ele>247.2</ele>
        <time>2015-07-14T11:44:28.000Z</time>
      </trkpt>
      <trkpt lat="46.81459" lon="4.89736">
        <ele>248.16</ele>
        <time>2015-07-14T11:44:30.000Z</time>
      </trkpt>
      <trkpt lat="46.81462" lon="4.89722">
        <ele>247.68</ele>
        <time>2015-07-14T11:44:32.000Z</time>
      </trkpt>
      <trkpt lat="46.81465" lon="4.89707">
        <ele>248.16</ele>
        <time>2015-07-14T11:44:34.000Z</time>
      </trkpt>
      <trkpt lat="46.81467" lon="4.89692">
        <ele>247.68</ele>
        <time>2015-07-14T11:44:36.000Z</time>
      </trkpt>
      <trkpt lat="46.8147" lon="4.89677">
        <ele>247.68</ele>
        <time>2015-07-14T11:44:38.000Z</time>
      </trkpt>
      <trkpt lat="46.81473" lon="4.89661">
        <ele>247.2</ele>
        <time>2015-07-14T11:44:40.000Z</time>
      </trkpt>
      <trkpt lat="46.81475" lon="4.89645">
        <ele>247.2</ele>
        <time>2015-07-14T11:44:42.000Z</time>
      </trkpt>
      <trkpt lat="46.81477" lon="4.89628">
        <ele>247.68</ele>
        <time>2015-07-14T11:44:44.000Z</time>
      </trkpt>
      <trkpt lat="46.81479" lon="4.89611">
        <ele>247.68</ele>
        <time>2015-07-14T11:44:46.000Z</time>
      </trkpt>
      <trkpt lat="46.81482" lon="4.89595">
        <ele>247.2</ele>
        <time>2015-07-14T11:44:48.000Z</time>
      </trkpt>
      <trkpt lat="46.81484" lon="4.89579">
        <ele>247.2</ele>
        <time>2015-07-14T11:44:50.000Z</time>
      </trkpt>
      <trkpt lat="46.81486" lon="4.89564">
        <ele>247.2</ele>
        <time>2015-07-14T11:44:52.000Z</time>
      </trkpt>
      <trkpt lat="46.81488" lon="4.89548">
        <ele>246.72</ele>
        <time>2015-07-14T11:44:54.000Z</time>
      </trkpt>
      <trkpt lat="46.8149" lon="4.89533">
        <ele>246.72</ele>
        <time>2015-07-14T11:44:56.000Z</time>
      </trkpt>
      <trkpt lat="46.81492" lon="4.89517">
        <ele>246.72</ele>
        <time>2015-07-14T11:44:58.000Z</time>
      </trkpt>
      <trkpt lat="46.81494" lon="4.89501">
        <ele>247.2</ele>
        <time>2015-07-14T11:45:00.000Z</time>
      </trkpt>
      <trkpt lat="46.81496" lon="4.89486">
        <ele>247.68</ele>
        <time>2015-07-14T11:45:02.000Z</time>
      </trkpt>
      <trkpt lat="46.81496" lon="4.89471">
        <ele>247.2</ele>
        <time>2015-07-14T11:45:04.000Z</time>
      </trkpt>
      <trkpt lat="46.81497" lon="4.89456">
        <ele>248.16</ele>
        <time>2015-07-14T11:45:06.000Z</time>
      </trkpt>
      <trkpt lat="46.81496" lon="4.89442">
        <ele>248.16</ele>
        <time>2015-07-14T11:45:08.000Z</time>
      </trkpt>
      <trkpt lat="46.81495" lon="4.89428">
        <ele>247.2</ele>
        <time>2015-07-14T11:45:10.000Z</time>
      </trkpt>
      <trkpt lat="46.81495" lon="4.89414">
        <ele>247.2</ele>
        <time>2015-07-14T11:45:12.000Z</time>
      </trkpt>
      <trkpt lat="46.81495" lon="4.89399">
        <ele>247.2</ele>
        <time>2015-07-14T11:45:14.000Z</time>
      </trkpt>
      <trkpt lat="46.81494" lon="4.89384">
        <ele>247.2</ele>
        <time>2015-07-14T11:45:16.000Z</time>
      </trkpt>
      <trkpt lat="46.81495" lon="4.89369">
        <ele>247.2</ele>
        <time>2015-07-14T11:45:18.000Z</time>
      </trkpt>
      <trkpt lat="46.81495" lon="4.89355">
        <ele>246.72</ele>
        <time>2015-07-14T11:45:20.000Z</time>
      </trkpt>
      <trkpt lat="46.81496" lon="4.8934">
        <ele>247.68</ele>
        <time>2015-07-14T11:45:22.000Z</time>
      </trkpt>
      <trkpt lat="46.81498" lon="4.89325">
        <ele>248.16</ele>
        <time>2015-07-14T11:45:24.000Z</time>
      </trkpt>
      <trkpt lat="46.81498" lon="4.8931">
        <ele>248.16</ele>
        <time>2015-07-14T11:45:26.000Z</time>
      </trkpt>
      <trkpt lat="46.815" lon="4.89295">
        <ele>248.16</ele>
        <time>2015-07-14T11:45:28.000Z</time>
      </trkpt>
      <trkpt lat="46.81502" lon="4.89281">
        <ele>248.16</ele>
        <time>2015-07-14T11:45:30.000Z</time>
      </trkpt>
      <trkpt lat="46.81504" lon="4.89266">
        <ele>247.68</ele>
        <time>2015-07-14T11:45:32.000Z</time>
      </trkpt>
      <trkpt lat="46.81508" lon="4.89253">
        <ele>248.64</ele>
        <time>2015-07-14T11:45:34.000Z</time>
      </trkpt>
      <trkpt lat="46.81512" lon="4.8924">
        <ele>248.16</ele>
        <time>2015-07-14T11:45:36.000Z</time>
      </trkpt>
      <trkpt lat="46.81516" lon="4.89227">
        <ele>247.68</ele>
        <time>2015-07-14T11:45:38.000Z</time>
      </trkpt>
      <trkpt lat="46.8152" lon="4.89215">
        <ele>247.2</ele>
        <time>2015-07-14T11:45:40.000Z</time>
      </trkpt>
      <trkpt lat="46.81524" lon="4.89202">
        <ele>248.16</ele>
        <time>2015-07-14T11:45:42.000Z</time>
      </trkpt>
      <trkpt lat="46.81528" lon="4.8919">
        <ele>247.68</ele>
        <time>2015-07-14T11:45:44.000Z</time>
      </trkpt>
      <trkpt lat="46.81531" lon="4.89177">
        <ele>248.16</ele>
        <time>2015-07-14T11:45:46.000Z</time>
      </trkpt>
      <trkpt lat="46.81534" lon="4.89164">
        <ele>248.16</ele>
        <time>2015-07-14T11:45:48.000Z</time>
      </trkpt>
      <trkpt lat="46.81535" lon="4.8915">
        <ele>248.16</ele>
        <time>2015-07-14T11:45:50.000Z</time>
      </trkpt>
      <trkpt lat="46.81532" lon="4.89137">
        <ele>249.12</ele>
        <time>2015-07-14T11:45:52.000Z</time>
      </trkpt>
      <trkpt lat="46.81528" lon="4.89125">
        <ele>248.16</ele>
        <time>2015-07-14T11:45:54.000Z</time>
      </trkpt>
      <trkpt lat="46.81524" lon="4.89113">
        <ele>248.64</ele>
        <time>2015-07-14T11:45:56.000Z</time>
      </trkpt>
      <trkpt lat="46.8152" lon="4.89101">
        <ele>248.64</ele>
        <time>2015-07-14T11:45:58.000Z</time>
      </trkpt>
      <trkpt lat="46.81516" lon="4.89087">
        <ele>248.16</ele>
        <time>2015-07-14T11:46:00.000Z</time>
      </trkpt>
      <trkpt lat="46.81512" lon="4.89075">
        <ele>248.64</ele>
        <time>2015-07-14T11:46:02.000Z</time>
      </trkpt>
      <trkpt lat="46.81507" lon="4.89062">
        <ele>248.16</ele>
        <time>2015-07-14T11:46:04.000Z</time>
      </trkpt>
      <trkpt lat="46.81504" lon="4.8905">
        <ele>248.64</ele>
        <time>2015-07-14T11:46:06.000Z</time>
      </trkpt>
      <trkpt lat="46.81499" lon="4.89037">
        <ele>248.16</ele>
        <time>2015-07-14T11:46:08.000Z</time>
      </trkpt>
      <trkpt lat="46.81495" lon="4.89024">
        <ele>249.12</ele>
        <time>2015-07-14T11:46:10.000Z</time>
      </trkpt>
      <trkpt lat="46.81491" lon="4.8901">
        <ele>249.12</ele>
        <time>2015-07-14T11:46:12.000Z</time>
      </trkpt>
      <trkpt lat="46.81487" lon="4.88997">
        <ele>249.6</ele>
        <time>2015-07-14T11:46:14.000Z</time>
      </trkpt>
      <trkpt lat="46.81482" lon="4.88983">
        <ele>249.12</ele>
        <time>2015-07-14T11:46:16.000Z</time>
      </trkpt>
      <trkpt lat="46.81477" lon="4.8897">
        <ele>249.12</ele>
        <time>2015-07-14T11:46:18.000Z</time>
      </trkpt>
      <trkpt lat="46.81472" lon="4.88957">
        <ele>249.12</ele>
        <time>2015-07-14T11:46:20.000Z</time>
      </trkpt>
      <trkpt lat="46.81468" lon="4.88942">
        <ele>249.12</ele>
        <time>2015-07-14T11:46:22.000Z</time>
      </trkpt>
      <trkpt lat="46.81464" lon="4.88928">
        <ele>249.12</ele>
        <time>2015-07-14T11:46:24.000Z</time>
      </trkpt>
      <trkpt lat="46.81461" lon="4.88914">
        <ele>249.12</ele>
        <time>2015-07-14T11:46:26.000Z</time>
      </trkpt>
      <trkpt lat="46.81459" lon="4.88899">
        <ele>249.12</ele>
        <time>2015-07-14T11:46:28.000Z</time>
      </trkpt>
      <trkpt lat="46.81459" lon="4.88885">
        <ele>249.12</ele>
        <time>2015-07-14T11:46:30.000Z</time>
      </trkpt>
      <trkpt lat="46.8146" lon="4.88866">
        <ele>249.6</ele>
        <time>2015-07-14T11:46:33.000Z</time>
      </trkpt>
      <trkpt lat="46.81459" lon="4.88852">
        <ele>249.12</ele>
        <time>2015-07-14T11:46:36.000Z</time>
      </trkpt>
      <trkpt lat="46.81453" lon="4.88839">
        <ele>248.16</ele>
        <time>2015-07-14T11:46:48.000Z</time>
      </trkpt>
      <trkpt lat="46.81446" lon="4.88829">
        <ele>248.64</ele>
        <time>2015-07-14T11:46:51.000Z</time>
      </trkpt>
      <trkpt lat="46.81438" lon="4.88817">
        <ele>248.16</ele>
        <time>2015-07-14T11:46:54.000Z</time>
      </trkpt>
      <trkpt lat="46.81428" lon="4.88805">
        <ele>249.6</ele>
        <time>2015-07-14T11:46:57.000Z</time>
      </trkpt>
      <trkpt lat="46.81419" lon="4.88792">
        <ele>249.12</ele>
        <time>2015-07-14T11:47:00.000Z</time>
      </trkpt>
      <trkpt lat="46.8141" lon="4.88779">
        <ele>249.12</ele>
        <time>2015-07-14T11:47:03.000Z</time>
      </trkpt>
      <trkpt lat="46.81401" lon="4.88769">
        <ele>249.12</ele>
        <time>2015-07-14T11:47:06.000Z</time>
      </trkpt>
      <trkpt lat="46.81394" lon="4.88759">
        <ele>249.12</ele>
        <time>2015-07-14T11:47:09.000Z</time>
      </trkpt>
      <trkpt lat="46.81385" lon="4.88751">
        <ele>248.64</ele>
        <time>2015-07-14T11:47:13.000Z</time>
      </trkpt>
      <trkpt lat="46.81377" lon="4.88745">
        <ele>248.16</ele>
        <time>2015-07-14T11:47:19.000Z</time>
      </trkpt>
      <trkpt lat="46.81369" lon="4.88737">
        <ele>248.64</ele>
        <time>2015-07-14T11:47:49.000Z</time>
      </trkpt>
      <trkpt lat="46.81362" lon="4.88749">
        <ele>248.16</ele>
        <time>2015-07-14T11:47:55.000Z</time>
      </trkpt>
      <trkpt lat="46.81358" lon="4.8876">
        <ele>248.16</ele>
        <time>2015-07-14T11:48:13.000Z</time>
      </trkpt>
      <trkpt lat="46.81353" lon="4.88751">
        <ele>248.16</ele>
        <time>2015-07-14T11:48:19.000Z</time>
      </trkpt>
      <trkpt lat="46.81343" lon="4.88742">
        <ele>248.64</ele>
        <time>2015-07-14T11:48:25.000Z</time>
      </trkpt>
      <trkpt lat="46.81333" lon="4.88739">
        <ele>247.68</ele>
        <time>2015-07-14T11:48:30.000Z</time>
      </trkpt>
      <trkpt lat="46.81324" lon="4.88731">
        <ele>247.68</ele>
        <time>2015-07-14T11:48:52.000Z</time>
      </trkpt>
      <trkpt lat="46.81322" lon="4.88714">
        <ele>247.68</ele>
        <time>2015-07-14T11:48:57.000Z</time>
      </trkpt>
      <trkpt lat="46.81319" lon="4.88697">
        <ele>247.68</ele>
        <time>2015-07-14T11:49:01.000Z</time>
      </trkpt>
      <trkpt lat="46.81317" lon="4.88682">
        <ele>248.16</ele>
        <time>2015-07-14T11:49:04.000Z</time>
      </trkpt>
      <trkpt lat="46.81314" lon="4.88666">
        <ele>247.68</ele>
        <time>2015-07-14T11:49:07.000Z</time>
      </trkpt>
      <trkpt lat="46.8131" lon="4.88652">
        <ele>247.68</ele>
        <time>2015-07-14T11:49:10.000Z</time>
      </trkpt>
      <trkpt lat="46.81303" lon="4.88638">
        <ele>247.68</ele>
        <time>2015-07-14T11:49:13.000Z</time>
      </trkpt>
      <trkpt lat="46.81297" lon="4.88626">
        <ele>247.68</ele>
        <time>2015-07-14T11:49:16.000Z</time>
      </trkpt>
      <trkpt lat="46.81291" lon="4.88613">
        <ele>247.2</ele>
        <time>2015-07-14T11:49:19.000Z</time>
      </trkpt>
      <trkpt lat="46.81286" lon="4.88599">
        <ele>247.2</ele>
        <time>2015-07-14T11:49:22.000Z</time>
      </trkpt>
      <trkpt lat="46.81285" lon="4.88582">
        <ele>247.2</ele>
        <time>2015-07-14T11:49:25.000Z</time>
      </trkpt>
      <trkpt lat="46.81285" lon="4.88566">
        <ele>247.2</ele>
        <time>2015-07-14T11:49:28.000Z</time>
      </trkpt>
      <trkpt lat="46.81287" lon="4.88552">
        <ele>246.72</ele>
        <time>2015-07-14T11:49:31.000Z</time>
      </trkpt>
      <trkpt lat="46.81285" lon="4.88538">
        <ele>246.72</ele>
        <time>2015-07-14T11:49:34.000Z</time>
      </trkpt>
      <trkpt lat="46.81284" lon="4.88523">
        <ele>246.72</ele>
        <time>2015-07-14T11:49:37.000Z</time>
      </trkpt>
      <trkpt lat="46.81285" lon="4.88509">
        <ele>247.68</ele>
        <time>2015-07-14T11:49:41.000Z</time>
      </trkpt>
      <trkpt lat="46.81291" lon="4.88497">
        <ele>247.68</ele>
        <time>2015-07-14T11:49:46.000Z</time>
      </trkpt>
      <trkpt lat="46.81294" lon="4.88485">
        <ele>247.2</ele>
        <time>2015-07-14T11:49:59.000Z</time>
      </trkpt>
      <trkpt lat="46.81303" lon="4.88476">
        <ele>247.2</ele>
        <time>2015-07-14T11:50:03.000Z</time>
      </trkpt>
      <trkpt lat="46.81311" lon="4.88468">
        <ele>248.16</ele>
        <time>2015-07-14T11:50:06.000Z</time>
      </trkpt>
      <trkpt lat="46.81318" lon="4.88458">
        <ele>247.2</ele>
        <time>2015-07-14T11:50:09.000Z</time>
      </trkpt>
      <trkpt lat="46.81326" lon="4.88448">
        <ele>247.2</ele>
        <time>2015-07-14T11:50:12.000Z</time>
      </trkpt>
      <trkpt lat="46.81335" lon="4.88438">
        <ele>247.2</ele>
        <time>2015-07-14T11:50:15.000Z</time>
      </trkpt>
      <trkpt lat="46.81343" lon="4.88427">
        <ele>247.68</ele>
        <time>2015-07-14T11:50:18.000Z</time>
      </trkpt>
      <trkpt lat="46.81352" lon="4.88416">
        <ele>247.2</ele>
        <time>2015-07-14T11:50:21.000Z</time>
      </trkpt>
      <trkpt lat="46.81361" lon="4.88404">
        <ele>248.16</ele>
        <time>2015-07-14T11:50:24.000Z</time>
      </trkpt>
      <trkpt lat="46.8137" lon="4.88393">
        <ele>248.64</ele>
        <time>2015-07-14T11:50:27.000Z</time>
      </trkpt>
      <trkpt lat="46.81379" lon="4.88382">
        <ele>248.64</ele>
        <time>2015-07-14T11:50:30.000Z</time>
      </trkpt>
      <trkpt lat="46.8139" lon="4.88375">
        <ele>247.68</ele>
        <time>2015-07-14T11:50:33.000Z</time>
      </trkpt>
      <trkpt lat="46.81403" lon="4.88372">
        <ele>246.72</ele>
        <time>2015-07-14T11:50:36.000Z</time>
      </trkpt>
      <trkpt lat="46.81415" lon="4.88368">
        <ele>248.16</ele>
        <time>2015-07-14T11:50:39.000Z</time>
      </trkpt>
      <trkpt lat="46.81426" lon="4.88364">
        <ele>249.12</ele>
        <time>2015-07-14T11:50:42.000Z</time>
      </trkpt>
      <trkpt lat="46.81437" lon="4.88362">
        <ele>249.12</ele>
        <time>2015-07-14T11:50:45.000Z</time>
      </trkpt>
      <trkpt lat="46.81448" lon="4.8836">
        <ele>249.6</ele>
        <time>2015-07-14T11:50:48.000Z</time>
      </trkpt>
      <trkpt lat="46.81458" lon="4.88358">
        <ele>250.08</ele>
        <time>2015-07-14T11:50:51.000Z</time>
      </trkpt>
      <trkpt lat="46.81468" lon="4.88357">
        <ele>250.56</ele>
        <time>2015-07-14T11:50:54.000Z</time>
      </trkpt>
      <trkpt lat="46.81479" lon="4.88356">
        <ele>248.64</ele>
        <time>2015-07-14T11:50:57.000Z</time>
      </trkpt>
      <trkpt lat="46.81489" lon="4.88356">
        <ele>249.6</ele>
        <time>2015-07-14T11:51:00.000Z</time>
      </trkpt>
      <trkpt lat="46.81498" lon="4.88354">
        <ele>249.6</ele>
        <time>2015-07-14T11:51:03.000Z</time>
      </trkpt>
      <trkpt lat="46.81508" lon="4.88353">
        <ele>249.6</ele>
        <time>2015-07-14T11:51:07.000Z</time>
      </trkpt>
      <trkpt lat="46.81508" lon="4.88347">
        <ele>250.56</ele>
        <time>2015-07-14T11:51:13.000Z</time>
      </trkpt>
      <trkpt lat="46.81498" lon="4.88352">
        <ele>250.56</ele>
        <time>2015-07-14T11:51:17.000Z</time>
      </trkpt>
      <trkpt lat="46.81488" lon="4.88351">
        <ele>250.08</ele>
        <time>2015-07-14T11:51:20.000Z</time>
      </trkpt>
      <trkpt lat="46.81479" lon="4.88352">
        <ele>249.6</ele>
        <time>2015-07-14T11:51:23.000Z</time>
      </trkpt>
      <trkpt lat="46.8147" lon="4.88345">
        <ele>249.6</ele>
        <time>2015-07-14T11:51:26.000Z</time>
      </trkpt>
      <trkpt lat="46.81464" lon="4.88332">
        <ele>249.12</ele>
        <time>2015-07-14T11:51:29.000Z</time>
      </trkpt>
      <trkpt lat="46.81459" lon="4.88317">
        <ele>249.6</ele>
        <time>2015-07-14T11:51:32.000Z</time>
      </trkpt>
      <trkpt lat="46.81455" lon="4.88299">
        <ele>249.12</ele>
        <time>2015-07-14T11:51:35.000Z</time>
      </trkpt>
      <trkpt lat="46.81451" lon="4.8828">
        <ele>249.6</ele>
        <time>2015-07-14T11:51:38.000Z</time>
      </trkpt>
      <trkpt lat="46.81448" lon="4.88267">
        <ele>249.6</ele>
        <time>2015-07-14T11:51:40.000Z</time>
      </trkpt>
      <trkpt lat="46.81445" lon="4.88255">
        <ele>249.6</ele>
        <time>2015-07-14T11:51:42.000Z</time>
      </trkpt>
      <trkpt lat="46.81441" lon="4.88242">
        <ele>249.12</ele>
        <time>2015-07-14T11:51:44.000Z</time>
      </trkpt>
      <trkpt lat="46.81438" lon="4.88229">
        <ele>249.6</ele>
        <time>2015-07-14T11:51:46.000Z</time>
      </trkpt>
      <trkpt lat="46.81436" lon="4.88215">
        <ele>249.6</ele>
        <time>2015-07-14T11:51:48.000Z</time>
      </trkpt>
      <trkpt lat="46.81436" lon="4.88201">
        <ele>249.6</ele>
        <time>2015-07-14T11:51:50.000Z</time>
      </trkpt>
      <trkpt lat="46.81434" lon="4.88188">
        <ele>249.6</ele>
        <time>2015-07-14T11:51:52.000Z</time>
      </trkpt>
      <trkpt lat="46.81428" lon="4.88171">
        <ele>249.12</ele>
        <time>2015-07-14T11:51:55.000Z</time>
      </trkpt>
      <trkpt lat="46.8142" lon="4.88156">
        <ele>248.64</ele>
        <time>2015-07-14T11:51:58.000Z</time>
      </trkpt>
      <trkpt lat="46.81413" lon="4.8814">
        <ele>248.64</ele>
        <time>2015-07-14T11:52:01.000Z</time>
      </trkpt>
      <trkpt lat="46.81408" lon="4.88124">
        <ele>248.64</ele>
        <time>2015-07-14T11:52:04.000Z</time>
      </trkpt>
      <trkpt lat="46.81401" lon="4.88108">
        <ele>248.64</ele>
        <time>2015-07-14T11:52:07.000Z</time>
      </trkpt>
      <trkpt lat="46.81395" lon="4.88091">
        <ele>249.6</ele>
        <time>2015-07-14T11:52:10.000Z</time>
      </trkpt>
      <trkpt lat="46.81389" lon="4.88074">
        <ele>249.6</ele>
        <time>2015-07-14T11:52:13.000Z</time>
      </trkpt>
      <trkpt lat="46.81382" lon="4.88059">
        <ele>249.6</ele>
        <time>2015-07-14T11:52:16.000Z</time>
      </trkpt>
      <trkpt lat="46.81375" lon="4.88046">
        <ele>249.6</ele>
        <time>2015-07-14T11:52:19.000Z</time>
      </trkpt>
      <trkpt lat="46.8137" lon="4.8803">
        <ele>248.64</ele>
        <time>2015-07-14T11:52:22.000Z</time>
      </trkpt>
      <trkpt lat="46.81365" lon="4.88013">
        <ele>249.12</ele>
        <time>2015-07-14T11:52:25.000Z</time>
      </trkpt>
      <trkpt lat="46.81359" lon="4.87997">
        <ele>249.6</ele>
        <time>2015-07-14T11:52:28.000Z</time>
      </trkpt>
      <trkpt lat="46.81354" lon="4.8798">
        <ele>249.12</ele>
        <time>2015-07-14T11:52:31.000Z</time>
      </trkpt>
      <trkpt lat="46.81349" lon="4.87964">
        <ele>249.6</ele>
        <time>2015-07-14T11:52:34.000Z</time>
      </trkpt>
      <trkpt lat="46.81344" lon="4.87948">
        <ele>250.56</ele>
        <time>2015-07-14T11:52:37.000Z</time>
      </trkpt>
      <trkpt lat="46.81339" lon="4.8793">
        <ele>250.56</ele>
        <time>2015-07-14T11:52:40.000Z</time>
      </trkpt>
      <trkpt lat="46.81333" lon="4.87912">
        <ele>251.04</ele>
        <time>2015-07-14T11:52:43.000Z</time>
      </trkpt>
      <trkpt lat="46.81328" lon="4.87895">
        <ele>251.04</ele>
        <time>2015-07-14T11:52:46.000Z</time>
      </trkpt>
      <trkpt lat="46.81323" lon="4.87878">
        <ele>251.04</ele>
        <time>2015-07-14T11:52:49.000Z</time>
      </trkpt>
      <trkpt lat="46.81318" lon="4.87862">
        <ele>251.04</ele>
        <time>2015-07-14T11:52:52.000Z</time>
      </trkpt>
      <trkpt lat="46.81313" lon="4.87845">
        <ele>251.52</ele>
        <time>2015-07-14T11:52:55.000Z</time>
      </trkpt>
      <trkpt lat="46.81307" lon="4.87829">
        <ele>251.52</ele>
        <time>2015-07-14T11:52:58.000Z</time>
      </trkpt>
      <trkpt lat="46.81302" lon="4.87813">
        <ele>251.52</ele>
        <time>2015-07-14T11:53:01.000Z</time>
      </trkpt>
      <trkpt lat="46.81297" lon="4.87796">
        <ele>251.52</ele>
        <time>2015-07-14T11:53:04.000Z</time>
      </trkpt>
      <trkpt lat="46.81291" lon="4.87779">
        <ele>251.04</ele>
        <time>2015-07-14T11:53:07.000Z</time>
      </trkpt>
      <trkpt lat="46.81285" lon="4.87763">
        <ele>251.04</ele>
        <time>2015-07-14T11:53:10.000Z</time>
      </trkpt>
      <trkpt lat="46.81279" lon="4.87745">
        <ele>251.52</ele>
        <time>2015-07-14T11:53:13.000Z</time>
      </trkpt>
      <trkpt lat="46.81274" lon="4.87728">
        <ele>252</ele>
        <time>2015-07-14T11:53:16.000Z</time>
      </trkpt>
      <trkpt lat="46.81269" lon="4.87711">
        <ele>252</ele>
        <time>2015-07-14T11:53:19.000Z</time>
      </trkpt>
      <trkpt lat="46.81264" lon="4.87692">
        <ele>252</ele>
        <time>2015-07-14T11:53:22.000Z</time>
      </trkpt>
      <trkpt lat="46.8126" lon="4.87673">
        <ele>251.52</ele>
        <time>2015-07-14T11:53:25.000Z</time>
      </trkpt>
      <trkpt lat="46.81256" lon="4.87661">
        <ele>251.52</ele>
        <time>2015-07-14T11:53:27.000Z</time>
      </trkpt>
      <trkpt lat="46.81253" lon="4.87648">
        <ele>250.56</ele>
        <time>2015-07-14T11:53:29.000Z</time>
      </trkpt>
      <trkpt lat="46.8125" lon="4.87635">
        <ele>250.56</ele>
        <time>2015-07-14T11:53:31.000Z</time>
      </trkpt>
      <trkpt lat="46.81248" lon="4.87621">
        <ele>250.56</ele>
        <time>2015-07-14T11:53:33.000Z</time>
      </trkpt>
      <trkpt lat="46.81246" lon="4.87607">
        <ele>250.56</ele>
        <time>2015-07-14T11:53:35.000Z</time>
      </trkpt>
      <trkpt lat="46.81245" lon="4.87593">
        <ele>250.08</ele>
        <time>2015-07-14T11:53:37.000Z</time>
      </trkpt>
      <trkpt lat="46.81243" lon="4.87579">
        <ele>251.04</ele>
        <time>2015-07-14T11:53:39.000Z</time>
      </trkpt>
      <trkpt lat="46.81242" lon="4.87564">
        <ele>251.04</ele>
        <time>2015-07-14T11:53:41.000Z</time>
      </trkpt>
      <trkpt lat="46.81242" lon="4.87549">
        <ele>250.56</ele>
        <time>2015-07-14T11:53:43.000Z</time>
      </trkpt>
      <trkpt lat="46.81242" lon="4.87535">
        <ele>251.04</ele>
        <time>2015-07-14T11:53:45.000Z</time>
      </trkpt>
      <trkpt lat="46.81241" lon="4.8752">
        <ele>250.56</ele>
        <time>2015-07-14T11:53:47.000Z</time>
      </trkpt>
      <trkpt lat="46.81241" lon="4.87504">
        <ele>250.56</ele>
        <time>2015-07-14T11:53:49.000Z</time>
      </trkpt>
      <trkpt lat="46.8124" lon="4.87489">
        <ele>250.56</ele>
        <time>2015-07-14T11:53:51.000Z</time>
      </trkpt>
      <trkpt lat="46.81239" lon="4.87474">
        <ele>250.56</ele>
        <time>2015-07-14T11:53:53.000Z</time>
      </trkpt>
      <trkpt lat="46.81239" lon="4.87459">
        <ele>250.56</ele>
        <time>2015-07-14T11:53:55.000Z</time>
      </trkpt>
      <trkpt lat="46.81239" lon="4.87443">
        <ele>250.56</ele>
        <time>2015-07-14T11:53:57.000Z</time>
      </trkpt>
      <trkpt lat="46.81238" lon="4.87428">
        <ele>250.56</ele>
        <time>2015-07-14T11:53:59.000Z</time>
      </trkpt>
      <trkpt lat="46.81237" lon="4.87413">
        <ele>250.08</ele>
        <time>2015-07-14T11:54:01.000Z</time>
      </trkpt>
      <trkpt lat="46.81236" lon="4.87397">
        <ele>250.56</ele>
        <time>2015-07-14T11:54:03.000Z</time>
      </trkpt>
      <trkpt lat="46.81236" lon="4.87382">
        <ele>250.56</ele>
        <time>2015-07-14T11:54:05.000Z</time>
      </trkpt>
      <trkpt lat="46.81234" lon="4.87366">
        <ele>251.52</ele>
        <time>2015-07-14T11:54:07.000Z</time>
      </trkpt>
      <trkpt lat="46.81233" lon="4.87351">
        <ele>249.12</ele>
        <time>2015-07-14T11:54:09.000Z</time>
      </trkpt>
      <trkpt lat="46.81232" lon="4.87336">
        <ele>249.6</ele>
        <time>2015-07-14T11:54:11.000Z</time>
      </trkpt>
      <trkpt lat="46.81231" lon="4.87322">
        <ele>249.6</ele>
        <time>2015-07-14T11:54:13.000Z</time>
      </trkpt>
      <trkpt lat="46.81229" lon="4.87308">
        <ele>249.6</ele>
        <time>2015-07-14T11:54:15.000Z</time>
      </trkpt>
      <trkpt lat="46.81227" lon="4.87293">
        <ele>250.08</ele>
        <time>2015-07-14T11:54:17.000Z</time>
      </trkpt>
      <trkpt lat="46.81224" lon="4.87279">
        <ele>249.6</ele>
        <time>2015-07-14T11:54:19.000Z</time>
      </trkpt>
      <trkpt lat="46.81223" lon="4.87265">
        <ele>250.08</ele>
        <time>2015-07-14T11:54:21.000Z</time>
      </trkpt>
      <trkpt lat="46.81219" lon="4.87252">
        <ele>251.52</ele>
        <time>2015-07-14T11:54:23.000Z</time>
      </trkpt>
      <trkpt lat="46.81215" lon="4.87234">
        <ele>252</ele>
        <time>2015-07-14T11:54:26.000Z</time>
      </trkpt>
      <trkpt lat="46.81211" lon="4.87222">
        <ele>252</ele>
        <time>2015-07-14T11:54:28.000Z</time>
      </trkpt>
      <trkpt lat="46.81208" lon="4.87209">
        <ele>252.48</ele>
        <time>2015-07-14T11:54:30.000Z</time>
      </trkpt>
      <trkpt lat="46.81204" lon="4.87192">
        <ele>252</ele>
        <time>2015-07-14T11:54:33.000Z</time>
      </trkpt>
      <trkpt lat="46.812" lon="4.87175">
        <ele>252.48</ele>
        <time>2015-07-14T11:54:36.000Z</time>
      </trkpt>
      <trkpt lat="46.81195" lon="4.87158">
        <ele>252.96</ele>
        <time>2015-07-14T11:54:39.000Z</time>
      </trkpt>
      <trkpt lat="46.8119" lon="4.87145">
        <ele>252.96</ele>
        <time>2015-07-14T11:54:41.000Z</time>
      </trkpt>
      <trkpt lat="46.81186" lon="4.87132">
        <ele>252.96</ele>
        <time>2015-07-14T11:54:43.000Z</time>
      </trkpt>
      <trkpt lat="46.81181" lon="4.87118">
        <ele>252.48</ele>
        <time>2015-07-14T11:54:45.000Z</time>
      </trkpt>
      <trkpt lat="46.81175" lon="4.87104">
        <ele>252.48</ele>
        <time>2015-07-14T11:54:47.000Z</time>
      </trkpt>
      <trkpt lat="46.81169" lon="4.87089">
        <ele>252</ele>
        <time>2015-07-14T11:54:49.000Z</time>
      </trkpt>
      <trkpt lat="46.81164" lon="4.87074">
        <ele>252.48</ele>
        <time>2015-07-14T11:54:51.000Z</time>
      </trkpt>
      <trkpt lat="46.8116" lon="4.8706">
        <ele>252</ele>
        <time>2015-07-14T11:54:53.000Z</time>
      </trkpt>
      <trkpt lat="46.81157" lon="4.87046">
        <ele>252</ele>
        <time>2015-07-14T11:54:55.000Z</time>
      </trkpt>
      <trkpt lat="46.81157" lon="4.87032">
        <ele>252</ele>
        <time>2015-07-14T11:54:57.000Z</time>
      </trkpt>
      <trkpt lat="46.8116" lon="4.87014">
        <ele>252.48</ele>
        <time>2015-07-14T11:55:00.000Z</time>
      </trkpt>
      <trkpt lat="46.81168" lon="4.87005">
        <ele>252.96</ele>
        <time>2015-07-14T11:55:03.000Z</time>
      </trkpt>
      <trkpt lat="46.81177" lon="4.86999">
        <ele>254.89</ele>
        <time>2015-07-14T11:55:07.000Z</time>
      </trkpt>
      <trkpt lat="46.81186" lon="4.8699">
        <ele>255.37</ele>
        <time>2015-07-14T11:55:12.000Z</time>
      </trkpt>
      <trkpt lat="46.81193" lon="4.86979">
        <ele>256.81</ele>
        <time>2015-07-14T11:55:17.000Z</time>
      </trkpt>
      <trkpt lat="46.81197" lon="4.86966">
        <ele>258.25</ele>
        <time>2015-07-14T11:55:22.000Z</time>
      </trkpt>
      <trkpt lat="46.81197" lon="4.86951">
        <ele>258.25</ele>
        <time>2015-07-14T11:55:27.000Z</time>
      </trkpt>
      <trkpt lat="46.81194" lon="4.86935">
        <ele>258.73</ele>
        <time>2015-07-14T11:55:31.000Z</time>
      </trkpt>
      <trkpt lat="46.81188" lon="4.86922">
        <ele>260.17</ele>
        <time>2015-07-14T11:55:34.000Z</time>
      </trkpt>
      <trkpt lat="46.81182" lon="4.86909">
        <ele>257.77</ele>
        <time>2015-07-14T11:55:37.000Z</time>
      </trkpt>
      <trkpt lat="46.81175" lon="4.86896">
        <ele>257.77</ele>
        <time>2015-07-14T11:55:40.000Z</time>
      </trkpt>
      <trkpt lat="46.81168" lon="4.86882">
        <ele>257.77</ele>
        <time>2015-07-14T11:55:43.000Z</time>
      </trkpt>
      <trkpt lat="46.81161" lon="4.86867">
        <ele>257.77</ele>
        <time>2015-07-14T11:55:46.000Z</time>
      </trkpt>
      <trkpt lat="46.81156" lon="4.86856">
        <ele>257.77</ele>
        <time>2015-07-14T11:55:48.000Z</time>
      </trkpt>
      <trkpt lat="46.81152" lon="4.86844">
        <ele>258.25</ele>
        <time>2015-07-14T11:55:50.000Z</time>
      </trkpt>
      <trkpt lat="46.81146" lon="4.86832">
        <ele>258.25</ele>
        <time>2015-07-14T11:55:52.000Z</time>
      </trkpt>
      <trkpt lat="46.81141" lon="4.8682">
        <ele>258.25</ele>
        <time>2015-07-14T11:55:54.000Z</time>
      </trkpt>
      <trkpt lat="46.81134" lon="4.86807">
        <ele>258.25</ele>
        <time>2015-07-14T11:55:56.000Z</time>
      </trkpt>
      <trkpt lat="46.81128" lon="4.86795">
        <ele>258.25</ele>
        <time>2015-07-14T11:55:58.000Z</time>
      </trkpt>
      <trkpt lat="46.81123" lon="4.86782">
        <ele>258.73</ele>
        <time>2015-07-14T11:56:00.000Z</time>
      </trkpt>
      <trkpt lat="46.81116" lon="4.86769">
        <ele>258.25</ele>
        <time>2015-07-14T11:56:02.000Z</time>
      </trkpt>
      <trkpt lat="46.8111" lon="4.86757">
        <ele>258.25</ele>
        <time>2015-07-14T11:56:04.000Z</time>
      </trkpt>
      <trkpt lat="46.81105" lon="4.86745">
        <ele>257.77</ele>
        <time>2015-07-14T11:56:06.000Z</time>
      </trkpt>
      <trkpt lat="46.81098" lon="4.86732">
        <ele>257.77</ele>
        <time>2015-07-14T11:56:08.000Z</time>
      </trkpt>
      <trkpt lat="46.81092" lon="4.8672">
        <ele>257.77</ele>
        <time>2015-07-14T11:56:10.000Z</time>
      </trkpt>
      <trkpt lat="46.81086" lon="4.86708">
        <ele>257.77</ele>
        <time>2015-07-14T11:56:12.000Z</time>
      </trkpt>
      <trkpt lat="46.8108" lon="4.86696">
        <ele>257.77</ele>
        <time>2015-07-14T11:56:14.000Z</time>
      </trkpt>
      <trkpt lat="46.81074" lon="4.86683">
        <ele>257.77</ele>
        <time>2015-07-14T11:56:16.000Z</time>
      </trkpt>
      <trkpt lat="46.81068" lon="4.86672">
        <ele>257.77</ele>
        <time>2015-07-14T11:56:18.000Z</time>
      </trkpt>
      <trkpt lat="46.81062" lon="4.8666">
        <ele>257.29</ele>
        <time>2015-07-14T11:56:20.000Z</time>
      </trkpt>
      <trkpt lat="46.81055" lon="4.86648">
        <ele>257.77</ele>
        <time>2015-07-14T11:56:22.000Z</time>
      </trkpt>
      <trkpt lat="46.81049" lon="4.86636">
        <ele>257.29</ele>
        <time>2015-07-14T11:56:24.000Z</time>
      </trkpt>
      <trkpt lat="46.81042" lon="4.86625">
        <ele>257.29</ele>
        <time>2015-07-14T11:56:26.000Z</time>
      </trkpt>
      <trkpt lat="46.81034" lon="4.86614">
        <ele>256.81</ele>
        <time>2015-07-14T11:56:28.000Z</time>
      </trkpt>
      <trkpt lat="46.81026" lon="4.86603">
        <ele>256.33</ele>
        <time>2015-07-14T11:56:30.000Z</time>
      </trkpt>
      <trkpt lat="46.81017" lon="4.86593">
        <ele>256.33</ele>
        <time>2015-07-14T11:56:32.000Z</time>
      </trkpt>
      <trkpt lat="46.81009" lon="4.86583">
        <ele>256.33</ele>
        <time>2015-07-14T11:56:34.000Z</time>
      </trkpt>
      <trkpt lat="46.81" lon="4.86571">
        <ele>255.85</ele>
        <time>2015-07-14T11:56:36.000Z</time>
      </trkpt>
      <trkpt lat="46.80991" lon="4.8656">
        <ele>255.85</ele>
        <time>2015-07-14T11:56:38.000Z</time>
      </trkpt>
      <trkpt lat="46.80982" lon="4.86549">
        <ele>255.85</ele>
        <time>2015-07-14T11:56:40.000Z</time>
      </trkpt>
      <trkpt lat="46.80973" lon="4.86537">
        <ele>256.33</ele>
        <time>2015-07-14T11:56:42.000Z</time>
      </trkpt>
      <trkpt lat="46.80965" lon="4.86526">
        <ele>256.33</ele>
        <time>2015-07-14T11:56:44.000Z</time>
      </trkpt>
      <trkpt lat="46.80957" lon="4.86515">
        <ele>256.81</ele>
        <time>2015-07-14T11:56:46.000Z</time>
      </trkpt>
      <trkpt lat="46.80949" lon="4.86504">
        <ele>257.29</ele>
        <time>2015-07-14T11:56:48.000Z</time>
      </trkpt>
      <trkpt lat="46.80942" lon="4.86495">
        <ele>257.77</ele>
        <time>2015-07-14T11:56:50.000Z</time>
      </trkpt>
      <trkpt lat="46.80935" lon="4.86486">
        <ele>257.77</ele>
        <time>2015-07-14T11:56:52.000Z</time>
      </trkpt>
      <trkpt lat="46.80925" lon="4.86473">
        <ele>258.25</ele>
        <time>2015-07-14T11:56:55.000Z</time>
      </trkpt>
      <trkpt lat="46.80915" lon="4.86461">
        <ele>258.73</ele>
        <time>2015-07-14T11:56:58.000Z</time>
      </trkpt>
      <trkpt lat="46.80906" lon="4.86448">
        <ele>259.21</ele>
        <time>2015-07-14T11:57:01.000Z</time>
      </trkpt>
      <trkpt lat="46.80897" lon="4.86437">
        <ele>260.17</ele>
        <time>2015-07-14T11:57:04.000Z</time>
      </trkpt>
      <trkpt lat="46.80888" lon="4.86425">
        <ele>260.65</ele>
        <time>2015-07-14T11:57:07.000Z</time>
      </trkpt>
      <trkpt lat="46.80879" lon="4.86413">
        <ele>261.14</ele>
        <time>2015-07-14T11:57:10.000Z</time>
      </trkpt>
      <trkpt lat="46.8087" lon="4.86401">
        <ele>260.65</ele>
        <time>2015-07-14T11:57:13.000Z</time>
      </trkpt>
      <trkpt lat="46.8086" lon="4.86388">
        <ele>261.14</ele>
        <time>2015-07-14T11:57:16.000Z</time>
      </trkpt>
      <trkpt lat="46.80851" lon="4.86376">
        <ele>261.62</ele>
        <time>2015-07-14T11:57:19.000Z</time>
      </trkpt>
      <trkpt lat="46.80841" lon="4.86363">
        <ele>261.62</ele>
        <time>2015-07-14T11:57:22.000Z</time>
      </trkpt>
      <trkpt lat="46.80831" lon="4.8635">
        <ele>262.58</ele>
        <time>2015-07-14T11:57:25.000Z</time>
      </trkpt>
      <trkpt lat="46.80821" lon="4.86338">
        <ele>262.58</ele>
        <time>2015-07-14T11:57:28.000Z</time>
      </trkpt>
      <trkpt lat="46.80811" lon="4.86325">
        <ele>262.58</ele>
        <time>2015-07-14T11:57:31.000Z</time>
      </trkpt>
      <trkpt lat="46.80801" lon="4.86313">
        <ele>262.58</ele>
        <time>2015-07-14T11:57:34.000Z</time>
      </trkpt>
      <trkpt lat="46.80794" lon="4.86304">
        <ele>261.62</ele>
        <time>2015-07-14T11:57:36.000Z</time>
      </trkpt>
      <trkpt lat="46.80787" lon="4.86296">
        <ele>261.62</ele>
        <time>2015-07-14T11:57:38.000Z</time>
      </trkpt>
      <trkpt lat="46.80778" lon="4.86289">
        <ele>261.14</ele>
        <time>2015-07-14T11:57:40.000Z</time>
      </trkpt>
      <trkpt lat="46.80769" lon="4.86281">
        <ele>261.14</ele>
        <time>2015-07-14T11:57:42.000Z</time>
      </trkpt>
      <trkpt lat="46.8076" lon="4.86274">
        <ele>260.17</ele>
        <time>2015-07-14T11:57:44.000Z</time>
      </trkpt>
      <trkpt lat="46.80751" lon="4.86266">
        <ele>260.17</ele>
        <time>2015-07-14T11:57:46.000Z</time>
      </trkpt>
      <trkpt lat="46.80742" lon="4.86258">
        <ele>260.17</ele>
        <time>2015-07-14T11:57:48.000Z</time>
      </trkpt>
      <trkpt lat="46.80732" lon="4.86251">
        <ele>260.65</ele>
        <time>2015-07-14T11:57:50.000Z</time>
      </trkpt>
      <trkpt lat="46.80722" lon="4.86245">
        <ele>260.65</ele>
        <time>2015-07-14T11:57:52.000Z</time>
      </trkpt>
      <trkpt lat="46.80712" lon="4.86239">
        <ele>260.65</ele>
        <time>2015-07-14T11:57:54.000Z</time>
      </trkpt>
      <trkpt lat="46.80702" lon="4.86232">
        <ele>260.17</ele>
        <time>2015-07-14T11:57:56.000Z</time>
      </trkpt>
      <trkpt lat="46.80691" lon="4.86225">
        <ele>260.17</ele>
        <time>2015-07-14T11:57:58.000Z</time>
      </trkpt>
      <trkpt lat="46.8068" lon="4.86218">
        <ele>259.21</ele>
        <time>2015-07-14T11:58:00.000Z</time>
      </trkpt>
      <trkpt lat="46.8067" lon="4.86209">
        <ele>258.25</ele>
        <time>2015-07-14T11:58:02.000Z</time>
      </trkpt>
      <trkpt lat="46.8066" lon="4.862">
        <ele>259.21</ele>
        <time>2015-07-14T11:58:04.000Z</time>
      </trkpt>
      <trkpt lat="46.80651" lon="4.86189">
        <ele>259.21</ele>
        <time>2015-07-14T11:58:06.000Z</time>
      </trkpt>
      <trkpt lat="46.80647" lon="4.86175">
        <ele>258.73</ele>
        <time>2015-07-14T11:58:08.000Z</time>
      </trkpt>
      <trkpt lat="46.80646" lon="4.86161">
        <ele>258.73</ele>
        <time>2015-07-14T11:58:10.000Z</time>
      </trkpt>
      <trkpt lat="46.80642" lon="4.86148">
        <ele>258.25</ele>
        <time>2015-07-14T11:58:12.000Z</time>
      </trkpt>
      <trkpt lat="46.80634" lon="4.86139">
        <ele>257.77</ele>
        <time>2015-07-14T11:58:14.000Z</time>
      </trkpt>
      <trkpt lat="46.80624" lon="4.86136">
        <ele>258.25</ele>
        <time>2015-07-14T11:58:16.000Z</time>
      </trkpt>
      <trkpt lat="46.80613" lon="4.86141">
        <ele>257.77</ele>
        <time>2015-07-14T11:58:18.000Z</time>
      </trkpt>
      <trkpt lat="46.80604" lon="4.86153">
        <ele>256.81</ele>
        <time>2015-07-14T11:58:20.000Z</time>
      </trkpt>
      <trkpt lat="46.80594" lon="4.86163">
        <ele>256.81</ele>
        <time>2015-07-14T11:58:22.000Z</time>
      </trkpt>
      <trkpt lat="46.80581" lon="4.86165">
        <ele>256.81</ele>
        <time>2015-07-14T11:58:24.000Z</time>
      </trkpt>
      <trkpt lat="46.80566" lon="4.86163">
        <ele>256.33</ele>
        <time>2015-07-14T11:58:26.000Z</time>
      </trkpt>
      <trkpt lat="46.80551" lon="4.86161">
        <ele>254.89</ele>
        <time>2015-07-14T11:58:28.000Z</time>
      </trkpt>
      <trkpt lat="46.80535" lon="4.86157">
        <ele>253.44</ele>
        <time>2015-07-14T11:58:30.000Z</time>
      </trkpt>
      <trkpt lat="46.80518" lon="4.86151">
        <ele>252.48</ele>
        <time>2015-07-14T11:58:32.000Z</time>
      </trkpt>
      <trkpt lat="46.80502" lon="4.86145">
        <ele>252</ele>
        <time>2015-07-14T11:58:34.000Z</time>
      </trkpt>
      <trkpt lat="46.80488" lon="4.86139">
        <ele>251.52</ele>
        <time>2015-07-14T11:58:36.000Z</time>
      </trkpt>
      <trkpt lat="46.80474" lon="4.86134">
        <ele>252</ele>
        <time>2015-07-14T11:58:38.000Z</time>
      </trkpt>
      <trkpt lat="46.80462" lon="4.86131">
        <ele>252.48</ele>
        <time>2015-07-14T11:58:40.000Z</time>
      </trkpt>
      <trkpt lat="46.8045" lon="4.8613">
        <ele>252.48</ele>
        <time>2015-07-14T11:58:42.000Z</time>
      </trkpt>
      <trkpt lat="46.8044" lon="4.86129">
        <ele>252.96</ele>
        <time>2015-07-14T11:58:44.000Z</time>
      </trkpt>
      <trkpt lat="46.80429" lon="4.86129">
        <ele>252.96</ele>
        <time>2015-07-14T11:58:46.000Z</time>
      </trkpt>
      <trkpt lat="46.80419" lon="4.86129">
        <ele>252.96</ele>
        <time>2015-07-14T11:58:48.000Z</time>
      </trkpt>
      <trkpt lat="46.80409" lon="4.86129">
        <ele>252.48</ele>
        <time>2015-07-14T11:58:50.000Z</time>
      </trkpt>
      <trkpt lat="46.80399" lon="4.86128">
        <ele>252.48</ele>
        <time>2015-07-14T11:58:52.000Z</time>
      </trkpt>
      <trkpt lat="46.80389" lon="4.86127">
        <ele>252.48</ele>
        <time>2015-07-14T11:58:54.000Z</time>
      </trkpt>
      <trkpt lat="46.8038" lon="4.86125">
        <ele>252.48</ele>
        <time>2015-07-14T11:58:56.000Z</time>
      </trkpt>
      <trkpt lat="46.8037" lon="4.86124">
        <ele>252.48</ele>
        <time>2015-07-14T11:58:58.000Z</time>
      </trkpt>
      <trkpt lat="46.8036" lon="4.86124">
        <ele>252</ele>
        <time>2015-07-14T11:59:00.000Z</time>
      </trkpt>
      <trkpt lat="46.80351" lon="4.86122">
        <ele>252.48</ele>
        <time>2015-07-14T11:59:02.000Z</time>
      </trkpt>
      <trkpt lat="46.80342" lon="4.86121">
        <ele>252.48</ele>
        <time>2015-07-14T11:59:04.000Z</time>
      </trkpt>
      <trkpt lat="46.80333" lon="4.8612">
        <ele>252</ele>
        <time>2015-07-14T11:59:06.000Z</time>
      </trkpt>
      <trkpt lat="46.80323" lon="4.86119">
        <ele>252</ele>
        <time>2015-07-14T11:59:08.000Z</time>
      </trkpt>
      <trkpt lat="46.80313" lon="4.86118">
        <ele>252</ele>
        <time>2015-07-14T11:59:10.000Z</time>
      </trkpt>
      <trkpt lat="46.80304" lon="4.86117">
        <ele>252</ele>
        <time>2015-07-14T11:59:12.000Z</time>
      </trkpt>
      <trkpt lat="46.80294" lon="4.86116">
        <ele>251.52</ele>
        <time>2015-07-14T11:59:14.000Z</time>
      </trkpt>
      <trkpt lat="46.80285" lon="4.86116">
        <ele>252</ele>
        <time>2015-07-14T11:59:16.000Z</time>
      </trkpt>
      <trkpt lat="46.80274" lon="4.86114">
        <ele>251.52</ele>
        <time>2015-07-14T11:59:18.000Z</time>
      </trkpt>
      <trkpt lat="46.80264" lon="4.86113">
        <ele>251.52</ele>
        <time>2015-07-14T11:59:20.000Z</time>
      </trkpt>
      <trkpt lat="46.80254" lon="4.86113">
        <ele>251.52</ele>
        <time>2015-07-14T11:59:22.000Z</time>
      </trkpt>
      <trkpt lat="46.80243" lon="4.86112">
        <ele>251.52</ele>
        <time>2015-07-14T11:59:24.000Z</time>
      </trkpt>
      <trkpt lat="46.80233" lon="4.86111">
        <ele>251.52</ele>
        <time>2015-07-14T11:59:26.000Z</time>
      </trkpt>
      <trkpt lat="46.80222" lon="4.86111">
        <ele>251.04</ele>
        <time>2015-07-14T11:59:28.000Z</time>
      </trkpt>
      <trkpt lat="46.80212" lon="4.86112">
        <ele>250.56</ele>
        <time>2015-07-14T11:59:30.000Z</time>
      </trkpt>
      <trkpt lat="46.80201" lon="4.86114">
        <ele>251.04</ele>
        <time>2015-07-14T11:59:32.000Z</time>
      </trkpt>
      <trkpt lat="46.8019" lon="4.86116">
        <ele>251.04</ele>
        <time>2015-07-14T11:59:34.000Z</time>
      </trkpt>
      <trkpt lat="46.80179" lon="4.86116">
        <ele>251.04</ele>
        <time>2015-07-14T11:59:36.000Z</time>
      </trkpt>
      <trkpt lat="46.80169" lon="4.86117">
        <ele>250.56</ele>
        <time>2015-07-14T11:59:38.000Z</time>
      </trkpt>
      <trkpt lat="46.80159" lon="4.86118">
        <ele>250.56</ele>
        <time>2015-07-14T11:59:40.000Z</time>
      </trkpt>
      <trkpt lat="46.8015" lon="4.86119">
        <ele>250.56</ele>
        <time>2015-07-14T11:59:42.000Z</time>
      </trkpt>
      <trkpt lat="46.80141" lon="4.8612">
        <ele>250.56</ele>
        <time>2015-07-14T11:59:44.000Z</time>
      </trkpt>
      <trkpt lat="46.80128" lon="4.86121">
        <ele>250.56</ele>
        <time>2015-07-14T11:59:47.000Z</time>
      </trkpt>
      <trkpt lat="46.80115" lon="4.86124">
        <ele>250.08</ele>
        <time>2015-07-14T11:59:50.000Z</time>
      </trkpt>
      <trkpt lat="46.80102" lon="4.86126">
        <ele>250.08</ele>
        <time>2015-07-14T11:59:53.000Z</time>
      </trkpt>
      <trkpt lat="46.80093" lon="4.86128">
        <ele>249.6</ele>
        <time>2015-07-14T11:59:55.000Z</time>
      </trkpt>
      <trkpt lat="46.80083" lon="4.86129">
        <ele>249.6</ele>
        <time>2015-07-14T11:59:57.000Z</time>
      </trkpt>
      <trkpt lat="46.80073" lon="4.8613">
        <ele>249.6</ele>
        <time>2015-07-14T11:59:59.000Z</time>
      </trkpt>
      <trkpt lat="46.80063" lon="4.86131">
        <ele>249.6</ele>
        <time>2015-07-14T12:00:01.000Z</time>
      </trkpt>
      <trkpt lat="46.80053" lon="4.86133">
        <ele>249.12</ele>
        <time>2015-07-14T12:00:03.000Z</time>
      </trkpt>
      <trkpt lat="46.80043" lon="4.86135">
        <ele>249.6</ele>
        <time>2015-07-14T12:00:05.000Z</time>
      </trkpt>
      <trkpt lat="46.80033" lon="4.86136">
        <ele>250.08</ele>
        <time>2015-07-14T12:00:07.000Z</time>
      </trkpt>
      <trkpt lat="46.80023" lon="4.86139">
        <ele>250.08</ele>
        <time>2015-07-14T12:00:09.000Z</time>
      </trkpt>
      <trkpt lat="46.80012" lon="4.8614">
        <ele>250.08</ele>
        <time>2015-07-14T12:00:11.000Z</time>
      </trkpt>
      <trkpt lat="46.80003" lon="4.86142">
        <ele>250.08</ele>
        <time>2015-07-14T12:00:13.000Z</time>
      </trkpt>
      <trkpt lat="46.79993" lon="4.86145">
        <ele>249.6</ele>
        <time>2015-07-14T12:00:17.000Z</time>
      </trkpt>
      <trkpt lat="46.79982" lon="4.86146">
        <ele>249.6</ele>
        <time>2015-07-14T12:00:39.000Z</time>
      </trkpt>
      <trkpt lat="46.7997" lon="4.86149">
        <ele>249.6</ele>
        <time>2015-07-14T12:00:42.000Z</time>
      </trkpt>
      <trkpt lat="46.79956" lon="4.86153">
        <ele>249.6</ele>
        <time>2015-07-14T12:00:45.000Z</time>
      </trkpt>
      <trkpt lat="46.79947" lon="4.86155">
        <ele>250.08</ele>
        <time>2015-07-14T12:00:47.000Z</time>
      </trkpt>
      <trkpt lat="46.79937" lon="4.86158">
        <ele>250.08</ele>
        <time>2015-07-14T12:00:49.000Z</time>
      </trkpt>
      <trkpt lat="46.79927" lon="4.8616">
        <ele>250.08</ele>
        <time>2015-07-14T12:00:51.000Z</time>
      </trkpt>
      <trkpt lat="46.79917" lon="4.86163">
        <ele>250.08</ele>
        <time>2015-07-14T12:00:53.000Z</time>
      </trkpt>
      <trkpt lat="46.79906" lon="4.86165">
        <ele>250.08</ele>
        <time>2015-07-14T12:00:55.000Z</time>
      </trkpt>
      <trkpt lat="46.79895" lon="4.86169">
        <ele>249.6</ele>
        <time>2015-07-14T12:00:57.000Z</time>
      </trkpt>
      <trkpt lat="46.79883" lon="4.86173">
        <ele>250.08</ele>
        <time>2015-07-14T12:00:59.000Z</time>
      </trkpt>
      <trkpt lat="46.79871" lon="4.86178">
        <ele>250.08</ele>
        <time>2015-07-14T12:01:01.000Z</time>
      </trkpt>
      <trkpt lat="46.79859" lon="4.86181">
        <ele>250.08</ele>
        <time>2015-07-14T12:01:03.000Z</time>
      </trkpt>
      <trkpt lat="46.79847" lon="4.86184">
        <ele>249.6</ele>
        <time>2015-07-14T12:01:05.000Z</time>
      </trkpt>
      <trkpt lat="46.79836" lon="4.86189">
        <ele>250.08</ele>
        <time>2015-07-14T12:01:07.000Z</time>
      </trkpt>
      <trkpt lat="46.79824" lon="4.86192">
        <ele>249.6</ele>
        <time>2015-07-14T12:01:09.000Z</time>
      </trkpt>
      <trkpt lat="46.79813" lon="4.86197">
        <ele>250.08</ele>
        <time>2015-07-14T12:01:11.000Z</time>
      </trkpt>
      <trkpt lat="46.79802" lon="4.86201">
        <ele>249.6</ele>
        <time>2015-07-14T12:01:13.000Z</time>
      </trkpt>
      <trkpt lat="46.7979" lon="4.86205">
        <ele>249.6</ele>
        <time>2015-07-14T12:01:15.000Z</time>
      </trkpt>
      <trkpt lat="46.79778" lon="4.8621">
        <ele>249.6</ele>
        <time>2015-07-14T12:01:17.000Z</time>
      </trkpt>
      <trkpt lat="46.79767" lon="4.86214">
        <ele>250.08</ele>
        <time>2015-07-14T12:01:19.000Z</time>
      </trkpt>
      <trkpt lat="46.79755" lon="4.86218">
        <ele>250.08</ele>
        <time>2015-07-14T12:01:21.000Z</time>
      </trkpt>
      <trkpt lat="46.79744" lon="4.86221">
        <ele>250.08</ele>
        <time>2015-07-14T12:01:23.000Z</time>
      </trkpt>
      <trkpt lat="46.79732" lon="4.86224">
        <ele>250.08</ele>
        <time>2015-07-14T12:01:25.000Z</time>
      </trkpt>
      <trkpt lat="46.79721" lon="4.86228">
        <ele>250.08</ele>
        <time>2015-07-14T12:01:27.000Z</time>
      </trkpt>
      <trkpt lat="46.79711" lon="4.86233">
        <ele>249.12</ele>
        <time>2015-07-14T12:01:29.000Z</time>
      </trkpt>
      <trkpt lat="46.797" lon="4.86237">
        <ele>249.12</ele>
        <time>2015-07-14T12:01:31.000Z</time>
      </trkpt>
      <trkpt lat="46.79691" lon="4.86241">
        <ele>249.12</ele>
        <time>2015-07-14T12:01:33.000Z</time>
      </trkpt>
      <trkpt lat="46.79681" lon="4.86245">
        <ele>249.12</ele>
        <time>2015-07-14T12:01:35.000Z</time>
      </trkpt>
      <trkpt lat="46.79671" lon="4.86249">
        <ele>249.12</ele>
        <time>2015-07-14T12:01:37.000Z</time>
      </trkpt>
      <trkpt lat="46.79662" lon="4.86254">
        <ele>249.6</ele>
        <time>2015-07-14T12:01:39.000Z</time>
      </trkpt>
      <trkpt lat="46.79651" lon="4.86258">
        <ele>249.12</ele>
        <time>2015-07-14T12:01:41.000Z</time>
      </trkpt>
      <trkpt lat="46.7964" lon="4.86263">
        <ele>249.6</ele>
        <time>2015-07-14T12:01:43.000Z</time>
      </trkpt>
      <trkpt lat="46.7963" lon="4.86268">
        <ele>249.6</ele>
        <time>2015-07-14T12:01:45.000Z</time>
      </trkpt>
      <trkpt lat="46.79619" lon="4.86272">
        <ele>249.6</ele>
        <time>2015-07-14T12:01:47.000Z</time>
      </trkpt>
      <trkpt lat="46.79609" lon="4.86277">
        <ele>249.6</ele>
        <time>2015-07-14T12:01:49.000Z</time>
      </trkpt>
      <trkpt lat="46.79598" lon="4.86281">
        <ele>250.08</ele>
        <time>2015-07-14T12:01:51.000Z</time>
      </trkpt>
      <trkpt lat="46.79588" lon="4.86286">
        <ele>250.08</ele>
        <time>2015-07-14T12:01:53.000Z</time>
      </trkpt>
      <trkpt lat="46.79578" lon="4.86292">
        <ele>249.6</ele>
        <time>2015-07-14T12:01:55.000Z</time>
      </trkpt>
      <trkpt lat="46.79568" lon="4.86297">
        <ele>250.08</ele>
        <time>2015-07-14T12:01:57.000Z</time>
      </trkpt>
      <trkpt lat="46.79559" lon="4.86303">
        <ele>250.08</ele>
        <time>2015-07-14T12:01:59.000Z</time>
      </trkpt>
      <trkpt lat="46.7955" lon="4.86309">
        <ele>250.08</ele>
        <time>2015-07-14T12:02:01.000Z</time>
      </trkpt>
      <trkpt lat="46.7954" lon="4.86313">
        <ele>249.6</ele>
        <time>2015-07-14T12:02:03.000Z</time>
      </trkpt>
      <trkpt lat="46.79529" lon="4.86318">
        <ele>250.08</ele>
        <time>2015-07-14T12:02:05.000Z</time>
      </trkpt>
      <trkpt lat="46.79518" lon="4.86323">
        <ele>250.56</ele>
        <time>2015-07-14T12:02:07.000Z</time>
      </trkpt>
      <trkpt lat="46.79507" lon="4.86328">
        <ele>250.56</ele>
        <time>2015-07-14T12:02:09.000Z</time>
      </trkpt>
      <trkpt lat="46.79496" lon="4.86333">
        <ele>250.08</ele>
        <time>2015-07-14T12:02:11.000Z</time>
      </trkpt>
      <trkpt lat="46.79485" lon="4.86337">
        <ele>250.08</ele>
        <time>2015-07-14T12:02:13.000Z</time>
      </trkpt>
      <trkpt lat="46.79474" lon="4.86341">
        <ele>250.08</ele>
        <time>2015-07-14T12:02:15.000Z</time>
      </trkpt>
      <trkpt lat="46.79462" lon="4.86344">
        <ele>250.08</ele>
        <time>2015-07-14T12:02:17.000Z</time>
      </trkpt>
      <trkpt lat="46.79451" lon="4.86348">
        <ele>250.08</ele>
        <time>2015-07-14T12:02:19.000Z</time>
      </trkpt>
      <trkpt lat="46.7944" lon="4.8635">
        <ele>250.56</ele>
        <time>2015-07-14T12:02:21.000Z</time>
      </trkpt>
      <trkpt lat="46.79428" lon="4.86353">
        <ele>250.56</ele>
        <time>2015-07-14T12:02:23.000Z</time>
      </trkpt>
      <trkpt lat="46.79417" lon="4.86356">
        <ele>250.08</ele>
        <time>2015-07-14T12:02:25.000Z</time>
      </trkpt>
      <trkpt lat="46.79406" lon="4.86358">
        <ele>250.56</ele>
        <time>2015-07-14T12:02:27.000Z</time>
      </trkpt>
      <trkpt lat="46.79395" lon="4.86359">
        <ele>250.08</ele>
        <time>2015-07-14T12:02:29.000Z</time>
      </trkpt>
      <trkpt lat="46.79385" lon="4.8636">
        <ele>250.08</ele>
        <time>2015-07-14T12:02:31.000Z</time>
      </trkpt>
      <trkpt lat="46.79374" lon="4.86361">
        <ele>250.56</ele>
        <time>2015-07-14T12:02:33.000Z</time>
      </trkpt>
      <trkpt lat="46.79364" lon="4.86362">
        <ele>250.08</ele>
        <time>2015-07-14T12:02:35.000Z</time>
      </trkpt>
      <trkpt lat="46.79353" lon="4.86363">
        <ele>250.08</ele>
        <time>2015-07-14T12:02:37.000Z</time>
      </trkpt>
      <trkpt lat="46.79343" lon="4.86362">
        <ele>249.6</ele>
        <time>2015-07-14T12:02:39.000Z</time>
      </trkpt>
      <trkpt lat="46.79333" lon="4.86361">
        <ele>249.6</ele>
        <time>2015-07-14T12:02:41.000Z</time>
      </trkpt>
      <trkpt lat="46.79322" lon="4.8636">
        <ele>249.6</ele>
        <time>2015-07-14T12:02:43.000Z</time>
      </trkpt>
      <trkpt lat="46.79311" lon="4.86357">
        <ele>249.6</ele>
        <time>2015-07-14T12:02:45.000Z</time>
      </trkpt>
      <trkpt lat="46.79301" lon="4.86355">
        <ele>249.6</ele>
        <time>2015-07-14T12:02:47.000Z</time>
      </trkpt>
      <trkpt lat="46.7929" lon="4.86352">
        <ele>249.6</ele>
        <time>2015-07-14T12:02:49.000Z</time>
      </trkpt>
      <trkpt lat="46.79279" lon="4.86347">
        <ele>249.6</ele>
        <time>2015-07-14T12:02:51.000Z</time>
      </trkpt>
      <trkpt lat="46.79268" lon="4.86342">
        <ele>250.08</ele>
        <time>2015-07-14T12:02:53.000Z</time>
      </trkpt>
      <trkpt lat="46.79258" lon="4.86338">
        <ele>250.08</ele>
        <time>2015-07-14T12:02:55.000Z</time>
      </trkpt>
      <trkpt lat="46.79248" lon="4.86335">
        <ele>250.08</ele>
        <time>2015-07-14T12:02:57.000Z</time>
      </trkpt>
      <trkpt lat="46.7924" lon="4.86332">
        <ele>250.08</ele>
        <time>2015-07-14T12:02:59.000Z</time>
      </trkpt>
      <trkpt lat="46.79229" lon="4.86329">
        <ele>249.6</ele>
        <time>2015-07-14T12:03:12.000Z</time>
      </trkpt>
      <trkpt lat="46.79221" lon="4.86323">
        <ele>248.64</ele>
        <time>2015-07-14T12:03:16.000Z</time>
      </trkpt>
      <trkpt lat="46.79211" lon="4.86319">
        <ele>248.64</ele>
        <time>2015-07-14T12:03:19.000Z</time>
      </trkpt>
      <trkpt lat="46.79198" lon="4.86315">
        <ele>249.12</ele>
        <time>2015-07-14T12:03:22.000Z</time>
      </trkpt>
      <trkpt lat="46.79185" lon="4.8631">
        <ele>249.6</ele>
        <time>2015-07-14T12:03:25.000Z</time>
      </trkpt>
      <trkpt lat="46.79176" lon="4.86307">
        <ele>249.12</ele>
        <time>2015-07-14T12:03:27.000Z</time>
      </trkpt>
      <trkpt lat="46.79166" lon="4.86303">
        <ele>249.12</ele>
        <time>2015-07-14T12:03:29.000Z</time>
      </trkpt>
      <trkpt lat="46.79157" lon="4.86299">
        <ele>250.08</ele>
        <time>2015-07-14T12:03:31.000Z</time>
      </trkpt>
      <trkpt lat="46.79148" lon="4.86295">
        <ele>250.08</ele>
        <time>2015-07-14T12:03:33.000Z</time>
      </trkpt>
      <trkpt lat="46.79139" lon="4.86288">
        <ele>250.08</ele>
        <time>2015-07-14T12:03:35.000Z</time>
      </trkpt>
      <trkpt lat="46.7913" lon="4.86281">
        <ele>249.12</ele>
        <time>2015-07-14T12:03:37.000Z</time>
      </trkpt>
      <trkpt lat="46.79121" lon="4.86274">
        <ele>249.6</ele>
        <time>2015-07-14T12:03:39.000Z</time>
      </trkpt>
      <trkpt lat="46.79112" lon="4.86266">
        <ele>249.12</ele>
        <time>2015-07-14T12:03:41.000Z</time>
      </trkpt>
      <trkpt lat="46.79103" lon="4.86257">
        <ele>249.12</ele>
        <time>2015-07-14T12:03:43.000Z</time>
      </trkpt>
      <trkpt lat="46.79095" lon="4.86249">
        <ele>249.12</ele>
        <time>2015-07-14T12:03:45.000Z</time>
      </trkpt>
      <trkpt lat="46.79087" lon="4.86237">
        <ele>249.6</ele>
        <time>2015-07-14T12:03:48.000Z</time>
      </trkpt>
      <trkpt lat="46.79083" lon="4.86222">
        <ele>250.08</ele>
        <time>2015-07-14T12:03:52.000Z</time>
      </trkpt>
      <trkpt lat="46.79082" lon="4.86207">
        <ele>249.6</ele>
        <time>2015-07-14T12:03:55.000Z</time>
      </trkpt>
      <trkpt lat="46.79076" lon="4.86195">
        <ele>249.6</ele>
        <time>2015-07-14T12:03:58.000Z</time>
      </trkpt>
      <trkpt lat="46.79065" lon="4.86186">
        <ele>249.6</ele>
        <time>2015-07-14T12:04:01.000Z</time>
      </trkpt>
      <trkpt lat="46.79056" lon="4.86184">
        <ele>249.6</ele>
        <time>2015-07-14T12:04:03.000Z</time>
      </trkpt>
      <trkpt lat="46.79046" lon="4.86186">
        <ele>249.12</ele>
        <time>2015-07-14T12:04:05.000Z</time>
      </trkpt>
      <trkpt lat="46.79036" lon="4.86188">
        <ele>249.6</ele>
        <time>2015-07-14T12:04:07.000Z</time>
      </trkpt>
      <trkpt lat="46.79026" lon="4.86185">
        <ele>250.08</ele>
        <time>2015-07-14T12:04:09.000Z</time>
      </trkpt>
      <trkpt lat="46.79017" lon="4.86179">
        <ele>249.6</ele>
        <time>2015-07-14T12:04:11.000Z</time>
      </trkpt>
      <trkpt lat="46.79007" lon="4.86172">
        <ele>249.6</ele>
        <time>2015-07-14T12:04:13.000Z</time>
      </trkpt>
      <trkpt lat="46.78999" lon="4.86165">
        <ele>250.08</ele>
        <time>2015-07-14T12:04:15.000Z</time>
      </trkpt>
      <trkpt lat="46.78991" lon="4.86157">
        <ele>250.08</ele>
        <time>2015-07-14T12:04:17.000Z</time>
      </trkpt>
      <trkpt lat="46.78982" lon="4.86148">
        <ele>249.6</ele>
        <time>2015-07-14T12:04:19.000Z</time>
      </trkpt>
      <trkpt lat="46.78973" lon="4.86141">
        <ele>250.08</ele>
        <time>2015-07-14T12:04:21.000Z</time>
      </trkpt>
      <trkpt lat="46.78965" lon="4.86132">
        <ele>250.08</ele>
        <time>2015-07-14T12:04:23.000Z</time>
      </trkpt>
      <trkpt lat="46.78957" lon="4.86123">
        <ele>249.6</ele>
        <time>2015-07-14T12:04:25.000Z</time>
      </trkpt>
      <trkpt lat="46.78947" lon="4.86115">
        <ele>250.08</ele>
        <time>2015-07-14T12:04:27.000Z</time>
      </trkpt>
      <trkpt lat="46.78939" lon="4.86107">
        <ele>250.08</ele>
        <time>2015-07-14T12:04:29.000Z</time>
      </trkpt>
      <trkpt lat="46.7893" lon="4.86098">
        <ele>249.6</ele>
        <time>2015-07-14T12:04:31.000Z</time>
      </trkpt>
      <trkpt lat="46.78922" lon="4.8609">
        <ele>249.12</ele>
        <time>2015-07-14T12:04:33.000Z</time>
      </trkpt>
      <trkpt lat="46.78913" lon="4.86082">
        <ele>249.12</ele>
        <time>2015-07-14T12:04:35.000Z</time>
      </trkpt>
      <trkpt lat="46.78905" lon="4.86073">
        <ele>249.12</ele>
        <time>2015-07-14T12:04:37.000Z</time>
      </trkpt>
      <trkpt lat="46.78897" lon="4.86065">
        <ele>249.6</ele>
        <time>2015-07-14T12:04:39.000Z</time>
      </trkpt>
      <trkpt lat="46.78889" lon="4.86057">
        <ele>249.12</ele>
        <time>2015-07-14T12:04:41.000Z</time>
      </trkpt>
      <trkpt lat="46.78882" lon="4.86048">
        <ele>249.6</ele>
        <time>2015-07-14T12:04:43.000Z</time>
      </trkpt>
      <trkpt lat="46.78874" lon="4.86039">
        <ele>249.12</ele>
        <time>2015-07-14T12:04:45.000Z</time>
      </trkpt>
      <trkpt lat="46.78867" lon="4.8603">
        <ele>250.08</ele>
        <time>2015-07-14T12:04:47.000Z</time>
      </trkpt>
      <trkpt lat="46.78859" lon="4.86022">
        <ele>250.08</ele>
        <time>2015-07-14T12:04:49.000Z</time>
      </trkpt>
      <trkpt lat="46.78851" lon="4.86011">
        <ele>250.56</ele>
        <time>2015-07-14T12:04:51.000Z</time>
      </trkpt>
      <trkpt lat="46.78843" lon="4.86001">
        <ele>250.08</ele>
        <time>2015-07-14T12:04:53.000Z</time>
      </trkpt>
      <trkpt lat="46.78835" lon="4.85991">
        <ele>249.6</ele>
        <time>2015-07-14T12:04:55.000Z</time>
      </trkpt>
      <trkpt lat="46.78828" lon="4.85982">
        <ele>250.08</ele>
        <time>2015-07-14T12:04:57.000Z</time>
      </trkpt>
      <trkpt lat="46.7882" lon="4.85971">
        <ele>250.08</ele>
        <time>2015-07-14T12:04:59.000Z</time>
      </trkpt>
      <trkpt lat="46.78813" lon="4.85961">
        <ele>250.08</ele>
        <time>2015-07-14T12:05:01.000Z</time>
      </trkpt>
      <trkpt lat="46.78806" lon="4.85951">
        <ele>249.6</ele>
        <time>2015-07-14T12:05:03.000Z</time>
      </trkpt>
      <trkpt lat="46.78799" lon="4.85941">
        <ele>249.6</ele>
        <time>2015-07-14T12:05:05.000Z</time>
      </trkpt>
      <trkpt lat="46.78791" lon="4.85932">
        <ele>250.56</ele>
        <time>2015-07-14T12:05:07.000Z</time>
      </trkpt>
      <trkpt lat="46.78783" lon="4.85923">
        <ele>250.56</ele>
        <time>2015-07-14T12:05:09.000Z</time>
      </trkpt>
      <trkpt lat="46.78775" lon="4.85914">
        <ele>249.6</ele>
        <time>2015-07-14T12:05:11.000Z</time>
      </trkpt>
      <trkpt lat="46.78768" lon="4.85904">
        <ele>250.08</ele>
        <time>2015-07-14T12:05:13.000Z</time>
      </trkpt>
      <trkpt lat="46.78761" lon="4.85893">
        <ele>249.6</ele>
        <time>2015-07-14T12:05:15.000Z</time>
      </trkpt>
      <trkpt lat="46.78754" lon="4.85883">
        <ele>249.6</ele>
        <time>2015-07-14T12:05:17.000Z</time>
      </trkpt>
      <trkpt lat="46.78746" lon="4.85874">
        <ele>249.6</ele>
        <time>2015-07-14T12:05:19.000Z</time>
      </trkpt>
      <trkpt lat="46.78737" lon="4.85864">
        <ele>248.64</ele>
        <time>2015-07-14T12:05:21.000Z</time>
      </trkpt>
      <trkpt lat="46.7873" lon="4.85853">
        <ele>248.64</ele>
        <time>2015-07-14T12:05:23.000Z</time>
      </trkpt>
      <trkpt lat="46.78722" lon="4.85843">
        <ele>251.04</ele>
        <time>2015-07-14T12:05:25.000Z</time>
      </trkpt>
      <trkpt lat="46.78714" lon="4.85833">
        <ele>249.6</ele>
        <time>2015-07-14T12:05:27.000Z</time>
      </trkpt>
      <trkpt lat="46.78706" lon="4.85821">
        <ele>249.6</ele>
        <time>2015-07-14T12:05:29.000Z</time>
      </trkpt>
      <trkpt lat="46.78698" lon="4.8581">
        <ele>250.08</ele>
        <time>2015-07-14T12:05:31.000Z</time>
      </trkpt>
      <trkpt lat="46.7869" lon="4.85799">
        <ele>250.08</ele>
        <time>2015-07-14T12:05:33.000Z</time>
      </trkpt>
      <trkpt lat="46.78682" lon="4.85788">
        <ele>250.56</ele>
        <time>2015-07-14T12:05:35.000Z</time>
      </trkpt>
      <trkpt lat="46.78674" lon="4.85778">
        <ele>250.08</ele>
        <time>2015-07-14T12:05:37.000Z</time>
      </trkpt>
      <trkpt lat="46.78667" lon="4.85769">
        <ele>250.56</ele>
        <time>2015-07-14T12:05:39.000Z</time>
      </trkpt>
      <trkpt lat="46.78659" lon="4.85759">
        <ele>250.08</ele>
        <time>2015-07-14T12:05:41.000Z</time>
      </trkpt>
      <trkpt lat="46.78653" lon="4.8575">
        <ele>250.08</ele>
        <time>2015-07-14T12:05:43.000Z</time>
      </trkpt>
      <trkpt lat="46.78644" lon="4.8574">
        <ele>250.08</ele>
        <time>2015-07-14T12:05:46.000Z</time>
      </trkpt>
      <trkpt lat="46.78635" lon="4.85732">
        <ele>250.56</ele>
        <time>2015-07-14T12:05:52.000Z</time>
      </trkpt>
      <trkpt lat="46.78628" lon="4.85726">
        <ele>250.08</ele>
        <time>2015-07-14T12:06:11.000Z</time>
      </trkpt>
      <trkpt lat="46.78619" lon="4.85716">
        <ele>250.56</ele>
        <time>2015-07-14T12:06:15.000Z</time>
      </trkpt>
      <trkpt lat="46.7861" lon="4.85706">
        <ele>250.08</ele>
        <time>2015-07-14T12:06:18.000Z</time>
      </trkpt>
      <trkpt lat="46.78602" lon="4.85694">
        <ele>250.56</ele>
        <time>2015-07-14T12:06:21.000Z</time>
      </trkpt>
      <trkpt lat="46.78593" lon="4.85681">
        <ele>250.56</ele>
        <time>2015-07-14T12:06:24.000Z</time>
      </trkpt>
      <trkpt lat="46.78585" lon="4.85668">
        <ele>250.56</ele>
        <time>2015-07-14T12:06:27.000Z</time>
      </trkpt>
      <trkpt lat="46.78576" lon="4.85655">
        <ele>251.04</ele>
        <time>2015-07-14T12:06:30.000Z</time>
      </trkpt>
      <trkpt lat="46.78566" lon="4.85641">
        <ele>251.52</ele>
        <time>2015-07-14T12:06:33.000Z</time>
      </trkpt>
      <trkpt lat="46.78559" lon="4.85631">
        <ele>251.04</ele>
        <time>2015-07-14T12:06:35.000Z</time>
      </trkpt>
      <trkpt lat="46.78551" lon="4.85621">
        <ele>251.04</ele>
        <time>2015-07-14T12:06:37.000Z</time>
      </trkpt>
      <trkpt lat="46.78545" lon="4.85609">
        <ele>251.52</ele>
        <time>2015-07-14T12:06:39.000Z</time>
      </trkpt>
      <trkpt lat="46.78539" lon="4.85597">
        <ele>251.04</ele>
        <time>2015-07-14T12:06:41.000Z</time>
      </trkpt>
      <trkpt lat="46.78533" lon="4.85584">
        <ele>251.04</ele>
        <time>2015-07-14T12:06:43.000Z</time>
      </trkpt>
      <trkpt lat="46.78528" lon="4.8557">
        <ele>251.04</ele>
        <time>2015-07-14T12:06:45.000Z</time>
      </trkpt>
      <trkpt lat="46.78525" lon="4.85555">
        <ele>251.52</ele>
        <time>2015-07-14T12:06:47.000Z</time>
      </trkpt>
      <trkpt lat="46.78522" lon="4.85541">
        <ele>252</ele>
        <time>2015-07-14T12:06:49.000Z</time>
      </trkpt>
      <trkpt lat="46.78519" lon="4.85528">
        <ele>251.52</ele>
        <time>2015-07-14T12:06:51.000Z</time>
      </trkpt>
      <trkpt lat="46.78515" lon="4.85509">
        <ele>251.52</ele>
        <time>2015-07-14T12:06:54.000Z</time>
      </trkpt>
      <trkpt lat="46.7851" lon="4.8549">
        <ele>251.52</ele>
        <time>2015-07-14T12:06:57.000Z</time>
      </trkpt>
      <trkpt lat="46.78506" lon="4.85478">
        <ele>251.52</ele>
        <time>2015-07-14T12:07:00.000Z</time>
      </trkpt>
      <trkpt lat="46.78502" lon="4.8547">
        <ele>251.52</ele>
        <time>2015-07-14T12:07:38.000Z</time>
      </trkpt>
      <trkpt lat="46.78498" lon="4.85454">
        <ele>251.52</ele>
        <time>2015-07-14T12:07:49.000Z</time>
      </trkpt>
      <trkpt lat="46.78491" lon="4.85439">
        <ele>252.48</ele>
        <time>2015-07-14T12:07:53.000Z</time>
      </trkpt>
      <trkpt lat="46.78482" lon="4.85433">
        <ele>252.48</ele>
        <time>2015-07-14T12:07:56.000Z</time>
      </trkpt>
      <trkpt lat="46.7847" lon="4.85428">
        <ele>252</ele>
        <time>2015-07-14T12:08:01.000Z</time>
      </trkpt>
      <trkpt lat="46.7846" lon="4.85418">
        <ele>252</ele>
        <time>2015-07-14T12:08:06.000Z</time>
      </trkpt>
      <trkpt lat="46.78455" lon="4.85404">
        <ele>251.52</ele>
        <time>2015-07-14T12:08:10.000Z</time>
      </trkpt>
      <trkpt lat="46.78448" lon="4.8539">
        <ele>251.04</ele>
        <time>2015-07-14T12:08:14.000Z</time>
      </trkpt>
      <trkpt lat="46.78443" lon="4.85383">
        <ele>251.04</ele>
        <time>2015-07-14T12:08:50.000Z</time>
      </trkpt>
      <trkpt lat="46.78443" lon="4.85383">
        <ele>250.08</ele>
        <time>2015-07-14T12:09:12.000Z</time>
      </trkpt>
      <trkpt lat="46.78443" lon="4.85383">
        <ele>179.9</ele>
        <time>2015-07-14T12:30:43.000Z</time>
      </trkpt>
      <trkpt lat="46.78436" lon="4.85384">
        <ele>250.56</ele>
        <time>2015-07-14T12:31:06.000Z</time>
      </trkpt>
      <trkpt lat="46.7843" lon="4.85361">
        <ele>251.04</ele>
        <time>2015-07-14T12:34:13.000Z</time>
      </trkpt>
      <trkpt lat="46.78423" lon="4.85348">
        <ele>250.56</ele>
        <time>2015-07-14T12:34:26.000Z</time>
      </trkpt>
      <trkpt lat="46.78419" lon="4.85335">
        <ele>250.56</ele>
        <time>2015-07-14T12:34:30.000Z</time>
      </trkpt>
      <trkpt lat="46.78412" lon="4.8532">
        <ele>250.56</ele>
        <time>2015-07-14T12:34:35.000Z</time>
      </trkpt>
      <trkpt lat="46.78413" lon="4.85306">
        <ele>251.04</ele>
        <time>2015-07-14T12:34:39.000Z</time>
      </trkpt>
      <trkpt lat="46.78421" lon="4.85299">
        <ele>251.52</ele>
        <time>2015-07-14T12:34:44.000Z</time>
      </trkpt>
      <trkpt lat="46.78431" lon="4.8529">
        <ele>252</ele>
        <time>2015-07-14T12:34:53.000Z</time>
      </trkpt>
      <trkpt lat="46.78435" lon="4.85277">
        <ele>252</ele>
        <time>2015-07-14T12:34:57.000Z</time>
      </trkpt>
      <trkpt lat="46.78432" lon="4.85261">
        <ele>251.04</ele>
        <time>2015-07-14T12:35:01.000Z</time>
      </trkpt>
      <trkpt lat="46.78429" lon="4.85249">
        <ele>251.04</ele>
        <time>2015-07-14T12:35:04.000Z</time>
      </trkpt>
      <trkpt lat="46.78426" lon="4.85235">
        <ele>251.04</ele>
        <time>2015-07-14T12:35:08.000Z</time>
      </trkpt>
      <trkpt lat="46.78422" lon="4.85222">
        <ele>250.56</ele>
        <time>2015-07-14T12:35:39.000Z</time>
      </trkpt>
      <trkpt lat="46.78422" lon="4.85222">
        <ele>252</ele>
        <time>2015-07-14T12:37:27.000Z</time>
      </trkpt>
      <trkpt lat="46.78426" lon="4.85235">
        <ele>251.04</ele>
        <time>2015-07-14T12:37:32.000Z</time>
      </trkpt>
      <trkpt lat="46.7843" lon="4.85251">
        <ele>250.56</ele>
        <time>2015-07-14T12:37:37.000Z</time>
      </trkpt>
      <trkpt lat="46.78434" lon="4.85264">
        <ele>251.52</ele>
        <time>2015-07-14T12:37:42.000Z</time>
      </trkpt>
      <trkpt lat="46.78444" lon="4.8527">
        <ele>252.96</ele>
        <time>2015-07-14T12:37:48.000Z</time>
      </trkpt>
      <trkpt lat="46.78454" lon="4.85265">
        <ele>252.96</ele>
        <time>2015-07-14T12:37:54.000Z</time>
      </trkpt>
      <trkpt lat="46.78465" lon="4.8526">
        <ele>253.93</ele>
        <time>2015-07-14T12:38:00.000Z</time>
      </trkpt>
      <trkpt lat="46.78476" lon="4.85259">
        <ele>254.41</ele>
        <time>2015-07-14T12:38:06.000Z</time>
      </trkpt>
      <trkpt lat="46.78488" lon="4.85253">
        <ele>254.89</ele>
        <time>2015-07-14T12:38:12.000Z</time>
      </trkpt>
      <trkpt lat="46.78499" lon="4.85244">
        <ele>254.89</ele>
        <time>2015-07-14T12:38:17.000Z</time>
      </trkpt>
      <trkpt lat="46.78509" lon="4.85238">
        <ele>255.85</ele>
        <time>2015-07-14T12:38:23.000Z</time>
      </trkpt>
      <trkpt lat="46.78519" lon="4.85233">
        <ele>257.29</ele>
        <time>2015-07-14T12:38:28.000Z</time>
      </trkpt>
      <trkpt lat="46.78531" lon="4.85226">
        <ele>257.29</ele>
        <time>2015-07-14T12:38:33.000Z</time>
      </trkpt>
      <trkpt lat="46.78543" lon="4.85219">
        <ele>257.77</ele>
        <time>2015-07-14T12:38:38.000Z</time>
      </trkpt>
      <trkpt lat="46.78555" lon="4.85213">
        <ele>258.25</ele>
        <time>2015-07-14T12:38:43.000Z</time>
      </trkpt>
      <trkpt lat="46.78565" lon="4.85208">
        <ele>259.21</ele>
        <time>2015-07-14T12:38:48.000Z</time>
      </trkpt>
      <trkpt lat="46.78575" lon="4.85203">
        <ele>259.21</ele>
        <time>2015-07-14T12:38:53.000Z</time>
      </trkpt>
      <trkpt lat="46.78584" lon="4.85197">
        <ele>260.65</ele>
        <time>2015-07-14T12:38:58.000Z</time>
      </trkpt>
      <trkpt lat="46.78595" lon="4.85194">
        <ele>260.65</ele>
        <time>2015-07-14T12:39:03.000Z</time>
      </trkpt>
      <trkpt lat="46.78604" lon="4.8519">
        <ele>260.65</ele>
        <time>2015-07-14T12:39:08.000Z</time>
      </trkpt>
      <trkpt lat="46.78615" lon="4.85184">
        <ele>261.62</ele>
        <time>2015-07-14T12:39:13.000Z</time>
      </trkpt>
      <trkpt lat="46.78624" lon="4.85179">
        <ele>262.1</ele>
        <time>2015-07-14T12:39:17.000Z</time>
      </trkpt>
      <trkpt lat="46.78634" lon="4.8517">
        <ele>262.58</ele>
        <time>2015-07-14T12:39:22.000Z</time>
      </trkpt>
      <trkpt lat="46.78645" lon="4.85164">
        <ele>263.06</ele>
        <time>2015-07-14T12:39:27.000Z</time>
      </trkpt>
      <trkpt lat="46.78654" lon="4.85159">
        <ele>263.06</ele>
        <time>2015-07-14T12:39:31.000Z</time>
      </trkpt>
      <trkpt lat="46.78665" lon="4.85153">
        <ele>263.06</ele>
        <time>2015-07-14T12:39:36.000Z</time>
      </trkpt>
      <trkpt lat="46.78675" lon="4.85151">
        <ele>263.06</ele>
        <time>2015-07-14T12:39:40.000Z</time>
      </trkpt>
      <trkpt lat="46.78686" lon="4.85148">
        <ele>264.02</ele>
        <time>2015-07-14T12:39:44.000Z</time>
      </trkpt>
      <trkpt lat="46.78698" lon="4.85144">
        <ele>264.5</ele>
        <time>2015-07-14T12:39:48.000Z</time>
      </trkpt>
      <trkpt lat="46.78709" lon="4.8514">
        <ele>264.5</ele>
        <time>2015-07-14T12:39:51.000Z</time>
      </trkpt>
      <trkpt lat="46.78721" lon="4.85134">
        <ele>264.02</ele>
        <time>2015-07-14T12:39:54.000Z</time>
      </trkpt>
      <trkpt lat="46.78733" lon="4.85129">
        <ele>264.02</ele>
        <time>2015-07-14T12:39:57.000Z</time>
      </trkpt>
      <trkpt lat="46.78746" lon="4.85124">
        <ele>264.02</ele>
        <time>2015-07-14T12:40:00.000Z</time>
      </trkpt>
      <trkpt lat="46.78758" lon="4.8512">
        <ele>264.5</ele>
        <time>2015-07-14T12:40:03.000Z</time>
      </trkpt>
      <trkpt lat="46.78771" lon="4.85115">
        <ele>263.54</ele>
        <time>2015-07-14T12:40:06.000Z</time>
      </trkpt>
      <trkpt lat="46.7878" lon="4.85112">
        <ele>263.54</ele>
        <time>2015-07-14T12:40:08.000Z</time>
      </trkpt>
      <trkpt lat="46.78793" lon="4.85108">
        <ele>263.06</ele>
        <time>2015-07-14T12:40:11.000Z</time>
      </trkpt>
      <trkpt lat="46.78806" lon="4.85103">
        <ele>264.5</ele>
        <time>2015-07-14T12:40:14.000Z</time>
      </trkpt>
      <trkpt lat="46.78818" lon="4.85098">
        <ele>262.58</ele>
        <time>2015-07-14T12:40:17.000Z</time>
      </trkpt>
      <trkpt lat="46.78827" lon="4.85095">
        <ele>262.1</ele>
        <time>2015-07-14T12:40:19.000Z</time>
      </trkpt>
      <trkpt lat="46.7884" lon="4.8509">
        <ele>262.58</ele>
        <time>2015-07-14T12:40:22.000Z</time>
      </trkpt>
      <trkpt lat="46.78853" lon="4.85085">
        <ele>262.58</ele>
        <time>2015-07-14T12:40:25.000Z</time>
      </trkpt>
      <trkpt lat="46.78865" lon="4.85079">
        <ele>262.1</ele>
        <time>2015-07-14T12:40:28.000Z</time>
      </trkpt>
      <trkpt lat="46.78878" lon="4.85075">
        <ele>263.06</ele>
        <time>2015-07-14T12:40:31.000Z</time>
      </trkpt>
      <trkpt lat="46.78891" lon="4.8507">
        <ele>262.58</ele>
        <time>2015-07-14T12:40:34.000Z</time>
      </trkpt>
      <trkpt lat="46.78904" lon="4.85065">
        <ele>262.58</ele>
        <time>2015-07-14T12:40:37.000Z</time>
      </trkpt>
      <trkpt lat="46.78917" lon="4.85062">
        <ele>262.58</ele>
        <time>2015-07-14T12:40:40.000Z</time>
      </trkpt>
      <trkpt lat="46.78926" lon="4.85058">
        <ele>262.1</ele>
        <time>2015-07-14T12:40:42.000Z</time>
      </trkpt>
      <trkpt lat="46.78935" lon="4.85054">
        <ele>262.58</ele>
        <time>2015-07-14T12:40:44.000Z</time>
      </trkpt>
      <trkpt lat="46.78944" lon="4.8505">
        <ele>262.1</ele>
        <time>2015-07-14T12:40:46.000Z</time>
      </trkpt>
      <trkpt lat="46.78954" lon="4.85047">
        <ele>262.1</ele>
        <time>2015-07-14T12:40:48.000Z</time>
      </trkpt>
      <trkpt lat="46.78966" lon="4.85042">
        <ele>263.54</ele>
        <time>2015-07-14T12:40:51.000Z</time>
      </trkpt>
      <trkpt lat="46.78979" lon="4.85038">
        <ele>262.58</ele>
        <time>2015-07-14T12:40:54.000Z</time>
      </trkpt>
      <trkpt lat="46.78992" lon="4.85034">
        <ele>262.1</ele>
        <time>2015-07-14T12:40:57.000Z</time>
      </trkpt>
      <trkpt lat="46.79004" lon="4.85029">
        <ele>261.14</ele>
        <time>2015-07-14T12:41:00.000Z</time>
      </trkpt>
      <trkpt lat="46.79017" lon="4.85025">
        <ele>261.14</ele>
        <time>2015-07-14T12:41:03.000Z</time>
      </trkpt>
      <trkpt lat="46.79029" lon="4.8502">
        <ele>261.62</ele>
        <time>2015-07-14T12:41:06.000Z</time>
      </trkpt>
      <trkpt lat="46.79042" lon="4.85016">
        <ele>262.1</ele>
        <time>2015-07-14T12:41:09.000Z</time>
      </trkpt>
      <trkpt lat="46.79055" lon="4.85011">
        <ele>261.14</ele>
        <time>2015-07-14T12:41:12.000Z</time>
      </trkpt>
      <trkpt lat="46.79068" lon="4.85006">
        <ele>262.58</ele>
        <time>2015-07-14T12:41:15.000Z</time>
      </trkpt>
      <trkpt lat="46.79081" lon="4.85002">
        <ele>262.58</ele>
        <time>2015-07-14T12:41:18.000Z</time>
      </trkpt>
      <trkpt lat="46.79094" lon="4.84998">
        <ele>262.1</ele>
        <time>2015-07-14T12:41:21.000Z</time>
      </trkpt>
      <trkpt lat="46.79107" lon="4.84993">
        <ele>262.1</ele>
        <time>2015-07-14T12:41:24.000Z</time>
      </trkpt>
      <trkpt lat="46.79116" lon="4.8499">
        <ele>262.58</ele>
        <time>2015-07-14T12:41:26.000Z</time>
      </trkpt>
      <trkpt lat="46.79128" lon="4.84985">
        <ele>262.58</ele>
        <time>2015-07-14T12:41:29.000Z</time>
      </trkpt>
      <trkpt lat="46.79139" lon="4.84982">
        <ele>262.1</ele>
        <time>2015-07-14T12:41:32.000Z</time>
      </trkpt>
      <trkpt lat="46.79148" lon="4.84979">
        <ele>261.62</ele>
        <time>2015-07-14T12:41:35.000Z</time>
      </trkpt>
      <trkpt lat="46.79158" lon="4.84976">
        <ele>261.62</ele>
        <time>2015-07-14T12:41:57.000Z</time>
      </trkpt>
      <trkpt lat="46.79167" lon="4.84974">
        <ele>262.1</ele>
        <time>2015-07-14T12:42:01.000Z</time>
      </trkpt>
      <trkpt lat="46.79177" lon="4.84973">
        <ele>262.58</ele>
        <time>2015-07-14T12:42:04.000Z</time>
      </trkpt>
      <trkpt lat="46.79188" lon="4.84968">
        <ele>262.1</ele>
        <time>2015-07-14T12:42:07.000Z</time>
      </trkpt>
      <trkpt lat="46.79199" lon="4.84963">
        <ele>262.1</ele>
        <time>2015-07-14T12:42:10.000Z</time>
      </trkpt>
      <trkpt lat="46.7921" lon="4.84959">
        <ele>262.1</ele>
        <time>2015-07-14T12:42:13.000Z</time>
      </trkpt>
      <trkpt lat="46.79222" lon="4.84953">
        <ele>262.1</ele>
        <time>2015-07-14T12:42:16.000Z</time>
      </trkpt>
      <trkpt lat="46.79234" lon="4.84948">
        <ele>262.1</ele>
        <time>2015-07-14T12:42:19.000Z</time>
      </trkpt>
      <trkpt lat="46.79247" lon="4.84943">
        <ele>262.1</ele>
        <time>2015-07-14T12:42:22.000Z</time>
      </trkpt>
      <trkpt lat="46.79258" lon="4.84938">
        <ele>262.1</ele>
        <time>2015-07-14T12:42:25.000Z</time>
      </trkpt>
      <trkpt lat="46.7927" lon="4.84933">
        <ele>262.58</ele>
        <time>2015-07-14T12:42:28.000Z</time>
      </trkpt>
      <trkpt lat="46.79281" lon="4.84928">
        <ele>262.58</ele>
        <time>2015-07-14T12:42:31.000Z</time>
      </trkpt>
      <trkpt lat="46.79293" lon="4.84925">
        <ele>261.62</ele>
        <time>2015-07-14T12:42:34.000Z</time>
      </trkpt>
      <trkpt lat="46.79306" lon="4.84921">
        <ele>261.62</ele>
        <time>2015-07-14T12:42:37.000Z</time>
      </trkpt>
      <trkpt lat="46.79319" lon="4.84916">
        <ele>261.62</ele>
        <time>2015-07-14T12:42:40.000Z</time>
      </trkpt>
      <trkpt lat="46.79332" lon="4.84911">
        <ele>261.62</ele>
        <time>2015-07-14T12:42:43.000Z</time>
      </trkpt>
      <trkpt lat="46.79345" lon="4.84906">
        <ele>261.62</ele>
        <time>2015-07-14T12:42:46.000Z</time>
      </trkpt>
      <trkpt lat="46.79357" lon="4.84899">
        <ele>262.58</ele>
        <time>2015-07-14T12:42:49.000Z</time>
      </trkpt>
      <trkpt lat="46.7937" lon="4.84894">
        <ele>262.1</ele>
        <time>2015-07-14T12:42:52.000Z</time>
      </trkpt>
      <trkpt lat="46.79383" lon="4.84889">
        <ele>262.1</ele>
        <time>2015-07-14T12:42:55.000Z</time>
      </trkpt>
      <trkpt lat="46.79396" lon="4.84884">
        <ele>262.1</ele>
        <time>2015-07-14T12:42:58.000Z</time>
      </trkpt>
      <trkpt lat="46.79408" lon="4.8488">
        <ele>262.58</ele>
        <time>2015-07-14T12:43:01.000Z</time>
      </trkpt>
      <trkpt lat="46.79417" lon="4.84876">
        <ele>263.06</ele>
        <time>2015-07-14T12:43:05.000Z</time>
      </trkpt>
      <trkpt lat="46.79427" lon="4.84872">
        <ele>263.06</ele>
        <time>2015-07-14T12:43:24.000Z</time>
      </trkpt>
      <trkpt lat="46.79437" lon="4.84866">
        <ele>263.06</ele>
        <time>2015-07-14T12:43:27.000Z</time>
      </trkpt>
      <trkpt lat="46.79445" lon="4.84853">
        <ele>263.06</ele>
        <time>2015-07-14T12:43:30.000Z</time>
      </trkpt>
      <trkpt lat="46.79448" lon="4.8484">
        <ele>263.06</ele>
        <time>2015-07-14T12:43:32.000Z</time>
      </trkpt>
      <trkpt lat="46.79451" lon="4.84828">
        <ele>263.54</ele>
        <time>2015-07-14T12:43:34.000Z</time>
      </trkpt>
      <trkpt lat="46.79455" lon="4.84817">
        <ele>263.54</ele>
        <time>2015-07-14T12:43:36.000Z</time>
      </trkpt>
      <trkpt lat="46.79461" lon="4.848">
        <ele>263.06</ele>
        <time>2015-07-14T12:43:39.000Z</time>
      </trkpt>
      <trkpt lat="46.79465" lon="4.84789">
        <ele>263.06</ele>
        <time>2015-07-14T12:43:41.000Z</time>
      </trkpt>
      <trkpt lat="46.79469" lon="4.84777">
        <ele>263.06</ele>
        <time>2015-07-14T12:43:43.000Z</time>
      </trkpt>
      <trkpt lat="46.79472" lon="4.84765">
        <ele>262.58</ele>
        <time>2015-07-14T12:43:45.000Z</time>
      </trkpt>
      <trkpt lat="46.79476" lon="4.84753">
        <ele>262.58</ele>
        <time>2015-07-14T12:43:47.000Z</time>
      </trkpt>
      <trkpt lat="46.7948" lon="4.84741">
        <ele>262.1</ele>
        <time>2015-07-14T12:43:49.000Z</time>
      </trkpt>
      <trkpt lat="46.79483" lon="4.84728">
        <ele>261.14</ele>
        <time>2015-07-14T12:43:51.000Z</time>
      </trkpt>
      <trkpt lat="46.79486" lon="4.84715">
        <ele>261.62</ele>
        <time>2015-07-14T12:43:53.000Z</time>
      </trkpt>
      <trkpt lat="46.79489" lon="4.84701">
        <ele>262.1</ele>
        <time>2015-07-14T12:43:55.000Z</time>
      </trkpt>
      <trkpt lat="46.7949" lon="4.84686">
        <ele>261.62</ele>
        <time>2015-07-14T12:43:57.000Z</time>
      </trkpt>
      <trkpt lat="46.79492" lon="4.84671">
        <ele>261.62</ele>
        <time>2015-07-14T12:43:59.000Z</time>
      </trkpt>
      <trkpt lat="46.79495" lon="4.84656">
        <ele>261.62</ele>
        <time>2015-07-14T12:44:01.000Z</time>
      </trkpt>
      <trkpt lat="46.79498" lon="4.84642">
        <ele>261.62</ele>
        <time>2015-07-14T12:44:03.000Z</time>
      </trkpt>
      <trkpt lat="46.79501" lon="4.84628">
        <ele>262.58</ele>
        <time>2015-07-14T12:44:05.000Z</time>
      </trkpt>
      <trkpt lat="46.79505" lon="4.84615">
        <ele>262.58</ele>
        <time>2015-07-14T12:44:07.000Z</time>
      </trkpt>
      <trkpt lat="46.79508" lon="4.84601">
        <ele>262.58</ele>
        <time>2015-07-14T12:44:09.000Z</time>
      </trkpt>
      <trkpt lat="46.79511" lon="4.84588">
        <ele>262.58</ele>
        <time>2015-07-14T12:44:11.000Z</time>
      </trkpt>
      <trkpt lat="46.79514" lon="4.84576">
        <ele>262.58</ele>
        <time>2015-07-14T12:44:13.000Z</time>
      </trkpt>
      <trkpt lat="46.79518" lon="4.84563">
        <ele>262.58</ele>
        <time>2015-07-14T12:44:15.000Z</time>
      </trkpt>
      <trkpt lat="46.79522" lon="4.84551">
        <ele>262.58</ele>
        <time>2015-07-14T12:44:17.000Z</time>
      </trkpt>
      <trkpt lat="46.79528" lon="4.84539">
        <ele>262.58</ele>
        <time>2015-07-14T12:44:19.000Z</time>
      </trkpt>
      <trkpt lat="46.79531" lon="4.84527">
        <ele>262.58</ele>
        <time>2015-07-14T12:44:21.000Z</time>
      </trkpt>
      <trkpt lat="46.79535" lon="4.84515">
        <ele>262.1</ele>
        <time>2015-07-14T12:44:23.000Z</time>
      </trkpt>
      <trkpt lat="46.79539" lon="4.84503">
        <ele>262.1</ele>
        <time>2015-07-14T12:44:25.000Z</time>
      </trkpt>
      <trkpt lat="46.79544" lon="4.84485">
        <ele>261.14</ele>
        <time>2015-07-14T12:44:28.000Z</time>
      </trkpt>
      <trkpt lat="46.79548" lon="4.84473">
        <ele>261.62</ele>
        <time>2015-07-14T12:44:30.000Z</time>
      </trkpt>
      <trkpt lat="46.79552" lon="4.84461">
        <ele>261.62</ele>
        <time>2015-07-14T12:44:32.000Z</time>
      </trkpt>
      <trkpt lat="46.79556" lon="4.84449">
        <ele>261.14</ele>
        <time>2015-07-14T12:44:34.000Z</time>
      </trkpt>
      <trkpt lat="46.7956" lon="4.84437">
        <ele>261.62</ele>
        <time>2015-07-14T12:44:36.000Z</time>
      </trkpt>
      <trkpt lat="46.79565" lon="4.84424">
        <ele>261.14</ele>
        <time>2015-07-14T12:44:38.000Z</time>
      </trkpt>
      <trkpt lat="46.79569" lon="4.84412">
        <ele>262.1</ele>
        <time>2015-07-14T12:44:40.000Z</time>
      </trkpt>
      <trkpt lat="46.79573" lon="4.84399">
        <ele>262.58</ele>
        <time>2015-07-14T12:44:42.000Z</time>
      </trkpt>
      <trkpt lat="46.79577" lon="4.84386">
        <ele>263.06</ele>
        <time>2015-07-14T12:44:44.000Z</time>
      </trkpt>
      <trkpt lat="46.79581" lon="4.84373">
        <ele>262.1</ele>
        <time>2015-07-14T12:44:46.000Z</time>
      </trkpt>
      <trkpt lat="46.79585" lon="4.84361">
        <ele>262.1</ele>
        <time>2015-07-14T12:44:48.000Z</time>
      </trkpt>
      <trkpt lat="46.79589" lon="4.84347">
        <ele>262.1</ele>
        <time>2015-07-14T12:44:50.000Z</time>
      </trkpt>
      <trkpt lat="46.79595" lon="4.84335">
        <ele>262.1</ele>
        <time>2015-07-14T12:44:52.000Z</time>
      </trkpt>
      <trkpt lat="46.79601" lon="4.84324">
        <ele>262.1</ele>
        <time>2015-07-14T12:44:54.000Z</time>
      </trkpt>
      <trkpt lat="46.79611" lon="4.84311">
        <ele>261.14</ele>
        <time>2015-07-14T12:44:57.000Z</time>
      </trkpt>
      <trkpt lat="46.79621" lon="4.84301">
        <ele>261.62</ele>
        <time>2015-07-14T12:45:00.000Z</time>
      </trkpt>
      <trkpt lat="46.79631" lon="4.8429">
        <ele>262.1</ele>
        <time>2015-07-14T12:45:03.000Z</time>
      </trkpt>
      <trkpt lat="46.79642" lon="4.84278">
        <ele>261.62</ele>
        <time>2015-07-14T12:45:06.000Z</time>
      </trkpt>
      <trkpt lat="46.79653" lon="4.84266">
        <ele>261.62</ele>
        <time>2015-07-14T12:45:09.000Z</time>
      </trkpt>
      <trkpt lat="46.79661" lon="4.84258">
        <ele>262.1</ele>
        <time>2015-07-14T12:45:11.000Z</time>
      </trkpt>
      <trkpt lat="46.79668" lon="4.84249">
        <ele>262.1</ele>
        <time>2015-07-14T12:45:13.000Z</time>
      </trkpt>
      <trkpt lat="46.79676" lon="4.84241">
        <ele>262.58</ele>
        <time>2015-07-14T12:45:15.000Z</time>
      </trkpt>
      <trkpt lat="46.79684" lon="4.84234">
        <ele>262.1</ele>
        <time>2015-07-14T12:45:17.000Z</time>
      </trkpt>
      <trkpt lat="46.79694" lon="4.84222">
        <ele>262.58</ele>
        <time>2015-07-14T12:45:20.000Z</time>
      </trkpt>
      <trkpt lat="46.79704" lon="4.8421">
        <ele>262.1</ele>
        <time>2015-07-14T12:45:23.000Z</time>
      </trkpt>
      <trkpt lat="46.79713" lon="4.842">
        <ele>262.58</ele>
        <time>2015-07-14T12:45:26.000Z</time>
      </trkpt>
      <trkpt lat="46.79723" lon="4.84188">
        <ele>261.62</ele>
        <time>2015-07-14T12:45:29.000Z</time>
      </trkpt>
      <trkpt lat="46.79731" lon="4.84179">
        <ele>261.62</ele>
        <time>2015-07-14T12:45:31.000Z</time>
      </trkpt>
      <trkpt lat="46.79737" lon="4.8417">
        <ele>261.14</ele>
        <time>2015-07-14T12:45:33.000Z</time>
      </trkpt>
      <trkpt lat="46.79743" lon="4.8416">
        <ele>261.14</ele>
        <time>2015-07-14T12:45:35.000Z</time>
      </trkpt>
      <trkpt lat="46.79749" lon="4.84148">
        <ele>261.14</ele>
        <time>2015-07-14T12:45:37.000Z</time>
      </trkpt>
      <trkpt lat="46.79753" lon="4.84136">
        <ele>261.62</ele>
        <time>2015-07-14T12:45:39.000Z</time>
      </trkpt>
      <trkpt lat="46.79759" lon="4.84125">
        <ele>262.1</ele>
        <time>2015-07-14T12:45:41.000Z</time>
      </trkpt>
      <trkpt lat="46.79765" lon="4.84114">
        <ele>261.62</ele>
        <time>2015-07-14T12:45:43.000Z</time>
      </trkpt>
      <trkpt lat="46.79769" lon="4.84102">
        <ele>261.62</ele>
        <time>2015-07-14T12:45:45.000Z</time>
      </trkpt>
      <trkpt lat="46.79773" lon="4.8409">
        <ele>261.62</ele>
        <time>2015-07-14T12:45:47.000Z</time>
      </trkpt>
      <trkpt lat="46.79778" lon="4.84079">
        <ele>261.62</ele>
        <time>2015-07-14T12:45:49.000Z</time>
      </trkpt>
      <trkpt lat="46.79783" lon="4.84066">
        <ele>262.1</ele>
        <time>2015-07-14T12:45:51.000Z</time>
      </trkpt>
      <trkpt lat="46.79788" lon="4.84055">
        <ele>261.62</ele>
        <time>2015-07-14T12:45:53.000Z</time>
      </trkpt>
      <trkpt lat="46.79793" lon="4.84043">
        <ele>261.62</ele>
        <time>2015-07-14T12:45:55.000Z</time>
      </trkpt>
      <trkpt lat="46.79799" lon="4.84031">
        <ele>261.62</ele>
        <time>2015-07-14T12:45:57.000Z</time>
      </trkpt>
      <trkpt lat="46.79804" lon="4.8402">
        <ele>261.14</ele>
        <time>2015-07-14T12:45:59.000Z</time>
      </trkpt>
      <trkpt lat="46.79808" lon="4.84007">
        <ele>261.62</ele>
        <time>2015-07-14T12:46:01.000Z</time>
      </trkpt>
      <trkpt lat="46.79811" lon="4.83995">
        <ele>260.65</ele>
        <time>2015-07-14T12:46:03.000Z</time>
      </trkpt>
      <trkpt lat="46.79815" lon="4.83977">
        <ele>260.65</ele>
        <time>2015-07-14T12:46:06.000Z</time>
      </trkpt>
      <trkpt lat="46.7982" lon="4.83959">
        <ele>261.14</ele>
        <time>2015-07-14T12:46:09.000Z</time>
      </trkpt>
      <trkpt lat="46.79824" lon="4.83941">
        <ele>261.14</ele>
        <time>2015-07-14T12:46:12.000Z</time>
      </trkpt>
      <trkpt lat="46.79829" lon="4.83923">
        <ele>260.65</ele>
        <time>2015-07-14T12:46:15.000Z</time>
      </trkpt>
      <trkpt lat="46.79834" lon="4.83906">
        <ele>262.1</ele>
        <time>2015-07-14T12:46:18.000Z</time>
      </trkpt>
      <trkpt lat="46.79838" lon="4.83888">
        <ele>262.1</ele>
        <time>2015-07-14T12:46:21.000Z</time>
      </trkpt>
      <trkpt lat="46.79847" lon="4.83878">
        <ele>262.1</ele>
        <time>2015-07-14T12:46:24.000Z</time>
      </trkpt>
      <trkpt lat="46.7986" lon="4.83873">
        <ele>262.1</ele>
        <time>2015-07-14T12:46:27.000Z</time>
      </trkpt>
      <trkpt lat="46.79872" lon="4.83868">
        <ele>262.1</ele>
        <time>2015-07-14T12:46:30.000Z</time>
      </trkpt>
      <trkpt lat="46.79881" lon="4.83864">
        <ele>262.1</ele>
        <time>2015-07-14T12:46:32.000Z</time>
      </trkpt>
      <trkpt lat="46.7989" lon="4.83861">
        <ele>261.62</ele>
        <time>2015-07-14T12:46:34.000Z</time>
      </trkpt>
      <trkpt lat="46.79899" lon="4.83858">
        <ele>262.1</ele>
        <time>2015-07-14T12:46:36.000Z</time>
      </trkpt>
      <trkpt lat="46.79908" lon="4.83854">
        <ele>261.14</ele>
        <time>2015-07-14T12:46:38.000Z</time>
      </trkpt>
      <trkpt lat="46.79917" lon="4.8385">
        <ele>261.14</ele>
        <time>2015-07-14T12:46:40.000Z</time>
      </trkpt>
      <trkpt lat="46.79928" lon="4.83843">
        <ele>261.62</ele>
        <time>2015-07-14T12:46:43.000Z</time>
      </trkpt>
      <trkpt lat="46.79932" lon="4.83826">
        <ele>260.65</ele>
        <time>2015-07-14T12:46:46.000Z</time>
      </trkpt>
      <trkpt lat="46.7993" lon="4.83809">
        <ele>261.14</ele>
        <time>2015-07-14T12:46:49.000Z</time>
      </trkpt>
      <trkpt lat="46.79929" lon="4.83796">
        <ele>260.65</ele>
        <time>2015-07-14T12:46:51.000Z</time>
      </trkpt>
      <trkpt lat="46.79927" lon="4.83782">
        <ele>261.14</ele>
        <time>2015-07-14T12:46:53.000Z</time>
      </trkpt>
      <trkpt lat="46.79924" lon="4.83768">
        <ele>261.14</ele>
        <time>2015-07-14T12:46:55.000Z</time>
      </trkpt>
      <trkpt lat="46.79923" lon="4.83755">
        <ele>261.14</ele>
        <time>2015-07-14T12:46:57.000Z</time>
      </trkpt>
      <trkpt lat="46.79921" lon="4.83742">
        <ele>261.14</ele>
        <time>2015-07-14T12:46:59.000Z</time>
      </trkpt>
      <trkpt lat="46.79919" lon="4.83729">
        <ele>261.14</ele>
        <time>2015-07-14T12:47:01.000Z</time>
      </trkpt>
      <trkpt lat="46.79918" lon="4.83716">
        <ele>261.14</ele>
        <time>2015-07-14T12:47:03.000Z</time>
      </trkpt>
      <trkpt lat="46.79916" lon="4.83702">
        <ele>261.62</ele>
        <time>2015-07-14T12:47:05.000Z</time>
      </trkpt>
      <trkpt lat="46.79914" lon="4.83689">
        <ele>261.14</ele>
        <time>2015-07-14T12:47:07.000Z</time>
      </trkpt>
      <trkpt lat="46.79912" lon="4.83675">
        <ele>261.14</ele>
        <time>2015-07-14T12:47:09.000Z</time>
      </trkpt>
      <trkpt lat="46.7991" lon="4.83662">
        <ele>259.21</ele>
        <time>2015-07-14T12:47:11.000Z</time>
      </trkpt>
      <trkpt lat="46.79908" lon="4.83647">
        <ele>259.21</ele>
        <time>2015-07-14T12:47:13.000Z</time>
      </trkpt>
      <trkpt lat="46.79905" lon="4.8363">
        <ele>258.25</ele>
        <time>2015-07-14T12:47:15.000Z</time>
      </trkpt>
      <trkpt lat="46.79903" lon="4.83611">
        <ele>257.29</ele>
        <time>2015-07-14T12:47:17.000Z</time>
      </trkpt>
      <trkpt lat="46.799" lon="4.83593">
        <ele>255.37</ele>
        <time>2015-07-14T12:47:19.000Z</time>
      </trkpt>
      <trkpt lat="46.79899" lon="4.83577">
        <ele>254.41</ele>
        <time>2015-07-14T12:47:21.000Z</time>
      </trkpt>
      <trkpt lat="46.79904" lon="4.83563">
        <ele>253.44</ele>
        <time>2015-07-14T12:47:23.000Z</time>
      </trkpt>
      <trkpt lat="46.79913" lon="4.83553">
        <ele>253.44</ele>
        <time>2015-07-14T12:47:25.000Z</time>
      </trkpt>
      <trkpt lat="46.79922" lon="4.83544">
        <ele>253.93</ele>
        <time>2015-07-14T12:47:27.000Z</time>
      </trkpt>
      <trkpt lat="46.79931" lon="4.83536">
        <ele>253.93</ele>
        <time>2015-07-14T12:47:29.000Z</time>
      </trkpt>
      <trkpt lat="46.79939" lon="4.8353">
        <ele>253.44</ele>
        <time>2015-07-14T12:47:31.000Z</time>
      </trkpt>
      <trkpt lat="46.79951" lon="4.83521">
        <ele>253.93</ele>
        <time>2015-07-14T12:47:34.000Z</time>
      </trkpt>
      <trkpt lat="46.79962" lon="4.83514">
        <ele>253.93</ele>
        <time>2015-07-14T12:47:37.000Z</time>
      </trkpt>
      <trkpt lat="46.79973" lon="4.83506">
        <ele>253.93</ele>
        <time>2015-07-14T12:47:40.000Z</time>
      </trkpt>
      <trkpt lat="46.79984" lon="4.83498">
        <ele>252.96</ele>
        <time>2015-07-14T12:47:43.000Z</time>
      </trkpt>
      <trkpt lat="46.79994" lon="4.83491">
        <ele>252.96</ele>
        <time>2015-07-14T12:47:46.000Z</time>
      </trkpt>
      <trkpt lat="46.80005" lon="4.83483">
        <ele>252.96</ele>
        <time>2015-07-14T12:47:49.000Z</time>
      </trkpt>
      <trkpt lat="46.80016" lon="4.83475">
        <ele>253.44</ele>
        <time>2015-07-14T12:47:52.000Z</time>
      </trkpt>
      <trkpt lat="46.80028" lon="4.83471">
        <ele>253.44</ele>
        <time>2015-07-14T12:47:55.000Z</time>
      </trkpt>
      <trkpt lat="46.8004" lon="4.83469">
        <ele>253.93</ele>
        <time>2015-07-14T12:47:58.000Z</time>
      </trkpt>
      <trkpt lat="46.80053" lon="4.83469">
        <ele>253.93</ele>
        <time>2015-07-14T12:48:01.000Z</time>
      </trkpt>
      <trkpt lat="46.80066" lon="4.83471">
        <ele>253.93</ele>
        <time>2015-07-14T12:48:04.000Z</time>
      </trkpt>
      <trkpt lat="46.80075" lon="4.83473">
        <ele>252.96</ele>
        <time>2015-07-14T12:48:06.000Z</time>
      </trkpt>
      <trkpt lat="46.80084" lon="4.83475">
        <ele>253.44</ele>
        <time>2015-07-14T12:48:08.000Z</time>
      </trkpt>
      <trkpt lat="46.80094" lon="4.83478">
        <ele>252.96</ele>
        <time>2015-07-14T12:48:10.000Z</time>
      </trkpt>
      <trkpt lat="46.80104" lon="4.83483">
        <ele>252.96</ele>
        <time>2015-07-14T12:48:12.000Z</time>
      </trkpt>
      <trkpt lat="46.80114" lon="4.8349">
        <ele>252.48</ele>
        <time>2015-07-14T12:48:14.000Z</time>
      </trkpt>
      <trkpt lat="46.80123" lon="4.83497">
        <ele>253.44</ele>
        <time>2015-07-14T12:48:16.000Z</time>
      </trkpt>
      <trkpt lat="46.80132" lon="4.83504">
        <ele>252.96</ele>
        <time>2015-07-14T12:48:18.000Z</time>
      </trkpt>
      <trkpt lat="46.8014" lon="4.83511">
        <ele>254.41</ele>
        <time>2015-07-14T12:48:20.000Z</time>
      </trkpt>
      <trkpt lat="46.80148" lon="4.83518">
        <ele>253.44</ele>
        <time>2015-07-14T12:48:22.000Z</time>
      </trkpt>
      <trkpt lat="46.80156" lon="4.83524">
        <ele>253.93</ele>
        <time>2015-07-14T12:48:24.000Z</time>
      </trkpt>
      <trkpt lat="46.80165" lon="4.83531">
        <ele>253.44</ele>
        <time>2015-07-14T12:48:26.000Z</time>
      </trkpt>
      <trkpt lat="46.80174" lon="4.83536">
        <ele>253.93</ele>
        <time>2015-07-14T12:48:28.000Z</time>
      </trkpt>
      <trkpt lat="46.80183" lon="4.83543">
        <ele>254.41</ele>
        <time>2015-07-14T12:48:30.000Z</time>
      </trkpt>
      <trkpt lat="46.80193" lon="4.8355">
        <ele>253.93</ele>
        <time>2015-07-14T12:48:32.000Z</time>
      </trkpt>
      <trkpt lat="46.80203" lon="4.83556">
        <ele>253.44</ele>
        <time>2015-07-14T12:48:34.000Z</time>
      </trkpt>
      <trkpt lat="46.80212" lon="4.83563">
        <ele>253.44</ele>
        <time>2015-07-14T12:48:36.000Z</time>
      </trkpt>
      <trkpt lat="46.80222" lon="4.83568">
        <ele>253.44</ele>
        <time>2015-07-14T12:48:38.000Z</time>
      </trkpt>
      <trkpt lat="46.80232" lon="4.83572">
        <ele>252.96</ele>
        <time>2015-07-14T12:48:40.000Z</time>
      </trkpt>
      <trkpt lat="46.80242" lon="4.83578">
        <ele>252.96</ele>
        <time>2015-07-14T12:48:42.000Z</time>
      </trkpt>
      <trkpt lat="46.80251" lon="4.83583">
        <ele>251.52</ele>
        <time>2015-07-14T12:48:44.000Z</time>
      </trkpt>
      <trkpt lat="46.8026" lon="4.83588">
        <ele>252</ele>
        <time>2015-07-14T12:48:46.000Z</time>
      </trkpt>
      <trkpt lat="46.80268" lon="4.83592">
        <ele>251.52</ele>
        <time>2015-07-14T12:48:48.000Z</time>
      </trkpt>
      <trkpt lat="46.80277" lon="4.83596">
        <ele>252.48</ele>
        <time>2015-07-14T12:48:50.000Z</time>
      </trkpt>
      <trkpt lat="46.80286" lon="4.83601">
        <ele>252.48</ele>
        <time>2015-07-14T12:48:52.000Z</time>
      </trkpt>
      <trkpt lat="46.80295" lon="4.83605">
        <ele>252</ele>
        <time>2015-07-14T12:48:54.000Z</time>
      </trkpt>
      <trkpt lat="46.80305" lon="4.83609">
        <ele>252.48</ele>
        <time>2015-07-14T12:48:56.000Z</time>
      </trkpt>
      <trkpt lat="46.80315" lon="4.83613">
        <ele>252.48</ele>
        <time>2015-07-14T12:48:58.000Z</time>
      </trkpt>
      <trkpt lat="46.80324" lon="4.83616">
        <ele>252.48</ele>
        <time>2015-07-14T12:49:00.000Z</time>
      </trkpt>
      <trkpt lat="46.80334" lon="4.8362">
        <ele>253.44</ele>
        <time>2015-07-14T12:49:02.000Z</time>
      </trkpt>
      <trkpt lat="46.80344" lon="4.83623">
        <ele>253.44</ele>
        <time>2015-07-14T12:49:04.000Z</time>
      </trkpt>
      <trkpt lat="46.80353" lon="4.83626">
        <ele>253.44</ele>
        <time>2015-07-14T12:49:06.000Z</time>
      </trkpt>
      <trkpt lat="46.80364" lon="4.83631">
        <ele>253.93</ele>
        <time>2015-07-14T12:49:09.000Z</time>
      </trkpt>
      <trkpt lat="46.80376" lon="4.83635">
        <ele>254.41</ele>
        <time>2015-07-14T12:49:12.000Z</time>
      </trkpt>
      <trkpt lat="46.80388" lon="4.83639">
        <ele>254.41</ele>
        <time>2015-07-14T12:49:15.000Z</time>
      </trkpt>
      <trkpt lat="46.80399" lon="4.83643">
        <ele>254.41</ele>
        <time>2015-07-14T12:49:18.000Z</time>
      </trkpt>
      <trkpt lat="46.80409" lon="4.83647">
        <ele>254.89</ele>
        <time>2015-07-14T12:49:21.000Z</time>
      </trkpt>
      <trkpt lat="46.80418" lon="4.8365">
        <ele>255.85</ele>
        <time>2015-07-14T12:49:24.000Z</time>
      </trkpt>
      <trkpt lat="46.80428" lon="4.83654">
        <ele>256.81</ele>
        <time>2015-07-14T12:49:27.000Z</time>
      </trkpt>
      <trkpt lat="46.80439" lon="4.83659">
        <ele>257.77</ele>
        <time>2015-07-14T12:49:31.000Z</time>
      </trkpt>
      <trkpt lat="46.80449" lon="4.83666">
        <ele>257.77</ele>
        <time>2015-07-14T12:49:34.000Z</time>
      </trkpt>
      <trkpt lat="46.80458" lon="4.83675">
        <ele>256.81</ele>
        <time>2015-07-14T12:49:37.000Z</time>
      </trkpt>
      <trkpt lat="46.80467" lon="4.83686">
        <ele>256.81</ele>
        <time>2015-07-14T12:49:40.000Z</time>
      </trkpt>
      <trkpt lat="46.80476" lon="4.83698">
        <ele>257.29</ele>
        <time>2015-07-14T12:49:43.000Z</time>
      </trkpt>
      <trkpt lat="46.80483" lon="4.83711">
        <ele>257.29</ele>
        <time>2015-07-14T12:49:46.000Z</time>
      </trkpt>
      <trkpt lat="46.8049" lon="4.83728">
        <ele>257.77</ele>
        <time>2015-07-14T12:49:49.000Z</time>
      </trkpt>
      <trkpt lat="46.80493" lon="4.83746">
        <ele>257.77</ele>
        <time>2015-07-14T12:49:52.000Z</time>
      </trkpt>
      <trkpt lat="46.80493" lon="4.83765">
        <ele>256.81</ele>
        <time>2015-07-14T12:49:55.000Z</time>
      </trkpt>
      <trkpt lat="46.80491" lon="4.83778">
        <ele>257.29</ele>
        <time>2015-07-14T12:49:57.000Z</time>
      </trkpt>
      <trkpt lat="46.80489" lon="4.83791">
        <ele>256.81</ele>
        <time>2015-07-14T12:49:59.000Z</time>
      </trkpt>
      <trkpt lat="46.80488" lon="4.83805">
        <ele>257.29</ele>
        <time>2015-07-14T12:50:01.000Z</time>
      </trkpt>
      <trkpt lat="46.80486" lon="4.83819">
        <ele>256.81</ele>
        <time>2015-07-14T12:50:03.000Z</time>
      </trkpt>
      <trkpt lat="46.80486" lon="4.83833">
        <ele>256.81</ele>
        <time>2015-07-14T12:50:05.000Z</time>
      </trkpt>
      <trkpt lat="46.80488" lon="4.83847">
        <ele>257.29</ele>
        <time>2015-07-14T12:50:07.000Z</time>
      </trkpt>
      <trkpt lat="46.80492" lon="4.8386">
        <ele>257.77</ele>
        <time>2015-07-14T12:50:09.000Z</time>
      </trkpt>
      <trkpt lat="46.80496" lon="4.83874">
        <ele>257.77</ele>
        <time>2015-07-14T12:50:11.000Z</time>
      </trkpt>
      <trkpt lat="46.80502" lon="4.83886">
        <ele>257.77</ele>
        <time>2015-07-14T12:50:13.000Z</time>
      </trkpt>
      <trkpt lat="46.80507" lon="4.83898">
        <ele>257.77</ele>
        <time>2015-07-14T12:50:15.000Z</time>
      </trkpt>
      <trkpt lat="46.80515" lon="4.8391">
        <ele>257.77</ele>
        <time>2015-07-14T12:50:17.000Z</time>
      </trkpt>
      <trkpt lat="46.80522" lon="4.83919">
        <ele>257.77</ele>
        <time>2015-07-14T12:50:19.000Z</time>
      </trkpt>
      <trkpt lat="46.80531" lon="4.83927">
        <ele>257.77</ele>
        <time>2015-07-14T12:50:21.000Z</time>
      </trkpt>
      <trkpt lat="46.80539" lon="4.83934">
        <ele>257.77</ele>
        <time>2015-07-14T12:50:23.000Z</time>
      </trkpt>
      <trkpt lat="46.80548" lon="4.83941">
        <ele>257.77</ele>
        <time>2015-07-14T12:50:25.000Z</time>
      </trkpt>
      <trkpt lat="46.80556" lon="4.83947">
        <ele>257.77</ele>
        <time>2015-07-14T12:50:27.000Z</time>
      </trkpt>
      <trkpt lat="46.80566" lon="4.83959">
        <ele>258.25</ele>
        <time>2015-07-14T12:50:30.000Z</time>
      </trkpt>
      <trkpt lat="46.80576" lon="4.83967">
        <ele>258.25</ele>
        <time>2015-07-14T12:50:33.000Z</time>
      </trkpt>
      <trkpt lat="46.80588" lon="4.83971">
        <ele>258.25</ele>
        <time>2015-07-14T12:50:36.000Z</time>
      </trkpt>
      <trkpt lat="46.80602" lon="4.8397">
        <ele>257.77</ele>
        <time>2015-07-14T12:50:39.000Z</time>
      </trkpt>
      <trkpt lat="46.80611" lon="4.83971">
        <ele>257.29</ele>
        <time>2015-07-14T12:50:41.000Z</time>
      </trkpt>
      <trkpt lat="46.80621" lon="4.83973">
        <ele>257.77</ele>
        <time>2015-07-14T12:50:43.000Z</time>
      </trkpt>
      <trkpt lat="46.8063" lon="4.83974">
        <ele>257.29</ele>
        <time>2015-07-14T12:50:45.000Z</time>
      </trkpt>
      <trkpt lat="46.8064" lon="4.83974">
        <ele>257.77</ele>
        <time>2015-07-14T12:50:47.000Z</time>
      </trkpt>
      <trkpt lat="46.80649" lon="4.83975">
        <ele>257.77</ele>
        <time>2015-07-14T12:50:49.000Z</time>
      </trkpt>
      <trkpt lat="46.80659" lon="4.83975">
        <ele>257.29</ele>
        <time>2015-07-14T12:50:51.000Z</time>
      </trkpt>
      <trkpt lat="46.80669" lon="4.83974">
        <ele>257.77</ele>
        <time>2015-07-14T12:50:53.000Z</time>
      </trkpt>
      <trkpt lat="46.80679" lon="4.83972">
        <ele>258.25</ele>
        <time>2015-07-14T12:50:55.000Z</time>
      </trkpt>
      <trkpt lat="46.80689" lon="4.83969">
        <ele>257.77</ele>
        <time>2015-07-14T12:50:57.000Z</time>
      </trkpt>
      <trkpt lat="46.80698" lon="4.83964">
        <ele>258.25</ele>
        <time>2015-07-14T12:50:59.000Z</time>
      </trkpt>
      <trkpt lat="46.8071" lon="4.83958">
        <ele>258.25</ele>
        <time>2015-07-14T12:51:02.000Z</time>
      </trkpt>
      <trkpt lat="46.80722" lon="4.83953">
        <ele>257.77</ele>
        <time>2015-07-14T12:51:05.000Z</time>
      </trkpt>
      <trkpt lat="46.80731" lon="4.83948">
        <ele>258.25</ele>
        <time>2015-07-14T12:51:07.000Z</time>
      </trkpt>
      <trkpt lat="46.8074" lon="4.83943">
        <ele>258.25</ele>
        <time>2015-07-14T12:51:09.000Z</time>
      </trkpt>
      <trkpt lat="46.8075" lon="4.83939">
        <ele>257.77</ele>
        <time>2015-07-14T12:51:11.000Z</time>
      </trkpt>
      <trkpt lat="46.8076" lon="4.83936">
        <ele>257.77</ele>
        <time>2015-07-14T12:51:13.000Z</time>
      </trkpt>
      <trkpt lat="46.8077" lon="4.83935">
        <ele>257.77</ele>
        <time>2015-07-14T12:51:15.000Z</time>
      </trkpt>
      <trkpt lat="46.8078" lon="4.83936">
        <ele>257.29</ele>
        <time>2015-07-14T12:51:17.000Z</time>
      </trkpt>
      <trkpt lat="46.8079" lon="4.83939">
        <ele>257.77</ele>
        <time>2015-07-14T12:51:19.000Z</time>
      </trkpt>
      <trkpt lat="46.808" lon="4.83944">
        <ele>257.77</ele>
        <time>2015-07-14T12:51:21.000Z</time>
      </trkpt>
      <trkpt lat="46.8081" lon="4.83949">
        <ele>257.77</ele>
        <time>2015-07-14T12:51:23.000Z</time>
      </trkpt>
      <trkpt lat="46.8082" lon="4.83952">
        <ele>257.29</ele>
        <time>2015-07-14T12:51:25.000Z</time>
      </trkpt>
      <trkpt lat="46.80831" lon="4.83955">
        <ele>257.77</ele>
        <time>2015-07-14T12:51:27.000Z</time>
      </trkpt>
      <trkpt lat="46.80842" lon="4.83956">
        <ele>257.77</ele>
        <time>2015-07-14T12:51:29.000Z</time>
      </trkpt>
      <trkpt lat="46.80853" lon="4.83956">
        <ele>258.25</ele>
        <time>2015-07-14T12:51:31.000Z</time>
      </trkpt>
      <trkpt lat="46.80863" lon="4.83956">
        <ele>257.77</ele>
        <time>2015-07-14T12:51:33.000Z</time>
      </trkpt>
      <trkpt lat="46.80873" lon="4.83954">
        <ele>258.25</ele>
        <time>2015-07-14T12:51:35.000Z</time>
      </trkpt>
      <trkpt lat="46.80883" lon="4.83951">
        <ele>257.77</ele>
        <time>2015-07-14T12:51:37.000Z</time>
      </trkpt>
      <trkpt lat="46.80894" lon="4.83948">
        <ele>257.77</ele>
        <time>2015-07-14T12:51:39.000Z</time>
      </trkpt>
      <trkpt lat="46.80904" lon="4.83943">
        <ele>257.77</ele>
        <time>2015-07-14T12:51:41.000Z</time>
      </trkpt>
      <trkpt lat="46.80915" lon="4.83937">
        <ele>257.77</ele>
        <time>2015-07-14T12:51:43.000Z</time>
      </trkpt>
      <trkpt lat="46.80925" lon="4.83931">
        <ele>257.77</ele>
        <time>2015-07-14T12:51:45.000Z</time>
      </trkpt>
      <trkpt lat="46.80936" lon="4.83925">
        <ele>257.77</ele>
        <time>2015-07-14T12:51:47.000Z</time>
      </trkpt>
      <trkpt lat="46.80946" lon="4.83918">
        <ele>258.25</ele>
        <time>2015-07-14T12:51:49.000Z</time>
      </trkpt>
      <trkpt lat="46.80956" lon="4.83911">
        <ele>257.77</ele>
        <time>2015-07-14T12:51:51.000Z</time>
      </trkpt>
      <trkpt lat="46.80966" lon="4.83903">
        <ele>257.77</ele>
        <time>2015-07-14T12:51:53.000Z</time>
      </trkpt>
      <trkpt lat="46.80975" lon="4.83895">
        <ele>257.77</ele>
        <time>2015-07-14T12:51:55.000Z</time>
      </trkpt>
      <trkpt lat="46.80984" lon="4.83886">
        <ele>257.77</ele>
        <time>2015-07-14T12:51:57.000Z</time>
      </trkpt>
      <trkpt lat="46.80994" lon="4.83878">
        <ele>257.77</ele>
        <time>2015-07-14T12:51:59.000Z</time>
      </trkpt>
      <trkpt lat="46.81004" lon="4.83869">
        <ele>257.29</ele>
        <time>2015-07-14T12:52:01.000Z</time>
      </trkpt>
      <trkpt lat="46.81013" lon="4.8386">
        <ele>258.25</ele>
        <time>2015-07-14T12:52:03.000Z</time>
      </trkpt>
      <trkpt lat="46.81022" lon="4.83851">
        <ele>256.81</ele>
        <time>2015-07-14T12:52:05.000Z</time>
      </trkpt>
      <trkpt lat="46.81031" lon="4.83843">
        <ele>257.29</ele>
        <time>2015-07-14T12:52:07.000Z</time>
      </trkpt>
      <trkpt lat="46.81039" lon="4.83836">
        <ele>256.81</ele>
        <time>2015-07-14T12:52:09.000Z</time>
      </trkpt>
      <trkpt lat="46.81048" lon="4.83827">
        <ele>257.29</ele>
        <time>2015-07-14T12:52:11.000Z</time>
      </trkpt>
      <trkpt lat="46.81057" lon="4.83819">
        <ele>257.29</ele>
        <time>2015-07-14T12:52:13.000Z</time>
      </trkpt>
      <trkpt lat="46.81065" lon="4.8381">
        <ele>256.81</ele>
        <time>2015-07-14T12:52:15.000Z</time>
      </trkpt>
      <trkpt lat="46.81074" lon="4.838">
        <ele>256.81</ele>
        <time>2015-07-14T12:52:17.000Z</time>
      </trkpt>
      <trkpt lat="46.81083" lon="4.83791">
        <ele>257.29</ele>
        <time>2015-07-14T12:52:19.000Z</time>
      </trkpt>
      <trkpt lat="46.81092" lon="4.83782">
        <ele>257.77</ele>
        <time>2015-07-14T12:52:21.000Z</time>
      </trkpt>
      <trkpt lat="46.81101" lon="4.83774">
        <ele>257.29</ele>
        <time>2015-07-14T12:52:23.000Z</time>
      </trkpt>
      <trkpt lat="46.81111" lon="4.83768">
        <ele>257.77</ele>
        <time>2015-07-14T12:52:25.000Z</time>
      </trkpt>
      <trkpt lat="46.81121" lon="4.83762">
        <ele>257.77</ele>
        <time>2015-07-14T12:52:27.000Z</time>
      </trkpt>
      <trkpt lat="46.81132" lon="4.83759">
        <ele>257.29</ele>
        <time>2015-07-14T12:52:29.000Z</time>
      </trkpt>
      <trkpt lat="46.81142" lon="4.83759">
        <ele>256.81</ele>
        <time>2015-07-14T12:52:31.000Z</time>
      </trkpt>
      <trkpt lat="46.81153" lon="4.83759">
        <ele>257.29</ele>
        <time>2015-07-14T12:52:33.000Z</time>
      </trkpt>
      <trkpt lat="46.81164" lon="4.83761">
        <ele>257.29</ele>
        <time>2015-07-14T12:52:35.000Z</time>
      </trkpt>
      <trkpt lat="46.81174" lon="4.83766">
        <ele>257.29</ele>
        <time>2015-07-14T12:52:37.000Z</time>
      </trkpt>
      <trkpt lat="46.81184" lon="4.83772">
        <ele>257.29</ele>
        <time>2015-07-14T12:52:39.000Z</time>
      </trkpt>
      <trkpt lat="46.81194" lon="4.83781">
        <ele>256.81</ele>
        <time>2015-07-14T12:52:41.000Z</time>
      </trkpt>
      <trkpt lat="46.81204" lon="4.83791">
        <ele>257.77</ele>
        <time>2015-07-14T12:52:43.000Z</time>
      </trkpt>
      <trkpt lat="46.81213" lon="4.83802">
        <ele>257.77</ele>
        <time>2015-07-14T12:52:45.000Z</time>
      </trkpt>
      <trkpt lat="46.8122" lon="4.83816">
        <ele>257.77</ele>
        <time>2015-07-14T12:52:47.000Z</time>
      </trkpt>
      <trkpt lat="46.81226" lon="4.8383">
        <ele>257.29</ele>
        <time>2015-07-14T12:52:49.000Z</time>
      </trkpt>
      <trkpt lat="46.81232" lon="4.83845">
        <ele>257.29</ele>
        <time>2015-07-14T12:52:51.000Z</time>
      </trkpt>
      <trkpt lat="46.8124" lon="4.8386">
        <ele>257.29</ele>
        <time>2015-07-14T12:52:53.000Z</time>
      </trkpt>
      <trkpt lat="46.81247" lon="4.83874">
        <ele>257.29</ele>
        <time>2015-07-14T12:52:55.000Z</time>
      </trkpt>
      <trkpt lat="46.81253" lon="4.83888">
        <ele>257.77</ele>
        <time>2015-07-14T12:52:57.000Z</time>
      </trkpt>
      <trkpt lat="46.81259" lon="4.83901">
        <ele>257.77</ele>
        <time>2015-07-14T12:52:59.000Z</time>
      </trkpt>
      <trkpt lat="46.81266" lon="4.83914">
        <ele>257.77</ele>
        <time>2015-07-14T12:53:01.000Z</time>
      </trkpt>
      <trkpt lat="46.81273" lon="4.83928">
        <ele>257.77</ele>
        <time>2015-07-14T12:53:03.000Z</time>
      </trkpt>
      <trkpt lat="46.81279" lon="4.83941">
        <ele>257.77</ele>
        <time>2015-07-14T12:53:05.000Z</time>
      </trkpt>
      <trkpt lat="46.81287" lon="4.83954">
        <ele>257.77</ele>
        <time>2015-07-14T12:53:07.000Z</time>
      </trkpt>
      <trkpt lat="46.81293" lon="4.83967">
        <ele>257.77</ele>
        <time>2015-07-14T12:53:09.000Z</time>
      </trkpt>
      <trkpt lat="46.81301" lon="4.8398">
        <ele>258.25</ele>
        <time>2015-07-14T12:53:11.000Z</time>
      </trkpt>
      <trkpt lat="46.81309" lon="4.83991">
        <ele>257.77</ele>
        <time>2015-07-14T12:53:13.000Z</time>
      </trkpt>
      <trkpt lat="46.81319" lon="4.84">
        <ele>257.77</ele>
        <time>2015-07-14T12:53:15.000Z</time>
      </trkpt>
      <trkpt lat="46.8133" lon="4.84005">
        <ele>257.77</ele>
        <time>2015-07-14T12:53:17.000Z</time>
      </trkpt>
      <trkpt lat="46.81342" lon="4.84007">
        <ele>257.77</ele>
        <time>2015-07-14T12:53:19.000Z</time>
      </trkpt>
      <trkpt lat="46.81354" lon="4.84005">
        <ele>257.77</ele>
        <time>2015-07-14T12:53:21.000Z</time>
      </trkpt>
      <trkpt lat="46.81366" lon="4.84002">
        <ele>257.77</ele>
        <time>2015-07-14T12:53:23.000Z</time>
      </trkpt>
      <trkpt lat="46.81377" lon="4.83999">
        <ele>258.25</ele>
        <time>2015-07-14T12:53:25.000Z</time>
      </trkpt>
      <trkpt lat="46.81389" lon="4.83996">
        <ele>257.77</ele>
        <time>2015-07-14T12:53:27.000Z</time>
      </trkpt>
      <trkpt lat="46.814" lon="4.83992">
        <ele>257.77</ele>
        <time>2015-07-14T12:53:29.000Z</time>
      </trkpt>
      <trkpt lat="46.81412" lon="4.83988">
        <ele>257.77</ele>
        <time>2015-07-14T12:53:31.000Z</time>
      </trkpt>
      <trkpt lat="46.81424" lon="4.83984">
        <ele>258.25</ele>
        <time>2015-07-14T12:53:33.000Z</time>
      </trkpt>
      <trkpt lat="46.81435" lon="4.8398">
        <ele>257.77</ele>
        <time>2015-07-14T12:53:35.000Z</time>
      </trkpt>
      <trkpt lat="46.81447" lon="4.83977">
        <ele>257.77</ele>
        <time>2015-07-14T12:53:37.000Z</time>
      </trkpt>
      <trkpt lat="46.81458" lon="4.83973">
        <ele>257.77</ele>
        <time>2015-07-14T12:53:39.000Z</time>
      </trkpt>
      <trkpt lat="46.8147" lon="4.83969">
        <ele>257.77</ele>
        <time>2015-07-14T12:53:41.000Z</time>
      </trkpt>
      <trkpt lat="46.81481" lon="4.83966">
        <ele>257.77</ele>
        <time>2015-07-14T12:53:43.000Z</time>
      </trkpt>
      <trkpt lat="46.81491" lon="4.83963">
        <ele>257.77</ele>
        <time>2015-07-14T12:53:45.000Z</time>
      </trkpt>
      <trkpt lat="46.81503" lon="4.8396">
        <ele>257.77</ele>
        <time>2015-07-14T12:53:47.000Z</time>
      </trkpt>
      <trkpt lat="46.81514" lon="4.83956">
        <ele>257.77</ele>
        <time>2015-07-14T12:53:49.000Z</time>
      </trkpt>
      <trkpt lat="46.81525" lon="4.83953">
        <ele>258.25</ele>
        <time>2015-07-14T12:53:51.000Z</time>
      </trkpt>
      <trkpt lat="46.81537" lon="4.83949">
        <ele>256.81</ele>
        <time>2015-07-14T12:53:53.000Z</time>
      </trkpt>
      <trkpt lat="46.81548" lon="4.83946">
        <ele>257.29</ele>
        <time>2015-07-14T12:53:55.000Z</time>
      </trkpt>
      <trkpt lat="46.8156" lon="4.83944">
        <ele>256.81</ele>
        <time>2015-07-14T12:53:57.000Z</time>
      </trkpt>
      <trkpt lat="46.81572" lon="4.83943">
        <ele>256.81</ele>
        <time>2015-07-14T12:53:59.000Z</time>
      </trkpt>
      <trkpt lat="46.81584" lon="4.83944">
        <ele>256.81</ele>
        <time>2015-07-14T12:54:01.000Z</time>
      </trkpt>
      <trkpt lat="46.81595" lon="4.83946">
        <ele>257.29</ele>
        <time>2015-07-14T12:54:03.000Z</time>
      </trkpt>
      <trkpt lat="46.81606" lon="4.8395">
        <ele>257.77</ele>
        <time>2015-07-14T12:54:05.000Z</time>
      </trkpt>
      <trkpt lat="46.81615" lon="4.83954">
        <ele>258.25</ele>
        <time>2015-07-14T12:54:07.000Z</time>
      </trkpt>
      <trkpt lat="46.81625" lon="4.83958">
        <ele>259.21</ele>
        <time>2015-07-14T12:54:09.000Z</time>
      </trkpt>
      <trkpt lat="46.81634" lon="4.83962">
        <ele>258.73</ele>
        <time>2015-07-14T12:54:11.000Z</time>
      </trkpt>
      <trkpt lat="46.81645" lon="4.83968">
        <ele>259.69</ele>
        <time>2015-07-14T12:54:14.000Z</time>
      </trkpt>
      <trkpt lat="46.81653" lon="4.83973">
        <ele>259.69</ele>
        <time>2015-07-14T12:54:17.000Z</time>
      </trkpt>
      <trkpt lat="46.81664" lon="4.83979">
        <ele>259.69</ele>
        <time>2015-07-14T12:54:21.000Z</time>
      </trkpt>
      <trkpt lat="46.81675" lon="4.83979">
        <ele>259.21</ele>
        <time>2015-07-14T12:54:25.000Z</time>
      </trkpt>
      <trkpt lat="46.81687" lon="4.83983">
        <ele>259.21</ele>
        <time>2015-07-14T12:54:29.000Z</time>
      </trkpt>
      <trkpt lat="46.81695" lon="4.8399">
        <ele>260.17</ele>
        <time>2015-07-14T12:54:32.000Z</time>
      </trkpt>
      <trkpt lat="46.81704" lon="4.83997">
        <ele>260.17</ele>
        <time>2015-07-14T12:54:35.000Z</time>
      </trkpt>
      <trkpt lat="46.81715" lon="4.84006">
        <ele>260.65</ele>
        <time>2015-07-14T12:54:38.000Z</time>
      </trkpt>
      <trkpt lat="46.81723" lon="4.84012">
        <ele>259.21</ele>
        <time>2015-07-14T12:54:40.000Z</time>
      </trkpt>
      <trkpt lat="46.81733" lon="4.8402">
        <ele>259.21</ele>
        <time>2015-07-14T12:54:42.000Z</time>
      </trkpt>
      <trkpt lat="46.81741" lon="4.84027">
        <ele>258.73</ele>
        <time>2015-07-14T12:54:44.000Z</time>
      </trkpt>
      <trkpt lat="46.8175" lon="4.84037">
        <ele>258.73</ele>
        <time>2015-07-14T12:54:46.000Z</time>
      </trkpt>
      <trkpt lat="46.81758" lon="4.84047">
        <ele>258.25</ele>
        <time>2015-07-14T12:54:48.000Z</time>
      </trkpt>
      <trkpt lat="46.81765" lon="4.84058">
        <ele>258.25</ele>
        <time>2015-07-14T12:54:50.000Z</time>
      </trkpt>
      <trkpt lat="46.81771" lon="4.8407">
        <ele>258.25</ele>
        <time>2015-07-14T12:54:52.000Z</time>
      </trkpt>
      <trkpt lat="46.81777" lon="4.84084">
        <ele>258.25</ele>
        <time>2015-07-14T12:54:54.000Z</time>
      </trkpt>
      <trkpt lat="46.81784" lon="4.84097">
        <ele>258.25</ele>
        <time>2015-07-14T12:54:56.000Z</time>
      </trkpt>
      <trkpt lat="46.81791" lon="4.84111">
        <ele>257.77</ele>
        <time>2015-07-14T12:54:58.000Z</time>
      </trkpt>
      <trkpt lat="46.81798" lon="4.84126">
        <ele>258.25</ele>
        <time>2015-07-14T12:55:00.000Z</time>
      </trkpt>
      <trkpt lat="46.81805" lon="4.84142">
        <ele>257.29</ele>
        <time>2015-07-14T12:55:02.000Z</time>
      </trkpt>
      <trkpt lat="46.81812" lon="4.84156">
        <ele>257.77</ele>
        <time>2015-07-14T12:55:04.000Z</time>
      </trkpt>
      <trkpt lat="46.81819" lon="4.84169">
        <ele>257.77</ele>
        <time>2015-07-14T12:55:06.000Z</time>
      </trkpt>
      <trkpt lat="46.81826" lon="4.84183">
        <ele>258.25</ele>
        <time>2015-07-14T12:55:08.000Z</time>
      </trkpt>
      <trkpt lat="46.81834" lon="4.84196">
        <ele>258.25</ele>
        <time>2015-07-14T12:55:10.000Z</time>
      </trkpt>
      <trkpt lat="46.81842" lon="4.84208">
        <ele>258.25</ele>
        <time>2015-07-14T12:55:12.000Z</time>
      </trkpt>
      <trkpt lat="46.8185" lon="4.8422">
        <ele>257.77</ele>
        <time>2015-07-14T12:55:14.000Z</time>
      </trkpt>
      <trkpt lat="46.8186" lon="4.8423">
        <ele>257.77</ele>
        <time>2015-07-14T12:55:16.000Z</time>
      </trkpt>
      <trkpt lat="46.81869" lon="4.84239">
        <ele>258.25</ele>
        <time>2015-07-14T12:55:18.000Z</time>
      </trkpt>
      <trkpt lat="46.81878" lon="4.84247">
        <ele>258.25</ele>
        <time>2015-07-14T12:55:20.000Z</time>
      </trkpt>
      <trkpt lat="46.81887" lon="4.84254">
        <ele>258.25</ele>
        <time>2015-07-14T12:55:22.000Z</time>
      </trkpt>
      <trkpt lat="46.81897" lon="4.8426">
        <ele>257.77</ele>
        <time>2015-07-14T12:55:24.000Z</time>
      </trkpt>
      <trkpt lat="46.81908" lon="4.84266">
        <ele>258.25</ele>
        <time>2015-07-14T12:55:26.000Z</time>
      </trkpt>
      <trkpt lat="46.81919" lon="4.84271">
        <ele>257.77</ele>
        <time>2015-07-14T12:55:28.000Z</time>
      </trkpt>
      <trkpt lat="46.8193" lon="4.84276">
        <ele>257.77</ele>
        <time>2015-07-14T12:55:30.000Z</time>
      </trkpt>
      <trkpt lat="46.8194" lon="4.8428">
        <ele>257.77</ele>
        <time>2015-07-14T12:55:32.000Z</time>
      </trkpt>
      <trkpt lat="46.81952" lon="4.84284">
        <ele>257.77</ele>
        <time>2015-07-14T12:55:34.000Z</time>
      </trkpt>
      <trkpt lat="46.81963" lon="4.84288">
        <ele>257.77</ele>
        <time>2015-07-14T12:55:36.000Z</time>
      </trkpt>
      <trkpt lat="46.81974" lon="4.84292">
        <ele>258.25</ele>
        <time>2015-07-14T12:55:38.000Z</time>
      </trkpt>
      <trkpt lat="46.81986" lon="4.84296">
        <ele>258.25</ele>
        <time>2015-07-14T12:55:40.000Z</time>
      </trkpt>
      <trkpt lat="46.81997" lon="4.843">
        <ele>258.25</ele>
        <time>2015-07-14T12:55:42.000Z</time>
      </trkpt>
      <trkpt lat="46.82008" lon="4.84304">
        <ele>258.25</ele>
        <time>2015-07-14T12:55:44.000Z</time>
      </trkpt>
      <trkpt lat="46.82019" lon="4.84306">
        <ele>258.25</ele>
        <time>2015-07-14T12:55:46.000Z</time>
      </trkpt>
      <trkpt lat="46.82031" lon="4.8431">
        <ele>258.25</ele>
        <time>2015-07-14T12:55:48.000Z</time>
      </trkpt>
      <trkpt lat="46.82043" lon="4.84314">
        <ele>257.77</ele>
        <time>2015-07-14T12:55:50.000Z</time>
      </trkpt>
      <trkpt lat="46.82053" lon="4.84317">
        <ele>258.73</ele>
        <time>2015-07-14T12:55:52.000Z</time>
      </trkpt>
      <trkpt lat="46.82063" lon="4.8432">
        <ele>258.25</ele>
        <time>2015-07-14T12:55:54.000Z</time>
      </trkpt>
      <trkpt lat="46.82075" lon="4.84325">
        <ele>258.25</ele>
        <time>2015-07-14T12:55:56.000Z</time>
      </trkpt>
      <trkpt lat="46.82085" lon="4.84332">
        <ele>258.25</ele>
        <time>2015-07-14T12:55:58.000Z</time>
      </trkpt>
      <trkpt lat="46.82096" lon="4.8434">
        <ele>257.77</ele>
        <time>2015-07-14T12:56:00.000Z</time>
      </trkpt>
      <trkpt lat="46.82105" lon="4.84351">
        <ele>257.77</ele>
        <time>2015-07-14T12:56:02.000Z</time>
      </trkpt>
      <trkpt lat="46.82113" lon="4.84363">
        <ele>258.25</ele>
        <time>2015-07-14T12:56:04.000Z</time>
      </trkpt>
      <trkpt lat="46.82119" lon="4.84377">
        <ele>258.25</ele>
        <time>2015-07-14T12:56:06.000Z</time>
      </trkpt>
      <trkpt lat="46.82125" lon="4.84393">
        <ele>258.25</ele>
        <time>2015-07-14T12:56:08.000Z</time>
      </trkpt>
      <trkpt lat="46.8213" lon="4.84409">
        <ele>258.73</ele>
        <time>2015-07-14T12:56:10.000Z</time>
      </trkpt>
      <trkpt lat="46.82134" lon="4.84426">
        <ele>257.77</ele>
        <time>2015-07-14T12:56:12.000Z</time>
      </trkpt>
      <trkpt lat="46.82138" lon="4.84444">
        <ele>257.77</ele>
        <time>2015-07-14T12:56:14.000Z</time>
      </trkpt>
      <trkpt lat="46.82141" lon="4.84462">
        <ele>257.77</ele>
        <time>2015-07-14T12:56:16.000Z</time>
      </trkpt>
      <trkpt lat="46.82142" lon="4.8448">
        <ele>257.77</ele>
        <time>2015-07-14T12:56:18.000Z</time>
      </trkpt>
      <trkpt lat="46.82141" lon="4.84496">
        <ele>257.77</ele>
        <time>2015-07-14T12:56:20.000Z</time>
      </trkpt>
      <trkpt lat="46.82139" lon="4.84513">
        <ele>257.77</ele>
        <time>2015-07-14T12:56:22.000Z</time>
      </trkpt>
      <trkpt lat="46.82136" lon="4.84529">
        <ele>257.77</ele>
        <time>2015-07-14T12:56:24.000Z</time>
      </trkpt>
      <trkpt lat="46.82132" lon="4.84547">
        <ele>258.25</ele>
        <time>2015-07-14T12:56:26.000Z</time>
      </trkpt>
      <trkpt lat="46.8213" lon="4.84564">
        <ele>257.77</ele>
        <time>2015-07-14T12:56:28.000Z</time>
      </trkpt>
      <trkpt lat="46.82129" lon="4.84582">
        <ele>257.29</ele>
        <time>2015-07-14T12:56:30.000Z</time>
      </trkpt>
      <trkpt lat="46.82132" lon="4.846">
        <ele>257.77</ele>
        <time>2015-07-14T12:56:32.000Z</time>
      </trkpt>
      <trkpt lat="46.82139" lon="4.84617">
        <ele>257.77</ele>
        <time>2015-07-14T12:56:34.000Z</time>
      </trkpt>
      <trkpt lat="46.82149" lon="4.84629">
        <ele>258.73</ele>
        <time>2015-07-14T12:56:36.000Z</time>
      </trkpt>
      <trkpt lat="46.82161" lon="4.84636">
        <ele>258.25</ele>
        <time>2015-07-14T12:56:38.000Z</time>
      </trkpt>
      <trkpt lat="46.82175" lon="4.8464">
        <ele>258.25</ele>
        <time>2015-07-14T12:56:40.000Z</time>
      </trkpt>
      <trkpt lat="46.82188" lon="4.84642">
        <ele>257.77</ele>
        <time>2015-07-14T12:56:42.000Z</time>
      </trkpt>
      <trkpt lat="46.82202" lon="4.84644">
        <ele>257.77</ele>
        <time>2015-07-14T12:56:44.000Z</time>
      </trkpt>
      <trkpt lat="46.82215" lon="4.84646">
        <ele>257.29</ele>
        <time>2015-07-14T12:56:46.000Z</time>
      </trkpt>
      <trkpt lat="46.82228" lon="4.84648">
        <ele>257.29</ele>
        <time>2015-07-14T12:56:48.000Z</time>
      </trkpt>
      <trkpt lat="46.8224" lon="4.84649">
        <ele>257.77</ele>
        <time>2015-07-14T12:56:50.000Z</time>
      </trkpt>
      <trkpt lat="46.82251" lon="4.8465">
        <ele>257.77</ele>
        <time>2015-07-14T12:56:52.000Z</time>
      </trkpt>
      <trkpt lat="46.82262" lon="4.84652">
        <ele>257.77</ele>
        <time>2015-07-14T12:56:54.000Z</time>
      </trkpt>
      <trkpt lat="46.82273" lon="4.84654">
        <ele>257.29</ele>
        <time>2015-07-14T12:56:56.000Z</time>
      </trkpt>
      <trkpt lat="46.82283" lon="4.84655">
        <ele>257.29</ele>
        <time>2015-07-14T12:56:58.000Z</time>
      </trkpt>
      <trkpt lat="46.82294" lon="4.84655">
        <ele>258.25</ele>
        <time>2015-07-14T12:57:00.000Z</time>
      </trkpt>
      <trkpt lat="46.82305" lon="4.84655">
        <ele>258.25</ele>
        <time>2015-07-14T12:57:02.000Z</time>
      </trkpt>
      <trkpt lat="46.82316" lon="4.84654">
        <ele>258.25</ele>
        <time>2015-07-14T12:57:04.000Z</time>
      </trkpt>
      <trkpt lat="46.82328" lon="4.84653">
        <ele>258.25</ele>
        <time>2015-07-14T12:57:06.000Z</time>
      </trkpt>
      <trkpt lat="46.82338" lon="4.84652">
        <ele>258.25</ele>
        <time>2015-07-14T12:57:08.000Z</time>
      </trkpt>
      <trkpt lat="46.82349" lon="4.84651">
        <ele>258.25</ele>
        <time>2015-07-14T12:57:10.000Z</time>
      </trkpt>
      <trkpt lat="46.8236" lon="4.8465">
        <ele>258.25</ele>
        <time>2015-07-14T12:57:12.000Z</time>
      </trkpt>
      <trkpt lat="46.82371" lon="4.84649">
        <ele>258.25</ele>
        <time>2015-07-14T12:57:14.000Z</time>
      </trkpt>
      <trkpt lat="46.82382" lon="4.84648">
        <ele>258.25</ele>
        <time>2015-07-14T12:57:16.000Z</time>
      </trkpt>
      <trkpt lat="46.82393" lon="4.84647">
        <ele>258.25</ele>
        <time>2015-07-14T12:57:18.000Z</time>
      </trkpt>
      <trkpt lat="46.82404" lon="4.84645">
        <ele>258.25</ele>
        <time>2015-07-14T12:57:20.000Z</time>
      </trkpt>
      <trkpt lat="46.82416" lon="4.84645">
        <ele>258.25</ele>
        <time>2015-07-14T12:57:22.000Z</time>
      </trkpt>
      <trkpt lat="46.82428" lon="4.84644">
        <ele>258.25</ele>
        <time>2015-07-14T12:57:24.000Z</time>
      </trkpt>
      <trkpt lat="46.82439" lon="4.84645">
        <ele>258.25</ele>
        <time>2015-07-14T12:57:26.000Z</time>
      </trkpt>
      <trkpt lat="46.8245" lon="4.84651">
        <ele>258.25</ele>
        <time>2015-07-14T12:57:28.000Z</time>
      </trkpt>
      <trkpt lat="46.8246" lon="4.8466">
        <ele>258.25</ele>
        <time>2015-07-14T12:57:30.000Z</time>
      </trkpt>
      <trkpt lat="46.82468" lon="4.84672">
        <ele>258.25</ele>
        <time>2015-07-14T12:57:32.000Z</time>
      </trkpt>
      <trkpt lat="46.82474" lon="4.84687">
        <ele>258.25</ele>
        <time>2015-07-14T12:57:34.000Z</time>
      </trkpt>
      <trkpt lat="46.82478" lon="4.84702">
        <ele>258.73</ele>
        <time>2015-07-14T12:57:36.000Z</time>
      </trkpt>
      <trkpt lat="46.82481" lon="4.84719">
        <ele>257.77</ele>
        <time>2015-07-14T12:57:38.000Z</time>
      </trkpt>
      <trkpt lat="46.82484" lon="4.84736">
        <ele>257.77</ele>
        <time>2015-07-14T12:57:40.000Z</time>
      </trkpt>
      <trkpt lat="46.82487" lon="4.84754">
        <ele>257.77</ele>
        <time>2015-07-14T12:57:42.000Z</time>
      </trkpt>
      <trkpt lat="46.8249" lon="4.84771">
        <ele>257.77</ele>
        <time>2015-07-14T12:57:44.000Z</time>
      </trkpt>
      <trkpt lat="46.82493" lon="4.84789">
        <ele>257.77</ele>
        <time>2015-07-14T12:57:46.000Z</time>
      </trkpt>
      <trkpt lat="46.82496" lon="4.84806">
        <ele>258.25</ele>
        <time>2015-07-14T12:57:48.000Z</time>
      </trkpt>
      <trkpt lat="46.825" lon="4.84823">
        <ele>257.77</ele>
        <time>2015-07-14T12:57:50.000Z</time>
      </trkpt>
      <trkpt lat="46.82503" lon="4.84841">
        <ele>258.73</ele>
        <time>2015-07-14T12:57:52.000Z</time>
      </trkpt>
      <trkpt lat="46.82506" lon="4.84858">
        <ele>258.73</ele>
        <time>2015-07-14T12:57:54.000Z</time>
      </trkpt>
      <trkpt lat="46.82508" lon="4.84875">
        <ele>257.77</ele>
        <time>2015-07-14T12:57:56.000Z</time>
      </trkpt>
      <trkpt lat="46.8251" lon="4.84893">
        <ele>258.73</ele>
        <time>2015-07-14T12:57:58.000Z</time>
      </trkpt>
      <trkpt lat="46.82511" lon="4.8491">
        <ele>258.25</ele>
        <time>2015-07-14T12:58:00.000Z</time>
      </trkpt>
      <trkpt lat="46.82512" lon="4.84928">
        <ele>258.25</ele>
        <time>2015-07-14T12:58:02.000Z</time>
      </trkpt>
      <trkpt lat="46.82515" lon="4.84944">
        <ele>257.77</ele>
        <time>2015-07-14T12:58:04.000Z</time>
      </trkpt>
      <trkpt lat="46.8252" lon="4.84959">
        <ele>257.77</ele>
        <time>2015-07-14T12:58:06.000Z</time>
      </trkpt>
      <trkpt lat="46.82528" lon="4.84971">
        <ele>258.25</ele>
        <time>2015-07-14T12:58:08.000Z</time>
      </trkpt>
      <trkpt lat="46.82537" lon="4.84981">
        <ele>258.25</ele>
        <time>2015-07-14T12:58:10.000Z</time>
      </trkpt>
      <trkpt lat="46.82548" lon="4.84988">
        <ele>258.25</ele>
        <time>2015-07-14T12:58:12.000Z</time>
      </trkpt>
      <trkpt lat="46.82558" lon="4.84993">
        <ele>257.77</ele>
        <time>2015-07-14T12:58:14.000Z</time>
      </trkpt>
      <trkpt lat="46.82568" lon="4.84998">
        <ele>257.77</ele>
        <time>2015-07-14T12:58:16.000Z</time>
      </trkpt>
      <trkpt lat="46.82578" lon="4.85003">
        <ele>257.29</ele>
        <time>2015-07-14T12:58:18.000Z</time>
      </trkpt>
      <trkpt lat="46.82587" lon="4.85009">
        <ele>257.29</ele>
        <time>2015-07-14T12:58:20.000Z</time>
      </trkpt>
      <trkpt lat="46.82597" lon="4.85017">
        <ele>256.81</ele>
        <time>2015-07-14T12:58:22.000Z</time>
      </trkpt>
      <trkpt lat="46.82606" lon="4.85024">
        <ele>257.29</ele>
        <time>2015-07-14T12:58:24.000Z</time>
      </trkpt>
      <trkpt lat="46.82615" lon="4.85032">
        <ele>257.29</ele>
        <time>2015-07-14T12:58:26.000Z</time>
      </trkpt>
      <trkpt lat="46.82625" lon="4.8504">
        <ele>258.25</ele>
        <time>2015-07-14T12:58:28.000Z</time>
      </trkpt>
      <trkpt lat="46.82635" lon="4.85047">
        <ele>258.25</ele>
        <time>2015-07-14T12:58:30.000Z</time>
      </trkpt>
      <trkpt lat="46.82645" lon="4.85053">
        <ele>258.25</ele>
        <time>2015-07-14T12:58:32.000Z</time>
      </trkpt>
      <trkpt lat="46.82656" lon="4.85057">
        <ele>258.25</ele>
        <time>2015-07-14T12:58:34.000Z</time>
      </trkpt>
      <trkpt lat="46.82667" lon="4.85059">
        <ele>258.25</ele>
        <time>2015-07-14T12:58:36.000Z</time>
      </trkpt>
      <trkpt lat="46.82678" lon="4.85058">
        <ele>258.25</ele>
        <time>2015-07-14T12:58:38.000Z</time>
      </trkpt>
      <trkpt lat="46.82689" lon="4.85055">
        <ele>258.25</ele>
        <time>2015-07-14T12:58:40.000Z</time>
      </trkpt>
      <trkpt lat="46.827" lon="4.85053">
        <ele>258.25</ele>
        <time>2015-07-14T12:58:42.000Z</time>
      </trkpt>
      <trkpt lat="46.82711" lon="4.8505">
        <ele>258.73</ele>
        <time>2015-07-14T12:58:44.000Z</time>
      </trkpt>
      <trkpt lat="46.82721" lon="4.85047">
        <ele>258.73</ele>
        <time>2015-07-14T12:58:46.000Z</time>
      </trkpt>
      <trkpt lat="46.82732" lon="4.85043">
        <ele>258.25</ele>
        <time>2015-07-14T12:58:48.000Z</time>
      </trkpt>
      <trkpt lat="46.82743" lon="4.85041">
        <ele>258.25</ele>
        <time>2015-07-14T12:58:50.000Z</time>
      </trkpt>
      <trkpt lat="46.82754" lon="4.85038">
        <ele>257.77</ele>
        <time>2015-07-14T12:58:52.000Z</time>
      </trkpt>
      <trkpt lat="46.82766" lon="4.85035">
        <ele>257.77</ele>
        <time>2015-07-14T12:58:54.000Z</time>
      </trkpt>
      <trkpt lat="46.82778" lon="4.85032">
        <ele>258.25</ele>
        <time>2015-07-14T12:58:56.000Z</time>
      </trkpt>
      <trkpt lat="46.8279" lon="4.85028">
        <ele>257.29</ele>
        <time>2015-07-14T12:58:58.000Z</time>
      </trkpt>
      <trkpt lat="46.82802" lon="4.85025">
        <ele>256.33</ele>
        <time>2015-07-14T12:59:00.000Z</time>
      </trkpt>
      <trkpt lat="46.82814" lon="4.85022">
        <ele>256.81</ele>
        <time>2015-07-14T12:59:02.000Z</time>
      </trkpt>
      <trkpt lat="46.82826" lon="4.85019">
        <ele>256.81</ele>
        <time>2015-07-14T12:59:04.000Z</time>
      </trkpt>
      <trkpt lat="46.82837" lon="4.85016">
        <ele>256.81</ele>
        <time>2015-07-14T12:59:06.000Z</time>
      </trkpt>
      <trkpt lat="46.82848" lon="4.85012">
        <ele>256.81</ele>
        <time>2015-07-14T12:59:08.000Z</time>
      </trkpt>
      <trkpt lat="46.82859" lon="4.85009">
        <ele>257.29</ele>
        <time>2015-07-14T12:59:10.000Z</time>
      </trkpt>
      <trkpt lat="46.8287" lon="4.85005">
        <ele>257.77</ele>
        <time>2015-07-14T12:59:12.000Z</time>
      </trkpt>
      <trkpt lat="46.82882" lon="4.85001">
        <ele>258.25</ele>
        <time>2015-07-14T12:59:14.000Z</time>
      </trkpt>
      <trkpt lat="46.82893" lon="4.84997">
        <ele>257.77</ele>
        <time>2015-07-14T12:59:16.000Z</time>
      </trkpt>
      <trkpt lat="46.82904" lon="4.84991">
        <ele>258.25</ele>
        <time>2015-07-14T12:59:18.000Z</time>
      </trkpt>
      <trkpt lat="46.82914" lon="4.84984">
        <ele>257.77</ele>
        <time>2015-07-14T12:59:20.000Z</time>
      </trkpt>
      <trkpt lat="46.82926" lon="4.84977">
        <ele>258.25</ele>
        <time>2015-07-14T12:59:22.000Z</time>
      </trkpt>
      <trkpt lat="46.82936" lon="4.84969">
        <ele>258.25</ele>
        <time>2015-07-14T12:59:24.000Z</time>
      </trkpt>
      <trkpt lat="46.82947" lon="4.84961">
        <ele>258.73</ele>
        <time>2015-07-14T12:59:26.000Z</time>
      </trkpt>
      <trkpt lat="46.82957" lon="4.84953">
        <ele>258.25</ele>
        <time>2015-07-14T12:59:28.000Z</time>
      </trkpt>
      <trkpt lat="46.82969" lon="4.84945">
        <ele>257.77</ele>
        <time>2015-07-14T12:59:30.000Z</time>
      </trkpt>
      <trkpt lat="46.8298" lon="4.84937">
        <ele>258.25</ele>
        <time>2015-07-14T12:59:32.000Z</time>
      </trkpt>
      <trkpt lat="46.82991" lon="4.84929">
        <ele>257.77</ele>
        <time>2015-07-14T12:59:34.000Z</time>
      </trkpt>
      <trkpt lat="46.83001" lon="4.84921">
        <ele>258.25</ele>
        <time>2015-07-14T12:59:36.000Z</time>
      </trkpt>
      <trkpt lat="46.83012" lon="4.84913">
        <ele>258.25</ele>
        <time>2015-07-14T12:59:38.000Z</time>
      </trkpt>
      <trkpt lat="46.83023" lon="4.84905">
        <ele>258.25</ele>
        <time>2015-07-14T12:59:40.000Z</time>
      </trkpt>
      <trkpt lat="46.83034" lon="4.84897">
        <ele>258.73</ele>
        <time>2015-07-14T12:59:42.000Z</time>
      </trkpt>
      <trkpt lat="46.83046" lon="4.84889">
        <ele>258.25</ele>
        <time>2015-07-14T12:59:44.000Z</time>
      </trkpt>
      <trkpt lat="46.83056" lon="4.84881">
        <ele>258.25</ele>
        <time>2015-07-14T12:59:46.000Z</time>
      </trkpt>
      <trkpt lat="46.83067" lon="4.84873">
        <ele>258.25</ele>
        <time>2015-07-14T12:59:48.000Z</time>
      </trkpt>
      <trkpt lat="46.83078" lon="4.84865">
        <ele>258.73</ele>
        <time>2015-07-14T12:59:50.000Z</time>
      </trkpt>
      <trkpt lat="46.83089" lon="4.84857">
        <ele>258.25</ele>
        <time>2015-07-14T12:59:52.000Z</time>
      </trkpt>
      <trkpt lat="46.83099" lon="4.84849">
        <ele>258.25</ele>
        <time>2015-07-14T12:59:54.000Z</time>
      </trkpt>
      <trkpt lat="46.8311" lon="4.84841">
        <ele>258.73</ele>
        <time>2015-07-14T12:59:56.000Z</time>
      </trkpt>
      <trkpt lat="46.8312" lon="4.84833">
        <ele>258.73</ele>
        <time>2015-07-14T12:59:58.000Z</time>
      </trkpt>
      <trkpt lat="46.83131" lon="4.84825">
        <ele>258.25</ele>
        <time>2015-07-14T13:00:00.000Z</time>
      </trkpt>
      <trkpt lat="46.83142" lon="4.84817">
        <ele>258.73</ele>
        <time>2015-07-14T13:00:02.000Z</time>
      </trkpt>
      <trkpt lat="46.83152" lon="4.84809">
        <ele>259.21</ele>
        <time>2015-07-14T13:00:04.000Z</time>
      </trkpt>
      <trkpt lat="46.83162" lon="4.84801">
        <ele>258.73</ele>
        <time>2015-07-14T13:00:06.000Z</time>
      </trkpt>
      <trkpt lat="46.83173" lon="4.84793">
        <ele>258.73</ele>
        <time>2015-07-14T13:00:08.000Z</time>
      </trkpt>
      <trkpt lat="46.83184" lon="4.84785">
        <ele>258.25</ele>
        <time>2015-07-14T13:00:10.000Z</time>
      </trkpt>
      <trkpt lat="46.83196" lon="4.84777">
        <ele>258.73</ele>
        <time>2015-07-14T13:00:12.000Z</time>
      </trkpt>
      <trkpt lat="46.83207" lon="4.84768">
        <ele>258.73</ele>
        <time>2015-07-14T13:00:14.000Z</time>
      </trkpt>
      <trkpt lat="46.83217" lon="4.84759">
        <ele>258.73</ele>
        <time>2015-07-14T13:00:16.000Z</time>
      </trkpt>
      <trkpt lat="46.83226" lon="4.84749">
        <ele>258.73</ele>
        <time>2015-07-14T13:00:18.000Z</time>
      </trkpt>
      <trkpt lat="46.83236" lon="4.84738">
        <ele>258.73</ele>
        <time>2015-07-14T13:00:20.000Z</time>
      </trkpt>
      <trkpt lat="46.83246" lon="4.84725">
        <ele>259.21</ele>
        <time>2015-07-14T13:00:22.000Z</time>
      </trkpt>
      <trkpt lat="46.83254" lon="4.84711">
        <ele>259.21</ele>
        <time>2015-07-14T13:00:24.000Z</time>
      </trkpt>
      <trkpt lat="46.83262" lon="4.84696">
        <ele>259.21</ele>
        <time>2015-07-14T13:00:26.000Z</time>
      </trkpt>
      <trkpt lat="46.83269" lon="4.84682">
        <ele>258.73</ele>
        <time>2015-07-14T13:00:28.000Z</time>
      </trkpt>
      <trkpt lat="46.83276" lon="4.84665">
        <ele>258.73</ele>
        <time>2015-07-14T13:00:30.000Z</time>
      </trkpt>
      <trkpt lat="46.83282" lon="4.84649">
        <ele>258.73</ele>
        <time>2015-07-14T13:00:32.000Z</time>
      </trkpt>
      <trkpt lat="46.83287" lon="4.84632">
        <ele>259.21</ele>
        <time>2015-07-14T13:00:34.000Z</time>
      </trkpt>
      <trkpt lat="46.83291" lon="4.84614">
        <ele>258.25</ele>
        <time>2015-07-14T13:00:36.000Z</time>
      </trkpt>
      <trkpt lat="46.83294" lon="4.84596">
        <ele>258.73</ele>
        <time>2015-07-14T13:00:38.000Z</time>
      </trkpt>
      <trkpt lat="46.83297" lon="4.84579">
        <ele>258.25</ele>
        <time>2015-07-14T13:00:40.000Z</time>
      </trkpt>
      <trkpt lat="46.83299" lon="4.84561">
        <ele>258.25</ele>
        <time>2015-07-14T13:00:42.000Z</time>
      </trkpt>
      <trkpt lat="46.83301" lon="4.84544">
        <ele>258.73</ele>
        <time>2015-07-14T13:00:44.000Z</time>
      </trkpt>
      <trkpt lat="46.83302" lon="4.84527">
        <ele>258.25</ele>
        <time>2015-07-14T13:00:46.000Z</time>
      </trkpt>
      <trkpt lat="46.83303" lon="4.84509">
        <ele>258.25</ele>
        <time>2015-07-14T13:00:48.000Z</time>
      </trkpt>
      <trkpt lat="46.83304" lon="4.84491">
        <ele>258.25</ele>
        <time>2015-07-14T13:00:50.000Z</time>
      </trkpt>
      <trkpt lat="46.83306" lon="4.84474">
        <ele>258.25</ele>
        <time>2015-07-14T13:00:52.000Z</time>
      </trkpt>
      <trkpt lat="46.83308" lon="4.84456">
        <ele>259.21</ele>
        <time>2015-07-14T13:00:54.000Z</time>
      </trkpt>
      <trkpt lat="46.83311" lon="4.84439">
        <ele>258.73</ele>
        <time>2015-07-14T13:00:56.000Z</time>
      </trkpt>
      <trkpt lat="46.83313" lon="4.84422">
        <ele>258.73</ele>
        <time>2015-07-14T13:00:58.000Z</time>
      </trkpt>
      <trkpt lat="46.83316" lon="4.84405">
        <ele>259.21</ele>
        <time>2015-07-14T13:01:00.000Z</time>
      </trkpt>
      <trkpt lat="46.83318" lon="4.84389">
        <ele>259.21</ele>
        <time>2015-07-14T13:01:02.000Z</time>
      </trkpt>
      <trkpt lat="46.83321" lon="4.84372">
        <ele>259.21</ele>
        <time>2015-07-14T13:01:04.000Z</time>
      </trkpt>
      <trkpt lat="46.83324" lon="4.84355">
        <ele>258.73</ele>
        <time>2015-07-14T13:01:06.000Z</time>
      </trkpt>
      <trkpt lat="46.83328" lon="4.84338">
        <ele>258.73</ele>
        <time>2015-07-14T13:01:08.000Z</time>
      </trkpt>
      <trkpt lat="46.83332" lon="4.84321">
        <ele>259.21</ele>
        <time>2015-07-14T13:01:10.000Z</time>
      </trkpt>
      <trkpt lat="46.83335" lon="4.84304">
        <ele>259.21</ele>
        <time>2015-07-14T13:01:12.000Z</time>
      </trkpt>
      <trkpt lat="46.83339" lon="4.84288">
        <ele>258.25</ele>
        <time>2015-07-14T13:01:14.000Z</time>
      </trkpt>
      <trkpt lat="46.83342" lon="4.84271">
        <ele>258.73</ele>
        <time>2015-07-14T13:01:16.000Z</time>
      </trkpt>
      <trkpt lat="46.83346" lon="4.84254">
        <ele>259.21</ele>
        <time>2015-07-14T13:01:18.000Z</time>
      </trkpt>
      <trkpt lat="46.83349" lon="4.84237">
        <ele>259.21</ele>
        <time>2015-07-14T13:01:20.000Z</time>
      </trkpt>
      <trkpt lat="46.83352" lon="4.8422">
        <ele>259.69</ele>
        <time>2015-07-14T13:01:22.000Z</time>
      </trkpt>
      <trkpt lat="46.83352" lon="4.84203">
        <ele>259.21</ele>
        <time>2015-07-14T13:01:24.000Z</time>
      </trkpt>
      <trkpt lat="46.83351" lon="4.84185">
        <ele>259.21</ele>
        <time>2015-07-14T13:01:26.000Z</time>
      </trkpt>
      <trkpt lat="46.8335" lon="4.84168">
        <ele>259.21</ele>
        <time>2015-07-14T13:01:28.000Z</time>
      </trkpt>
      <trkpt lat="46.83348" lon="4.84151">
        <ele>259.69</ele>
        <time>2015-07-14T13:01:30.000Z</time>
      </trkpt>
      <trkpt lat="46.83347" lon="4.84133">
        <ele>259.21</ele>
        <time>2015-07-14T13:01:32.000Z</time>
      </trkpt>
      <trkpt lat="46.83345" lon="4.84115">
        <ele>259.21</ele>
        <time>2015-07-14T13:01:34.000Z</time>
      </trkpt>
      <trkpt lat="46.83344" lon="4.84098">
        <ele>258.25</ele>
        <time>2015-07-14T13:01:36.000Z</time>
      </trkpt>
      <trkpt lat="46.83343" lon="4.8408">
        <ele>258.25</ele>
        <time>2015-07-14T13:01:38.000Z</time>
      </trkpt>
      <trkpt lat="46.83342" lon="4.84062">
        <ele>258.25</ele>
        <time>2015-07-14T13:01:40.000Z</time>
      </trkpt>
      <trkpt lat="46.83342" lon="4.84043">
        <ele>258.73</ele>
        <time>2015-07-14T13:01:42.000Z</time>
      </trkpt>
      <trkpt lat="46.83343" lon="4.84025">
        <ele>258.25</ele>
        <time>2015-07-14T13:01:44.000Z</time>
      </trkpt>
      <trkpt lat="46.83344" lon="4.84007">
        <ele>258.25</ele>
        <time>2015-07-14T13:01:46.000Z</time>
      </trkpt>
      <trkpt lat="46.83345" lon="4.83989">
        <ele>258.25</ele>
        <time>2015-07-14T13:01:48.000Z</time>
      </trkpt>
      <trkpt lat="46.83347" lon="4.83972">
        <ele>259.21</ele>
        <time>2015-07-14T13:01:50.000Z</time>
      </trkpt>
      <trkpt lat="46.83348" lon="4.83954">
        <ele>259.21</ele>
        <time>2015-07-14T13:01:52.000Z</time>
      </trkpt>
      <trkpt lat="46.83349" lon="4.83937">
        <ele>259.69</ele>
        <time>2015-07-14T13:01:54.000Z</time>
      </trkpt>
      <trkpt lat="46.83351" lon="4.83921">
        <ele>259.69</ele>
        <time>2015-07-14T13:01:56.000Z</time>
      </trkpt>
      <trkpt lat="46.83353" lon="4.83905">
        <ele>259.69</ele>
        <time>2015-07-14T13:01:58.000Z</time>
      </trkpt>
      <trkpt lat="46.83356" lon="4.8389">
        <ele>259.69</ele>
        <time>2015-07-14T13:02:00.000Z</time>
      </trkpt>
      <trkpt lat="46.83359" lon="4.83876">
        <ele>260.17</ele>
        <time>2015-07-14T13:02:02.000Z</time>
      </trkpt>
      <trkpt lat="46.83363" lon="4.83858">
        <ele>260.65</ele>
        <time>2015-07-14T13:02:05.000Z</time>
      </trkpt>
      <trkpt lat="46.83365" lon="4.83844">
        <ele>261.62</ele>
        <time>2015-07-14T13:02:08.000Z</time>
      </trkpt>
      <trkpt lat="46.83368" lon="4.8383">
        <ele>261.62</ele>
        <time>2015-07-14T13:02:12.000Z</time>
      </trkpt>
      <trkpt lat="46.83371" lon="4.83817">
        <ele>261.14</ele>
        <time>2015-07-14T13:02:15.000Z</time>
      </trkpt>
      <trkpt lat="46.83374" lon="4.83802">
        <ele>260.65</ele>
        <time>2015-07-14T13:02:18.000Z</time>
      </trkpt>
      <trkpt lat="46.83377" lon="4.83787">
        <ele>260.65</ele>
        <time>2015-07-14T13:02:21.000Z</time>
      </trkpt>
      <trkpt lat="46.83379" lon="4.83772">
        <ele>261.14</ele>
        <time>2015-07-14T13:02:24.000Z</time>
      </trkpt>
      <trkpt lat="46.83382" lon="4.83755">
        <ele>261.62</ele>
        <time>2015-07-14T13:02:27.000Z</time>
      </trkpt>
      <trkpt lat="46.83385" lon="4.83737">
        <ele>261.62</ele>
        <time>2015-07-14T13:02:30.000Z</time>
      </trkpt>
      <trkpt lat="46.83388" lon="4.83723">
        <ele>261.62</ele>
        <time>2015-07-14T13:02:32.000Z</time>
      </trkpt>
      <trkpt lat="46.83389" lon="4.83709">
        <ele>261.14</ele>
        <time>2015-07-14T13:02:34.000Z</time>
      </trkpt>
      <trkpt lat="46.8339" lon="4.83695">
        <ele>261.62</ele>
        <time>2015-07-14T13:02:36.000Z</time>
      </trkpt>
      <trkpt lat="46.83391" lon="4.83681">
        <ele>261.62</ele>
        <time>2015-07-14T13:02:38.000Z</time>
      </trkpt>
      <trkpt lat="46.83391" lon="4.83666">
        <ele>261.62</ele>
        <time>2015-07-14T13:02:40.000Z</time>
      </trkpt>
      <trkpt lat="46.83391" lon="4.83651">
        <ele>261.62</ele>
        <time>2015-07-14T13:02:42.000Z</time>
      </trkpt>
      <trkpt lat="46.83391" lon="4.83636">
        <ele>261.14</ele>
        <time>2015-07-14T13:02:44.000Z</time>
      </trkpt>
      <trkpt lat="46.83391" lon="4.83621">
        <ele>261.14</ele>
        <time>2015-07-14T13:02:46.000Z</time>
      </trkpt>
      <trkpt lat="46.83392" lon="4.83606">
        <ele>261.14</ele>
        <time>2015-07-14T13:02:48.000Z</time>
      </trkpt>
      <trkpt lat="46.83392" lon="4.83592">
        <ele>261.14</ele>
        <time>2015-07-14T13:02:50.000Z</time>
      </trkpt>
      <trkpt lat="46.83394" lon="4.83578">
        <ele>261.14</ele>
        <time>2015-07-14T13:02:52.000Z</time>
      </trkpt>
      <trkpt lat="46.83397" lon="4.83563">
        <ele>261.14</ele>
        <time>2015-07-14T13:02:54.000Z</time>
      </trkpt>
      <trkpt lat="46.83401" lon="4.83549">
        <ele>261.14</ele>
        <time>2015-07-14T13:02:56.000Z</time>
      </trkpt>
      <trkpt lat="46.83406" lon="4.83535">
        <ele>261.14</ele>
        <time>2015-07-14T13:02:58.000Z</time>
      </trkpt>
      <trkpt lat="46.83412" lon="4.83521">
        <ele>261.62</ele>
        <time>2015-07-14T13:03:00.000Z</time>
      </trkpt>
      <trkpt lat="46.83418" lon="4.83507">
        <ele>262.58</ele>
        <time>2015-07-14T13:03:02.000Z</time>
      </trkpt>
      <trkpt lat="46.83423" lon="4.83492">
        <ele>260.65</ele>
        <time>2015-07-14T13:03:04.000Z</time>
      </trkpt>
      <trkpt lat="46.83429" lon="4.83478">
        <ele>260.65</ele>
        <time>2015-07-14T13:03:06.000Z</time>
      </trkpt>
      <trkpt lat="46.83434" lon="4.83463">
        <ele>260.65</ele>
        <time>2015-07-14T13:03:08.000Z</time>
      </trkpt>
      <trkpt lat="46.8344" lon="4.83448">
        <ele>260.17</ele>
        <time>2015-07-14T13:03:10.000Z</time>
      </trkpt>
      <trkpt lat="46.83444" lon="4.83432">
        <ele>260.17</ele>
        <time>2015-07-14T13:03:12.000Z</time>
      </trkpt>
      <trkpt lat="46.83449" lon="4.83417">
        <ele>259.69</ele>
        <time>2015-07-14T13:03:14.000Z</time>
      </trkpt>
      <trkpt lat="46.83454" lon="4.83402">
        <ele>260.17</ele>
        <time>2015-07-14T13:03:16.000Z</time>
      </trkpt>
      <trkpt lat="46.83458" lon="4.83387">
        <ele>260.65</ele>
        <time>2015-07-14T13:03:18.000Z</time>
      </trkpt>
      <trkpt lat="46.83463" lon="4.83371">
        <ele>260.65</ele>
        <time>2015-07-14T13:03:20.000Z</time>
      </trkpt>
      <trkpt lat="46.83467" lon="4.83357">
        <ele>261.14</ele>
        <time>2015-07-14T13:03:22.000Z</time>
      </trkpt>
      <trkpt lat="46.83472" lon="4.83343">
        <ele>261.14</ele>
        <time>2015-07-14T13:03:24.000Z</time>
      </trkpt>
      <trkpt lat="46.83475" lon="4.83329">
        <ele>261.14</ele>
        <time>2015-07-14T13:03:26.000Z</time>
      </trkpt>
      <trkpt lat="46.8348" lon="4.83314">
        <ele>261.62</ele>
        <time>2015-07-14T13:03:28.000Z</time>
      </trkpt>
      <trkpt lat="46.83484" lon="4.833">
        <ele>261.62</ele>
        <time>2015-07-14T13:03:30.000Z</time>
      </trkpt>
      <trkpt lat="46.83488" lon="4.83285">
        <ele>261.14</ele>
        <time>2015-07-14T13:03:32.000Z</time>
      </trkpt>
      <trkpt lat="46.83493" lon="4.83271">
        <ele>261.14</ele>
        <time>2015-07-14T13:03:34.000Z</time>
      </trkpt>
      <trkpt lat="46.83497" lon="4.83256">
        <ele>261.14</ele>
        <time>2015-07-14T13:03:36.000Z</time>
      </trkpt>
      <trkpt lat="46.83503" lon="4.83243">
        <ele>261.14</ele>
        <time>2015-07-14T13:03:38.000Z</time>
      </trkpt>
      <trkpt lat="46.8351" lon="4.8323">
        <ele>261.14</ele>
        <time>2015-07-14T13:03:40.000Z</time>
      </trkpt>
      <trkpt lat="46.83515" lon="4.83216">
        <ele>261.14</ele>
        <time>2015-07-14T13:03:42.000Z</time>
      </trkpt>
      <trkpt lat="46.8352" lon="4.83202">
        <ele>261.14</ele>
        <time>2015-07-14T13:03:44.000Z</time>
      </trkpt>
      <trkpt lat="46.83524" lon="4.83187">
        <ele>261.14</ele>
        <time>2015-07-14T13:03:46.000Z</time>
      </trkpt>
      <trkpt lat="46.83526" lon="4.83172">
        <ele>261.14</ele>
        <time>2015-07-14T13:03:48.000Z</time>
      </trkpt>
      <trkpt lat="46.83529" lon="4.83158">
        <ele>261.14</ele>
        <time>2015-07-14T13:03:50.000Z</time>
      </trkpt>
      <trkpt lat="46.83532" lon="4.83144">
        <ele>261.14</ele>
        <time>2015-07-14T13:03:52.000Z</time>
      </trkpt>
      <trkpt lat="46.83537" lon="4.8313">
        <ele>261.14</ele>
        <time>2015-07-14T13:03:54.000Z</time>
      </trkpt>
      <trkpt lat="46.83543" lon="4.83117">
        <ele>261.14</ele>
        <time>2015-07-14T13:03:56.000Z</time>
      </trkpt>
      <trkpt lat="46.83548" lon="4.83104">
        <ele>261.14</ele>
        <time>2015-07-14T13:03:58.000Z</time>
      </trkpt>
      <trkpt lat="46.83553" lon="4.8309">
        <ele>261.14</ele>
        <time>2015-07-14T13:04:00.000Z</time>
      </trkpt>
      <trkpt lat="46.83558" lon="4.83078">
        <ele>261.14</ele>
        <time>2015-07-14T13:04:02.000Z</time>
      </trkpt>
      <trkpt lat="46.83564" lon="4.83067">
        <ele>261.14</ele>
        <time>2015-07-14T13:04:04.000Z</time>
      </trkpt>
      <trkpt lat="46.83571" lon="4.83056">
        <ele>261.14</ele>
        <time>2015-07-14T13:04:06.000Z</time>
      </trkpt>
      <trkpt lat="46.83578" lon="4.83045">
        <ele>261.14</ele>
        <time>2015-07-14T13:04:08.000Z</time>
      </trkpt>
      <trkpt lat="46.83587" lon="4.83034">
        <ele>261.14</ele>
        <time>2015-07-14T13:04:10.000Z</time>
      </trkpt>
      <trkpt lat="46.83595" lon="4.83024">
        <ele>261.14</ele>
        <time>2015-07-14T13:04:12.000Z</time>
      </trkpt>
      <trkpt lat="46.83605" lon="4.83015">
        <ele>261.14</ele>
        <time>2015-07-14T13:04:14.000Z</time>
      </trkpt>
      <trkpt lat="46.83616" lon="4.83008">
        <ele>260.65</ele>
        <time>2015-07-14T13:04:16.000Z</time>
      </trkpt>
      <trkpt lat="46.83627" lon="4.83005">
        <ele>260.65</ele>
        <time>2015-07-14T13:04:18.000Z</time>
      </trkpt>
      <trkpt lat="46.83639" lon="4.83004">
        <ele>261.14</ele>
        <time>2015-07-14T13:04:20.000Z</time>
      </trkpt>
      <trkpt lat="46.83651" lon="4.83003">
        <ele>260.17</ele>
        <time>2015-07-14T13:04:22.000Z</time>
      </trkpt>
      <trkpt lat="46.83663" lon="4.83002">
        <ele>260.65</ele>
        <time>2015-07-14T13:04:24.000Z</time>
      </trkpt>
      <trkpt lat="46.83675" lon="4.83">
        <ele>260.17</ele>
        <time>2015-07-14T13:04:26.000Z</time>
      </trkpt>
      <trkpt lat="46.83687" lon="4.82998">
        <ele>259.69</ele>
        <time>2015-07-14T13:04:28.000Z</time>
      </trkpt>
      <trkpt lat="46.83699" lon="4.82996">
        <ele>260.17</ele>
        <time>2015-07-14T13:04:30.000Z</time>
      </trkpt>
      <trkpt lat="46.83712" lon="4.82993">
        <ele>260.17</ele>
        <time>2015-07-14T13:04:32.000Z</time>
      </trkpt>
      <trkpt lat="46.83723" lon="4.8299">
        <ele>260.17</ele>
        <time>2015-07-14T13:04:34.000Z</time>
      </trkpt>
      <trkpt lat="46.83735" lon="4.82985">
        <ele>259.69</ele>
        <time>2015-07-14T13:04:36.000Z</time>
      </trkpt>
      <trkpt lat="46.83746" lon="4.8298">
        <ele>259.69</ele>
        <time>2015-07-14T13:04:38.000Z</time>
      </trkpt>
      <trkpt lat="46.83757" lon="4.82974">
        <ele>260.17</ele>
        <time>2015-07-14T13:04:40.000Z</time>
      </trkpt>
      <trkpt lat="46.83767" lon="4.82967">
        <ele>259.69</ele>
        <time>2015-07-14T13:04:42.000Z</time>
      </trkpt>
      <trkpt lat="46.83778" lon="4.8296">
        <ele>260.65</ele>
        <time>2015-07-14T13:04:44.000Z</time>
      </trkpt>
      <trkpt lat="46.83789" lon="4.82952">
        <ele>260.65</ele>
        <time>2015-07-14T13:04:46.000Z</time>
      </trkpt>
      <trkpt lat="46.83799" lon="4.82943">
        <ele>261.14</ele>
        <time>2015-07-14T13:04:48.000Z</time>
      </trkpt>
      <trkpt lat="46.83808" lon="4.82933">
        <ele>261.14</ele>
        <time>2015-07-14T13:04:50.000Z</time>
      </trkpt>
      <trkpt lat="46.83817" lon="4.82922">
        <ele>261.14</ele>
        <time>2015-07-14T13:04:52.000Z</time>
      </trkpt>
      <trkpt lat="46.83826" lon="4.8291">
        <ele>260.65</ele>
        <time>2015-07-14T13:04:54.000Z</time>
      </trkpt>
      <trkpt lat="46.83834" lon="4.82898">
        <ele>260.65</ele>
        <time>2015-07-14T13:04:56.000Z</time>
      </trkpt>
      <trkpt lat="46.83842" lon="4.82886">
        <ele>260.65</ele>
        <time>2015-07-14T13:04:58.000Z</time>
      </trkpt>
      <trkpt lat="46.83849" lon="4.82873">
        <ele>260.65</ele>
        <time>2015-07-14T13:05:00.000Z</time>
      </trkpt>
      <trkpt lat="46.83856" lon="4.8286">
        <ele>260.65</ele>
        <time>2015-07-14T13:05:02.000Z</time>
      </trkpt>
      <trkpt lat="46.83863" lon="4.82848">
        <ele>261.14</ele>
        <time>2015-07-14T13:05:04.000Z</time>
      </trkpt>
      <trkpt lat="46.83871" lon="4.82835">
        <ele>261.14</ele>
        <time>2015-07-14T13:05:06.000Z</time>
      </trkpt>
      <trkpt lat="46.83879" lon="4.82824">
        <ele>260.65</ele>
        <time>2015-07-14T13:05:08.000Z</time>
      </trkpt>
      <trkpt lat="46.83888" lon="4.82814">
        <ele>261.14</ele>
        <time>2015-07-14T13:05:10.000Z</time>
      </trkpt>
      <trkpt lat="46.83898" lon="4.82806">
        <ele>260.65</ele>
        <time>2015-07-14T13:05:12.000Z</time>
      </trkpt>
      <trkpt lat="46.83909" lon="4.82799">
        <ele>260.65</ele>
        <time>2015-07-14T13:05:14.000Z</time>
      </trkpt>
      <trkpt lat="46.8392" lon="4.82795">
        <ele>261.14</ele>
        <time>2015-07-14T13:05:16.000Z</time>
      </trkpt>
      <trkpt lat="46.83931" lon="4.82792">
        <ele>260.65</ele>
        <time>2015-07-14T13:05:18.000Z</time>
      </trkpt>
      <trkpt lat="46.83943" lon="4.8279">
        <ele>260.65</ele>
        <time>2015-07-14T13:05:20.000Z</time>
      </trkpt>
      <trkpt lat="46.83954" lon="4.82788">
        <ele>260.17</ele>
        <time>2015-07-14T13:05:22.000Z</time>
      </trkpt>
      <trkpt lat="46.83965" lon="4.82784">
        <ele>260.65</ele>
        <time>2015-07-14T13:05:24.000Z</time>
      </trkpt>
      <trkpt lat="46.83975" lon="4.82779">
        <ele>260.65</ele>
        <time>2015-07-14T13:05:26.000Z</time>
      </trkpt>
      <trkpt lat="46.83986" lon="4.82773">
        <ele>260.65</ele>
        <time>2015-07-14T13:05:28.000Z</time>
      </trkpt>
      <trkpt lat="46.83997" lon="4.82766">
        <ele>260.17</ele>
        <time>2015-07-14T13:05:30.000Z</time>
      </trkpt>
      <trkpt lat="46.84007" lon="4.82758">
        <ele>261.14</ele>
        <time>2015-07-14T13:05:32.000Z</time>
      </trkpt>
      <trkpt lat="46.84016" lon="4.82749">
        <ele>261.14</ele>
        <time>2015-07-14T13:05:34.000Z</time>
      </trkpt>
      <trkpt lat="46.84026" lon="4.82739">
        <ele>261.62</ele>
        <time>2015-07-14T13:05:36.000Z</time>
      </trkpt>
      <trkpt lat="46.84034" lon="4.82728">
        <ele>261.62</ele>
        <time>2015-07-14T13:05:38.000Z</time>
      </trkpt>
      <trkpt lat="46.84042" lon="4.82716">
        <ele>261.14</ele>
        <time>2015-07-14T13:05:40.000Z</time>
      </trkpt>
      <trkpt lat="46.84049" lon="4.82703">
        <ele>261.14</ele>
        <time>2015-07-14T13:05:42.000Z</time>
      </trkpt>
      <trkpt lat="46.84055" lon="4.82689">
        <ele>261.14</ele>
        <time>2015-07-14T13:05:44.000Z</time>
      </trkpt>
      <trkpt lat="46.84061" lon="4.82674">
        <ele>261.62</ele>
        <time>2015-07-14T13:05:46.000Z</time>
      </trkpt>
      <trkpt lat="46.84066" lon="4.82659">
        <ele>261.14</ele>
        <time>2015-07-14T13:05:48.000Z</time>
      </trkpt>
      <trkpt lat="46.84071" lon="4.82645">
        <ele>261.14</ele>
        <time>2015-07-14T13:05:50.000Z</time>
      </trkpt>
      <trkpt lat="46.84076" lon="4.82631">
        <ele>261.14</ele>
        <time>2015-07-14T13:05:52.000Z</time>
      </trkpt>
      <trkpt lat="46.84082" lon="4.8262">
        <ele>261.62</ele>
        <time>2015-07-14T13:05:54.000Z</time>
      </trkpt>
      <trkpt lat="46.84087" lon="4.8261">
        <ele>261.62</ele>
        <time>2015-07-14T13:05:56.000Z</time>
      </trkpt>
      <trkpt lat="46.84097" lon="4.82598">
        <ele>261.62</ele>
        <time>2015-07-14T13:05:59.000Z</time>
      </trkpt>
      <trkpt lat="46.84107" lon="4.82587">
        <ele>261.62</ele>
        <time>2015-07-14T13:06:02.000Z</time>
      </trkpt>
      <trkpt lat="46.84118" lon="4.8258">
        <ele>262.1</ele>
        <time>2015-07-14T13:06:05.000Z</time>
      </trkpt>
      <trkpt lat="46.84128" lon="4.82574">
        <ele>263.06</ele>
        <time>2015-07-14T13:06:08.000Z</time>
      </trkpt>
      <trkpt lat="46.84137" lon="4.82569">
        <ele>263.54</ele>
        <time>2015-07-14T13:06:11.000Z</time>
      </trkpt>
      <trkpt lat="46.84148" lon="4.82563">
        <ele>264.02</ele>
        <time>2015-07-14T13:06:15.000Z</time>
      </trkpt>
      <trkpt lat="46.84159" lon="4.82559">
        <ele>263.06</ele>
        <time>2015-07-14T13:06:18.000Z</time>
      </trkpt>
      <trkpt lat="46.84171" lon="4.82552">
        <ele>263.06</ele>
        <time>2015-07-14T13:06:21.000Z</time>
      </trkpt>
      <trkpt lat="46.84184" lon="4.82543">
        <ele>263.54</ele>
        <time>2015-07-14T13:06:24.000Z</time>
      </trkpt>
      <trkpt lat="46.84192" lon="4.82538">
        <ele>263.54</ele>
        <time>2015-07-14T13:06:26.000Z</time>
      </trkpt>
      <trkpt lat="46.842" lon="4.82532">
        <ele>263.06</ele>
        <time>2015-07-14T13:06:28.000Z</time>
      </trkpt>
      <trkpt lat="46.84209" lon="4.82525">
        <ele>263.06</ele>
        <time>2015-07-14T13:06:30.000Z</time>
      </trkpt>
      <trkpt lat="46.84217" lon="4.82519">
        <ele>264.02</ele>
        <time>2015-07-14T13:06:32.000Z</time>
      </trkpt>
      <trkpt lat="46.84225" lon="4.82511">
        <ele>264.02</ele>
        <time>2015-07-14T13:06:34.000Z</time>
      </trkpt>
      <trkpt lat="46.84232" lon="4.82499">
        <ele>264.5</ele>
        <time>2015-07-14T13:06:36.000Z</time>
      </trkpt>
      <trkpt lat="46.8424" lon="4.82489">
        <ele>264.5</ele>
        <time>2015-07-14T13:06:38.000Z</time>
      </trkpt>
      <trkpt lat="46.84249" lon="4.82481">
        <ele>264.5</ele>
        <time>2015-07-14T13:06:40.000Z</time>
      </trkpt>
      <trkpt lat="46.84256" lon="4.82469">
        <ele>264.5</ele>
        <time>2015-07-14T13:06:42.000Z</time>
      </trkpt>
      <trkpt lat="46.84262" lon="4.82457">
        <ele>264.02</ele>
        <time>2015-07-14T13:06:44.000Z</time>
      </trkpt>
      <trkpt lat="46.84269" lon="4.82444">
        <ele>264.5</ele>
        <time>2015-07-14T13:06:46.000Z</time>
      </trkpt>
      <trkpt lat="46.84277" lon="4.82432">
        <ele>264.5</ele>
        <time>2015-07-14T13:06:48.000Z</time>
      </trkpt>
      <trkpt lat="46.84284" lon="4.8242">
        <ele>264.5</ele>
        <time>2015-07-14T13:06:50.000Z</time>
      </trkpt>
      <trkpt lat="46.84292" lon="4.82409">
        <ele>264.02</ele>
        <time>2015-07-14T13:06:52.000Z</time>
      </trkpt>
      <trkpt lat="46.843" lon="4.82399">
        <ele>264.5</ele>
        <time>2015-07-14T13:06:54.000Z</time>
      </trkpt>
      <trkpt lat="46.84309" lon="4.82389">
        <ele>264.02</ele>
        <time>2015-07-14T13:06:56.000Z</time>
      </trkpt>
      <trkpt lat="46.84319" lon="4.8238">
        <ele>264.02</ele>
        <time>2015-07-14T13:06:58.000Z</time>
      </trkpt>
      <trkpt lat="46.84328" lon="4.82372">
        <ele>264.5</ele>
        <time>2015-07-14T13:07:00.000Z</time>
      </trkpt>
      <trkpt lat="46.84337" lon="4.82363">
        <ele>264.5</ele>
        <time>2015-07-14T13:07:02.000Z</time>
      </trkpt>
      <trkpt lat="46.84346" lon="4.82354">
        <ele>264.02</ele>
        <time>2015-07-14T13:07:04.000Z</time>
      </trkpt>
      <trkpt lat="46.84356" lon="4.82345">
        <ele>264.5</ele>
        <time>2015-07-14T13:07:06.000Z</time>
      </trkpt>
      <trkpt lat="46.84365" lon="4.82336">
        <ele>264.02</ele>
        <time>2015-07-14T13:07:08.000Z</time>
      </trkpt>
      <trkpt lat="46.84375" lon="4.82327">
        <ele>264.5</ele>
        <time>2015-07-14T13:07:10.000Z</time>
      </trkpt>
      <trkpt lat="46.84385" lon="4.82318">
        <ele>264.02</ele>
        <time>2015-07-14T13:07:12.000Z</time>
      </trkpt>
      <trkpt lat="46.84394" lon="4.82309">
        <ele>264.02</ele>
        <time>2015-07-14T13:07:14.000Z</time>
      </trkpt>
      <trkpt lat="46.84405" lon="4.82303">
        <ele>264.02</ele>
        <time>2015-07-14T13:07:16.000Z</time>
      </trkpt>
      <trkpt lat="46.84416" lon="4.82299">
        <ele>264.02</ele>
        <time>2015-07-14T13:07:18.000Z</time>
      </trkpt>
      <trkpt lat="46.84427" lon="4.82297">
        <ele>264.02</ele>
        <time>2015-07-14T13:07:20.000Z</time>
      </trkpt>
      <trkpt lat="46.84438" lon="4.82297">
        <ele>264.02</ele>
        <time>2015-07-14T13:07:22.000Z</time>
      </trkpt>
      <trkpt lat="46.84449" lon="4.82299">
        <ele>264.02</ele>
        <time>2015-07-14T13:07:24.000Z</time>
      </trkpt>
      <trkpt lat="46.84461" lon="4.82303">
        <ele>264.02</ele>
        <time>2015-07-14T13:07:26.000Z</time>
      </trkpt>
      <trkpt lat="46.84472" lon="4.82306">
        <ele>264.02</ele>
        <time>2015-07-14T13:07:28.000Z</time>
      </trkpt>
      <trkpt lat="46.84483" lon="4.8231">
        <ele>264.02</ele>
        <time>2015-07-14T13:07:30.000Z</time>
      </trkpt>
      <trkpt lat="46.84494" lon="4.82314">
        <ele>264.02</ele>
        <time>2015-07-14T13:07:32.000Z</time>
      </trkpt>
      <trkpt lat="46.84505" lon="4.82317">
        <ele>264.5</ele>
        <time>2015-07-14T13:07:34.000Z</time>
      </trkpt>
      <trkpt lat="46.84516" lon="4.82318">
        <ele>264.5</ele>
        <time>2015-07-14T13:07:36.000Z</time>
      </trkpt>
      <trkpt lat="46.84528" lon="4.82316">
        <ele>264.02</ele>
        <time>2015-07-14T13:07:38.000Z</time>
      </trkpt>
      <trkpt lat="46.84539" lon="4.82313">
        <ele>264.02</ele>
        <time>2015-07-14T13:07:40.000Z</time>
      </trkpt>
      <trkpt lat="46.84551" lon="4.82306">
        <ele>264.02</ele>
        <time>2015-07-14T13:07:42.000Z</time>
      </trkpt>
      <trkpt lat="46.84562" lon="4.823">
        <ele>264.02</ele>
        <time>2015-07-14T13:07:44.000Z</time>
      </trkpt>
      <trkpt lat="46.84571" lon="4.8229">
        <ele>264.02</ele>
        <time>2015-07-14T13:07:46.000Z</time>
      </trkpt>
      <trkpt lat="46.84581" lon="4.82279">
        <ele>264.02</ele>
        <time>2015-07-14T13:07:48.000Z</time>
      </trkpt>
      <trkpt lat="46.84589" lon="4.82266">
        <ele>264.02</ele>
        <time>2015-07-14T13:07:50.000Z</time>
      </trkpt>
      <trkpt lat="46.84595" lon="4.82252">
        <ele>264.5</ele>
        <time>2015-07-14T13:07:52.000Z</time>
      </trkpt>
      <trkpt lat="46.84601" lon="4.82237">
        <ele>264.02</ele>
        <time>2015-07-14T13:07:54.000Z</time>
      </trkpt>
      <trkpt lat="46.84606" lon="4.82222">
        <ele>264.02</ele>
        <time>2015-07-14T13:07:56.000Z</time>
      </trkpt>
      <trkpt lat="46.8461" lon="4.82206">
        <ele>264.02</ele>
        <time>2015-07-14T13:07:58.000Z</time>
      </trkpt>
      <trkpt lat="46.84614" lon="4.82189">
        <ele>264.02</ele>
        <time>2015-07-14T13:08:00.000Z</time>
      </trkpt>
      <trkpt lat="46.84618" lon="4.82172">
        <ele>264.02</ele>
        <time>2015-07-14T13:08:02.000Z</time>
      </trkpt>
      <trkpt lat="46.84623" lon="4.82157">
        <ele>264.02</ele>
        <time>2015-07-14T13:08:04.000Z</time>
      </trkpt>
      <trkpt lat="46.84629" lon="4.82142">
        <ele>264.02</ele>
        <time>2015-07-14T13:08:06.000Z</time>
      </trkpt>
      <trkpt lat="46.84637" lon="4.82128">
        <ele>264.02</ele>
        <time>2015-07-14T13:08:08.000Z</time>
      </trkpt>
      <trkpt lat="46.84644" lon="4.82115">
        <ele>264.02</ele>
        <time>2015-07-14T13:08:10.000Z</time>
      </trkpt>
      <trkpt lat="46.84652" lon="4.82102">
        <ele>264.5</ele>
        <time>2015-07-14T13:08:12.000Z</time>
      </trkpt>
      <trkpt lat="46.8466" lon="4.82088">
        <ele>264.02</ele>
        <time>2015-07-14T13:08:14.000Z</time>
      </trkpt>
      <trkpt lat="46.84668" lon="4.82075">
        <ele>264.5</ele>
        <time>2015-07-14T13:08:16.000Z</time>
      </trkpt>
      <trkpt lat="46.84676" lon="4.82061">
        <ele>264.5</ele>
        <time>2015-07-14T13:08:18.000Z</time>
      </trkpt>
      <trkpt lat="46.84683" lon="4.82046">
        <ele>264.5</ele>
        <time>2015-07-14T13:08:20.000Z</time>
      </trkpt>
      <trkpt lat="46.8469" lon="4.82031">
        <ele>264.02</ele>
        <time>2015-07-14T13:08:22.000Z</time>
      </trkpt>
      <trkpt lat="46.84697" lon="4.82017">
        <ele>264.5</ele>
        <time>2015-07-14T13:08:24.000Z</time>
      </trkpt>
      <trkpt lat="46.84703" lon="4.82002">
        <ele>264.02</ele>
        <time>2015-07-14T13:08:26.000Z</time>
      </trkpt>
      <trkpt lat="46.84708" lon="4.81986">
        <ele>264.5</ele>
        <time>2015-07-14T13:08:28.000Z</time>
      </trkpt>
      <trkpt lat="46.84713" lon="4.8197">
        <ele>264.5</ele>
        <time>2015-07-14T13:08:30.000Z</time>
      </trkpt>
      <trkpt lat="46.84718" lon="4.81954">
        <ele>264.5</ele>
        <time>2015-07-14T13:08:32.000Z</time>
      </trkpt>
      <trkpt lat="46.84722" lon="4.81938">
        <ele>264.02</ele>
        <time>2015-07-14T13:08:34.000Z</time>
      </trkpt>
      <trkpt lat="46.84725" lon="4.8192">
        <ele>264.02</ele>
        <time>2015-07-14T13:08:36.000Z</time>
      </trkpt>
      <trkpt lat="46.84727" lon="4.81902">
        <ele>264.5</ele>
        <time>2015-07-14T13:08:38.000Z</time>
      </trkpt>
      <trkpt lat="46.84727" lon="4.81884">
        <ele>264.5</ele>
        <time>2015-07-14T13:08:40.000Z</time>
      </trkpt>
      <trkpt lat="46.84726" lon="4.81866">
        <ele>264.5</ele>
        <time>2015-07-14T13:08:42.000Z</time>
      </trkpt>
      <trkpt lat="46.84724" lon="4.81849">
        <ele>264.5</ele>
        <time>2015-07-14T13:08:44.000Z</time>
      </trkpt>
      <trkpt lat="46.84723" lon="4.81831">
        <ele>264.5</ele>
        <time>2015-07-14T13:08:46.000Z</time>
      </trkpt>
      <trkpt lat="46.84721" lon="4.81813">
        <ele>264.5</ele>
        <time>2015-07-14T13:08:48.000Z</time>
      </trkpt>
      <trkpt lat="46.84719" lon="4.81795">
        <ele>264.5</ele>
        <time>2015-07-14T13:08:50.000Z</time>
      </trkpt>
      <trkpt lat="46.84717" lon="4.81776">
        <ele>264.02</ele>
        <time>2015-07-14T13:08:52.000Z</time>
      </trkpt>
      <trkpt lat="46.84716" lon="4.81758">
        <ele>264.02</ele>
        <time>2015-07-14T13:08:54.000Z</time>
      </trkpt>
      <trkpt lat="46.84716" lon="4.8174">
        <ele>264.02</ele>
        <time>2015-07-14T13:08:56.000Z</time>
      </trkpt>
      <trkpt lat="46.84717" lon="4.81721">
        <ele>264.02</ele>
        <time>2015-07-14T13:08:58.000Z</time>
      </trkpt>
      <trkpt lat="46.84719" lon="4.81703">
        <ele>264.02</ele>
        <time>2015-07-14T13:09:00.000Z</time>
      </trkpt>
      <trkpt lat="46.84723" lon="4.81685">
        <ele>264.02</ele>
        <time>2015-07-14T13:09:02.000Z</time>
      </trkpt>
      <trkpt lat="46.84726" lon="4.81667">
        <ele>264.02</ele>
        <time>2015-07-14T13:09:04.000Z</time>
      </trkpt>
      <trkpt lat="46.84729" lon="4.81649">
        <ele>264.02</ele>
        <time>2015-07-14T13:09:06.000Z</time>
      </trkpt>
      <trkpt lat="46.84732" lon="4.81632">
        <ele>264.5</ele>
        <time>2015-07-14T13:09:08.000Z</time>
      </trkpt>
      <trkpt lat="46.84735" lon="4.81614">
        <ele>264.02</ele>
        <time>2015-07-14T13:09:10.000Z</time>
      </trkpt>
      <trkpt lat="46.84739" lon="4.81597">
        <ele>264.02</ele>
        <time>2015-07-14T13:09:12.000Z</time>
      </trkpt>
      <trkpt lat="46.84743" lon="4.81579">
        <ele>263.54</ele>
        <time>2015-07-14T13:09:14.000Z</time>
      </trkpt>
      <trkpt lat="46.84746" lon="4.81562">
        <ele>264.02</ele>
        <time>2015-07-14T13:09:16.000Z</time>
      </trkpt>
      <trkpt lat="46.84749" lon="4.81546">
        <ele>263.54</ele>
        <time>2015-07-14T13:09:18.000Z</time>
      </trkpt>
      <trkpt lat="46.84752" lon="4.8153">
        <ele>263.54</ele>
        <time>2015-07-14T13:09:20.000Z</time>
      </trkpt>
      <trkpt lat="46.84755" lon="4.81516">
        <ele>263.54</ele>
        <time>2015-07-14T13:09:22.000Z</time>
      </trkpt>
      <trkpt lat="46.84757" lon="4.81502">
        <ele>264.02</ele>
        <time>2015-07-14T13:09:24.000Z</time>
      </trkpt>
      <trkpt lat="46.8476" lon="4.81488">
        <ele>263.54</ele>
        <time>2015-07-14T13:09:26.000Z</time>
      </trkpt>
      <trkpt lat="46.84762" lon="4.81473">
        <ele>264.02</ele>
        <time>2015-07-14T13:09:28.000Z</time>
      </trkpt>
      <trkpt lat="46.84764" lon="4.8146">
        <ele>263.54</ele>
        <time>2015-07-14T13:09:30.000Z</time>
      </trkpt>
      <trkpt lat="46.84766" lon="4.81446">
        <ele>264.02</ele>
        <time>2015-07-14T13:09:32.000Z</time>
      </trkpt>
      <trkpt lat="46.84767" lon="4.81427">
        <ele>263.54</ele>
        <time>2015-07-14T13:09:35.000Z</time>
      </trkpt>
      <trkpt lat="46.84767" lon="4.81413">
        <ele>263.06</ele>
        <time>2015-07-14T13:09:37.000Z</time>
      </trkpt>
      <trkpt lat="46.84765" lon="4.81399">
        <ele>263.06</ele>
        <time>2015-07-14T13:09:39.000Z</time>
      </trkpt>
      <trkpt lat="46.84763" lon="4.81386">
        <ele>263.06</ele>
        <time>2015-07-14T13:09:41.000Z</time>
      </trkpt>
      <trkpt lat="46.8476" lon="4.81371">
        <ele>263.54</ele>
        <time>2015-07-14T13:09:43.000Z</time>
      </trkpt>
      <trkpt lat="46.84758" lon="4.81357">
        <ele>263.06</ele>
        <time>2015-07-14T13:09:45.000Z</time>
      </trkpt>
      <trkpt lat="46.84755" lon="4.81343">
        <ele>263.06</ele>
        <time>2015-07-14T13:09:47.000Z</time>
      </trkpt>
      <trkpt lat="46.84752" lon="4.81328">
        <ele>263.06</ele>
        <time>2015-07-14T13:09:49.000Z</time>
      </trkpt>
      <trkpt lat="46.8475" lon="4.81314">
        <ele>263.54</ele>
        <time>2015-07-14T13:09:51.000Z</time>
      </trkpt>
      <trkpt lat="46.84747" lon="4.813">
        <ele>263.06</ele>
        <time>2015-07-14T13:09:53.000Z</time>
      </trkpt>
      <trkpt lat="46.84745" lon="4.81285">
        <ele>263.54</ele>
        <time>2015-07-14T13:09:55.000Z</time>
      </trkpt>
      <trkpt lat="46.84742" lon="4.8127">
        <ele>263.06</ele>
        <time>2015-07-14T13:09:57.000Z</time>
      </trkpt>
      <trkpt lat="46.84739" lon="4.81255">
        <ele>263.06</ele>
        <time>2015-07-14T13:09:59.000Z</time>
      </trkpt>
      <trkpt lat="46.84736" lon="4.8124">
        <ele>263.54</ele>
        <time>2015-07-14T13:10:01.000Z</time>
      </trkpt>
      <trkpt lat="46.84734" lon="4.81226">
        <ele>263.54</ele>
        <time>2015-07-14T13:10:03.000Z</time>
      </trkpt>
      <trkpt lat="46.84731" lon="4.81211">
        <ele>263.54</ele>
        <time>2015-07-14T13:10:05.000Z</time>
      </trkpt>
      <trkpt lat="46.84727" lon="4.81196">
        <ele>263.54</ele>
        <time>2015-07-14T13:10:07.000Z</time>
      </trkpt>
      <trkpt lat="46.84724" lon="4.81181">
        <ele>263.54</ele>
        <time>2015-07-14T13:10:09.000Z</time>
      </trkpt>
      <trkpt lat="46.84721" lon="4.81166">
        <ele>264.02</ele>
        <time>2015-07-14T13:10:11.000Z</time>
      </trkpt>
      <trkpt lat="46.84719" lon="4.81151">
        <ele>264.02</ele>
        <time>2015-07-14T13:10:13.000Z</time>
      </trkpt>
      <trkpt lat="46.84716" lon="4.81137">
        <ele>264.02</ele>
        <time>2015-07-14T13:10:15.000Z</time>
      </trkpt>
      <trkpt lat="46.84714" lon="4.81121">
        <ele>264.5</ele>
        <time>2015-07-14T13:10:17.000Z</time>
      </trkpt>
      <trkpt lat="46.84713" lon="4.81105">
        <ele>264.02</ele>
        <time>2015-07-14T13:10:19.000Z</time>
      </trkpt>
      <trkpt lat="46.84714" lon="4.81089">
        <ele>264.5</ele>
        <time>2015-07-14T13:10:21.000Z</time>
      </trkpt>
      <trkpt lat="46.84716" lon="4.81073">
        <ele>264.02</ele>
        <time>2015-07-14T13:10:23.000Z</time>
      </trkpt>
      <trkpt lat="46.84721" lon="4.81059">
        <ele>264.02</ele>
        <time>2015-07-14T13:10:25.000Z</time>
      </trkpt>
      <trkpt lat="46.84726" lon="4.81044">
        <ele>264.5</ele>
        <time>2015-07-14T13:10:27.000Z</time>
      </trkpt>
      <trkpt lat="46.84729" lon="4.81029">
        <ele>264.02</ele>
        <time>2015-07-14T13:10:29.000Z</time>
      </trkpt>
      <trkpt lat="46.84733" lon="4.81014">
        <ele>264.02</ele>
        <time>2015-07-14T13:10:31.000Z</time>
      </trkpt>
      <trkpt lat="46.84735" lon="4.80998">
        <ele>264.5</ele>
        <time>2015-07-14T13:10:33.000Z</time>
      </trkpt>
      <trkpt lat="46.84736" lon="4.80981">
        <ele>263.54</ele>
        <time>2015-07-14T13:10:35.000Z</time>
      </trkpt>
      <trkpt lat="46.84737" lon="4.80966">
        <ele>264.02</ele>
        <time>2015-07-14T13:10:37.000Z</time>
      </trkpt>
      <trkpt lat="46.84738" lon="4.80951">
        <ele>264.02</ele>
        <time>2015-07-14T13:10:39.000Z</time>
      </trkpt>
      <trkpt lat="46.84739" lon="4.80935">
        <ele>264.02</ele>
        <time>2015-07-14T13:10:41.000Z</time>
      </trkpt>
      <trkpt lat="46.8474" lon="4.8092">
        <ele>264.5</ele>
        <time>2015-07-14T13:10:43.000Z</time>
      </trkpt>
      <trkpt lat="46.84739" lon="4.80904">
        <ele>264.5</ele>
        <time>2015-07-14T13:10:45.000Z</time>
      </trkpt>
      <trkpt lat="46.84739" lon="4.80888">
        <ele>264.5</ele>
        <time>2015-07-14T13:10:47.000Z</time>
      </trkpt>
      <trkpt lat="46.84739" lon="4.80873">
        <ele>264.5</ele>
        <time>2015-07-14T13:10:49.000Z</time>
      </trkpt>
      <trkpt lat="46.84739" lon="4.80857">
        <ele>264.5</ele>
        <time>2015-07-14T13:10:51.000Z</time>
      </trkpt>
      <trkpt lat="46.84739" lon="4.80842">
        <ele>264.02</ele>
        <time>2015-07-14T13:10:53.000Z</time>
      </trkpt>
      <trkpt lat="46.8474" lon="4.80826">
        <ele>264.02</ele>
        <time>2015-07-14T13:10:55.000Z</time>
      </trkpt>
      <trkpt lat="46.84741" lon="4.80812">
        <ele>264.5</ele>
        <time>2015-07-14T13:10:57.000Z</time>
      </trkpt>
      <trkpt lat="46.84742" lon="4.80794">
        <ele>265.46</ele>
        <time>2015-07-14T13:11:00.000Z</time>
      </trkpt>
      <trkpt lat="46.84745" lon="4.80779">
        <ele>265.94</ele>
        <time>2015-07-14T13:11:03.000Z</time>
      </trkpt>
      <trkpt lat="46.84749" lon="4.80766">
        <ele>266.9</ele>
        <time>2015-07-14T13:11:06.000Z</time>
      </trkpt>
      <trkpt lat="46.84753" lon="4.80753">
        <ele>266.9</ele>
        <time>2015-07-14T13:11:09.000Z</time>
      </trkpt>
      <trkpt lat="46.84757" lon="4.80737">
        <ele>267.86</ele>
        <time>2015-07-14T13:11:13.000Z</time>
      </trkpt>
      <trkpt lat="46.84761" lon="4.8072">
        <ele>268.83</ele>
        <time>2015-07-14T13:11:17.000Z</time>
      </trkpt>
      <trkpt lat="46.84765" lon="4.80707">
        <ele>268.35</ele>
        <time>2015-07-14T13:11:20.000Z</time>
      </trkpt>
      <trkpt lat="46.84769" lon="4.80693">
        <ele>268.35</ele>
        <time>2015-07-14T13:11:23.000Z</time>
      </trkpt>
      <trkpt lat="46.84774" lon="4.80678">
        <ele>267.86</ele>
        <time>2015-07-14T13:11:26.000Z</time>
      </trkpt>
      <trkpt lat="46.84779" lon="4.80662">
        <ele>268.35</ele>
        <time>2015-07-14T13:11:29.000Z</time>
      </trkpt>
      <trkpt lat="46.84784" lon="4.80645">
        <ele>268.83</ele>
        <time>2015-07-14T13:11:32.000Z</time>
      </trkpt>
      <trkpt lat="46.84787" lon="4.80632">
        <ele>268.35</ele>
        <time>2015-07-14T13:11:34.000Z</time>
      </trkpt>
      <trkpt lat="46.84791" lon="4.80619">
        <ele>268.35</ele>
        <time>2015-07-14T13:11:36.000Z</time>
      </trkpt>
      <trkpt lat="46.84795" lon="4.80606">
        <ele>268.35</ele>
        <time>2015-07-14T13:11:38.000Z</time>
      </trkpt>
      <trkpt lat="46.84799" lon="4.80592">
        <ele>268.35</ele>
        <time>2015-07-14T13:11:40.000Z</time>
      </trkpt>
      <trkpt lat="46.84803" lon="4.80578">
        <ele>268.35</ele>
        <time>2015-07-14T13:11:42.000Z</time>
      </trkpt>
      <trkpt lat="46.84808" lon="4.80563">
        <ele>269.31</ele>
        <time>2015-07-14T13:11:44.000Z</time>
      </trkpt>
      <trkpt lat="46.84812" lon="4.80548">
        <ele>268.83</ele>
        <time>2015-07-14T13:11:46.000Z</time>
      </trkpt>
      <trkpt lat="46.84816" lon="4.80534">
        <ele>268.35</ele>
        <time>2015-07-14T13:11:48.000Z</time>
      </trkpt>
      <trkpt lat="46.84821" lon="4.80519">
        <ele>268.35</ele>
        <time>2015-07-14T13:11:50.000Z</time>
      </trkpt>
      <trkpt lat="46.84825" lon="4.80504">
        <ele>268.83</ele>
        <time>2015-07-14T13:11:52.000Z</time>
      </trkpt>
      <trkpt lat="46.8483" lon="4.80489">
        <ele>268.35</ele>
        <time>2015-07-14T13:11:54.000Z</time>
      </trkpt>
      <trkpt lat="46.84834" lon="4.80473">
        <ele>268.35</ele>
        <time>2015-07-14T13:11:56.000Z</time>
      </trkpt>
      <trkpt lat="46.84838" lon="4.80457">
        <ele>268.83</ele>
        <time>2015-07-14T13:11:58.000Z</time>
      </trkpt>
      <trkpt lat="46.84843" lon="4.80442">
        <ele>268.83</ele>
        <time>2015-07-14T13:12:00.000Z</time>
      </trkpt>
      <trkpt lat="46.84847" lon="4.80428">
        <ele>268.35</ele>
        <time>2015-07-14T13:12:02.000Z</time>
      </trkpt>
      <trkpt lat="46.84852" lon="4.80413">
        <ele>268.35</ele>
        <time>2015-07-14T13:12:04.000Z</time>
      </trkpt>
      <trkpt lat="46.84856" lon="4.80397">
        <ele>268.35</ele>
        <time>2015-07-14T13:12:06.000Z</time>
      </trkpt>
      <trkpt lat="46.84861" lon="4.80382">
        <ele>267.86</ele>
        <time>2015-07-14T13:12:08.000Z</time>
      </trkpt>
      <trkpt lat="46.84865" lon="4.80367">
        <ele>268.83</ele>
        <time>2015-07-14T13:12:10.000Z</time>
      </trkpt>
      <trkpt lat="46.8487" lon="4.80351">
        <ele>267.86</ele>
        <time>2015-07-14T13:12:12.000Z</time>
      </trkpt>
      <trkpt lat="46.84874" lon="4.80336">
        <ele>267.86</ele>
        <time>2015-07-14T13:12:14.000Z</time>
      </trkpt>
      <trkpt lat="46.84879" lon="4.8032">
        <ele>268.35</ele>
        <time>2015-07-14T13:12:16.000Z</time>
      </trkpt>
      <trkpt lat="46.84884" lon="4.80305">
        <ele>268.35</ele>
        <time>2015-07-14T13:12:18.000Z</time>
      </trkpt>
      <trkpt lat="46.84889" lon="4.80292">
        <ele>268.35</ele>
        <time>2015-07-14T13:12:20.000Z</time>
      </trkpt>
      <trkpt lat="46.84895" lon="4.80279">
        <ele>268.35</ele>
        <time>2015-07-14T13:12:22.000Z</time>
      </trkpt>
      <trkpt lat="46.84902" lon="4.80267">
        <ele>268.83</ele>
        <time>2015-07-14T13:12:24.000Z</time>
      </trkpt>
      <trkpt lat="46.8491" lon="4.80255">
        <ele>268.35</ele>
        <time>2015-07-14T13:12:26.000Z</time>
      </trkpt>
      <trkpt lat="46.84919" lon="4.80245">
        <ele>268.83</ele>
        <time>2015-07-14T13:12:28.000Z</time>
      </trkpt>
      <trkpt lat="46.84929" lon="4.80236">
        <ele>269.31</ele>
        <time>2015-07-14T13:12:30.000Z</time>
      </trkpt>
      <trkpt lat="46.84939" lon="4.80229">
        <ele>269.31</ele>
        <time>2015-07-14T13:12:32.000Z</time>
      </trkpt>
      <trkpt lat="46.84949" lon="4.80221">
        <ele>268.35</ele>
        <time>2015-07-14T13:12:34.000Z</time>
      </trkpt>
      <trkpt lat="46.8496" lon="4.80212">
        <ele>269.31</ele>
        <time>2015-07-14T13:12:36.000Z</time>
      </trkpt>
      <trkpt lat="46.8497" lon="4.80203">
        <ele>268.83</ele>
        <time>2015-07-14T13:12:38.000Z</time>
      </trkpt>
      <trkpt lat="46.84982" lon="4.80195">
        <ele>268.83</ele>
        <time>2015-07-14T13:12:40.000Z</time>
      </trkpt>
      <trkpt lat="46.84992" lon="4.80186">
        <ele>268.83</ele>
        <time>2015-07-14T13:12:42.000Z</time>
      </trkpt>
      <trkpt lat="46.85003" lon="4.80176">
        <ele>269.31</ele>
        <time>2015-07-14T13:12:44.000Z</time>
      </trkpt>
      <trkpt lat="46.85014" lon="4.80167">
        <ele>269.31</ele>
        <time>2015-07-14T13:12:46.000Z</time>
      </trkpt>
      <trkpt lat="46.85026" lon="4.80157">
        <ele>269.31</ele>
        <time>2015-07-14T13:12:48.000Z</time>
      </trkpt>
      <trkpt lat="46.85037" lon="4.80147">
        <ele>268.83</ele>
        <time>2015-07-14T13:12:50.000Z</time>
      </trkpt>
      <trkpt lat="46.85048" lon="4.80138">
        <ele>268.35</ele>
        <time>2015-07-14T13:12:52.000Z</time>
      </trkpt>
      <trkpt lat="46.85059" lon="4.80129">
        <ele>268.83</ele>
        <time>2015-07-14T13:12:54.000Z</time>
      </trkpt>
      <trkpt lat="46.8507" lon="4.8012">
        <ele>268.35</ele>
        <time>2015-07-14T13:12:56.000Z</time>
      </trkpt>
      <trkpt lat="46.85081" lon="4.80111">
        <ele>267.38</ele>
        <time>2015-07-14T13:12:58.000Z</time>
      </trkpt>
      <trkpt lat="46.85093" lon="4.80102">
        <ele>267.86</ele>
        <time>2015-07-14T13:13:00.000Z</time>
      </trkpt>
      <trkpt lat="46.85103" lon="4.80093">
        <ele>267.38</ele>
        <time>2015-07-14T13:13:02.000Z</time>
      </trkpt>
      <trkpt lat="46.85115" lon="4.80085">
        <ele>267.38</ele>
        <time>2015-07-14T13:13:04.000Z</time>
      </trkpt>
      <trkpt lat="46.85126" lon="4.80078">
        <ele>267.38</ele>
        <time>2015-07-14T13:13:06.000Z</time>
      </trkpt>
      <trkpt lat="46.85138" lon="4.80074">
        <ele>267.86</ele>
        <time>2015-07-14T13:13:08.000Z</time>
      </trkpt>
      <trkpt lat="46.8515" lon="4.8007">
        <ele>268.35</ele>
        <time>2015-07-14T13:13:10.000Z</time>
      </trkpt>
      <trkpt lat="46.85162" lon="4.80066">
        <ele>268.83</ele>
        <time>2015-07-14T13:13:12.000Z</time>
      </trkpt>
      <trkpt lat="46.85175" lon="4.80063">
        <ele>268.35</ele>
        <time>2015-07-14T13:13:14.000Z</time>
      </trkpt>
      <trkpt lat="46.85188" lon="4.8006">
        <ele>268.35</ele>
        <time>2015-07-14T13:13:16.000Z</time>
      </trkpt>
      <trkpt lat="46.852" lon="4.80056">
        <ele>268.35</ele>
        <time>2015-07-14T13:13:18.000Z</time>
      </trkpt>
      <trkpt lat="46.85213" lon="4.80053">
        <ele>268.83</ele>
        <time>2015-07-14T13:13:20.000Z</time>
      </trkpt>
      <trkpt lat="46.85226" lon="4.80051">
        <ele>268.83</ele>
        <time>2015-07-14T13:13:22.000Z</time>
      </trkpt>
      <trkpt lat="46.85239" lon="4.80051">
        <ele>268.83</ele>
        <time>2015-07-14T13:13:24.000Z</time>
      </trkpt>
      <trkpt lat="46.85252" lon="4.80052">
        <ele>268.83</ele>
        <time>2015-07-14T13:13:26.000Z</time>
      </trkpt>
      <trkpt lat="46.85265" lon="4.80055">
        <ele>268.35</ele>
        <time>2015-07-14T13:13:28.000Z</time>
      </trkpt>
      <trkpt lat="46.85277" lon="4.80058">
        <ele>268.35</ele>
        <time>2015-07-14T13:13:30.000Z</time>
      </trkpt>
      <trkpt lat="46.8529" lon="4.80062">
        <ele>268.35</ele>
        <time>2015-07-14T13:13:32.000Z</time>
      </trkpt>
      <trkpt lat="46.85302" lon="4.80066">
        <ele>268.35</ele>
        <time>2015-07-14T13:13:34.000Z</time>
      </trkpt>
      <trkpt lat="46.85315" lon="4.8007">
        <ele>268.35</ele>
        <time>2015-07-14T13:13:36.000Z</time>
      </trkpt>
      <trkpt lat="46.85328" lon="4.80072">
        <ele>268.35</ele>
        <time>2015-07-14T13:13:38.000Z</time>
      </trkpt>
      <trkpt lat="46.85341" lon="4.80072">
        <ele>268.35</ele>
        <time>2015-07-14T13:13:40.000Z</time>
      </trkpt>
      <trkpt lat="46.85354" lon="4.80069">
        <ele>268.35</ele>
        <time>2015-07-14T13:13:42.000Z</time>
      </trkpt>
      <trkpt lat="46.85366" lon="4.80064">
        <ele>268.35</ele>
        <time>2015-07-14T13:13:44.000Z</time>
      </trkpt>
      <trkpt lat="46.85378" lon="4.80057">
        <ele>268.35</ele>
        <time>2015-07-14T13:13:46.000Z</time>
      </trkpt>
      <trkpt lat="46.85389" lon="4.80047">
        <ele>268.35</ele>
        <time>2015-07-14T13:13:48.000Z</time>
      </trkpt>
      <trkpt lat="46.85399" lon="4.80036">
        <ele>268.83</ele>
        <time>2015-07-14T13:13:50.000Z</time>
      </trkpt>
      <trkpt lat="46.85409" lon="4.80023">
        <ele>268.35</ele>
        <time>2015-07-14T13:13:52.000Z</time>
      </trkpt>
      <trkpt lat="46.85419" lon="4.8001">
        <ele>268.83</ele>
        <time>2015-07-14T13:13:54.000Z</time>
      </trkpt>
      <trkpt lat="46.85429" lon="4.79997">
        <ele>268.83</ele>
        <time>2015-07-14T13:13:56.000Z</time>
      </trkpt>
      <trkpt lat="46.8544" lon="4.79986">
        <ele>268.35</ele>
        <time>2015-07-14T13:13:58.000Z</time>
      </trkpt>
      <trkpt lat="46.85451" lon="4.79977">
        <ele>268.35</ele>
        <time>2015-07-14T13:14:00.000Z</time>
      </trkpt>
      <trkpt lat="46.85463" lon="4.7997">
        <ele>268.83</ele>
        <time>2015-07-14T13:14:02.000Z</time>
      </trkpt>
      <trkpt lat="46.85475" lon="4.79963">
        <ele>268.83</ele>
        <time>2015-07-14T13:14:04.000Z</time>
      </trkpt>
      <trkpt lat="46.85487" lon="4.79956">
        <ele>268.35</ele>
        <time>2015-07-14T13:14:06.000Z</time>
      </trkpt>
      <trkpt lat="46.85499" lon="4.7995">
        <ele>268.83</ele>
        <time>2015-07-14T13:14:08.000Z</time>
      </trkpt>
      <trkpt lat="46.85511" lon="4.79943">
        <ele>269.31</ele>
        <time>2015-07-14T13:14:10.000Z</time>
      </trkpt>
      <trkpt lat="46.85523" lon="4.79937">
        <ele>268.83</ele>
        <time>2015-07-14T13:14:12.000Z</time>
      </trkpt>
      <trkpt lat="46.85535" lon="4.7993">
        <ele>268.83</ele>
        <time>2015-07-14T13:14:14.000Z</time>
      </trkpt>
      <trkpt lat="46.85546" lon="4.79923">
        <ele>268.35</ele>
        <time>2015-07-14T13:14:16.000Z</time>
      </trkpt>
      <trkpt lat="46.85558" lon="4.79918">
        <ele>268.83</ele>
        <time>2015-07-14T13:14:18.000Z</time>
      </trkpt>
      <trkpt lat="46.8557" lon="4.79912">
        <ele>268.35</ele>
        <time>2015-07-14T13:14:20.000Z</time>
      </trkpt>
      <trkpt lat="46.85582" lon="4.79906">
        <ele>268.35</ele>
        <time>2015-07-14T13:14:22.000Z</time>
      </trkpt>
      <trkpt lat="46.85593" lon="4.799">
        <ele>268.35</ele>
        <time>2015-07-14T13:14:24.000Z</time>
      </trkpt>
      <trkpt lat="46.85605" lon="4.79893">
        <ele>268.35</ele>
        <time>2015-07-14T13:14:26.000Z</time>
      </trkpt>
      <trkpt lat="46.85617" lon="4.79886">
        <ele>268.83</ele>
        <time>2015-07-14T13:14:28.000Z</time>
      </trkpt>
      <trkpt lat="46.85629" lon="4.79879">
        <ele>268.83</ele>
        <time>2015-07-14T13:14:30.000Z</time>
      </trkpt>
      <trkpt lat="46.85641" lon="4.79873">
        <ele>268.83</ele>
        <time>2015-07-14T13:14:32.000Z</time>
      </trkpt>
      <trkpt lat="46.85653" lon="4.79866">
        <ele>268.83</ele>
        <time>2015-07-14T13:14:34.000Z</time>
      </trkpt>
      <trkpt lat="46.85665" lon="4.7986">
        <ele>268.83</ele>
        <time>2015-07-14T13:14:36.000Z</time>
      </trkpt>
      <trkpt lat="46.85677" lon="4.79853">
        <ele>268.83</ele>
        <time>2015-07-14T13:14:38.000Z</time>
      </trkpt>
      <trkpt lat="46.85688" lon="4.79846">
        <ele>268.83</ele>
        <time>2015-07-14T13:14:40.000Z</time>
      </trkpt>
      <trkpt lat="46.85699" lon="4.79838">
        <ele>269.31</ele>
        <time>2015-07-14T13:14:42.000Z</time>
      </trkpt>
      <trkpt lat="46.85712" lon="4.79831">
        <ele>269.31</ele>
        <time>2015-07-14T13:14:44.000Z</time>
      </trkpt>
      <trkpt lat="46.85724" lon="4.79823">
        <ele>268.83</ele>
        <time>2015-07-14T13:14:46.000Z</time>
      </trkpt>
      <trkpt lat="46.85735" lon="4.79815">
        <ele>269.31</ele>
        <time>2015-07-14T13:14:48.000Z</time>
      </trkpt>
      <trkpt lat="46.85747" lon="4.79807">
        <ele>269.31</ele>
        <time>2015-07-14T13:14:50.000Z</time>
      </trkpt>
      <trkpt lat="46.85758" lon="4.79799">
        <ele>268.83</ele>
        <time>2015-07-14T13:14:52.000Z</time>
      </trkpt>
      <trkpt lat="46.8577" lon="4.7979">
        <ele>268.83</ele>
        <time>2015-07-14T13:14:54.000Z</time>
      </trkpt>
      <trkpt lat="46.8578" lon="4.79783">
        <ele>268.83</ele>
        <time>2015-07-14T13:14:56.000Z</time>
      </trkpt>
      <trkpt lat="46.8579" lon="4.79775">
        <ele>268.83</ele>
        <time>2015-07-14T13:14:58.000Z</time>
      </trkpt>
      <trkpt lat="46.858" lon="4.79767">
        <ele>268.83</ele>
        <time>2015-07-14T13:15:00.000Z</time>
      </trkpt>
      <trkpt lat="46.85809" lon="4.79756">
        <ele>269.31</ele>
        <time>2015-07-14T13:15:02.000Z</time>
      </trkpt>
      <trkpt lat="46.85818" lon="4.79746">
        <ele>269.31</ele>
        <time>2015-07-14T13:15:04.000Z</time>
      </trkpt>
      <trkpt lat="46.85828" lon="4.7974">
        <ele>268.83</ele>
        <time>2015-07-14T13:15:06.000Z</time>
      </trkpt>
      <trkpt lat="46.85839" lon="4.79738">
        <ele>268.83</ele>
        <time>2015-07-14T13:15:08.000Z</time>
      </trkpt>
      <trkpt lat="46.85848" lon="4.79741">
        <ele>268.35</ele>
        <time>2015-07-14T13:15:10.000Z</time>
      </trkpt>
      <trkpt lat="46.85856" lon="4.79735">
        <ele>268.83</ele>
        <time>2015-07-14T13:15:14.000Z</time>
      </trkpt>
      <trkpt lat="46.8586" lon="4.7972">
        <ele>269.31</ele>
        <time>2015-07-14T13:15:17.000Z</time>
      </trkpt>
      <trkpt lat="46.85871" lon="4.79709">
        <ele>269.31</ele>
        <time>2015-07-14T13:15:20.000Z</time>
      </trkpt>
      <trkpt lat="46.85879" lon="4.79703">
        <ele>269.31</ele>
        <time>2015-07-14T13:15:22.000Z</time>
      </trkpt>
      <trkpt lat="46.85888" lon="4.79699">
        <ele>268.83</ele>
        <time>2015-07-14T13:15:24.000Z</time>
      </trkpt>
      <trkpt lat="46.85897" lon="4.79696">
        <ele>269.31</ele>
        <time>2015-07-14T13:15:26.000Z</time>
      </trkpt>
      <trkpt lat="46.85907" lon="4.79692">
        <ele>268.83</ele>
        <time>2015-07-14T13:15:28.000Z</time>
      </trkpt>
      <trkpt lat="46.85917" lon="4.79686">
        <ele>269.31</ele>
        <time>2015-07-14T13:15:30.000Z</time>
      </trkpt>
      <trkpt lat="46.85927" lon="4.79679">
        <ele>269.31</ele>
        <time>2015-07-14T13:15:32.000Z</time>
      </trkpt>
      <trkpt lat="46.85937" lon="4.79672">
        <ele>269.31</ele>
        <time>2015-07-14T13:15:34.000Z</time>
      </trkpt>
      <trkpt lat="46.85947" lon="4.79664">
        <ele>268.83</ele>
        <time>2015-07-14T13:15:36.000Z</time>
      </trkpt>
      <trkpt lat="46.85958" lon="4.79657">
        <ele>268.83</ele>
        <time>2015-07-14T13:15:38.000Z</time>
      </trkpt>
      <trkpt lat="46.85968" lon="4.79651">
        <ele>269.31</ele>
        <time>2015-07-14T13:15:40.000Z</time>
      </trkpt>
      <trkpt lat="46.85979" lon="4.79644">
        <ele>269.31</ele>
        <time>2015-07-14T13:15:42.000Z</time>
      </trkpt>
      <trkpt lat="46.85991" lon="4.79637">
        <ele>268.83</ele>
        <time>2015-07-14T13:15:44.000Z</time>
      </trkpt>
      <trkpt lat="46.86002" lon="4.7963">
        <ele>269.31</ele>
        <time>2015-07-14T13:15:46.000Z</time>
      </trkpt>
      <trkpt lat="46.86013" lon="4.79624">
        <ele>269.31</ele>
        <time>2015-07-14T13:15:48.000Z</time>
      </trkpt>
      <trkpt lat="46.86024" lon="4.79617">
        <ele>269.31</ele>
        <time>2015-07-14T13:15:50.000Z</time>
      </trkpt>
      <trkpt lat="46.86035" lon="4.7961">
        <ele>269.31</ele>
        <time>2015-07-14T13:15:52.000Z</time>
      </trkpt>
      <trkpt lat="46.86047" lon="4.79602">
        <ele>268.35</ele>
        <time>2015-07-14T13:15:54.000Z</time>
      </trkpt>
      <trkpt lat="46.86059" lon="4.79595">
        <ele>268.35</ele>
        <time>2015-07-14T13:15:56.000Z</time>
      </trkpt>
      <trkpt lat="46.8607" lon="4.79587">
        <ele>268.35</ele>
        <time>2015-07-14T13:15:58.000Z</time>
      </trkpt>
      <trkpt lat="46.86082" lon="4.7958">
        <ele>268.35</ele>
        <time>2015-07-14T13:16:00.000Z</time>
      </trkpt>
      <trkpt lat="46.86093" lon="4.79573">
        <ele>268.35</ele>
        <time>2015-07-14T13:16:02.000Z</time>
      </trkpt>
      <trkpt lat="46.86104" lon="4.79565">
        <ele>267.86</ele>
        <time>2015-07-14T13:16:04.000Z</time>
      </trkpt>
      <trkpt lat="46.86115" lon="4.79557">
        <ele>268.35</ele>
        <time>2015-07-14T13:16:06.000Z</time>
      </trkpt>
      <trkpt lat="46.86126" lon="4.79548">
        <ele>268.83</ele>
        <time>2015-07-14T13:16:08.000Z</time>
      </trkpt>
      <trkpt lat="46.86137" lon="4.79538">
        <ele>268.83</ele>
        <time>2015-07-14T13:16:10.000Z</time>
      </trkpt>
      <trkpt lat="46.86147" lon="4.79529">
        <ele>269.31</ele>
        <time>2015-07-14T13:16:12.000Z</time>
      </trkpt>
      <trkpt lat="46.86156" lon="4.7952">
        <ele>269.31</ele>
        <time>2015-07-14T13:16:14.000Z</time>
      </trkpt>
      <trkpt lat="46.86166" lon="4.7951">
        <ele>269.31</ele>
        <time>2015-07-14T13:16:16.000Z</time>
      </trkpt>
      <trkpt lat="46.86177" lon="4.795">
        <ele>269.31</ele>
        <time>2015-07-14T13:16:18.000Z</time>
      </trkpt>
      <trkpt lat="46.86187" lon="4.7949">
        <ele>268.83</ele>
        <time>2015-07-14T13:16:20.000Z</time>
      </trkpt>
      <trkpt lat="46.86197" lon="4.79481">
        <ele>269.31</ele>
        <time>2015-07-14T13:16:22.000Z</time>
      </trkpt>
      <trkpt lat="46.86208" lon="4.79471">
        <ele>269.31</ele>
        <time>2015-07-14T13:16:24.000Z</time>
      </trkpt>
      <trkpt lat="46.86217" lon="4.79461">
        <ele>269.31</ele>
        <time>2015-07-14T13:16:26.000Z</time>
      </trkpt>
      <trkpt lat="46.86227" lon="4.7945">
        <ele>269.79</ele>
        <time>2015-07-14T13:16:28.000Z</time>
      </trkpt>
      <trkpt lat="46.86238" lon="4.7944">
        <ele>269.31</ele>
        <time>2015-07-14T13:16:30.000Z</time>
      </trkpt>
      <trkpt lat="46.86248" lon="4.7943">
        <ele>269.31</ele>
        <time>2015-07-14T13:16:32.000Z</time>
      </trkpt>
      <trkpt lat="46.86258" lon="4.79419">
        <ele>268.83</ele>
        <time>2015-07-14T13:16:34.000Z</time>
      </trkpt>
      <trkpt lat="46.86269" lon="4.79409">
        <ele>269.31</ele>
        <time>2015-07-14T13:16:36.000Z</time>
      </trkpt>
      <trkpt lat="46.86279" lon="4.79399">
        <ele>269.31</ele>
        <time>2015-07-14T13:16:38.000Z</time>
      </trkpt>
      <trkpt lat="46.86289" lon="4.79388">
        <ele>269.79</ele>
        <time>2015-07-14T13:16:40.000Z</time>
      </trkpt>
      <trkpt lat="46.86299" lon="4.79378">
        <ele>269.79</ele>
        <time>2015-07-14T13:16:42.000Z</time>
      </trkpt>
      <trkpt lat="46.86309" lon="4.79368">
        <ele>269.79</ele>
        <time>2015-07-14T13:16:44.000Z</time>
      </trkpt>
      <trkpt lat="46.86319" lon="4.79358">
        <ele>270.27</ele>
        <time>2015-07-14T13:16:46.000Z</time>
      </trkpt>
      <trkpt lat="46.86329" lon="4.79348">
        <ele>269.79</ele>
        <time>2015-07-14T13:16:48.000Z</time>
      </trkpt>
      <trkpt lat="46.8634" lon="4.79339">
        <ele>269.79</ele>
        <time>2015-07-14T13:16:50.000Z</time>
      </trkpt>
      <trkpt lat="46.8635" lon="4.79328">
        <ele>270.27</ele>
        <time>2015-07-14T13:16:52.000Z</time>
      </trkpt>
      <trkpt lat="46.86361" lon="4.79318">
        <ele>270.27</ele>
        <time>2015-07-14T13:16:54.000Z</time>
      </trkpt>
      <trkpt lat="46.86371" lon="4.79307">
        <ele>269.79</ele>
        <time>2015-07-14T13:16:56.000Z</time>
      </trkpt>
      <trkpt lat="46.86382" lon="4.79296">
        <ele>269.79</ele>
        <time>2015-07-14T13:16:58.000Z</time>
      </trkpt>
      <trkpt lat="46.86393" lon="4.79286">
        <ele>270.27</ele>
        <time>2015-07-14T13:17:00.000Z</time>
      </trkpt>
      <trkpt lat="46.86403" lon="4.79276">
        <ele>270.27</ele>
        <time>2015-07-14T13:17:02.000Z</time>
      </trkpt>
      <trkpt lat="46.86414" lon="4.79266">
        <ele>269.79</ele>
        <time>2015-07-14T13:17:04.000Z</time>
      </trkpt>
      <trkpt lat="46.86425" lon="4.79256">
        <ele>269.79</ele>
        <time>2015-07-14T13:17:06.000Z</time>
      </trkpt>
      <trkpt lat="46.86436" lon="4.79246">
        <ele>269.79</ele>
        <time>2015-07-14T13:17:08.000Z</time>
      </trkpt>
      <trkpt lat="46.86447" lon="4.79238">
        <ele>270.27</ele>
        <time>2015-07-14T13:17:10.000Z</time>
      </trkpt>
      <trkpt lat="46.86459" lon="4.79231">
        <ele>269.79</ele>
        <time>2015-07-14T13:17:12.000Z</time>
      </trkpt>
      <trkpt lat="46.86471" lon="4.79226">
        <ele>270.27</ele>
        <time>2015-07-14T13:17:14.000Z</time>
      </trkpt>
      <trkpt lat="46.86484" lon="4.79221">
        <ele>269.79</ele>
        <time>2015-07-14T13:17:16.000Z</time>
      </trkpt>
      <trkpt lat="46.86496" lon="4.79217">
        <ele>270.27</ele>
        <time>2015-07-14T13:17:18.000Z</time>
      </trkpt>
      <trkpt lat="46.86508" lon="4.79213">
        <ele>270.27</ele>
        <time>2015-07-14T13:17:20.000Z</time>
      </trkpt>
      <trkpt lat="46.86519" lon="4.7921">
        <ele>270.27</ele>
        <time>2015-07-14T13:17:22.000Z</time>
      </trkpt>
      <trkpt lat="46.86531" lon="4.79207">
        <ele>270.75</ele>
        <time>2015-07-14T13:17:24.000Z</time>
      </trkpt>
      <trkpt lat="46.86541" lon="4.79204">
        <ele>270.75</ele>
        <time>2015-07-14T13:17:26.000Z</time>
      </trkpt>
      <trkpt lat="46.86551" lon="4.79201">
        <ele>271.71</ele>
        <time>2015-07-14T13:17:28.000Z</time>
      </trkpt>
      <trkpt lat="46.86563" lon="4.79196">
        <ele>272.67</ele>
        <time>2015-07-14T13:17:31.000Z</time>
      </trkpt>
      <trkpt lat="46.86573" lon="4.79194">
        <ele>271.71</ele>
        <time>2015-07-14T13:17:33.000Z</time>
      </trkpt>
      <trkpt lat="46.86584" lon="4.79191">
        <ele>271.71</ele>
        <time>2015-07-14T13:17:35.000Z</time>
      </trkpt>
      <trkpt lat="46.86596" lon="4.79189">
        <ele>271.71</ele>
        <time>2015-07-14T13:17:37.000Z</time>
      </trkpt>
      <trkpt lat="46.86608" lon="4.79184">
        <ele>271.23</ele>
        <time>2015-07-14T13:17:39.000Z</time>
      </trkpt>
      <trkpt lat="46.8662" lon="4.79177">
        <ele>271.71</ele>
        <time>2015-07-14T13:17:41.000Z</time>
      </trkpt>
      <trkpt lat="46.86631" lon="4.79171">
        <ele>271.71</ele>
        <time>2015-07-14T13:17:43.000Z</time>
      </trkpt>
      <trkpt lat="46.86641" lon="4.79163">
        <ele>271.71</ele>
        <time>2015-07-14T13:17:45.000Z</time>
      </trkpt>
      <trkpt lat="46.86652" lon="4.79154">
        <ele>271.71</ele>
        <time>2015-07-14T13:17:47.000Z</time>
      </trkpt>
      <trkpt lat="46.86662" lon="4.79143">
        <ele>272.19</ele>
        <time>2015-07-14T13:17:49.000Z</time>
      </trkpt>
      <trkpt lat="46.8667" lon="4.79131">
        <ele>272.19</ele>
        <time>2015-07-14T13:17:51.000Z</time>
      </trkpt>
      <trkpt lat="46.86679" lon="4.7912">
        <ele>271.71</ele>
        <time>2015-07-14T13:17:53.000Z</time>
      </trkpt>
      <trkpt lat="46.86688" lon="4.79108">
        <ele>272.19</ele>
        <time>2015-07-14T13:17:55.000Z</time>
      </trkpt>
      <trkpt lat="46.86698" lon="4.79097">
        <ele>271.71</ele>
        <time>2015-07-14T13:17:57.000Z</time>
      </trkpt>
      <trkpt lat="46.86707" lon="4.79086">
        <ele>271.71</ele>
        <time>2015-07-14T13:17:59.000Z</time>
      </trkpt>
      <trkpt lat="46.86716" lon="4.79074">
        <ele>271.71</ele>
        <time>2015-07-14T13:18:01.000Z</time>
      </trkpt>
      <trkpt lat="46.86725" lon="4.79062">
        <ele>271.71</ele>
        <time>2015-07-14T13:18:03.000Z</time>
      </trkpt>
      <trkpt lat="46.86734" lon="4.79049">
        <ele>271.71</ele>
        <time>2015-07-14T13:18:05.000Z</time>
      </trkpt>
      <trkpt lat="46.86742" lon="4.79036">
        <ele>271.71</ele>
        <time>2015-07-14T13:18:07.000Z</time>
      </trkpt>
      <trkpt lat="46.86749" lon="4.79023">
        <ele>271.71</ele>
        <time>2015-07-14T13:18:09.000Z</time>
      </trkpt>
      <trkpt lat="46.86754" lon="4.79007">
        <ele>271.71</ele>
        <time>2015-07-14T13:18:11.000Z</time>
      </trkpt>
      <trkpt lat="46.86758" lon="4.78991">
        <ele>271.71</ele>
        <time>2015-07-14T13:18:13.000Z</time>
      </trkpt>
      <trkpt lat="46.86762" lon="4.78973">
        <ele>271.71</ele>
        <time>2015-07-14T13:18:15.000Z</time>
      </trkpt>
      <trkpt lat="46.86765" lon="4.78955">
        <ele>272.19</ele>
        <time>2015-07-14T13:18:17.000Z</time>
      </trkpt>
      <trkpt lat="46.86766" lon="4.78937">
        <ele>271.71</ele>
        <time>2015-07-14T13:18:19.000Z</time>
      </trkpt>
      <trkpt lat="46.86769" lon="4.7892">
        <ele>271.23</ele>
        <time>2015-07-14T13:18:21.000Z</time>
      </trkpt>
      <trkpt lat="46.86774" lon="4.78903">
        <ele>271.71</ele>
        <time>2015-07-14T13:18:23.000Z</time>
      </trkpt>
      <trkpt lat="46.86779" lon="4.78887">
        <ele>272.19</ele>
        <time>2015-07-14T13:18:25.000Z</time>
      </trkpt>
      <trkpt lat="46.86787" lon="4.78873">
        <ele>271.23</ele>
        <time>2015-07-14T13:18:27.000Z</time>
      </trkpt>
      <trkpt lat="46.86795" lon="4.7886">
        <ele>271.71</ele>
        <time>2015-07-14T13:18:29.000Z</time>
      </trkpt>
      <trkpt lat="46.86802" lon="4.78847">
        <ele>272.67</ele>
        <time>2015-07-14T13:18:31.000Z</time>
      </trkpt>
      <trkpt lat="46.8681" lon="4.78834">
        <ele>271.71</ele>
        <time>2015-07-14T13:18:33.000Z</time>
      </trkpt>
      <trkpt lat="46.86818" lon="4.78821">
        <ele>271.71</ele>
        <time>2015-07-14T13:18:35.000Z</time>
      </trkpt>
      <trkpt lat="46.86827" lon="4.78807">
        <ele>271.71</ele>
        <time>2015-07-14T13:18:37.000Z</time>
      </trkpt>
      <trkpt lat="46.86835" lon="4.78794">
        <ele>271.71</ele>
        <time>2015-07-14T13:18:39.000Z</time>
      </trkpt>
      <trkpt lat="46.86844" lon="4.7878">
        <ele>271.23</ele>
        <time>2015-07-14T13:18:41.000Z</time>
      </trkpt>
      <trkpt lat="46.86852" lon="4.78767">
        <ele>271.23</ele>
        <time>2015-07-14T13:18:43.000Z</time>
      </trkpt>
      <trkpt lat="46.8686" lon="4.78753">
        <ele>272.67</ele>
        <time>2015-07-14T13:18:45.000Z</time>
      </trkpt>
      <trkpt lat="46.86869" lon="4.7874">
        <ele>271.23</ele>
        <time>2015-07-14T13:18:47.000Z</time>
      </trkpt>
      <trkpt lat="46.86877" lon="4.78727">
        <ele>271.71</ele>
        <time>2015-07-14T13:18:49.000Z</time>
      </trkpt>
      <trkpt lat="46.86886" lon="4.78714">
        <ele>271.71</ele>
        <time>2015-07-14T13:18:51.000Z</time>
      </trkpt>
      <trkpt lat="46.86894" lon="4.78701">
        <ele>271.71</ele>
        <time>2015-07-14T13:18:53.000Z</time>
      </trkpt>
      <trkpt lat="46.86903" lon="4.78689">
        <ele>271.71</ele>
        <time>2015-07-14T13:18:55.000Z</time>
      </trkpt>
      <trkpt lat="46.86912" lon="4.78677">
        <ele>271.71</ele>
        <time>2015-07-14T13:18:57.000Z</time>
      </trkpt>
      <trkpt lat="46.86922" lon="4.78668">
        <ele>271.71</ele>
        <time>2015-07-14T13:18:59.000Z</time>
      </trkpt>
      <trkpt lat="46.86935" lon="4.78663">
        <ele>271.71</ele>
        <time>2015-07-14T13:19:01.000Z</time>
      </trkpt>
      <trkpt lat="46.86947" lon="4.78659">
        <ele>272.19</ele>
        <time>2015-07-14T13:19:03.000Z</time>
      </trkpt>
      <trkpt lat="46.86958" lon="4.78654">
        <ele>272.67</ele>
        <time>2015-07-14T13:19:05.000Z</time>
      </trkpt>
      <trkpt lat="46.86969" lon="4.7865">
        <ele>272.67</ele>
        <time>2015-07-14T13:19:07.000Z</time>
      </trkpt>
      <trkpt lat="46.86979" lon="4.78646">
        <ele>273.15</ele>
        <time>2015-07-14T13:19:09.000Z</time>
      </trkpt>
      <trkpt lat="46.86989" lon="4.78642">
        <ele>273.15</ele>
        <time>2015-07-14T13:19:11.000Z</time>
      </trkpt>
      <trkpt lat="46.86999" lon="4.78637">
        <ele>273.63</ele>
        <time>2015-07-14T13:19:13.000Z</time>
      </trkpt>
      <trkpt lat="46.87009" lon="4.78631">
        <ele>274.11</ele>
        <time>2015-07-14T13:19:15.000Z</time>
      </trkpt>
      <trkpt lat="46.87018" lon="4.78625">
        <ele>274.11</ele>
        <time>2015-07-14T13:19:17.000Z</time>
      </trkpt>
      <trkpt lat="46.87027" lon="4.78617">
        <ele>274.11</ele>
        <time>2015-07-14T13:19:19.000Z</time>
      </trkpt>
      <trkpt lat="46.87035" lon="4.78607">
        <ele>274.11</ele>
        <time>2015-07-14T13:19:21.000Z</time>
      </trkpt>
      <trkpt lat="46.87042" lon="4.78595">
        <ele>274.11</ele>
        <time>2015-07-14T13:19:23.000Z</time>
      </trkpt>
      <trkpt lat="46.87048" lon="4.78581">
        <ele>274.59</ele>
        <time>2015-07-14T13:19:25.000Z</time>
      </trkpt>
      <trkpt lat="46.87052" lon="4.78566">
        <ele>274.59</ele>
        <time>2015-07-14T13:19:27.000Z</time>
      </trkpt>
      <trkpt lat="46.87056" lon="4.78551">
        <ele>274.59</ele>
        <time>2015-07-14T13:19:29.000Z</time>
      </trkpt>
      <trkpt lat="46.87059" lon="4.78536">
        <ele>274.11</ele>
        <time>2015-07-14T13:19:31.000Z</time>
      </trkpt>
      <trkpt lat="46.87062" lon="4.7852">
        <ele>274.59</ele>
        <time>2015-07-14T13:19:33.000Z</time>
      </trkpt>
      <trkpt lat="46.87065" lon="4.78505">
        <ele>274.59</ele>
        <time>2015-07-14T13:19:35.000Z</time>
      </trkpt>
      <trkpt lat="46.87069" lon="4.7849">
        <ele>274.11</ele>
        <time>2015-07-14T13:19:37.000Z</time>
      </trkpt>
      <trkpt lat="46.87072" lon="4.78474">
        <ele>274.11</ele>
        <time>2015-07-14T13:19:39.000Z</time>
      </trkpt>
      <trkpt lat="46.87075" lon="4.78459">
        <ele>274.59</ele>
        <time>2015-07-14T13:19:41.000Z</time>
      </trkpt>
      <trkpt lat="46.87078" lon="4.78444">
        <ele>273.63</ele>
        <time>2015-07-14T13:19:43.000Z</time>
      </trkpt>
      <trkpt lat="46.87081" lon="4.7843">
        <ele>273.63</ele>
        <time>2015-07-14T13:19:45.000Z</time>
      </trkpt>
      <trkpt lat="46.87085" lon="4.78415">
        <ele>273.63</ele>
        <time>2015-07-14T13:19:47.000Z</time>
      </trkpt>
      <trkpt lat="46.87088" lon="4.784">
        <ele>274.11</ele>
        <time>2015-07-14T13:19:49.000Z</time>
      </trkpt>
      <trkpt lat="46.87093" lon="4.78386">
        <ele>273.63</ele>
        <time>2015-07-14T13:19:51.000Z</time>
      </trkpt>
      <trkpt lat="46.87099" lon="4.78372">
        <ele>273.63</ele>
        <time>2015-07-14T13:19:53.000Z</time>
      </trkpt>
      <trkpt lat="46.87104" lon="4.78358">
        <ele>273.63</ele>
        <time>2015-07-14T13:19:55.000Z</time>
      </trkpt>
      <trkpt lat="46.87109" lon="4.78344">
        <ele>274.59</ele>
        <time>2015-07-14T13:19:57.000Z</time>
      </trkpt>
      <trkpt lat="46.87115" lon="4.7833">
        <ele>274.59</ele>
        <time>2015-07-14T13:19:59.000Z</time>
      </trkpt>
      <trkpt lat="46.8712" lon="4.78315">
        <ele>274.11</ele>
        <time>2015-07-14T13:20:01.000Z</time>
      </trkpt>
      <trkpt lat="46.87125" lon="4.78301">
        <ele>274.59</ele>
        <time>2015-07-14T13:20:03.000Z</time>
      </trkpt>
      <trkpt lat="46.8713" lon="4.78288">
        <ele>274.11</ele>
        <time>2015-07-14T13:20:05.000Z</time>
      </trkpt>
      <trkpt lat="46.87134" lon="4.78275">
        <ele>274.59</ele>
        <time>2015-07-14T13:20:07.000Z</time>
      </trkpt>
      <trkpt lat="46.8714" lon="4.78257">
        <ele>274.59</ele>
        <time>2015-07-14T13:20:10.000Z</time>
      </trkpt>
      <trkpt lat="46.87144" lon="4.78244">
        <ele>274.59</ele>
        <time>2015-07-14T13:20:12.000Z</time>
      </trkpt>
      <trkpt lat="46.87148" lon="4.7823">
        <ele>274.59</ele>
        <time>2015-07-14T13:20:14.000Z</time>
      </trkpt>
      <trkpt lat="46.87151" lon="4.78215">
        <ele>274.59</ele>
        <time>2015-07-14T13:20:16.000Z</time>
      </trkpt>
      <trkpt lat="46.87153" lon="4.78201">
        <ele>274.59</ele>
        <time>2015-07-14T13:20:18.000Z</time>
      </trkpt>
      <trkpt lat="46.87156" lon="4.78186">
        <ele>274.59</ele>
        <time>2015-07-14T13:20:20.000Z</time>
      </trkpt>
      <trkpt lat="46.87159" lon="4.78171">
        <ele>274.11</ele>
        <time>2015-07-14T13:20:22.000Z</time>
      </trkpt>
      <trkpt lat="46.87162" lon="4.78156">
        <ele>274.59</ele>
        <time>2015-07-14T13:20:24.000Z</time>
      </trkpt>
      <trkpt lat="46.87165" lon="4.7814">
        <ele>274.59</ele>
        <time>2015-07-14T13:20:26.000Z</time>
      </trkpt>
      <trkpt lat="46.87168" lon="4.78125">
        <ele>274.11</ele>
        <time>2015-07-14T13:20:28.000Z</time>
      </trkpt>
      <trkpt lat="46.8717" lon="4.7811">
        <ele>274.59</ele>
        <time>2015-07-14T13:20:30.000Z</time>
      </trkpt>
      <trkpt lat="46.87173" lon="4.78096">
        <ele>275.07</ele>
        <time>2015-07-14T13:20:32.000Z</time>
      </trkpt>
      <trkpt lat="46.87176" lon="4.78081">
        <ele>274.59</ele>
        <time>2015-07-14T13:20:34.000Z</time>
      </trkpt>
      <trkpt lat="46.87178" lon="4.78067">
        <ele>274.59</ele>
        <time>2015-07-14T13:20:36.000Z</time>
      </trkpt>
      <trkpt lat="46.87182" lon="4.78052">
        <ele>274.11</ele>
        <time>2015-07-14T13:20:38.000Z</time>
      </trkpt>
      <trkpt lat="46.87185" lon="4.78038">
        <ele>274.11</ele>
        <time>2015-07-14T13:20:40.000Z</time>
      </trkpt>
      <trkpt lat="46.87188" lon="4.78023">
        <ele>274.11</ele>
        <time>2015-07-14T13:20:42.000Z</time>
      </trkpt>
      <trkpt lat="46.87193" lon="4.78011">
        <ele>274.11</ele>
        <time>2015-07-14T13:20:44.000Z</time>
      </trkpt>
      <trkpt lat="46.87199" lon="4.78">
        <ele>274.11</ele>
        <time>2015-07-14T13:20:46.000Z</time>
      </trkpt>
      <trkpt lat="46.87207" lon="4.77989">
        <ele>274.11</ele>
        <time>2015-07-14T13:20:48.000Z</time>
      </trkpt>
      <trkpt lat="46.87215" lon="4.77981">
        <ele>274.59</ele>
        <time>2015-07-14T13:20:50.000Z</time>
      </trkpt>
      <trkpt lat="46.87224" lon="4.77975">
        <ele>275.07</ele>
        <time>2015-07-14T13:20:52.000Z</time>
      </trkpt>
      <trkpt lat="46.87233" lon="4.77969">
        <ele>275.07</ele>
        <time>2015-07-14T13:20:54.000Z</time>
      </trkpt>
      <trkpt lat="46.87243" lon="4.77964">
        <ele>274.59</ele>
        <time>2015-07-14T13:20:56.000Z</time>
      </trkpt>
      <trkpt lat="46.87252" lon="4.77959">
        <ele>275.07</ele>
        <time>2015-07-14T13:20:58.000Z</time>
      </trkpt>
      <trkpt lat="46.87261" lon="4.77953">
        <ele>275.07</ele>
        <time>2015-07-14T13:21:00.000Z</time>
      </trkpt>
      <trkpt lat="46.8727" lon="4.77948">
        <ele>275.07</ele>
        <time>2015-07-14T13:21:02.000Z</time>
      </trkpt>
      <trkpt lat="46.8728" lon="4.77943">
        <ele>275.07</ele>
        <time>2015-07-14T13:21:04.000Z</time>
      </trkpt>
      <trkpt lat="46.87288" lon="4.77938">
        <ele>275.56</ele>
        <time>2015-07-14T13:21:06.000Z</time>
      </trkpt>
      <trkpt lat="46.87297" lon="4.77934">
        <ele>276.04</ele>
        <time>2015-07-14T13:21:08.000Z</time>
      </trkpt>
      <trkpt lat="46.87305" lon="4.77928">
        <ele>275.56</ele>
        <time>2015-07-14T13:21:10.000Z</time>
      </trkpt>
      <trkpt lat="46.87314" lon="4.77923">
        <ele>276.52</ele>
        <time>2015-07-14T13:21:12.000Z</time>
      </trkpt>
      <trkpt lat="46.87322" lon="4.77917">
        <ele>277</ele>
        <time>2015-07-14T13:21:14.000Z</time>
      </trkpt>
      <trkpt lat="46.87331" lon="4.77911">
        <ele>276.52</ele>
        <time>2015-07-14T13:21:16.000Z</time>
      </trkpt>
      <trkpt lat="46.8734" lon="4.77905">
        <ele>277</ele>
        <time>2015-07-14T13:21:18.000Z</time>
      </trkpt>
      <trkpt lat="46.87349" lon="4.77898">
        <ele>276.52</ele>
        <time>2015-07-14T13:21:20.000Z</time>
      </trkpt>
      <trkpt lat="46.87358" lon="4.7789">
        <ele>277</ele>
        <time>2015-07-14T13:21:22.000Z</time>
      </trkpt>
      <trkpt lat="46.87367" lon="4.77882">
        <ele>277.48</ele>
        <time>2015-07-14T13:21:24.000Z</time>
      </trkpt>
      <trkpt lat="46.87376" lon="4.77874">
        <ele>277</ele>
        <time>2015-07-14T13:21:26.000Z</time>
      </trkpt>
      <trkpt lat="46.87385" lon="4.77865">
        <ele>277</ele>
        <time>2015-07-14T13:21:28.000Z</time>
      </trkpt>
      <trkpt lat="46.87395" lon="4.77857">
        <ele>277</ele>
        <time>2015-07-14T13:21:30.000Z</time>
      </trkpt>
      <trkpt lat="46.87404" lon="4.77849">
        <ele>277</ele>
        <time>2015-07-14T13:21:32.000Z</time>
      </trkpt>
      <trkpt lat="46.87413" lon="4.7784">
        <ele>277</ele>
        <time>2015-07-14T13:21:34.000Z</time>
      </trkpt>
      <trkpt lat="46.87422" lon="4.77832">
        <ele>277</ele>
        <time>2015-07-14T13:21:36.000Z</time>
      </trkpt>
      <trkpt lat="46.87432" lon="4.77824">
        <ele>277</ele>
        <time>2015-07-14T13:21:38.000Z</time>
      </trkpt>
      <trkpt lat="46.87441" lon="4.77815">
        <ele>276.52</ele>
        <time>2015-07-14T13:21:40.000Z</time>
      </trkpt>
      <trkpt lat="46.8745" lon="4.77807">
        <ele>276.52</ele>
        <time>2015-07-14T13:21:42.000Z</time>
      </trkpt>
      <trkpt lat="46.87459" lon="4.77798">
        <ele>277</ele>
        <time>2015-07-14T13:21:44.000Z</time>
      </trkpt>
      <trkpt lat="46.87468" lon="4.77789">
        <ele>277</ele>
        <time>2015-07-14T13:21:46.000Z</time>
      </trkpt>
      <trkpt lat="46.87477" lon="4.77781">
        <ele>277</ele>
        <time>2015-07-14T13:21:48.000Z</time>
      </trkpt>
      <trkpt lat="46.87486" lon="4.77772">
        <ele>276.52</ele>
        <time>2015-07-14T13:21:50.000Z</time>
      </trkpt>
      <trkpt lat="46.87495" lon="4.77764">
        <ele>277</ele>
        <time>2015-07-14T13:21:52.000Z</time>
      </trkpt>
      <trkpt lat="46.87504" lon="4.77754">
        <ele>277</ele>
        <time>2015-07-14T13:21:54.000Z</time>
      </trkpt>
      <trkpt lat="46.87513" lon="4.77745">
        <ele>276.04</ele>
        <time>2015-07-14T13:21:56.000Z</time>
      </trkpt>
      <trkpt lat="46.87521" lon="4.77736">
        <ele>276.52</ele>
        <time>2015-07-14T13:21:58.000Z</time>
      </trkpt>
      <trkpt lat="46.8753" lon="4.77727">
        <ele>276.52</ele>
        <time>2015-07-14T13:22:00.000Z</time>
      </trkpt>
      <trkpt lat="46.87539" lon="4.77717">
        <ele>276.52</ele>
        <time>2015-07-14T13:22:02.000Z</time>
      </trkpt>
      <trkpt lat="46.87548" lon="4.77707">
        <ele>276.52</ele>
        <time>2015-07-14T13:22:04.000Z</time>
      </trkpt>
      <trkpt lat="46.87556" lon="4.77696">
        <ele>276.52</ele>
        <time>2015-07-14T13:22:06.000Z</time>
      </trkpt>
      <trkpt lat="46.87564" lon="4.77684">
        <ele>277</ele>
        <time>2015-07-14T13:22:08.000Z</time>
      </trkpt>
      <trkpt lat="46.87571" lon="4.77669">
        <ele>276.52</ele>
        <time>2015-07-14T13:22:10.000Z</time>
      </trkpt>
      <trkpt lat="46.87576" lon="4.77654">
        <ele>276.52</ele>
        <time>2015-07-14T13:22:12.000Z</time>
      </trkpt>
      <trkpt lat="46.87579" lon="4.77639">
        <ele>276.52</ele>
        <time>2015-07-14T13:22:14.000Z</time>
      </trkpt>
      <trkpt lat="46.87583" lon="4.77623">
        <ele>276.52</ele>
        <time>2015-07-14T13:22:16.000Z</time>
      </trkpt>
      <trkpt lat="46.87585" lon="4.77608">
        <ele>277</ele>
        <time>2015-07-14T13:22:18.000Z</time>
      </trkpt>
      <trkpt lat="46.87587" lon="4.77593">
        <ele>277</ele>
        <time>2015-07-14T13:22:20.000Z</time>
      </trkpt>
      <trkpt lat="46.87589" lon="4.77579">
        <ele>277.48</ele>
        <time>2015-07-14T13:22:22.000Z</time>
      </trkpt>
      <trkpt lat="46.8759" lon="4.77565">
        <ele>277.96</ele>
        <time>2015-07-14T13:22:24.000Z</time>
      </trkpt>
      <trkpt lat="46.87593" lon="4.77549">
        <ele>278.44</ele>
        <time>2015-07-14T13:22:27.000Z</time>
      </trkpt>
      <trkpt lat="46.87596" lon="4.77534">
        <ele>279.4</ele>
        <time>2015-07-14T13:22:30.000Z</time>
      </trkpt>
      <trkpt lat="46.87599" lon="4.77521">
        <ele>279.88</ele>
        <time>2015-07-14T13:22:33.000Z</time>
      </trkpt>
      <trkpt lat="46.87601" lon="4.77507">
        <ele>280.36</ele>
        <time>2015-07-14T13:22:36.000Z</time>
      </trkpt>
      <trkpt lat="46.87603" lon="4.77492">
        <ele>280.36</ele>
        <time>2015-07-14T13:22:39.000Z</time>
      </trkpt>
      <trkpt lat="46.87605" lon="4.77477">
        <ele>280.36</ele>
        <time>2015-07-14T13:22:42.000Z</time>
      </trkpt>
      <trkpt lat="46.87605" lon="4.77463">
        <ele>280.84</ele>
        <time>2015-07-14T13:22:45.000Z</time>
      </trkpt>
      <trkpt lat="46.87608" lon="4.77447">
        <ele>280.84</ele>
        <time>2015-07-14T13:22:48.000Z</time>
      </trkpt>
      <trkpt lat="46.87611" lon="4.77429">
        <ele>280.84</ele>
        <time>2015-07-14T13:22:51.000Z</time>
      </trkpt>
      <trkpt lat="46.87614" lon="4.77411">
        <ele>281.32</ele>
        <time>2015-07-14T13:22:54.000Z</time>
      </trkpt>
      <trkpt lat="46.87617" lon="4.77392">
        <ele>281.32</ele>
        <time>2015-07-14T13:22:57.000Z</time>
      </trkpt>
      <trkpt lat="46.87621" lon="4.77374">
        <ele>281.8</ele>
        <time>2015-07-14T13:23:00.000Z</time>
      </trkpt>
      <trkpt lat="46.87627" lon="4.77356">
        <ele>281.8</ele>
        <time>2015-07-14T13:23:03.000Z</time>
      </trkpt>
      <trkpt lat="46.87633" lon="4.77346">
        <ele>281.32</ele>
        <time>2015-07-14T13:23:05.000Z</time>
      </trkpt>
      <trkpt lat="46.8764" lon="4.77337">
        <ele>281.32</ele>
        <time>2015-07-14T13:23:07.000Z</time>
      </trkpt>
      <trkpt lat="46.87648" lon="4.77329">
        <ele>281.32</ele>
        <time>2015-07-14T13:23:09.000Z</time>
      </trkpt>
      <trkpt lat="46.87656" lon="4.77322">
        <ele>281.8</ele>
        <time>2015-07-14T13:23:11.000Z</time>
      </trkpt>
      <trkpt lat="46.87664" lon="4.77316">
        <ele>281.8</ele>
        <time>2015-07-14T13:23:13.000Z</time>
      </trkpt>
      <trkpt lat="46.87673" lon="4.7731">
        <ele>281.32</ele>
        <time>2015-07-14T13:23:15.000Z</time>
      </trkpt>
      <trkpt lat="46.87682" lon="4.77304">
        <ele>281.32</ele>
        <time>2015-07-14T13:23:17.000Z</time>
      </trkpt>
      <trkpt lat="46.8769" lon="4.77297">
        <ele>281.8</ele>
        <time>2015-07-14T13:23:19.000Z</time>
      </trkpt>
      <trkpt lat="46.87699" lon="4.7729">
        <ele>281.32</ele>
        <time>2015-07-14T13:23:21.000Z</time>
      </trkpt>
      <trkpt lat="46.87708" lon="4.77282">
        <ele>281.32</ele>
        <time>2015-07-14T13:23:23.000Z</time>
      </trkpt>
      <trkpt lat="46.87717" lon="4.77275">
        <ele>281.32</ele>
        <time>2015-07-14T13:23:25.000Z</time>
      </trkpt>
      <trkpt lat="46.87726" lon="4.77267">
        <ele>281.32</ele>
        <time>2015-07-14T13:23:27.000Z</time>
      </trkpt>
      <trkpt lat="46.87734" lon="4.77259">
        <ele>281.32</ele>
        <time>2015-07-14T13:23:29.000Z</time>
      </trkpt>
      <trkpt lat="46.87743" lon="4.77252">
        <ele>281.32</ele>
        <time>2015-07-14T13:23:31.000Z</time>
      </trkpt>
      <trkpt lat="46.87751" lon="4.77244">
        <ele>281.32</ele>
        <time>2015-07-14T13:23:33.000Z</time>
      </trkpt>
      <trkpt lat="46.8776" lon="4.77237">
        <ele>281.32</ele>
        <time>2015-07-14T13:23:35.000Z</time>
      </trkpt>
      <trkpt lat="46.87769" lon="4.77229">
        <ele>281.8</ele>
        <time>2015-07-14T13:23:37.000Z</time>
      </trkpt>
      <trkpt lat="46.87777" lon="4.77221">
        <ele>281.32</ele>
        <time>2015-07-14T13:23:39.000Z</time>
      </trkpt>
      <trkpt lat="46.87785" lon="4.77212">
        <ele>281.8</ele>
        <time>2015-07-14T13:23:41.000Z</time>
      </trkpt>
      <trkpt lat="46.87793" lon="4.77203">
        <ele>281.8</ele>
        <time>2015-07-14T13:23:43.000Z</time>
      </trkpt>
      <trkpt lat="46.878" lon="4.77193">
        <ele>281.8</ele>
        <time>2015-07-14T13:23:45.000Z</time>
      </trkpt>
      <trkpt lat="46.87807" lon="4.77182">
        <ele>281.8</ele>
        <time>2015-07-14T13:23:47.000Z</time>
      </trkpt>
      <trkpt lat="46.87813" lon="4.77171">
        <ele>281.8</ele>
        <time>2015-07-14T13:23:49.000Z</time>
      </trkpt>
      <trkpt lat="46.87819" lon="4.7716">
        <ele>281.8</ele>
        <time>2015-07-14T13:23:51.000Z</time>
      </trkpt>
      <trkpt lat="46.87825" lon="4.77149">
        <ele>281.8</ele>
        <time>2015-07-14T13:23:53.000Z</time>
      </trkpt>
      <trkpt lat="46.87831" lon="4.77138">
        <ele>281.8</ele>
        <time>2015-07-14T13:23:55.000Z</time>
      </trkpt>
      <trkpt lat="46.87836" lon="4.77126">
        <ele>282.28</ele>
        <time>2015-07-14T13:23:57.000Z</time>
      </trkpt>
      <trkpt lat="46.87841" lon="4.77115">
        <ele>282.28</ele>
        <time>2015-07-14T13:23:59.000Z</time>
      </trkpt>
      <trkpt lat="46.87847" lon="4.77104">
        <ele>282.28</ele>
        <time>2015-07-14T13:24:01.000Z</time>
      </trkpt>
      <trkpt lat="46.87854" lon="4.77088">
        <ele>282.77</ele>
        <time>2015-07-14T13:24:04.000Z</time>
      </trkpt>
      <trkpt lat="46.87862" lon="4.77075">
        <ele>283.25</ele>
        <time>2015-07-14T13:24:07.000Z</time>
      </trkpt>
      <trkpt lat="46.87868" lon="4.77063">
        <ele>284.21</ele>
        <time>2015-07-14T13:24:10.000Z</time>
      </trkpt>
      <trkpt lat="46.87874" lon="4.77054">
        <ele>284.69</ele>
        <time>2015-07-14T13:24:13.000Z</time>
      </trkpt>
      <trkpt lat="46.87882" lon="4.77041">
        <ele>285.65</ele>
        <time>2015-07-14T13:24:17.000Z</time>
      </trkpt>
      <trkpt lat="46.87888" lon="4.7703">
        <ele>286.13</ele>
        <time>2015-07-14T13:24:20.000Z</time>
      </trkpt>
      <trkpt lat="46.87894" lon="4.77017">
        <ele>285.65</ele>
        <time>2015-07-14T13:24:23.000Z</time>
      </trkpt>
      <trkpt lat="46.87899" lon="4.77003">
        <ele>285.65</ele>
        <time>2015-07-14T13:24:26.000Z</time>
      </trkpt>
      <trkpt lat="46.87905" lon="4.7699">
        <ele>286.61</ele>
        <time>2015-07-14T13:24:29.000Z</time>
      </trkpt>
      <trkpt lat="46.87911" lon="4.76975">
        <ele>286.61</ele>
        <time>2015-07-14T13:24:32.000Z</time>
      </trkpt>
      <trkpt lat="46.87917" lon="4.76961">
        <ele>286.61</ele>
        <time>2015-07-14T13:24:35.000Z</time>
      </trkpt>
      <trkpt lat="46.87925" lon="4.76946">
        <ele>286.13</ele>
        <time>2015-07-14T13:24:38.000Z</time>
      </trkpt>
      <trkpt lat="46.87933" lon="4.76931">
        <ele>286.61</ele>
        <time>2015-07-14T13:24:41.000Z</time>
      </trkpt>
      <trkpt lat="46.8794" lon="4.76921">
        <ele>286.61</ele>
        <time>2015-07-14T13:24:43.000Z</time>
      </trkpt>
      <trkpt lat="46.87947" lon="4.76912">
        <ele>286.61</ele>
        <time>2015-07-14T13:24:45.000Z</time>
      </trkpt>
      <trkpt lat="46.87958" lon="4.76901">
        <ele>286.61</ele>
        <time>2015-07-14T13:24:48.000Z</time>
      </trkpt>
      <trkpt lat="46.87967" lon="4.76894">
        <ele>286.61</ele>
        <time>2015-07-14T13:24:50.000Z</time>
      </trkpt>
      <trkpt lat="46.87975" lon="4.76888">
        <ele>287.09</ele>
        <time>2015-07-14T13:24:52.000Z</time>
      </trkpt>
      <trkpt lat="46.87984" lon="4.76881">
        <ele>286.61</ele>
        <time>2015-07-14T13:24:54.000Z</time>
      </trkpt>
      <trkpt lat="46.87992" lon="4.76875">
        <ele>286.61</ele>
        <time>2015-07-14T13:24:56.000Z</time>
      </trkpt>
      <trkpt lat="46.88001" lon="4.76869">
        <ele>287.09</ele>
        <time>2015-07-14T13:24:58.000Z</time>
      </trkpt>
      <trkpt lat="46.8801" lon="4.76862">
        <ele>286.61</ele>
        <time>2015-07-14T13:25:00.000Z</time>
      </trkpt>
      <trkpt lat="46.88018" lon="4.76856">
        <ele>286.61</ele>
        <time>2015-07-14T13:25:02.000Z</time>
      </trkpt>
      <trkpt lat="46.88027" lon="4.76849">
        <ele>286.61</ele>
        <time>2015-07-14T13:25:04.000Z</time>
      </trkpt>
      <trkpt lat="46.88036" lon="4.76842">
        <ele>286.61</ele>
        <time>2015-07-14T13:25:06.000Z</time>
      </trkpt>
      <trkpt lat="46.88046" lon="4.76835">
        <ele>286.61</ele>
        <time>2015-07-14T13:25:08.000Z</time>
      </trkpt>
      <trkpt lat="46.88055" lon="4.76828">
        <ele>286.61</ele>
        <time>2015-07-14T13:25:10.000Z</time>
      </trkpt>
      <trkpt lat="46.88063" lon="4.76821">
        <ele>286.13</ele>
        <time>2015-07-14T13:25:12.000Z</time>
      </trkpt>
      <trkpt lat="46.88071" lon="4.76814">
        <ele>286.61</ele>
        <time>2015-07-14T13:25:14.000Z</time>
      </trkpt>
      <trkpt lat="46.88082" lon="4.76803">
        <ele>286.13</ele>
        <time>2015-07-14T13:25:17.000Z</time>
      </trkpt>
      <trkpt lat="46.8809" lon="4.76793">
        <ele>286.13</ele>
        <time>2015-07-14T13:25:20.000Z</time>
      </trkpt>
      <trkpt lat="46.88096" lon="4.7678">
        <ele>285.65</ele>
        <time>2015-07-14T13:26:31.000Z</time>
      </trkpt>
      <trkpt lat="46.88102" lon="4.76768">
        <ele>285.65</ele>
        <time>2015-07-14T13:26:35.000Z</time>
      </trkpt>
      <trkpt lat="46.88109" lon="4.76754">
        <ele>286.61</ele>
        <time>2015-07-14T13:26:39.000Z</time>
      </trkpt>
      <trkpt lat="46.88115" lon="4.7674">
        <ele>286.61</ele>
        <time>2015-07-14T13:26:42.000Z</time>
      </trkpt>
      <trkpt lat="46.88122" lon="4.76726">
        <ele>287.09</ele>
        <time>2015-07-14T13:26:45.000Z</time>
      </trkpt>
      <trkpt lat="46.88129" lon="4.76711">
        <ele>287.09</ele>
        <time>2015-07-14T13:26:48.000Z</time>
      </trkpt>
      <trkpt lat="46.88137" lon="4.76695">
        <ele>287.09</ele>
        <time>2015-07-14T13:26:51.000Z</time>
      </trkpt>
      <trkpt lat="46.88145" lon="4.76679">
        <ele>287.09</ele>
        <time>2015-07-14T13:26:54.000Z</time>
      </trkpt>
      <trkpt lat="46.88152" lon="4.76663">
        <ele>287.09</ele>
        <time>2015-07-14T13:26:57.000Z</time>
      </trkpt>
      <trkpt lat="46.88159" lon="4.76648">
        <ele>287.57</ele>
        <time>2015-07-14T13:27:00.000Z</time>
      </trkpt>
      <trkpt lat="46.88165" lon="4.76634">
        <ele>288.05</ele>
        <time>2015-07-14T13:27:03.000Z</time>
      </trkpt>
      <trkpt lat="46.88171" lon="4.76623">
        <ele>289.01</ele>
        <time>2015-07-14T13:27:06.000Z</time>
      </trkpt>
      <trkpt lat="46.88176" lon="4.76612">
        <ele>289.49</ele>
        <time>2015-07-14T13:27:10.000Z</time>
      </trkpt>
      <trkpt lat="46.88182" lon="4.76597">
        <ele>289.49</ele>
        <time>2015-07-14T13:27:14.000Z</time>
      </trkpt>
      <trkpt lat="46.88188" lon="4.76584">
        <ele>289.01</ele>
        <time>2015-07-14T13:27:17.000Z</time>
      </trkpt>
      <trkpt lat="46.88193" lon="4.76572">
        <ele>288.53</ele>
        <time>2015-07-14T13:27:20.000Z</time>
      </trkpt>
      <trkpt lat="46.88198" lon="4.76559">
        <ele>289.01</ele>
        <time>2015-07-14T13:27:23.000Z</time>
      </trkpt>
      <trkpt lat="46.88203" lon="4.76545">
        <ele>289.01</ele>
        <time>2015-07-14T13:27:26.000Z</time>
      </trkpt>
      <trkpt lat="46.8821" lon="4.76529">
        <ele>289.49</ele>
        <time>2015-07-14T13:27:29.000Z</time>
      </trkpt>
      <trkpt lat="46.88218" lon="4.76513">
        <ele>289.49</ele>
        <time>2015-07-14T13:27:32.000Z</time>
      </trkpt>
      <trkpt lat="46.88224" lon="4.76504">
        <ele>289.49</ele>
        <time>2015-07-14T13:27:34.000Z</time>
      </trkpt>
      <trkpt lat="46.88231" lon="4.76494">
        <ele>289.49</ele>
        <time>2015-07-14T13:27:36.000Z</time>
      </trkpt>
      <trkpt lat="46.88239" lon="4.76485">
        <ele>289.49</ele>
        <time>2015-07-14T13:27:38.000Z</time>
      </trkpt>
      <trkpt lat="46.88248" lon="4.76477">
        <ele>289.49</ele>
        <time>2015-07-14T13:27:40.000Z</time>
      </trkpt>
      <trkpt lat="46.88257" lon="4.76469">
        <ele>289.49</ele>
        <time>2015-07-14T13:27:42.000Z</time>
      </trkpt>
      <trkpt lat="46.88267" lon="4.76463">
        <ele>289.49</ele>
        <time>2015-07-14T13:27:44.000Z</time>
      </trkpt>
      <trkpt lat="46.88277" lon="4.76458">
        <ele>289.49</ele>
        <time>2015-07-14T13:27:46.000Z</time>
      </trkpt>
      <trkpt lat="46.88288" lon="4.76455">
        <ele>289.49</ele>
        <time>2015-07-14T13:27:48.000Z</time>
      </trkpt>
      <trkpt lat="46.88299" lon="4.76452">
        <ele>289.49</ele>
        <time>2015-07-14T13:27:50.000Z</time>
      </trkpt>
      <trkpt lat="46.8831" lon="4.76451">
        <ele>289.49</ele>
        <time>2015-07-14T13:27:52.000Z</time>
      </trkpt>
      <trkpt lat="46.88322" lon="4.76451">
        <ele>289.97</ele>
        <time>2015-07-14T13:27:54.000Z</time>
      </trkpt>
      <trkpt lat="46.88332" lon="4.76453">
        <ele>289.49</ele>
        <time>2015-07-14T13:27:56.000Z</time>
      </trkpt>
      <trkpt lat="46.88343" lon="4.76455">
        <ele>289.49</ele>
        <time>2015-07-14T13:27:58.000Z</time>
      </trkpt>
      <trkpt lat="46.88354" lon="4.76458">
        <ele>289.97</ele>
        <time>2015-07-14T13:28:00.000Z</time>
      </trkpt>
      <trkpt lat="46.88364" lon="4.76461">
        <ele>289.97</ele>
        <time>2015-07-14T13:28:02.000Z</time>
      </trkpt>
      <trkpt lat="46.88375" lon="4.76464">
        <ele>290.46</ele>
        <time>2015-07-14T13:28:04.000Z</time>
      </trkpt>
      <trkpt lat="46.88385" lon="4.76466">
        <ele>290.46</ele>
        <time>2015-07-14T13:28:06.000Z</time>
      </trkpt>
      <trkpt lat="46.88395" lon="4.76468">
        <ele>290.46</ele>
        <time>2015-07-14T13:28:08.000Z</time>
      </trkpt>
      <trkpt lat="46.88404" lon="4.76472">
        <ele>290.46</ele>
        <time>2015-07-14T13:28:10.000Z</time>
      </trkpt>
      <trkpt lat="46.88414" lon="4.76475">
        <ele>290.46</ele>
        <time>2015-07-14T13:28:12.000Z</time>
      </trkpt>
      <trkpt lat="46.88424" lon="4.76477">
        <ele>290.94</ele>
        <time>2015-07-14T13:28:14.000Z</time>
      </trkpt>
      <trkpt lat="46.88433" lon="4.7648">
        <ele>290.46</ele>
        <time>2015-07-14T13:28:16.000Z</time>
      </trkpt>
      <trkpt lat="46.88443" lon="4.76483">
        <ele>289.97</ele>
        <time>2015-07-14T13:28:18.000Z</time>
      </trkpt>
      <trkpt lat="46.88452" lon="4.76485">
        <ele>290.46</ele>
        <time>2015-07-14T13:28:20.000Z</time>
      </trkpt>
      <trkpt lat="46.88462" lon="4.76488">
        <ele>289.97</ele>
        <time>2015-07-14T13:28:22.000Z</time>
      </trkpt>
      <trkpt lat="46.88472" lon="4.7649">
        <ele>289.97</ele>
        <time>2015-07-14T13:28:24.000Z</time>
      </trkpt>
      <trkpt lat="46.88482" lon="4.76492">
        <ele>289.97</ele>
        <time>2015-07-14T13:28:26.000Z</time>
      </trkpt>
      <trkpt lat="46.88492" lon="4.76493">
        <ele>289.97</ele>
        <time>2015-07-14T13:28:28.000Z</time>
      </trkpt>
      <trkpt lat="46.88502" lon="4.76495">
        <ele>291.42</ele>
        <time>2015-07-14T13:28:30.000Z</time>
      </trkpt>
      <trkpt lat="46.88512" lon="4.76497">
        <ele>291.42</ele>
        <time>2015-07-14T13:28:32.000Z</time>
      </trkpt>
      <trkpt lat="46.88522" lon="4.76498">
        <ele>291.42</ele>
        <time>2015-07-14T13:28:34.000Z</time>
      </trkpt>
      <trkpt lat="46.88533" lon="4.765">
        <ele>292.86</ele>
        <time>2015-07-14T13:28:37.000Z</time>
      </trkpt>
      <trkpt lat="46.88544" lon="4.76501">
        <ele>293.82</ele>
        <time>2015-07-14T13:28:40.000Z</time>
      </trkpt>
      <trkpt lat="46.88553" lon="4.76503">
        <ele>293.82</ele>
        <time>2015-07-14T13:28:43.000Z</time>
      </trkpt>
      <trkpt lat="46.88564" lon="4.76504">
        <ele>294.3</ele>
        <time>2015-07-14T13:28:46.000Z</time>
      </trkpt>
      <trkpt lat="46.88576" lon="4.76503">
        <ele>294.78</ele>
        <time>2015-07-14T13:28:49.000Z</time>
      </trkpt>
      <trkpt lat="46.88589" lon="4.76501">
        <ele>294.78</ele>
        <time>2015-07-14T13:28:52.000Z</time>
      </trkpt>
      <trkpt lat="46.88602" lon="4.765">
        <ele>294.78</ele>
        <time>2015-07-14T13:28:55.000Z</time>
      </trkpt>
      <trkpt lat="46.88615" lon="4.76498">
        <ele>294.78</ele>
        <time>2015-07-14T13:28:58.000Z</time>
      </trkpt>
      <trkpt lat="46.88624" lon="4.76496">
        <ele>294.78</ele>
        <time>2015-07-14T13:29:00.000Z</time>
      </trkpt>
      <trkpt lat="46.88633" lon="4.76494">
        <ele>294.3</ele>
        <time>2015-07-14T13:29:02.000Z</time>
      </trkpt>
      <trkpt lat="46.88643" lon="4.76492">
        <ele>294.78</ele>
        <time>2015-07-14T13:29:04.000Z</time>
      </trkpt>
      <trkpt lat="46.88652" lon="4.7649">
        <ele>295.26</ele>
        <time>2015-07-14T13:29:06.000Z</time>
      </trkpt>
      <trkpt lat="46.88662" lon="4.76486">
        <ele>295.26</ele>
        <time>2015-07-14T13:29:08.000Z</time>
      </trkpt>
      <trkpt lat="46.88671" lon="4.76483">
        <ele>294.3</ele>
        <time>2015-07-14T13:29:10.000Z</time>
      </trkpt>
      <trkpt lat="46.88681" lon="4.7648">
        <ele>294.78</ele>
        <time>2015-07-14T13:29:12.000Z</time>
      </trkpt>
      <trkpt lat="46.8869" lon="4.76475">
        <ele>294.3</ele>
        <time>2015-07-14T13:29:14.000Z</time>
      </trkpt>
      <trkpt lat="46.887" lon="4.76472">
        <ele>294.78</ele>
        <time>2015-07-14T13:29:16.000Z</time>
      </trkpt>
      <trkpt lat="46.88709" lon="4.76467">
        <ele>294.78</ele>
        <time>2015-07-14T13:29:18.000Z</time>
      </trkpt>
      <trkpt lat="46.88718" lon="4.76464">
        <ele>294.78</ele>
        <time>2015-07-14T13:29:20.000Z</time>
      </trkpt>
      <trkpt lat="46.88728" lon="4.7646">
        <ele>295.26</ele>
        <time>2015-07-14T13:29:22.000Z</time>
      </trkpt>
      <trkpt lat="46.88737" lon="4.76455">
        <ele>295.26</ele>
        <time>2015-07-14T13:29:24.000Z</time>
      </trkpt>
      <trkpt lat="46.88746" lon="4.76451">
        <ele>295.26</ele>
        <time>2015-07-14T13:29:26.000Z</time>
      </trkpt>
      <trkpt lat="46.88755" lon="4.76446">
        <ele>295.74</ele>
        <time>2015-07-14T13:29:28.000Z</time>
      </trkpt>
      <trkpt lat="46.88763" lon="4.76442">
        <ele>295.74</ele>
        <time>2015-07-14T13:29:30.000Z</time>
      </trkpt>
      <trkpt lat="46.88773" lon="4.76438">
        <ele>295.74</ele>
        <time>2015-07-14T13:29:32.000Z</time>
      </trkpt>
      <trkpt lat="46.88781" lon="4.76434">
        <ele>295.74</ele>
        <time>2015-07-14T13:29:34.000Z</time>
      </trkpt>
      <trkpt lat="46.88789" lon="4.76428">
        <ele>296.22</ele>
        <time>2015-07-14T13:29:36.000Z</time>
      </trkpt>
      <trkpt lat="46.88798" lon="4.76423">
        <ele>296.22</ele>
        <time>2015-07-14T13:29:38.000Z</time>
      </trkpt>
      <trkpt lat="46.88806" lon="4.76415">
        <ele>296.22</ele>
        <time>2015-07-14T13:29:40.000Z</time>
      </trkpt>
      <trkpt lat="46.88814" lon="4.76407">
        <ele>295.74</ele>
        <time>2015-07-14T13:29:42.000Z</time>
      </trkpt>
      <trkpt lat="46.88822" lon="4.76397">
        <ele>296.22</ele>
        <time>2015-07-14T13:29:44.000Z</time>
      </trkpt>
      <trkpt lat="46.88829" lon="4.76387">
        <ele>296.22</ele>
        <time>2015-07-14T13:29:46.000Z</time>
      </trkpt>
      <trkpt lat="46.88836" lon="4.76375">
        <ele>296.22</ele>
        <time>2015-07-14T13:29:48.000Z</time>
      </trkpt>
      <trkpt lat="46.88841" lon="4.76363">
        <ele>296.22</ele>
        <time>2015-07-14T13:29:50.000Z</time>
      </trkpt>
      <trkpt lat="46.88846" lon="4.76351">
        <ele>296.22</ele>
        <time>2015-07-14T13:29:52.000Z</time>
      </trkpt>
      <trkpt lat="46.88851" lon="4.7634">
        <ele>296.22</ele>
        <time>2015-07-14T13:29:54.000Z</time>
      </trkpt>
      <trkpt lat="46.88858" lon="4.76324">
        <ele>296.22</ele>
        <time>2015-07-14T13:29:57.000Z</time>
      </trkpt>
      <trkpt lat="46.88862" lon="4.76311">
        <ele>295.74</ele>
        <time>2015-07-14T13:30:00.000Z</time>
      </trkpt>
      <trkpt lat="46.88868" lon="4.76296">
        <ele>296.22</ele>
        <time>2015-07-14T13:30:03.000Z</time>
      </trkpt>
      <trkpt lat="46.88876" lon="4.7628">
        <ele>296.22</ele>
        <time>2015-07-14T13:30:06.000Z</time>
      </trkpt>
      <trkpt lat="46.8888" lon="4.76268">
        <ele>295.74</ele>
        <time>2015-07-14T13:30:08.000Z</time>
      </trkpt>
      <trkpt lat="46.88885" lon="4.76257">
        <ele>295.74</ele>
        <time>2015-07-14T13:30:10.000Z</time>
      </trkpt>
      <trkpt lat="46.8889" lon="4.76245">
        <ele>296.22</ele>
        <time>2015-07-14T13:30:12.000Z</time>
      </trkpt>
      <trkpt lat="46.88895" lon="4.76233">
        <ele>296.22</ele>
        <time>2015-07-14T13:30:14.000Z</time>
      </trkpt>
      <trkpt lat="46.88899" lon="4.76222">
        <ele>296.22</ele>
        <time>2015-07-14T13:30:16.000Z</time>
      </trkpt>
      <trkpt lat="46.88904" lon="4.7621">
        <ele>296.22</ele>
        <time>2015-07-14T13:30:18.000Z</time>
      </trkpt>
      <trkpt lat="46.88909" lon="4.76198">
        <ele>296.22</ele>
        <time>2015-07-14T13:30:20.000Z</time>
      </trkpt>
      <trkpt lat="46.88913" lon="4.76186">
        <ele>296.22</ele>
        <time>2015-07-14T13:30:22.000Z</time>
      </trkpt>
      <trkpt lat="46.88918" lon="4.76174">
        <ele>296.22</ele>
        <time>2015-07-14T13:30:24.000Z</time>
      </trkpt>
      <trkpt lat="46.88924" lon="4.76162">
        <ele>295.74</ele>
        <time>2015-07-14T13:30:26.000Z</time>
      </trkpt>
      <trkpt lat="46.88929" lon="4.76149">
        <ele>296.22</ele>
        <time>2015-07-14T13:30:28.000Z</time>
      </trkpt>
      <trkpt lat="46.88934" lon="4.76136">
        <ele>296.22</ele>
        <time>2015-07-14T13:30:30.000Z</time>
      </trkpt>
      <trkpt lat="46.88939" lon="4.76124">
        <ele>296.7</ele>
        <time>2015-07-14T13:30:32.000Z</time>
      </trkpt>
      <trkpt lat="46.88944" lon="4.76113">
        <ele>296.7</ele>
        <time>2015-07-14T13:30:34.000Z</time>
      </trkpt>
      <trkpt lat="46.88951" lon="4.76098">
        <ele>297.67</ele>
        <time>2015-07-14T13:30:37.000Z</time>
      </trkpt>
      <trkpt lat="46.88958" lon="4.76084">
        <ele>298.63</ele>
        <time>2015-07-14T13:30:40.000Z</time>
      </trkpt>
      <trkpt lat="46.88965" lon="4.76069">
        <ele>298.63</ele>
        <time>2015-07-14T13:30:43.000Z</time>
      </trkpt>
      <trkpt lat="46.88972" lon="4.76053">
        <ele>299.59</ele>
        <time>2015-07-14T13:30:46.000Z</time>
      </trkpt>
      <trkpt lat="46.88976" lon="4.76041">
        <ele>299.59</ele>
        <time>2015-07-14T13:30:48.000Z</time>
      </trkpt>
      <trkpt lat="46.8898" lon="4.76028">
        <ele>299.11</ele>
        <time>2015-07-14T13:30:50.000Z</time>
      </trkpt>
      <trkpt lat="46.88985" lon="4.76016">
        <ele>299.59</ele>
        <time>2015-07-14T13:30:52.000Z</time>
      </trkpt>
      <trkpt lat="46.8899" lon="4.76003">
        <ele>299.59</ele>
        <time>2015-07-14T13:30:54.000Z</time>
      </trkpt>
      <trkpt lat="46.88996" lon="4.75991">
        <ele>299.59</ele>
        <time>2015-07-14T13:30:56.000Z</time>
      </trkpt>
      <trkpt lat="46.89001" lon="4.75979">
        <ele>299.59</ele>
        <time>2015-07-14T13:30:58.000Z</time>
      </trkpt>
      <trkpt lat="46.89006" lon="4.75966">
        <ele>300.07</ele>
        <time>2015-07-14T13:31:00.000Z</time>
      </trkpt>
      <trkpt lat="46.89012" lon="4.75954">
        <ele>299.59</ele>
        <time>2015-07-14T13:31:02.000Z</time>
      </trkpt>
      <trkpt lat="46.89017" lon="4.75941">
        <ele>299.59</ele>
        <time>2015-07-14T13:31:04.000Z</time>
      </trkpt>
      <trkpt lat="46.89022" lon="4.75929">
        <ele>299.59</ele>
        <time>2015-07-14T13:31:06.000Z</time>
      </trkpt>
      <trkpt lat="46.89027" lon="4.75916">
        <ele>299.59</ele>
        <time>2015-07-14T13:31:08.000Z</time>
      </trkpt>
      <trkpt lat="46.89032" lon="4.75904">
        <ele>300.07</ele>
        <time>2015-07-14T13:31:10.000Z</time>
      </trkpt>
      <trkpt lat="46.89037" lon="4.75892">
        <ele>300.07</ele>
        <time>2015-07-14T13:31:12.000Z</time>
      </trkpt>
      <trkpt lat="46.89043" lon="4.75879">
        <ele>299.59</ele>
        <time>2015-07-14T13:31:14.000Z</time>
      </trkpt>
      <trkpt lat="46.89048" lon="4.75866">
        <ele>299.59</ele>
        <time>2015-07-14T13:31:16.000Z</time>
      </trkpt>
      <trkpt lat="46.89054" lon="4.75853">
        <ele>299.59</ele>
        <time>2015-07-14T13:31:18.000Z</time>
      </trkpt>
      <trkpt lat="46.89059" lon="4.7584">
        <ele>300.07</ele>
        <time>2015-07-14T13:31:20.000Z</time>
      </trkpt>
      <trkpt lat="46.89064" lon="4.75828">
        <ele>299.59</ele>
        <time>2015-07-14T13:31:22.000Z</time>
      </trkpt>
      <trkpt lat="46.89072" lon="4.7581">
        <ele>299.59</ele>
        <time>2015-07-14T13:31:25.000Z</time>
      </trkpt>
      <trkpt lat="46.89078" lon="4.75797">
        <ele>300.07</ele>
        <time>2015-07-14T13:31:27.000Z</time>
      </trkpt>
      <trkpt lat="46.89083" lon="4.75784">
        <ele>299.59</ele>
        <time>2015-07-14T13:31:29.000Z</time>
      </trkpt>
      <trkpt lat="46.89089" lon="4.75771">
        <ele>299.59</ele>
        <time>2015-07-14T13:31:31.000Z</time>
      </trkpt>
      <trkpt lat="46.89095" lon="4.75757">
        <ele>299.59</ele>
        <time>2015-07-14T13:31:33.000Z</time>
      </trkpt>
      <trkpt lat="46.89101" lon="4.75743">
        <ele>299.59</ele>
        <time>2015-07-14T13:31:35.000Z</time>
      </trkpt>
      <trkpt lat="46.89107" lon="4.7573">
        <ele>299.59</ele>
        <time>2015-07-14T13:31:37.000Z</time>
      </trkpt>
      <trkpt lat="46.89114" lon="4.75718">
        <ele>299.59</ele>
        <time>2015-07-14T13:31:39.000Z</time>
      </trkpt>
      <trkpt lat="46.89123" lon="4.75707">
        <ele>300.07</ele>
        <time>2015-07-14T13:31:41.000Z</time>
      </trkpt>
      <trkpt lat="46.89133" lon="4.75699">
        <ele>300.07</ele>
        <time>2015-07-14T13:31:43.000Z</time>
      </trkpt>
      <trkpt lat="46.89143" lon="4.75694">
        <ele>300.07</ele>
        <time>2015-07-14T13:31:45.000Z</time>
      </trkpt>
      <trkpt lat="46.89153" lon="4.7569">
        <ele>300.07</ele>
        <time>2015-07-14T13:31:47.000Z</time>
      </trkpt>
      <trkpt lat="46.89163" lon="4.75688">
        <ele>300.07</ele>
        <time>2015-07-14T13:31:49.000Z</time>
      </trkpt>
      <trkpt lat="46.89174" lon="4.75684">
        <ele>300.07</ele>
        <time>2015-07-14T13:31:51.000Z</time>
      </trkpt>
      <trkpt lat="46.89186" lon="4.7568">
        <ele>299.59</ele>
        <time>2015-07-14T13:31:53.000Z</time>
      </trkpt>
      <trkpt lat="46.89198" lon="4.75676">
        <ele>300.07</ele>
        <time>2015-07-14T13:31:55.000Z</time>
      </trkpt>
      <trkpt lat="46.89209" lon="4.75673">
        <ele>300.07</ele>
        <time>2015-07-14T13:31:57.000Z</time>
      </trkpt>
      <trkpt lat="46.8922" lon="4.7567">
        <ele>300.07</ele>
        <time>2015-07-14T13:31:59.000Z</time>
      </trkpt>
      <trkpt lat="46.89231" lon="4.75666">
        <ele>300.07</ele>
        <time>2015-07-14T13:32:01.000Z</time>
      </trkpt>
      <trkpt lat="46.89242" lon="4.75662">
        <ele>300.07</ele>
        <time>2015-07-14T13:32:03.000Z</time>
      </trkpt>
      <trkpt lat="46.89253" lon="4.75657">
        <ele>300.55</ele>
        <time>2015-07-14T13:32:05.000Z</time>
      </trkpt>
      <trkpt lat="46.89264" lon="4.75654">
        <ele>300.07</ele>
        <time>2015-07-14T13:32:07.000Z</time>
      </trkpt>
      <trkpt lat="46.89275" lon="4.7565">
        <ele>300.07</ele>
        <time>2015-07-14T13:32:09.000Z</time>
      </trkpt>
      <trkpt lat="46.89286" lon="4.75646">
        <ele>300.55</ele>
        <time>2015-07-14T13:32:11.000Z</time>
      </trkpt>
      <trkpt lat="46.89298" lon="4.75642">
        <ele>300.07</ele>
        <time>2015-07-14T13:32:13.000Z</time>
      </trkpt>
      <trkpt lat="46.8931" lon="4.75638">
        <ele>300.07</ele>
        <time>2015-07-14T13:32:15.000Z</time>
      </trkpt>
      <trkpt lat="46.89321" lon="4.75634">
        <ele>300.55</ele>
        <time>2015-07-14T13:32:17.000Z</time>
      </trkpt>
      <trkpt lat="46.89333" lon="4.75631">
        <ele>300.55</ele>
        <time>2015-07-14T13:32:19.000Z</time>
      </trkpt>
      <trkpt lat="46.89345" lon="4.75628">
        <ele>301.03</ele>
        <time>2015-07-14T13:32:21.000Z</time>
      </trkpt>
      <trkpt lat="46.89357" lon="4.75625">
        <ele>301.03</ele>
        <time>2015-07-14T13:32:23.000Z</time>
      </trkpt>
      <trkpt lat="46.8937" lon="4.75621">
        <ele>300.55</ele>
        <time>2015-07-14T13:32:25.000Z</time>
      </trkpt>
      <trkpt lat="46.89383" lon="4.75617">
        <ele>300.55</ele>
        <time>2015-07-14T13:32:27.000Z</time>
      </trkpt>
      <trkpt lat="46.89396" lon="4.75612">
        <ele>300.55</ele>
        <time>2015-07-14T13:32:29.000Z</time>
      </trkpt>
      <trkpt lat="46.89408" lon="4.75607">
        <ele>300.55</ele>
        <time>2015-07-14T13:32:31.000Z</time>
      </trkpt>
      <trkpt lat="46.89421" lon="4.75602">
        <ele>300.55</ele>
        <time>2015-07-14T13:32:33.000Z</time>
      </trkpt>
      <trkpt lat="46.89434" lon="4.75598">
        <ele>301.03</ele>
        <time>2015-07-14T13:32:35.000Z</time>
      </trkpt>
      <trkpt lat="46.89447" lon="4.75594">
        <ele>301.03</ele>
        <time>2015-07-14T13:32:37.000Z</time>
      </trkpt>
      <trkpt lat="46.89458" lon="4.7559">
        <ele>300.55</ele>
        <time>2015-07-14T13:32:39.000Z</time>
      </trkpt>
      <trkpt lat="46.8947" lon="4.75585">
        <ele>300.55</ele>
        <time>2015-07-14T13:32:41.000Z</time>
      </trkpt>
      <trkpt lat="46.89481" lon="4.75581">
        <ele>300.55</ele>
        <time>2015-07-14T13:32:43.000Z</time>
      </trkpt>
      <trkpt lat="46.89492" lon="4.75577">
        <ele>300.55</ele>
        <time>2015-07-14T13:32:45.000Z</time>
      </trkpt>
      <trkpt lat="46.89502" lon="4.75574">
        <ele>301.03</ele>
        <time>2015-07-14T13:32:47.000Z</time>
      </trkpt>
      <trkpt lat="46.89513" lon="4.7557">
        <ele>300.55</ele>
        <time>2015-07-14T13:32:49.000Z</time>
      </trkpt>
      <trkpt lat="46.89523" lon="4.75566">
        <ele>300.55</ele>
        <time>2015-07-14T13:32:51.000Z</time>
      </trkpt>
      <trkpt lat="46.89535" lon="4.75563">
        <ele>300.07</ele>
        <time>2015-07-14T13:32:53.000Z</time>
      </trkpt>
      <trkpt lat="46.89547" lon="4.75558">
        <ele>300.07</ele>
        <time>2015-07-14T13:32:55.000Z</time>
      </trkpt>
      <trkpt lat="46.89558" lon="4.75553">
        <ele>300.55</ele>
        <time>2015-07-14T13:32:57.000Z</time>
      </trkpt>
      <trkpt lat="46.89569" lon="4.75551">
        <ele>300.55</ele>
        <time>2015-07-14T13:32:59.000Z</time>
      </trkpt>
      <trkpt lat="46.89578" lon="4.75548">
        <ele>300.55</ele>
        <time>2015-07-14T13:33:01.000Z</time>
      </trkpt>
      <trkpt lat="46.89589" lon="4.75543">
        <ele>300.55</ele>
        <time>2015-07-14T13:33:03.000Z</time>
      </trkpt>
      <trkpt lat="46.896" lon="4.75538">
        <ele>300.55</ele>
        <time>2015-07-14T13:33:05.000Z</time>
      </trkpt>
      <trkpt lat="46.89609" lon="4.75535">
        <ele>300.07</ele>
        <time>2015-07-14T13:33:07.000Z</time>
      </trkpt>
      <trkpt lat="46.89622" lon="4.75529">
        <ele>300.55</ele>
        <time>2015-07-14T13:33:10.000Z</time>
      </trkpt>
      <trkpt lat="46.89636" lon="4.75527">
        <ele>300.55</ele>
        <time>2015-07-14T13:33:13.000Z</time>
      </trkpt>
      <trkpt lat="46.89646" lon="4.75523">
        <ele>300.55</ele>
        <time>2015-07-14T13:33:15.000Z</time>
      </trkpt>
      <trkpt lat="46.89656" lon="4.7552">
        <ele>300.55</ele>
        <time>2015-07-14T13:33:17.000Z</time>
      </trkpt>
      <trkpt lat="46.89667" lon="4.75516">
        <ele>300.55</ele>
        <time>2015-07-14T13:33:19.000Z</time>
      </trkpt>
      <trkpt lat="46.89677" lon="4.75513">
        <ele>301.03</ele>
        <time>2015-07-14T13:33:21.000Z</time>
      </trkpt>
      <trkpt lat="46.89688" lon="4.75509">
        <ele>301.03</ele>
        <time>2015-07-14T13:33:23.000Z</time>
      </trkpt>
      <trkpt lat="46.89699" lon="4.75506">
        <ele>301.03</ele>
        <time>2015-07-14T13:33:25.000Z</time>
      </trkpt>
      <trkpt lat="46.8971" lon="4.75502">
        <ele>300.55</ele>
        <time>2015-07-14T13:33:27.000Z</time>
      </trkpt>
      <trkpt lat="46.89722" lon="4.75498">
        <ele>300.55</ele>
        <time>2015-07-14T13:33:29.000Z</time>
      </trkpt>
      <trkpt lat="46.89734" lon="4.75494">
        <ele>300.55</ele>
        <time>2015-07-14T13:33:31.000Z</time>
      </trkpt>
      <trkpt lat="46.89745" lon="4.7549">
        <ele>300.55</ele>
        <time>2015-07-14T13:33:33.000Z</time>
      </trkpt>
      <trkpt lat="46.89756" lon="4.75486">
        <ele>300.55</ele>
        <time>2015-07-14T13:33:35.000Z</time>
      </trkpt>
      <trkpt lat="46.89767" lon="4.75482">
        <ele>301.03</ele>
        <time>2015-07-14T13:33:37.000Z</time>
      </trkpt>
      <trkpt lat="46.89778" lon="4.75478">
        <ele>301.03</ele>
        <time>2015-07-14T13:33:39.000Z</time>
      </trkpt>
      <trkpt lat="46.89788" lon="4.75475">
        <ele>300.55</ele>
        <time>2015-07-14T13:33:41.000Z</time>
      </trkpt>
      <trkpt lat="46.89799" lon="4.75471">
        <ele>300.55</ele>
        <time>2015-07-14T13:33:43.000Z</time>
      </trkpt>
      <trkpt lat="46.8981" lon="4.75468">
        <ele>300.55</ele>
        <time>2015-07-14T13:33:45.000Z</time>
      </trkpt>
      <trkpt lat="46.89821" lon="4.75465">
        <ele>300.55</ele>
        <time>2015-07-14T13:33:47.000Z</time>
      </trkpt>
      <trkpt lat="46.89832" lon="4.75462">
        <ele>300.55</ele>
        <time>2015-07-14T13:33:49.000Z</time>
      </trkpt>
      <trkpt lat="46.89843" lon="4.75458">
        <ele>300.55</ele>
        <time>2015-07-14T13:33:51.000Z</time>
      </trkpt>
      <trkpt lat="46.89854" lon="4.75454">
        <ele>300.55</ele>
        <time>2015-07-14T13:33:53.000Z</time>
      </trkpt>
      <trkpt lat="46.89865" lon="4.75451">
        <ele>300.07</ele>
        <time>2015-07-14T13:33:55.000Z</time>
      </trkpt>
      <trkpt lat="46.89875" lon="4.75447">
        <ele>300.07</ele>
        <time>2015-07-14T13:33:57.000Z</time>
      </trkpt>
      <trkpt lat="46.89886" lon="4.75443">
        <ele>299.59</ele>
        <time>2015-07-14T13:33:59.000Z</time>
      </trkpt>
      <trkpt lat="46.89897" lon="4.7544">
        <ele>300.07</ele>
        <time>2015-07-14T13:34:01.000Z</time>
      </trkpt>
      <trkpt lat="46.89909" lon="4.75436">
        <ele>299.11</ele>
        <time>2015-07-14T13:34:03.000Z</time>
      </trkpt>
      <trkpt lat="46.8992" lon="4.75432">
        <ele>299.11</ele>
        <time>2015-07-14T13:34:05.000Z</time>
      </trkpt>
      <trkpt lat="46.89931" lon="4.75428">
        <ele>299.11</ele>
        <time>2015-07-14T13:34:07.000Z</time>
      </trkpt>
      <trkpt lat="46.89943" lon="4.75424">
        <ele>299.11</ele>
        <time>2015-07-14T13:34:09.000Z</time>
      </trkpt>
      <trkpt lat="46.89954" lon="4.7542">
        <ele>299.11</ele>
        <time>2015-07-14T13:34:11.000Z</time>
      </trkpt>
      <trkpt lat="46.89966" lon="4.75417">
        <ele>300.07</ele>
        <time>2015-07-14T13:34:13.000Z</time>
      </trkpt>
      <trkpt lat="46.89978" lon="4.75414">
        <ele>300.07</ele>
        <time>2015-07-14T13:34:15.000Z</time>
      </trkpt>
      <trkpt lat="46.8999" lon="4.75411">
        <ele>300.07</ele>
        <time>2015-07-14T13:34:17.000Z</time>
      </trkpt>
      <trkpt lat="46.90002" lon="4.75406">
        <ele>300.07</ele>
        <time>2015-07-14T13:34:19.000Z</time>
      </trkpt>
      <trkpt lat="46.90014" lon="4.75402">
        <ele>300.07</ele>
        <time>2015-07-14T13:34:21.000Z</time>
      </trkpt>
      <trkpt lat="46.90026" lon="4.75398">
        <ele>300.07</ele>
        <time>2015-07-14T13:34:23.000Z</time>
      </trkpt>
      <trkpt lat="46.90037" lon="4.75394">
        <ele>300.07</ele>
        <time>2015-07-14T13:34:25.000Z</time>
      </trkpt>
      <trkpt lat="46.90048" lon="4.7539">
        <ele>300.07</ele>
        <time>2015-07-14T13:34:27.000Z</time>
      </trkpt>
      <trkpt lat="46.90059" lon="4.75386">
        <ele>300.07</ele>
        <time>2015-07-14T13:34:29.000Z</time>
      </trkpt>
      <trkpt lat="46.9007" lon="4.75383">
        <ele>300.55</ele>
        <time>2015-07-14T13:34:31.000Z</time>
      </trkpt>
      <trkpt lat="46.90081" lon="4.7538">
        <ele>300.55</ele>
        <time>2015-07-14T13:34:33.000Z</time>
      </trkpt>
      <trkpt lat="46.90092" lon="4.75376">
        <ele>300.55</ele>
        <time>2015-07-14T13:34:35.000Z</time>
      </trkpt>
      <trkpt lat="46.90104" lon="4.75371">
        <ele>300.07</ele>
        <time>2015-07-14T13:34:37.000Z</time>
      </trkpt>
      <trkpt lat="46.90115" lon="4.75366">
        <ele>300.55</ele>
        <time>2015-07-14T13:34:39.000Z</time>
      </trkpt>
      <trkpt lat="46.90126" lon="4.75363">
        <ele>300.55</ele>
        <time>2015-07-14T13:34:41.000Z</time>
      </trkpt>
      <trkpt lat="46.90137" lon="4.75359">
        <ele>300.07</ele>
        <time>2015-07-14T13:34:43.000Z</time>
      </trkpt>
      <trkpt lat="46.90148" lon="4.75355">
        <ele>300.55</ele>
        <time>2015-07-14T13:34:45.000Z</time>
      </trkpt>
      <trkpt lat="46.90159" lon="4.75352">
        <ele>301.03</ele>
        <time>2015-07-14T13:34:47.000Z</time>
      </trkpt>
      <trkpt lat="46.90169" lon="4.75348">
        <ele>301.03</ele>
        <time>2015-07-14T13:34:49.000Z</time>
      </trkpt>
      <trkpt lat="46.90179" lon="4.75345">
        <ele>300.55</ele>
        <time>2015-07-14T13:34:51.000Z</time>
      </trkpt>
      <trkpt lat="46.90189" lon="4.75342">
        <ele>300.55</ele>
        <time>2015-07-14T13:34:53.000Z</time>
      </trkpt>
      <trkpt lat="46.90202" lon="4.75338">
        <ele>300.07</ele>
        <time>2015-07-14T13:34:56.000Z</time>
      </trkpt>
      <trkpt lat="46.90211" lon="4.75328">
        <ele>300.55</ele>
        <time>2015-07-14T13:34:59.000Z</time>
      </trkpt>
      <trkpt lat="46.90216" lon="4.75312">
        <ele>300.55</ele>
        <time>2015-07-14T13:35:02.000Z</time>
      </trkpt>
      <trkpt lat="46.90218" lon="4.75297">
        <ele>300.55</ele>
        <time>2015-07-14T13:35:05.000Z</time>
      </trkpt>
      <trkpt lat="46.90221" lon="4.75282">
        <ele>300.55</ele>
        <time>2015-07-14T13:35:08.000Z</time>
      </trkpt>
      <trkpt lat="46.90223" lon="4.75267">
        <ele>301.03</ele>
        <time>2015-07-14T13:35:11.000Z</time>
      </trkpt>
      <trkpt lat="46.90225" lon="4.75252">
        <ele>301.03</ele>
        <time>2015-07-14T13:35:14.000Z</time>
      </trkpt>
      <trkpt lat="46.90228" lon="4.75239">
        <ele>300.55</ele>
        <time>2015-07-14T13:35:17.000Z</time>
      </trkpt>
      <trkpt lat="46.90229" lon="4.75226">
        <ele>301.03</ele>
        <time>2015-07-14T13:35:21.000Z</time>
      </trkpt>
      <trkpt lat="46.90229" lon="4.75214">
        <ele>301.99</ele>
        <time>2015-07-14T13:35:39.000Z</time>
      </trkpt>
      <trkpt lat="46.90235" lon="4.75201">
        <ele>302.47</ele>
        <time>2015-07-14T13:35:44.000Z</time>
      </trkpt>
      <trkpt lat="46.90232" lon="4.75197">
        <ele>301.99</ele>
        <time>2015-07-14T13:35:49.000Z</time>
      </trkpt>
      <trkpt lat="46.90236" lon="4.75211">
        <ele>301.99</ele>
        <time>2015-07-14T13:37:49.000Z</time>
      </trkpt>
      <trkpt lat="46.90243" lon="4.75218">
        <ele>302.95</ele>
        <time>2015-07-14T13:37:53.000Z</time>
      </trkpt>
      <trkpt lat="46.90254" lon="4.7522">
        <ele>303.43</ele>
        <time>2015-07-14T13:37:57.000Z</time>
      </trkpt>
      <trkpt lat="46.90266" lon="4.7522">
        <ele>303.91</ele>
        <time>2015-07-14T13:38:01.000Z</time>
      </trkpt>
      <trkpt lat="46.90276" lon="4.75221">
        <ele>303.91</ele>
        <time>2015-07-14T13:38:04.000Z</time>
      </trkpt>
      <trkpt lat="46.90285" lon="4.7522">
        <ele>303.91</ele>
        <time>2015-07-14T13:38:07.000Z</time>
      </trkpt>
      <trkpt lat="46.90296" lon="4.75221">
        <ele>303.91</ele>
        <time>2015-07-14T13:38:10.000Z</time>
      </trkpt>
      <trkpt lat="46.90308" lon="4.7522">
        <ele>303.91</ele>
        <time>2015-07-14T13:38:13.000Z</time>
      </trkpt>
      <trkpt lat="46.90321" lon="4.75219">
        <ele>302.47</ele>
        <time>2015-07-14T13:38:16.000Z</time>
      </trkpt>
      <trkpt lat="46.90334" lon="4.75219">
        <ele>302.95</ele>
        <time>2015-07-14T13:38:19.000Z</time>
      </trkpt>
      <trkpt lat="46.90343" lon="4.75219">
        <ele>301.99</ele>
        <time>2015-07-14T13:38:21.000Z</time>
      </trkpt>
      <trkpt lat="46.90352" lon="4.75219">
        <ele>301.51</ele>
        <time>2015-07-14T13:38:23.000Z</time>
      </trkpt>
      <trkpt lat="46.90363" lon="4.75218">
        <ele>301.99</ele>
        <time>2015-07-14T13:38:25.000Z</time>
      </trkpt>
      <trkpt lat="46.90373" lon="4.75218">
        <ele>301.03</ele>
        <time>2015-07-14T13:38:27.000Z</time>
      </trkpt>
      <trkpt lat="46.90384" lon="4.75218">
        <ele>301.51</ele>
        <time>2015-07-14T13:38:29.000Z</time>
      </trkpt>
      <trkpt lat="46.90395" lon="4.75217">
        <ele>301.51</ele>
        <time>2015-07-14T13:38:31.000Z</time>
      </trkpt>
      <trkpt lat="46.90406" lon="4.75217">
        <ele>301.99</ele>
        <time>2015-07-14T13:38:33.000Z</time>
      </trkpt>
      <trkpt lat="46.90417" lon="4.75217">
        <ele>300.55</ele>
        <time>2015-07-14T13:38:35.000Z</time>
      </trkpt>
      <trkpt lat="46.90429" lon="4.75217">
        <ele>301.03</ele>
        <time>2015-07-14T13:38:37.000Z</time>
      </trkpt>
      <trkpt lat="46.9044" lon="4.75217">
        <ele>301.03</ele>
        <time>2015-07-14T13:38:39.000Z</time>
      </trkpt>
      <trkpt lat="46.90451" lon="4.75217">
        <ele>300.55</ele>
        <time>2015-07-14T13:38:41.000Z</time>
      </trkpt>
      <trkpt lat="46.90462" lon="4.75217">
        <ele>300.55</ele>
        <time>2015-07-14T13:38:43.000Z</time>
      </trkpt>
      <trkpt lat="46.90472" lon="4.75218">
        <ele>299.59</ele>
        <time>2015-07-14T13:38:45.000Z</time>
      </trkpt>
      <trkpt lat="46.90483" lon="4.75218">
        <ele>300.07</ele>
        <time>2015-07-14T13:38:47.000Z</time>
      </trkpt>
      <trkpt lat="46.90494" lon="4.75218">
        <ele>300.07</ele>
        <time>2015-07-14T13:38:49.000Z</time>
      </trkpt>
      <trkpt lat="46.90505" lon="4.75218">
        <ele>300.07</ele>
        <time>2015-07-14T13:38:51.000Z</time>
      </trkpt>
      <trkpt lat="46.90514" lon="4.7522">
        <ele>300.07</ele>
        <time>2015-07-14T13:38:53.000Z</time>
      </trkpt>
      <trkpt lat="46.90522" lon="4.75228">
        <ele>299.59</ele>
        <time>2015-07-14T13:38:55.000Z</time>
      </trkpt>
      <trkpt lat="46.90527" lon="4.75238">
        <ele>299.59</ele>
        <time>2015-07-14T13:38:57.000Z</time>
      </trkpt>
      <trkpt lat="46.90538" lon="4.75241">
        <ele>299.11</ele>
        <time>2015-07-14T13:39:00.000Z</time>
      </trkpt>
      <trkpt lat="46.90548" lon="4.75231">
        <ele>298.63</ele>
        <time>2015-07-14T13:39:03.000Z</time>
      </trkpt>
      <trkpt lat="46.90561" lon="4.75228">
        <ele>298.15</ele>
        <time>2015-07-14T13:39:06.000Z</time>
      </trkpt>
      <trkpt lat="46.90573" lon="4.75232">
        <ele>297.67</ele>
        <time>2015-07-14T13:39:09.000Z</time>
      </trkpt>
      <trkpt lat="46.90585" lon="4.75238">
        <ele>298.15</ele>
        <time>2015-07-14T13:39:12.000Z</time>
      </trkpt>
      <trkpt lat="46.90598" lon="4.75245">
        <ele>298.15</ele>
        <time>2015-07-14T13:39:15.000Z</time>
      </trkpt>
      <trkpt lat="46.90609" lon="4.75253">
        <ele>298.15</ele>
        <time>2015-07-14T13:39:18.000Z</time>
      </trkpt>
      <trkpt lat="46.90622" lon="4.7526">
        <ele>298.15</ele>
        <time>2015-07-14T13:39:21.000Z</time>
      </trkpt>
      <trkpt lat="46.90634" lon="4.75267">
        <ele>297.67</ele>
        <time>2015-07-14T13:39:24.000Z</time>
      </trkpt>
      <trkpt lat="46.90643" lon="4.75272">
        <ele>297.18</ele>
        <time>2015-07-14T13:39:26.000Z</time>
      </trkpt>
      <trkpt lat="46.90652" lon="4.75277">
        <ele>296.7</ele>
        <time>2015-07-14T13:39:28.000Z</time>
      </trkpt>
      <trkpt lat="46.90661" lon="4.75283">
        <ele>296.7</ele>
        <time>2015-07-14T13:39:30.000Z</time>
      </trkpt>
      <trkpt lat="46.9067" lon="4.75288">
        <ele>296.7</ele>
        <time>2015-07-14T13:39:32.000Z</time>
      </trkpt>
      <trkpt lat="46.90679" lon="4.75294">
        <ele>295.74</ele>
        <time>2015-07-14T13:39:34.000Z</time>
      </trkpt>
      <trkpt lat="46.90689" lon="4.75298">
        <ele>295.74</ele>
        <time>2015-07-14T13:39:36.000Z</time>
      </trkpt>
      <trkpt lat="46.90699" lon="4.75303">
        <ele>295.26</ele>
        <time>2015-07-14T13:39:38.000Z</time>
      </trkpt>
      <trkpt lat="46.9071" lon="4.75307">
        <ele>295.26</ele>
        <time>2015-07-14T13:39:40.000Z</time>
      </trkpt>
      <trkpt lat="46.9072" lon="4.75311">
        <ele>294.78</ele>
        <time>2015-07-14T13:39:42.000Z</time>
      </trkpt>
      <trkpt lat="46.90729" lon="4.75314">
        <ele>293.82</ele>
        <time>2015-07-14T13:39:44.000Z</time>
      </trkpt>
      <trkpt lat="46.90738" lon="4.75317">
        <ele>293.34</ele>
        <time>2015-07-14T13:39:46.000Z</time>
      </trkpt>
      <trkpt lat="46.90747" lon="4.7532">
        <ele>292.86</ele>
        <time>2015-07-14T13:39:48.000Z</time>
      </trkpt>
      <trkpt lat="46.90757" lon="4.75326">
        <ele>292.38</ele>
        <time>2015-07-14T13:39:51.000Z</time>
      </trkpt>
      <trkpt lat="46.90757" lon="4.7534">
        <ele>291.9</ele>
        <time>2015-07-14T13:39:54.000Z</time>
      </trkpt>
      <trkpt lat="46.90751" lon="4.75355">
        <ele>292.86</ele>
        <time>2015-07-14T13:39:58.000Z</time>
      </trkpt>
      <trkpt lat="46.90741" lon="4.75366">
        <ele>292.86</ele>
        <time>2015-07-14T13:40:02.000Z</time>
      </trkpt>
      <trkpt lat="46.90734" lon="4.75378">
        <ele>293.34</ele>
        <time>2015-07-14T13:40:06.000Z</time>
      </trkpt>
      <trkpt lat="46.90734" lon="4.7539">
        <ele>293.82</ele>
        <time>2015-07-14T13:40:11.000Z</time>
      </trkpt>
      <trkpt lat="46.90744" lon="4.75397">
        <ele>293.82</ele>
        <time>2015-07-14T13:40:16.000Z</time>
      </trkpt>
      <trkpt lat="46.90754" lon="4.75405">
        <ele>293.82</ele>
        <time>2015-07-14T13:40:20.000Z</time>
      </trkpt>
      <trkpt lat="46.90764" lon="4.75413">
        <ele>293.82</ele>
        <time>2015-07-14T13:40:24.000Z</time>
      </trkpt>
      <trkpt lat="46.90775" lon="4.75415">
        <ele>293.34</ele>
        <time>2015-07-14T13:40:29.000Z</time>
      </trkpt>
      <trkpt lat="46.90783" lon="4.75413">
        <ele>292.38</ele>
        <time>2015-07-14T13:40:38.000Z</time>
      </trkpt>
      <trkpt lat="46.90783" lon="4.75414">
        <ele>291.42</ele>
        <time>2015-07-14T13:41:33.000Z</time>
      </trkpt>
      <trkpt lat="46.90783" lon="4.75414">
        <ele>220.28</ele>
        <time>2015-07-14T13:50:49.000Z</time>
      </trkpt>
      <trkpt lat="46.908" lon="4.75422">
        <ele>291.9</ele>
        <time>2015-07-14T13:50:59.000Z</time>
      </trkpt>
      <trkpt lat="46.908" lon="4.75422">
        <ele>272.67</ele>
        <time>2015-07-14T15:07:25.000Z</time>
      </trkpt>
      <trkpt lat="46.90798" lon="4.75425">
        <ele>293.34</ele>
        <time>2015-07-14T15:07:32.000Z</time>
      </trkpt>
    </trkseg>
  </trk>
</gpx>